<?xml version="1.0" encoding="UTF-8" standalone="no" ?>
<gpx xmlns="http://www.topografix.com/GPX/1/1" xmlns:xsi="http://www.w3.org/2001/XMLSchema-instance" xsi:schemaLocation="http://www.topografix.com/GPX/1/1 http://www.topografix.com/GPX/1/1/gpx.xsd" version="1.1" creator="VisuGPX - https://www.visugpx.com">
  <metadata>
    <name>2015-12-09 Bike ride-Chatillon-Limas</name>
    <desc><![CDATA[2015-12-09 Bike ride-Chatillon-Limas]]></desc>
  </metadata>
  <wpt lat="45.92473" lon="4.73716">
    <ele>171.6</ele>
    <name><![CDATA[2015-12-09 14:44 (Start)]]></name>
  </wpt>
  <wpt lat="45.92462" lon="4.73706">
    <ele>184</ele>
    <name><![CDATA[2015-12-09 14:44 (End)]]></name>
    <desc><![CDATA[Created by Google My Tracks on Android  Name: 2015-12-09 14:44 Activity type: biking Description: - Total distance: 38.38 km (23.8 mi) Total time: 1:51:54 Moving time: 1:50:03 Average speed: 20.58 km/h (12.8 mi/h) Average moving speed: 20.92 km/h (13.0 mi/h) Max speed: 42.53 km/h (26.4 mi/h) Average pace: 2:55 min/km (4:42 min/mi) Average moving pace: 2:52 min/km (4:37 min/mi) Fastest pace: 1:25 min/km (2:16 min/mi) Max elevation: 411 m (1349 ft) Min elevation: 161 m (529 ft) Elevation gain: 642 m (2107 ft) Max grade: 90 % Min grade: -9 % Recorded: 09/12/2015 14:44]]></desc>
  </wpt>
  <trk>
    <name><![CDATA[2015-12-09 14:44]]></name>
    <trkseg>
      <trkpt lat="45.92473" lon="4.73716">
        <ele>171.600006104</ele>
        <time>2015-12-09T13:44:11.049Z</time>
      </trkpt>
      <trkpt lat="45.92465" lon="4.73713">
        <ele>172.800003052</ele>
        <time>2015-12-09T13:44:42.536Z</time>
      </trkpt>
      <trkpt lat="45.92464" lon="4.73713">
        <ele>173.899993896</ele>
        <time>2015-12-09T13:44:43.537Z</time>
      </trkpt>
      <trkpt lat="45.92463" lon="4.73714">
        <ele>176.399993896</ele>
        <time>2015-12-09T13:45:07.513Z</time>
      </trkpt>
      <trkpt lat="45.92458" lon="4.73725">
        <ele>198.899993896</ele>
        <time>2015-12-09T13:45:08.495Z</time>
      </trkpt>
      <trkpt lat="45.92465" lon="4.73721">
        <ele>192.5</ele>
        <time>2015-12-09T13:45:21.51Z</time>
      </trkpt>
      <trkpt lat="45.92468" lon="4.73717">
        <ele>190.899993896</ele>
        <time>2015-12-09T13:45:22.498Z</time>
      </trkpt>
      <trkpt lat="45.9247" lon="4.73708">
        <ele>189.199996948</ele>
        <time>2015-12-09T13:45:25.51Z</time>
      </trkpt>
      <trkpt lat="45.9247" lon="4.73703">
        <ele>188.5</ele>
        <time>2015-12-09T13:45:26.496Z</time>
      </trkpt>
      <trkpt lat="45.92472" lon="4.73694">
        <ele>187.600006104</ele>
        <time>2015-12-09T13:45:28.52Z</time>
      </trkpt>
      <trkpt lat="45.92472" lon="4.7369">
        <ele>187.199996948</ele>
        <time>2015-12-09T13:45:29.496Z</time>
      </trkpt>
      <trkpt lat="45.92474" lon="4.73679">
        <ele>185.899993896</ele>
        <time>2015-12-09T13:45:31.51Z</time>
      </trkpt>
      <trkpt lat="45.92475" lon="4.73674">
        <ele>185.5</ele>
        <time>2015-12-09T13:45:32.496Z</time>
      </trkpt>
      <trkpt lat="45.92476" lon="4.73663">
        <ele>184.5</ele>
        <time>2015-12-09T13:45:34.513Z</time>
      </trkpt>
      <trkpt lat="45.92476" lon="4.73657">
        <ele>184.399993896</ele>
        <time>2015-12-09T13:45:35.496Z</time>
      </trkpt>
      <trkpt lat="45.92477" lon="4.73644">
        <ele>184.199996948</ele>
        <time>2015-12-09T13:45:37.51Z</time>
      </trkpt>
      <trkpt lat="45.92477" lon="4.73637">
        <ele>184.300003052</ele>
        <time>2015-12-09T13:45:38.496Z</time>
      </trkpt>
      <trkpt lat="45.92477" lon="4.7363">
        <ele>184.300003052</ele>
        <time>2015-12-09T13:45:39.524Z</time>
      </trkpt>
      <trkpt lat="45.92477" lon="4.73624">
        <ele>184.600006104</ele>
        <time>2015-12-09T13:45:40.498Z</time>
      </trkpt>
      <trkpt lat="45.92477" lon="4.73616">
        <ele>185</ele>
        <time>2015-12-09T13:45:41.515Z</time>
      </trkpt>
      <trkpt lat="45.92477" lon="4.73609">
        <ele>184.899993896</ele>
        <time>2015-12-09T13:45:42.496Z</time>
      </trkpt>
      <trkpt lat="45.92476" lon="4.73601">
        <ele>184.800003052</ele>
        <time>2015-12-09T13:45:43.509Z</time>
      </trkpt>
      <trkpt lat="45.92476" lon="4.73594">
        <ele>184.800003052</ele>
        <time>2015-12-09T13:45:44.554Z</time>
      </trkpt>
      <trkpt lat="45.92477" lon="4.73587">
        <ele>184.800003052</ele>
        <time>2015-12-09T13:45:45.509Z</time>
      </trkpt>
      <trkpt lat="45.92477" lon="4.73579">
        <ele>185.100006104</ele>
        <time>2015-12-09T13:45:46.497Z</time>
      </trkpt>
      <trkpt lat="45.92477" lon="4.73573">
        <ele>185.199996948</ele>
        <time>2015-12-09T13:45:47.509Z</time>
      </trkpt>
      <trkpt lat="45.92476" lon="4.73566">
        <ele>185.300003052</ele>
        <time>2015-12-09T13:45:48.495Z</time>
      </trkpt>
      <trkpt lat="45.92472" lon="4.73557">
        <ele>185.5</ele>
        <time>2015-12-09T13:45:50.51Z</time>
      </trkpt>
      <trkpt lat="45.92469" lon="4.73554">
        <ele>185.399993896</ele>
        <time>2015-12-09T13:45:51.495Z</time>
      </trkpt>
      <trkpt lat="45.9246" lon="4.73552">
        <ele>184.5</ele>
        <time>2015-12-09T13:45:53.679Z</time>
      </trkpt>
      <trkpt lat="45.92456" lon="4.73553">
        <ele>184</ele>
        <time>2015-12-09T13:45:54.512Z</time>
      </trkpt>
      <trkpt lat="45.92451" lon="4.73554">
        <ele>183.600006104</ele>
        <time>2015-12-09T13:45:55.534Z</time>
      </trkpt>
      <trkpt lat="45.92447" lon="4.73556">
        <ele>183.300003052</ele>
        <time>2015-12-09T13:45:56.5Z</time>
      </trkpt>
      <trkpt lat="45.92442" lon="4.73558">
        <ele>183.399993896</ele>
        <time>2015-12-09T13:45:57.529Z</time>
      </trkpt>
      <trkpt lat="45.92437" lon="4.7356">
        <ele>183.399993896</ele>
        <time>2015-12-09T13:45:58.51Z</time>
      </trkpt>
      <trkpt lat="45.92433" lon="4.73563">
        <ele>183.5</ele>
        <time>2015-12-09T13:45:59.527Z</time>
      </trkpt>
      <trkpt lat="45.92428" lon="4.73565">
        <ele>183</ele>
        <time>2015-12-09T13:46:00.532Z</time>
      </trkpt>
      <trkpt lat="45.92422" lon="4.73568">
        <ele>182.5</ele>
        <time>2015-12-09T13:46:01.533Z</time>
      </trkpt>
      <trkpt lat="45.92418" lon="4.73571">
        <ele>182.199996948</ele>
        <time>2015-12-09T13:46:02.5Z</time>
      </trkpt>
      <trkpt lat="45.92413" lon="4.73574">
        <ele>182</ele>
        <time>2015-12-09T13:46:03.51Z</time>
      </trkpt>
      <trkpt lat="45.92407" lon="4.73577">
        <ele>181.699996948</ele>
        <time>2015-12-09T13:46:04.497Z</time>
      </trkpt>
      <trkpt lat="45.92402" lon="4.73579">
        <ele>181.800003052</ele>
        <time>2015-12-09T13:46:05.547Z</time>
      </trkpt>
      <trkpt lat="45.92396" lon="4.73582">
        <ele>181.699996948</ele>
        <time>2015-12-09T13:46:06.495Z</time>
      </trkpt>
      <trkpt lat="45.9239" lon="4.73585">
        <ele>181.699996948</ele>
        <time>2015-12-09T13:46:07.512Z</time>
      </trkpt>
      <trkpt lat="45.92385" lon="4.73588">
        <ele>181.399993896</ele>
        <time>2015-12-09T13:46:08.495Z</time>
      </trkpt>
      <trkpt lat="45.92379" lon="4.73591">
        <ele>181.399993896</ele>
        <time>2015-12-09T13:46:09.509Z</time>
      </trkpt>
      <trkpt lat="45.92373" lon="4.73593">
        <ele>181.199996948</ele>
        <time>2015-12-09T13:46:10.5Z</time>
      </trkpt>
      <trkpt lat="45.92367" lon="4.73597">
        <ele>181.199996948</ele>
        <time>2015-12-09T13:46:11.528Z</time>
      </trkpt>
      <trkpt lat="45.92362" lon="4.736">
        <ele>181</ele>
        <time>2015-12-09T13:46:12.498Z</time>
      </trkpt>
      <trkpt lat="45.92356" lon="4.73603">
        <ele>180.800003052</ele>
        <time>2015-12-09T13:46:13.511Z</time>
      </trkpt>
      <trkpt lat="45.9235" lon="4.73607">
        <ele>180.800003052</ele>
        <time>2015-12-09T13:46:14.498Z</time>
      </trkpt>
      <trkpt lat="45.92344" lon="4.7361">
        <ele>180.699996948</ele>
        <time>2015-12-09T13:46:15.51Z</time>
      </trkpt>
      <trkpt lat="45.92339" lon="4.73613">
        <ele>177.800003052</ele>
        <time>2015-12-09T13:46:16.498Z</time>
      </trkpt>
      <trkpt lat="45.92334" lon="4.73615">
        <ele>176</ele>
        <time>2015-12-09T13:46:17.551Z</time>
      </trkpt>
      <trkpt lat="45.92328" lon="4.73616">
        <ele>174.399993896</ele>
        <time>2015-12-09T13:46:18.5Z</time>
      </trkpt>
      <trkpt lat="45.92322" lon="4.73619">
        <ele>174</ele>
        <time>2015-12-09T13:46:19.509Z</time>
      </trkpt>
      <trkpt lat="45.92316" lon="4.73622">
        <ele>174.100006104</ele>
        <time>2015-12-09T13:46:20.495Z</time>
      </trkpt>
      <trkpt lat="45.9231" lon="4.73625">
        <ele>173.399993896</ele>
        <time>2015-12-09T13:46:21.511Z</time>
      </trkpt>
      <trkpt lat="45.92303" lon="4.73627">
        <ele>172.399993896</ele>
        <time>2015-12-09T13:46:22.498Z</time>
      </trkpt>
      <trkpt lat="45.92296" lon="4.7363">
        <ele>172.300003052</ele>
        <time>2015-12-09T13:46:23.509Z</time>
      </trkpt>
      <trkpt lat="45.9229" lon="4.73632">
        <ele>171.800003052</ele>
        <time>2015-12-09T13:46:24.497Z</time>
      </trkpt>
      <trkpt lat="45.92284" lon="4.73635">
        <ele>171.399993896</ele>
        <time>2015-12-09T13:46:25.514Z</time>
      </trkpt>
      <trkpt lat="45.92278" lon="4.73638">
        <ele>171.300003052</ele>
        <time>2015-12-09T13:46:26.495Z</time>
      </trkpt>
      <trkpt lat="45.92272" lon="4.73642">
        <ele>170.899993896</ele>
        <time>2015-12-09T13:46:27.526Z</time>
      </trkpt>
      <trkpt lat="45.92266" lon="4.73646">
        <ele>170.899993896</ele>
        <time>2015-12-09T13:46:28.498Z</time>
      </trkpt>
      <trkpt lat="45.9226" lon="4.7365">
        <ele>170.899993896</ele>
        <time>2015-12-09T13:46:29.511Z</time>
      </trkpt>
      <trkpt lat="45.92254" lon="4.73653">
        <ele>171</ele>
        <time>2015-12-09T13:46:30.496Z</time>
      </trkpt>
      <trkpt lat="45.92248" lon="4.73657">
        <ele>171</ele>
        <time>2015-12-09T13:46:31.51Z</time>
      </trkpt>
      <trkpt lat="45.92242" lon="4.7366">
        <ele>171</ele>
        <time>2015-12-09T13:46:32.495Z</time>
      </trkpt>
      <trkpt lat="45.92236" lon="4.73663">
        <ele>170.899993896</ele>
        <time>2015-12-09T13:46:33.51Z</time>
      </trkpt>
      <trkpt lat="45.92229" lon="4.73667">
        <ele>170.600006104</ele>
        <time>2015-12-09T13:46:34.498Z</time>
      </trkpt>
      <trkpt lat="45.92223" lon="4.7367">
        <ele>170</ele>
        <time>2015-12-09T13:46:35.509Z</time>
      </trkpt>
      <trkpt lat="45.92217" lon="4.73674">
        <ele>169.5</ele>
        <time>2015-12-09T13:46:36.495Z</time>
      </trkpt>
      <trkpt lat="45.92211" lon="4.73677">
        <ele>169.100006104</ele>
        <time>2015-12-09T13:46:37.509Z</time>
      </trkpt>
      <trkpt lat="45.92205" lon="4.73681">
        <ele>169</ele>
        <time>2015-12-09T13:46:38.509Z</time>
      </trkpt>
      <trkpt lat="45.92199" lon="4.73684">
        <ele>168.800003052</ele>
        <time>2015-12-09T13:46:39.511Z</time>
      </trkpt>
      <trkpt lat="45.92193" lon="4.73687">
        <ele>168.600006104</ele>
        <time>2015-12-09T13:46:40.498Z</time>
      </trkpt>
      <trkpt lat="45.92187" lon="4.73691">
        <ele>168.100006104</ele>
        <time>2015-12-09T13:46:41.509Z</time>
      </trkpt>
      <trkpt lat="45.92181" lon="4.73694">
        <ele>168.100006104</ele>
        <time>2015-12-09T13:46:42.495Z</time>
      </trkpt>
      <trkpt lat="45.92175" lon="4.73697">
        <ele>168.100006104</ele>
        <time>2015-12-09T13:46:43.589Z</time>
      </trkpt>
      <trkpt lat="45.92169" lon="4.73701">
        <ele>167.600006104</ele>
        <time>2015-12-09T13:46:44.495Z</time>
      </trkpt>
      <trkpt lat="45.92162" lon="4.73704">
        <ele>167.600006104</ele>
        <time>2015-12-09T13:46:45.508Z</time>
      </trkpt>
      <trkpt lat="45.92156" lon="4.73707">
        <ele>167.199996948</ele>
        <time>2015-12-09T13:46:46.498Z</time>
      </trkpt>
      <trkpt lat="45.92149" lon="4.73709">
        <ele>166.899993896</ele>
        <time>2015-12-09T13:46:47.541Z</time>
      </trkpt>
      <trkpt lat="45.92143" lon="4.73712">
        <ele>166.5</ele>
        <time>2015-12-09T13:46:48.496Z</time>
      </trkpt>
      <trkpt lat="45.92135" lon="4.73714">
        <ele>166.399993896</ele>
        <time>2015-12-09T13:46:49.517Z</time>
      </trkpt>
      <trkpt lat="45.92128" lon="4.73717">
        <ele>166.199996948</ele>
        <time>2015-12-09T13:46:50.495Z</time>
      </trkpt>
      <trkpt lat="45.92121" lon="4.73719">
        <ele>166.199996948</ele>
        <time>2015-12-09T13:46:51.509Z</time>
      </trkpt>
      <trkpt lat="45.92114" lon="4.73721">
        <ele>166.199996948</ele>
        <time>2015-12-09T13:46:52.497Z</time>
      </trkpt>
      <trkpt lat="45.92107" lon="4.73723">
        <ele>165.699996948</ele>
        <time>2015-12-09T13:46:53.509Z</time>
      </trkpt>
      <trkpt lat="45.921" lon="4.73725">
        <ele>165.600006104</ele>
        <time>2015-12-09T13:46:54.511Z</time>
      </trkpt>
      <trkpt lat="45.92093" lon="4.73726">
        <ele>165.600006104</ele>
        <time>2015-12-09T13:46:55.509Z</time>
      </trkpt>
      <trkpt lat="45.92086" lon="4.73728">
        <ele>165.5</ele>
        <time>2015-12-09T13:46:56.494Z</time>
      </trkpt>
      <trkpt lat="45.92079" lon="4.73728">
        <ele>165.800003052</ele>
        <time>2015-12-09T13:46:57.51Z</time>
      </trkpt>
      <trkpt lat="45.92072" lon="4.73728">
        <ele>165.699996948</ele>
        <time>2015-12-09T13:46:58.498Z</time>
      </trkpt>
      <trkpt lat="45.92065" lon="4.73729">
        <ele>165.800003052</ele>
        <time>2015-12-09T13:46:59.509Z</time>
      </trkpt>
      <trkpt lat="45.92058" lon="4.73729">
        <ele>166</ele>
        <time>2015-12-09T13:47:00.495Z</time>
      </trkpt>
      <trkpt lat="45.92051" lon="4.73729">
        <ele>166</ele>
        <time>2015-12-09T13:47:01.509Z</time>
      </trkpt>
      <trkpt lat="45.92044" lon="4.73729">
        <ele>165.800003052</ele>
        <time>2015-12-09T13:47:02.495Z</time>
      </trkpt>
      <trkpt lat="45.92038" lon="4.73729">
        <ele>165.699996948</ele>
        <time>2015-12-09T13:47:03.509Z</time>
      </trkpt>
      <trkpt lat="45.92031" lon="4.7373">
        <ele>165.5</ele>
        <time>2015-12-09T13:47:04.497Z</time>
      </trkpt>
      <trkpt lat="45.92024" lon="4.7373">
        <ele>165.600006104</ele>
        <time>2015-12-09T13:47:05.511Z</time>
      </trkpt>
      <trkpt lat="45.92017" lon="4.7373">
        <ele>165.399993896</ele>
        <time>2015-12-09T13:47:06.495Z</time>
      </trkpt>
      <trkpt lat="45.92009" lon="4.7373">
        <ele>165.300003052</ele>
        <time>2015-12-09T13:47:07.509Z</time>
      </trkpt>
      <trkpt lat="45.92002" lon="4.7373">
        <ele>165.199996948</ele>
        <time>2015-12-09T13:47:08.494Z</time>
      </trkpt>
      <trkpt lat="45.91995" lon="4.73731">
        <ele>165.100006104</ele>
        <time>2015-12-09T13:47:09.509Z</time>
      </trkpt>
      <trkpt lat="45.91989" lon="4.73732">
        <ele>165</ele>
        <time>2015-12-09T13:47:10.51Z</time>
      </trkpt>
      <trkpt lat="45.91983" lon="4.73732">
        <ele>164.800003052</ele>
        <time>2015-12-09T13:47:11.511Z</time>
      </trkpt>
      <trkpt lat="45.91976" lon="4.73733">
        <ele>164.899993896</ele>
        <time>2015-12-09T13:47:12.495Z</time>
      </trkpt>
      <trkpt lat="45.91969" lon="4.73732">
        <ele>164.800003052</ele>
        <time>2015-12-09T13:47:13.509Z</time>
      </trkpt>
      <trkpt lat="45.91963" lon="4.73732">
        <ele>164.699996948</ele>
        <time>2015-12-09T13:47:14.495Z</time>
      </trkpt>
      <trkpt lat="45.91956" lon="4.73732">
        <ele>164.600006104</ele>
        <time>2015-12-09T13:47:15.509Z</time>
      </trkpt>
      <trkpt lat="45.9195" lon="4.73731">
        <ele>164.399993896</ele>
        <time>2015-12-09T13:47:16.498Z</time>
      </trkpt>
      <trkpt lat="45.91943" lon="4.7373">
        <ele>164.5</ele>
        <time>2015-12-09T13:47:17.509Z</time>
      </trkpt>
      <trkpt lat="45.91937" lon="4.7373">
        <ele>164.699996948</ele>
        <time>2015-12-09T13:47:18.496Z</time>
      </trkpt>
      <trkpt lat="45.9193" lon="4.7373">
        <ele>165</ele>
        <time>2015-12-09T13:47:19.509Z</time>
      </trkpt>
      <trkpt lat="45.91923" lon="4.7373">
        <ele>164.899993896</ele>
        <time>2015-12-09T13:47:20.495Z</time>
      </trkpt>
      <trkpt lat="45.91916" lon="4.7373">
        <ele>165.100006104</ele>
        <time>2015-12-09T13:47:21.528Z</time>
      </trkpt>
      <trkpt lat="45.91908" lon="4.7373">
        <ele>165.100006104</ele>
        <time>2015-12-09T13:47:22.498Z</time>
      </trkpt>
      <trkpt lat="45.91901" lon="4.7373">
        <ele>164.800003052</ele>
        <time>2015-12-09T13:47:23.547Z</time>
      </trkpt>
      <trkpt lat="45.91893" lon="4.73731">
        <ele>165</ele>
        <time>2015-12-09T13:47:24.495Z</time>
      </trkpt>
      <trkpt lat="45.91886" lon="4.7373">
        <ele>165.399993896</ele>
        <time>2015-12-09T13:47:25.508Z</time>
      </trkpt>
      <trkpt lat="45.91878" lon="4.7373">
        <ele>165.800003052</ele>
        <time>2015-12-09T13:47:26.494Z</time>
      </trkpt>
      <trkpt lat="45.9187" lon="4.7373">
        <ele>165.399993896</ele>
        <time>2015-12-09T13:47:27.509Z</time>
      </trkpt>
      <trkpt lat="45.91863" lon="4.7373">
        <ele>165.699996948</ele>
        <time>2015-12-09T13:47:28.498Z</time>
      </trkpt>
      <trkpt lat="45.91856" lon="4.7373">
        <ele>165.800003052</ele>
        <time>2015-12-09T13:47:29.509Z</time>
      </trkpt>
      <trkpt lat="45.91848" lon="4.73729">
        <ele>166</ele>
        <time>2015-12-09T13:47:30.494Z</time>
      </trkpt>
      <trkpt lat="45.91841" lon="4.73729">
        <ele>166.199996948</ele>
        <time>2015-12-09T13:47:31.509Z</time>
      </trkpt>
      <trkpt lat="45.91833" lon="4.73729">
        <ele>166</ele>
        <time>2015-12-09T13:47:32.508Z</time>
      </trkpt>
      <trkpt lat="45.91826" lon="4.73729">
        <ele>165.800003052</ele>
        <time>2015-12-09T13:47:33.509Z</time>
      </trkpt>
      <trkpt lat="45.91818" lon="4.7373">
        <ele>165.699996948</ele>
        <time>2015-12-09T13:47:34.497Z</time>
      </trkpt>
      <trkpt lat="45.91811" lon="4.7373">
        <ele>165.5</ele>
        <time>2015-12-09T13:47:35.509Z</time>
      </trkpt>
      <trkpt lat="45.91804" lon="4.73731">
        <ele>165.800003052</ele>
        <time>2015-12-09T13:47:36.496Z</time>
      </trkpt>
      <trkpt lat="45.91797" lon="4.73731">
        <ele>165.5</ele>
        <time>2015-12-09T13:47:37.509Z</time>
      </trkpt>
      <trkpt lat="45.91791" lon="4.73732">
        <ele>165.600006104</ele>
        <time>2015-12-09T13:47:38.635Z</time>
      </trkpt>
      <trkpt lat="45.91784" lon="4.73732">
        <ele>165.699996948</ele>
        <time>2015-12-09T13:47:39.54Z</time>
      </trkpt>
      <trkpt lat="45.91777" lon="4.73731">
        <ele>165.699996948</ele>
        <time>2015-12-09T13:47:40.498Z</time>
      </trkpt>
      <trkpt lat="45.9177" lon="4.73731">
        <ele>165.5</ele>
        <time>2015-12-09T13:47:41.508Z</time>
      </trkpt>
      <trkpt lat="45.91764" lon="4.73731">
        <ele>164.899993896</ele>
        <time>2015-12-09T13:47:42.496Z</time>
      </trkpt>
      <trkpt lat="45.91757" lon="4.73732">
        <ele>164.699996948</ele>
        <time>2015-12-09T13:47:43.509Z</time>
      </trkpt>
      <trkpt lat="45.9175" lon="4.73732">
        <ele>164.699996948</ele>
        <time>2015-12-09T13:47:44.495Z</time>
      </trkpt>
      <trkpt lat="45.91743" lon="4.73732">
        <ele>164.600006104</ele>
        <time>2015-12-09T13:47:45.509Z</time>
      </trkpt>
      <trkpt lat="45.91737" lon="4.73732">
        <ele>164.300003052</ele>
        <time>2015-12-09T13:47:46.498Z</time>
      </trkpt>
      <trkpt lat="45.9173" lon="4.73733">
        <ele>164</ele>
        <time>2015-12-09T13:47:47.514Z</time>
      </trkpt>
      <trkpt lat="45.91724" lon="4.73733">
        <ele>163.800003052</ele>
        <time>2015-12-09T13:47:48.496Z</time>
      </trkpt>
      <trkpt lat="45.91717" lon="4.73733">
        <ele>164.100006104</ele>
        <time>2015-12-09T13:47:49.51Z</time>
      </trkpt>
      <trkpt lat="45.9171" lon="4.73734">
        <ele>163.800003052</ele>
        <time>2015-12-09T13:47:50.495Z</time>
      </trkpt>
      <trkpt lat="45.91703" lon="4.73734">
        <ele>163.699996948</ele>
        <time>2015-12-09T13:47:51.509Z</time>
      </trkpt>
      <trkpt lat="45.91696" lon="4.73734">
        <ele>163.800003052</ele>
        <time>2015-12-09T13:47:52.497Z</time>
      </trkpt>
      <trkpt lat="45.91689" lon="4.73735">
        <ele>164</ele>
        <time>2015-12-09T13:47:53.523Z</time>
      </trkpt>
      <trkpt lat="45.91681" lon="4.73735">
        <ele>164.199996948</ele>
        <time>2015-12-09T13:47:54.496Z</time>
      </trkpt>
      <trkpt lat="45.91674" lon="4.73735">
        <ele>164.5</ele>
        <time>2015-12-09T13:47:55.509Z</time>
      </trkpt>
      <trkpt lat="45.91667" lon="4.73735">
        <ele>164.399993896</ele>
        <time>2015-12-09T13:47:56.495Z</time>
      </trkpt>
      <trkpt lat="45.91659" lon="4.73735">
        <ele>164.5</ele>
        <time>2015-12-09T13:47:57.509Z</time>
      </trkpt>
      <trkpt lat="45.91652" lon="4.73735">
        <ele>164.300003052</ele>
        <time>2015-12-09T13:47:58.497Z</time>
      </trkpt>
      <trkpt lat="45.91645" lon="4.73736">
        <ele>164.100006104</ele>
        <time>2015-12-09T13:47:59.51Z</time>
      </trkpt>
      <trkpt lat="45.91637" lon="4.73736">
        <ele>164.199996948</ele>
        <time>2015-12-09T13:48:00.495Z</time>
      </trkpt>
      <trkpt lat="45.9163" lon="4.73736">
        <ele>164.199996948</ele>
        <time>2015-12-09T13:48:01.509Z</time>
      </trkpt>
      <trkpt lat="45.91623" lon="4.73736">
        <ele>164</ele>
        <time>2015-12-09T13:48:02.494Z</time>
      </trkpt>
      <trkpt lat="45.91616" lon="4.73736">
        <ele>163.899993896</ele>
        <time>2015-12-09T13:48:03.509Z</time>
      </trkpt>
      <trkpt lat="45.91609" lon="4.73735">
        <ele>164.199996948</ele>
        <time>2015-12-09T13:48:04.498Z</time>
      </trkpt>
      <trkpt lat="45.91602" lon="4.73736">
        <ele>163.899993896</ele>
        <time>2015-12-09T13:48:05.509Z</time>
      </trkpt>
      <trkpt lat="45.91595" lon="4.73736">
        <ele>164.100006104</ele>
        <time>2015-12-09T13:48:06.495Z</time>
      </trkpt>
      <trkpt lat="45.91588" lon="4.73736">
        <ele>164.199996948</ele>
        <time>2015-12-09T13:48:07.64Z</time>
      </trkpt>
      <trkpt lat="45.91581" lon="4.73736">
        <ele>164.100006104</ele>
        <time>2015-12-09T13:48:08.494Z</time>
      </trkpt>
      <trkpt lat="45.91574" lon="4.73736">
        <ele>164</ele>
        <time>2015-12-09T13:48:09.523Z</time>
      </trkpt>
      <trkpt lat="45.91566" lon="4.73736">
        <ele>163.800003052</ele>
        <time>2015-12-09T13:48:10.497Z</time>
      </trkpt>
      <trkpt lat="45.91558" lon="4.73737">
        <ele>163.100006104</ele>
        <time>2015-12-09T13:48:11.51Z</time>
      </trkpt>
      <trkpt lat="45.91551" lon="4.73737">
        <ele>162.800003052</ele>
        <time>2015-12-09T13:48:12.495Z</time>
      </trkpt>
      <trkpt lat="45.91544" lon="4.73737">
        <ele>162.600006104</ele>
        <time>2015-12-09T13:48:13.509Z</time>
      </trkpt>
      <trkpt lat="45.91536" lon="4.73737">
        <ele>162.399993896</ele>
        <time>2015-12-09T13:48:14.494Z</time>
      </trkpt>
      <trkpt lat="45.91528" lon="4.73737">
        <ele>162.300003052</ele>
        <time>2015-12-09T13:48:15.51Z</time>
      </trkpt>
      <trkpt lat="45.91521" lon="4.73737">
        <ele>162.199996948</ele>
        <time>2015-12-09T13:48:16.498Z</time>
      </trkpt>
      <trkpt lat="45.91513" lon="4.73737">
        <ele>162.199996948</ele>
        <time>2015-12-09T13:48:17.509Z</time>
      </trkpt>
      <trkpt lat="45.91506" lon="4.73738">
        <ele>162</ele>
        <time>2015-12-09T13:48:18.495Z</time>
      </trkpt>
      <trkpt lat="45.91498" lon="4.73738">
        <ele>161.800003052</ele>
        <time>2015-12-09T13:48:19.51Z</time>
      </trkpt>
      <trkpt lat="45.9149" lon="4.73738">
        <ele>161.600006104</ele>
        <time>2015-12-09T13:48:20.494Z</time>
      </trkpt>
      <trkpt lat="45.91482" lon="4.73738">
        <ele>161.600006104</ele>
        <time>2015-12-09T13:48:21.509Z</time>
      </trkpt>
      <trkpt lat="45.91474" lon="4.73738">
        <ele>161.399993896</ele>
        <time>2015-12-09T13:48:22.498Z</time>
      </trkpt>
      <trkpt lat="45.91467" lon="4.73738">
        <ele>161.199996948</ele>
        <time>2015-12-09T13:48:23.508Z</time>
      </trkpt>
      <trkpt lat="45.91459" lon="4.73738">
        <ele>161.100006104</ele>
        <time>2015-12-09T13:48:24.496Z</time>
      </trkpt>
      <trkpt lat="45.91451" lon="4.73739">
        <ele>160.800003052</ele>
        <time>2015-12-09T13:48:25.539Z</time>
      </trkpt>
      <trkpt lat="45.91443" lon="4.73739">
        <ele>160.5</ele>
        <time>2015-12-09T13:48:26.495Z</time>
      </trkpt>
      <trkpt lat="45.91435" lon="4.73739">
        <ele>160.199996948</ele>
        <time>2015-12-09T13:48:27.509Z</time>
      </trkpt>
      <trkpt lat="45.91427" lon="4.7374">
        <ele>160.300003052</ele>
        <time>2015-12-09T13:48:28.497Z</time>
      </trkpt>
      <trkpt lat="45.9142" lon="4.7374">
        <ele>160.600006104</ele>
        <time>2015-12-09T13:48:29.515Z</time>
      </trkpt>
      <trkpt lat="45.91412" lon="4.7374">
        <ele>160.800003052</ele>
        <time>2015-12-09T13:48:30.494Z</time>
      </trkpt>
      <trkpt lat="45.91404" lon="4.7374">
        <ele>160.899993896</ele>
        <time>2015-12-09T13:48:31.509Z</time>
      </trkpt>
      <trkpt lat="45.91396" lon="4.7374">
        <ele>160.899993896</ele>
        <time>2015-12-09T13:48:32.494Z</time>
      </trkpt>
      <trkpt lat="45.91388" lon="4.73739">
        <ele>161.100006104</ele>
        <time>2015-12-09T13:48:33.509Z</time>
      </trkpt>
      <trkpt lat="45.9138" lon="4.73739">
        <ele>161.600006104</ele>
        <time>2015-12-09T13:48:34.497Z</time>
      </trkpt>
      <trkpt lat="45.91372" lon="4.7374">
        <ele>161.600006104</ele>
        <time>2015-12-09T13:48:35.518Z</time>
      </trkpt>
      <trkpt lat="45.91364" lon="4.7374">
        <ele>161.899993896</ele>
        <time>2015-12-09T13:48:36.51Z</time>
      </trkpt>
      <trkpt lat="45.91357" lon="4.7374">
        <ele>161.899993896</ele>
        <time>2015-12-09T13:48:37.508Z</time>
      </trkpt>
      <trkpt lat="45.9135" lon="4.7374">
        <ele>161.800003052</ele>
        <time>2015-12-09T13:48:38.494Z</time>
      </trkpt>
      <trkpt lat="45.91343" lon="4.7374">
        <ele>162</ele>
        <time>2015-12-09T13:48:39.509Z</time>
      </trkpt>
      <trkpt lat="45.91336" lon="4.7374">
        <ele>162.300003052</ele>
        <time>2015-12-09T13:48:40.497Z</time>
      </trkpt>
      <trkpt lat="45.91328" lon="4.7374">
        <ele>162.600006104</ele>
        <time>2015-12-09T13:48:41.509Z</time>
      </trkpt>
      <trkpt lat="45.91322" lon="4.73741">
        <ele>162.5</ele>
        <time>2015-12-09T13:48:42.495Z</time>
      </trkpt>
      <trkpt lat="45.91315" lon="4.7374">
        <ele>162.899993896</ele>
        <time>2015-12-09T13:48:43.509Z</time>
      </trkpt>
      <trkpt lat="45.91307" lon="4.7374">
        <ele>163</ele>
        <time>2015-12-09T13:48:44.495Z</time>
      </trkpt>
      <trkpt lat="45.913" lon="4.7374">
        <ele>163</ele>
        <time>2015-12-09T13:48:45.509Z</time>
      </trkpt>
      <trkpt lat="45.91293" lon="4.7374">
        <ele>162.899993896</ele>
        <time>2015-12-09T13:48:46.497Z</time>
      </trkpt>
      <trkpt lat="45.91286" lon="4.7374">
        <ele>163</ele>
        <time>2015-12-09T13:48:47.509Z</time>
      </trkpt>
      <trkpt lat="45.91279" lon="4.7374">
        <ele>163.199996948</ele>
        <time>2015-12-09T13:48:48.495Z</time>
      </trkpt>
      <trkpt lat="45.91272" lon="4.73741">
        <ele>163.199996948</ele>
        <time>2015-12-09T13:48:49.509Z</time>
      </trkpt>
      <trkpt lat="45.91265" lon="4.73741">
        <ele>163</ele>
        <time>2015-12-09T13:48:50.494Z</time>
      </trkpt>
      <trkpt lat="45.91258" lon="4.73742">
        <ele>163.100006104</ele>
        <time>2015-12-09T13:48:51.65Z</time>
      </trkpt>
      <trkpt lat="45.9125" lon="4.73743">
        <ele>163.199996948</ele>
        <time>2015-12-09T13:48:52.497Z</time>
      </trkpt>
      <trkpt lat="45.91243" lon="4.73742">
        <ele>163.199996948</ele>
        <time>2015-12-09T13:48:53.508Z</time>
      </trkpt>
      <trkpt lat="45.91235" lon="4.73742">
        <ele>163.399993896</ele>
        <time>2015-12-09T13:48:54.495Z</time>
      </trkpt>
      <trkpt lat="45.91228" lon="4.73741">
        <ele>163.300003052</ele>
        <time>2015-12-09T13:48:55.508Z</time>
      </trkpt>
      <trkpt lat="45.9122" lon="4.73741">
        <ele>163.5</ele>
        <time>2015-12-09T13:48:56.495Z</time>
      </trkpt>
      <trkpt lat="45.91213" lon="4.73741">
        <ele>163.5</ele>
        <time>2015-12-09T13:48:57.509Z</time>
      </trkpt>
      <trkpt lat="45.91206" lon="4.73741">
        <ele>163.5</ele>
        <time>2015-12-09T13:48:58.497Z</time>
      </trkpt>
      <trkpt lat="45.91199" lon="4.73741">
        <ele>163.699996948</ele>
        <time>2015-12-09T13:48:59.509Z</time>
      </trkpt>
      <trkpt lat="45.91193" lon="4.7374">
        <ele>163.5</ele>
        <time>2015-12-09T13:49:00.495Z</time>
      </trkpt>
      <trkpt lat="45.91186" lon="4.73739">
        <ele>163.199996948</ele>
        <time>2015-12-09T13:49:01.509Z</time>
      </trkpt>
      <trkpt lat="45.91179" lon="4.73737">
        <ele>163</ele>
        <time>2015-12-09T13:49:02.509Z</time>
      </trkpt>
      <trkpt lat="45.91173" lon="4.73735">
        <ele>163</ele>
        <time>2015-12-09T13:49:03.509Z</time>
      </trkpt>
      <trkpt lat="45.91166" lon="4.73732">
        <ele>162.899993896</ele>
        <time>2015-12-09T13:49:04.497Z</time>
      </trkpt>
      <trkpt lat="45.9116" lon="4.73729">
        <ele>163.100006104</ele>
        <time>2015-12-09T13:49:05.509Z</time>
      </trkpt>
      <trkpt lat="45.91155" lon="4.73726">
        <ele>163.199996948</ele>
        <time>2015-12-09T13:49:06.495Z</time>
      </trkpt>
      <trkpt lat="45.91151" lon="4.73721">
        <ele>163.399993896</ele>
        <time>2015-12-09T13:49:07.509Z</time>
      </trkpt>
      <trkpt lat="45.91147" lon="4.73714">
        <ele>163.600006104</ele>
        <time>2015-12-09T13:49:08.494Z</time>
      </trkpt>
      <trkpt lat="45.91144" lon="4.73707">
        <ele>163.699996948</ele>
        <time>2015-12-09T13:49:09.508Z</time>
      </trkpt>
      <trkpt lat="45.91141" lon="4.737">
        <ele>163.699996948</ele>
        <time>2015-12-09T13:49:10.497Z</time>
      </trkpt>
      <trkpt lat="45.91138" lon="4.73692">
        <ele>163.800003052</ele>
        <time>2015-12-09T13:49:11.514Z</time>
      </trkpt>
      <trkpt lat="45.91135" lon="4.73684">
        <ele>164.100006104</ele>
        <time>2015-12-09T13:49:12.495Z</time>
      </trkpt>
      <trkpt lat="45.91132" lon="4.73677">
        <ele>164.199996948</ele>
        <time>2015-12-09T13:49:13.508Z</time>
      </trkpt>
      <trkpt lat="45.91128" lon="4.73668">
        <ele>164.100006104</ele>
        <time>2015-12-09T13:49:14.507Z</time>
      </trkpt>
      <trkpt lat="45.91125" lon="4.73661">
        <ele>164.399993896</ele>
        <time>2015-12-09T13:49:15.509Z</time>
      </trkpt>
      <trkpt lat="45.91122" lon="4.73653">
        <ele>164.800003052</ele>
        <time>2015-12-09T13:49:16.497Z</time>
      </trkpt>
      <trkpt lat="45.91118" lon="4.73645">
        <ele>165</ele>
        <time>2015-12-09T13:49:17.508Z</time>
      </trkpt>
      <trkpt lat="45.91115" lon="4.73637">
        <ele>165.199996948</ele>
        <time>2015-12-09T13:49:18.51Z</time>
      </trkpt>
      <trkpt lat="45.91112" lon="4.73629">
        <ele>165.399993896</ele>
        <time>2015-12-09T13:49:19.539Z</time>
      </trkpt>
      <trkpt lat="45.91109" lon="4.73621">
        <ele>165.5</ele>
        <time>2015-12-09T13:49:20.494Z</time>
      </trkpt>
      <trkpt lat="45.91105" lon="4.73614">
        <ele>165.600006104</ele>
        <time>2015-12-09T13:49:21.507Z</time>
      </trkpt>
      <trkpt lat="45.91101" lon="4.73606">
        <ele>165.600006104</ele>
        <time>2015-12-09T13:49:22.496Z</time>
      </trkpt>
      <trkpt lat="45.91097" lon="4.73598">
        <ele>165.899993896</ele>
        <time>2015-12-09T13:49:23.509Z</time>
      </trkpt>
      <trkpt lat="45.91094" lon="4.7359">
        <ele>166.300003052</ele>
        <time>2015-12-09T13:49:24.495Z</time>
      </trkpt>
      <trkpt lat="45.91091" lon="4.73582">
        <ele>166.600006104</ele>
        <time>2015-12-09T13:49:25.508Z</time>
      </trkpt>
      <trkpt lat="45.91088" lon="4.73574">
        <ele>167</ele>
        <time>2015-12-09T13:49:26.494Z</time>
      </trkpt>
      <trkpt lat="45.91085" lon="4.73567">
        <ele>167.5</ele>
        <time>2015-12-09T13:49:27.508Z</time>
      </trkpt>
      <trkpt lat="45.91081" lon="4.73559">
        <ele>167.5</ele>
        <time>2015-12-09T13:49:28.497Z</time>
      </trkpt>
      <trkpt lat="45.91078" lon="4.73551">
        <ele>167.600006104</ele>
        <time>2015-12-09T13:49:29.556Z</time>
      </trkpt>
      <trkpt lat="45.91075" lon="4.73543">
        <ele>167.800003052</ele>
        <time>2015-12-09T13:49:30.495Z</time>
      </trkpt>
      <trkpt lat="45.91071" lon="4.73535">
        <ele>168.100006104</ele>
        <time>2015-12-09T13:49:31.508Z</time>
      </trkpt>
      <trkpt lat="45.91068" lon="4.73527">
        <ele>168.899993896</ele>
        <time>2015-12-09T13:49:32.494Z</time>
      </trkpt>
      <trkpt lat="45.91065" lon="4.7352">
        <ele>169.199996948</ele>
        <time>2015-12-09T13:49:33.509Z</time>
      </trkpt>
      <trkpt lat="45.91061" lon="4.73512">
        <ele>169.5</ele>
        <time>2015-12-09T13:49:34.496Z</time>
      </trkpt>
      <trkpt lat="45.91058" lon="4.73505">
        <ele>169.800003052</ele>
        <time>2015-12-09T13:49:35.539Z</time>
      </trkpt>
      <trkpt lat="45.91054" lon="4.73497">
        <ele>169.899993896</ele>
        <time>2015-12-09T13:49:36.495Z</time>
      </trkpt>
      <trkpt lat="45.91051" lon="4.73489">
        <ele>170.699996948</ele>
        <time>2015-12-09T13:49:37.508Z</time>
      </trkpt>
      <trkpt lat="45.91049" lon="4.73482">
        <ele>171.300003052</ele>
        <time>2015-12-09T13:49:38.494Z</time>
      </trkpt>
      <trkpt lat="45.91047" lon="4.73474">
        <ele>171.5</ele>
        <time>2015-12-09T13:49:39.509Z</time>
      </trkpt>
      <trkpt lat="45.91045" lon="4.73468">
        <ele>171.699996948</ele>
        <time>2015-12-09T13:49:40.497Z</time>
      </trkpt>
      <trkpt lat="45.91044" lon="4.73457">
        <ele>172.699996948</ele>
        <time>2015-12-09T13:49:42.509Z</time>
      </trkpt>
      <trkpt lat="45.91045" lon="4.73453">
        <ele>173.699996948</ele>
        <time>2015-12-09T13:49:43.494Z</time>
      </trkpt>
      <trkpt lat="45.91045" lon="4.73441">
        <ele>173.800003052</ele>
        <time>2015-12-09T13:49:45.522Z</time>
      </trkpt>
      <trkpt lat="45.91044" lon="4.73434">
        <ele>174.100006104</ele>
        <time>2015-12-09T13:49:46.497Z</time>
      </trkpt>
      <trkpt lat="45.91042" lon="4.73427">
        <ele>174.600006104</ele>
        <time>2015-12-09T13:49:47.508Z</time>
      </trkpt>
      <trkpt lat="45.91039" lon="4.73422">
        <ele>174.600006104</ele>
        <time>2015-12-09T13:49:48.495Z</time>
      </trkpt>
      <trkpt lat="45.91033" lon="4.73418">
        <ele>173.899993896</ele>
        <time>2015-12-09T13:49:49.508Z</time>
      </trkpt>
      <trkpt lat="45.91027" lon="4.73417">
        <ele>173.399993896</ele>
        <time>2015-12-09T13:49:50.494Z</time>
      </trkpt>
      <trkpt lat="45.91021" lon="4.73419">
        <ele>173</ele>
        <time>2015-12-09T13:49:51.508Z</time>
      </trkpt>
      <trkpt lat="45.91015" lon="4.73424">
        <ele>172.5</ele>
        <time>2015-12-09T13:49:52.497Z</time>
      </trkpt>
      <trkpt lat="45.91009" lon="4.73429">
        <ele>171.699996948</ele>
        <time>2015-12-09T13:49:53.508Z</time>
      </trkpt>
      <trkpt lat="45.91004" lon="4.73434">
        <ele>171.5</ele>
        <time>2015-12-09T13:49:54.495Z</time>
      </trkpt>
      <trkpt lat="45.90998" lon="4.73437">
        <ele>171.5</ele>
        <time>2015-12-09T13:49:55.509Z</time>
      </trkpt>
      <trkpt lat="45.90991" lon="4.73441">
        <ele>171</ele>
        <time>2015-12-09T13:49:56.494Z</time>
      </trkpt>
      <trkpt lat="45.90984" lon="4.73444">
        <ele>170.600006104</ele>
        <time>2015-12-09T13:49:57.508Z</time>
      </trkpt>
      <trkpt lat="45.90978" lon="4.73448">
        <ele>170.300003052</ele>
        <time>2015-12-09T13:49:58.496Z</time>
      </trkpt>
      <trkpt lat="45.90971" lon="4.73451">
        <ele>170.100006104</ele>
        <time>2015-12-09T13:49:59.509Z</time>
      </trkpt>
      <trkpt lat="45.90965" lon="4.73454">
        <ele>170.100006104</ele>
        <time>2015-12-09T13:50:00.494Z</time>
      </trkpt>
      <trkpt lat="45.90958" lon="4.73457">
        <ele>170</ele>
        <time>2015-12-09T13:50:01.522Z</time>
      </trkpt>
      <trkpt lat="45.90952" lon="4.7346">
        <ele>170</ele>
        <time>2015-12-09T13:50:02.494Z</time>
      </trkpt>
      <trkpt lat="45.90945" lon="4.73463">
        <ele>169.899993896</ele>
        <time>2015-12-09T13:50:03.508Z</time>
      </trkpt>
      <trkpt lat="45.90939" lon="4.73467">
        <ele>169.899993896</ele>
        <time>2015-12-09T13:50:04.496Z</time>
      </trkpt>
      <trkpt lat="45.90932" lon="4.7347">
        <ele>170</ele>
        <time>2015-12-09T13:50:05.508Z</time>
      </trkpt>
      <trkpt lat="45.90925" lon="4.73473">
        <ele>170.199996948</ele>
        <time>2015-12-09T13:50:06.495Z</time>
      </trkpt>
      <trkpt lat="45.90918" lon="4.73476">
        <ele>170</ele>
        <time>2015-12-09T13:50:07.507Z</time>
      </trkpt>
      <trkpt lat="45.90911" lon="4.73479">
        <ele>170</ele>
        <time>2015-12-09T13:50:08.494Z</time>
      </trkpt>
      <trkpt lat="45.90904" lon="4.73482">
        <ele>170.100006104</ele>
        <time>2015-12-09T13:50:09.508Z</time>
      </trkpt>
      <trkpt lat="45.90898" lon="4.73484">
        <ele>170.300003052</ele>
        <time>2015-12-09T13:50:10.497Z</time>
      </trkpt>
      <trkpt lat="45.90891" lon="4.73487">
        <ele>170.199996948</ele>
        <time>2015-12-09T13:50:11.539Z</time>
      </trkpt>
      <trkpt lat="45.90884" lon="4.7349">
        <ele>170.199996948</ele>
        <time>2015-12-09T13:50:12.495Z</time>
      </trkpt>
      <trkpt lat="45.90878" lon="4.73493">
        <ele>170.199996948</ele>
        <time>2015-12-09T13:50:13.508Z</time>
      </trkpt>
      <trkpt lat="45.90871" lon="4.73495">
        <ele>170.300003052</ele>
        <time>2015-12-09T13:50:14.494Z</time>
      </trkpt>
      <trkpt lat="45.90864" lon="4.73498">
        <ele>170.300003052</ele>
        <time>2015-12-09T13:50:15.508Z</time>
      </trkpt>
      <trkpt lat="45.90857" lon="4.735">
        <ele>170.5</ele>
        <time>2015-12-09T13:50:16.496Z</time>
      </trkpt>
      <trkpt lat="45.90851" lon="4.73503">
        <ele>170.399993896</ele>
        <time>2015-12-09T13:50:17.522Z</time>
      </trkpt>
      <trkpt lat="45.90844" lon="4.73506">
        <ele>170.199996948</ele>
        <time>2015-12-09T13:50:18.495Z</time>
      </trkpt>
      <trkpt lat="45.90837" lon="4.73509">
        <ele>170</ele>
        <time>2015-12-09T13:50:19.508Z</time>
      </trkpt>
      <trkpt lat="45.9083" lon="4.73512">
        <ele>169.600006104</ele>
        <time>2015-12-09T13:50:20.494Z</time>
      </trkpt>
      <trkpt lat="45.90823" lon="4.73515">
        <ele>169.600006104</ele>
        <time>2015-12-09T13:50:21.508Z</time>
      </trkpt>
      <trkpt lat="45.90816" lon="4.73518">
        <ele>169.600006104</ele>
        <time>2015-12-09T13:50:22.496Z</time>
      </trkpt>
      <trkpt lat="45.90809" lon="4.7352">
        <ele>169.600006104</ele>
        <time>2015-12-09T13:50:23.508Z</time>
      </trkpt>
      <trkpt lat="45.90803" lon="4.73523">
        <ele>169.800003052</ele>
        <time>2015-12-09T13:50:24.494Z</time>
      </trkpt>
      <trkpt lat="45.90796" lon="4.73525">
        <ele>169.600006104</ele>
        <time>2015-12-09T13:50:25.554Z</time>
      </trkpt>
      <trkpt lat="45.9079" lon="4.73528">
        <ele>169.600006104</ele>
        <time>2015-12-09T13:50:26.494Z</time>
      </trkpt>
      <trkpt lat="45.90784" lon="4.73531">
        <ele>169.699996948</ele>
        <time>2015-12-09T13:50:27.508Z</time>
      </trkpt>
      <trkpt lat="45.90778" lon="4.73533">
        <ele>169.800003052</ele>
        <time>2015-12-09T13:50:28.496Z</time>
      </trkpt>
      <trkpt lat="45.90772" lon="4.73537">
        <ele>169.5</ele>
        <time>2015-12-09T13:50:29.509Z</time>
      </trkpt>
      <trkpt lat="45.90766" lon="4.7354">
        <ele>169.5</ele>
        <time>2015-12-09T13:50:30.494Z</time>
      </trkpt>
      <trkpt lat="45.9076" lon="4.73544">
        <ele>169.600006104</ele>
        <time>2015-12-09T13:50:31.508Z</time>
      </trkpt>
      <trkpt lat="45.90754" lon="4.73547">
        <ele>169.699996948</ele>
        <time>2015-12-09T13:50:32.494Z</time>
      </trkpt>
      <trkpt lat="45.90748" lon="4.73549">
        <ele>169.699996948</ele>
        <time>2015-12-09T13:50:33.523Z</time>
      </trkpt>
      <trkpt lat="45.90742" lon="4.73551">
        <ele>170.600006104</ele>
        <time>2015-12-09T13:50:34.497Z</time>
      </trkpt>
      <trkpt lat="45.90737" lon="4.73553">
        <ele>170.5</ele>
        <time>2015-12-09T13:50:35.508Z</time>
      </trkpt>
      <trkpt lat="45.90731" lon="4.73556">
        <ele>170.399993896</ele>
        <time>2015-12-09T13:50:36.495Z</time>
      </trkpt>
      <trkpt lat="45.90726" lon="4.73559">
        <ele>170.300003052</ele>
        <time>2015-12-09T13:50:37.508Z</time>
      </trkpt>
      <trkpt lat="45.90721" lon="4.73562">
        <ele>170.300003052</ele>
        <time>2015-12-09T13:50:38.494Z</time>
      </trkpt>
      <trkpt lat="45.90715" lon="4.73564">
        <ele>170.199996948</ele>
        <time>2015-12-09T13:50:39.508Z</time>
      </trkpt>
      <trkpt lat="45.9071" lon="4.73566">
        <ele>170.399993896</ele>
        <time>2015-12-09T13:50:40.496Z</time>
      </trkpt>
      <trkpt lat="45.90705" lon="4.73568">
        <ele>170.600006104</ele>
        <time>2015-12-09T13:50:41.508Z</time>
      </trkpt>
      <trkpt lat="45.907" lon="4.73569">
        <ele>170.699996948</ele>
        <time>2015-12-09T13:50:42.495Z</time>
      </trkpt>
      <trkpt lat="45.90694" lon="4.7357">
        <ele>170.899993896</ele>
        <time>2015-12-09T13:50:43.508Z</time>
      </trkpt>
      <trkpt lat="45.90689" lon="4.73572">
        <ele>171.100006104</ele>
        <time>2015-12-09T13:50:44.494Z</time>
      </trkpt>
      <trkpt lat="45.90684" lon="4.73574">
        <ele>171.199996948</ele>
        <time>2015-12-09T13:50:45.511Z</time>
      </trkpt>
      <trkpt lat="45.90679" lon="4.73577">
        <ele>171.300003052</ele>
        <time>2015-12-09T13:50:46.496Z</time>
      </trkpt>
      <trkpt lat="45.90674" lon="4.73579">
        <ele>171.399993896</ele>
        <time>2015-12-09T13:50:47.508Z</time>
      </trkpt>
      <trkpt lat="45.90669" lon="4.7358">
        <ele>171.899993896</ele>
        <time>2015-12-09T13:50:48.495Z</time>
      </trkpt>
      <trkpt lat="45.90664" lon="4.73582">
        <ele>171.800003052</ele>
        <time>2015-12-09T13:50:49.508Z</time>
      </trkpt>
      <trkpt lat="45.90659" lon="4.73584">
        <ele>171.699996948</ele>
        <time>2015-12-09T13:50:50.494Z</time>
      </trkpt>
      <trkpt lat="45.90655" lon="4.73586">
        <ele>171.899993896</ele>
        <time>2015-12-09T13:50:51.508Z</time>
      </trkpt>
      <trkpt lat="45.9065" lon="4.73588">
        <ele>172</ele>
        <time>2015-12-09T13:50:52.496Z</time>
      </trkpt>
      <trkpt lat="45.90645" lon="4.73591">
        <ele>172</ele>
        <time>2015-12-09T13:50:53.508Z</time>
      </trkpt>
      <trkpt lat="45.9064" lon="4.73593">
        <ele>172</ele>
        <time>2015-12-09T13:50:54.509Z</time>
      </trkpt>
      <trkpt lat="45.90636" lon="4.73595">
        <ele>172.100006104</ele>
        <time>2015-12-09T13:50:55.508Z</time>
      </trkpt>
      <trkpt lat="45.90631" lon="4.73597">
        <ele>172.5</ele>
        <time>2015-12-09T13:50:56.494Z</time>
      </trkpt>
      <trkpt lat="45.90626" lon="4.73599">
        <ele>173</ele>
        <time>2015-12-09T13:50:57.508Z</time>
      </trkpt>
      <trkpt lat="45.90621" lon="4.73602">
        <ele>173.199996948</ele>
        <time>2015-12-09T13:50:58.496Z</time>
      </trkpt>
      <trkpt lat="45.90616" lon="4.73604">
        <ele>173</ele>
        <time>2015-12-09T13:50:59.508Z</time>
      </trkpt>
      <trkpt lat="45.90611" lon="4.73606">
        <ele>173</ele>
        <time>2015-12-09T13:51:00.494Z</time>
      </trkpt>
      <trkpt lat="45.90606" lon="4.73607">
        <ele>173.100006104</ele>
        <time>2015-12-09T13:51:01.511Z</time>
      </trkpt>
      <trkpt lat="45.90601" lon="4.7361">
        <ele>173.199996948</ele>
        <time>2015-12-09T13:51:02.494Z</time>
      </trkpt>
      <trkpt lat="45.90597" lon="4.73612">
        <ele>173.199996948</ele>
        <time>2015-12-09T13:51:03.539Z</time>
      </trkpt>
      <trkpt lat="45.90592" lon="4.73613">
        <ele>173.399993896</ele>
        <time>2015-12-09T13:51:04.496Z</time>
      </trkpt>
      <trkpt lat="45.90587" lon="4.73616">
        <ele>173.399993896</ele>
        <time>2015-12-09T13:51:05.508Z</time>
      </trkpt>
      <trkpt lat="45.90582" lon="4.73618">
        <ele>173.600006104</ele>
        <time>2015-12-09T13:51:06.495Z</time>
      </trkpt>
      <trkpt lat="45.90577" lon="4.7362">
        <ele>173.699996948</ele>
        <time>2015-12-09T13:51:07.508Z</time>
      </trkpt>
      <trkpt lat="45.90573" lon="4.73622">
        <ele>173.699996948</ele>
        <time>2015-12-09T13:51:08.494Z</time>
      </trkpt>
      <trkpt lat="45.90568" lon="4.73624">
        <ele>173.800003052</ele>
        <time>2015-12-09T13:51:09.508Z</time>
      </trkpt>
      <trkpt lat="45.90563" lon="4.73626">
        <ele>173.699996948</ele>
        <time>2015-12-09T13:51:10.512Z</time>
      </trkpt>
      <trkpt lat="45.90558" lon="4.73629">
        <ele>173.699996948</ele>
        <time>2015-12-09T13:51:11.51Z</time>
      </trkpt>
      <trkpt lat="45.90553" lon="4.73631">
        <ele>173.800003052</ele>
        <time>2015-12-09T13:51:12.495Z</time>
      </trkpt>
      <trkpt lat="45.90548" lon="4.73634">
        <ele>173.899993896</ele>
        <time>2015-12-09T13:51:13.508Z</time>
      </trkpt>
      <trkpt lat="45.90543" lon="4.73636">
        <ele>174.100006104</ele>
        <time>2015-12-09T13:51:14.494Z</time>
      </trkpt>
      <trkpt lat="45.90537" lon="4.73638">
        <ele>174.100006104</ele>
        <time>2015-12-09T13:51:15.51Z</time>
      </trkpt>
      <trkpt lat="45.90532" lon="4.7364">
        <ele>174.600006104</ele>
        <time>2015-12-09T13:51:16.499Z</time>
      </trkpt>
      <trkpt lat="45.90526" lon="4.73642">
        <ele>174.699996948</ele>
        <time>2015-12-09T13:51:17.51Z</time>
      </trkpt>
      <trkpt lat="45.90521" lon="4.73644">
        <ele>174.800003052</ele>
        <time>2015-12-09T13:51:18.496Z</time>
      </trkpt>
      <trkpt lat="45.90516" lon="4.73646">
        <ele>174.899993896</ele>
        <time>2015-12-09T13:51:19.51Z</time>
      </trkpt>
      <trkpt lat="45.90511" lon="4.73648">
        <ele>174.899993896</ele>
        <time>2015-12-09T13:51:20.494Z</time>
      </trkpt>
      <trkpt lat="45.90505" lon="4.7365">
        <ele>175</ele>
        <time>2015-12-09T13:51:21.56Z</time>
      </trkpt>
      <trkpt lat="45.905" lon="4.73652">
        <ele>174.800003052</ele>
        <time>2015-12-09T13:51:22.497Z</time>
      </trkpt>
      <trkpt lat="45.90496" lon="4.73654">
        <ele>174.699996948</ele>
        <time>2015-12-09T13:51:23.508Z</time>
      </trkpt>
      <trkpt lat="45.9049" lon="4.73656">
        <ele>174.600006104</ele>
        <time>2015-12-09T13:51:24.494Z</time>
      </trkpt>
      <trkpt lat="45.90485" lon="4.73659">
        <ele>174.5</ele>
        <time>2015-12-09T13:51:25.508Z</time>
      </trkpt>
      <trkpt lat="45.9048" lon="4.73661">
        <ele>174.199996948</ele>
        <time>2015-12-09T13:51:26.494Z</time>
      </trkpt>
      <trkpt lat="45.90474" lon="4.73664">
        <ele>174.100006104</ele>
        <time>2015-12-09T13:51:27.511Z</time>
      </trkpt>
      <trkpt lat="45.90468" lon="4.73668">
        <ele>174</ele>
        <time>2015-12-09T13:51:28.496Z</time>
      </trkpt>
      <trkpt lat="45.90461" lon="4.7367">
        <ele>173.899993896</ele>
        <time>2015-12-09T13:51:29.509Z</time>
      </trkpt>
      <trkpt lat="45.90454" lon="4.73673">
        <ele>173.699996948</ele>
        <time>2015-12-09T13:51:30.494Z</time>
      </trkpt>
      <trkpt lat="45.90447" lon="4.73675">
        <ele>173.5</ele>
        <time>2015-12-09T13:51:31.508Z</time>
      </trkpt>
      <trkpt lat="45.9044" lon="4.73678">
        <ele>173.399993896</ele>
        <time>2015-12-09T13:51:32.494Z</time>
      </trkpt>
      <trkpt lat="45.90434" lon="4.73681">
        <ele>173.100006104</ele>
        <time>2015-12-09T13:51:33.508Z</time>
      </trkpt>
      <trkpt lat="45.90427" lon="4.73685">
        <ele>172.800003052</ele>
        <time>2015-12-09T13:51:34.496Z</time>
      </trkpt>
      <trkpt lat="45.9042" lon="4.73688">
        <ele>172.399993896</ele>
        <time>2015-12-09T13:51:35.508Z</time>
      </trkpt>
      <trkpt lat="45.90413" lon="4.73691">
        <ele>171.899993896</ele>
        <time>2015-12-09T13:51:36.495Z</time>
      </trkpt>
      <trkpt lat="45.90406" lon="4.73694">
        <ele>171.699996948</ele>
        <time>2015-12-09T13:51:37.508Z</time>
      </trkpt>
      <trkpt lat="45.90399" lon="4.73698">
        <ele>171</ele>
        <time>2015-12-09T13:51:38.494Z</time>
      </trkpt>
      <trkpt lat="45.90391" lon="4.73701">
        <ele>170.399993896</ele>
        <time>2015-12-09T13:51:39.508Z</time>
      </trkpt>
      <trkpt lat="45.90383" lon="4.73705">
        <ele>169.899993896</ele>
        <time>2015-12-09T13:51:40.496Z</time>
      </trkpt>
      <trkpt lat="45.90376" lon="4.73709">
        <ele>168.899993896</ele>
        <time>2015-12-09T13:51:41.508Z</time>
      </trkpt>
      <trkpt lat="45.90367" lon="4.73713">
        <ele>168.300003052</ele>
        <time>2015-12-09T13:51:42.495Z</time>
      </trkpt>
      <trkpt lat="45.90367" lon="4.73713">
        <ele>168.300003052</ele>
        <time>2015-12-09T13:51:42.512Z</time>
      </trkpt>
      <trkpt lat="45.90359" lon="4.73717">
        <ele>168.100006104</ele>
        <time>2015-12-09T13:51:43.507Z</time>
      </trkpt>
      <trkpt lat="45.90359" lon="4.73717">
        <ele>168.100006104</ele>
        <time>2015-12-09T13:51:43.527Z</time>
      </trkpt>
      <trkpt lat="45.9035" lon="4.73721">
        <ele>167.699996948</ele>
        <time>2015-12-09T13:51:44.494Z</time>
      </trkpt>
      <trkpt lat="45.9035" lon="4.73721">
        <ele>167.699996948</ele>
        <time>2015-12-09T13:51:44.511Z</time>
      </trkpt>
      <trkpt lat="45.90341" lon="4.73726">
        <ele>167.199996948</ele>
        <time>2015-12-09T13:51:45.494Z</time>
      </trkpt>
      <trkpt lat="45.90341" lon="4.73726">
        <ele>167.199996948</ele>
        <time>2015-12-09T13:51:45.511Z</time>
      </trkpt>
      <trkpt lat="45.90332" lon="4.73729">
        <ele>167.100006104</ele>
        <time>2015-12-09T13:51:46.496Z</time>
      </trkpt>
      <trkpt lat="45.90332" lon="4.73729">
        <ele>167.100006104</ele>
        <time>2015-12-09T13:51:46.514Z</time>
      </trkpt>
      <trkpt lat="45.90323" lon="4.73733">
        <ele>166.899993896</ele>
        <time>2015-12-09T13:51:47.494Z</time>
      </trkpt>
      <trkpt lat="45.90323" lon="4.73733">
        <ele>166.899993896</ele>
        <time>2015-12-09T13:51:47.515Z</time>
      </trkpt>
      <trkpt lat="45.90314" lon="4.73736">
        <ele>166.800003052</ele>
        <time>2015-12-09T13:51:48.495Z</time>
      </trkpt>
      <trkpt lat="45.90314" lon="4.73736">
        <ele>166.800003052</ele>
        <time>2015-12-09T13:51:48.511Z</time>
      </trkpt>
      <trkpt lat="45.90305" lon="4.73739">
        <ele>166.800003052</ele>
        <time>2015-12-09T13:51:49.494Z</time>
      </trkpt>
      <trkpt lat="45.90305" lon="4.73739">
        <ele>166.800003052</ele>
        <time>2015-12-09T13:51:49.511Z</time>
      </trkpt>
      <trkpt lat="45.90296" lon="4.73743">
        <ele>166.199996948</ele>
        <time>2015-12-09T13:51:50.494Z</time>
      </trkpt>
      <trkpt lat="45.90296" lon="4.73743">
        <ele>166.199996948</ele>
        <time>2015-12-09T13:51:50.51Z</time>
      </trkpt>
      <trkpt lat="45.90287" lon="4.73746">
        <ele>166.399993896</ele>
        <time>2015-12-09T13:51:51.494Z</time>
      </trkpt>
      <trkpt lat="45.90287" lon="4.73746">
        <ele>166.399993896</ele>
        <time>2015-12-09T13:51:51.511Z</time>
      </trkpt>
      <trkpt lat="45.90278" lon="4.7375">
        <ele>166.5</ele>
        <time>2015-12-09T13:51:52.496Z</time>
      </trkpt>
      <trkpt lat="45.9027" lon="4.73753">
        <ele>166.399993896</ele>
        <time>2015-12-09T13:51:53.511Z</time>
      </trkpt>
      <trkpt lat="45.90261" lon="4.73757">
        <ele>166</ele>
        <time>2015-12-09T13:51:54.494Z</time>
      </trkpt>
      <trkpt lat="45.90253" lon="4.73761">
        <ele>166.199996948</ele>
        <time>2015-12-09T13:51:55.508Z</time>
      </trkpt>
      <trkpt lat="45.90245" lon="4.73765">
        <ele>166</ele>
        <time>2015-12-09T13:51:56.494Z</time>
      </trkpt>
      <trkpt lat="45.90237" lon="4.73768">
        <ele>165.699996948</ele>
        <time>2015-12-09T13:51:57.508Z</time>
      </trkpt>
      <trkpt lat="45.90229" lon="4.73772">
        <ele>165.899993896</ele>
        <time>2015-12-09T13:51:58.496Z</time>
      </trkpt>
      <trkpt lat="45.90221" lon="4.73775">
        <ele>165.899993896</ele>
        <time>2015-12-09T13:51:59.523Z</time>
      </trkpt>
      <trkpt lat="45.90213" lon="4.73778">
        <ele>166.100006104</ele>
        <time>2015-12-09T13:52:00.494Z</time>
      </trkpt>
      <trkpt lat="45.90205" lon="4.73781">
        <ele>166.300003052</ele>
        <time>2015-12-09T13:52:01.633Z</time>
      </trkpt>
      <trkpt lat="45.90197" lon="4.73785">
        <ele>166.399993896</ele>
        <time>2015-12-09T13:52:02.494Z</time>
      </trkpt>
      <trkpt lat="45.90189" lon="4.73788">
        <ele>166.600006104</ele>
        <time>2015-12-09T13:52:03.508Z</time>
      </trkpt>
      <trkpt lat="45.90181" lon="4.73792">
        <ele>166.600006104</ele>
        <time>2015-12-09T13:52:04.496Z</time>
      </trkpt>
      <trkpt lat="45.90174" lon="4.73795">
        <ele>166.800003052</ele>
        <time>2015-12-09T13:52:05.522Z</time>
      </trkpt>
      <trkpt lat="45.90166" lon="4.73798">
        <ele>167.100006104</ele>
        <time>2015-12-09T13:52:06.526Z</time>
      </trkpt>
      <trkpt lat="45.90158" lon="4.73801">
        <ele>167.399993896</ele>
        <time>2015-12-09T13:52:07.508Z</time>
      </trkpt>
      <trkpt lat="45.9015" lon="4.73804">
        <ele>167.5</ele>
        <time>2015-12-09T13:52:08.494Z</time>
      </trkpt>
      <trkpt lat="45.90142" lon="4.73808">
        <ele>167.5</ele>
        <time>2015-12-09T13:52:09.508Z</time>
      </trkpt>
      <trkpt lat="45.90135" lon="4.73812">
        <ele>167.600006104</ele>
        <time>2015-12-09T13:52:10.496Z</time>
      </trkpt>
      <trkpt lat="45.90127" lon="4.73814">
        <ele>167.899993896</ele>
        <time>2015-12-09T13:52:11.511Z</time>
      </trkpt>
      <trkpt lat="45.9012" lon="4.73817">
        <ele>167.899993896</ele>
        <time>2015-12-09T13:52:12.495Z</time>
      </trkpt>
      <trkpt lat="45.90112" lon="4.7382">
        <ele>168.399993896</ele>
        <time>2015-12-09T13:52:13.508Z</time>
      </trkpt>
      <trkpt lat="45.90104" lon="4.73823">
        <ele>168.699996948</ele>
        <time>2015-12-09T13:52:14.494Z</time>
      </trkpt>
      <trkpt lat="45.90096" lon="4.73826">
        <ele>169.100006104</ele>
        <time>2015-12-09T13:52:15.569Z</time>
      </trkpt>
      <trkpt lat="45.90088" lon="4.73829">
        <ele>169.600006104</ele>
        <time>2015-12-09T13:52:16.497Z</time>
      </trkpt>
      <trkpt lat="45.9008" lon="4.73832">
        <ele>169.899993896</ele>
        <time>2015-12-09T13:52:17.521Z</time>
      </trkpt>
      <trkpt lat="45.90072" lon="4.73835">
        <ele>169.899993896</ele>
        <time>2015-12-09T13:52:18.495Z</time>
      </trkpt>
      <trkpt lat="45.90065" lon="4.73838">
        <ele>170.100006104</ele>
        <time>2015-12-09T13:52:19.51Z</time>
      </trkpt>
      <trkpt lat="45.90057" lon="4.73842">
        <ele>170.399993896</ele>
        <time>2015-12-09T13:52:20.494Z</time>
      </trkpt>
      <trkpt lat="45.9005" lon="4.73845">
        <ele>170.300003052</ele>
        <time>2015-12-09T13:52:21.508Z</time>
      </trkpt>
      <trkpt lat="45.90042" lon="4.73848">
        <ele>170.5</ele>
        <time>2015-12-09T13:52:22.496Z</time>
      </trkpt>
      <trkpt lat="45.90035" lon="4.73851">
        <ele>170.399993896</ele>
        <time>2015-12-09T13:52:23.508Z</time>
      </trkpt>
      <trkpt lat="45.90027" lon="4.73854">
        <ele>170.399993896</ele>
        <time>2015-12-09T13:52:24.495Z</time>
      </trkpt>
      <trkpt lat="45.90019" lon="4.73856">
        <ele>170.399993896</ele>
        <time>2015-12-09T13:52:25.509Z</time>
      </trkpt>
      <trkpt lat="45.90012" lon="4.73859">
        <ele>170.399993896</ele>
        <time>2015-12-09T13:52:26.508Z</time>
      </trkpt>
      <trkpt lat="45.90004" lon="4.73861">
        <ele>170.699996948</ele>
        <time>2015-12-09T13:52:27.508Z</time>
      </trkpt>
      <trkpt lat="45.89997" lon="4.73864">
        <ele>170.800003052</ele>
        <time>2015-12-09T13:52:28.497Z</time>
      </trkpt>
      <trkpt lat="45.8999" lon="4.73867">
        <ele>171</ele>
        <time>2015-12-09T13:52:29.508Z</time>
      </trkpt>
      <trkpt lat="45.89983" lon="4.73871">
        <ele>171</ele>
        <time>2015-12-09T13:52:30.494Z</time>
      </trkpt>
      <trkpt lat="45.89975" lon="4.73874">
        <ele>171</ele>
        <time>2015-12-09T13:52:31.508Z</time>
      </trkpt>
      <trkpt lat="45.89967" lon="4.73877">
        <ele>170.899993896</ele>
        <time>2015-12-09T13:52:32.494Z</time>
      </trkpt>
      <trkpt lat="45.8996" lon="4.73881">
        <ele>171.100006104</ele>
        <time>2015-12-09T13:52:33.508Z</time>
      </trkpt>
      <trkpt lat="45.89952" lon="4.73884">
        <ele>171.199996948</ele>
        <time>2015-12-09T13:52:34.496Z</time>
      </trkpt>
      <trkpt lat="45.89945" lon="4.73887">
        <ele>171.300003052</ele>
        <time>2015-12-09T13:52:35.508Z</time>
      </trkpt>
      <trkpt lat="45.89937" lon="4.7389">
        <ele>171.199996948</ele>
        <time>2015-12-09T13:52:36.495Z</time>
      </trkpt>
      <trkpt lat="45.8993" lon="4.73893">
        <ele>171.399993896</ele>
        <time>2015-12-09T13:52:37.523Z</time>
      </trkpt>
      <trkpt lat="45.89922" lon="4.73896">
        <ele>171.399993896</ele>
        <time>2015-12-09T13:52:38.494Z</time>
      </trkpt>
      <trkpt lat="45.89915" lon="4.73899">
        <ele>171.600006104</ele>
        <time>2015-12-09T13:52:39.508Z</time>
      </trkpt>
      <trkpt lat="45.89908" lon="4.73902">
        <ele>171.399993896</ele>
        <time>2015-12-09T13:52:40.496Z</time>
      </trkpt>
      <trkpt lat="45.89901" lon="4.73905">
        <ele>171.600006104</ele>
        <time>2015-12-09T13:52:41.508Z</time>
      </trkpt>
      <trkpt lat="45.89894" lon="4.73908">
        <ele>171.600006104</ele>
        <time>2015-12-09T13:52:42.494Z</time>
      </trkpt>
      <trkpt lat="45.89887" lon="4.73911">
        <ele>171.699996948</ele>
        <time>2015-12-09T13:52:43.509Z</time>
      </trkpt>
      <trkpt lat="45.8988" lon="4.73914">
        <ele>171.800003052</ele>
        <time>2015-12-09T13:52:44.494Z</time>
      </trkpt>
      <trkpt lat="45.89873" lon="4.73917">
        <ele>172.300003052</ele>
        <time>2015-12-09T13:52:45.51Z</time>
      </trkpt>
      <trkpt lat="45.89866" lon="4.73921">
        <ele>172.600006104</ele>
        <time>2015-12-09T13:52:46.496Z</time>
      </trkpt>
      <trkpt lat="45.8986" lon="4.73924">
        <ele>172.800003052</ele>
        <time>2015-12-09T13:52:47.509Z</time>
      </trkpt>
      <trkpt lat="45.89853" lon="4.73928">
        <ele>173.300003052</ele>
        <time>2015-12-09T13:52:48.495Z</time>
      </trkpt>
      <trkpt lat="45.89845" lon="4.73931">
        <ele>173.5</ele>
        <time>2015-12-09T13:52:49.508Z</time>
      </trkpt>
      <trkpt lat="45.89838" lon="4.73934">
        <ele>173.699996948</ele>
        <time>2015-12-09T13:52:50.494Z</time>
      </trkpt>
      <trkpt lat="45.89831" lon="4.73937">
        <ele>173.800003052</ele>
        <time>2015-12-09T13:52:51.508Z</time>
      </trkpt>
      <trkpt lat="45.89824" lon="4.7394">
        <ele>173.899993896</ele>
        <time>2015-12-09T13:52:52.496Z</time>
      </trkpt>
      <trkpt lat="45.89816" lon="4.73943">
        <ele>173.800003052</ele>
        <time>2015-12-09T13:52:53.523Z</time>
      </trkpt>
      <trkpt lat="45.89809" lon="4.73945">
        <ele>173.5</ele>
        <time>2015-12-09T13:52:54.494Z</time>
      </trkpt>
      <trkpt lat="45.89802" lon="4.73948">
        <ele>173.300003052</ele>
        <time>2015-12-09T13:52:55.508Z</time>
      </trkpt>
      <trkpt lat="45.89795" lon="4.73951">
        <ele>173.300003052</ele>
        <time>2015-12-09T13:52:56.494Z</time>
      </trkpt>
      <trkpt lat="45.89788" lon="4.73954">
        <ele>173.5</ele>
        <time>2015-12-09T13:52:57.508Z</time>
      </trkpt>
      <trkpt lat="45.89781" lon="4.73957">
        <ele>173.699996948</ele>
        <time>2015-12-09T13:52:58.496Z</time>
      </trkpt>
      <trkpt lat="45.89774" lon="4.7396">
        <ele>173.399993896</ele>
        <time>2015-12-09T13:52:59.507Z</time>
      </trkpt>
      <trkpt lat="45.89767" lon="4.73964">
        <ele>173.5</ele>
        <time>2015-12-09T13:53:00.494Z</time>
      </trkpt>
      <trkpt lat="45.8976" lon="4.73967">
        <ele>173.399993896</ele>
        <time>2015-12-09T13:53:01.513Z</time>
      </trkpt>
      <trkpt lat="45.89754" lon="4.7397">
        <ele>173.399993896</ele>
        <time>2015-12-09T13:53:02.494Z</time>
      </trkpt>
      <trkpt lat="45.89747" lon="4.73972">
        <ele>173.699996948</ele>
        <time>2015-12-09T13:53:03.508Z</time>
      </trkpt>
      <trkpt lat="45.8974" lon="4.73975">
        <ele>174</ele>
        <time>2015-12-09T13:53:04.496Z</time>
      </trkpt>
      <trkpt lat="45.89733" lon="4.73978">
        <ele>174</ele>
        <time>2015-12-09T13:53:05.508Z</time>
      </trkpt>
      <trkpt lat="45.89726" lon="4.73981">
        <ele>174.199996948</ele>
        <time>2015-12-09T13:53:06.495Z</time>
      </trkpt>
      <trkpt lat="45.8972" lon="4.73985">
        <ele>174.399993896</ele>
        <time>2015-12-09T13:53:07.523Z</time>
      </trkpt>
      <trkpt lat="45.89713" lon="4.73988">
        <ele>174.199996948</ele>
        <time>2015-12-09T13:53:08.494Z</time>
      </trkpt>
      <trkpt lat="45.89706" lon="4.73991">
        <ele>174.199996948</ele>
        <time>2015-12-09T13:53:09.523Z</time>
      </trkpt>
      <trkpt lat="45.89699" lon="4.73993">
        <ele>174.100006104</ele>
        <time>2015-12-09T13:53:10.496Z</time>
      </trkpt>
      <trkpt lat="45.89692" lon="4.73996">
        <ele>173.899993896</ele>
        <time>2015-12-09T13:53:11.512Z</time>
      </trkpt>
      <trkpt lat="45.89685" lon="4.73998">
        <ele>173.699996948</ele>
        <time>2015-12-09T13:53:12.494Z</time>
      </trkpt>
      <trkpt lat="45.89678" lon="4.74001">
        <ele>173.600006104</ele>
        <time>2015-12-09T13:53:13.508Z</time>
      </trkpt>
      <trkpt lat="45.8967" lon="4.74003">
        <ele>173.399993896</ele>
        <time>2015-12-09T13:53:14.493Z</time>
      </trkpt>
      <trkpt lat="45.89663" lon="4.74006">
        <ele>173.199996948</ele>
        <time>2015-12-09T13:53:15.516Z</time>
      </trkpt>
      <trkpt lat="45.89656" lon="4.74009">
        <ele>173.100006104</ele>
        <time>2015-12-09T13:53:16.496Z</time>
      </trkpt>
      <trkpt lat="45.89649" lon="4.74012">
        <ele>173.300003052</ele>
        <time>2015-12-09T13:53:17.508Z</time>
      </trkpt>
      <trkpt lat="45.89642" lon="4.74015">
        <ele>173.300003052</ele>
        <time>2015-12-09T13:53:18.495Z</time>
      </trkpt>
      <trkpt lat="45.89635" lon="4.74018">
        <ele>173.100006104</ele>
        <time>2015-12-09T13:53:19.508Z</time>
      </trkpt>
      <trkpt lat="45.89628" lon="4.74021">
        <ele>172.899993896</ele>
        <time>2015-12-09T13:53:20.494Z</time>
      </trkpt>
      <trkpt lat="45.89622" lon="4.74024">
        <ele>172.699996948</ele>
        <time>2015-12-09T13:53:21.508Z</time>
      </trkpt>
      <trkpt lat="45.89615" lon="4.74027">
        <ele>172.5</ele>
        <time>2015-12-09T13:53:22.496Z</time>
      </trkpt>
      <trkpt lat="45.89608" lon="4.7403">
        <ele>172.600006104</ele>
        <time>2015-12-09T13:53:23.508Z</time>
      </trkpt>
      <trkpt lat="45.89602" lon="4.74033">
        <ele>172.399993896</ele>
        <time>2015-12-09T13:53:24.494Z</time>
      </trkpt>
      <trkpt lat="45.89596" lon="4.74036">
        <ele>172.300003052</ele>
        <time>2015-12-09T13:53:25.523Z</time>
      </trkpt>
      <trkpt lat="45.8959" lon="4.74039">
        <ele>172.5</ele>
        <time>2015-12-09T13:53:26.494Z</time>
      </trkpt>
      <trkpt lat="45.89583" lon="4.74042">
        <ele>172.699996948</ele>
        <time>2015-12-09T13:53:27.507Z</time>
      </trkpt>
      <trkpt lat="45.89577" lon="4.74045">
        <ele>172.600006104</ele>
        <time>2015-12-09T13:53:28.496Z</time>
      </trkpt>
      <trkpt lat="45.89571" lon="4.74047">
        <ele>172.5</ele>
        <time>2015-12-09T13:53:29.507Z</time>
      </trkpt>
      <trkpt lat="45.89564" lon="4.74049">
        <ele>172.399993896</ele>
        <time>2015-12-09T13:53:30.493Z</time>
      </trkpt>
      <trkpt lat="45.89558" lon="4.74052">
        <ele>172.300003052</ele>
        <time>2015-12-09T13:53:31.508Z</time>
      </trkpt>
      <trkpt lat="45.89551" lon="4.74054">
        <ele>172.300003052</ele>
        <time>2015-12-09T13:53:32.494Z</time>
      </trkpt>
      <trkpt lat="45.89545" lon="4.74057">
        <ele>172.399993896</ele>
        <time>2015-12-09T13:53:33.508Z</time>
      </trkpt>
      <trkpt lat="45.89539" lon="4.7406">
        <ele>172.199996948</ele>
        <time>2015-12-09T13:53:34.496Z</time>
      </trkpt>
      <trkpt lat="45.89532" lon="4.74063">
        <ele>172.399993896</ele>
        <time>2015-12-09T13:53:35.508Z</time>
      </trkpt>
      <trkpt lat="45.89526" lon="4.74065">
        <ele>172.899993896</ele>
        <time>2015-12-09T13:53:36.512Z</time>
      </trkpt>
      <trkpt lat="45.89519" lon="4.74067">
        <ele>173.300003052</ele>
        <time>2015-12-09T13:53:37.511Z</time>
      </trkpt>
      <trkpt lat="45.89513" lon="4.7407">
        <ele>173.399993896</ele>
        <time>2015-12-09T13:53:38.493Z</time>
      </trkpt>
      <trkpt lat="45.89507" lon="4.74072">
        <ele>173.600006104</ele>
        <time>2015-12-09T13:53:39.508Z</time>
      </trkpt>
      <trkpt lat="45.895" lon="4.74075">
        <ele>173.699996948</ele>
        <time>2015-12-09T13:53:40.496Z</time>
      </trkpt>
      <trkpt lat="45.89494" lon="4.74078">
        <ele>173.800003052</ele>
        <time>2015-12-09T13:53:41.539Z</time>
      </trkpt>
      <trkpt lat="45.89488" lon="4.7408">
        <ele>173.899993896</ele>
        <time>2015-12-09T13:53:42.494Z</time>
      </trkpt>
      <trkpt lat="45.89482" lon="4.74083">
        <ele>174.100006104</ele>
        <time>2015-12-09T13:53:43.507Z</time>
      </trkpt>
      <trkpt lat="45.89475" lon="4.74085">
        <ele>174.300003052</ele>
        <time>2015-12-09T13:53:44.493Z</time>
      </trkpt>
      <trkpt lat="45.89469" lon="4.74088">
        <ele>174.5</ele>
        <time>2015-12-09T13:53:45.508Z</time>
      </trkpt>
      <trkpt lat="45.89463" lon="4.7409">
        <ele>174.699996948</ele>
        <time>2015-12-09T13:53:46.496Z</time>
      </trkpt>
      <trkpt lat="45.89456" lon="4.74093">
        <ele>174.800003052</ele>
        <time>2015-12-09T13:53:47.508Z</time>
      </trkpt>
      <trkpt lat="45.8945" lon="4.74095">
        <ele>175</ele>
        <time>2015-12-09T13:53:48.494Z</time>
      </trkpt>
      <trkpt lat="45.89444" lon="4.74098">
        <ele>175.5</ele>
        <time>2015-12-09T13:53:49.508Z</time>
      </trkpt>
      <trkpt lat="45.89438" lon="4.74101">
        <ele>175.5</ele>
        <time>2015-12-09T13:53:50.493Z</time>
      </trkpt>
      <trkpt lat="45.89432" lon="4.74103">
        <ele>175.399993896</ele>
        <time>2015-12-09T13:53:51.508Z</time>
      </trkpt>
      <trkpt lat="45.89426" lon="4.74105">
        <ele>175.399993896</ele>
        <time>2015-12-09T13:53:52.496Z</time>
      </trkpt>
      <trkpt lat="45.8942" lon="4.74108">
        <ele>175.699996948</ele>
        <time>2015-12-09T13:53:53.508Z</time>
      </trkpt>
      <trkpt lat="45.89415" lon="4.74111">
        <ele>175.800003052</ele>
        <time>2015-12-09T13:53:54.493Z</time>
      </trkpt>
      <trkpt lat="45.89409" lon="4.74114">
        <ele>175.899993896</ele>
        <time>2015-12-09T13:53:55.539Z</time>
      </trkpt>
      <trkpt lat="45.89403" lon="4.74117">
        <ele>175.800003052</ele>
        <time>2015-12-09T13:53:56.493Z</time>
      </trkpt>
      <trkpt lat="45.89397" lon="4.7412">
        <ele>176</ele>
        <time>2015-12-09T13:53:57.521Z</time>
      </trkpt>
      <trkpt lat="45.89391" lon="4.74123">
        <ele>176</ele>
        <time>2015-12-09T13:53:58.496Z</time>
      </trkpt>
      <trkpt lat="45.89385" lon="4.74126">
        <ele>176.100006104</ele>
        <time>2015-12-09T13:53:59.507Z</time>
      </trkpt>
      <trkpt lat="45.8938" lon="4.74129">
        <ele>176.199996948</ele>
        <time>2015-12-09T13:54:00.494Z</time>
      </trkpt>
      <trkpt lat="45.89374" lon="4.74132">
        <ele>176</ele>
        <time>2015-12-09T13:54:01.508Z</time>
      </trkpt>
      <trkpt lat="45.89368" lon="4.74134">
        <ele>175.800003052</ele>
        <time>2015-12-09T13:54:02.493Z</time>
      </trkpt>
      <trkpt lat="45.89362" lon="4.74137">
        <ele>176</ele>
        <time>2015-12-09T13:54:03.53Z</time>
      </trkpt>
      <trkpt lat="45.89356" lon="4.74139">
        <ele>176.399993896</ele>
        <time>2015-12-09T13:54:04.496Z</time>
      </trkpt>
      <trkpt lat="45.8935" lon="4.74142">
        <ele>176.199996948</ele>
        <time>2015-12-09T13:54:05.508Z</time>
      </trkpt>
      <trkpt lat="45.89345" lon="4.74144">
        <ele>176.600006104</ele>
        <time>2015-12-09T13:54:06.494Z</time>
      </trkpt>
      <trkpt lat="45.89339" lon="4.74147">
        <ele>176.800003052</ele>
        <time>2015-12-09T13:54:07.508Z</time>
      </trkpt>
      <trkpt lat="45.89333" lon="4.7415">
        <ele>176.899993896</ele>
        <time>2015-12-09T13:54:08.493Z</time>
      </trkpt>
      <trkpt lat="45.89327" lon="4.74152">
        <ele>176.800003052</ele>
        <time>2015-12-09T13:54:09.508Z</time>
      </trkpt>
      <trkpt lat="45.8932" lon="4.74154">
        <ele>177.100006104</ele>
        <time>2015-12-09T13:54:10.626Z</time>
      </trkpt>
      <trkpt lat="45.89314" lon="4.74157">
        <ele>176.899993896</ele>
        <time>2015-12-09T13:54:11.51Z</time>
      </trkpt>
      <trkpt lat="45.89308" lon="4.7416">
        <ele>177</ele>
        <time>2015-12-09T13:54:12.494Z</time>
      </trkpt>
      <trkpt lat="45.89302" lon="4.74162">
        <ele>177</ele>
        <time>2015-12-09T13:54:13.522Z</time>
      </trkpt>
      <trkpt lat="45.89296" lon="4.74165">
        <ele>177.199996948</ele>
        <time>2015-12-09T13:54:14.493Z</time>
      </trkpt>
      <trkpt lat="45.8929" lon="4.74168">
        <ele>177.399993896</ele>
        <time>2015-12-09T13:54:15.508Z</time>
      </trkpt>
      <trkpt lat="45.89284" lon="4.74172">
        <ele>177.399993896</ele>
        <time>2015-12-09T13:54:16.496Z</time>
      </trkpt>
      <trkpt lat="45.89278" lon="4.74175">
        <ele>177.600006104</ele>
        <time>2015-12-09T13:54:17.508Z</time>
      </trkpt>
      <trkpt lat="45.89272" lon="4.74177">
        <ele>177.699996948</ele>
        <time>2015-12-09T13:54:18.494Z</time>
      </trkpt>
      <trkpt lat="45.89266" lon="4.74179">
        <ele>177.899993896</ele>
        <time>2015-12-09T13:54:19.508Z</time>
      </trkpt>
      <trkpt lat="45.8926" lon="4.74181">
        <ele>178</ele>
        <time>2015-12-09T13:54:20.493Z</time>
      </trkpt>
      <trkpt lat="45.89253" lon="4.74184">
        <ele>178.199996948</ele>
        <time>2015-12-09T13:54:21.508Z</time>
      </trkpt>
      <trkpt lat="45.89247" lon="4.74186">
        <ele>178.399993896</ele>
        <time>2015-12-09T13:54:22.496Z</time>
      </trkpt>
      <trkpt lat="45.8924" lon="4.74188">
        <ele>178.600006104</ele>
        <time>2015-12-09T13:54:23.508Z</time>
      </trkpt>
      <trkpt lat="45.89233" lon="4.7419">
        <ele>178.699996948</ele>
        <time>2015-12-09T13:54:24.493Z</time>
      </trkpt>
      <trkpt lat="45.89227" lon="4.74192">
        <ele>179</ele>
        <time>2015-12-09T13:54:25.529Z</time>
      </trkpt>
      <trkpt lat="45.89221" lon="4.74195">
        <ele>179.100006104</ele>
        <time>2015-12-09T13:54:26.494Z</time>
      </trkpt>
      <trkpt lat="45.89215" lon="4.74198">
        <ele>179.199996948</ele>
        <time>2015-12-09T13:54:27.517Z</time>
      </trkpt>
      <trkpt lat="45.89208" lon="4.742">
        <ele>179.100006104</ele>
        <time>2015-12-09T13:54:28.496Z</time>
      </trkpt>
      <trkpt lat="45.89202" lon="4.74203">
        <ele>179.199996948</ele>
        <time>2015-12-09T13:54:29.525Z</time>
      </trkpt>
      <trkpt lat="45.89196" lon="4.74205">
        <ele>179.199996948</ele>
        <time>2015-12-09T13:54:30.494Z</time>
      </trkpt>
      <trkpt lat="45.8919" lon="4.74208">
        <ele>179.300003052</ele>
        <time>2015-12-09T13:54:31.507Z</time>
      </trkpt>
      <trkpt lat="45.89184" lon="4.7421">
        <ele>179.199996948</ele>
        <time>2015-12-09T13:54:32.493Z</time>
      </trkpt>
      <trkpt lat="45.89178" lon="4.74213">
        <ele>179.300003052</ele>
        <time>2015-12-09T13:54:33.508Z</time>
      </trkpt>
      <trkpt lat="45.89172" lon="4.74215">
        <ele>179.5</ele>
        <time>2015-12-09T13:54:34.496Z</time>
      </trkpt>
      <trkpt lat="45.89167" lon="4.74217">
        <ele>179.300003052</ele>
        <time>2015-12-09T13:54:35.508Z</time>
      </trkpt>
      <trkpt lat="45.89162" lon="4.74219">
        <ele>178.899993896</ele>
        <time>2015-12-09T13:54:36.494Z</time>
      </trkpt>
      <trkpt lat="45.89156" lon="4.74221">
        <ele>178.899993896</ele>
        <time>2015-12-09T13:54:37.508Z</time>
      </trkpt>
      <trkpt lat="45.89151" lon="4.74224">
        <ele>179</ele>
        <time>2015-12-09T13:54:38.493Z</time>
      </trkpt>
      <trkpt lat="45.89145" lon="4.74226">
        <ele>179.100006104</ele>
        <time>2015-12-09T13:54:39.539Z</time>
      </trkpt>
      <trkpt lat="45.89139" lon="4.74228">
        <ele>179.300003052</ele>
        <time>2015-12-09T13:54:40.496Z</time>
      </trkpt>
      <trkpt lat="45.89134" lon="4.7423">
        <ele>179.5</ele>
        <time>2015-12-09T13:54:41.508Z</time>
      </trkpt>
      <trkpt lat="45.89128" lon="4.74232">
        <ele>179.5</ele>
        <time>2015-12-09T13:54:42.494Z</time>
      </trkpt>
      <trkpt lat="45.89122" lon="4.74234">
        <ele>179.199996948</ele>
        <time>2015-12-09T13:54:43.507Z</time>
      </trkpt>
      <trkpt lat="45.89116" lon="4.74236">
        <ele>179.5</ele>
        <time>2015-12-09T13:54:44.493Z</time>
      </trkpt>
      <trkpt lat="45.8911" lon="4.74239">
        <ele>179.699996948</ele>
        <time>2015-12-09T13:54:45.522Z</time>
      </trkpt>
      <trkpt lat="45.89104" lon="4.74241">
        <ele>179.800003052</ele>
        <time>2015-12-09T13:54:46.496Z</time>
      </trkpt>
      <trkpt lat="45.89099" lon="4.74244">
        <ele>179.899993896</ele>
        <time>2015-12-09T13:54:47.508Z</time>
      </trkpt>
      <trkpt lat="45.89093" lon="4.74246">
        <ele>180.100006104</ele>
        <time>2015-12-09T13:54:48.494Z</time>
      </trkpt>
      <trkpt lat="45.89087" lon="4.74249">
        <ele>180.300003052</ele>
        <time>2015-12-09T13:54:49.508Z</time>
      </trkpt>
      <trkpt lat="45.89081" lon="4.74251">
        <ele>180.100006104</ele>
        <time>2015-12-09T13:54:50.493Z</time>
      </trkpt>
      <trkpt lat="45.89074" lon="4.74253">
        <ele>179.899993896</ele>
        <time>2015-12-09T13:54:51.508Z</time>
      </trkpt>
      <trkpt lat="45.89068" lon="4.74254">
        <ele>180</ele>
        <time>2015-12-09T13:54:52.496Z</time>
      </trkpt>
      <trkpt lat="45.89062" lon="4.74257">
        <ele>180</ele>
        <time>2015-12-09T13:54:53.508Z</time>
      </trkpt>
      <trkpt lat="45.89055" lon="4.74259">
        <ele>179.800003052</ele>
        <time>2015-12-09T13:54:54.494Z</time>
      </trkpt>
      <trkpt lat="45.89049" lon="4.74261">
        <ele>179.899993896</ele>
        <time>2015-12-09T13:54:55.523Z</time>
      </trkpt>
      <trkpt lat="45.89043" lon="4.74263">
        <ele>180.100006104</ele>
        <time>2015-12-09T13:54:56.493Z</time>
      </trkpt>
      <trkpt lat="45.89037" lon="4.74264">
        <ele>180.399993896</ele>
        <time>2015-12-09T13:54:57.507Z</time>
      </trkpt>
      <trkpt lat="45.8903" lon="4.74266">
        <ele>180.199996948</ele>
        <time>2015-12-09T13:54:58.496Z</time>
      </trkpt>
      <trkpt lat="45.89024" lon="4.74268">
        <ele>180</ele>
        <time>2015-12-09T13:54:59.54Z</time>
      </trkpt>
      <trkpt lat="45.89018" lon="4.74269">
        <ele>179.800003052</ele>
        <time>2015-12-09T13:55:00.494Z</time>
      </trkpt>
      <trkpt lat="45.89012" lon="4.74271">
        <ele>179.699996948</ele>
        <time>2015-12-09T13:55:01.508Z</time>
      </trkpt>
      <trkpt lat="45.89005" lon="4.74273">
        <ele>179.699996948</ele>
        <time>2015-12-09T13:55:02.493Z</time>
      </trkpt>
      <trkpt lat="45.88999" lon="4.74274">
        <ele>179.899993896</ele>
        <time>2015-12-09T13:55:03.508Z</time>
      </trkpt>
      <trkpt lat="45.88994" lon="4.74277">
        <ele>179.899993896</ele>
        <time>2015-12-09T13:55:04.497Z</time>
      </trkpt>
      <trkpt lat="45.88987" lon="4.74277">
        <ele>180.100006104</ele>
        <time>2015-12-09T13:55:05.508Z</time>
      </trkpt>
      <trkpt lat="45.88981" lon="4.74278">
        <ele>180.300003052</ele>
        <time>2015-12-09T13:55:06.509Z</time>
      </trkpt>
      <trkpt lat="45.88975" lon="4.74277">
        <ele>180.5</ele>
        <time>2015-12-09T13:55:07.508Z</time>
      </trkpt>
      <trkpt lat="45.88969" lon="4.74276">
        <ele>180.600006104</ele>
        <time>2015-12-09T13:55:08.494Z</time>
      </trkpt>
      <trkpt lat="45.88965" lon="4.74274">
        <ele>180.600006104</ele>
        <time>2015-12-09T13:55:09.632Z</time>
      </trkpt>
      <trkpt lat="45.8896" lon="4.74273">
        <ele>180.699996948</ele>
        <time>2015-12-09T13:55:10.497Z</time>
      </trkpt>
      <trkpt lat="45.88955" lon="4.74271">
        <ele>180.800003052</ele>
        <time>2015-12-09T13:55:11.51Z</time>
      </trkpt>
      <trkpt lat="45.88951" lon="4.7427">
        <ele>181</ele>
        <time>2015-12-09T13:55:12.494Z</time>
      </trkpt>
      <trkpt lat="45.88946" lon="4.74269">
        <ele>181</ele>
        <time>2015-12-09T13:55:13.507Z</time>
      </trkpt>
      <trkpt lat="45.88941" lon="4.74267">
        <ele>181</ele>
        <time>2015-12-09T13:55:14.493Z</time>
      </trkpt>
      <trkpt lat="45.88933" lon="4.74265">
        <ele>181.300003052</ele>
        <time>2015-12-09T13:55:16.51Z</time>
      </trkpt>
      <trkpt lat="45.88927" lon="4.74264">
        <ele>181.5</ele>
        <time>2015-12-09T13:55:17.494Z</time>
      </trkpt>
      <trkpt lat="45.88923" lon="4.74262">
        <ele>181.800003052</ele>
        <time>2015-12-09T13:55:18.509Z</time>
      </trkpt>
      <trkpt lat="45.88917" lon="4.7426">
        <ele>182.100006104</ele>
        <time>2015-12-09T13:55:19.493Z</time>
      </trkpt>
      <trkpt lat="45.88913" lon="4.74256">
        <ele>182.300003052</ele>
        <time>2015-12-09T13:55:20.508Z</time>
      </trkpt>
      <trkpt lat="45.88909" lon="4.74254">
        <ele>182.5</ele>
        <time>2015-12-09T13:55:21.493Z</time>
      </trkpt>
      <trkpt lat="45.88903" lon="4.7425">
        <ele>183.100006104</ele>
        <time>2015-12-09T13:55:22.511Z</time>
      </trkpt>
      <trkpt lat="45.88899" lon="4.74247">
        <ele>183.199996948</ele>
        <time>2015-12-09T13:55:23.494Z</time>
      </trkpt>
      <trkpt lat="45.88895" lon="4.74243">
        <ele>183.399993896</ele>
        <time>2015-12-09T13:55:24.508Z</time>
      </trkpt>
      <trkpt lat="45.8889" lon="4.7424">
        <ele>183.600006104</ele>
        <time>2015-12-09T13:55:25.493Z</time>
      </trkpt>
      <trkpt lat="45.88885" lon="4.74236">
        <ele>183.800003052</ele>
        <time>2015-12-09T13:55:26.508Z</time>
      </trkpt>
      <trkpt lat="45.8888" lon="4.74232">
        <ele>184.100006104</ele>
        <time>2015-12-09T13:55:27.494Z</time>
      </trkpt>
      <trkpt lat="45.88875" lon="4.74228">
        <ele>184.300003052</ele>
        <time>2015-12-09T13:55:28.51Z</time>
      </trkpt>
      <trkpt lat="45.8887" lon="4.74225">
        <ele>184.5</ele>
        <time>2015-12-09T13:55:29.493Z</time>
      </trkpt>
      <trkpt lat="45.88864" lon="4.74221">
        <ele>184.800003052</ele>
        <time>2015-12-09T13:55:30.508Z</time>
      </trkpt>
      <trkpt lat="45.88858" lon="4.74218">
        <ele>185</ele>
        <time>2015-12-09T13:55:31.493Z</time>
      </trkpt>
      <trkpt lat="45.88852" lon="4.74214">
        <ele>184.899993896</ele>
        <time>2015-12-09T13:55:32.508Z</time>
      </trkpt>
      <trkpt lat="45.88846" lon="4.7421">
        <ele>184.699996948</ele>
        <time>2015-12-09T13:55:33.493Z</time>
      </trkpt>
      <trkpt lat="45.8884" lon="4.74207">
        <ele>184.600006104</ele>
        <time>2015-12-09T13:55:34.51Z</time>
      </trkpt>
      <trkpt lat="45.88835" lon="4.74203">
        <ele>184.600006104</ele>
        <time>2015-12-09T13:55:35.493Z</time>
      </trkpt>
      <trkpt lat="45.88829" lon="4.742">
        <ele>184.399993896</ele>
        <time>2015-12-09T13:55:36.509Z</time>
      </trkpt>
      <trkpt lat="45.88823" lon="4.74196">
        <ele>184</ele>
        <time>2015-12-09T13:55:37.493Z</time>
      </trkpt>
      <trkpt lat="45.88817" lon="4.74192">
        <ele>183.899993896</ele>
        <time>2015-12-09T13:55:38.527Z</time>
      </trkpt>
      <trkpt lat="45.8881" lon="4.74189">
        <ele>183.399993896</ele>
        <time>2015-12-09T13:55:39.494Z</time>
      </trkpt>
      <trkpt lat="45.88805" lon="4.74186">
        <ele>183.300003052</ele>
        <time>2015-12-09T13:55:40.51Z</time>
      </trkpt>
      <trkpt lat="45.88798" lon="4.74182">
        <ele>183.399993896</ele>
        <time>2015-12-09T13:55:41.493Z</time>
      </trkpt>
      <trkpt lat="45.88792" lon="4.74179">
        <ele>183.399993896</ele>
        <time>2015-12-09T13:55:42.508Z</time>
      </trkpt>
      <trkpt lat="45.88787" lon="4.74176">
        <ele>183.199996948</ele>
        <time>2015-12-09T13:55:43.493Z</time>
      </trkpt>
      <trkpt lat="45.88781" lon="4.74173">
        <ele>183.199996948</ele>
        <time>2015-12-09T13:55:44.507Z</time>
      </trkpt>
      <trkpt lat="45.88775" lon="4.7417">
        <ele>183.300003052</ele>
        <time>2015-12-09T13:55:45.493Z</time>
      </trkpt>
      <trkpt lat="45.8877" lon="4.74166">
        <ele>183</ele>
        <time>2015-12-09T13:55:46.51Z</time>
      </trkpt>
      <trkpt lat="45.88765" lon="4.74162">
        <ele>183.100006104</ele>
        <time>2015-12-09T13:55:47.493Z</time>
      </trkpt>
      <trkpt lat="45.8876" lon="4.74158">
        <ele>183.399993896</ele>
        <time>2015-12-09T13:55:48.51Z</time>
      </trkpt>
      <trkpt lat="45.88756" lon="4.74152">
        <ele>183.699996948</ele>
        <time>2015-12-09T13:55:49.493Z</time>
      </trkpt>
      <trkpt lat="45.88751" lon="4.74148">
        <ele>184</ele>
        <time>2015-12-09T13:55:50.508Z</time>
      </trkpt>
      <trkpt lat="45.88747" lon="4.74144">
        <ele>184.300003052</ele>
        <time>2015-12-09T13:55:51.493Z</time>
      </trkpt>
      <trkpt lat="45.88741" lon="4.7414">
        <ele>184.5</ele>
        <time>2015-12-09T13:55:52.51Z</time>
      </trkpt>
      <trkpt lat="45.88736" lon="4.74134">
        <ele>184.699996948</ele>
        <time>2015-12-09T13:55:53.493Z</time>
      </trkpt>
      <trkpt lat="45.8873" lon="4.7413">
        <ele>184.699996948</ele>
        <time>2015-12-09T13:55:54.534Z</time>
      </trkpt>
      <trkpt lat="45.88724" lon="4.74124">
        <ele>184.800003052</ele>
        <time>2015-12-09T13:55:55.499Z</time>
      </trkpt>
      <trkpt lat="45.88719" lon="4.74119">
        <ele>185</ele>
        <time>2015-12-09T13:55:56.507Z</time>
      </trkpt>
      <trkpt lat="45.88713" lon="4.74114">
        <ele>185.100006104</ele>
        <time>2015-12-09T13:55:57.493Z</time>
      </trkpt>
      <trkpt lat="45.88707" lon="4.7411">
        <ele>185</ele>
        <time>2015-12-09T13:55:58.511Z</time>
      </trkpt>
      <trkpt lat="45.88701" lon="4.74106">
        <ele>185.100006104</ele>
        <time>2015-12-09T13:55:59.493Z</time>
      </trkpt>
      <trkpt lat="45.88696" lon="4.74104">
        <ele>185.199996948</ele>
        <time>2015-12-09T13:56:00.508Z</time>
      </trkpt>
      <trkpt lat="45.88692" lon="4.74103">
        <ele>185.300003052</ele>
        <time>2015-12-09T13:56:01.493Z</time>
      </trkpt>
      <trkpt lat="45.88685" lon="4.74102">
        <ele>185.699996948</ele>
        <time>2015-12-09T13:56:07.507Z</time>
      </trkpt>
      <trkpt lat="45.88685" lon="4.74102">
        <ele>185.600006104</ele>
        <time>2015-12-09T13:56:08.493Z</time>
      </trkpt>
      <trkpt lat="45.88683" lon="4.741">
        <ele>185.800003052</ele>
        <time>2015-12-09T13:56:10.53Z</time>
      </trkpt>
      <trkpt lat="45.88683" lon="4.74098">
        <ele>185.800003052</ele>
        <time>2015-12-09T13:56:11.495Z</time>
      </trkpt>
      <trkpt lat="45.8868" lon="4.74086">
        <ele>185.600006104</ele>
        <time>2015-12-09T13:56:14.507Z</time>
      </trkpt>
      <trkpt lat="45.88679" lon="4.74081">
        <ele>186</ele>
        <time>2015-12-09T13:56:15.493Z</time>
      </trkpt>
      <trkpt lat="45.88674" lon="4.7407">
        <ele>186.100006104</ele>
        <time>2015-12-09T13:56:17.507Z</time>
      </trkpt>
      <trkpt lat="45.88671" lon="4.74064">
        <ele>186.399993896</ele>
        <time>2015-12-09T13:56:18.494Z</time>
      </trkpt>
      <trkpt lat="45.88668" lon="4.74057">
        <ele>186.5</ele>
        <time>2015-12-09T13:56:19.507Z</time>
      </trkpt>
      <trkpt lat="45.88666" lon="4.7405">
        <ele>186.899993896</ele>
        <time>2015-12-09T13:56:20.495Z</time>
      </trkpt>
      <trkpt lat="45.88664" lon="4.74042">
        <ele>187.100006104</ele>
        <time>2015-12-09T13:56:21.509Z</time>
      </trkpt>
      <trkpt lat="45.88663" lon="4.74035">
        <ele>187.399993896</ele>
        <time>2015-12-09T13:56:22.497Z</time>
      </trkpt>
      <trkpt lat="45.88661" lon="4.74026">
        <ele>187.600006104</ele>
        <time>2015-12-09T13:56:23.508Z</time>
      </trkpt>
      <trkpt lat="45.88658" lon="4.74018">
        <ele>187.699996948</ele>
        <time>2015-12-09T13:56:24.494Z</time>
      </trkpt>
      <trkpt lat="45.88656" lon="4.74009">
        <ele>187.899993896</ele>
        <time>2015-12-09T13:56:25.507Z</time>
      </trkpt>
      <trkpt lat="45.88654" lon="4.74">
        <ele>188</ele>
        <time>2015-12-09T13:56:26.507Z</time>
      </trkpt>
      <trkpt lat="45.88654" lon="4.7399">
        <ele>187.800003052</ele>
        <time>2015-12-09T13:56:27.507Z</time>
      </trkpt>
      <trkpt lat="45.88652" lon="4.73981">
        <ele>187.600006104</ele>
        <time>2015-12-09T13:56:28.496Z</time>
      </trkpt>
      <trkpt lat="45.88651" lon="4.73972">
        <ele>187.399993896</ele>
        <time>2015-12-09T13:56:29.507Z</time>
      </trkpt>
      <trkpt lat="45.8865" lon="4.73962">
        <ele>186.899993896</ele>
        <time>2015-12-09T13:56:30.493Z</time>
      </trkpt>
      <trkpt lat="45.88649" lon="4.73952">
        <ele>186.5</ele>
        <time>2015-12-09T13:56:31.508Z</time>
      </trkpt>
      <trkpt lat="45.88648" lon="4.73942">
        <ele>186.100006104</ele>
        <time>2015-12-09T13:56:32.493Z</time>
      </trkpt>
      <trkpt lat="45.88648" lon="4.73933">
        <ele>185.699996948</ele>
        <time>2015-12-09T13:56:33.507Z</time>
      </trkpt>
      <trkpt lat="45.88647" lon="4.73924">
        <ele>185.600006104</ele>
        <time>2015-12-09T13:56:34.496Z</time>
      </trkpt>
      <trkpt lat="45.88647" lon="4.73915">
        <ele>185</ele>
        <time>2015-12-09T13:56:35.507Z</time>
      </trkpt>
      <trkpt lat="45.88647" lon="4.73906">
        <ele>185.100006104</ele>
        <time>2015-12-09T13:56:36.494Z</time>
      </trkpt>
      <trkpt lat="45.88647" lon="4.73898">
        <ele>184.699996948</ele>
        <time>2015-12-09T13:56:37.507Z</time>
      </trkpt>
      <trkpt lat="45.88647" lon="4.73889">
        <ele>184.5</ele>
        <time>2015-12-09T13:56:38.493Z</time>
      </trkpt>
      <trkpt lat="45.88647" lon="4.73881">
        <ele>184.100006104</ele>
        <time>2015-12-09T13:56:39.507Z</time>
      </trkpt>
      <trkpt lat="45.88647" lon="4.73872">
        <ele>184.100006104</ele>
        <time>2015-12-09T13:56:40.495Z</time>
      </trkpt>
      <trkpt lat="45.88647" lon="4.73863">
        <ele>184.5</ele>
        <time>2015-12-09T13:56:41.507Z</time>
      </trkpt>
      <trkpt lat="45.88647" lon="4.73855">
        <ele>184.399993896</ele>
        <time>2015-12-09T13:56:42.494Z</time>
      </trkpt>
      <trkpt lat="45.88647" lon="4.73846">
        <ele>184.399993896</ele>
        <time>2015-12-09T13:56:43.507Z</time>
      </trkpt>
      <trkpt lat="45.88648" lon="4.73838">
        <ele>184.600006104</ele>
        <time>2015-12-09T13:56:44.493Z</time>
      </trkpt>
      <trkpt lat="45.88648" lon="4.73829">
        <ele>184.800003052</ele>
        <time>2015-12-09T13:56:45.507Z</time>
      </trkpt>
      <trkpt lat="45.88649" lon="4.73821">
        <ele>184.699996948</ele>
        <time>2015-12-09T13:56:46.496Z</time>
      </trkpt>
      <trkpt lat="45.8865" lon="4.73812">
        <ele>184.800003052</ele>
        <time>2015-12-09T13:56:47.522Z</time>
      </trkpt>
      <trkpt lat="45.8865" lon="4.73804">
        <ele>184.699996948</ele>
        <time>2015-12-09T13:56:48.494Z</time>
      </trkpt>
      <trkpt lat="45.88651" lon="4.73796">
        <ele>185</ele>
        <time>2015-12-09T13:56:49.507Z</time>
      </trkpt>
      <trkpt lat="45.88651" lon="4.73788">
        <ele>185.199996948</ele>
        <time>2015-12-09T13:56:50.533Z</time>
      </trkpt>
      <trkpt lat="45.8865" lon="4.7378">
        <ele>185.399993896</ele>
        <time>2015-12-09T13:56:51.54Z</time>
      </trkpt>
      <trkpt lat="45.8865" lon="4.73773">
        <ele>185.699996948</ele>
        <time>2015-12-09T13:56:52.496Z</time>
      </trkpt>
      <trkpt lat="45.88649" lon="4.73765">
        <ele>185.899993896</ele>
        <time>2015-12-09T13:56:53.507Z</time>
      </trkpt>
      <trkpt lat="45.8865" lon="4.73758">
        <ele>186</ele>
        <time>2015-12-09T13:56:54.494Z</time>
      </trkpt>
      <trkpt lat="45.8865" lon="4.73751">
        <ele>186.300003052</ele>
        <time>2015-12-09T13:56:55.507Z</time>
      </trkpt>
      <trkpt lat="45.8865" lon="4.73744">
        <ele>187.199996948</ele>
        <time>2015-12-09T13:56:56.493Z</time>
      </trkpt>
      <trkpt lat="45.88651" lon="4.73737">
        <ele>187.199996948</ele>
        <time>2015-12-09T13:56:57.507Z</time>
      </trkpt>
      <trkpt lat="45.88651" lon="4.73731">
        <ele>187.399993896</ele>
        <time>2015-12-09T13:56:58.495Z</time>
      </trkpt>
      <trkpt lat="45.88651" lon="4.73724">
        <ele>187.5</ele>
        <time>2015-12-09T13:56:59.507Z</time>
      </trkpt>
      <trkpt lat="45.88651" lon="4.73717">
        <ele>187.600006104</ele>
        <time>2015-12-09T13:57:00.494Z</time>
      </trkpt>
      <trkpt lat="45.88652" lon="4.73705">
        <ele>187.600006104</ele>
        <time>2015-12-09T13:57:02.508Z</time>
      </trkpt>
      <trkpt lat="45.88653" lon="4.73699">
        <ele>187.899993896</ele>
        <time>2015-12-09T13:57:03.493Z</time>
      </trkpt>
      <trkpt lat="45.88653" lon="4.73687">
        <ele>188.600006104</ele>
        <time>2015-12-09T13:57:05.507Z</time>
      </trkpt>
      <trkpt lat="45.88653" lon="4.7368">
        <ele>188.800003052</ele>
        <time>2015-12-09T13:57:06.494Z</time>
      </trkpt>
      <trkpt lat="45.88653" lon="4.73674">
        <ele>188.600006104</ele>
        <time>2015-12-09T13:57:07.507Z</time>
      </trkpt>
      <trkpt lat="45.88653" lon="4.73667">
        <ele>188.199996948</ele>
        <time>2015-12-09T13:57:08.493Z</time>
      </trkpt>
      <trkpt lat="45.88653" lon="4.7366">
        <ele>188.100006104</ele>
        <time>2015-12-09T13:57:09.507Z</time>
      </trkpt>
      <trkpt lat="45.88653" lon="4.73653">
        <ele>188.199996948</ele>
        <time>2015-12-09T13:57:10.496Z</time>
      </trkpt>
      <trkpt lat="45.88653" lon="4.73645">
        <ele>187.899993896</ele>
        <time>2015-12-09T13:57:11.51Z</time>
      </trkpt>
      <trkpt lat="45.88654" lon="4.73637">
        <ele>187.899993896</ele>
        <time>2015-12-09T13:57:12.494Z</time>
      </trkpt>
      <trkpt lat="45.88654" lon="4.7363">
        <ele>188.100006104</ele>
        <time>2015-12-09T13:57:13.507Z</time>
      </trkpt>
      <trkpt lat="45.88653" lon="4.73622">
        <ele>188</ele>
        <time>2015-12-09T13:57:14.508Z</time>
      </trkpt>
      <trkpt lat="45.88654" lon="4.73614">
        <ele>187.5</ele>
        <time>2015-12-09T13:57:15.507Z</time>
      </trkpt>
      <trkpt lat="45.88654" lon="4.73605">
        <ele>187.399993896</ele>
        <time>2015-12-09T13:57:16.495Z</time>
      </trkpt>
      <trkpt lat="45.88654" lon="4.73596">
        <ele>186.899993896</ele>
        <time>2015-12-09T13:57:17.508Z</time>
      </trkpt>
      <trkpt lat="45.88654" lon="4.73587">
        <ele>186.600006104</ele>
        <time>2015-12-09T13:57:18.494Z</time>
      </trkpt>
      <trkpt lat="45.88654" lon="4.73578">
        <ele>186.199996948</ele>
        <time>2015-12-09T13:57:19.507Z</time>
      </trkpt>
      <trkpt lat="45.88654" lon="4.73569">
        <ele>185.699996948</ele>
        <time>2015-12-09T13:57:20.493Z</time>
      </trkpt>
      <trkpt lat="45.88654" lon="4.73559">
        <ele>185.199996948</ele>
        <time>2015-12-09T13:57:21.507Z</time>
      </trkpt>
      <trkpt lat="45.88654" lon="4.73549">
        <ele>184.399993896</ele>
        <time>2015-12-09T13:57:22.623Z</time>
      </trkpt>
      <trkpt lat="45.88654" lon="4.73538">
        <ele>184.100006104</ele>
        <time>2015-12-09T13:57:23.507Z</time>
      </trkpt>
      <trkpt lat="45.88655" lon="4.73527">
        <ele>183.600006104</ele>
        <time>2015-12-09T13:57:24.494Z</time>
      </trkpt>
      <trkpt lat="45.88657" lon="4.73516">
        <ele>183.199996948</ele>
        <time>2015-12-09T13:57:25.522Z</time>
      </trkpt>
      <trkpt lat="45.8866" lon="4.73506">
        <ele>182.699996948</ele>
        <time>2015-12-09T13:57:26.493Z</time>
      </trkpt>
      <trkpt lat="45.88663" lon="4.73498">
        <ele>182</ele>
        <time>2015-12-09T13:57:27.507Z</time>
      </trkpt>
      <trkpt lat="45.88665" lon="4.73492">
        <ele>181.5</ele>
        <time>2015-12-09T13:57:28.496Z</time>
      </trkpt>
      <trkpt lat="45.88669" lon="4.73484">
        <ele>180.899993896</ele>
        <time>2015-12-09T13:57:30.507Z</time>
      </trkpt>
      <trkpt lat="45.8867" lon="4.73481">
        <ele>180.800003052</ele>
        <time>2015-12-09T13:57:31.493Z</time>
      </trkpt>
      <trkpt lat="45.8867" lon="4.73472">
        <ele>181.100006104</ele>
        <time>2015-12-09T13:57:33.508Z</time>
      </trkpt>
      <trkpt lat="45.88669" lon="4.73468">
        <ele>180.800003052</ele>
        <time>2015-12-09T13:57:34.496Z</time>
      </trkpt>
      <trkpt lat="45.88663" lon="4.73459">
        <ele>180.800003052</ele>
        <time>2015-12-09T13:57:36.523Z</time>
      </trkpt>
      <trkpt lat="45.88661" lon="4.73454">
        <ele>180.899993896</ele>
        <time>2015-12-09T13:57:37.493Z</time>
      </trkpt>
      <trkpt lat="45.8866" lon="4.73442">
        <ele>181</ele>
        <time>2015-12-09T13:57:39.507Z</time>
      </trkpt>
      <trkpt lat="45.88659" lon="4.73435">
        <ele>180.899993896</ele>
        <time>2015-12-09T13:57:40.496Z</time>
      </trkpt>
      <trkpt lat="45.88658" lon="4.73427">
        <ele>181</ele>
        <time>2015-12-09T13:57:41.507Z</time>
      </trkpt>
      <trkpt lat="45.88657" lon="4.7342">
        <ele>180.899993896</ele>
        <time>2015-12-09T13:57:42.494Z</time>
      </trkpt>
      <trkpt lat="45.88655" lon="4.73412">
        <ele>181</ele>
        <time>2015-12-09T13:57:43.507Z</time>
      </trkpt>
      <trkpt lat="45.88653" lon="4.73405">
        <ele>180.899993896</ele>
        <time>2015-12-09T13:57:44.493Z</time>
      </trkpt>
      <trkpt lat="45.8865" lon="4.73397">
        <ele>179.399993896</ele>
        <time>2015-12-09T13:57:45.508Z</time>
      </trkpt>
      <trkpt lat="45.88647" lon="4.73392">
        <ele>179</ele>
        <time>2015-12-09T13:57:46.496Z</time>
      </trkpt>
      <trkpt lat="45.88642" lon="4.73388">
        <ele>178.800003052</ele>
        <time>2015-12-09T13:57:47.52Z</time>
      </trkpt>
      <trkpt lat="45.88637" lon="4.73384">
        <ele>178.5</ele>
        <time>2015-12-09T13:57:48.495Z</time>
      </trkpt>
      <trkpt lat="45.88632" lon="4.73383">
        <ele>178.100006104</ele>
        <time>2015-12-09T13:57:49.505Z</time>
      </trkpt>
      <trkpt lat="45.88625" lon="4.73385">
        <ele>177.699996948</ele>
        <time>2015-12-09T13:57:50.493Z</time>
      </trkpt>
      <trkpt lat="45.88618" lon="4.73386">
        <ele>177.300003052</ele>
        <time>2015-12-09T13:57:51.508Z</time>
      </trkpt>
      <trkpt lat="45.88609" lon="4.73386">
        <ele>177</ele>
        <time>2015-12-09T13:57:52.496Z</time>
      </trkpt>
      <trkpt lat="45.88603" lon="4.73387">
        <ele>176.699996948</ele>
        <time>2015-12-09T13:57:53.508Z</time>
      </trkpt>
      <trkpt lat="45.88597" lon="4.73389">
        <ele>176.300003052</ele>
        <time>2015-12-09T13:57:54.494Z</time>
      </trkpt>
      <trkpt lat="45.88591" lon="4.7339">
        <ele>176.5</ele>
        <time>2015-12-09T13:57:55.508Z</time>
      </trkpt>
      <trkpt lat="45.88585" lon="4.73392">
        <ele>176.800003052</ele>
        <time>2015-12-09T13:57:56.493Z</time>
      </trkpt>
      <trkpt lat="45.8858" lon="4.73393">
        <ele>177</ele>
        <time>2015-12-09T13:57:57.508Z</time>
      </trkpt>
      <trkpt lat="45.88575" lon="4.73395">
        <ele>177.100006104</ele>
        <time>2015-12-09T13:57:58.495Z</time>
      </trkpt>
      <trkpt lat="45.8857" lon="4.73397">
        <ele>177.199996948</ele>
        <time>2015-12-09T13:57:59.525Z</time>
      </trkpt>
      <trkpt lat="45.88565" lon="4.73398">
        <ele>177.199996948</ele>
        <time>2015-12-09T13:58:00.494Z</time>
      </trkpt>
      <trkpt lat="45.88559" lon="4.73399">
        <ele>177.300003052</ele>
        <time>2015-12-09T13:58:01.633Z</time>
      </trkpt>
      <trkpt lat="45.88554" lon="4.73401">
        <ele>177.100006104</ele>
        <time>2015-12-09T13:58:02.493Z</time>
      </trkpt>
      <trkpt lat="45.88549" lon="4.73402">
        <ele>177.399993896</ele>
        <time>2015-12-09T13:58:03.521Z</time>
      </trkpt>
      <trkpt lat="45.88544" lon="4.73404">
        <ele>177.300003052</ele>
        <time>2015-12-09T13:58:04.496Z</time>
      </trkpt>
      <trkpt lat="45.88538" lon="4.73406">
        <ele>177.300003052</ele>
        <time>2015-12-09T13:58:05.507Z</time>
      </trkpt>
      <trkpt lat="45.88533" lon="4.73408">
        <ele>177.399993896</ele>
        <time>2015-12-09T13:58:06.494Z</time>
      </trkpt>
      <trkpt lat="45.88527" lon="4.7341">
        <ele>177.5</ele>
        <time>2015-12-09T13:58:07.507Z</time>
      </trkpt>
      <trkpt lat="45.88521" lon="4.73412">
        <ele>177.600006104</ele>
        <time>2015-12-09T13:58:08.493Z</time>
      </trkpt>
      <trkpt lat="45.88516" lon="4.73414">
        <ele>178</ele>
        <time>2015-12-09T13:58:09.507Z</time>
      </trkpt>
      <trkpt lat="45.8851" lon="4.73415">
        <ele>177.899993896</ele>
        <time>2015-12-09T13:58:10.496Z</time>
      </trkpt>
      <trkpt lat="45.88504" lon="4.73417">
        <ele>178</ele>
        <time>2015-12-09T13:58:11.51Z</time>
      </trkpt>
      <trkpt lat="45.88498" lon="4.73418">
        <ele>178.199996948</ele>
        <time>2015-12-09T13:58:12.494Z</time>
      </trkpt>
      <trkpt lat="45.88492" lon="4.7342">
        <ele>178.199996948</ele>
        <time>2015-12-09T13:58:13.507Z</time>
      </trkpt>
      <trkpt lat="45.88486" lon="4.73421">
        <ele>178.399993896</ele>
        <time>2015-12-09T13:58:14.493Z</time>
      </trkpt>
      <trkpt lat="45.8848" lon="4.73422">
        <ele>178.300003052</ele>
        <time>2015-12-09T13:58:15.507Z</time>
      </trkpt>
      <trkpt lat="45.88475" lon="4.73424">
        <ele>178.600006104</ele>
        <time>2015-12-09T13:58:16.496Z</time>
      </trkpt>
      <trkpt lat="45.88469" lon="4.73426">
        <ele>178.399993896</ele>
        <time>2015-12-09T13:58:17.513Z</time>
      </trkpt>
      <trkpt lat="45.88463" lon="4.73428">
        <ele>178.399993896</ele>
        <time>2015-12-09T13:58:18.494Z</time>
      </trkpt>
      <trkpt lat="45.88458" lon="4.7343">
        <ele>178.300003052</ele>
        <time>2015-12-09T13:58:19.531Z</time>
      </trkpt>
      <trkpt lat="45.88452" lon="4.73431">
        <ele>178.300003052</ele>
        <time>2015-12-09T13:58:20.493Z</time>
      </trkpt>
      <trkpt lat="45.88446" lon="4.73433">
        <ele>178.100006104</ele>
        <time>2015-12-09T13:58:21.507Z</time>
      </trkpt>
      <trkpt lat="45.88441" lon="4.73435">
        <ele>177.899993896</ele>
        <time>2015-12-09T13:58:22.496Z</time>
      </trkpt>
      <trkpt lat="45.88435" lon="4.73437">
        <ele>177.899993896</ele>
        <time>2015-12-09T13:58:23.507Z</time>
      </trkpt>
      <trkpt lat="45.88429" lon="4.73439">
        <ele>178.100006104</ele>
        <time>2015-12-09T13:58:24.493Z</time>
      </trkpt>
      <trkpt lat="45.88422" lon="4.73441">
        <ele>178.100006104</ele>
        <time>2015-12-09T13:58:25.507Z</time>
      </trkpt>
      <trkpt lat="45.88416" lon="4.73443">
        <ele>178</ele>
        <time>2015-12-09T13:58:26.493Z</time>
      </trkpt>
      <trkpt lat="45.8841" lon="4.73444">
        <ele>178.100006104</ele>
        <time>2015-12-09T13:58:27.507Z</time>
      </trkpt>
      <trkpt lat="45.88404" lon="4.73446">
        <ele>178.199996948</ele>
        <time>2015-12-09T13:58:28.496Z</time>
      </trkpt>
      <trkpt lat="45.88398" lon="4.73448">
        <ele>178.100006104</ele>
        <time>2015-12-09T13:58:29.507Z</time>
      </trkpt>
      <trkpt lat="45.88392" lon="4.7345">
        <ele>178.399993896</ele>
        <time>2015-12-09T13:58:30.494Z</time>
      </trkpt>
      <trkpt lat="45.88386" lon="4.73452">
        <ele>178.699996948</ele>
        <time>2015-12-09T13:58:31.507Z</time>
      </trkpt>
      <trkpt lat="45.88381" lon="4.73453">
        <ele>179</ele>
        <time>2015-12-09T13:58:32.493Z</time>
      </trkpt>
      <trkpt lat="45.88375" lon="4.73454">
        <ele>179.100006104</ele>
        <time>2015-12-09T13:58:33.507Z</time>
      </trkpt>
      <trkpt lat="45.88369" lon="4.73456">
        <ele>179</ele>
        <time>2015-12-09T13:58:34.497Z</time>
      </trkpt>
      <trkpt lat="45.88363" lon="4.73457">
        <ele>179.300003052</ele>
        <time>2015-12-09T13:58:35.521Z</time>
      </trkpt>
      <trkpt lat="45.88357" lon="4.73459">
        <ele>179.399993896</ele>
        <time>2015-12-09T13:58:36.494Z</time>
      </trkpt>
      <trkpt lat="45.88352" lon="4.73461">
        <ele>179.399993896</ele>
        <time>2015-12-09T13:58:37.507Z</time>
      </trkpt>
      <trkpt lat="45.88346" lon="4.73462">
        <ele>179.399993896</ele>
        <time>2015-12-09T13:58:38.493Z</time>
      </trkpt>
      <trkpt lat="45.8834" lon="4.73464">
        <ele>179.100006104</ele>
        <time>2015-12-09T13:58:39.507Z</time>
      </trkpt>
      <trkpt lat="45.88334" lon="4.73465">
        <ele>179.100006104</ele>
        <time>2015-12-09T13:58:40.496Z</time>
      </trkpt>
      <trkpt lat="45.88327" lon="4.73467">
        <ele>179.199996948</ele>
        <time>2015-12-09T13:58:41.507Z</time>
      </trkpt>
      <trkpt lat="45.88321" lon="4.73469">
        <ele>179.399993896</ele>
        <time>2015-12-09T13:58:42.494Z</time>
      </trkpt>
      <trkpt lat="45.88315" lon="4.73471">
        <ele>179.600006104</ele>
        <time>2015-12-09T13:58:43.507Z</time>
      </trkpt>
      <trkpt lat="45.88309" lon="4.73473">
        <ele>179.5</ele>
        <time>2015-12-09T13:58:44.493Z</time>
      </trkpt>
      <trkpt lat="45.88303" lon="4.73476">
        <ele>179.600006104</ele>
        <time>2015-12-09T13:58:45.539Z</time>
      </trkpt>
      <trkpt lat="45.88297" lon="4.73479">
        <ele>179.600006104</ele>
        <time>2015-12-09T13:58:46.496Z</time>
      </trkpt>
      <trkpt lat="45.88291" lon="4.73482">
        <ele>179.5</ele>
        <time>2015-12-09T13:58:47.506Z</time>
      </trkpt>
      <trkpt lat="45.88285" lon="4.73485">
        <ele>179.399993896</ele>
        <time>2015-12-09T13:58:48.494Z</time>
      </trkpt>
      <trkpt lat="45.88279" lon="4.73489">
        <ele>179.5</ele>
        <time>2015-12-09T13:58:49.507Z</time>
      </trkpt>
      <trkpt lat="45.88274" lon="4.73493">
        <ele>179.399993896</ele>
        <time>2015-12-09T13:58:50.493Z</time>
      </trkpt>
      <trkpt lat="45.88269" lon="4.73496">
        <ele>179.600006104</ele>
        <time>2015-12-09T13:58:51.522Z</time>
      </trkpt>
      <trkpt lat="45.88263" lon="4.73499">
        <ele>179.600006104</ele>
        <time>2015-12-09T13:58:52.496Z</time>
      </trkpt>
      <trkpt lat="45.88258" lon="4.73502">
        <ele>179.5</ele>
        <time>2015-12-09T13:58:53.507Z</time>
      </trkpt>
      <trkpt lat="45.88253" lon="4.73506">
        <ele>179.699996948</ele>
        <time>2015-12-09T13:58:54.494Z</time>
      </trkpt>
      <trkpt lat="45.88248" lon="4.7351">
        <ele>179.899993896</ele>
        <time>2015-12-09T13:58:55.539Z</time>
      </trkpt>
      <trkpt lat="45.88243" lon="4.73514">
        <ele>180.199996948</ele>
        <time>2015-12-09T13:58:56.493Z</time>
      </trkpt>
      <trkpt lat="45.88237" lon="4.73517">
        <ele>180.300003052</ele>
        <time>2015-12-09T13:58:57.507Z</time>
      </trkpt>
      <trkpt lat="45.88232" lon="4.7352">
        <ele>180.399993896</ele>
        <time>2015-12-09T13:58:58.496Z</time>
      </trkpt>
      <trkpt lat="45.88227" lon="4.73523">
        <ele>180.300003052</ele>
        <time>2015-12-09T13:58:59.507Z</time>
      </trkpt>
      <trkpt lat="45.88222" lon="4.73527">
        <ele>180.5</ele>
        <time>2015-12-09T13:59:00.494Z</time>
      </trkpt>
      <trkpt lat="45.88217" lon="4.7353">
        <ele>180.600006104</ele>
        <time>2015-12-09T13:59:01.507Z</time>
      </trkpt>
      <trkpt lat="45.88211" lon="4.73533">
        <ele>180.699996948</ele>
        <time>2015-12-09T13:59:02.493Z</time>
      </trkpt>
      <trkpt lat="45.88206" lon="4.73537">
        <ele>180.5</ele>
        <time>2015-12-09T13:59:03.507Z</time>
      </trkpt>
      <trkpt lat="45.882" lon="4.7354">
        <ele>180.699996948</ele>
        <time>2015-12-09T13:59:04.496Z</time>
      </trkpt>
      <trkpt lat="45.88195" lon="4.73544">
        <ele>180.899993896</ele>
        <time>2015-12-09T13:59:05.511Z</time>
      </trkpt>
      <trkpt lat="45.88189" lon="4.73547">
        <ele>181.100006104</ele>
        <time>2015-12-09T13:59:06.493Z</time>
      </trkpt>
      <trkpt lat="45.88184" lon="4.73551">
        <ele>181</ele>
        <time>2015-12-09T13:59:07.522Z</time>
      </trkpt>
      <trkpt lat="45.88178" lon="4.73555">
        <ele>181.100006104</ele>
        <time>2015-12-09T13:59:08.493Z</time>
      </trkpt>
      <trkpt lat="45.88173" lon="4.73559">
        <ele>181</ele>
        <time>2015-12-09T13:59:09.507Z</time>
      </trkpt>
      <trkpt lat="45.88167" lon="4.73563">
        <ele>181.100006104</ele>
        <time>2015-12-09T13:59:10.496Z</time>
      </trkpt>
      <trkpt lat="45.88162" lon="4.73566">
        <ele>181.100006104</ele>
        <time>2015-12-09T13:59:11.51Z</time>
      </trkpt>
      <trkpt lat="45.88156" lon="4.73569">
        <ele>181.199996948</ele>
        <time>2015-12-09T13:59:12.494Z</time>
      </trkpt>
      <trkpt lat="45.88151" lon="4.73573">
        <ele>181.100006104</ele>
        <time>2015-12-09T13:59:13.507Z</time>
      </trkpt>
      <trkpt lat="45.88147" lon="4.73576">
        <ele>181.300003052</ele>
        <time>2015-12-09T13:59:14.493Z</time>
      </trkpt>
      <trkpt lat="45.88141" lon="4.73579">
        <ele>181.399993896</ele>
        <time>2015-12-09T13:59:15.507Z</time>
      </trkpt>
      <trkpt lat="45.88136" lon="4.73582">
        <ele>181.399993896</ele>
        <time>2015-12-09T13:59:16.496Z</time>
      </trkpt>
      <trkpt lat="45.88131" lon="4.73585">
        <ele>181.399993896</ele>
        <time>2015-12-09T13:59:17.507Z</time>
      </trkpt>
      <trkpt lat="45.88126" lon="4.73589">
        <ele>181.300003052</ele>
        <time>2015-12-09T13:59:18.494Z</time>
      </trkpt>
      <trkpt lat="45.88121" lon="4.73592">
        <ele>181.300003052</ele>
        <time>2015-12-09T13:59:19.507Z</time>
      </trkpt>
      <trkpt lat="45.88116" lon="4.73595">
        <ele>181.600006104</ele>
        <time>2015-12-09T13:59:20.493Z</time>
      </trkpt>
      <trkpt lat="45.88111" lon="4.73599">
        <ele>181.399993896</ele>
        <time>2015-12-09T13:59:21.507Z</time>
      </trkpt>
      <trkpt lat="45.88105" lon="4.73602">
        <ele>181.399993896</ele>
        <time>2015-12-09T13:59:22.495Z</time>
      </trkpt>
      <trkpt lat="45.881" lon="4.73606">
        <ele>181.600006104</ele>
        <time>2015-12-09T13:59:23.522Z</time>
      </trkpt>
      <trkpt lat="45.88095" lon="4.73609">
        <ele>181.5</ele>
        <time>2015-12-09T13:59:24.494Z</time>
      </trkpt>
      <trkpt lat="45.8809" lon="4.73613">
        <ele>181.5</ele>
        <time>2015-12-09T13:59:25.507Z</time>
      </trkpt>
      <trkpt lat="45.88085" lon="4.73617">
        <ele>181.699996948</ele>
        <time>2015-12-09T13:59:26.493Z</time>
      </trkpt>
      <trkpt lat="45.8808" lon="4.73621">
        <ele>181.699996948</ele>
        <time>2015-12-09T13:59:27.507Z</time>
      </trkpt>
      <trkpt lat="45.88074" lon="4.73624">
        <ele>181.5</ele>
        <time>2015-12-09T13:59:28.495Z</time>
      </trkpt>
      <trkpt lat="45.88068" lon="4.73627">
        <ele>181.699996948</ele>
        <time>2015-12-09T13:59:29.507Z</time>
      </trkpt>
      <trkpt lat="45.88063" lon="4.73631">
        <ele>181.800003052</ele>
        <time>2015-12-09T13:59:30.494Z</time>
      </trkpt>
      <trkpt lat="45.88057" lon="4.73634">
        <ele>181.600006104</ele>
        <time>2015-12-09T13:59:31.507Z</time>
      </trkpt>
      <trkpt lat="45.88051" lon="4.73638">
        <ele>181</ele>
        <time>2015-12-09T13:59:32.493Z</time>
      </trkpt>
      <trkpt lat="45.88046" lon="4.73641">
        <ele>180.800003052</ele>
        <time>2015-12-09T13:59:33.507Z</time>
      </trkpt>
      <trkpt lat="45.8804" lon="4.73645">
        <ele>181.100006104</ele>
        <time>2015-12-09T13:59:34.496Z</time>
      </trkpt>
      <trkpt lat="45.88034" lon="4.73648">
        <ele>181.399993896</ele>
        <time>2015-12-09T13:59:35.507Z</time>
      </trkpt>
      <trkpt lat="45.88029" lon="4.73651">
        <ele>181.399993896</ele>
        <time>2015-12-09T13:59:36.493Z</time>
      </trkpt>
      <trkpt lat="45.88023" lon="4.73653">
        <ele>181.399993896</ele>
        <time>2015-12-09T13:59:37.507Z</time>
      </trkpt>
      <trkpt lat="45.88018" lon="4.73654">
        <ele>181.300003052</ele>
        <time>2015-12-09T13:59:38.493Z</time>
      </trkpt>
      <trkpt lat="45.88012" lon="4.73653">
        <ele>181.199996948</ele>
        <time>2015-12-09T13:59:39.523Z</time>
      </trkpt>
      <trkpt lat="45.88006" lon="4.73652">
        <ele>181.199996948</ele>
        <time>2015-12-09T13:59:40.496Z</time>
      </trkpt>
      <trkpt lat="45.88001" lon="4.7365">
        <ele>181.100006104</ele>
        <time>2015-12-09T13:59:41.507Z</time>
      </trkpt>
      <trkpt lat="45.87995" lon="4.73649">
        <ele>180.899993896</ele>
        <time>2015-12-09T13:59:42.493Z</time>
      </trkpt>
      <trkpt lat="45.87988" lon="4.73646">
        <ele>180.600006104</ele>
        <time>2015-12-09T13:59:43.507Z</time>
      </trkpt>
      <trkpt lat="45.87982" lon="4.73644">
        <ele>180.399993896</ele>
        <time>2015-12-09T13:59:44.493Z</time>
      </trkpt>
      <trkpt lat="45.87976" lon="4.73643">
        <ele>180.199996948</ele>
        <time>2015-12-09T13:59:45.507Z</time>
      </trkpt>
      <trkpt lat="45.87969" lon="4.73641">
        <ele>180</ele>
        <time>2015-12-09T13:59:46.496Z</time>
      </trkpt>
      <trkpt lat="45.87963" lon="4.73639">
        <ele>179.699996948</ele>
        <time>2015-12-09T13:59:47.507Z</time>
      </trkpt>
      <trkpt lat="45.87957" lon="4.73638">
        <ele>179.600006104</ele>
        <time>2015-12-09T13:59:48.493Z</time>
      </trkpt>
      <trkpt lat="45.8795" lon="4.73636">
        <ele>179.399993896</ele>
        <time>2015-12-09T13:59:49.507Z</time>
      </trkpt>
      <trkpt lat="45.87943" lon="4.73634">
        <ele>179.5</ele>
        <time>2015-12-09T13:59:50.506Z</time>
      </trkpt>
      <trkpt lat="45.87937" lon="4.73632">
        <ele>179.399993896</ele>
        <time>2015-12-09T13:59:51.507Z</time>
      </trkpt>
      <trkpt lat="45.87932" lon="4.7363">
        <ele>179.399993896</ele>
        <time>2015-12-09T13:59:52.495Z</time>
      </trkpt>
      <trkpt lat="45.87925" lon="4.73628">
        <ele>179.600006104</ele>
        <time>2015-12-09T13:59:53.507Z</time>
      </trkpt>
      <trkpt lat="45.87919" lon="4.73626">
        <ele>179.600006104</ele>
        <time>2015-12-09T13:59:54.494Z</time>
      </trkpt>
      <trkpt lat="45.87914" lon="4.73624">
        <ele>179.699996948</ele>
        <time>2015-12-09T13:59:55.507Z</time>
      </trkpt>
      <trkpt lat="45.87908" lon="4.73621">
        <ele>180.199996948</ele>
        <time>2015-12-09T13:59:56.493Z</time>
      </trkpt>
      <trkpt lat="45.87902" lon="4.7362">
        <ele>180.399993896</ele>
        <time>2015-12-09T13:59:57.507Z</time>
      </trkpt>
      <trkpt lat="45.87897" lon="4.73618">
        <ele>180.600006104</ele>
        <time>2015-12-09T13:59:58.496Z</time>
      </trkpt>
      <trkpt lat="45.87891" lon="4.73616">
        <ele>180.600006104</ele>
        <time>2015-12-09T13:59:59.507Z</time>
      </trkpt>
      <trkpt lat="45.87886" lon="4.73614">
        <ele>180.5</ele>
        <time>2015-12-09T14:00:00.498Z</time>
      </trkpt>
      <trkpt lat="45.8788" lon="4.73614">
        <ele>180.600006104</ele>
        <time>2015-12-09T14:00:01.537Z</time>
      </trkpt>
      <trkpt lat="45.87874" lon="4.73614">
        <ele>180.699996948</ele>
        <time>2015-12-09T14:00:02.496Z</time>
      </trkpt>
      <trkpt lat="45.8787" lon="4.73615">
        <ele>180.800003052</ele>
        <time>2015-12-09T14:00:03.507Z</time>
      </trkpt>
      <trkpt lat="45.87865" lon="4.73618">
        <ele>180.800003052</ele>
        <time>2015-12-09T14:00:04.495Z</time>
      </trkpt>
      <trkpt lat="45.8786" lon="4.73621">
        <ele>180.899993896</ele>
        <time>2015-12-09T14:00:05.508Z</time>
      </trkpt>
      <trkpt lat="45.87856" lon="4.73625">
        <ele>181.100006104</ele>
        <time>2015-12-09T14:00:06.493Z</time>
      </trkpt>
      <trkpt lat="45.87851" lon="4.73629">
        <ele>181.100006104</ele>
        <time>2015-12-09T14:00:07.507Z</time>
      </trkpt>
      <trkpt lat="45.87847" lon="4.73631">
        <ele>181</ele>
        <time>2015-12-09T14:00:08.493Z</time>
      </trkpt>
      <trkpt lat="45.87838" lon="4.73627">
        <ele>181.100006104</ele>
        <time>2015-12-09T14:00:10.539Z</time>
      </trkpt>
      <trkpt lat="45.87835" lon="4.73623">
        <ele>181.5</ele>
        <time>2015-12-09T14:00:11.508Z</time>
      </trkpt>
      <trkpt lat="45.87832" lon="4.73612">
        <ele>181.699996948</ele>
        <time>2015-12-09T14:00:13.507Z</time>
      </trkpt>
      <trkpt lat="45.8783" lon="4.73605">
        <ele>181.699996948</ele>
        <time>2015-12-09T14:00:14.493Z</time>
      </trkpt>
      <trkpt lat="45.87827" lon="4.73599">
        <ele>181.5</ele>
        <time>2015-12-09T14:00:15.507Z</time>
      </trkpt>
      <trkpt lat="45.87824" lon="4.73593">
        <ele>181.399993896</ele>
        <time>2015-12-09T14:00:16.496Z</time>
      </trkpt>
      <trkpt lat="45.87821" lon="4.73585">
        <ele>181.199996948</ele>
        <time>2015-12-09T14:00:17.507Z</time>
      </trkpt>
      <trkpt lat="45.87818" lon="4.73578">
        <ele>181.5</ele>
        <time>2015-12-09T14:00:18.493Z</time>
      </trkpt>
      <trkpt lat="45.87814" lon="4.73571">
        <ele>181.600006104</ele>
        <time>2015-12-09T14:00:19.507Z</time>
      </trkpt>
      <trkpt lat="45.8781" lon="4.73564">
        <ele>181.699996948</ele>
        <time>2015-12-09T14:00:20.493Z</time>
      </trkpt>
      <trkpt lat="45.87806" lon="4.73556">
        <ele>181.300003052</ele>
        <time>2015-12-09T14:00:21.507Z</time>
      </trkpt>
      <trkpt lat="45.87803" lon="4.73549">
        <ele>181.399993896</ele>
        <time>2015-12-09T14:00:22.496Z</time>
      </trkpt>
      <trkpt lat="45.87799" lon="4.73542">
        <ele>181.399993896</ele>
        <time>2015-12-09T14:00:23.507Z</time>
      </trkpt>
      <trkpt lat="45.87795" lon="4.73535">
        <ele>181.399993896</ele>
        <time>2015-12-09T14:00:24.494Z</time>
      </trkpt>
      <trkpt lat="45.87792" lon="4.73528">
        <ele>181.5</ele>
        <time>2015-12-09T14:00:25.507Z</time>
      </trkpt>
      <trkpt lat="45.87788" lon="4.73521">
        <ele>181.5</ele>
        <time>2015-12-09T14:00:26.493Z</time>
      </trkpt>
      <trkpt lat="45.87784" lon="4.73514">
        <ele>181.699996948</ele>
        <time>2015-12-09T14:00:27.657Z</time>
      </trkpt>
      <trkpt lat="45.8778" lon="4.73507">
        <ele>181.800003052</ele>
        <time>2015-12-09T14:00:28.496Z</time>
      </trkpt>
      <trkpt lat="45.87776" lon="4.735">
        <ele>181.899993896</ele>
        <time>2015-12-09T14:00:29.543Z</time>
      </trkpt>
      <trkpt lat="45.87773" lon="4.73493">
        <ele>182.100006104</ele>
        <time>2015-12-09T14:00:30.51Z</time>
      </trkpt>
      <trkpt lat="45.87769" lon="4.73485">
        <ele>182.300003052</ele>
        <time>2015-12-09T14:00:31.527Z</time>
      </trkpt>
      <trkpt lat="45.87766" lon="4.73478">
        <ele>182.600006104</ele>
        <time>2015-12-09T14:00:32.5Z</time>
      </trkpt>
      <trkpt lat="45.87762" lon="4.7347">
        <ele>182.5</ele>
        <time>2015-12-09T14:00:33.543Z</time>
      </trkpt>
      <trkpt lat="45.87759" lon="4.73462">
        <ele>182.699996948</ele>
        <time>2015-12-09T14:00:34.5Z</time>
      </trkpt>
      <trkpt lat="45.87755" lon="4.73454">
        <ele>182.5</ele>
        <time>2015-12-09T14:00:35.528Z</time>
      </trkpt>
      <trkpt lat="45.87752" lon="4.73447">
        <ele>182.899993896</ele>
        <time>2015-12-09T14:00:36.5Z</time>
      </trkpt>
      <trkpt lat="45.87748" lon="4.73439">
        <ele>183.100006104</ele>
        <time>2015-12-09T14:00:37.527Z</time>
      </trkpt>
      <trkpt lat="45.87745" lon="4.73432">
        <ele>183.199996948</ele>
        <time>2015-12-09T14:00:38.5Z</time>
      </trkpt>
      <trkpt lat="45.87741" lon="4.73425">
        <ele>183.199996948</ele>
        <time>2015-12-09T14:00:39.507Z</time>
      </trkpt>
      <trkpt lat="45.87738" lon="4.73417">
        <ele>182.899993896</ele>
        <time>2015-12-09T14:00:40.496Z</time>
      </trkpt>
      <trkpt lat="45.87734" lon="4.7341">
        <ele>182.899993896</ele>
        <time>2015-12-09T14:00:41.506Z</time>
      </trkpt>
      <trkpt lat="45.8773" lon="4.73403">
        <ele>182.300003052</ele>
        <time>2015-12-09T14:00:42.493Z</time>
      </trkpt>
      <trkpt lat="45.87727" lon="4.73396">
        <ele>182.300003052</ele>
        <time>2015-12-09T14:00:43.507Z</time>
      </trkpt>
      <trkpt lat="45.87724" lon="4.7339">
        <ele>182.199996948</ele>
        <time>2015-12-09T14:00:44.493Z</time>
      </trkpt>
      <trkpt lat="45.87721" lon="4.73383">
        <ele>182.5</ele>
        <time>2015-12-09T14:00:45.525Z</time>
      </trkpt>
      <trkpt lat="45.87718" lon="4.73377">
        <ele>182.5</ele>
        <time>2015-12-09T14:00:46.496Z</time>
      </trkpt>
      <trkpt lat="45.87715" lon="4.73371">
        <ele>182.800003052</ele>
        <time>2015-12-09T14:00:47.507Z</time>
      </trkpt>
      <trkpt lat="45.87712" lon="4.73365">
        <ele>182.899993896</ele>
        <time>2015-12-09T14:00:48.508Z</time>
      </trkpt>
      <trkpt lat="45.8771" lon="4.73359">
        <ele>183</ele>
        <time>2015-12-09T14:00:49.507Z</time>
      </trkpt>
      <trkpt lat="45.87707" lon="4.73354">
        <ele>183.100006104</ele>
        <time>2015-12-09T14:00:50.493Z</time>
      </trkpt>
      <trkpt lat="45.87704" lon="4.73349">
        <ele>183.300003052</ele>
        <time>2015-12-09T14:00:51.508Z</time>
      </trkpt>
      <trkpt lat="45.87702" lon="4.73343">
        <ele>183.5</ele>
        <time>2015-12-09T14:00:52.496Z</time>
      </trkpt>
      <trkpt lat="45.87699" lon="4.73338">
        <ele>183.600006104</ele>
        <time>2015-12-09T14:00:53.522Z</time>
      </trkpt>
      <trkpt lat="45.87697" lon="4.73332">
        <ele>184</ele>
        <time>2015-12-09T14:00:54.494Z</time>
      </trkpt>
      <trkpt lat="45.87692" lon="4.73321">
        <ele>184.699996948</ele>
        <time>2015-12-09T14:00:56.647Z</time>
      </trkpt>
      <trkpt lat="45.87689" lon="4.73315">
        <ele>184.899993896</ele>
        <time>2015-12-09T14:00:57.493Z</time>
      </trkpt>
      <trkpt lat="45.87686" lon="4.73309">
        <ele>184.899993896</ele>
        <time>2015-12-09T14:00:58.51Z</time>
      </trkpt>
      <trkpt lat="45.87684" lon="4.73302">
        <ele>184.899993896</ele>
        <time>2015-12-09T14:00:59.507Z</time>
      </trkpt>
      <trkpt lat="45.87681" lon="4.73295">
        <ele>184.699996948</ele>
        <time>2015-12-09T14:01:00.568Z</time>
      </trkpt>
      <trkpt lat="45.87678" lon="4.73288">
        <ele>184.800003052</ele>
        <time>2015-12-09T14:01:01.493Z</time>
      </trkpt>
      <trkpt lat="45.87676" lon="4.73281">
        <ele>184.899993896</ele>
        <time>2015-12-09T14:01:02.507Z</time>
      </trkpt>
      <trkpt lat="45.87672" lon="4.73274">
        <ele>185.100006104</ele>
        <time>2015-12-09T14:01:03.493Z</time>
      </trkpt>
      <trkpt lat="45.87669" lon="4.73267">
        <ele>185.100006104</ele>
        <time>2015-12-09T14:01:04.525Z</time>
      </trkpt>
      <trkpt lat="45.87665" lon="4.7326">
        <ele>185.100006104</ele>
        <time>2015-12-09T14:01:05.493Z</time>
      </trkpt>
      <trkpt lat="45.87662" lon="4.73253">
        <ele>185</ele>
        <time>2015-12-09T14:01:06.508Z</time>
      </trkpt>
      <trkpt lat="45.87658" lon="4.73247">
        <ele>184.600006104</ele>
        <time>2015-12-09T14:01:07.493Z</time>
      </trkpt>
      <trkpt lat="45.87655" lon="4.73239">
        <ele>184.600006104</ele>
        <time>2015-12-09T14:01:08.507Z</time>
      </trkpt>
      <trkpt lat="45.87651" lon="4.73232">
        <ele>184.699996948</ele>
        <time>2015-12-09T14:01:09.492Z</time>
      </trkpt>
      <trkpt lat="45.87648" lon="4.73225">
        <ele>184.399993896</ele>
        <time>2015-12-09T14:01:10.511Z</time>
      </trkpt>
      <trkpt lat="45.87644" lon="4.73218">
        <ele>184</ele>
        <time>2015-12-09T14:01:11.495Z</time>
      </trkpt>
      <trkpt lat="45.87641" lon="4.73211">
        <ele>183.800003052</ele>
        <time>2015-12-09T14:01:12.507Z</time>
      </trkpt>
      <trkpt lat="45.87638" lon="4.73204">
        <ele>183.600006104</ele>
        <time>2015-12-09T14:01:13.493Z</time>
      </trkpt>
      <trkpt lat="45.87634" lon="4.73197">
        <ele>183.399993896</ele>
        <time>2015-12-09T14:01:14.507Z</time>
      </trkpt>
      <trkpt lat="45.87631" lon="4.7319">
        <ele>183.100006104</ele>
        <time>2015-12-09T14:01:15.493Z</time>
      </trkpt>
      <trkpt lat="45.87627" lon="4.73183">
        <ele>182.800003052</ele>
        <time>2015-12-09T14:01:16.51Z</time>
      </trkpt>
      <trkpt lat="45.87623" lon="4.73176">
        <ele>182.5</ele>
        <time>2015-12-09T14:01:17.493Z</time>
      </trkpt>
      <trkpt lat="45.87619" lon="4.73169">
        <ele>182</ele>
        <time>2015-12-09T14:01:18.508Z</time>
      </trkpt>
      <trkpt lat="45.87615" lon="4.73161">
        <ele>181.600006104</ele>
        <time>2015-12-09T14:01:19.493Z</time>
      </trkpt>
      <trkpt lat="45.87611" lon="4.73154">
        <ele>181.699996948</ele>
        <time>2015-12-09T14:01:20.523Z</time>
      </trkpt>
      <trkpt lat="45.87607" lon="4.73145">
        <ele>181.399993896</ele>
        <time>2015-12-09T14:01:21.493Z</time>
      </trkpt>
      <trkpt lat="45.87603" lon="4.73137">
        <ele>181.300003052</ele>
        <time>2015-12-09T14:01:22.514Z</time>
      </trkpt>
      <trkpt lat="45.87599" lon="4.73129">
        <ele>181.399993896</ele>
        <time>2015-12-09T14:01:23.507Z</time>
      </trkpt>
      <trkpt lat="45.87595" lon="4.7312">
        <ele>181.300003052</ele>
        <time>2015-12-09T14:01:24.509Z</time>
      </trkpt>
      <trkpt lat="45.87591" lon="4.73112">
        <ele>181.399993896</ele>
        <time>2015-12-09T14:01:25.494Z</time>
      </trkpt>
      <trkpt lat="45.87587" lon="4.73103">
        <ele>181.5</ele>
        <time>2015-12-09T14:01:26.509Z</time>
      </trkpt>
      <trkpt lat="45.87583" lon="4.73095">
        <ele>181.699996948</ele>
        <time>2015-12-09T14:01:27.495Z</time>
      </trkpt>
      <trkpt lat="45.87579" lon="4.73087">
        <ele>182.399993896</ele>
        <time>2015-12-09T14:01:28.511Z</time>
      </trkpt>
      <trkpt lat="45.87576" lon="4.7308">
        <ele>182.899993896</ele>
        <time>2015-12-09T14:01:29.494Z</time>
      </trkpt>
      <trkpt lat="45.87571" lon="4.73072">
        <ele>182.899993896</ele>
        <time>2015-12-09T14:01:30.508Z</time>
      </trkpt>
      <trkpt lat="45.87567" lon="4.73065">
        <ele>183.199996948</ele>
        <time>2015-12-09T14:01:31.493Z</time>
      </trkpt>
      <trkpt lat="45.87563" lon="4.73058">
        <ele>183.399993896</ele>
        <time>2015-12-09T14:01:32.507Z</time>
      </trkpt>
      <trkpt lat="45.8756" lon="4.7305">
        <ele>183.5</ele>
        <time>2015-12-09T14:01:33.514Z</time>
      </trkpt>
      <trkpt lat="45.87556" lon="4.73043">
        <ele>183.300003052</ele>
        <time>2015-12-09T14:01:34.511Z</time>
      </trkpt>
      <trkpt lat="45.87553" lon="4.73036">
        <ele>183.399993896</ele>
        <time>2015-12-09T14:01:35.493Z</time>
      </trkpt>
      <trkpt lat="45.87549" lon="4.73029">
        <ele>183.100006104</ele>
        <time>2015-12-09T14:01:36.527Z</time>
      </trkpt>
      <trkpt lat="45.87545" lon="4.73021">
        <ele>183.399993896</ele>
        <time>2015-12-09T14:01:37.493Z</time>
      </trkpt>
      <trkpt lat="45.87542" lon="4.73013">
        <ele>183.399993896</ele>
        <time>2015-12-09T14:01:38.507Z</time>
      </trkpt>
      <trkpt lat="45.87539" lon="4.73006">
        <ele>183.399993896</ele>
        <time>2015-12-09T14:01:39.493Z</time>
      </trkpt>
      <trkpt lat="45.87535" lon="4.72998">
        <ele>183.199996948</ele>
        <time>2015-12-09T14:01:40.639Z</time>
      </trkpt>
      <trkpt lat="45.87532" lon="4.72991">
        <ele>183.399993896</ele>
        <time>2015-12-09T14:01:41.54Z</time>
      </trkpt>
      <trkpt lat="45.87528" lon="4.72983">
        <ele>183.399993896</ele>
        <time>2015-12-09T14:01:42.507Z</time>
      </trkpt>
      <trkpt lat="45.87525" lon="4.72976">
        <ele>183.5</ele>
        <time>2015-12-09T14:01:43.493Z</time>
      </trkpt>
      <trkpt lat="45.87521" lon="4.7297">
        <ele>183.300003052</ele>
        <time>2015-12-09T14:01:44.507Z</time>
      </trkpt>
      <trkpt lat="45.87517" lon="4.72963">
        <ele>182.699996948</ele>
        <time>2015-12-09T14:01:45.493Z</time>
      </trkpt>
      <trkpt lat="45.87513" lon="4.72957">
        <ele>182.600006104</ele>
        <time>2015-12-09T14:01:46.511Z</time>
      </trkpt>
      <trkpt lat="45.87509" lon="4.72952">
        <ele>182.800003052</ele>
        <time>2015-12-09T14:01:47.494Z</time>
      </trkpt>
      <trkpt lat="45.87505" lon="4.72948">
        <ele>183.100006104</ele>
        <time>2015-12-09T14:01:48.527Z</time>
      </trkpt>
      <trkpt lat="45.87501" lon="4.72943">
        <ele>183.199996948</ele>
        <time>2015-12-09T14:01:49.494Z</time>
      </trkpt>
      <trkpt lat="45.87496" lon="4.72939">
        <ele>183.300003052</ele>
        <time>2015-12-09T14:01:50.599Z</time>
      </trkpt>
      <trkpt lat="45.87491" lon="4.72935">
        <ele>183.399993896</ele>
        <time>2015-12-09T14:01:51.503Z</time>
      </trkpt>
      <trkpt lat="45.87486" lon="4.72931">
        <ele>183.399993896</ele>
        <time>2015-12-09T14:01:52.539Z</time>
      </trkpt>
      <trkpt lat="45.87482" lon="4.72926">
        <ele>183.5</ele>
        <time>2015-12-09T14:01:53.496Z</time>
      </trkpt>
      <trkpt lat="45.87478" lon="4.72921">
        <ele>183.699996948</ele>
        <time>2015-12-09T14:01:54.513Z</time>
      </trkpt>
      <trkpt lat="45.87475" lon="4.72915">
        <ele>183.699996948</ele>
        <time>2015-12-09T14:01:55.496Z</time>
      </trkpt>
      <trkpt lat="45.87472" lon="4.72909">
        <ele>183.899993896</ele>
        <time>2015-12-09T14:01:56.511Z</time>
      </trkpt>
      <trkpt lat="45.8747" lon="4.72902">
        <ele>184</ele>
        <time>2015-12-09T14:01:57.495Z</time>
      </trkpt>
      <trkpt lat="45.87467" lon="4.72891">
        <ele>184.5</ele>
        <time>2015-12-09T14:01:59.51Z</time>
      </trkpt>
      <trkpt lat="45.87466" lon="4.72885">
        <ele>184.699996948</ele>
        <time>2015-12-09T14:02:00.496Z</time>
      </trkpt>
      <trkpt lat="45.87464" lon="4.72878">
        <ele>184.600006104</ele>
        <time>2015-12-09T14:02:01.511Z</time>
      </trkpt>
      <trkpt lat="45.87461" lon="4.72871">
        <ele>184.699996948</ele>
        <time>2015-12-09T14:02:02.494Z</time>
      </trkpt>
      <trkpt lat="45.87458" lon="4.72864">
        <ele>184.899993896</ele>
        <time>2015-12-09T14:02:03.51Z</time>
      </trkpt>
      <trkpt lat="45.87455" lon="4.72857">
        <ele>184.899993896</ele>
        <time>2015-12-09T14:02:04.497Z</time>
      </trkpt>
      <trkpt lat="45.87453" lon="4.7285">
        <ele>185.100006104</ele>
        <time>2015-12-09T14:02:05.52Z</time>
      </trkpt>
      <trkpt lat="45.8745" lon="4.72843">
        <ele>185.5</ele>
        <time>2015-12-09T14:02:06.496Z</time>
      </trkpt>
      <trkpt lat="45.87447" lon="4.72835">
        <ele>185.5</ele>
        <time>2015-12-09T14:02:07.51Z</time>
      </trkpt>
      <trkpt lat="45.87444" lon="4.72828">
        <ele>185.699996948</ele>
        <time>2015-12-09T14:02:08.494Z</time>
      </trkpt>
      <trkpt lat="45.87441" lon="4.7282">
        <ele>185.800003052</ele>
        <time>2015-12-09T14:02:09.51Z</time>
      </trkpt>
      <trkpt lat="45.87438" lon="4.72812">
        <ele>185.699996948</ele>
        <time>2015-12-09T14:02:10.498Z</time>
      </trkpt>
      <trkpt lat="45.87435" lon="4.72805">
        <ele>185.600006104</ele>
        <time>2015-12-09T14:02:11.512Z</time>
      </trkpt>
      <trkpt lat="45.87432" lon="4.72797">
        <ele>185.699996948</ele>
        <time>2015-12-09T14:02:12.495Z</time>
      </trkpt>
      <trkpt lat="45.87429" lon="4.72791">
        <ele>186</ele>
        <time>2015-12-09T14:02:13.509Z</time>
      </trkpt>
      <trkpt lat="45.87426" lon="4.72784">
        <ele>186.100006104</ele>
        <time>2015-12-09T14:02:14.494Z</time>
      </trkpt>
      <trkpt lat="45.87423" lon="4.72778">
        <ele>186.100006104</ele>
        <time>2015-12-09T14:02:15.509Z</time>
      </trkpt>
      <trkpt lat="45.8742" lon="4.72772">
        <ele>186</ele>
        <time>2015-12-09T14:02:16.499Z</time>
      </trkpt>
      <trkpt lat="45.87417" lon="4.72765">
        <ele>186</ele>
        <time>2015-12-09T14:02:17.509Z</time>
      </trkpt>
      <trkpt lat="45.87414" lon="4.72759">
        <ele>185.899993896</ele>
        <time>2015-12-09T14:02:18.495Z</time>
      </trkpt>
      <trkpt lat="45.87411" lon="4.72754">
        <ele>185.800003052</ele>
        <time>2015-12-09T14:02:19.524Z</time>
      </trkpt>
      <trkpt lat="45.87408" lon="4.72748">
        <ele>186</ele>
        <time>2015-12-09T14:02:20.494Z</time>
      </trkpt>
      <trkpt lat="45.87404" lon="4.72742">
        <ele>186.199996948</ele>
        <time>2015-12-09T14:02:21.51Z</time>
      </trkpt>
      <trkpt lat="45.87401" lon="4.72737">
        <ele>186.300003052</ele>
        <time>2015-12-09T14:02:22.497Z</time>
      </trkpt>
      <trkpt lat="45.87396" lon="4.72732">
        <ele>186.399993896</ele>
        <time>2015-12-09T14:02:23.51Z</time>
      </trkpt>
      <trkpt lat="45.87393" lon="4.72726">
        <ele>186.699996948</ele>
        <time>2015-12-09T14:02:24.495Z</time>
      </trkpt>
      <trkpt lat="45.8739" lon="4.72719">
        <ele>186.300003052</ele>
        <time>2015-12-09T14:02:25.509Z</time>
      </trkpt>
      <trkpt lat="45.87387" lon="4.72711">
        <ele>186.5</ele>
        <time>2015-12-09T14:02:26.494Z</time>
      </trkpt>
      <trkpt lat="45.87384" lon="4.72704">
        <ele>186.399993896</ele>
        <time>2015-12-09T14:02:27.508Z</time>
      </trkpt>
      <trkpt lat="45.8738" lon="4.72697">
        <ele>186.100006104</ele>
        <time>2015-12-09T14:02:28.497Z</time>
      </trkpt>
      <trkpt lat="45.87376" lon="4.7269">
        <ele>185.800003052</ele>
        <time>2015-12-09T14:02:29.509Z</time>
      </trkpt>
      <trkpt lat="45.87372" lon="4.72685">
        <ele>185.699996948</ele>
        <time>2015-12-09T14:02:30.495Z</time>
      </trkpt>
      <trkpt lat="45.87368" lon="4.7268">
        <ele>185.600006104</ele>
        <time>2015-12-09T14:02:31.509Z</time>
      </trkpt>
      <trkpt lat="45.87364" lon="4.72675">
        <ele>185.800003052</ele>
        <time>2015-12-09T14:02:32.494Z</time>
      </trkpt>
      <trkpt lat="45.87359" lon="4.72671">
        <ele>186</ele>
        <time>2015-12-09T14:02:33.509Z</time>
      </trkpt>
      <trkpt lat="45.87354" lon="4.72666">
        <ele>186.100006104</ele>
        <time>2015-12-09T14:02:34.497Z</time>
      </trkpt>
      <trkpt lat="45.87349" lon="4.72662">
        <ele>186.300003052</ele>
        <time>2015-12-09T14:02:35.51Z</time>
      </trkpt>
      <trkpt lat="45.87344" lon="4.72657">
        <ele>186.300003052</ele>
        <time>2015-12-09T14:02:36.495Z</time>
      </trkpt>
      <trkpt lat="45.87339" lon="4.72653">
        <ele>186.399993896</ele>
        <time>2015-12-09T14:02:37.508Z</time>
      </trkpt>
      <trkpt lat="45.87335" lon="4.72648">
        <ele>186.399993896</ele>
        <time>2015-12-09T14:02:38.494Z</time>
      </trkpt>
      <trkpt lat="45.8733" lon="4.72642">
        <ele>186.5</ele>
        <time>2015-12-09T14:02:39.509Z</time>
      </trkpt>
      <trkpt lat="45.87326" lon="4.72637">
        <ele>186.699996948</ele>
        <time>2015-12-09T14:02:40.512Z</time>
      </trkpt>
      <trkpt lat="45.87323" lon="4.72633">
        <ele>186.800003052</ele>
        <time>2015-12-09T14:02:41.509Z</time>
      </trkpt>
      <trkpt lat="45.87319" lon="4.72628">
        <ele>187</ele>
        <time>2015-12-09T14:02:42.494Z</time>
      </trkpt>
      <trkpt lat="45.87316" lon="4.72623">
        <ele>187.199996948</ele>
        <time>2015-12-09T14:02:43.508Z</time>
      </trkpt>
      <trkpt lat="45.87312" lon="4.72619">
        <ele>187.199996948</ele>
        <time>2015-12-09T14:02:44.494Z</time>
      </trkpt>
      <trkpt lat="45.87309" lon="4.72613">
        <ele>187.300003052</ele>
        <time>2015-12-09T14:02:45.51Z</time>
      </trkpt>
      <trkpt lat="45.87305" lon="4.72608">
        <ele>187.399993896</ele>
        <time>2015-12-09T14:02:46.497Z</time>
      </trkpt>
      <trkpt lat="45.87302" lon="4.72603">
        <ele>187.5</ele>
        <time>2015-12-09T14:02:47.508Z</time>
      </trkpt>
      <trkpt lat="45.87298" lon="4.72598">
        <ele>187.600006104</ele>
        <time>2015-12-09T14:02:48.494Z</time>
      </trkpt>
      <trkpt lat="45.87294" lon="4.72593">
        <ele>187.800003052</ele>
        <time>2015-12-09T14:02:49.508Z</time>
      </trkpt>
      <trkpt lat="45.8729" lon="4.72587">
        <ele>188.199996948</ele>
        <time>2015-12-09T14:02:50.494Z</time>
      </trkpt>
      <trkpt lat="45.87287" lon="4.72582">
        <ele>188.399993896</ele>
        <time>2015-12-09T14:02:51.529Z</time>
      </trkpt>
      <trkpt lat="45.87283" lon="4.72577">
        <ele>188.699996948</ele>
        <time>2015-12-09T14:02:52.497Z</time>
      </trkpt>
      <trkpt lat="45.87279" lon="4.72572">
        <ele>188.899993896</ele>
        <time>2015-12-09T14:02:53.507Z</time>
      </trkpt>
      <trkpt lat="45.87276" lon="4.72566">
        <ele>189.399993896</ele>
        <time>2015-12-09T14:02:54.494Z</time>
      </trkpt>
      <trkpt lat="45.87271" lon="4.72557">
        <ele>190.399993896</ele>
        <time>2015-12-09T14:02:56.509Z</time>
      </trkpt>
      <trkpt lat="45.87268" lon="4.72553">
        <ele>190.800003052</ele>
        <time>2015-12-09T14:02:57.494Z</time>
      </trkpt>
      <trkpt lat="45.87265" lon="4.72545">
        <ele>191.5</ele>
        <time>2015-12-09T14:02:59.509Z</time>
      </trkpt>
      <trkpt lat="45.87264" lon="4.72541">
        <ele>192</ele>
        <time>2015-12-09T14:03:00.495Z</time>
      </trkpt>
      <trkpt lat="45.87261" lon="4.72531">
        <ele>193.399993896</ele>
        <time>2015-12-09T14:03:03.509Z</time>
      </trkpt>
      <trkpt lat="45.87259" lon="4.72527">
        <ele>193.100006104</ele>
        <time>2015-12-09T14:03:04.496Z</time>
      </trkpt>
      <trkpt lat="45.87254" lon="4.72518">
        <ele>192.699996948</ele>
        <time>2015-12-09T14:03:06.508Z</time>
      </trkpt>
      <trkpt lat="45.87252" lon="4.72514">
        <ele>192.699996948</ele>
        <time>2015-12-09T14:03:07.494Z</time>
      </trkpt>
      <trkpt lat="45.87246" lon="4.72505">
        <ele>191.899993896</ele>
        <time>2015-12-09T14:03:09.507Z</time>
      </trkpt>
      <trkpt lat="45.87244" lon="4.72499">
        <ele>192.100006104</ele>
        <time>2015-12-09T14:03:10.497Z</time>
      </trkpt>
      <trkpt lat="45.87241" lon="4.72494">
        <ele>191.600006104</ele>
        <time>2015-12-09T14:03:11.511Z</time>
      </trkpt>
      <trkpt lat="45.87238" lon="4.72489">
        <ele>191.699996948</ele>
        <time>2015-12-09T14:03:12.494Z</time>
      </trkpt>
      <trkpt lat="45.87231" lon="4.7248">
        <ele>191.699996948</ele>
        <time>2015-12-09T14:03:14.508Z</time>
      </trkpt>
      <trkpt lat="45.87227" lon="4.72476">
        <ele>190.899993896</ele>
        <time>2015-12-09T14:03:15.493Z</time>
      </trkpt>
      <trkpt lat="45.87221" lon="4.72467">
        <ele>190.899993896</ele>
        <time>2015-12-09T14:03:17.509Z</time>
      </trkpt>
      <trkpt lat="45.87218" lon="4.72462">
        <ele>190.800003052</ele>
        <time>2015-12-09T14:03:18.494Z</time>
      </trkpt>
      <trkpt lat="45.87212" lon="4.72454">
        <ele>191.199996948</ele>
        <time>2015-12-09T14:03:20.516Z</time>
      </trkpt>
      <trkpt lat="45.87209" lon="4.7245">
        <ele>191.300003052</ele>
        <time>2015-12-09T14:03:21.493Z</time>
      </trkpt>
      <trkpt lat="45.87203" lon="4.72442">
        <ele>191.5</ele>
        <time>2015-12-09T14:03:23.508Z</time>
      </trkpt>
      <trkpt lat="45.872" lon="4.72438">
        <ele>191.699996948</ele>
        <time>2015-12-09T14:03:24.494Z</time>
      </trkpt>
      <trkpt lat="45.87193" lon="4.7243">
        <ele>191</ele>
        <time>2015-12-09T14:03:26.509Z</time>
      </trkpt>
      <trkpt lat="45.8719" lon="4.72426">
        <ele>190.800003052</ele>
        <time>2015-12-09T14:03:27.493Z</time>
      </trkpt>
      <trkpt lat="45.87184" lon="4.72418">
        <ele>190.5</ele>
        <time>2015-12-09T14:03:29.523Z</time>
      </trkpt>
      <trkpt lat="45.87182" lon="4.72414">
        <ele>190.699996948</ele>
        <time>2015-12-09T14:03:30.494Z</time>
      </trkpt>
      <trkpt lat="45.87177" lon="4.72404">
        <ele>190.699996948</ele>
        <time>2015-12-09T14:03:32.508Z</time>
      </trkpt>
      <trkpt lat="45.87173" lon="4.72397">
        <ele>190.300003052</ele>
        <time>2015-12-09T14:03:33.493Z</time>
      </trkpt>
      <trkpt lat="45.87171" lon="4.7239">
        <ele>190.100006104</ele>
        <time>2015-12-09T14:03:34.512Z</time>
      </trkpt>
      <trkpt lat="45.87168" lon="4.72384">
        <ele>190</ele>
        <time>2015-12-09T14:03:35.493Z</time>
      </trkpt>
      <trkpt lat="45.87164" lon="4.72378">
        <ele>189.5</ele>
        <time>2015-12-09T14:03:36.508Z</time>
      </trkpt>
      <trkpt lat="45.87162" lon="4.72371">
        <ele>189.5</ele>
        <time>2015-12-09T14:03:37.493Z</time>
      </trkpt>
      <trkpt lat="45.87159" lon="4.72365">
        <ele>189.5</ele>
        <time>2015-12-09T14:03:38.508Z</time>
      </trkpt>
      <trkpt lat="45.87156" lon="4.72358">
        <ele>189.600006104</ele>
        <time>2015-12-09T14:03:39.493Z</time>
      </trkpt>
      <trkpt lat="45.87154" lon="4.72351">
        <ele>189.699996948</ele>
        <time>2015-12-09T14:03:40.512Z</time>
      </trkpt>
      <trkpt lat="45.87151" lon="4.72344">
        <ele>189.699996948</ele>
        <time>2015-12-09T14:03:41.493Z</time>
      </trkpt>
      <trkpt lat="45.87147" lon="4.72337">
        <ele>189.899993896</ele>
        <time>2015-12-09T14:03:42.509Z</time>
      </trkpt>
      <trkpt lat="45.87144" lon="4.7233">
        <ele>190.100006104</ele>
        <time>2015-12-09T14:03:43.493Z</time>
      </trkpt>
      <trkpt lat="45.87141" lon="4.72323">
        <ele>190.5</ele>
        <time>2015-12-09T14:03:44.508Z</time>
      </trkpt>
      <trkpt lat="45.87137" lon="4.72316">
        <ele>191</ele>
        <time>2015-12-09T14:03:45.494Z</time>
      </trkpt>
      <trkpt lat="45.87134" lon="4.72309">
        <ele>191.199996948</ele>
        <time>2015-12-09T14:03:46.511Z</time>
      </trkpt>
      <trkpt lat="45.87131" lon="4.72302">
        <ele>191.300003052</ele>
        <time>2015-12-09T14:03:47.494Z</time>
      </trkpt>
      <trkpt lat="45.87127" lon="4.72295">
        <ele>191.199996948</ele>
        <time>2015-12-09T14:03:48.509Z</time>
      </trkpt>
      <trkpt lat="45.87123" lon="4.72289">
        <ele>191.300003052</ele>
        <time>2015-12-09T14:03:49.494Z</time>
      </trkpt>
      <trkpt lat="45.87119" lon="4.72283">
        <ele>191.199996948</ele>
        <time>2015-12-09T14:03:50.65Z</time>
      </trkpt>
      <trkpt lat="45.87115" lon="4.72277">
        <ele>191.199996948</ele>
        <time>2015-12-09T14:03:51.494Z</time>
      </trkpt>
      <trkpt lat="45.8711" lon="4.7227">
        <ele>191.199996948</ele>
        <time>2015-12-09T14:03:52.511Z</time>
      </trkpt>
      <trkpt lat="45.87106" lon="4.72264">
        <ele>191.199996948</ele>
        <time>2015-12-09T14:03:53.493Z</time>
      </trkpt>
      <trkpt lat="45.87102" lon="4.72259">
        <ele>191.600006104</ele>
        <time>2015-12-09T14:03:54.51Z</time>
      </trkpt>
      <trkpt lat="45.87098" lon="4.72253">
        <ele>192.100006104</ele>
        <time>2015-12-09T14:03:55.494Z</time>
      </trkpt>
      <trkpt lat="45.87093" lon="4.72248">
        <ele>192.600006104</ele>
        <time>2015-12-09T14:03:56.508Z</time>
      </trkpt>
      <trkpt lat="45.87089" lon="4.72243">
        <ele>192.699996948</ele>
        <time>2015-12-09T14:03:57.494Z</time>
      </trkpt>
      <trkpt lat="45.87084" lon="4.72237">
        <ele>192.699996948</ele>
        <time>2015-12-09T14:03:58.511Z</time>
      </trkpt>
      <trkpt lat="45.87079" lon="4.72232">
        <ele>192.699996948</ele>
        <time>2015-12-09T14:03:59.493Z</time>
      </trkpt>
      <trkpt lat="45.87075" lon="4.72228">
        <ele>193</ele>
        <time>2015-12-09T14:04:00.511Z</time>
      </trkpt>
      <trkpt lat="45.8707" lon="4.72223">
        <ele>193.399993896</ele>
        <time>2015-12-09T14:04:01.506Z</time>
      </trkpt>
      <trkpt lat="45.87065" lon="4.72218">
        <ele>193.600006104</ele>
        <time>2015-12-09T14:04:02.51Z</time>
      </trkpt>
      <trkpt lat="45.8706" lon="4.72214">
        <ele>193.800003052</ele>
        <time>2015-12-09T14:04:03.494Z</time>
      </trkpt>
      <trkpt lat="45.87055" lon="4.72209">
        <ele>194</ele>
        <time>2015-12-09T14:04:04.511Z</time>
      </trkpt>
      <trkpt lat="45.8705" lon="4.72205">
        <ele>194.100006104</ele>
        <time>2015-12-09T14:04:05.493Z</time>
      </trkpt>
      <trkpt lat="45.87044" lon="4.722">
        <ele>194.199996948</ele>
        <time>2015-12-09T14:04:06.51Z</time>
      </trkpt>
      <trkpt lat="45.87038" lon="4.72196">
        <ele>194.5</ele>
        <time>2015-12-09T14:04:07.494Z</time>
      </trkpt>
      <trkpt lat="45.87032" lon="4.72192">
        <ele>194.800003052</ele>
        <time>2015-12-09T14:04:08.508Z</time>
      </trkpt>
      <trkpt lat="45.87026" lon="4.72187">
        <ele>194.800003052</ele>
        <time>2015-12-09T14:04:09.493Z</time>
      </trkpt>
      <trkpt lat="45.8702" lon="4.72183">
        <ele>194.699996948</ele>
        <time>2015-12-09T14:04:10.509Z</time>
      </trkpt>
      <trkpt lat="45.87014" lon="4.72179">
        <ele>195</ele>
        <time>2015-12-09T14:04:11.496Z</time>
      </trkpt>
      <trkpt lat="45.87008" lon="4.72176">
        <ele>195.199996948</ele>
        <time>2015-12-09T14:04:12.526Z</time>
      </trkpt>
      <trkpt lat="45.87002" lon="4.72171">
        <ele>195.5</ele>
        <time>2015-12-09T14:04:13.493Z</time>
      </trkpt>
      <trkpt lat="45.86997" lon="4.72167">
        <ele>195.600006104</ele>
        <time>2015-12-09T14:04:14.509Z</time>
      </trkpt>
      <trkpt lat="45.86991" lon="4.72163">
        <ele>195.800003052</ele>
        <time>2015-12-09T14:04:15.493Z</time>
      </trkpt>
      <trkpt lat="45.86985" lon="4.72158">
        <ele>196</ele>
        <time>2015-12-09T14:04:16.51Z</time>
      </trkpt>
      <trkpt lat="45.8698" lon="4.72154">
        <ele>196.199996948</ele>
        <time>2015-12-09T14:04:17.493Z</time>
      </trkpt>
      <trkpt lat="45.86974" lon="4.72149">
        <ele>196.399993896</ele>
        <time>2015-12-09T14:04:18.508Z</time>
      </trkpt>
      <trkpt lat="45.86967" lon="4.72144">
        <ele>196.600006104</ele>
        <time>2015-12-09T14:04:19.494Z</time>
      </trkpt>
      <trkpt lat="45.86961" lon="4.7214">
        <ele>196.800003052</ele>
        <time>2015-12-09T14:04:20.507Z</time>
      </trkpt>
      <trkpt lat="45.86956" lon="4.72136">
        <ele>197.100006104</ele>
        <time>2015-12-09T14:04:21.493Z</time>
      </trkpt>
      <trkpt lat="45.8695" lon="4.72133">
        <ele>197.199996948</ele>
        <time>2015-12-09T14:04:22.519Z</time>
      </trkpt>
      <trkpt lat="45.86944" lon="4.72129">
        <ele>197.5</ele>
        <time>2015-12-09T14:04:23.493Z</time>
      </trkpt>
      <trkpt lat="45.86937" lon="4.72126">
        <ele>197.600006104</ele>
        <time>2015-12-09T14:04:24.509Z</time>
      </trkpt>
      <trkpt lat="45.86931" lon="4.72123">
        <ele>197.800003052</ele>
        <time>2015-12-09T14:04:25.517Z</time>
      </trkpt>
      <trkpt lat="45.86925" lon="4.7212">
        <ele>198.199996948</ele>
        <time>2015-12-09T14:04:26.508Z</time>
      </trkpt>
      <trkpt lat="45.86919" lon="4.72118">
        <ele>198.199996948</ele>
        <time>2015-12-09T14:04:27.493Z</time>
      </trkpt>
      <trkpt lat="45.86912" lon="4.72116">
        <ele>198.199996948</ele>
        <time>2015-12-09T14:04:28.525Z</time>
      </trkpt>
      <trkpt lat="45.86905" lon="4.72112">
        <ele>198.399993896</ele>
        <time>2015-12-09T14:04:29.492Z</time>
      </trkpt>
      <trkpt lat="45.86898" lon="4.72109">
        <ele>198.399993896</ele>
        <time>2015-12-09T14:04:30.509Z</time>
      </trkpt>
      <trkpt lat="45.86891" lon="4.72106">
        <ele>197.5</ele>
        <time>2015-12-09T14:04:31.493Z</time>
      </trkpt>
      <trkpt lat="45.86883" lon="4.72103">
        <ele>196.300003052</ele>
        <time>2015-12-09T14:04:32.508Z</time>
      </trkpt>
      <trkpt lat="45.86877" lon="4.721">
        <ele>196.5</ele>
        <time>2015-12-09T14:04:33.493Z</time>
      </trkpt>
      <trkpt lat="45.8687" lon="4.72097">
        <ele>196.300003052</ele>
        <time>2015-12-09T14:04:34.51Z</time>
      </trkpt>
      <trkpt lat="45.86862" lon="4.72094">
        <ele>195.800003052</ele>
        <time>2015-12-09T14:04:35.493Z</time>
      </trkpt>
      <trkpt lat="45.86856" lon="4.72091">
        <ele>195.699996948</ele>
        <time>2015-12-09T14:04:36.508Z</time>
      </trkpt>
      <trkpt lat="45.86849" lon="4.72089">
        <ele>195.600006104</ele>
        <time>2015-12-09T14:04:37.493Z</time>
      </trkpt>
      <trkpt lat="45.86842" lon="4.72086">
        <ele>195.199996948</ele>
        <time>2015-12-09T14:04:38.508Z</time>
      </trkpt>
      <trkpt lat="45.86833" lon="4.72083">
        <ele>193.899993896</ele>
        <time>2015-12-09T14:04:39.493Z</time>
      </trkpt>
      <trkpt lat="45.86827" lon="4.7208">
        <ele>193.899993896</ele>
        <time>2015-12-09T14:04:40.51Z</time>
      </trkpt>
      <trkpt lat="45.86821" lon="4.72077">
        <ele>194.100006104</ele>
        <time>2015-12-09T14:04:41.493Z</time>
      </trkpt>
      <trkpt lat="45.86814" lon="4.72074">
        <ele>194.5</ele>
        <time>2015-12-09T14:04:42.508Z</time>
      </trkpt>
      <trkpt lat="45.86808" lon="4.72071">
        <ele>194.5</ele>
        <time>2015-12-09T14:04:43.493Z</time>
      </trkpt>
      <trkpt lat="45.868" lon="4.72068">
        <ele>194.399993896</ele>
        <time>2015-12-09T14:04:44.523Z</time>
      </trkpt>
      <trkpt lat="45.86794" lon="4.72065">
        <ele>194.600006104</ele>
        <time>2015-12-09T14:04:45.493Z</time>
      </trkpt>
      <trkpt lat="45.86787" lon="4.72062">
        <ele>194.5</ele>
        <time>2015-12-09T14:04:46.512Z</time>
      </trkpt>
      <trkpt lat="45.86781" lon="4.7206">
        <ele>194.5</ele>
        <time>2015-12-09T14:04:47.493Z</time>
      </trkpt>
      <trkpt lat="45.86774" lon="4.72059">
        <ele>194.300003052</ele>
        <time>2015-12-09T14:04:48.508Z</time>
      </trkpt>
      <trkpt lat="45.86768" lon="4.72056">
        <ele>194.399993896</ele>
        <time>2015-12-09T14:04:49.636Z</time>
      </trkpt>
      <trkpt lat="45.86761" lon="4.72053">
        <ele>194.600006104</ele>
        <time>2015-12-09T14:04:50.507Z</time>
      </trkpt>
      <trkpt lat="45.86755" lon="4.72051">
        <ele>194.5</ele>
        <time>2015-12-09T14:04:51.493Z</time>
      </trkpt>
      <trkpt lat="45.86748" lon="4.72048">
        <ele>194.100006104</ele>
        <time>2015-12-09T14:04:52.51Z</time>
      </trkpt>
      <trkpt lat="45.86742" lon="4.72045">
        <ele>193.800003052</ele>
        <time>2015-12-09T14:04:53.493Z</time>
      </trkpt>
      <trkpt lat="45.86735" lon="4.72041">
        <ele>193.5</ele>
        <time>2015-12-09T14:04:54.508Z</time>
      </trkpt>
      <trkpt lat="45.86728" lon="4.72037">
        <ele>193.100006104</ele>
        <time>2015-12-09T14:04:55.492Z</time>
      </trkpt>
      <trkpt lat="45.86722" lon="4.72034">
        <ele>192.600006104</ele>
        <time>2015-12-09T14:04:56.508Z</time>
      </trkpt>
      <trkpt lat="45.86716" lon="4.7203">
        <ele>192.300003052</ele>
        <time>2015-12-09T14:04:57.493Z</time>
      </trkpt>
      <trkpt lat="45.86709" lon="4.72026">
        <ele>191.300003052</ele>
        <time>2015-12-09T14:04:58.51Z</time>
      </trkpt>
      <trkpt lat="45.86702" lon="4.72021">
        <ele>190.699996948</ele>
        <time>2015-12-09T14:04:59.493Z</time>
      </trkpt>
      <trkpt lat="45.86696" lon="4.72017">
        <ele>189.699996948</ele>
        <time>2015-12-09T14:05:00.524Z</time>
      </trkpt>
      <trkpt lat="45.8669" lon="4.72013">
        <ele>189.399993896</ele>
        <time>2015-12-09T14:05:01.492Z</time>
      </trkpt>
      <trkpt lat="45.86684" lon="4.72008">
        <ele>188.899993896</ele>
        <time>2015-12-09T14:05:02.507Z</time>
      </trkpt>
      <trkpt lat="45.86677" lon="4.72003">
        <ele>188.699996948</ele>
        <time>2015-12-09T14:05:03.493Z</time>
      </trkpt>
      <trkpt lat="45.86671" lon="4.71998">
        <ele>188.899993896</ele>
        <time>2015-12-09T14:05:04.759Z</time>
      </trkpt>
      <trkpt lat="45.86665" lon="4.71993">
        <ele>188.899993896</ele>
        <time>2015-12-09T14:05:05.493Z</time>
      </trkpt>
      <trkpt lat="45.86659" lon="4.71989">
        <ele>188.800003052</ele>
        <time>2015-12-09T14:05:06.517Z</time>
      </trkpt>
      <trkpt lat="45.86653" lon="4.71984">
        <ele>188.699996948</ele>
        <time>2015-12-09T14:05:07.492Z</time>
      </trkpt>
      <trkpt lat="45.86648" lon="4.7198">
        <ele>188.699996948</ele>
        <time>2015-12-09T14:05:08.507Z</time>
      </trkpt>
      <trkpt lat="45.86643" lon="4.71975">
        <ele>189</ele>
        <time>2015-12-09T14:05:09.493Z</time>
      </trkpt>
      <trkpt lat="45.86637" lon="4.7197">
        <ele>189.199996948</ele>
        <time>2015-12-09T14:05:10.509Z</time>
      </trkpt>
      <trkpt lat="45.86631" lon="4.71966">
        <ele>189.199996948</ele>
        <time>2015-12-09T14:05:11.495Z</time>
      </trkpt>
      <trkpt lat="45.86625" lon="4.71961">
        <ele>189.300003052</ele>
        <time>2015-12-09T14:05:12.508Z</time>
      </trkpt>
      <trkpt lat="45.8662" lon="4.71956">
        <ele>189.699996948</ele>
        <time>2015-12-09T14:05:13.493Z</time>
      </trkpt>
      <trkpt lat="45.86614" lon="4.71951">
        <ele>190.100006104</ele>
        <time>2015-12-09T14:05:14.507Z</time>
      </trkpt>
      <trkpt lat="45.86609" lon="4.71946">
        <ele>190.199996948</ele>
        <time>2015-12-09T14:05:15.493Z</time>
      </trkpt>
      <trkpt lat="45.86603" lon="4.71942">
        <ele>190.399993896</ele>
        <time>2015-12-09T14:05:16.511Z</time>
      </trkpt>
      <trkpt lat="45.86599" lon="4.71939">
        <ele>190.699996948</ele>
        <time>2015-12-09T14:05:17.494Z</time>
      </trkpt>
      <trkpt lat="45.86594" lon="4.71935">
        <ele>190.699996948</ele>
        <time>2015-12-09T14:05:18.637Z</time>
      </trkpt>
      <trkpt lat="45.86589" lon="4.71931">
        <ele>190.899993896</ele>
        <time>2015-12-09T14:05:19.493Z</time>
      </trkpt>
      <trkpt lat="45.86583" lon="4.71927">
        <ele>190.600006104</ele>
        <time>2015-12-09T14:05:20.507Z</time>
      </trkpt>
      <trkpt lat="45.86578" lon="4.71923">
        <ele>190.100006104</ele>
        <time>2015-12-09T14:05:21.507Z</time>
      </trkpt>
      <trkpt lat="45.86573" lon="4.7192">
        <ele>190.199996948</ele>
        <time>2015-12-09T14:05:22.51Z</time>
      </trkpt>
      <trkpt lat="45.86569" lon="4.71915">
        <ele>190.399993896</ele>
        <time>2015-12-09T14:05:23.493Z</time>
      </trkpt>
      <trkpt lat="45.86563" lon="4.71911">
        <ele>189.899993896</ele>
        <time>2015-12-09T14:05:24.508Z</time>
      </trkpt>
      <trkpt lat="45.86558" lon="4.71906">
        <ele>189.899993896</ele>
        <time>2015-12-09T14:05:25.493Z</time>
      </trkpt>
      <trkpt lat="45.86553" lon="4.71902">
        <ele>189.800003052</ele>
        <time>2015-12-09T14:05:26.508Z</time>
      </trkpt>
      <trkpt lat="45.86547" lon="4.71898">
        <ele>189.5</ele>
        <time>2015-12-09T14:05:27.492Z</time>
      </trkpt>
      <trkpt lat="45.86542" lon="4.71893">
        <ele>189.699996948</ele>
        <time>2015-12-09T14:05:28.509Z</time>
      </trkpt>
      <trkpt lat="45.86536" lon="4.71889">
        <ele>189.899993896</ele>
        <time>2015-12-09T14:05:29.492Z</time>
      </trkpt>
      <trkpt lat="45.86531" lon="4.71884">
        <ele>190.300003052</ele>
        <time>2015-12-09T14:05:30.509Z</time>
      </trkpt>
      <trkpt lat="45.86526" lon="4.71879">
        <ele>190.600006104</ele>
        <time>2015-12-09T14:05:31.492Z</time>
      </trkpt>
      <trkpt lat="45.86521" lon="4.71875">
        <ele>191</ele>
        <time>2015-12-09T14:05:32.508Z</time>
      </trkpt>
      <trkpt lat="45.86516" lon="4.71871">
        <ele>191.600006104</ele>
        <time>2015-12-09T14:05:33.493Z</time>
      </trkpt>
      <trkpt lat="45.86511" lon="4.71867">
        <ele>192</ele>
        <time>2015-12-09T14:05:34.508Z</time>
      </trkpt>
      <trkpt lat="45.86506" lon="4.71863">
        <ele>192.600006104</ele>
        <time>2015-12-09T14:05:35.493Z</time>
      </trkpt>
      <trkpt lat="45.86501" lon="4.71858">
        <ele>193</ele>
        <time>2015-12-09T14:05:36.509Z</time>
      </trkpt>
      <trkpt lat="45.86496" lon="4.71854">
        <ele>193.399993896</ele>
        <time>2015-12-09T14:05:37.493Z</time>
      </trkpt>
      <trkpt lat="45.86491" lon="4.7185">
        <ele>193.899993896</ele>
        <time>2015-12-09T14:05:38.507Z</time>
      </trkpt>
      <trkpt lat="45.86486" lon="4.71845">
        <ele>194.399993896</ele>
        <time>2015-12-09T14:05:39.493Z</time>
      </trkpt>
      <trkpt lat="45.8648" lon="4.71841">
        <ele>195</ele>
        <time>2015-12-09T14:05:40.509Z</time>
      </trkpt>
      <trkpt lat="45.86474" lon="4.71836">
        <ele>195.600006104</ele>
        <time>2015-12-09T14:05:41.492Z</time>
      </trkpt>
      <trkpt lat="45.86469" lon="4.71832">
        <ele>196.199996948</ele>
        <time>2015-12-09T14:05:42.524Z</time>
      </trkpt>
      <trkpt lat="45.86464" lon="4.71827">
        <ele>196.800003052</ele>
        <time>2015-12-09T14:05:43.492Z</time>
      </trkpt>
      <trkpt lat="45.86459" lon="4.71823">
        <ele>197.5</ele>
        <time>2015-12-09T14:05:44.508Z</time>
      </trkpt>
      <trkpt lat="45.86453" lon="4.71818">
        <ele>198</ele>
        <time>2015-12-09T14:05:45.493Z</time>
      </trkpt>
      <trkpt lat="45.86447" lon="4.71813">
        <ele>198.399993896</ele>
        <time>2015-12-09T14:05:46.511Z</time>
      </trkpt>
      <trkpt lat="45.86441" lon="4.71808">
        <ele>198.699996948</ele>
        <time>2015-12-09T14:05:47.492Z</time>
      </trkpt>
      <trkpt lat="45.86435" lon="4.71803">
        <ele>199.100006104</ele>
        <time>2015-12-09T14:05:48.763Z</time>
      </trkpt>
      <trkpt lat="45.8643" lon="4.71799">
        <ele>199.5</ele>
        <time>2015-12-09T14:05:49.493Z</time>
      </trkpt>
      <trkpt lat="45.86425" lon="4.71795">
        <ele>199.899993896</ele>
        <time>2015-12-09T14:05:50.516Z</time>
      </trkpt>
      <trkpt lat="45.86419" lon="4.71791">
        <ele>199.899993896</ele>
        <time>2015-12-09T14:05:51.492Z</time>
      </trkpt>
      <trkpt lat="45.86413" lon="4.71787">
        <ele>200</ele>
        <time>2015-12-09T14:05:52.51Z</time>
      </trkpt>
      <trkpt lat="45.86408" lon="4.71783">
        <ele>200.100006104</ele>
        <time>2015-12-09T14:05:53.493Z</time>
      </trkpt>
      <trkpt lat="45.86403" lon="4.71779">
        <ele>200</ele>
        <time>2015-12-09T14:05:54.508Z</time>
      </trkpt>
      <trkpt lat="45.86397" lon="4.71774">
        <ele>200.100006104</ele>
        <time>2015-12-09T14:05:55.492Z</time>
      </trkpt>
      <trkpt lat="45.86392" lon="4.7177">
        <ele>200.199996948</ele>
        <time>2015-12-09T14:05:56.508Z</time>
      </trkpt>
      <trkpt lat="45.86387" lon="4.71765">
        <ele>200</ele>
        <time>2015-12-09T14:05:57.493Z</time>
      </trkpt>
      <trkpt lat="45.86381" lon="4.71761">
        <ele>200.300003052</ele>
        <time>2015-12-09T14:05:58.524Z</time>
      </trkpt>
      <trkpt lat="45.86375" lon="4.71757">
        <ele>200.199996948</ele>
        <time>2015-12-09T14:05:59.492Z</time>
      </trkpt>
      <trkpt lat="45.86368" lon="4.71752">
        <ele>200</ele>
        <time>2015-12-09T14:06:00.509Z</time>
      </trkpt>
      <trkpt lat="45.86362" lon="4.71748">
        <ele>199.5</ele>
        <time>2015-12-09T14:06:01.493Z</time>
      </trkpt>
      <trkpt lat="45.86356" lon="4.71742">
        <ele>199.5</ele>
        <time>2015-12-09T14:06:02.507Z</time>
      </trkpt>
      <trkpt lat="45.86349" lon="4.71737">
        <ele>199.300003052</ele>
        <time>2015-12-09T14:06:03.493Z</time>
      </trkpt>
      <trkpt lat="45.86342" lon="4.71732">
        <ele>199</ele>
        <time>2015-12-09T14:06:04.51Z</time>
      </trkpt>
      <trkpt lat="45.86336" lon="4.71727">
        <ele>198.699996948</ele>
        <time>2015-12-09T14:06:05.493Z</time>
      </trkpt>
      <trkpt lat="45.86329" lon="4.71721">
        <ele>198.399993896</ele>
        <time>2015-12-09T14:06:06.508Z</time>
      </trkpt>
      <trkpt lat="45.86322" lon="4.71717">
        <ele>197.800003052</ele>
        <time>2015-12-09T14:06:07.492Z</time>
      </trkpt>
      <trkpt lat="45.86316" lon="4.71712">
        <ele>197.699996948</ele>
        <time>2015-12-09T14:06:08.507Z</time>
      </trkpt>
      <trkpt lat="45.8631" lon="4.71707">
        <ele>197.699996948</ele>
        <time>2015-12-09T14:06:09.493Z</time>
      </trkpt>
      <trkpt lat="45.86304" lon="4.71702">
        <ele>197.600006104</ele>
        <time>2015-12-09T14:06:10.51Z</time>
      </trkpt>
      <trkpt lat="45.86298" lon="4.71698">
        <ele>197.300003052</ele>
        <time>2015-12-09T14:06:11.494Z</time>
      </trkpt>
      <trkpt lat="45.86292" lon="4.71693">
        <ele>197.100006104</ele>
        <time>2015-12-09T14:06:12.509Z</time>
      </trkpt>
      <trkpt lat="45.86286" lon="4.71688">
        <ele>197</ele>
        <time>2015-12-09T14:06:13.493Z</time>
      </trkpt>
      <trkpt lat="45.86286" lon="4.71688">
        <ele>197</ele>
        <time>2015-12-09T14:06:13.509Z</time>
      </trkpt>
      <trkpt lat="45.86277" lon="4.71684">
        <ele>196.100006104</ele>
        <time>2015-12-09T14:06:14.506Z</time>
      </trkpt>
      <trkpt lat="45.86271" lon="4.71679">
        <ele>195.699996948</ele>
        <time>2015-12-09T14:06:15.508Z</time>
      </trkpt>
      <trkpt lat="45.86265" lon="4.71674">
        <ele>195.600006104</ele>
        <time>2015-12-09T14:06:16.495Z</time>
      </trkpt>
      <trkpt lat="45.86258" lon="4.7167">
        <ele>195.5</ele>
        <time>2015-12-09T14:06:17.508Z</time>
      </trkpt>
      <trkpt lat="45.86251" lon="4.71665">
        <ele>195.399993896</ele>
        <time>2015-12-09T14:06:18.493Z</time>
      </trkpt>
      <trkpt lat="45.86244" lon="4.71661">
        <ele>195</ele>
        <time>2015-12-09T14:06:19.507Z</time>
      </trkpt>
      <trkpt lat="45.86238" lon="4.71658">
        <ele>194.800003052</ele>
        <time>2015-12-09T14:06:20.492Z</time>
      </trkpt>
      <trkpt lat="45.86233" lon="4.71654">
        <ele>194.899993896</ele>
        <time>2015-12-09T14:06:21.507Z</time>
      </trkpt>
      <trkpt lat="45.86227" lon="4.71649">
        <ele>194.600006104</ele>
        <time>2015-12-09T14:06:22.494Z</time>
      </trkpt>
      <trkpt lat="45.86223" lon="4.71643">
        <ele>193.800003052</ele>
        <time>2015-12-09T14:06:23.507Z</time>
      </trkpt>
      <trkpt lat="45.8622" lon="4.71636">
        <ele>193.600006104</ele>
        <time>2015-12-09T14:06:24.493Z</time>
      </trkpt>
      <trkpt lat="45.86218" lon="4.71629">
        <ele>193.5</ele>
        <time>2015-12-09T14:06:25.521Z</time>
      </trkpt>
      <trkpt lat="45.86217" lon="4.71621">
        <ele>193.100006104</ele>
        <time>2015-12-09T14:06:26.494Z</time>
      </trkpt>
      <trkpt lat="45.86215" lon="4.71614">
        <ele>192.800003052</ele>
        <time>2015-12-09T14:06:27.507Z</time>
      </trkpt>
      <trkpt lat="45.86213" lon="4.71607">
        <ele>193</ele>
        <time>2015-12-09T14:06:28.494Z</time>
      </trkpt>
      <trkpt lat="45.8621" lon="4.71602">
        <ele>191.899993896</ele>
        <time>2015-12-09T14:06:29.507Z</time>
      </trkpt>
      <trkpt lat="45.86205" lon="4.71597">
        <ele>191.800003052</ele>
        <time>2015-12-09T14:06:30.495Z</time>
      </trkpt>
      <trkpt lat="45.86201" lon="4.71592">
        <ele>191.899993896</ele>
        <time>2015-12-09T14:06:31.509Z</time>
      </trkpt>
      <trkpt lat="45.86196" lon="4.71586">
        <ele>192.600006104</ele>
        <time>2015-12-09T14:06:32.494Z</time>
      </trkpt>
      <trkpt lat="45.86192" lon="4.7158">
        <ele>192.800003052</ele>
        <time>2015-12-09T14:06:33.508Z</time>
      </trkpt>
      <trkpt lat="45.86189" lon="4.71573">
        <ele>192.800003052</ele>
        <time>2015-12-09T14:06:34.496Z</time>
      </trkpt>
      <trkpt lat="45.86185" lon="4.71567">
        <ele>193.199996948</ele>
        <time>2015-12-09T14:06:35.507Z</time>
      </trkpt>
      <trkpt lat="45.86182" lon="4.71561">
        <ele>193.600006104</ele>
        <time>2015-12-09T14:06:36.493Z</time>
      </trkpt>
      <trkpt lat="45.86178" lon="4.71554">
        <ele>193.800003052</ele>
        <time>2015-12-09T14:06:37.506Z</time>
      </trkpt>
      <trkpt lat="45.86175" lon="4.71548">
        <ele>194</ele>
        <time>2015-12-09T14:06:38.492Z</time>
      </trkpt>
      <trkpt lat="45.86172" lon="4.71542">
        <ele>194.100006104</ele>
        <time>2015-12-09T14:06:39.507Z</time>
      </trkpt>
      <trkpt lat="45.86168" lon="4.71536">
        <ele>193.600006104</ele>
        <time>2015-12-09T14:06:40.495Z</time>
      </trkpt>
      <trkpt lat="45.86164" lon="4.7153">
        <ele>194</ele>
        <time>2015-12-09T14:06:41.521Z</time>
      </trkpt>
      <trkpt lat="45.86161" lon="4.71524">
        <ele>194.199996948</ele>
        <time>2015-12-09T14:06:42.493Z</time>
      </trkpt>
      <trkpt lat="45.86157" lon="4.71518">
        <ele>194.100006104</ele>
        <time>2015-12-09T14:06:43.506Z</time>
      </trkpt>
      <trkpt lat="45.86154" lon="4.71511">
        <ele>194.199996948</ele>
        <time>2015-12-09T14:06:44.492Z</time>
      </trkpt>
      <trkpt lat="45.86151" lon="4.71505">
        <ele>194.300003052</ele>
        <time>2015-12-09T14:06:45.507Z</time>
      </trkpt>
      <trkpt lat="45.86147" lon="4.71499">
        <ele>194.600006104</ele>
        <time>2015-12-09T14:06:46.495Z</time>
      </trkpt>
      <trkpt lat="45.86145" lon="4.71492">
        <ele>194.699996948</ele>
        <time>2015-12-09T14:06:47.507Z</time>
      </trkpt>
      <trkpt lat="45.86142" lon="4.71485">
        <ele>194.899993896</ele>
        <time>2015-12-09T14:06:48.493Z</time>
      </trkpt>
      <trkpt lat="45.8614" lon="4.71478">
        <ele>194.800003052</ele>
        <time>2015-12-09T14:06:49.506Z</time>
      </trkpt>
      <trkpt lat="45.86138" lon="4.71471">
        <ele>194.800003052</ele>
        <time>2015-12-09T14:06:50.492Z</time>
      </trkpt>
      <trkpt lat="45.86136" lon="4.71464">
        <ele>195</ele>
        <time>2015-12-09T14:06:51.507Z</time>
      </trkpt>
      <trkpt lat="45.86134" lon="4.71456">
        <ele>195.199996948</ele>
        <time>2015-12-09T14:06:52.496Z</time>
      </trkpt>
      <trkpt lat="45.86133" lon="4.71448">
        <ele>195.199996948</ele>
        <time>2015-12-09T14:06:53.507Z</time>
      </trkpt>
      <trkpt lat="45.86132" lon="4.7144">
        <ele>195.199996948</ele>
        <time>2015-12-09T14:06:54.493Z</time>
      </trkpt>
      <trkpt lat="45.8613" lon="4.71432">
        <ele>195</ele>
        <time>2015-12-09T14:06:55.507Z</time>
      </trkpt>
      <trkpt lat="45.86127" lon="4.71424">
        <ele>194</ele>
        <time>2015-12-09T14:06:56.493Z</time>
      </trkpt>
      <trkpt lat="45.86125" lon="4.71416">
        <ele>193.399993896</ele>
        <time>2015-12-09T14:06:57.521Z</time>
      </trkpt>
      <trkpt lat="45.86124" lon="4.71407">
        <ele>193</ele>
        <time>2015-12-09T14:06:58.495Z</time>
      </trkpt>
      <trkpt lat="45.86123" lon="4.71399">
        <ele>192.199996948</ele>
        <time>2015-12-09T14:06:59.506Z</time>
      </trkpt>
      <trkpt lat="45.86122" lon="4.71391">
        <ele>192.300003052</ele>
        <time>2015-12-09T14:07:00.492Z</time>
      </trkpt>
      <trkpt lat="45.86121" lon="4.71384">
        <ele>192.5</ele>
        <time>2015-12-09T14:07:01.506Z</time>
      </trkpt>
      <trkpt lat="45.8612" lon="4.71376">
        <ele>192.5</ele>
        <time>2015-12-09T14:07:02.493Z</time>
      </trkpt>
      <trkpt lat="45.86119" lon="4.7137">
        <ele>192.699996948</ele>
        <time>2015-12-09T14:07:03.506Z</time>
      </trkpt>
      <trkpt lat="45.86118" lon="4.71363">
        <ele>192.800003052</ele>
        <time>2015-12-09T14:07:04.495Z</time>
      </trkpt>
      <trkpt lat="45.86117" lon="4.71356">
        <ele>192.5</ele>
        <time>2015-12-09T14:07:05.506Z</time>
      </trkpt>
      <trkpt lat="45.86117" lon="4.71349">
        <ele>192.199996948</ele>
        <time>2015-12-09T14:07:06.492Z</time>
      </trkpt>
      <trkpt lat="45.86116" lon="4.71341">
        <ele>191.800003052</ele>
        <time>2015-12-09T14:07:07.506Z</time>
      </trkpt>
      <trkpt lat="45.86115" lon="4.71334">
        <ele>191.300003052</ele>
        <time>2015-12-09T14:07:08.493Z</time>
      </trkpt>
      <trkpt lat="45.86113" lon="4.71326">
        <ele>190.699996948</ele>
        <time>2015-12-09T14:07:09.506Z</time>
      </trkpt>
      <trkpt lat="45.86112" lon="4.71318">
        <ele>190.5</ele>
        <time>2015-12-09T14:07:10.495Z</time>
      </trkpt>
      <trkpt lat="45.8611" lon="4.71311">
        <ele>191</ele>
        <time>2015-12-09T14:07:11.509Z</time>
      </trkpt>
      <trkpt lat="45.86108" lon="4.71303">
        <ele>191.5</ele>
        <time>2015-12-09T14:07:12.503Z</time>
      </trkpt>
      <trkpt lat="45.86107" lon="4.71295">
        <ele>192</ele>
        <time>2015-12-09T14:07:13.521Z</time>
      </trkpt>
      <trkpt lat="45.86106" lon="4.71288">
        <ele>192.100006104</ele>
        <time>2015-12-09T14:07:14.492Z</time>
      </trkpt>
      <trkpt lat="45.86105" lon="4.71282">
        <ele>192.399993896</ele>
        <time>2015-12-09T14:07:15.58Z</time>
      </trkpt>
      <trkpt lat="45.86104" lon="4.71275">
        <ele>192.699996948</ele>
        <time>2015-12-09T14:07:16.495Z</time>
      </trkpt>
      <trkpt lat="45.86101" lon="4.71269">
        <ele>193.100006104</ele>
        <time>2015-12-09T14:07:17.507Z</time>
      </trkpt>
      <trkpt lat="45.86098" lon="4.71264">
        <ele>193.399993896</ele>
        <time>2015-12-09T14:07:18.493Z</time>
      </trkpt>
      <trkpt lat="45.86094" lon="4.71259">
        <ele>192.5</ele>
        <time>2015-12-09T14:07:19.507Z</time>
      </trkpt>
      <trkpt lat="45.86091" lon="4.71254">
        <ele>192</ele>
        <time>2015-12-09T14:07:20.492Z</time>
      </trkpt>
      <trkpt lat="45.86087" lon="4.71249">
        <ele>191.399993896</ele>
        <time>2015-12-09T14:07:21.507Z</time>
      </trkpt>
      <trkpt lat="45.86086" lon="4.71242">
        <ele>191.399993896</ele>
        <time>2015-12-09T14:07:22.495Z</time>
      </trkpt>
      <trkpt lat="45.86086" lon="4.71234">
        <ele>191.800003052</ele>
        <time>2015-12-09T14:07:23.513Z</time>
      </trkpt>
      <trkpt lat="45.86086" lon="4.71227">
        <ele>191.899993896</ele>
        <time>2015-12-09T14:07:24.493Z</time>
      </trkpt>
      <trkpt lat="45.86088" lon="4.7122">
        <ele>192.100006104</ele>
        <time>2015-12-09T14:07:25.507Z</time>
      </trkpt>
      <trkpt lat="45.86089" lon="4.71213">
        <ele>192.199996948</ele>
        <time>2015-12-09T14:07:26.492Z</time>
      </trkpt>
      <trkpt lat="45.8609" lon="4.71206">
        <ele>192.5</ele>
        <time>2015-12-09T14:07:27.506Z</time>
      </trkpt>
      <trkpt lat="45.86091" lon="4.71199">
        <ele>192.5</ele>
        <time>2015-12-09T14:07:28.495Z</time>
      </trkpt>
      <trkpt lat="45.86092" lon="4.71191">
        <ele>192.699996948</ele>
        <time>2015-12-09T14:07:29.52Z</time>
      </trkpt>
      <trkpt lat="45.86093" lon="4.71184">
        <ele>192.800003052</ele>
        <time>2015-12-09T14:07:30.493Z</time>
      </trkpt>
      <trkpt lat="45.86094" lon="4.71176">
        <ele>192.800003052</ele>
        <time>2015-12-09T14:07:31.506Z</time>
      </trkpt>
      <trkpt lat="45.86095" lon="4.71168">
        <ele>192.5</ele>
        <time>2015-12-09T14:07:32.492Z</time>
      </trkpt>
      <trkpt lat="45.86095" lon="4.71161">
        <ele>192.399993896</ele>
        <time>2015-12-09T14:07:33.506Z</time>
      </trkpt>
      <trkpt lat="45.86095" lon="4.71153">
        <ele>192.800003052</ele>
        <time>2015-12-09T14:07:34.495Z</time>
      </trkpt>
      <trkpt lat="45.86095" lon="4.71146">
        <ele>192.699996948</ele>
        <time>2015-12-09T14:07:35.507Z</time>
      </trkpt>
      <trkpt lat="45.86094" lon="4.71139">
        <ele>192.899993896</ele>
        <time>2015-12-09T14:07:36.493Z</time>
      </trkpt>
      <trkpt lat="45.8609" lon="4.71129">
        <ele>193</ele>
        <time>2015-12-09T14:07:38.506Z</time>
      </trkpt>
      <trkpt lat="45.86086" lon="4.71125">
        <ele>193</ele>
        <time>2015-12-09T14:07:39.493Z</time>
      </trkpt>
      <trkpt lat="45.8608" lon="4.71122">
        <ele>193.5</ele>
        <time>2015-12-09T14:07:40.51Z</time>
      </trkpt>
      <trkpt lat="45.86075" lon="4.71119">
        <ele>193.800003052</ele>
        <time>2015-12-09T14:07:41.492Z</time>
      </trkpt>
      <trkpt lat="45.8607" lon="4.71114">
        <ele>194.100006104</ele>
        <time>2015-12-09T14:07:42.507Z</time>
      </trkpt>
      <trkpt lat="45.86066" lon="4.7111">
        <ele>194.300003052</ele>
        <time>2015-12-09T14:07:43.492Z</time>
      </trkpt>
      <trkpt lat="45.86062" lon="4.71104">
        <ele>194.600006104</ele>
        <time>2015-12-09T14:07:44.505Z</time>
      </trkpt>
      <trkpt lat="45.86059" lon="4.71098">
        <ele>194.800003052</ele>
        <time>2015-12-09T14:07:45.492Z</time>
      </trkpt>
      <trkpt lat="45.86056" lon="4.71092">
        <ele>195</ele>
        <time>2015-12-09T14:07:46.508Z</time>
      </trkpt>
      <trkpt lat="45.86052" lon="4.71085">
        <ele>195.199996948</ele>
        <time>2015-12-09T14:07:47.492Z</time>
      </trkpt>
      <trkpt lat="45.86049" lon="4.71077">
        <ele>195.199996948</ele>
        <time>2015-12-09T14:07:48.508Z</time>
      </trkpt>
      <trkpt lat="45.86047" lon="4.71069">
        <ele>195.300003052</ele>
        <time>2015-12-09T14:07:49.492Z</time>
      </trkpt>
      <trkpt lat="45.86047" lon="4.7106">
        <ele>195.300003052</ele>
        <time>2015-12-09T14:07:50.506Z</time>
      </trkpt>
      <trkpt lat="45.86046" lon="4.71051">
        <ele>195</ele>
        <time>2015-12-09T14:07:51.492Z</time>
      </trkpt>
      <trkpt lat="45.86044" lon="4.71042">
        <ele>195.399993896</ele>
        <time>2015-12-09T14:07:52.509Z</time>
      </trkpt>
      <trkpt lat="45.86041" lon="4.71034">
        <ele>195.699996948</ele>
        <time>2015-12-09T14:07:53.492Z</time>
      </trkpt>
      <trkpt lat="45.86036" lon="4.71026">
        <ele>194.5</ele>
        <time>2015-12-09T14:07:54.507Z</time>
      </trkpt>
      <trkpt lat="45.86033" lon="4.7102">
        <ele>193.899993896</ele>
        <time>2015-12-09T14:07:55.492Z</time>
      </trkpt>
      <trkpt lat="45.86029" lon="4.71014">
        <ele>193</ele>
        <time>2015-12-09T14:07:56.507Z</time>
      </trkpt>
      <trkpt lat="45.86025" lon="4.71009">
        <ele>193.100006104</ele>
        <time>2015-12-09T14:07:57.492Z</time>
      </trkpt>
      <trkpt lat="45.86021" lon="4.71005">
        <ele>193</ele>
        <time>2015-12-09T14:07:58.509Z</time>
      </trkpt>
      <trkpt lat="45.86017" lon="4.70999">
        <ele>193</ele>
        <time>2015-12-09T14:07:59.492Z</time>
      </trkpt>
      <trkpt lat="45.86012" lon="4.70994">
        <ele>193</ele>
        <time>2015-12-09T14:08:00.508Z</time>
      </trkpt>
      <trkpt lat="45.86008" lon="4.70989">
        <ele>193.300003052</ele>
        <time>2015-12-09T14:08:01.529Z</time>
      </trkpt>
      <trkpt lat="45.86002" lon="4.70985">
        <ele>193.399993896</ele>
        <time>2015-12-09T14:08:02.507Z</time>
      </trkpt>
      <trkpt lat="45.85997" lon="4.70981">
        <ele>193.399993896</ele>
        <time>2015-12-09T14:08:03.492Z</time>
      </trkpt>
      <trkpt lat="45.85991" lon="4.70978">
        <ele>193.5</ele>
        <time>2015-12-09T14:08:04.509Z</time>
      </trkpt>
      <trkpt lat="45.85985" lon="4.70975">
        <ele>193.5</ele>
        <time>2015-12-09T14:08:05.492Z</time>
      </trkpt>
      <trkpt lat="45.85979" lon="4.70973">
        <ele>193.100006104</ele>
        <time>2015-12-09T14:08:06.526Z</time>
      </trkpt>
      <trkpt lat="45.85973" lon="4.70971">
        <ele>192.800003052</ele>
        <time>2015-12-09T14:08:07.492Z</time>
      </trkpt>
      <trkpt lat="45.85968" lon="4.70969">
        <ele>192.399993896</ele>
        <time>2015-12-09T14:08:08.506Z</time>
      </trkpt>
      <trkpt lat="45.85962" lon="4.70967">
        <ele>192.300003052</ele>
        <time>2015-12-09T14:08:09.492Z</time>
      </trkpt>
      <trkpt lat="45.85957" lon="4.70967">
        <ele>192.199996948</ele>
        <time>2015-12-09T14:08:10.509Z</time>
      </trkpt>
      <trkpt lat="45.85952" lon="4.70966">
        <ele>192.100006104</ele>
        <time>2015-12-09T14:08:11.494Z</time>
      </trkpt>
      <trkpt lat="45.85944" lon="4.70962">
        <ele>192</ele>
        <time>2015-12-09T14:08:13.506Z</time>
      </trkpt>
      <trkpt lat="45.85942" lon="4.70957">
        <ele>191.699996948</ele>
        <time>2015-12-09T14:08:14.492Z</time>
      </trkpt>
      <trkpt lat="45.85944" lon="4.70947">
        <ele>191.5</ele>
        <time>2015-12-09T14:08:16.509Z</time>
      </trkpt>
      <trkpt lat="45.85946" lon="4.70941">
        <ele>191.600006104</ele>
        <time>2015-12-09T14:08:17.492Z</time>
      </trkpt>
      <trkpt lat="45.85948" lon="4.70934">
        <ele>191.800003052</ele>
        <time>2015-12-09T14:08:18.529Z</time>
      </trkpt>
      <trkpt lat="45.85951" lon="4.70927">
        <ele>191.899993896</ele>
        <time>2015-12-09T14:08:19.492Z</time>
      </trkpt>
      <trkpt lat="45.85954" lon="4.70919">
        <ele>191.899993896</ele>
        <time>2015-12-09T14:08:20.506Z</time>
      </trkpt>
      <trkpt lat="45.85956" lon="4.70911">
        <ele>191.699996948</ele>
        <time>2015-12-09T14:08:21.492Z</time>
      </trkpt>
      <trkpt lat="45.85958" lon="4.70903">
        <ele>191.5</ele>
        <time>2015-12-09T14:08:22.523Z</time>
      </trkpt>
      <trkpt lat="45.85959" lon="4.70895">
        <ele>191.399993896</ele>
        <time>2015-12-09T14:08:23.492Z</time>
      </trkpt>
      <trkpt lat="45.85961" lon="4.70887">
        <ele>191.399993896</ele>
        <time>2015-12-09T14:08:24.507Z</time>
      </trkpt>
      <trkpt lat="45.85962" lon="4.70879">
        <ele>190.899993896</ele>
        <time>2015-12-09T14:08:25.492Z</time>
      </trkpt>
      <trkpt lat="45.85965" lon="4.70871">
        <ele>190.5</ele>
        <time>2015-12-09T14:08:26.506Z</time>
      </trkpt>
      <trkpt lat="45.85965" lon="4.70863">
        <ele>191.199996948</ele>
        <time>2015-12-09T14:08:27.492Z</time>
      </trkpt>
      <trkpt lat="45.85965" lon="4.70855">
        <ele>191</ele>
        <time>2015-12-09T14:08:28.512Z</time>
      </trkpt>
      <trkpt lat="45.85965" lon="4.70847">
        <ele>191.399993896</ele>
        <time>2015-12-09T14:08:29.492Z</time>
      </trkpt>
      <trkpt lat="45.85966" lon="4.7084">
        <ele>191.199996948</ele>
        <time>2015-12-09T14:08:30.507Z</time>
      </trkpt>
      <trkpt lat="45.85965" lon="4.70833">
        <ele>191</ele>
        <time>2015-12-09T14:08:31.492Z</time>
      </trkpt>
      <trkpt lat="45.85965" lon="4.70826">
        <ele>190.699996948</ele>
        <time>2015-12-09T14:08:32.507Z</time>
      </trkpt>
      <trkpt lat="45.85964" lon="4.70819">
        <ele>190.5</ele>
        <time>2015-12-09T14:08:33.492Z</time>
      </trkpt>
      <trkpt lat="45.85963" lon="4.70812">
        <ele>190.199996948</ele>
        <time>2015-12-09T14:08:34.509Z</time>
      </trkpt>
      <trkpt lat="45.8596" lon="4.70805">
        <ele>189.899993896</ele>
        <time>2015-12-09T14:08:35.492Z</time>
      </trkpt>
      <trkpt lat="45.85959" lon="4.70799">
        <ele>190</ele>
        <time>2015-12-09T14:08:36.507Z</time>
      </trkpt>
      <trkpt lat="45.85958" lon="4.70792">
        <ele>190.5</ele>
        <time>2015-12-09T14:08:37.492Z</time>
      </trkpt>
      <trkpt lat="45.85959" lon="4.70786">
        <ele>190.899993896</ele>
        <time>2015-12-09T14:08:38.52Z</time>
      </trkpt>
      <trkpt lat="45.85959" lon="4.70779">
        <ele>191.199996948</ele>
        <time>2015-12-09T14:08:39.492Z</time>
      </trkpt>
      <trkpt lat="45.8596" lon="4.70771">
        <ele>191.199996948</ele>
        <time>2015-12-09T14:08:40.509Z</time>
      </trkpt>
      <trkpt lat="45.8596" lon="4.70763">
        <ele>190.899993896</ele>
        <time>2015-12-09T14:08:41.492Z</time>
      </trkpt>
      <trkpt lat="45.85961" lon="4.70756">
        <ele>190.600006104</ele>
        <time>2015-12-09T14:08:42.507Z</time>
      </trkpt>
      <trkpt lat="45.85961" lon="4.70749">
        <ele>190.399993896</ele>
        <time>2015-12-09T14:08:43.492Z</time>
      </trkpt>
      <trkpt lat="45.85962" lon="4.70742">
        <ele>190.100006104</ele>
        <time>2015-12-09T14:08:44.506Z</time>
      </trkpt>
      <trkpt lat="45.85963" lon="4.70735">
        <ele>190</ele>
        <time>2015-12-09T14:08:45.492Z</time>
      </trkpt>
      <trkpt lat="45.85964" lon="4.70728">
        <ele>190.100006104</ele>
        <time>2015-12-09T14:08:46.509Z</time>
      </trkpt>
      <trkpt lat="45.85964" lon="4.70722">
        <ele>190.300003052</ele>
        <time>2015-12-09T14:08:47.492Z</time>
      </trkpt>
      <trkpt lat="45.85965" lon="4.70711">
        <ele>190.5</ele>
        <time>2015-12-09T14:08:49.507Z</time>
      </trkpt>
      <trkpt lat="45.85965" lon="4.70706">
        <ele>190.399993896</ele>
        <time>2015-12-09T14:08:50.492Z</time>
      </trkpt>
      <trkpt lat="45.85965" lon="4.70696">
        <ele>191</ele>
        <time>2015-12-09T14:08:53.506Z</time>
      </trkpt>
      <trkpt lat="45.85965" lon="4.70695">
        <ele>191.5</ele>
        <time>2015-12-09T14:08:54.493Z</time>
      </trkpt>
      <trkpt lat="45.85967" lon="4.7069">
        <ele>192.899993896</ele>
        <time>2015-12-09T14:09:05.506Z</time>
      </trkpt>
      <trkpt lat="45.85968" lon="4.7069">
        <ele>193</ele>
        <time>2015-12-09T14:09:06.493Z</time>
      </trkpt>
      <trkpt lat="45.85965" lon="4.70679">
        <ele>193.800003052</ele>
        <time>2015-12-09T14:11:24.507Z</time>
      </trkpt>
      <trkpt lat="45.85964" lon="4.70677">
        <ele>193.699996948</ele>
        <time>2015-12-09T14:11:25.491Z</time>
      </trkpt>
      <trkpt lat="45.85957" lon="4.70669">
        <ele>193.399993896</ele>
        <time>2015-12-09T14:11:28.508Z</time>
      </trkpt>
      <trkpt lat="45.85955" lon="4.70664">
        <ele>193.300003052</ele>
        <time>2015-12-09T14:11:29.493Z</time>
      </trkpt>
      <trkpt lat="45.85949" lon="4.70655">
        <ele>192.899993896</ele>
        <time>2015-12-09T14:11:31.505Z</time>
      </trkpt>
      <trkpt lat="45.85946" lon="4.70649">
        <ele>192.899993896</ele>
        <time>2015-12-09T14:11:32.491Z</time>
      </trkpt>
      <trkpt lat="45.85943" lon="4.70644">
        <ele>192.699996948</ele>
        <time>2015-12-09T14:11:33.505Z</time>
      </trkpt>
      <trkpt lat="45.85939" lon="4.70639">
        <ele>192.5</ele>
        <time>2015-12-09T14:11:34.494Z</time>
      </trkpt>
      <trkpt lat="45.85936" lon="4.70633">
        <ele>192.199996948</ele>
        <time>2015-12-09T14:11:35.507Z</time>
      </trkpt>
      <trkpt lat="45.85933" lon="4.70627">
        <ele>192.100006104</ele>
        <time>2015-12-09T14:11:36.511Z</time>
      </trkpt>
      <trkpt lat="45.8593" lon="4.70621">
        <ele>191.899993896</ele>
        <time>2015-12-09T14:11:37.507Z</time>
      </trkpt>
      <trkpt lat="45.85926" lon="4.70615">
        <ele>191.800003052</ele>
        <time>2015-12-09T14:11:38.493Z</time>
      </trkpt>
      <trkpt lat="45.85923" lon="4.7061">
        <ele>191.5</ele>
        <time>2015-12-09T14:11:39.507Z</time>
      </trkpt>
      <trkpt lat="45.85919" lon="4.70604">
        <ele>191.399993896</ele>
        <time>2015-12-09T14:11:40.493Z</time>
      </trkpt>
      <trkpt lat="45.85915" lon="4.70598">
        <ele>191.199996948</ele>
        <time>2015-12-09T14:11:41.505Z</time>
      </trkpt>
      <trkpt lat="45.85912" lon="4.70592">
        <ele>191.199996948</ele>
        <time>2015-12-09T14:11:42.492Z</time>
      </trkpt>
      <trkpt lat="45.85908" lon="4.70587">
        <ele>190.899993896</ele>
        <time>2015-12-09T14:11:43.505Z</time>
      </trkpt>
      <trkpt lat="45.85903" lon="4.70583">
        <ele>190.699996948</ele>
        <time>2015-12-09T14:11:44.491Z</time>
      </trkpt>
      <trkpt lat="45.85898" lon="4.7058">
        <ele>190.600006104</ele>
        <time>2015-12-09T14:11:45.505Z</time>
      </trkpt>
      <trkpt lat="45.85893" lon="4.70578">
        <ele>190.399993896</ele>
        <time>2015-12-09T14:11:46.494Z</time>
      </trkpt>
      <trkpt lat="45.85888" lon="4.70576">
        <ele>190.199996948</ele>
        <time>2015-12-09T14:11:47.519Z</time>
      </trkpt>
      <trkpt lat="45.85882" lon="4.70575">
        <ele>190</ele>
        <time>2015-12-09T14:11:48.492Z</time>
      </trkpt>
      <trkpt lat="45.85877" lon="4.70574">
        <ele>189.899993896</ele>
        <time>2015-12-09T14:11:49.505Z</time>
      </trkpt>
      <trkpt lat="45.85871" lon="4.70572">
        <ele>189.800003052</ele>
        <time>2015-12-09T14:11:50.491Z</time>
      </trkpt>
      <trkpt lat="45.85866" lon="4.7057">
        <ele>189.699996948</ele>
        <time>2015-12-09T14:11:51.505Z</time>
      </trkpt>
      <trkpt lat="45.8586" lon="4.70568">
        <ele>189.600006104</ele>
        <time>2015-12-09T14:11:52.543Z</time>
      </trkpt>
      <trkpt lat="45.85854" lon="4.70566">
        <ele>189.5</ele>
        <time>2015-12-09T14:11:53.506Z</time>
      </trkpt>
      <trkpt lat="45.85849" lon="4.70563">
        <ele>189.5</ele>
        <time>2015-12-09T14:11:54.492Z</time>
      </trkpt>
      <trkpt lat="45.85844" lon="4.70561">
        <ele>189.600006104</ele>
        <time>2015-12-09T14:11:55.505Z</time>
      </trkpt>
      <trkpt lat="45.85839" lon="4.70557">
        <ele>189.699996948</ele>
        <time>2015-12-09T14:11:56.491Z</time>
      </trkpt>
      <trkpt lat="45.85834" lon="4.70554">
        <ele>189.800003052</ele>
        <time>2015-12-09T14:11:57.505Z</time>
      </trkpt>
      <trkpt lat="45.85828" lon="4.70551">
        <ele>189.800003052</ele>
        <time>2015-12-09T14:11:58.494Z</time>
      </trkpt>
      <trkpt lat="45.85822" lon="4.70549">
        <ele>189.5</ele>
        <time>2015-12-09T14:11:59.505Z</time>
      </trkpt>
      <trkpt lat="45.85816" lon="4.70546">
        <ele>189.100006104</ele>
        <time>2015-12-09T14:12:00.492Z</time>
      </trkpt>
      <trkpt lat="45.85811" lon="4.70544">
        <ele>189.100006104</ele>
        <time>2015-12-09T14:12:01.505Z</time>
      </trkpt>
      <trkpt lat="45.85806" lon="4.70541">
        <ele>189.199996948</ele>
        <time>2015-12-09T14:12:02.491Z</time>
      </trkpt>
      <trkpt lat="45.85801" lon="4.70539">
        <ele>189.199996948</ele>
        <time>2015-12-09T14:12:03.518Z</time>
      </trkpt>
      <trkpt lat="45.85796" lon="4.70536">
        <ele>189.100006104</ele>
        <time>2015-12-09T14:12:04.494Z</time>
      </trkpt>
      <trkpt lat="45.85791" lon="4.70532">
        <ele>189</ele>
        <time>2015-12-09T14:12:05.505Z</time>
      </trkpt>
      <trkpt lat="45.85786" lon="4.70529">
        <ele>189</ele>
        <time>2015-12-09T14:12:06.492Z</time>
      </trkpt>
      <trkpt lat="45.85781" lon="4.70527">
        <ele>188.800003052</ele>
        <time>2015-12-09T14:12:07.505Z</time>
      </trkpt>
      <trkpt lat="45.85775" lon="4.70524">
        <ele>188.899993896</ele>
        <time>2015-12-09T14:12:08.491Z</time>
      </trkpt>
      <trkpt lat="45.8577" lon="4.7052">
        <ele>189</ele>
        <time>2015-12-09T14:12:09.505Z</time>
      </trkpt>
      <trkpt lat="45.85765" lon="4.70516">
        <ele>189.100006104</ele>
        <time>2015-12-09T14:12:10.494Z</time>
      </trkpt>
      <trkpt lat="45.85761" lon="4.70512">
        <ele>188.899993896</ele>
        <time>2015-12-09T14:12:11.508Z</time>
      </trkpt>
      <trkpt lat="45.85756" lon="4.70508">
        <ele>188.699996948</ele>
        <time>2015-12-09T14:12:12.492Z</time>
      </trkpt>
      <trkpt lat="45.85751" lon="4.70504">
        <ele>188.600006104</ele>
        <time>2015-12-09T14:12:13.539Z</time>
      </trkpt>
      <trkpt lat="45.85747" lon="4.705">
        <ele>188.5</ele>
        <time>2015-12-09T14:12:14.491Z</time>
      </trkpt>
      <trkpt lat="45.85743" lon="4.70496">
        <ele>188.5</ele>
        <time>2015-12-09T14:12:15.506Z</time>
      </trkpt>
      <trkpt lat="45.85739" lon="4.70491">
        <ele>188.600006104</ele>
        <time>2015-12-09T14:12:16.494Z</time>
      </trkpt>
      <trkpt lat="45.85736" lon="4.70485">
        <ele>188.699996948</ele>
        <time>2015-12-09T14:12:17.505Z</time>
      </trkpt>
      <trkpt lat="45.85732" lon="4.7048">
        <ele>188.899993896</ele>
        <time>2015-12-09T14:12:18.492Z</time>
      </trkpt>
      <trkpt lat="45.8573" lon="4.70474">
        <ele>188.899993896</ele>
        <time>2015-12-09T14:12:19.506Z</time>
      </trkpt>
      <trkpt lat="45.85727" lon="4.70468">
        <ele>188.800003052</ele>
        <time>2015-12-09T14:12:20.491Z</time>
      </trkpt>
      <trkpt lat="45.85726" lon="4.70461">
        <ele>188.600006104</ele>
        <time>2015-12-09T14:12:21.505Z</time>
      </trkpt>
      <trkpt lat="45.85725" lon="4.70454">
        <ele>188.399993896</ele>
        <time>2015-12-09T14:12:22.494Z</time>
      </trkpt>
      <trkpt lat="45.85723" lon="4.70447">
        <ele>188.100006104</ele>
        <time>2015-12-09T14:12:23.539Z</time>
      </trkpt>
      <trkpt lat="45.85722" lon="4.70439">
        <ele>188.199996948</ele>
        <time>2015-12-09T14:12:24.506Z</time>
      </trkpt>
      <trkpt lat="45.85721" lon="4.70431">
        <ele>188.199996948</ele>
        <time>2015-12-09T14:12:25.505Z</time>
      </trkpt>
      <trkpt lat="45.8572" lon="4.70424">
        <ele>188.5</ele>
        <time>2015-12-09T14:12:26.492Z</time>
      </trkpt>
      <trkpt lat="45.85718" lon="4.70416">
        <ele>188.699996948</ele>
        <time>2015-12-09T14:12:27.505Z</time>
      </trkpt>
      <trkpt lat="45.85718" lon="4.70408">
        <ele>188.5</ele>
        <time>2015-12-09T14:12:28.494Z</time>
      </trkpt>
      <trkpt lat="45.85716" lon="4.704">
        <ele>188.800003052</ele>
        <time>2015-12-09T14:12:29.505Z</time>
      </trkpt>
      <trkpt lat="45.85715" lon="4.70392">
        <ele>188.899993896</ele>
        <time>2015-12-09T14:12:30.492Z</time>
      </trkpt>
      <trkpt lat="45.85714" lon="4.70385">
        <ele>189</ele>
        <time>2015-12-09T14:12:31.505Z</time>
      </trkpt>
      <trkpt lat="45.85714" lon="4.70377">
        <ele>189</ele>
        <time>2015-12-09T14:12:32.491Z</time>
      </trkpt>
      <trkpt lat="45.85713" lon="4.70369">
        <ele>189.5</ele>
        <time>2015-12-09T14:12:33.505Z</time>
      </trkpt>
      <trkpt lat="45.85712" lon="4.7036">
        <ele>189.300003052</ele>
        <time>2015-12-09T14:12:34.494Z</time>
      </trkpt>
      <trkpt lat="45.85712" lon="4.70351">
        <ele>189.5</ele>
        <time>2015-12-09T14:12:35.519Z</time>
      </trkpt>
      <trkpt lat="45.85711" lon="4.70343">
        <ele>189.600006104</ele>
        <time>2015-12-09T14:12:36.492Z</time>
      </trkpt>
      <trkpt lat="45.85709" lon="4.70334">
        <ele>189.600006104</ele>
        <time>2015-12-09T14:12:37.505Z</time>
      </trkpt>
      <trkpt lat="45.85709" lon="4.70325">
        <ele>189.899993896</ele>
        <time>2015-12-09T14:12:38.491Z</time>
      </trkpt>
      <trkpt lat="45.85708" lon="4.70316">
        <ele>190.300003052</ele>
        <time>2015-12-09T14:12:39.505Z</time>
      </trkpt>
      <trkpt lat="45.85707" lon="4.70307">
        <ele>190.399993896</ele>
        <time>2015-12-09T14:12:40.494Z</time>
      </trkpt>
      <trkpt lat="45.85707" lon="4.70298">
        <ele>190.100006104</ele>
        <time>2015-12-09T14:12:41.505Z</time>
      </trkpt>
      <trkpt lat="45.85705" lon="4.70289">
        <ele>190.699996948</ele>
        <time>2015-12-09T14:12:42.492Z</time>
      </trkpt>
      <trkpt lat="45.85704" lon="4.7028">
        <ele>191.199996948</ele>
        <time>2015-12-09T14:12:43.505Z</time>
      </trkpt>
      <trkpt lat="45.85703" lon="4.70271">
        <ele>191.399993896</ele>
        <time>2015-12-09T14:12:44.491Z</time>
      </trkpt>
      <trkpt lat="45.85702" lon="4.70263">
        <ele>191.300003052</ele>
        <time>2015-12-09T14:12:45.505Z</time>
      </trkpt>
      <trkpt lat="45.85701" lon="4.70254">
        <ele>191.399993896</ele>
        <time>2015-12-09T14:12:46.532Z</time>
      </trkpt>
      <trkpt lat="45.857" lon="4.70245">
        <ele>191.399993896</ele>
        <time>2015-12-09T14:12:47.506Z</time>
      </trkpt>
      <trkpt lat="45.85699" lon="4.70236">
        <ele>191.199996948</ele>
        <time>2015-12-09T14:12:48.492Z</time>
      </trkpt>
      <trkpt lat="45.85698" lon="4.70228">
        <ele>191.5</ele>
        <time>2015-12-09T14:12:49.506Z</time>
      </trkpt>
      <trkpt lat="45.85697" lon="4.70219">
        <ele>191.300003052</ele>
        <time>2015-12-09T14:12:50.491Z</time>
      </trkpt>
      <trkpt lat="45.85696" lon="4.7021">
        <ele>191.600006104</ele>
        <time>2015-12-09T14:12:51.52Z</time>
      </trkpt>
      <trkpt lat="45.85695" lon="4.70201">
        <ele>191.899993896</ele>
        <time>2015-12-09T14:12:52.494Z</time>
      </trkpt>
      <trkpt lat="45.85694" lon="4.70192">
        <ele>192.300003052</ele>
        <time>2015-12-09T14:12:53.505Z</time>
      </trkpt>
      <trkpt lat="45.85693" lon="4.70183">
        <ele>191.899993896</ele>
        <time>2015-12-09T14:12:54.492Z</time>
      </trkpt>
      <trkpt lat="45.85691" lon="4.70174">
        <ele>192.100006104</ele>
        <time>2015-12-09T14:12:55.505Z</time>
      </trkpt>
      <trkpt lat="45.85689" lon="4.70165">
        <ele>192.300003052</ele>
        <time>2015-12-09T14:12:56.491Z</time>
      </trkpt>
      <trkpt lat="45.85687" lon="4.70157">
        <ele>192.899993896</ele>
        <time>2015-12-09T14:12:57.505Z</time>
      </trkpt>
      <trkpt lat="45.85685" lon="4.70148">
        <ele>193</ele>
        <time>2015-12-09T14:12:58.494Z</time>
      </trkpt>
      <trkpt lat="45.85683" lon="4.7014">
        <ele>192.899993896</ele>
        <time>2015-12-09T14:12:59.505Z</time>
      </trkpt>
      <trkpt lat="45.85682" lon="4.70131">
        <ele>193</ele>
        <time>2015-12-09T14:13:00.492Z</time>
      </trkpt>
      <trkpt lat="45.85681" lon="4.70123">
        <ele>193.199996948</ele>
        <time>2015-12-09T14:13:01.509Z</time>
      </trkpt>
      <trkpt lat="45.85681" lon="4.70114">
        <ele>193.800003052</ele>
        <time>2015-12-09T14:13:02.491Z</time>
      </trkpt>
      <trkpt lat="45.8568" lon="4.70105">
        <ele>194.100006104</ele>
        <time>2015-12-09T14:13:03.505Z</time>
      </trkpt>
      <trkpt lat="45.8568" lon="4.70097">
        <ele>194.300003052</ele>
        <time>2015-12-09T14:13:04.494Z</time>
      </trkpt>
      <trkpt lat="45.85681" lon="4.70088">
        <ele>194.800003052</ele>
        <time>2015-12-09T14:13:05.505Z</time>
      </trkpt>
      <trkpt lat="45.85682" lon="4.70081">
        <ele>195.100006104</ele>
        <time>2015-12-09T14:13:06.492Z</time>
      </trkpt>
      <trkpt lat="45.85683" lon="4.70074">
        <ele>196.199996948</ele>
        <time>2015-12-09T14:13:07.644Z</time>
      </trkpt>
      <trkpt lat="45.85685" lon="4.70067">
        <ele>196.300003052</ele>
        <time>2015-12-09T14:13:08.491Z</time>
      </trkpt>
      <trkpt lat="45.85687" lon="4.70055">
        <ele>197.199996948</ele>
        <time>2015-12-09T14:13:10.508Z</time>
      </trkpt>
      <trkpt lat="45.85689" lon="4.7005">
        <ele>197.800003052</ele>
        <time>2015-12-09T14:13:11.493Z</time>
      </trkpt>
      <trkpt lat="45.8569" lon="4.70043">
        <ele>197.699996948</ele>
        <time>2015-12-09T14:13:12.506Z</time>
      </trkpt>
      <trkpt lat="45.85691" lon="4.70036">
        <ele>198.100006104</ele>
        <time>2015-12-09T14:13:13.491Z</time>
      </trkpt>
      <trkpt lat="45.85692" lon="4.70029">
        <ele>198.399993896</ele>
        <time>2015-12-09T14:13:14.524Z</time>
      </trkpt>
      <trkpt lat="45.85693" lon="4.70021">
        <ele>198.399993896</ele>
        <time>2015-12-09T14:13:15.491Z</time>
      </trkpt>
      <trkpt lat="45.85694" lon="4.70013">
        <ele>198.5</ele>
        <time>2015-12-09T14:13:16.508Z</time>
      </trkpt>
      <trkpt lat="45.85694" lon="4.70005">
        <ele>198.5</ele>
        <time>2015-12-09T14:13:17.491Z</time>
      </trkpt>
      <trkpt lat="45.85695" lon="4.69996">
        <ele>198.199996948</ele>
        <time>2015-12-09T14:13:18.521Z</time>
      </trkpt>
      <trkpt lat="45.85694" lon="4.69988">
        <ele>198.100006104</ele>
        <time>2015-12-09T14:13:19.491Z</time>
      </trkpt>
      <trkpt lat="45.85694" lon="4.69979">
        <ele>198.100006104</ele>
        <time>2015-12-09T14:13:20.505Z</time>
      </trkpt>
      <trkpt lat="45.85692" lon="4.6997">
        <ele>198.100006104</ele>
        <time>2015-12-09T14:13:21.491Z</time>
      </trkpt>
      <trkpt lat="45.85689" lon="4.69961">
        <ele>197.399993896</ele>
        <time>2015-12-09T14:13:22.508Z</time>
      </trkpt>
      <trkpt lat="45.85687" lon="4.69952">
        <ele>197</ele>
        <time>2015-12-09T14:13:23.491Z</time>
      </trkpt>
      <trkpt lat="45.85684" lon="4.69942">
        <ele>196.399993896</ele>
        <time>2015-12-09T14:13:24.509Z</time>
      </trkpt>
      <trkpt lat="45.85682" lon="4.69933">
        <ele>196.199996948</ele>
        <time>2015-12-09T14:13:25.491Z</time>
      </trkpt>
      <trkpt lat="45.85679" lon="4.69923">
        <ele>196.199996948</ele>
        <time>2015-12-09T14:13:26.505Z</time>
      </trkpt>
      <trkpt lat="45.85676" lon="4.69914">
        <ele>196.300003052</ele>
        <time>2015-12-09T14:13:27.491Z</time>
      </trkpt>
      <trkpt lat="45.85674" lon="4.69905">
        <ele>195.600006104</ele>
        <time>2015-12-09T14:13:28.511Z</time>
      </trkpt>
      <trkpt lat="45.85672" lon="4.69896">
        <ele>195.699996948</ele>
        <time>2015-12-09T14:13:29.491Z</time>
      </trkpt>
      <trkpt lat="45.8567" lon="4.69886">
        <ele>195.5</ele>
        <time>2015-12-09T14:13:30.506Z</time>
      </trkpt>
      <trkpt lat="45.85669" lon="4.69877">
        <ele>195.5</ele>
        <time>2015-12-09T14:13:31.491Z</time>
      </trkpt>
      <trkpt lat="45.85668" lon="4.69868">
        <ele>195.399993896</ele>
        <time>2015-12-09T14:13:32.505Z</time>
      </trkpt>
      <trkpt lat="45.85667" lon="4.69859">
        <ele>195.300003052</ele>
        <time>2015-12-09T14:13:33.491Z</time>
      </trkpt>
      <trkpt lat="45.85667" lon="4.69851">
        <ele>194.800003052</ele>
        <time>2015-12-09T14:13:34.526Z</time>
      </trkpt>
      <trkpt lat="45.85666" lon="4.69841">
        <ele>195.199996948</ele>
        <time>2015-12-09T14:13:35.491Z</time>
      </trkpt>
      <trkpt lat="45.85665" lon="4.69832">
        <ele>195.100006104</ele>
        <time>2015-12-09T14:13:36.506Z</time>
      </trkpt>
      <trkpt lat="45.85664" lon="4.69823">
        <ele>195</ele>
        <time>2015-12-09T14:13:37.491Z</time>
      </trkpt>
      <trkpt lat="45.85663" lon="4.69814">
        <ele>195</ele>
        <time>2015-12-09T14:13:38.505Z</time>
      </trkpt>
      <trkpt lat="45.85662" lon="4.69805">
        <ele>194.800003052</ele>
        <time>2015-12-09T14:13:39.491Z</time>
      </trkpt>
      <trkpt lat="45.85661" lon="4.69796">
        <ele>194.699996948</ele>
        <time>2015-12-09T14:13:40.508Z</time>
      </trkpt>
      <trkpt lat="45.85661" lon="4.69787">
        <ele>194.899993896</ele>
        <time>2015-12-09T14:13:41.491Z</time>
      </trkpt>
      <trkpt lat="45.8566" lon="4.69778">
        <ele>194.899993896</ele>
        <time>2015-12-09T14:13:42.544Z</time>
      </trkpt>
      <trkpt lat="45.85659" lon="4.69769">
        <ele>194.800003052</ele>
        <time>2015-12-09T14:13:43.491Z</time>
      </trkpt>
      <trkpt lat="45.85658" lon="4.6976">
        <ele>194.800003052</ele>
        <time>2015-12-09T14:13:44.505Z</time>
      </trkpt>
      <trkpt lat="45.85657" lon="4.69752">
        <ele>194.899993896</ele>
        <time>2015-12-09T14:13:45.491Z</time>
      </trkpt>
      <trkpt lat="45.85656" lon="4.69743">
        <ele>194.699996948</ele>
        <time>2015-12-09T14:13:46.508Z</time>
      </trkpt>
      <trkpt lat="45.85655" lon="4.69735">
        <ele>194.600006104</ele>
        <time>2015-12-09T14:13:47.491Z</time>
      </trkpt>
      <trkpt lat="45.85654" lon="4.69726">
        <ele>194.800003052</ele>
        <time>2015-12-09T14:13:48.506Z</time>
      </trkpt>
      <trkpt lat="45.85653" lon="4.69718">
        <ele>195.199996948</ele>
        <time>2015-12-09T14:13:49.491Z</time>
      </trkpt>
      <trkpt lat="45.85652" lon="4.69709">
        <ele>195.100006104</ele>
        <time>2015-12-09T14:13:50.518Z</time>
      </trkpt>
      <trkpt lat="45.85651" lon="4.69701">
        <ele>195</ele>
        <time>2015-12-09T14:13:51.491Z</time>
      </trkpt>
      <trkpt lat="45.85651" lon="4.69692">
        <ele>195.100006104</ele>
        <time>2015-12-09T14:13:52.508Z</time>
      </trkpt>
      <trkpt lat="45.8565" lon="4.69685">
        <ele>195.199996948</ele>
        <time>2015-12-09T14:13:53.491Z</time>
      </trkpt>
      <trkpt lat="45.85649" lon="4.69677">
        <ele>195.300003052</ele>
        <time>2015-12-09T14:13:54.508Z</time>
      </trkpt>
      <trkpt lat="45.85648" lon="4.69669">
        <ele>195.300003052</ele>
        <time>2015-12-09T14:13:55.491Z</time>
      </trkpt>
      <trkpt lat="45.85647" lon="4.69661">
        <ele>195.300003052</ele>
        <time>2015-12-09T14:13:56.505Z</time>
      </trkpt>
      <trkpt lat="45.85647" lon="4.69654">
        <ele>195.300003052</ele>
        <time>2015-12-09T14:13:57.491Z</time>
      </trkpt>
      <trkpt lat="45.85646" lon="4.69646">
        <ele>195.199996948</ele>
        <time>2015-12-09T14:13:58.508Z</time>
      </trkpt>
      <trkpt lat="45.85646" lon="4.69637">
        <ele>195.199996948</ele>
        <time>2015-12-09T14:13:59.491Z</time>
      </trkpt>
      <trkpt lat="45.85645" lon="4.69629">
        <ele>195.100006104</ele>
        <time>2015-12-09T14:14:00.507Z</time>
      </trkpt>
      <trkpt lat="45.85644" lon="4.69621">
        <ele>195</ele>
        <time>2015-12-09T14:14:01.491Z</time>
      </trkpt>
      <trkpt lat="45.85643" lon="4.69614">
        <ele>195</ele>
        <time>2015-12-09T14:14:02.505Z</time>
      </trkpt>
      <trkpt lat="45.85642" lon="4.69606">
        <ele>195</ele>
        <time>2015-12-09T14:14:03.491Z</time>
      </trkpt>
      <trkpt lat="45.85641" lon="4.69598">
        <ele>194.899993896</ele>
        <time>2015-12-09T14:14:04.508Z</time>
      </trkpt>
      <trkpt lat="45.8564" lon="4.6959">
        <ele>194.800003052</ele>
        <time>2015-12-09T14:14:05.491Z</time>
      </trkpt>
      <trkpt lat="45.85639" lon="4.69581">
        <ele>194.699996948</ele>
        <time>2015-12-09T14:14:06.652Z</time>
      </trkpt>
      <trkpt lat="45.85639" lon="4.69573">
        <ele>194.5</ele>
        <time>2015-12-09T14:14:07.491Z</time>
      </trkpt>
      <trkpt lat="45.85638" lon="4.69565">
        <ele>194.399993896</ele>
        <time>2015-12-09T14:14:08.505Z</time>
      </trkpt>
      <trkpt lat="45.85637" lon="4.69556">
        <ele>194.399993896</ele>
        <time>2015-12-09T14:14:09.491Z</time>
      </trkpt>
      <trkpt lat="45.85637" lon="4.69548">
        <ele>194.199996948</ele>
        <time>2015-12-09T14:14:10.508Z</time>
      </trkpt>
      <trkpt lat="45.85636" lon="4.69539">
        <ele>194.5</ele>
        <time>2015-12-09T14:14:11.493Z</time>
      </trkpt>
      <trkpt lat="45.85635" lon="4.6953">
        <ele>194.899993896</ele>
        <time>2015-12-09T14:14:12.506Z</time>
      </trkpt>
      <trkpt lat="45.85633" lon="4.69521">
        <ele>195.399993896</ele>
        <time>2015-12-09T14:14:13.491Z</time>
      </trkpt>
      <trkpt lat="45.85633" lon="4.69512">
        <ele>195.600006104</ele>
        <time>2015-12-09T14:14:14.505Z</time>
      </trkpt>
      <trkpt lat="45.85632" lon="4.69504">
        <ele>195.600006104</ele>
        <time>2015-12-09T14:14:15.491Z</time>
      </trkpt>
      <trkpt lat="45.85631" lon="4.69495">
        <ele>196.199996948</ele>
        <time>2015-12-09T14:14:16.508Z</time>
      </trkpt>
      <trkpt lat="45.8563" lon="4.69487">
        <ele>196.100006104</ele>
        <time>2015-12-09T14:14:17.491Z</time>
      </trkpt>
      <trkpt lat="45.85629" lon="4.69478">
        <ele>196.199996948</ele>
        <time>2015-12-09T14:14:18.506Z</time>
      </trkpt>
      <trkpt lat="45.85628" lon="4.6947">
        <ele>196.399993896</ele>
        <time>2015-12-09T14:14:19.491Z</time>
      </trkpt>
      <trkpt lat="45.85627" lon="4.69462">
        <ele>196.100006104</ele>
        <time>2015-12-09T14:14:20.539Z</time>
      </trkpt>
      <trkpt lat="45.85626" lon="4.69454">
        <ele>196.300003052</ele>
        <time>2015-12-09T14:14:21.491Z</time>
      </trkpt>
      <trkpt lat="45.85625" lon="4.69445">
        <ele>196.300003052</ele>
        <time>2015-12-09T14:14:22.521Z</time>
      </trkpt>
      <trkpt lat="45.85625" lon="4.69437">
        <ele>196.199996948</ele>
        <time>2015-12-09T14:14:23.491Z</time>
      </trkpt>
      <trkpt lat="45.85624" lon="4.69428">
        <ele>195.800003052</ele>
        <time>2015-12-09T14:14:24.506Z</time>
      </trkpt>
      <trkpt lat="45.85623" lon="4.6942">
        <ele>195.800003052</ele>
        <time>2015-12-09T14:14:25.491Z</time>
      </trkpt>
      <trkpt lat="45.85622" lon="4.69412">
        <ele>195.600006104</ele>
        <time>2015-12-09T14:14:26.504Z</time>
      </trkpt>
      <trkpt lat="45.85622" lon="4.69404">
        <ele>195.699996948</ele>
        <time>2015-12-09T14:14:27.491Z</time>
      </trkpt>
      <trkpt lat="45.85621" lon="4.69396">
        <ele>195.899993896</ele>
        <time>2015-12-09T14:14:28.508Z</time>
      </trkpt>
      <trkpt lat="45.85621" lon="4.69387">
        <ele>196.100006104</ele>
        <time>2015-12-09T14:14:29.491Z</time>
      </trkpt>
      <trkpt lat="45.8562" lon="4.69379">
        <ele>196.199996948</ele>
        <time>2015-12-09T14:14:30.507Z</time>
      </trkpt>
      <trkpt lat="45.85619" lon="4.6937">
        <ele>196.100006104</ele>
        <time>2015-12-09T14:14:31.491Z</time>
      </trkpt>
      <trkpt lat="45.85619" lon="4.69361">
        <ele>195.899993896</ele>
        <time>2015-12-09T14:14:32.505Z</time>
      </trkpt>
      <trkpt lat="45.85618" lon="4.69353">
        <ele>196.199996948</ele>
        <time>2015-12-09T14:14:33.491Z</time>
      </trkpt>
      <trkpt lat="45.85617" lon="4.69344">
        <ele>196.300003052</ele>
        <time>2015-12-09T14:14:34.539Z</time>
      </trkpt>
      <trkpt lat="45.85616" lon="4.69336">
        <ele>196.300003052</ele>
        <time>2015-12-09T14:14:35.491Z</time>
      </trkpt>
      <trkpt lat="45.85615" lon="4.69327">
        <ele>196.399993896</ele>
        <time>2015-12-09T14:14:36.505Z</time>
      </trkpt>
      <trkpt lat="45.85615" lon="4.69319">
        <ele>196.300003052</ele>
        <time>2015-12-09T14:14:37.491Z</time>
      </trkpt>
      <trkpt lat="45.85613" lon="4.69311">
        <ele>195.800003052</ele>
        <time>2015-12-09T14:14:38.557Z</time>
      </trkpt>
      <trkpt lat="45.85612" lon="4.69303">
        <ele>195.600006104</ele>
        <time>2015-12-09T14:14:39.491Z</time>
      </trkpt>
      <trkpt lat="45.85612" lon="4.69295">
        <ele>195.600006104</ele>
        <time>2015-12-09T14:14:40.508Z</time>
      </trkpt>
      <trkpt lat="45.85612" lon="4.69288">
        <ele>196</ele>
        <time>2015-12-09T14:14:41.491Z</time>
      </trkpt>
      <trkpt lat="45.85612" lon="4.69281">
        <ele>196.100006104</ele>
        <time>2015-12-09T14:14:42.511Z</time>
      </trkpt>
      <trkpt lat="45.85613" lon="4.69274">
        <ele>196.399993896</ele>
        <time>2015-12-09T14:14:43.491Z</time>
      </trkpt>
      <trkpt lat="45.85613" lon="4.69267">
        <ele>196.600006104</ele>
        <time>2015-12-09T14:14:44.505Z</time>
      </trkpt>
      <trkpt lat="45.85613" lon="4.69259">
        <ele>196.699996948</ele>
        <time>2015-12-09T14:14:45.491Z</time>
      </trkpt>
      <trkpt lat="45.85612" lon="4.69252">
        <ele>196.699996948</ele>
        <time>2015-12-09T14:14:46.51Z</time>
      </trkpt>
      <trkpt lat="45.8561" lon="4.69245">
        <ele>196.899993896</ele>
        <time>2015-12-09T14:14:47.491Z</time>
      </trkpt>
      <trkpt lat="45.85607" lon="4.69238">
        <ele>196.899993896</ele>
        <time>2015-12-09T14:14:48.506Z</time>
      </trkpt>
      <trkpt lat="45.85606" lon="4.69231">
        <ele>196.800003052</ele>
        <time>2015-12-09T14:14:49.491Z</time>
      </trkpt>
      <trkpt lat="45.85605" lon="4.69223">
        <ele>196.699996948</ele>
        <time>2015-12-09T14:14:50.539Z</time>
      </trkpt>
      <trkpt lat="45.85604" lon="4.69215">
        <ele>196.600006104</ele>
        <time>2015-12-09T14:14:51.491Z</time>
      </trkpt>
      <trkpt lat="45.85603" lon="4.69206">
        <ele>196.399993896</ele>
        <time>2015-12-09T14:14:52.507Z</time>
      </trkpt>
      <trkpt lat="45.85603" lon="4.69198">
        <ele>196.100006104</ele>
        <time>2015-12-09T14:14:53.491Z</time>
      </trkpt>
      <trkpt lat="45.85602" lon="4.6919">
        <ele>195.899993896</ele>
        <time>2015-12-09T14:14:54.506Z</time>
      </trkpt>
      <trkpt lat="45.85601" lon="4.69181">
        <ele>195.899993896</ele>
        <time>2015-12-09T14:14:55.491Z</time>
      </trkpt>
      <trkpt lat="45.85601" lon="4.69172">
        <ele>195.899993896</ele>
        <time>2015-12-09T14:14:56.505Z</time>
      </trkpt>
      <trkpt lat="45.856" lon="4.69164">
        <ele>196.100006104</ele>
        <time>2015-12-09T14:14:57.491Z</time>
      </trkpt>
      <trkpt lat="45.85599" lon="4.69155">
        <ele>196.199996948</ele>
        <time>2015-12-09T14:14:58.508Z</time>
      </trkpt>
      <trkpt lat="45.85598" lon="4.69147">
        <ele>196.300003052</ele>
        <time>2015-12-09T14:14:59.504Z</time>
      </trkpt>
      <trkpt lat="45.85598" lon="4.69138">
        <ele>196.199996948</ele>
        <time>2015-12-09T14:15:00.506Z</time>
      </trkpt>
      <trkpt lat="45.85597" lon="4.69129">
        <ele>196.399993896</ele>
        <time>2015-12-09T14:15:01.491Z</time>
      </trkpt>
      <trkpt lat="45.85596" lon="4.69121">
        <ele>196.300003052</ele>
        <time>2015-12-09T14:15:02.505Z</time>
      </trkpt>
      <trkpt lat="45.85595" lon="4.69112">
        <ele>196.300003052</ele>
        <time>2015-12-09T14:15:03.49Z</time>
      </trkpt>
      <trkpt lat="45.85595" lon="4.69103">
        <ele>196.199996948</ele>
        <time>2015-12-09T14:15:04.658Z</time>
      </trkpt>
      <trkpt lat="45.85594" lon="4.69094">
        <ele>196.199996948</ele>
        <time>2015-12-09T14:15:05.491Z</time>
      </trkpt>
      <trkpt lat="45.85593" lon="4.69085">
        <ele>196.5</ele>
        <time>2015-12-09T14:15:06.505Z</time>
      </trkpt>
      <trkpt lat="45.85592" lon="4.69076">
        <ele>196.600006104</ele>
        <time>2015-12-09T14:15:07.491Z</time>
      </trkpt>
      <trkpt lat="45.85591" lon="4.69067">
        <ele>196.600006104</ele>
        <time>2015-12-09T14:15:08.504Z</time>
      </trkpt>
      <trkpt lat="45.8559" lon="4.69058">
        <ele>196.600006104</ele>
        <time>2015-12-09T14:15:09.491Z</time>
      </trkpt>
      <trkpt lat="45.85589" lon="4.69049">
        <ele>196.699996948</ele>
        <time>2015-12-09T14:15:10.507Z</time>
      </trkpt>
      <trkpt lat="45.85588" lon="4.6904">
        <ele>196.899993896</ele>
        <time>2015-12-09T14:15:11.493Z</time>
      </trkpt>
      <trkpt lat="45.85587" lon="4.69031">
        <ele>196.899993896</ele>
        <time>2015-12-09T14:15:12.508Z</time>
      </trkpt>
      <trkpt lat="45.85586" lon="4.69022">
        <ele>196.899993896</ele>
        <time>2015-12-09T14:15:13.49Z</time>
      </trkpt>
      <trkpt lat="45.85586" lon="4.69013">
        <ele>196.800003052</ele>
        <time>2015-12-09T14:15:14.505Z</time>
      </trkpt>
      <trkpt lat="45.85585" lon="4.69004">
        <ele>196.600006104</ele>
        <time>2015-12-09T14:15:15.491Z</time>
      </trkpt>
      <trkpt lat="45.85584" lon="4.68995">
        <ele>196.399993896</ele>
        <time>2015-12-09T14:15:16.507Z</time>
      </trkpt>
      <trkpt lat="45.85583" lon="4.68987">
        <ele>196.399993896</ele>
        <time>2015-12-09T14:15:17.499Z</time>
      </trkpt>
      <trkpt lat="45.85583" lon="4.68978">
        <ele>196.199996948</ele>
        <time>2015-12-09T14:15:18.506Z</time>
      </trkpt>
      <trkpt lat="45.85582" lon="4.6897">
        <ele>196.100006104</ele>
        <time>2015-12-09T14:15:19.491Z</time>
      </trkpt>
      <trkpt lat="45.85582" lon="4.68961">
        <ele>196</ele>
        <time>2015-12-09T14:15:20.504Z</time>
      </trkpt>
      <trkpt lat="45.85581" lon="4.68953">
        <ele>196</ele>
        <time>2015-12-09T14:15:21.491Z</time>
      </trkpt>
      <trkpt lat="45.8558" lon="4.68944">
        <ele>195.899993896</ele>
        <time>2015-12-09T14:15:22.507Z</time>
      </trkpt>
      <trkpt lat="45.85579" lon="4.68935">
        <ele>195.800003052</ele>
        <time>2015-12-09T14:15:23.49Z</time>
      </trkpt>
      <trkpt lat="45.85579" lon="4.68926">
        <ele>195.800003052</ele>
        <time>2015-12-09T14:15:24.505Z</time>
      </trkpt>
      <trkpt lat="45.85578" lon="4.68918">
        <ele>195.699996948</ele>
        <time>2015-12-09T14:15:25.49Z</time>
      </trkpt>
      <trkpt lat="45.85577" lon="4.68909">
        <ele>195.699996948</ele>
        <time>2015-12-09T14:15:26.52Z</time>
      </trkpt>
      <trkpt lat="45.85576" lon="4.689">
        <ele>195.699996948</ele>
        <time>2015-12-09T14:15:27.49Z</time>
      </trkpt>
      <trkpt lat="45.85576" lon="4.68891">
        <ele>195.800003052</ele>
        <time>2015-12-09T14:15:28.507Z</time>
      </trkpt>
      <trkpt lat="45.85575" lon="4.68882">
        <ele>195.800003052</ele>
        <time>2015-12-09T14:15:29.49Z</time>
      </trkpt>
      <trkpt lat="45.85574" lon="4.68872">
        <ele>195.800003052</ele>
        <time>2015-12-09T14:15:30.506Z</time>
      </trkpt>
      <trkpt lat="45.85574" lon="4.68864">
        <ele>195.699996948</ele>
        <time>2015-12-09T14:15:31.491Z</time>
      </trkpt>
      <trkpt lat="45.85573" lon="4.68855">
        <ele>195.600006104</ele>
        <time>2015-12-09T14:15:32.505Z</time>
      </trkpt>
      <trkpt lat="45.85572" lon="4.68846">
        <ele>195.5</ele>
        <time>2015-12-09T14:15:33.49Z</time>
      </trkpt>
      <trkpt lat="45.85571" lon="4.68836">
        <ele>196.100006104</ele>
        <time>2015-12-09T14:15:34.545Z</time>
      </trkpt>
      <trkpt lat="45.8557" lon="4.68827">
        <ele>196</ele>
        <time>2015-12-09T14:15:35.491Z</time>
      </trkpt>
      <trkpt lat="45.85569" lon="4.68818">
        <ele>196</ele>
        <time>2015-12-09T14:15:36.506Z</time>
      </trkpt>
      <trkpt lat="45.85569" lon="4.68809">
        <ele>196.199996948</ele>
        <time>2015-12-09T14:15:37.49Z</time>
      </trkpt>
      <trkpt lat="45.85568" lon="4.688">
        <ele>196.199996948</ele>
        <time>2015-12-09T14:15:38.504Z</time>
      </trkpt>
      <trkpt lat="45.85567" lon="4.6879">
        <ele>196.199996948</ele>
        <time>2015-12-09T14:15:39.49Z</time>
      </trkpt>
      <trkpt lat="45.85566" lon="4.68781">
        <ele>195.899993896</ele>
        <time>2015-12-09T14:15:40.507Z</time>
      </trkpt>
      <trkpt lat="45.85565" lon="4.68772">
        <ele>196.100006104</ele>
        <time>2015-12-09T14:15:41.491Z</time>
      </trkpt>
      <trkpt lat="45.85565" lon="4.68763">
        <ele>195.800003052</ele>
        <time>2015-12-09T14:15:42.523Z</time>
      </trkpt>
      <trkpt lat="45.85565" lon="4.68754">
        <ele>196</ele>
        <time>2015-12-09T14:15:43.491Z</time>
      </trkpt>
      <trkpt lat="45.85564" lon="4.68746">
        <ele>195.899993896</ele>
        <time>2015-12-09T14:15:44.505Z</time>
      </trkpt>
      <trkpt lat="45.85562" lon="4.68737">
        <ele>196.100006104</ele>
        <time>2015-12-09T14:15:45.49Z</time>
      </trkpt>
      <trkpt lat="45.85561" lon="4.68729">
        <ele>196.300003052</ele>
        <time>2015-12-09T14:15:46.508Z</time>
      </trkpt>
      <trkpt lat="45.8556" lon="4.6872">
        <ele>196.100006104</ele>
        <time>2015-12-09T14:15:47.49Z</time>
      </trkpt>
      <trkpt lat="45.85559" lon="4.68712">
        <ele>196.199996948</ele>
        <time>2015-12-09T14:15:48.629Z</time>
      </trkpt>
      <trkpt lat="45.85559" lon="4.68703">
        <ele>196.300003052</ele>
        <time>2015-12-09T14:15:49.491Z</time>
      </trkpt>
      <trkpt lat="45.85558" lon="4.68694">
        <ele>196.199996948</ele>
        <time>2015-12-09T14:15:50.505Z</time>
      </trkpt>
      <trkpt lat="45.85557" lon="4.68685">
        <ele>196.100006104</ele>
        <time>2015-12-09T14:15:51.491Z</time>
      </trkpt>
      <trkpt lat="45.85556" lon="4.68677">
        <ele>196.100006104</ele>
        <time>2015-12-09T14:15:52.507Z</time>
      </trkpt>
      <trkpt lat="45.85554" lon="4.68668">
        <ele>196</ele>
        <time>2015-12-09T14:15:53.49Z</time>
      </trkpt>
      <trkpt lat="45.85553" lon="4.68659">
        <ele>195.699996948</ele>
        <time>2015-12-09T14:15:54.505Z</time>
      </trkpt>
      <trkpt lat="45.85552" lon="4.68651">
        <ele>195.5</ele>
        <time>2015-12-09T14:15:55.49Z</time>
      </trkpt>
      <trkpt lat="45.85551" lon="4.68642">
        <ele>195.699996948</ele>
        <time>2015-12-09T14:15:56.505Z</time>
      </trkpt>
      <trkpt lat="45.85551" lon="4.68633">
        <ele>195.600006104</ele>
        <time>2015-12-09T14:15:57.49Z</time>
      </trkpt>
      <trkpt lat="45.8555" lon="4.68625">
        <ele>195.699996948</ele>
        <time>2015-12-09T14:15:58.521Z</time>
      </trkpt>
      <trkpt lat="45.85549" lon="4.68616">
        <ele>196</ele>
        <time>2015-12-09T14:15:59.491Z</time>
      </trkpt>
      <trkpt lat="45.85547" lon="4.68607">
        <ele>195.899993896</ele>
        <time>2015-12-09T14:16:00.507Z</time>
      </trkpt>
      <trkpt lat="45.85546" lon="4.68598">
        <ele>195.800003052</ele>
        <time>2015-12-09T14:16:01.49Z</time>
      </trkpt>
      <trkpt lat="45.85545" lon="4.6859">
        <ele>195.699996948</ele>
        <time>2015-12-09T14:16:02.505Z</time>
      </trkpt>
      <trkpt lat="45.85543" lon="4.6858">
        <ele>195.899993896</ele>
        <time>2015-12-09T14:16:03.49Z</time>
      </trkpt>
      <trkpt lat="45.85542" lon="4.68571">
        <ele>196</ele>
        <time>2015-12-09T14:16:04.507Z</time>
      </trkpt>
      <trkpt lat="45.8554" lon="4.68562">
        <ele>196.300003052</ele>
        <time>2015-12-09T14:16:05.49Z</time>
      </trkpt>
      <trkpt lat="45.8554" lon="4.68553">
        <ele>196.699996948</ele>
        <time>2015-12-09T14:16:06.505Z</time>
      </trkpt>
      <trkpt lat="45.85539" lon="4.68544">
        <ele>197.100006104</ele>
        <time>2015-12-09T14:16:07.49Z</time>
      </trkpt>
      <trkpt lat="45.85538" lon="4.68536">
        <ele>197.100006104</ele>
        <time>2015-12-09T14:16:08.505Z</time>
      </trkpt>
      <trkpt lat="45.85538" lon="4.68528">
        <ele>197.199996948</ele>
        <time>2015-12-09T14:16:09.49Z</time>
      </trkpt>
      <trkpt lat="45.85537" lon="4.6852">
        <ele>197.399993896</ele>
        <time>2015-12-09T14:16:10.507Z</time>
      </trkpt>
      <trkpt lat="45.85537" lon="4.68512">
        <ele>197.699996948</ele>
        <time>2015-12-09T14:16:11.492Z</time>
      </trkpt>
      <trkpt lat="45.85537" lon="4.68504">
        <ele>198</ele>
        <time>2015-12-09T14:16:12.505Z</time>
      </trkpt>
      <trkpt lat="45.85537" lon="4.68496">
        <ele>197.699996948</ele>
        <time>2015-12-09T14:16:13.49Z</time>
      </trkpt>
      <trkpt lat="45.85536" lon="4.68487">
        <ele>197.5</ele>
        <time>2015-12-09T14:16:14.519Z</time>
      </trkpt>
      <trkpt lat="45.85536" lon="4.68479">
        <ele>196.800003052</ele>
        <time>2015-12-09T14:16:15.49Z</time>
      </trkpt>
      <trkpt lat="45.85535" lon="4.6847">
        <ele>196.899993896</ele>
        <time>2015-12-09T14:16:16.514Z</time>
      </trkpt>
      <trkpt lat="45.85535" lon="4.68462">
        <ele>196.899993896</ele>
        <time>2015-12-09T14:16:17.49Z</time>
      </trkpt>
      <trkpt lat="45.85534" lon="4.68453">
        <ele>196.600006104</ele>
        <time>2015-12-09T14:16:18.539Z</time>
      </trkpt>
      <trkpt lat="45.85533" lon="4.68444">
        <ele>195.800003052</ele>
        <time>2015-12-09T14:16:19.49Z</time>
      </trkpt>
      <trkpt lat="45.85532" lon="4.68436">
        <ele>195.899993896</ele>
        <time>2015-12-09T14:16:20.504Z</time>
      </trkpt>
      <trkpt lat="45.85532" lon="4.68427">
        <ele>195.800003052</ele>
        <time>2015-12-09T14:16:21.49Z</time>
      </trkpt>
      <trkpt lat="45.85531" lon="4.68419">
        <ele>195.199996948</ele>
        <time>2015-12-09T14:16:22.507Z</time>
      </trkpt>
      <trkpt lat="45.8553" lon="4.6841">
        <ele>195.100006104</ele>
        <time>2015-12-09T14:16:23.49Z</time>
      </trkpt>
      <trkpt lat="45.85529" lon="4.68401">
        <ele>194.899993896</ele>
        <time>2015-12-09T14:16:24.512Z</time>
      </trkpt>
      <trkpt lat="45.85528" lon="4.68392">
        <ele>194.699996948</ele>
        <time>2015-12-09T14:16:25.49Z</time>
      </trkpt>
      <trkpt lat="45.85527" lon="4.68383">
        <ele>194.800003052</ele>
        <time>2015-12-09T14:16:26.521Z</time>
      </trkpt>
      <trkpt lat="45.85526" lon="4.68374">
        <ele>196.300003052</ele>
        <time>2015-12-09T14:16:27.49Z</time>
      </trkpt>
      <trkpt lat="45.85524" lon="4.68365">
        <ele>197.399993896</ele>
        <time>2015-12-09T14:16:28.54Z</time>
      </trkpt>
      <trkpt lat="45.85523" lon="4.68356">
        <ele>198.300003052</ele>
        <time>2015-12-09T14:16:29.49Z</time>
      </trkpt>
      <trkpt lat="45.85523" lon="4.68347">
        <ele>197.899993896</ele>
        <time>2015-12-09T14:16:30.507Z</time>
      </trkpt>
      <trkpt lat="45.85522" lon="4.68338">
        <ele>197.699996948</ele>
        <time>2015-12-09T14:16:31.49Z</time>
      </trkpt>
      <trkpt lat="45.8552" lon="4.68329">
        <ele>197.5</ele>
        <time>2015-12-09T14:16:32.505Z</time>
      </trkpt>
      <trkpt lat="45.8552" lon="4.6832">
        <ele>197.600006104</ele>
        <time>2015-12-09T14:16:33.491Z</time>
      </trkpt>
      <trkpt lat="45.8552" lon="4.68312">
        <ele>197.199996948</ele>
        <time>2015-12-09T14:16:34.506Z</time>
      </trkpt>
      <trkpt lat="45.8552" lon="4.68303">
        <ele>197.100006104</ele>
        <time>2015-12-09T14:16:35.49Z</time>
      </trkpt>
      <trkpt lat="45.85519" lon="4.68294">
        <ele>197</ele>
        <time>2015-12-09T14:16:36.507Z</time>
      </trkpt>
      <trkpt lat="45.85518" lon="4.68286">
        <ele>197.300003052</ele>
        <time>2015-12-09T14:16:37.49Z</time>
      </trkpt>
      <trkpt lat="45.85517" lon="4.68278">
        <ele>197.399993896</ele>
        <time>2015-12-09T14:16:38.504Z</time>
      </trkpt>
      <trkpt lat="45.85517" lon="4.6827">
        <ele>197.699996948</ele>
        <time>2015-12-09T14:16:39.49Z</time>
      </trkpt>
      <trkpt lat="45.85517" lon="4.68261">
        <ele>197.899993896</ele>
        <time>2015-12-09T14:16:40.509Z</time>
      </trkpt>
      <trkpt lat="45.85516" lon="4.68253">
        <ele>198</ele>
        <time>2015-12-09T14:16:41.492Z</time>
      </trkpt>
      <trkpt lat="45.85515" lon="4.68245">
        <ele>198.300003052</ele>
        <time>2015-12-09T14:16:42.507Z</time>
      </trkpt>
      <trkpt lat="45.85514" lon="4.68236">
        <ele>198.300003052</ele>
        <time>2015-12-09T14:16:43.492Z</time>
      </trkpt>
      <trkpt lat="45.85514" lon="4.68228">
        <ele>198.600006104</ele>
        <time>2015-12-09T14:16:44.537Z</time>
      </trkpt>
      <trkpt lat="45.85514" lon="4.6822">
        <ele>198.800003052</ele>
        <time>2015-12-09T14:16:45.49Z</time>
      </trkpt>
      <trkpt lat="45.85514" lon="4.68211">
        <ele>199.100006104</ele>
        <time>2015-12-09T14:16:46.53Z</time>
      </trkpt>
      <trkpt lat="45.85513" lon="4.68203">
        <ele>199.199996948</ele>
        <time>2015-12-09T14:16:47.49Z</time>
      </trkpt>
      <trkpt lat="45.85512" lon="4.68195">
        <ele>199.300003052</ele>
        <time>2015-12-09T14:16:48.505Z</time>
      </trkpt>
      <trkpt lat="45.85511" lon="4.68188">
        <ele>199.399993896</ele>
        <time>2015-12-09T14:16:49.49Z</time>
      </trkpt>
      <trkpt lat="45.8551" lon="4.6818">
        <ele>199</ele>
        <time>2015-12-09T14:16:50.504Z</time>
      </trkpt>
      <trkpt lat="45.85509" lon="4.68172">
        <ele>198.5</ele>
        <time>2015-12-09T14:16:51.49Z</time>
      </trkpt>
      <trkpt lat="45.85509" lon="4.68164">
        <ele>198.399993896</ele>
        <time>2015-12-09T14:16:52.528Z</time>
      </trkpt>
      <trkpt lat="45.85509" lon="4.68157">
        <ele>198.5</ele>
        <time>2015-12-09T14:16:53.49Z</time>
      </trkpt>
      <trkpt lat="45.85509" lon="4.6815">
        <ele>198.600006104</ele>
        <time>2015-12-09T14:16:54.505Z</time>
      </trkpt>
      <trkpt lat="45.85508" lon="4.68143">
        <ele>198.699996948</ele>
        <time>2015-12-09T14:16:55.49Z</time>
      </trkpt>
      <trkpt lat="45.85509" lon="4.68136">
        <ele>198.600006104</ele>
        <time>2015-12-09T14:16:56.515Z</time>
      </trkpt>
      <trkpt lat="45.85508" lon="4.68129">
        <ele>198.899993896</ele>
        <time>2015-12-09T14:16:57.49Z</time>
      </trkpt>
      <trkpt lat="45.85508" lon="4.68121">
        <ele>198.800003052</ele>
        <time>2015-12-09T14:16:58.507Z</time>
      </trkpt>
      <trkpt lat="45.85507" lon="4.68114">
        <ele>198.899993896</ele>
        <time>2015-12-09T14:16:59.49Z</time>
      </trkpt>
      <trkpt lat="45.85507" lon="4.68108">
        <ele>198.800003052</ele>
        <time>2015-12-09T14:17:00.506Z</time>
      </trkpt>
      <trkpt lat="45.85506" lon="4.68101">
        <ele>199</ele>
        <time>2015-12-09T14:17:01.49Z</time>
      </trkpt>
      <trkpt lat="45.85505" lon="4.68089">
        <ele>199.5</ele>
        <time>2015-12-09T14:17:03.504Z</time>
      </trkpt>
      <trkpt lat="45.85505" lon="4.68084">
        <ele>199.600006104</ele>
        <time>2015-12-09T14:17:04.493Z</time>
      </trkpt>
      <trkpt lat="45.85504" lon="4.68072">
        <ele>199.699996948</ele>
        <time>2015-12-09T14:17:06.509Z</time>
      </trkpt>
      <trkpt lat="45.85504" lon="4.68065">
        <ele>199.800003052</ele>
        <time>2015-12-09T14:17:07.49Z</time>
      </trkpt>
      <trkpt lat="45.85502" lon="4.68053">
        <ele>200.699996948</ele>
        <time>2015-12-09T14:17:09.504Z</time>
      </trkpt>
      <trkpt lat="45.85502" lon="4.68047">
        <ele>200.600006104</ele>
        <time>2015-12-09T14:17:10.493Z</time>
      </trkpt>
      <trkpt lat="45.85499" lon="4.68036">
        <ele>200.899993896</ele>
        <time>2015-12-09T14:17:12.509Z</time>
      </trkpt>
      <trkpt lat="45.85498" lon="4.68031">
        <ele>200.800003052</ele>
        <time>2015-12-09T14:17:13.49Z</time>
      </trkpt>
      <trkpt lat="45.85496" lon="4.68019">
        <ele>200.600006104</ele>
        <time>2015-12-09T14:17:15.504Z</time>
      </trkpt>
      <trkpt lat="45.85496" lon="4.68013">
        <ele>200.600006104</ele>
        <time>2015-12-09T14:17:16.504Z</time>
      </trkpt>
      <trkpt lat="45.85498" lon="4.68007">
        <ele>201</ele>
        <time>2015-12-09T14:17:17.504Z</time>
      </trkpt>
      <trkpt lat="45.855" lon="4.68001">
        <ele>200.899993896</ele>
        <time>2015-12-09T14:17:18.505Z</time>
      </trkpt>
      <trkpt lat="45.85504" lon="4.67996">
        <ele>201</ele>
        <time>2015-12-09T14:17:19.504Z</time>
      </trkpt>
      <trkpt lat="45.85507" lon="4.67991">
        <ele>201</ele>
        <time>2015-12-09T14:17:20.49Z</time>
      </trkpt>
      <trkpt lat="45.85511" lon="4.67987">
        <ele>200.899993896</ele>
        <time>2015-12-09T14:17:21.504Z</time>
      </trkpt>
      <trkpt lat="45.85516" lon="4.67983">
        <ele>200.800003052</ele>
        <time>2015-12-09T14:17:22.493Z</time>
      </trkpt>
      <trkpt lat="45.85521" lon="4.67978">
        <ele>200.699996948</ele>
        <time>2015-12-09T14:17:23.504Z</time>
      </trkpt>
      <trkpt lat="45.85526" lon="4.67974">
        <ele>200.699996948</ele>
        <time>2015-12-09T14:17:24.525Z</time>
      </trkpt>
      <trkpt lat="45.8553" lon="4.67969">
        <ele>200.600006104</ele>
        <time>2015-12-09T14:17:25.505Z</time>
      </trkpt>
      <trkpt lat="45.85535" lon="4.67965">
        <ele>200.800003052</ele>
        <time>2015-12-09T14:17:26.501Z</time>
      </trkpt>
      <trkpt lat="45.8554" lon="4.67961">
        <ele>200.199996948</ele>
        <time>2015-12-09T14:17:27.505Z</time>
      </trkpt>
      <trkpt lat="45.85545" lon="4.67956">
        <ele>200.399993896</ele>
        <time>2015-12-09T14:17:28.493Z</time>
      </trkpt>
      <trkpt lat="45.8555" lon="4.67952">
        <ele>200.699996948</ele>
        <time>2015-12-09T14:17:29.519Z</time>
      </trkpt>
      <trkpt lat="45.85554" lon="4.67947">
        <ele>200.899993896</ele>
        <time>2015-12-09T14:17:30.491Z</time>
      </trkpt>
      <trkpt lat="45.85558" lon="4.67943">
        <ele>200.899993896</ele>
        <time>2015-12-09T14:17:31.539Z</time>
      </trkpt>
      <trkpt lat="45.85562" lon="4.67939">
        <ele>200.899993896</ele>
        <time>2015-12-09T14:17:32.492Z</time>
      </trkpt>
      <trkpt lat="45.8557" lon="4.67933">
        <ele>201</ele>
        <time>2015-12-09T14:17:34.507Z</time>
      </trkpt>
      <trkpt lat="45.85574" lon="4.67932">
        <ele>200.600006104</ele>
        <time>2015-12-09T14:17:35.49Z</time>
      </trkpt>
      <trkpt lat="45.85579" lon="4.67928">
        <ele>199.899993896</ele>
        <time>2015-12-09T14:17:36.516Z</time>
      </trkpt>
      <trkpt lat="45.85581" lon="4.67922">
        <ele>199.899993896</ele>
        <time>2015-12-09T14:17:37.491Z</time>
      </trkpt>
      <trkpt lat="45.85582" lon="4.67916">
        <ele>199.5</ele>
        <time>2015-12-09T14:17:38.504Z</time>
      </trkpt>
      <trkpt lat="45.85581" lon="4.67909">
        <ele>199.199996948</ele>
        <time>2015-12-09T14:17:39.49Z</time>
      </trkpt>
      <trkpt lat="45.8558" lon="4.67902">
        <ele>199.100006104</ele>
        <time>2015-12-09T14:17:40.523Z</time>
      </trkpt>
      <trkpt lat="45.85579" lon="4.67895">
        <ele>198.899993896</ele>
        <time>2015-12-09T14:17:41.49Z</time>
      </trkpt>
      <trkpt lat="45.85579" lon="4.67888">
        <ele>199</ele>
        <time>2015-12-09T14:17:42.506Z</time>
      </trkpt>
      <trkpt lat="45.85578" lon="4.6788">
        <ele>199</ele>
        <time>2015-12-09T14:17:43.49Z</time>
      </trkpt>
      <trkpt lat="45.85577" lon="4.67872">
        <ele>198.899993896</ele>
        <time>2015-12-09T14:17:44.505Z</time>
      </trkpt>
      <trkpt lat="45.85578" lon="4.67864">
        <ele>198.800003052</ele>
        <time>2015-12-09T14:17:45.49Z</time>
      </trkpt>
      <trkpt lat="45.85579" lon="4.67856">
        <ele>198.300003052</ele>
        <time>2015-12-09T14:17:46.511Z</time>
      </trkpt>
      <trkpt lat="45.8558" lon="4.67847">
        <ele>197.899993896</ele>
        <time>2015-12-09T14:17:47.49Z</time>
      </trkpt>
      <trkpt lat="45.85582" lon="4.67839">
        <ele>197.800003052</ele>
        <time>2015-12-09T14:17:48.505Z</time>
      </trkpt>
      <trkpt lat="45.85583" lon="4.67831">
        <ele>197.800003052</ele>
        <time>2015-12-09T14:17:49.49Z</time>
      </trkpt>
      <trkpt lat="45.85585" lon="4.67823">
        <ele>197.600006104</ele>
        <time>2015-12-09T14:17:50.504Z</time>
      </trkpt>
      <trkpt lat="45.85587" lon="4.67815">
        <ele>197.399993896</ele>
        <time>2015-12-09T14:17:51.49Z</time>
      </trkpt>
      <trkpt lat="45.85588" lon="4.67807">
        <ele>197.199996948</ele>
        <time>2015-12-09T14:17:52.508Z</time>
      </trkpt>
      <trkpt lat="45.8559" lon="4.67799">
        <ele>197.300003052</ele>
        <time>2015-12-09T14:17:53.49Z</time>
      </trkpt>
      <trkpt lat="45.85592" lon="4.67791">
        <ele>197.399993896</ele>
        <time>2015-12-09T14:17:54.505Z</time>
      </trkpt>
      <trkpt lat="45.85594" lon="4.67783">
        <ele>197.100006104</ele>
        <time>2015-12-09T14:17:55.49Z</time>
      </trkpt>
      <trkpt lat="45.85597" lon="4.67776">
        <ele>197.399993896</ele>
        <time>2015-12-09T14:17:56.52Z</time>
      </trkpt>
      <trkpt lat="45.85599" lon="4.67768">
        <ele>197.300003052</ele>
        <time>2015-12-09T14:17:57.49Z</time>
      </trkpt>
      <trkpt lat="45.85603" lon="4.67761">
        <ele>197.199996948</ele>
        <time>2015-12-09T14:17:58.508Z</time>
      </trkpt>
      <trkpt lat="45.85606" lon="4.67755">
        <ele>197.100006104</ele>
        <time>2015-12-09T14:17:59.49Z</time>
      </trkpt>
      <trkpt lat="45.8561" lon="4.67748">
        <ele>197.100006104</ele>
        <time>2015-12-09T14:18:00.505Z</time>
      </trkpt>
      <trkpt lat="45.85614" lon="4.67741">
        <ele>197.199996948</ele>
        <time>2015-12-09T14:18:01.49Z</time>
      </trkpt>
      <trkpt lat="45.85618" lon="4.67735">
        <ele>197.300003052</ele>
        <time>2015-12-09T14:18:02.504Z</time>
      </trkpt>
      <trkpt lat="45.85623" lon="4.67728">
        <ele>197.300003052</ele>
        <time>2015-12-09T14:18:03.49Z</time>
      </trkpt>
      <trkpt lat="45.85627" lon="4.67722">
        <ele>197.199996948</ele>
        <time>2015-12-09T14:18:04.507Z</time>
      </trkpt>
      <trkpt lat="45.85631" lon="4.67716">
        <ele>196.899993896</ele>
        <time>2015-12-09T14:18:05.49Z</time>
      </trkpt>
      <trkpt lat="45.85635" lon="4.67711">
        <ele>196.899993896</ele>
        <time>2015-12-09T14:18:06.508Z</time>
      </trkpt>
      <trkpt lat="45.8564" lon="4.67705">
        <ele>196.600006104</ele>
        <time>2015-12-09T14:18:07.49Z</time>
      </trkpt>
      <trkpt lat="45.85645" lon="4.677">
        <ele>196.699996948</ele>
        <time>2015-12-09T14:18:08.504Z</time>
      </trkpt>
      <trkpt lat="45.8565" lon="4.67696">
        <ele>196.800003052</ele>
        <time>2015-12-09T14:18:09.49Z</time>
      </trkpt>
      <trkpt lat="45.85655" lon="4.67691">
        <ele>196.899993896</ele>
        <time>2015-12-09T14:18:10.514Z</time>
      </trkpt>
      <trkpt lat="45.85661" lon="4.67687">
        <ele>197</ele>
        <time>2015-12-09T14:18:11.492Z</time>
      </trkpt>
      <trkpt lat="45.85666" lon="4.67683">
        <ele>197.100006104</ele>
        <time>2015-12-09T14:18:12.518Z</time>
      </trkpt>
      <trkpt lat="45.85671" lon="4.67679">
        <ele>197.100006104</ele>
        <time>2015-12-09T14:18:13.49Z</time>
      </trkpt>
      <trkpt lat="45.85676" lon="4.67675">
        <ele>197</ele>
        <time>2015-12-09T14:18:14.504Z</time>
      </trkpt>
      <trkpt lat="45.85681" lon="4.67671">
        <ele>197.100006104</ele>
        <time>2015-12-09T14:18:15.49Z</time>
      </trkpt>
      <trkpt lat="45.85686" lon="4.67668">
        <ele>197.100006104</ele>
        <time>2015-12-09T14:18:16.549Z</time>
      </trkpt>
      <trkpt lat="45.8569" lon="4.67665">
        <ele>197.100006104</ele>
        <time>2015-12-09T14:18:17.49Z</time>
      </trkpt>
      <trkpt lat="45.85695" lon="4.67661">
        <ele>197</ele>
        <time>2015-12-09T14:18:18.505Z</time>
      </trkpt>
      <trkpt lat="45.857" lon="4.67658">
        <ele>196.800003052</ele>
        <time>2015-12-09T14:18:19.49Z</time>
      </trkpt>
      <trkpt lat="45.85705" lon="4.67655">
        <ele>196.699996948</ele>
        <time>2015-12-09T14:18:20.538Z</time>
      </trkpt>
      <trkpt lat="45.85709" lon="4.67652">
        <ele>196.600006104</ele>
        <time>2015-12-09T14:18:21.49Z</time>
      </trkpt>
      <trkpt lat="45.85714" lon="4.67648">
        <ele>196.699996948</ele>
        <time>2015-12-09T14:18:22.506Z</time>
      </trkpt>
      <trkpt lat="45.85718" lon="4.67645">
        <ele>196.699996948</ele>
        <time>2015-12-09T14:18:23.503Z</time>
      </trkpt>
      <trkpt lat="45.85723" lon="4.67642">
        <ele>196.600006104</ele>
        <time>2015-12-09T14:18:24.505Z</time>
      </trkpt>
      <trkpt lat="45.85728" lon="4.67639">
        <ele>196.699996948</ele>
        <time>2015-12-09T14:18:25.49Z</time>
      </trkpt>
      <trkpt lat="45.85733" lon="4.67636">
        <ele>196.800003052</ele>
        <time>2015-12-09T14:18:26.506Z</time>
      </trkpt>
      <trkpt lat="45.85738" lon="4.67632">
        <ele>196.899993896</ele>
        <time>2015-12-09T14:18:27.491Z</time>
      </trkpt>
      <trkpt lat="45.85743" lon="4.67629">
        <ele>197</ele>
        <time>2015-12-09T14:18:28.507Z</time>
      </trkpt>
      <trkpt lat="45.85749" lon="4.67626">
        <ele>197</ele>
        <time>2015-12-09T14:18:29.49Z</time>
      </trkpt>
      <trkpt lat="45.85754" lon="4.67623">
        <ele>197</ele>
        <time>2015-12-09T14:18:30.505Z</time>
      </trkpt>
      <trkpt lat="45.8576" lon="4.6762">
        <ele>196.899993896</ele>
        <time>2015-12-09T14:18:31.49Z</time>
      </trkpt>
      <trkpt lat="45.85765" lon="4.67616">
        <ele>196.899993896</ele>
        <time>2015-12-09T14:18:32.504Z</time>
      </trkpt>
      <trkpt lat="45.8577" lon="4.67613">
        <ele>197</ele>
        <time>2015-12-09T14:18:33.49Z</time>
      </trkpt>
      <trkpt lat="45.85775" lon="4.67608">
        <ele>197.100006104</ele>
        <time>2015-12-09T14:18:34.506Z</time>
      </trkpt>
      <trkpt lat="45.8578" lon="4.67604">
        <ele>197.199996948</ele>
        <time>2015-12-09T14:18:35.49Z</time>
      </trkpt>
      <trkpt lat="45.85784" lon="4.67599">
        <ele>197.300003052</ele>
        <time>2015-12-09T14:18:36.506Z</time>
      </trkpt>
      <trkpt lat="45.85789" lon="4.67593">
        <ele>197.300003052</ele>
        <time>2015-12-09T14:18:37.49Z</time>
      </trkpt>
      <trkpt lat="45.85794" lon="4.67588">
        <ele>197.399993896</ele>
        <time>2015-12-09T14:18:38.504Z</time>
      </trkpt>
      <trkpt lat="45.85799" lon="4.67582">
        <ele>197.399993896</ele>
        <time>2015-12-09T14:18:39.49Z</time>
      </trkpt>
      <trkpt lat="45.85804" lon="4.67577">
        <ele>197.300003052</ele>
        <time>2015-12-09T14:18:40.539Z</time>
      </trkpt>
      <trkpt lat="45.85809" lon="4.67571">
        <ele>197.600006104</ele>
        <time>2015-12-09T14:18:41.49Z</time>
      </trkpt>
      <trkpt lat="45.85814" lon="4.67566">
        <ele>197.899993896</ele>
        <time>2015-12-09T14:18:42.559Z</time>
      </trkpt>
      <trkpt lat="45.85818" lon="4.6756">
        <ele>198.100006104</ele>
        <time>2015-12-09T14:18:43.49Z</time>
      </trkpt>
      <trkpt lat="45.85822" lon="4.67555">
        <ele>198</ele>
        <time>2015-12-09T14:18:44.505Z</time>
      </trkpt>
      <trkpt lat="45.85826" lon="4.67549">
        <ele>198</ele>
        <time>2015-12-09T14:18:45.49Z</time>
      </trkpt>
      <trkpt lat="45.8583" lon="4.67543">
        <ele>198.100006104</ele>
        <time>2015-12-09T14:18:46.508Z</time>
      </trkpt>
      <trkpt lat="45.85833" lon="4.67537">
        <ele>198.199996948</ele>
        <time>2015-12-09T14:18:47.49Z</time>
      </trkpt>
      <trkpt lat="45.85837" lon="4.67531">
        <ele>198</ele>
        <time>2015-12-09T14:18:48.505Z</time>
      </trkpt>
      <trkpt lat="45.8584" lon="4.67524">
        <ele>198.100006104</ele>
        <time>2015-12-09T14:18:49.49Z</time>
      </trkpt>
      <trkpt lat="45.85843" lon="4.67517">
        <ele>198.100006104</ele>
        <time>2015-12-09T14:18:50.504Z</time>
      </trkpt>
      <trkpt lat="45.85846" lon="4.67511">
        <ele>198.399993896</ele>
        <time>2015-12-09T14:18:51.49Z</time>
      </trkpt>
      <trkpt lat="45.85848" lon="4.67504">
        <ele>198.5</ele>
        <time>2015-12-09T14:18:52.506Z</time>
      </trkpt>
      <trkpt lat="45.8585" lon="4.67498">
        <ele>198.800003052</ele>
        <time>2015-12-09T14:18:53.49Z</time>
      </trkpt>
      <trkpt lat="45.85852" lon="4.67491">
        <ele>199.100006104</ele>
        <time>2015-12-09T14:18:54.505Z</time>
      </trkpt>
      <trkpt lat="45.85855" lon="4.67484">
        <ele>199.300003052</ele>
        <time>2015-12-09T14:18:55.504Z</time>
      </trkpt>
      <trkpt lat="45.85856" lon="4.67477">
        <ele>199.800003052</ele>
        <time>2015-12-09T14:18:56.505Z</time>
      </trkpt>
      <trkpt lat="45.85858" lon="4.6747">
        <ele>200.100006104</ele>
        <time>2015-12-09T14:18:57.49Z</time>
      </trkpt>
      <trkpt lat="45.85859" lon="4.67463">
        <ele>200</ele>
        <time>2015-12-09T14:18:58.506Z</time>
      </trkpt>
      <trkpt lat="45.85861" lon="4.67455">
        <ele>199.899993896</ele>
        <time>2015-12-09T14:18:59.49Z</time>
      </trkpt>
      <trkpt lat="45.85863" lon="4.67447">
        <ele>199.800003052</ele>
        <time>2015-12-09T14:19:00.506Z</time>
      </trkpt>
      <trkpt lat="45.85864" lon="4.67439">
        <ele>199.699996948</ele>
        <time>2015-12-09T14:19:01.49Z</time>
      </trkpt>
      <trkpt lat="45.85866" lon="4.67431">
        <ele>199.800003052</ele>
        <time>2015-12-09T14:19:02.505Z</time>
      </trkpt>
      <trkpt lat="45.85867" lon="4.67423">
        <ele>199.699996948</ele>
        <time>2015-12-09T14:19:03.49Z</time>
      </trkpt>
      <trkpt lat="45.85869" lon="4.67415">
        <ele>199.699996948</ele>
        <time>2015-12-09T14:19:04.507Z</time>
      </trkpt>
      <trkpt lat="45.8587" lon="4.67408">
        <ele>199.899993896</ele>
        <time>2015-12-09T14:19:05.49Z</time>
      </trkpt>
      <trkpt lat="45.85871" lon="4.674">
        <ele>200.100006104</ele>
        <time>2015-12-09T14:19:06.506Z</time>
      </trkpt>
      <trkpt lat="45.85873" lon="4.67392">
        <ele>199.699996948</ele>
        <time>2015-12-09T14:19:07.49Z</time>
      </trkpt>
      <trkpt lat="45.85874" lon="4.67383">
        <ele>199</ele>
        <time>2015-12-09T14:19:08.504Z</time>
      </trkpt>
      <trkpt lat="45.85875" lon="4.67376">
        <ele>198.899993896</ele>
        <time>2015-12-09T14:19:09.49Z</time>
      </trkpt>
      <trkpt lat="45.85875" lon="4.67368">
        <ele>199.199996948</ele>
        <time>2015-12-09T14:19:10.506Z</time>
      </trkpt>
      <trkpt lat="45.85876" lon="4.6736">
        <ele>199.399993896</ele>
        <time>2015-12-09T14:19:11.493Z</time>
      </trkpt>
      <trkpt lat="45.85876" lon="4.67353">
        <ele>199.399993896</ele>
        <time>2015-12-09T14:19:12.504Z</time>
      </trkpt>
      <trkpt lat="45.85877" lon="4.67345">
        <ele>199.5</ele>
        <time>2015-12-09T14:19:13.49Z</time>
      </trkpt>
      <trkpt lat="45.85878" lon="4.67337">
        <ele>199.5</ele>
        <time>2015-12-09T14:19:14.504Z</time>
      </trkpt>
      <trkpt lat="45.85879" lon="4.67329">
        <ele>199.5</ele>
        <time>2015-12-09T14:19:15.49Z</time>
      </trkpt>
      <trkpt lat="45.85879" lon="4.67321">
        <ele>199.699996948</ele>
        <time>2015-12-09T14:19:16.507Z</time>
      </trkpt>
      <trkpt lat="45.8588" lon="4.67313">
        <ele>200</ele>
        <time>2015-12-09T14:19:17.49Z</time>
      </trkpt>
      <trkpt lat="45.85881" lon="4.67305">
        <ele>199.899993896</ele>
        <time>2015-12-09T14:19:18.505Z</time>
      </trkpt>
      <trkpt lat="45.85881" lon="4.67297">
        <ele>200.300003052</ele>
        <time>2015-12-09T14:19:19.49Z</time>
      </trkpt>
      <trkpt lat="45.85882" lon="4.67289">
        <ele>200.199996948</ele>
        <time>2015-12-09T14:19:20.505Z</time>
      </trkpt>
      <trkpt lat="45.85882" lon="4.67281">
        <ele>200.300003052</ele>
        <time>2015-12-09T14:19:21.49Z</time>
      </trkpt>
      <trkpt lat="45.85883" lon="4.67272">
        <ele>200.199996948</ele>
        <time>2015-12-09T14:19:22.507Z</time>
      </trkpt>
      <trkpt lat="45.85884" lon="4.67264">
        <ele>200.399993896</ele>
        <time>2015-12-09T14:19:23.49Z</time>
      </trkpt>
      <trkpt lat="45.85885" lon="4.67256">
        <ele>200.699996948</ele>
        <time>2015-12-09T14:19:24.506Z</time>
      </trkpt>
      <trkpt lat="45.85885" lon="4.67249">
        <ele>200.699996948</ele>
        <time>2015-12-09T14:19:25.49Z</time>
      </trkpt>
      <trkpt lat="45.85886" lon="4.67241">
        <ele>200.699996948</ele>
        <time>2015-12-09T14:19:26.505Z</time>
      </trkpt>
      <trkpt lat="45.85887" lon="4.67233">
        <ele>200.100006104</ele>
        <time>2015-12-09T14:19:27.49Z</time>
      </trkpt>
      <trkpt lat="45.85888" lon="4.67225">
        <ele>199.5</ele>
        <time>2015-12-09T14:19:28.506Z</time>
      </trkpt>
      <trkpt lat="45.85888" lon="4.67218">
        <ele>199.699996948</ele>
        <time>2015-12-09T14:19:29.49Z</time>
      </trkpt>
      <trkpt lat="45.85889" lon="4.6721">
        <ele>199.199996948</ele>
        <time>2015-12-09T14:19:30.505Z</time>
      </trkpt>
      <trkpt lat="45.8589" lon="4.67202">
        <ele>198.600006104</ele>
        <time>2015-12-09T14:19:31.49Z</time>
      </trkpt>
      <trkpt lat="45.8589" lon="4.67194">
        <ele>198.899993896</ele>
        <time>2015-12-09T14:19:32.518Z</time>
      </trkpt>
      <trkpt lat="45.85891" lon="4.67186">
        <ele>198.800003052</ele>
        <time>2015-12-09T14:19:33.495Z</time>
      </trkpt>
      <trkpt lat="45.85892" lon="4.67178">
        <ele>198.899993896</ele>
        <time>2015-12-09T14:19:34.506Z</time>
      </trkpt>
      <trkpt lat="45.85893" lon="4.6717">
        <ele>198.899993896</ele>
        <time>2015-12-09T14:19:35.49Z</time>
      </trkpt>
      <trkpt lat="45.85894" lon="4.67162">
        <ele>199.199996948</ele>
        <time>2015-12-09T14:19:36.505Z</time>
      </trkpt>
      <trkpt lat="45.85895" lon="4.67154">
        <ele>198.899993896</ele>
        <time>2015-12-09T14:19:37.49Z</time>
      </trkpt>
      <trkpt lat="45.85896" lon="4.67146">
        <ele>198.300003052</ele>
        <time>2015-12-09T14:19:38.504Z</time>
      </trkpt>
      <trkpt lat="45.85897" lon="4.67138">
        <ele>198</ele>
        <time>2015-12-09T14:19:39.49Z</time>
      </trkpt>
      <trkpt lat="45.85898" lon="4.67131">
        <ele>197.399993896</ele>
        <time>2015-12-09T14:19:40.506Z</time>
      </trkpt>
      <trkpt lat="45.85898" lon="4.67123">
        <ele>197.100006104</ele>
        <time>2015-12-09T14:19:41.49Z</time>
      </trkpt>
      <trkpt lat="45.859" lon="4.67115">
        <ele>197</ele>
        <time>2015-12-09T14:19:42.505Z</time>
      </trkpt>
      <trkpt lat="45.85901" lon="4.67107">
        <ele>197</ele>
        <time>2015-12-09T14:19:43.49Z</time>
      </trkpt>
      <trkpt lat="45.85903" lon="4.67099">
        <ele>196.399993896</ele>
        <time>2015-12-09T14:19:44.504Z</time>
      </trkpt>
      <trkpt lat="45.85903" lon="4.67091">
        <ele>196</ele>
        <time>2015-12-09T14:19:45.49Z</time>
      </trkpt>
      <trkpt lat="45.85904" lon="4.67083">
        <ele>195.699996948</ele>
        <time>2015-12-09T14:19:46.507Z</time>
      </trkpt>
      <trkpt lat="45.85905" lon="4.67075">
        <ele>195.600006104</ele>
        <time>2015-12-09T14:19:47.49Z</time>
      </trkpt>
      <trkpt lat="45.85906" lon="4.67067">
        <ele>195.199996948</ele>
        <time>2015-12-09T14:19:48.52Z</time>
      </trkpt>
      <trkpt lat="45.85908" lon="4.6706">
        <ele>195.399993896</ele>
        <time>2015-12-09T14:19:49.49Z</time>
      </trkpt>
      <trkpt lat="45.85909" lon="4.67052">
        <ele>195.699996948</ele>
        <time>2015-12-09T14:19:50.505Z</time>
      </trkpt>
      <trkpt lat="45.85911" lon="4.67045">
        <ele>195.899993896</ele>
        <time>2015-12-09T14:19:51.49Z</time>
      </trkpt>
      <trkpt lat="45.85912" lon="4.67038">
        <ele>196.199996948</ele>
        <time>2015-12-09T14:19:52.539Z</time>
      </trkpt>
      <trkpt lat="45.85914" lon="4.67031">
        <ele>196.399993896</ele>
        <time>2015-12-09T14:19:53.49Z</time>
      </trkpt>
      <trkpt lat="45.85915" lon="4.67024">
        <ele>196.5</ele>
        <time>2015-12-09T14:19:54.505Z</time>
      </trkpt>
      <trkpt lat="45.85917" lon="4.67018">
        <ele>196.399993896</ele>
        <time>2015-12-09T14:19:55.49Z</time>
      </trkpt>
      <trkpt lat="45.85919" lon="4.67011">
        <ele>196.600006104</ele>
        <time>2015-12-09T14:19:56.505Z</time>
      </trkpt>
      <trkpt lat="45.85921" lon="4.67005">
        <ele>196.899993896</ele>
        <time>2015-12-09T14:19:57.49Z</time>
      </trkpt>
      <trkpt lat="45.85924" lon="4.66999">
        <ele>196.699996948</ele>
        <time>2015-12-09T14:19:58.506Z</time>
      </trkpt>
      <trkpt lat="45.85927" lon="4.66994">
        <ele>197</ele>
        <time>2015-12-09T14:19:59.49Z</time>
      </trkpt>
      <trkpt lat="45.8593" lon="4.66988">
        <ele>196.899993896</ele>
        <time>2015-12-09T14:20:00.505Z</time>
      </trkpt>
      <trkpt lat="45.85931" lon="4.66981">
        <ele>196.600006104</ele>
        <time>2015-12-09T14:20:01.49Z</time>
      </trkpt>
      <trkpt lat="45.85932" lon="4.66973">
        <ele>196.199996948</ele>
        <time>2015-12-09T14:20:02.504Z</time>
      </trkpt>
      <trkpt lat="45.85932" lon="4.66965">
        <ele>196.5</ele>
        <time>2015-12-09T14:20:03.49Z</time>
      </trkpt>
      <trkpt lat="45.8593" lon="4.66957">
        <ele>196.5</ele>
        <time>2015-12-09T14:20:04.52Z</time>
      </trkpt>
      <trkpt lat="45.85929" lon="4.66949">
        <ele>196.100006104</ele>
        <time>2015-12-09T14:20:05.49Z</time>
      </trkpt>
      <trkpt lat="45.85929" lon="4.66941">
        <ele>195.899993896</ele>
        <time>2015-12-09T14:20:06.506Z</time>
      </trkpt>
      <trkpt lat="45.8593" lon="4.66932">
        <ele>196</ele>
        <time>2015-12-09T14:20:07.49Z</time>
      </trkpt>
      <trkpt lat="45.85932" lon="4.66924">
        <ele>196.399993896</ele>
        <time>2015-12-09T14:20:08.504Z</time>
      </trkpt>
      <trkpt lat="45.85934" lon="4.66915">
        <ele>196.100006104</ele>
        <time>2015-12-09T14:20:09.49Z</time>
      </trkpt>
      <trkpt lat="45.85935" lon="4.66907">
        <ele>196</ele>
        <time>2015-12-09T14:20:10.638Z</time>
      </trkpt>
      <trkpt lat="45.85937" lon="4.66898">
        <ele>196.300003052</ele>
        <time>2015-12-09T14:20:11.492Z</time>
      </trkpt>
      <trkpt lat="45.85939" lon="4.6689">
        <ele>196.800003052</ele>
        <time>2015-12-09T14:20:12.505Z</time>
      </trkpt>
      <trkpt lat="45.85941" lon="4.66881">
        <ele>196.899993896</ele>
        <time>2015-12-09T14:20:13.49Z</time>
      </trkpt>
      <trkpt lat="45.85942" lon="4.66874">
        <ele>197.100006104</ele>
        <time>2015-12-09T14:20:14.504Z</time>
      </trkpt>
      <trkpt lat="45.85945" lon="4.66865">
        <ele>197.300003052</ele>
        <time>2015-12-09T14:20:15.49Z</time>
      </trkpt>
      <trkpt lat="45.85947" lon="4.66857">
        <ele>197.300003052</ele>
        <time>2015-12-09T14:20:16.507Z</time>
      </trkpt>
      <trkpt lat="45.85949" lon="4.66849">
        <ele>197.399993896</ele>
        <time>2015-12-09T14:20:17.49Z</time>
      </trkpt>
      <trkpt lat="45.85951" lon="4.66841">
        <ele>197.199996948</ele>
        <time>2015-12-09T14:20:18.505Z</time>
      </trkpt>
      <trkpt lat="45.85954" lon="4.66834">
        <ele>197.100006104</ele>
        <time>2015-12-09T14:20:19.49Z</time>
      </trkpt>
      <trkpt lat="45.85955" lon="4.66827">
        <ele>197.5</ele>
        <time>2015-12-09T14:20:20.517Z</time>
      </trkpt>
      <trkpt lat="45.85957" lon="4.66819">
        <ele>197</ele>
        <time>2015-12-09T14:20:21.526Z</time>
      </trkpt>
      <trkpt lat="45.8596" lon="4.66811">
        <ele>197.199996948</ele>
        <time>2015-12-09T14:20:22.506Z</time>
      </trkpt>
      <trkpt lat="45.85962" lon="4.66804">
        <ele>197.399993896</ele>
        <time>2015-12-09T14:20:23.49Z</time>
      </trkpt>
      <trkpt lat="45.85964" lon="4.66796">
        <ele>197.600006104</ele>
        <time>2015-12-09T14:20:24.63Z</time>
      </trkpt>
      <trkpt lat="45.85966" lon="4.66789">
        <ele>198.199996948</ele>
        <time>2015-12-09T14:20:25.49Z</time>
      </trkpt>
      <trkpt lat="45.85969" lon="4.66782">
        <ele>198.600006104</ele>
        <time>2015-12-09T14:20:26.504Z</time>
      </trkpt>
      <trkpt lat="45.85971" lon="4.66774">
        <ele>198.300003052</ele>
        <time>2015-12-09T14:20:27.49Z</time>
      </trkpt>
      <trkpt lat="45.85974" lon="4.66766">
        <ele>198.600006104</ele>
        <time>2015-12-09T14:20:28.506Z</time>
      </trkpt>
      <trkpt lat="45.85976" lon="4.66758">
        <ele>198.800003052</ele>
        <time>2015-12-09T14:20:29.49Z</time>
      </trkpt>
      <trkpt lat="45.85978" lon="4.66751">
        <ele>199.100006104</ele>
        <time>2015-12-09T14:20:30.505Z</time>
      </trkpt>
      <trkpt lat="45.85982" lon="4.66744">
        <ele>199.199996948</ele>
        <time>2015-12-09T14:20:31.49Z</time>
      </trkpt>
      <trkpt lat="45.85984" lon="4.66738">
        <ele>199.5</ele>
        <time>2015-12-09T14:20:32.504Z</time>
      </trkpt>
      <trkpt lat="45.85987" lon="4.66732">
        <ele>199.899993896</ele>
        <time>2015-12-09T14:20:33.49Z</time>
      </trkpt>
      <trkpt lat="45.85991" lon="4.66726">
        <ele>200.100006104</ele>
        <time>2015-12-09T14:20:34.507Z</time>
      </trkpt>
      <trkpt lat="45.85994" lon="4.66719">
        <ele>199.899993896</ele>
        <time>2015-12-09T14:20:35.49Z</time>
      </trkpt>
      <trkpt lat="45.85998" lon="4.66713">
        <ele>199.899993896</ele>
        <time>2015-12-09T14:20:36.52Z</time>
      </trkpt>
      <trkpt lat="45.86001" lon="4.66707">
        <ele>200</ele>
        <time>2015-12-09T14:20:37.49Z</time>
      </trkpt>
      <trkpt lat="45.86005" lon="4.66701">
        <ele>199.800003052</ele>
        <time>2015-12-09T14:20:38.504Z</time>
      </trkpt>
      <trkpt lat="45.86009" lon="4.66695">
        <ele>199.5</ele>
        <time>2015-12-09T14:20:39.49Z</time>
      </trkpt>
      <trkpt lat="45.86013" lon="4.6669">
        <ele>199.600006104</ele>
        <time>2015-12-09T14:20:40.506Z</time>
      </trkpt>
      <trkpt lat="45.86017" lon="4.66684">
        <ele>199.399993896</ele>
        <time>2015-12-09T14:20:41.49Z</time>
      </trkpt>
      <trkpt lat="45.86022" lon="4.66679">
        <ele>199.600006104</ele>
        <time>2015-12-09T14:20:42.504Z</time>
      </trkpt>
      <trkpt lat="45.86026" lon="4.66673">
        <ele>199.600006104</ele>
        <time>2015-12-09T14:20:43.49Z</time>
      </trkpt>
      <trkpt lat="45.86031" lon="4.66668">
        <ele>199.699996948</ele>
        <time>2015-12-09T14:20:44.504Z</time>
      </trkpt>
      <trkpt lat="45.86035" lon="4.66663">
        <ele>199.800003052</ele>
        <time>2015-12-09T14:20:45.49Z</time>
      </trkpt>
      <trkpt lat="45.8604" lon="4.66658">
        <ele>199.600006104</ele>
        <time>2015-12-09T14:20:46.507Z</time>
      </trkpt>
      <trkpt lat="45.86044" lon="4.66654">
        <ele>199.600006104</ele>
        <time>2015-12-09T14:20:47.49Z</time>
      </trkpt>
      <trkpt lat="45.86048" lon="4.6665">
        <ele>199.600006104</ele>
        <time>2015-12-09T14:20:48.505Z</time>
      </trkpt>
      <trkpt lat="45.86053" lon="4.66645">
        <ele>199.800003052</ele>
        <time>2015-12-09T14:20:49.49Z</time>
      </trkpt>
      <trkpt lat="45.86057" lon="4.66641">
        <ele>199.699996948</ele>
        <time>2015-12-09T14:20:50.504Z</time>
      </trkpt>
      <trkpt lat="45.86061" lon="4.66637">
        <ele>199.5</ele>
        <time>2015-12-09T14:20:51.49Z</time>
      </trkpt>
      <trkpt lat="45.86066" lon="4.66633">
        <ele>199.5</ele>
        <time>2015-12-09T14:20:52.521Z</time>
      </trkpt>
      <trkpt lat="45.86071" lon="4.66629">
        <ele>199.699996948</ele>
        <time>2015-12-09T14:20:53.49Z</time>
      </trkpt>
      <trkpt lat="45.86076" lon="4.66626">
        <ele>199.800003052</ele>
        <time>2015-12-09T14:20:54.628Z</time>
      </trkpt>
      <trkpt lat="45.8608" lon="4.66622">
        <ele>200</ele>
        <time>2015-12-09T14:20:55.49Z</time>
      </trkpt>
      <trkpt lat="45.86085" lon="4.66618">
        <ele>200.100006104</ele>
        <time>2015-12-09T14:20:56.504Z</time>
      </trkpt>
      <trkpt lat="45.8609" lon="4.66615">
        <ele>200.199996948</ele>
        <time>2015-12-09T14:20:57.49Z</time>
      </trkpt>
      <trkpt lat="45.86094" lon="4.66612">
        <ele>200.100006104</ele>
        <time>2015-12-09T14:20:58.505Z</time>
      </trkpt>
      <trkpt lat="45.86099" lon="4.66609">
        <ele>200.300003052</ele>
        <time>2015-12-09T14:20:59.49Z</time>
      </trkpt>
      <trkpt lat="45.86104" lon="4.66606">
        <ele>200.399993896</ele>
        <time>2015-12-09T14:21:00.505Z</time>
      </trkpt>
      <trkpt lat="45.86109" lon="4.66603">
        <ele>200.600006104</ele>
        <time>2015-12-09T14:21:01.49Z</time>
      </trkpt>
      <trkpt lat="45.86114" lon="4.666">
        <ele>200.699996948</ele>
        <time>2015-12-09T14:21:02.507Z</time>
      </trkpt>
      <trkpt lat="45.8612" lon="4.66597">
        <ele>200.800003052</ele>
        <time>2015-12-09T14:21:03.49Z</time>
      </trkpt>
      <trkpt lat="45.86125" lon="4.66593">
        <ele>200.800003052</ele>
        <time>2015-12-09T14:21:04.507Z</time>
      </trkpt>
      <trkpt lat="45.8613" lon="4.66589">
        <ele>200.800003052</ele>
        <time>2015-12-09T14:21:05.49Z</time>
      </trkpt>
      <trkpt lat="45.86135" lon="4.66586">
        <ele>200.899993896</ele>
        <time>2015-12-09T14:21:06.506Z</time>
      </trkpt>
      <trkpt lat="45.8614" lon="4.66581">
        <ele>201.100006104</ele>
        <time>2015-12-09T14:21:07.49Z</time>
      </trkpt>
      <trkpt lat="45.86145" lon="4.66576">
        <ele>201.100006104</ele>
        <time>2015-12-09T14:21:08.519Z</time>
      </trkpt>
      <trkpt lat="45.8615" lon="4.6657">
        <ele>201.300003052</ele>
        <time>2015-12-09T14:21:09.49Z</time>
      </trkpt>
      <trkpt lat="45.86154" lon="4.66564">
        <ele>201.399993896</ele>
        <time>2015-12-09T14:21:10.506Z</time>
      </trkpt>
      <trkpt lat="45.86159" lon="4.66558">
        <ele>201.600006104</ele>
        <time>2015-12-09T14:21:11.492Z</time>
      </trkpt>
      <trkpt lat="45.86163" lon="4.66551">
        <ele>201.699996948</ele>
        <time>2015-12-09T14:21:12.505Z</time>
      </trkpt>
      <trkpt lat="45.86168" lon="4.66544">
        <ele>201.899993896</ele>
        <time>2015-12-09T14:21:13.49Z</time>
      </trkpt>
      <trkpt lat="45.86172" lon="4.66537">
        <ele>201.899993896</ele>
        <time>2015-12-09T14:21:14.504Z</time>
      </trkpt>
      <trkpt lat="45.86177" lon="4.66529">
        <ele>202.300003052</ele>
        <time>2015-12-09T14:21:15.49Z</time>
      </trkpt>
      <trkpt lat="45.86182" lon="4.66522">
        <ele>202.300003052</ele>
        <time>2015-12-09T14:21:16.507Z</time>
      </trkpt>
      <trkpt lat="45.86186" lon="4.66514">
        <ele>202.600006104</ele>
        <time>2015-12-09T14:21:17.49Z</time>
      </trkpt>
      <trkpt lat="45.8619" lon="4.66507">
        <ele>202.899993896</ele>
        <time>2015-12-09T14:21:18.506Z</time>
      </trkpt>
      <trkpt lat="45.86194" lon="4.665">
        <ele>203</ele>
        <time>2015-12-09T14:21:19.49Z</time>
      </trkpt>
      <trkpt lat="45.86198" lon="4.66493">
        <ele>203.100006104</ele>
        <time>2015-12-09T14:21:20.504Z</time>
      </trkpt>
      <trkpt lat="45.86202" lon="4.66486">
        <ele>202.899993896</ele>
        <time>2015-12-09T14:21:21.49Z</time>
      </trkpt>
      <trkpt lat="45.86206" lon="4.66478">
        <ele>202.899993896</ele>
        <time>2015-12-09T14:21:22.506Z</time>
      </trkpt>
      <trkpt lat="45.8621" lon="4.66471">
        <ele>203.199996948</ele>
        <time>2015-12-09T14:21:23.49Z</time>
      </trkpt>
      <trkpt lat="45.86214" lon="4.66464">
        <ele>202.699996948</ele>
        <time>2015-12-09T14:21:24.52Z</time>
      </trkpt>
      <trkpt lat="45.86218" lon="4.66457">
        <ele>202.699996948</ele>
        <time>2015-12-09T14:21:25.49Z</time>
      </trkpt>
      <trkpt lat="45.86222" lon="4.6645">
        <ele>203</ele>
        <time>2015-12-09T14:21:26.504Z</time>
      </trkpt>
      <trkpt lat="45.86226" lon="4.66442">
        <ele>203.199996948</ele>
        <time>2015-12-09T14:21:27.49Z</time>
      </trkpt>
      <trkpt lat="45.8623" lon="4.66435">
        <ele>202.899993896</ele>
        <time>2015-12-09T14:21:28.506Z</time>
      </trkpt>
      <trkpt lat="45.86233" lon="4.66428">
        <ele>202.800003052</ele>
        <time>2015-12-09T14:21:29.49Z</time>
      </trkpt>
      <trkpt lat="45.86237" lon="4.66422">
        <ele>202.399993896</ele>
        <time>2015-12-09T14:21:30.505Z</time>
      </trkpt>
      <trkpt lat="45.86241" lon="4.66415">
        <ele>202.5</ele>
        <time>2015-12-09T14:21:31.49Z</time>
      </trkpt>
      <trkpt lat="45.86246" lon="4.66408">
        <ele>202.199996948</ele>
        <time>2015-12-09T14:21:32.504Z</time>
      </trkpt>
      <trkpt lat="45.8625" lon="4.66401">
        <ele>202.100006104</ele>
        <time>2015-12-09T14:21:33.49Z</time>
      </trkpt>
      <trkpt lat="45.86254" lon="4.66393">
        <ele>202</ele>
        <time>2015-12-09T14:21:34.506Z</time>
      </trkpt>
      <trkpt lat="45.86258" lon="4.66387">
        <ele>202.199996948</ele>
        <time>2015-12-09T14:21:35.49Z</time>
      </trkpt>
      <trkpt lat="45.86262" lon="4.66379">
        <ele>202.100006104</ele>
        <time>2015-12-09T14:21:36.506Z</time>
      </trkpt>
      <trkpt lat="45.86265" lon="4.66372">
        <ele>201.899993896</ele>
        <time>2015-12-09T14:21:37.49Z</time>
      </trkpt>
      <trkpt lat="45.86269" lon="4.66365">
        <ele>202.100006104</ele>
        <time>2015-12-09T14:21:38.503Z</time>
      </trkpt>
      <trkpt lat="45.86273" lon="4.66358">
        <ele>202</ele>
        <time>2015-12-09T14:21:39.49Z</time>
      </trkpt>
      <trkpt lat="45.86277" lon="4.66352">
        <ele>201.699996948</ele>
        <time>2015-12-09T14:21:40.52Z</time>
      </trkpt>
      <trkpt lat="45.8628" lon="4.66345">
        <ele>201.800003052</ele>
        <time>2015-12-09T14:21:41.49Z</time>
      </trkpt>
      <trkpt lat="45.86284" lon="4.66339">
        <ele>201.600006104</ele>
        <time>2015-12-09T14:21:42.504Z</time>
      </trkpt>
      <trkpt lat="45.86288" lon="4.66331">
        <ele>201.699996948</ele>
        <time>2015-12-09T14:21:43.49Z</time>
      </trkpt>
      <trkpt lat="45.86293" lon="4.66325">
        <ele>201.600006104</ele>
        <time>2015-12-09T14:21:44.504Z</time>
      </trkpt>
      <trkpt lat="45.86296" lon="4.66319">
        <ele>201.5</ele>
        <time>2015-12-09T14:21:45.491Z</time>
      </trkpt>
      <trkpt lat="45.863" lon="4.66314">
        <ele>201.399993896</ele>
        <time>2015-12-09T14:21:46.511Z</time>
      </trkpt>
      <trkpt lat="45.86304" lon="4.6631">
        <ele>201.199996948</ele>
        <time>2015-12-09T14:21:47.491Z</time>
      </trkpt>
      <trkpt lat="45.86309" lon="4.66305">
        <ele>201.100006104</ele>
        <time>2015-12-09T14:21:48.506Z</time>
      </trkpt>
      <trkpt lat="45.86313" lon="4.663">
        <ele>200.899993896</ele>
        <time>2015-12-09T14:21:49.492Z</time>
      </trkpt>
      <trkpt lat="45.86317" lon="4.66295">
        <ele>200.699996948</ele>
        <time>2015-12-09T14:21:50.505Z</time>
      </trkpt>
      <trkpt lat="45.86321" lon="4.66291">
        <ele>200.399993896</ele>
        <time>2015-12-09T14:21:51.49Z</time>
      </trkpt>
      <trkpt lat="45.86325" lon="4.66287">
        <ele>200.199996948</ele>
        <time>2015-12-09T14:21:52.506Z</time>
      </trkpt>
      <trkpt lat="45.86329" lon="4.66283">
        <ele>200.100006104</ele>
        <time>2015-12-09T14:21:53.49Z</time>
      </trkpt>
      <trkpt lat="45.86334" lon="4.66279">
        <ele>200</ele>
        <time>2015-12-09T14:21:54.505Z</time>
      </trkpt>
      <trkpt lat="45.86338" lon="4.66275">
        <ele>199.899993896</ele>
        <time>2015-12-09T14:21:55.489Z</time>
      </trkpt>
      <trkpt lat="45.86342" lon="4.66271">
        <ele>199.800003052</ele>
        <time>2015-12-09T14:21:56.519Z</time>
      </trkpt>
      <trkpt lat="45.86347" lon="4.66267">
        <ele>199.800003052</ele>
        <time>2015-12-09T14:21:57.489Z</time>
      </trkpt>
      <trkpt lat="45.86351" lon="4.66263">
        <ele>199.800003052</ele>
        <time>2015-12-09T14:21:58.506Z</time>
      </trkpt>
      <trkpt lat="45.86356" lon="4.6626">
        <ele>199.899993896</ele>
        <time>2015-12-09T14:21:59.489Z</time>
      </trkpt>
      <trkpt lat="45.8636" lon="4.66257">
        <ele>199.899993896</ele>
        <time>2015-12-09T14:22:00.505Z</time>
      </trkpt>
      <trkpt lat="45.86365" lon="4.66253">
        <ele>200</ele>
        <time>2015-12-09T14:22:01.489Z</time>
      </trkpt>
      <trkpt lat="45.8637" lon="4.6625">
        <ele>200</ele>
        <time>2015-12-09T14:22:02.504Z</time>
      </trkpt>
      <trkpt lat="45.86375" lon="4.66247">
        <ele>200.100006104</ele>
        <time>2015-12-09T14:22:03.49Z</time>
      </trkpt>
      <trkpt lat="45.8638" lon="4.66244">
        <ele>200.199996948</ele>
        <time>2015-12-09T14:22:04.506Z</time>
      </trkpt>
      <trkpt lat="45.86385" lon="4.66241">
        <ele>200.300003052</ele>
        <time>2015-12-09T14:22:05.489Z</time>
      </trkpt>
      <trkpt lat="45.8639" lon="4.66238">
        <ele>200.399993896</ele>
        <time>2015-12-09T14:22:06.506Z</time>
      </trkpt>
      <trkpt lat="45.86396" lon="4.66236">
        <ele>200.5</ele>
        <time>2015-12-09T14:22:07.49Z</time>
      </trkpt>
      <trkpt lat="45.86401" lon="4.66233">
        <ele>200.600006104</ele>
        <time>2015-12-09T14:22:08.503Z</time>
      </trkpt>
      <trkpt lat="45.86406" lon="4.66231">
        <ele>200.600006104</ele>
        <time>2015-12-09T14:22:09.49Z</time>
      </trkpt>
      <trkpt lat="45.86412" lon="4.66229">
        <ele>200.699996948</ele>
        <time>2015-12-09T14:22:10.505Z</time>
      </trkpt>
      <trkpt lat="45.86417" lon="4.66228">
        <ele>201</ele>
        <time>2015-12-09T14:22:11.492Z</time>
      </trkpt>
      <trkpt lat="45.86423" lon="4.66227">
        <ele>201.199996948</ele>
        <time>2015-12-09T14:22:12.55Z</time>
      </trkpt>
      <trkpt lat="45.86428" lon="4.66225">
        <ele>201.5</ele>
        <time>2015-12-09T14:22:13.49Z</time>
      </trkpt>
      <trkpt lat="45.86433" lon="4.66224">
        <ele>201.800003052</ele>
        <time>2015-12-09T14:22:14.504Z</time>
      </trkpt>
      <trkpt lat="45.86438" lon="4.66224">
        <ele>202.100006104</ele>
        <time>2015-12-09T14:22:15.489Z</time>
      </trkpt>
      <trkpt lat="45.86444" lon="4.66223">
        <ele>202.300003052</ele>
        <time>2015-12-09T14:22:16.507Z</time>
      </trkpt>
      <trkpt lat="45.86449" lon="4.66223">
        <ele>202.699996948</ele>
        <time>2015-12-09T14:22:17.489Z</time>
      </trkpt>
      <trkpt lat="45.86455" lon="4.66222">
        <ele>203</ele>
        <time>2015-12-09T14:22:18.504Z</time>
      </trkpt>
      <trkpt lat="45.8646" lon="4.66221">
        <ele>203.300003052</ele>
        <time>2015-12-09T14:22:19.489Z</time>
      </trkpt>
      <trkpt lat="45.86465" lon="4.6622">
        <ele>203.399993896</ele>
        <time>2015-12-09T14:22:20.503Z</time>
      </trkpt>
      <trkpt lat="45.8647" lon="4.66219">
        <ele>203.800003052</ele>
        <time>2015-12-09T14:22:21.489Z</time>
      </trkpt>
      <trkpt lat="45.86475" lon="4.66217">
        <ele>204.100006104</ele>
        <time>2015-12-09T14:22:22.637Z</time>
      </trkpt>
      <trkpt lat="45.8648" lon="4.66216">
        <ele>204.5</ele>
        <time>2015-12-09T14:22:23.503Z</time>
      </trkpt>
      <trkpt lat="45.86484" lon="4.66214">
        <ele>204.399993896</ele>
        <time>2015-12-09T14:22:24.504Z</time>
      </trkpt>
      <trkpt lat="45.8649" lon="4.66212">
        <ele>204.399993896</ele>
        <time>2015-12-09T14:22:25.489Z</time>
      </trkpt>
      <trkpt lat="45.86495" lon="4.6621">
        <ele>204.5</ele>
        <time>2015-12-09T14:22:26.511Z</time>
      </trkpt>
      <trkpt lat="45.865" lon="4.66208">
        <ele>204.199996948</ele>
        <time>2015-12-09T14:22:27.489Z</time>
      </trkpt>
      <trkpt lat="45.86505" lon="4.66205">
        <ele>204.100006104</ele>
        <time>2015-12-09T14:22:28.505Z</time>
      </trkpt>
      <trkpt lat="45.86509" lon="4.66204">
        <ele>204.199996948</ele>
        <time>2015-12-09T14:22:29.49Z</time>
      </trkpt>
      <trkpt lat="45.86514" lon="4.66201">
        <ele>203.899993896</ele>
        <time>2015-12-09T14:22:30.504Z</time>
      </trkpt>
      <trkpt lat="45.86519" lon="4.66198">
        <ele>204.100006104</ele>
        <time>2015-12-09T14:22:31.489Z</time>
      </trkpt>
      <trkpt lat="45.86523" lon="4.66194">
        <ele>204.199996948</ele>
        <time>2015-12-09T14:22:32.504Z</time>
      </trkpt>
      <trkpt lat="45.86528" lon="4.66191">
        <ele>203.899993896</ele>
        <time>2015-12-09T14:22:33.489Z</time>
      </trkpt>
      <trkpt lat="45.86533" lon="4.66187">
        <ele>203.199996948</ele>
        <time>2015-12-09T14:22:34.505Z</time>
      </trkpt>
      <trkpt lat="45.86538" lon="4.66183">
        <ele>203.199996948</ele>
        <time>2015-12-09T14:22:35.489Z</time>
      </trkpt>
      <trkpt lat="45.86543" lon="4.66179">
        <ele>203.199996948</ele>
        <time>2015-12-09T14:22:36.505Z</time>
      </trkpt>
      <trkpt lat="45.86547" lon="4.66174">
        <ele>202.199996948</ele>
        <time>2015-12-09T14:22:37.489Z</time>
      </trkpt>
      <trkpt lat="45.86552" lon="4.6617">
        <ele>202.100006104</ele>
        <time>2015-12-09T14:22:38.503Z</time>
      </trkpt>
      <trkpt lat="45.86556" lon="4.66167">
        <ele>201.800003052</ele>
        <time>2015-12-09T14:22:39.489Z</time>
      </trkpt>
      <trkpt lat="45.86561" lon="4.66162">
        <ele>201.100006104</ele>
        <time>2015-12-09T14:22:40.505Z</time>
      </trkpt>
      <trkpt lat="45.86566" lon="4.66157">
        <ele>201.199996948</ele>
        <time>2015-12-09T14:22:41.489Z</time>
      </trkpt>
      <trkpt lat="45.86571" lon="4.66153">
        <ele>200.800003052</ele>
        <time>2015-12-09T14:22:42.504Z</time>
      </trkpt>
      <trkpt lat="45.86576" lon="4.66148">
        <ele>200.5</ele>
        <time>2015-12-09T14:22:43.489Z</time>
      </trkpt>
      <trkpt lat="45.86581" lon="4.66143">
        <ele>199.899993896</ele>
        <time>2015-12-09T14:22:44.517Z</time>
      </trkpt>
      <trkpt lat="45.86585" lon="4.66138">
        <ele>199.699996948</ele>
        <time>2015-12-09T14:22:45.489Z</time>
      </trkpt>
      <trkpt lat="45.8659" lon="4.66133">
        <ele>199.199996948</ele>
        <time>2015-12-09T14:22:46.507Z</time>
      </trkpt>
      <trkpt lat="45.86595" lon="4.66129">
        <ele>199.100006104</ele>
        <time>2015-12-09T14:22:47.489Z</time>
      </trkpt>
      <trkpt lat="45.866" lon="4.66125">
        <ele>198.899993896</ele>
        <time>2015-12-09T14:22:48.504Z</time>
      </trkpt>
      <trkpt lat="45.86605" lon="4.66121">
        <ele>199</ele>
        <time>2015-12-09T14:22:49.489Z</time>
      </trkpt>
      <trkpt lat="45.8661" lon="4.66117">
        <ele>199</ele>
        <time>2015-12-09T14:22:50.503Z</time>
      </trkpt>
      <trkpt lat="45.86615" lon="4.66114">
        <ele>198.899993896</ele>
        <time>2015-12-09T14:22:51.489Z</time>
      </trkpt>
      <trkpt lat="45.8662" lon="4.66112">
        <ele>198.899993896</ele>
        <time>2015-12-09T14:22:52.505Z</time>
      </trkpt>
      <trkpt lat="45.86625" lon="4.66109">
        <ele>198.800003052</ele>
        <time>2015-12-09T14:22:53.489Z</time>
      </trkpt>
      <trkpt lat="45.86629" lon="4.66107">
        <ele>199</ele>
        <time>2015-12-09T14:22:54.505Z</time>
      </trkpt>
      <trkpt lat="45.86634" lon="4.66104">
        <ele>199.100006104</ele>
        <time>2015-12-09T14:22:55.49Z</time>
      </trkpt>
      <trkpt lat="45.86639" lon="4.66102">
        <ele>199</ele>
        <time>2015-12-09T14:22:56.504Z</time>
      </trkpt>
      <trkpt lat="45.86644" lon="4.66101">
        <ele>199</ele>
        <time>2015-12-09T14:22:57.489Z</time>
      </trkpt>
      <trkpt lat="45.86649" lon="4.66099">
        <ele>198.899993896</ele>
        <time>2015-12-09T14:22:58.513Z</time>
      </trkpt>
      <trkpt lat="45.86654" lon="4.66096">
        <ele>198.699996948</ele>
        <time>2015-12-09T14:22:59.489Z</time>
      </trkpt>
      <trkpt lat="45.86658" lon="4.66094">
        <ele>199</ele>
        <time>2015-12-09T14:23:00.518Z</time>
      </trkpt>
      <trkpt lat="45.86663" lon="4.66093">
        <ele>199.300003052</ele>
        <time>2015-12-09T14:23:01.489Z</time>
      </trkpt>
      <trkpt lat="45.86668" lon="4.66092">
        <ele>199.600006104</ele>
        <time>2015-12-09T14:23:02.503Z</time>
      </trkpt>
      <trkpt lat="45.86673" lon="4.66091">
        <ele>199.800003052</ele>
        <time>2015-12-09T14:23:03.489Z</time>
      </trkpt>
      <trkpt lat="45.86678" lon="4.66089">
        <ele>200</ele>
        <time>2015-12-09T14:23:04.505Z</time>
      </trkpt>
      <trkpt lat="45.86682" lon="4.66087">
        <ele>200.5</ele>
        <time>2015-12-09T14:23:05.489Z</time>
      </trkpt>
      <trkpt lat="45.86687" lon="4.66086">
        <ele>201</ele>
        <time>2015-12-09T14:23:06.656Z</time>
      </trkpt>
      <trkpt lat="45.86692" lon="4.66083">
        <ele>201.699996948</ele>
        <time>2015-12-09T14:23:07.489Z</time>
      </trkpt>
      <trkpt lat="45.86696" lon="4.6608">
        <ele>202</ele>
        <time>2015-12-09T14:23:08.541Z</time>
      </trkpt>
      <trkpt lat="45.86701" lon="4.66078">
        <ele>201.699996948</ele>
        <time>2015-12-09T14:23:09.489Z</time>
      </trkpt>
      <trkpt lat="45.86706" lon="4.66075">
        <ele>201.399993896</ele>
        <time>2015-12-09T14:23:10.505Z</time>
      </trkpt>
      <trkpt lat="45.86711" lon="4.66072">
        <ele>201.5</ele>
        <time>2015-12-09T14:23:11.491Z</time>
      </trkpt>
      <trkpt lat="45.86716" lon="4.66069">
        <ele>200.800003052</ele>
        <time>2015-12-09T14:23:12.504Z</time>
      </trkpt>
      <trkpt lat="45.86721" lon="4.66066">
        <ele>200.100006104</ele>
        <time>2015-12-09T14:23:13.489Z</time>
      </trkpt>
      <trkpt lat="45.86726" lon="4.66063">
        <ele>199.300003052</ele>
        <time>2015-12-09T14:23:14.503Z</time>
      </trkpt>
      <trkpt lat="45.86731" lon="4.6606">
        <ele>198.699996948</ele>
        <time>2015-12-09T14:23:15.489Z</time>
      </trkpt>
      <trkpt lat="45.86735" lon="4.66054">
        <ele>197.899993896</ele>
        <time>2015-12-09T14:23:16.506Z</time>
      </trkpt>
      <trkpt lat="45.8674" lon="4.66049">
        <ele>197.300003052</ele>
        <time>2015-12-09T14:23:17.489Z</time>
      </trkpt>
      <trkpt lat="45.86746" lon="4.66046">
        <ele>196.800003052</ele>
        <time>2015-12-09T14:23:18.504Z</time>
      </trkpt>
      <trkpt lat="45.86751" lon="4.66043">
        <ele>196.199996948</ele>
        <time>2015-12-09T14:23:19.489Z</time>
      </trkpt>
      <trkpt lat="45.86755" lon="4.66039">
        <ele>196.199996948</ele>
        <time>2015-12-09T14:23:20.636Z</time>
      </trkpt>
      <trkpt lat="45.8676" lon="4.66035">
        <ele>195.899993896</ele>
        <time>2015-12-09T14:23:21.49Z</time>
      </trkpt>
      <trkpt lat="45.86764" lon="4.66031">
        <ele>195.600006104</ele>
        <time>2015-12-09T14:23:22.505Z</time>
      </trkpt>
      <trkpt lat="45.86768" lon="4.66027">
        <ele>195.399993896</ele>
        <time>2015-12-09T14:23:23.489Z</time>
      </trkpt>
      <trkpt lat="45.86772" lon="4.66022">
        <ele>195.600006104</ele>
        <time>2015-12-09T14:23:24.504Z</time>
      </trkpt>
      <trkpt lat="45.86776" lon="4.66016">
        <ele>195.899993896</ele>
        <time>2015-12-09T14:23:25.489Z</time>
      </trkpt>
      <trkpt lat="45.8678" lon="4.66011">
        <ele>196.100006104</ele>
        <time>2015-12-09T14:23:26.505Z</time>
      </trkpt>
      <trkpt lat="45.86783" lon="4.66007">
        <ele>195.800003052</ele>
        <time>2015-12-09T14:23:27.489Z</time>
      </trkpt>
      <trkpt lat="45.86787" lon="4.66002">
        <ele>195.600006104</ele>
        <time>2015-12-09T14:23:28.505Z</time>
      </trkpt>
      <trkpt lat="45.86791" lon="4.65997">
        <ele>195.399993896</ele>
        <time>2015-12-09T14:23:29.489Z</time>
      </trkpt>
      <trkpt lat="45.86795" lon="4.65992">
        <ele>195.5</ele>
        <time>2015-12-09T14:23:30.504Z</time>
      </trkpt>
      <trkpt lat="45.86798" lon="4.65986">
        <ele>195.399993896</ele>
        <time>2015-12-09T14:23:31.489Z</time>
      </trkpt>
      <trkpt lat="45.86801" lon="4.65981">
        <ele>195.5</ele>
        <time>2015-12-09T14:23:32.517Z</time>
      </trkpt>
      <trkpt lat="45.86804" lon="4.65975">
        <ele>195.699996948</ele>
        <time>2015-12-09T14:23:33.489Z</time>
      </trkpt>
      <trkpt lat="45.86807" lon="4.65969">
        <ele>195.600006104</ele>
        <time>2015-12-09T14:23:34.505Z</time>
      </trkpt>
      <trkpt lat="45.86811" lon="4.65963">
        <ele>196</ele>
        <time>2015-12-09T14:23:35.489Z</time>
      </trkpt>
      <trkpt lat="45.86814" lon="4.65957">
        <ele>195.899993896</ele>
        <time>2015-12-09T14:23:36.507Z</time>
      </trkpt>
      <trkpt lat="45.86818" lon="4.6595">
        <ele>196.100006104</ele>
        <time>2015-12-09T14:23:37.489Z</time>
      </trkpt>
      <trkpt lat="45.86821" lon="4.65944">
        <ele>196.199996948</ele>
        <time>2015-12-09T14:23:38.503Z</time>
      </trkpt>
      <trkpt lat="45.86825" lon="4.65937">
        <ele>196.699996948</ele>
        <time>2015-12-09T14:23:39.489Z</time>
      </trkpt>
      <trkpt lat="45.86829" lon="4.65929">
        <ele>197.800003052</ele>
        <time>2015-12-09T14:23:40.505Z</time>
      </trkpt>
      <trkpt lat="45.86833" lon="4.65922">
        <ele>199</ele>
        <time>2015-12-09T14:23:41.489Z</time>
      </trkpt>
      <trkpt lat="45.86837" lon="4.65915">
        <ele>199.899993896</ele>
        <time>2015-12-09T14:23:42.504Z</time>
      </trkpt>
      <trkpt lat="45.8684" lon="4.65908">
        <ele>200.100006104</ele>
        <time>2015-12-09T14:23:43.489Z</time>
      </trkpt>
      <trkpt lat="45.86844" lon="4.65902">
        <ele>200.899993896</ele>
        <time>2015-12-09T14:23:44.503Z</time>
      </trkpt>
      <trkpt lat="45.86847" lon="4.65896">
        <ele>201.100006104</ele>
        <time>2015-12-09T14:23:45.489Z</time>
      </trkpt>
      <trkpt lat="45.8685" lon="4.6589">
        <ele>201.699996948</ele>
        <time>2015-12-09T14:23:46.511Z</time>
      </trkpt>
      <trkpt lat="45.86856" lon="4.65884">
        <ele>202.5</ele>
        <time>2015-12-09T14:23:47.49Z</time>
      </trkpt>
      <trkpt lat="45.86859" lon="4.65878">
        <ele>202.600006104</ele>
        <time>2015-12-09T14:23:48.52Z</time>
      </trkpt>
      <trkpt lat="45.86862" lon="4.65872">
        <ele>202.800003052</ele>
        <time>2015-12-09T14:23:49.489Z</time>
      </trkpt>
      <trkpt lat="45.86865" lon="4.65865">
        <ele>202.899993896</ele>
        <time>2015-12-09T14:23:50.529Z</time>
      </trkpt>
      <trkpt lat="45.86867" lon="4.65858">
        <ele>203.100006104</ele>
        <time>2015-12-09T14:23:51.489Z</time>
      </trkpt>
      <trkpt lat="45.8687" lon="4.6585">
        <ele>203.199996948</ele>
        <time>2015-12-09T14:23:52.504Z</time>
      </trkpt>
      <trkpt lat="45.86872" lon="4.65842">
        <ele>203.300003052</ele>
        <time>2015-12-09T14:23:53.489Z</time>
      </trkpt>
      <trkpt lat="45.86875" lon="4.65833">
        <ele>203.399993896</ele>
        <time>2015-12-09T14:23:54.503Z</time>
      </trkpt>
      <trkpt lat="45.86877" lon="4.65826">
        <ele>203.899993896</ele>
        <time>2015-12-09T14:23:55.489Z</time>
      </trkpt>
      <trkpt lat="45.86879" lon="4.65818">
        <ele>204.5</ele>
        <time>2015-12-09T14:23:56.515Z</time>
      </trkpt>
      <trkpt lat="45.86881" lon="4.6581">
        <ele>205.100006104</ele>
        <time>2015-12-09T14:23:57.489Z</time>
      </trkpt>
      <trkpt lat="45.86883" lon="4.65802">
        <ele>205.399993896</ele>
        <time>2015-12-09T14:23:58.505Z</time>
      </trkpt>
      <trkpt lat="45.86885" lon="4.65795">
        <ele>206</ele>
        <time>2015-12-09T14:23:59.489Z</time>
      </trkpt>
      <trkpt lat="45.86886" lon="4.65787">
        <ele>206.5</ele>
        <time>2015-12-09T14:24:00.504Z</time>
      </trkpt>
      <trkpt lat="45.86888" lon="4.6578">
        <ele>207.100006104</ele>
        <time>2015-12-09T14:24:01.489Z</time>
      </trkpt>
      <trkpt lat="45.86889" lon="4.65772">
        <ele>207.199996948</ele>
        <time>2015-12-09T14:24:02.538Z</time>
      </trkpt>
      <trkpt lat="45.8689" lon="4.65765">
        <ele>207.600006104</ele>
        <time>2015-12-09T14:24:03.489Z</time>
      </trkpt>
      <trkpt lat="45.86891" lon="4.65757">
        <ele>207.800003052</ele>
        <time>2015-12-09T14:24:04.645Z</time>
      </trkpt>
      <trkpt lat="45.86892" lon="4.65748">
        <ele>207</ele>
        <time>2015-12-09T14:24:05.489Z</time>
      </trkpt>
      <trkpt lat="45.86893" lon="4.65739">
        <ele>206</ele>
        <time>2015-12-09T14:24:06.511Z</time>
      </trkpt>
      <trkpt lat="45.86894" lon="4.6573">
        <ele>205.5</ele>
        <time>2015-12-09T14:24:07.489Z</time>
      </trkpt>
      <trkpt lat="45.86895" lon="4.65722">
        <ele>205</ele>
        <time>2015-12-09T14:24:08.503Z</time>
      </trkpt>
      <trkpt lat="45.86896" lon="4.65713">
        <ele>204.699996948</ele>
        <time>2015-12-09T14:24:09.489Z</time>
      </trkpt>
      <trkpt lat="45.86897" lon="4.65704">
        <ele>204.199996948</ele>
        <time>2015-12-09T14:24:10.505Z</time>
      </trkpt>
      <trkpt lat="45.86898" lon="4.65695">
        <ele>203.899993896</ele>
        <time>2015-12-09T14:24:11.491Z</time>
      </trkpt>
      <trkpt lat="45.86899" lon="4.65686">
        <ele>204</ele>
        <time>2015-12-09T14:24:12.504Z</time>
      </trkpt>
      <trkpt lat="45.869" lon="4.65678">
        <ele>204.600006104</ele>
        <time>2015-12-09T14:24:13.49Z</time>
      </trkpt>
      <trkpt lat="45.869" lon="4.65668">
        <ele>204.899993896</ele>
        <time>2015-12-09T14:24:14.503Z</time>
      </trkpt>
      <trkpt lat="45.86901" lon="4.65659">
        <ele>204.399993896</ele>
        <time>2015-12-09T14:24:15.489Z</time>
      </trkpt>
      <trkpt lat="45.86901" lon="4.65651">
        <ele>204.399993896</ele>
        <time>2015-12-09T14:24:16.513Z</time>
      </trkpt>
      <trkpt lat="45.86902" lon="4.65642">
        <ele>204.600006104</ele>
        <time>2015-12-09T14:24:17.489Z</time>
      </trkpt>
      <trkpt lat="45.86903" lon="4.65631">
        <ele>205.100006104</ele>
        <time>2015-12-09T14:24:18.504Z</time>
      </trkpt>
      <trkpt lat="45.86903" lon="4.65621">
        <ele>205.300003052</ele>
        <time>2015-12-09T14:24:19.489Z</time>
      </trkpt>
      <trkpt lat="45.86904" lon="4.65612">
        <ele>205.100006104</ele>
        <time>2015-12-09T14:24:20.503Z</time>
      </trkpt>
      <trkpt lat="45.86905" lon="4.65602">
        <ele>205.100006104</ele>
        <time>2015-12-09T14:24:21.489Z</time>
      </trkpt>
      <trkpt lat="45.86907" lon="4.65593">
        <ele>205</ele>
        <time>2015-12-09T14:24:22.505Z</time>
      </trkpt>
      <trkpt lat="45.86909" lon="4.65585">
        <ele>205.399993896</ele>
        <time>2015-12-09T14:24:23.489Z</time>
      </trkpt>
      <trkpt lat="45.86911" lon="4.65576">
        <ele>205.199996948</ele>
        <time>2015-12-09T14:24:24.504Z</time>
      </trkpt>
      <trkpt lat="45.86914" lon="4.65567">
        <ele>205.5</ele>
        <time>2015-12-09T14:24:25.489Z</time>
      </trkpt>
      <trkpt lat="45.86917" lon="4.65558">
        <ele>205.699996948</ele>
        <time>2015-12-09T14:24:26.526Z</time>
      </trkpt>
      <trkpt lat="45.8692" lon="4.65548">
        <ele>205.199996948</ele>
        <time>2015-12-09T14:24:27.489Z</time>
      </trkpt>
      <trkpt lat="45.86924" lon="4.65539">
        <ele>205.100006104</ele>
        <time>2015-12-09T14:24:28.505Z</time>
      </trkpt>
      <trkpt lat="45.86928" lon="4.65531">
        <ele>204.899993896</ele>
        <time>2015-12-09T14:24:29.489Z</time>
      </trkpt>
      <trkpt lat="45.86932" lon="4.65522">
        <ele>204.899993896</ele>
        <time>2015-12-09T14:24:30.539Z</time>
      </trkpt>
      <trkpt lat="45.86936" lon="4.65513">
        <ele>205.100006104</ele>
        <time>2015-12-09T14:24:31.489Z</time>
      </trkpt>
      <trkpt lat="45.8694" lon="4.65505">
        <ele>205.300003052</ele>
        <time>2015-12-09T14:24:32.503Z</time>
      </trkpt>
      <trkpt lat="45.86945" lon="4.65496">
        <ele>205.300003052</ele>
        <time>2015-12-09T14:24:33.489Z</time>
      </trkpt>
      <trkpt lat="45.8695" lon="4.65488">
        <ele>205.5</ele>
        <time>2015-12-09T14:24:34.504Z</time>
      </trkpt>
      <trkpt lat="45.86955" lon="4.65479">
        <ele>205.5</ele>
        <time>2015-12-09T14:24:35.489Z</time>
      </trkpt>
      <trkpt lat="45.8696" lon="4.65471">
        <ele>205.5</ele>
        <time>2015-12-09T14:24:36.514Z</time>
      </trkpt>
      <trkpt lat="45.86965" lon="4.65464">
        <ele>205.800003052</ele>
        <time>2015-12-09T14:24:37.489Z</time>
      </trkpt>
      <trkpt lat="45.8697" lon="4.65457">
        <ele>206.199996948</ele>
        <time>2015-12-09T14:24:38.503Z</time>
      </trkpt>
      <trkpt lat="45.86976" lon="4.6545">
        <ele>206</ele>
        <time>2015-12-09T14:24:39.49Z</time>
      </trkpt>
      <trkpt lat="45.86981" lon="4.65444">
        <ele>205.899993896</ele>
        <time>2015-12-09T14:24:40.505Z</time>
      </trkpt>
      <trkpt lat="45.86986" lon="4.65438">
        <ele>205.399993896</ele>
        <time>2015-12-09T14:24:41.488Z</time>
      </trkpt>
      <trkpt lat="45.86991" lon="4.65431">
        <ele>205</ele>
        <time>2015-12-09T14:24:42.517Z</time>
      </trkpt>
      <trkpt lat="45.86996" lon="4.65425">
        <ele>204.899993896</ele>
        <time>2015-12-09T14:24:43.489Z</time>
      </trkpt>
      <trkpt lat="45.87002" lon="4.65419">
        <ele>204.800003052</ele>
        <time>2015-12-09T14:24:44.503Z</time>
      </trkpt>
      <trkpt lat="45.87008" lon="4.65413">
        <ele>204.399993896</ele>
        <time>2015-12-09T14:24:45.489Z</time>
      </trkpt>
      <trkpt lat="45.87013" lon="4.65406">
        <ele>203.800003052</ele>
        <time>2015-12-09T14:24:46.516Z</time>
      </trkpt>
      <trkpt lat="45.87018" lon="4.654">
        <ele>204</ele>
        <time>2015-12-09T14:24:47.489Z</time>
      </trkpt>
      <trkpt lat="45.87023" lon="4.65394">
        <ele>203.899993896</ele>
        <time>2015-12-09T14:24:48.632Z</time>
      </trkpt>
      <trkpt lat="45.87028" lon="4.65387">
        <ele>203.699996948</ele>
        <time>2015-12-09T14:24:49.489Z</time>
      </trkpt>
      <trkpt lat="45.87032" lon="4.65379">
        <ele>202.699996948</ele>
        <time>2015-12-09T14:24:50.502Z</time>
      </trkpt>
      <trkpt lat="45.87037" lon="4.65372">
        <ele>202.199996948</ele>
        <time>2015-12-09T14:24:51.489Z</time>
      </trkpt>
      <trkpt lat="45.87041" lon="4.65365">
        <ele>201.800003052</ele>
        <time>2015-12-09T14:24:52.505Z</time>
      </trkpt>
      <trkpt lat="45.87045" lon="4.65358">
        <ele>201.5</ele>
        <time>2015-12-09T14:24:53.489Z</time>
      </trkpt>
      <trkpt lat="45.87049" lon="4.6535">
        <ele>201.300003052</ele>
        <time>2015-12-09T14:24:54.503Z</time>
      </trkpt>
      <trkpt lat="45.87053" lon="4.65342">
        <ele>201.300003052</ele>
        <time>2015-12-09T14:24:55.489Z</time>
      </trkpt>
      <trkpt lat="45.87056" lon="4.65335">
        <ele>201.5</ele>
        <time>2015-12-09T14:24:56.516Z</time>
      </trkpt>
      <trkpt lat="45.8706" lon="4.65327">
        <ele>201.399993896</ele>
        <time>2015-12-09T14:24:57.489Z</time>
      </trkpt>
      <trkpt lat="45.87064" lon="4.65319">
        <ele>202.100006104</ele>
        <time>2015-12-09T14:24:58.519Z</time>
      </trkpt>
      <trkpt lat="45.87068" lon="4.65311">
        <ele>202.300003052</ele>
        <time>2015-12-09T14:24:59.489Z</time>
      </trkpt>
      <trkpt lat="45.87072" lon="4.65303">
        <ele>202.100006104</ele>
        <time>2015-12-09T14:25:00.504Z</time>
      </trkpt>
      <trkpt lat="45.87076" lon="4.65296">
        <ele>202.199996948</ele>
        <time>2015-12-09T14:25:01.489Z</time>
      </trkpt>
      <trkpt lat="45.8708" lon="4.65288">
        <ele>202.300003052</ele>
        <time>2015-12-09T14:25:02.503Z</time>
      </trkpt>
      <trkpt lat="45.87084" lon="4.65281">
        <ele>202.600006104</ele>
        <time>2015-12-09T14:25:03.489Z</time>
      </trkpt>
      <trkpt lat="45.87089" lon="4.65273">
        <ele>202.800003052</ele>
        <time>2015-12-09T14:25:04.504Z</time>
      </trkpt>
      <trkpt lat="45.87093" lon="4.65266">
        <ele>202.899993896</ele>
        <time>2015-12-09T14:25:05.49Z</time>
      </trkpt>
      <trkpt lat="45.87096" lon="4.6526">
        <ele>202.800003052</ele>
        <time>2015-12-09T14:25:06.518Z</time>
      </trkpt>
      <trkpt lat="45.871" lon="4.65253">
        <ele>202.600006104</ele>
        <time>2015-12-09T14:25:07.489Z</time>
      </trkpt>
      <trkpt lat="45.87104" lon="4.65246">
        <ele>202.399993896</ele>
        <time>2015-12-09T14:25:08.503Z</time>
      </trkpt>
      <trkpt lat="45.87108" lon="4.6524">
        <ele>202.300003052</ele>
        <time>2015-12-09T14:25:09.489Z</time>
      </trkpt>
      <trkpt lat="45.87112" lon="4.65234">
        <ele>202</ele>
        <time>2015-12-09T14:25:10.505Z</time>
      </trkpt>
      <trkpt lat="45.87117" lon="4.65228">
        <ele>201.800003052</ele>
        <time>2015-12-09T14:25:11.492Z</time>
      </trkpt>
      <trkpt lat="45.87121" lon="4.65222">
        <ele>201.5</ele>
        <time>2015-12-09T14:25:12.504Z</time>
      </trkpt>
      <trkpt lat="45.87126" lon="4.65215">
        <ele>201.100006104</ele>
        <time>2015-12-09T14:25:13.489Z</time>
      </trkpt>
      <trkpt lat="45.8713" lon="4.65209">
        <ele>200.600006104</ele>
        <time>2015-12-09T14:25:14.517Z</time>
      </trkpt>
      <trkpt lat="45.87135" lon="4.65203">
        <ele>200.399993896</ele>
        <time>2015-12-09T14:25:15.489Z</time>
      </trkpt>
      <trkpt lat="45.87139" lon="4.65197">
        <ele>200.300003052</ele>
        <time>2015-12-09T14:25:16.523Z</time>
      </trkpt>
      <trkpt lat="45.87145" lon="4.65191">
        <ele>199.899993896</ele>
        <time>2015-12-09T14:25:17.488Z</time>
      </trkpt>
      <trkpt lat="45.8715" lon="4.65186">
        <ele>199.300003052</ele>
        <time>2015-12-09T14:25:18.503Z</time>
      </trkpt>
      <trkpt lat="45.87155" lon="4.65181">
        <ele>199.300003052</ele>
        <time>2015-12-09T14:25:19.488Z</time>
      </trkpt>
      <trkpt lat="45.87159" lon="4.65174">
        <ele>199.699996948</ele>
        <time>2015-12-09T14:25:20.502Z</time>
      </trkpt>
      <trkpt lat="45.87164" lon="4.65168">
        <ele>200</ele>
        <time>2015-12-09T14:25:21.489Z</time>
      </trkpt>
      <trkpt lat="45.87168" lon="4.65163">
        <ele>200</ele>
        <time>2015-12-09T14:25:22.505Z</time>
      </trkpt>
      <trkpt lat="45.87172" lon="4.65159">
        <ele>200.199996948</ele>
        <time>2015-12-09T14:25:23.489Z</time>
      </trkpt>
      <trkpt lat="45.87177" lon="4.65155">
        <ele>200.199996948</ele>
        <time>2015-12-09T14:25:24.504Z</time>
      </trkpt>
      <trkpt lat="45.87181" lon="4.65151">
        <ele>200.100006104</ele>
        <time>2015-12-09T14:25:25.489Z</time>
      </trkpt>
      <trkpt lat="45.87186" lon="4.65147">
        <ele>200</ele>
        <time>2015-12-09T14:25:26.522Z</time>
      </trkpt>
      <trkpt lat="45.87192" lon="4.65143">
        <ele>200</ele>
        <time>2015-12-09T14:25:27.489Z</time>
      </trkpt>
      <trkpt lat="45.87197" lon="4.65139">
        <ele>199.800003052</ele>
        <time>2015-12-09T14:25:28.512Z</time>
      </trkpt>
      <trkpt lat="45.87202" lon="4.65134">
        <ele>199.600006104</ele>
        <time>2015-12-09T14:25:29.489Z</time>
      </trkpt>
      <trkpt lat="45.87207" lon="4.6513">
        <ele>199.600006104</ele>
        <time>2015-12-09T14:25:30.518Z</time>
      </trkpt>
      <trkpt lat="45.87213" lon="4.65124">
        <ele>199.600006104</ele>
        <time>2015-12-09T14:25:31.488Z</time>
      </trkpt>
      <trkpt lat="45.87217" lon="4.65119">
        <ele>199.600006104</ele>
        <time>2015-12-09T14:25:32.502Z</time>
      </trkpt>
      <trkpt lat="45.87222" lon="4.65113">
        <ele>199.699996948</ele>
        <time>2015-12-09T14:25:33.488Z</time>
      </trkpt>
      <trkpt lat="45.87226" lon="4.65108">
        <ele>199.800003052</ele>
        <time>2015-12-09T14:25:34.505Z</time>
      </trkpt>
      <trkpt lat="45.87231" lon="4.65102">
        <ele>199.699996948</ele>
        <time>2015-12-09T14:25:35.488Z</time>
      </trkpt>
      <trkpt lat="45.87237" lon="4.65098">
        <ele>199.600006104</ele>
        <time>2015-12-09T14:25:36.519Z</time>
      </trkpt>
      <trkpt lat="45.87242" lon="4.65094">
        <ele>199.600006104</ele>
        <time>2015-12-09T14:25:37.488Z</time>
      </trkpt>
      <trkpt lat="45.87247" lon="4.65091">
        <ele>199.5</ele>
        <time>2015-12-09T14:25:38.502Z</time>
      </trkpt>
      <trkpt lat="45.87252" lon="4.65087">
        <ele>199.300003052</ele>
        <time>2015-12-09T14:25:39.488Z</time>
      </trkpt>
      <trkpt lat="45.87256" lon="4.65083">
        <ele>199.100006104</ele>
        <time>2015-12-09T14:25:40.504Z</time>
      </trkpt>
      <trkpt lat="45.87261" lon="4.65079">
        <ele>199</ele>
        <time>2015-12-09T14:25:41.489Z</time>
      </trkpt>
      <trkpt lat="45.87265" lon="4.65075">
        <ele>199</ele>
        <time>2015-12-09T14:25:42.504Z</time>
      </trkpt>
      <trkpt lat="45.87269" lon="4.6507">
        <ele>199.100006104</ele>
        <time>2015-12-09T14:25:43.488Z</time>
      </trkpt>
      <trkpt lat="45.87274" lon="4.65065">
        <ele>199.100006104</ele>
        <time>2015-12-09T14:25:44.502Z</time>
      </trkpt>
      <trkpt lat="45.87278" lon="4.6506">
        <ele>199.199996948</ele>
        <time>2015-12-09T14:25:45.489Z</time>
      </trkpt>
      <trkpt lat="45.87283" lon="4.65054">
        <ele>199.199996948</ele>
        <time>2015-12-09T14:25:46.537Z</time>
      </trkpt>
      <trkpt lat="45.87287" lon="4.65049">
        <ele>199.199996948</ele>
        <time>2015-12-09T14:25:47.489Z</time>
      </trkpt>
      <trkpt lat="45.87291" lon="4.65044">
        <ele>199.100006104</ele>
        <time>2015-12-09T14:25:48.504Z</time>
      </trkpt>
      <trkpt lat="45.87295" lon="4.65039">
        <ele>199</ele>
        <time>2015-12-09T14:25:49.488Z</time>
      </trkpt>
      <trkpt lat="45.87299" lon="4.65033">
        <ele>198.899993896</ele>
        <time>2015-12-09T14:25:50.502Z</time>
      </trkpt>
      <trkpt lat="45.87303" lon="4.65027">
        <ele>198.600006104</ele>
        <time>2015-12-09T14:25:51.488Z</time>
      </trkpt>
      <trkpt lat="45.87306" lon="4.65021">
        <ele>198.800003052</ele>
        <time>2015-12-09T14:25:52.507Z</time>
      </trkpt>
      <trkpt lat="45.8731" lon="4.65015">
        <ele>199.100006104</ele>
        <time>2015-12-09T14:25:53.489Z</time>
      </trkpt>
      <trkpt lat="45.87313" lon="4.65009">
        <ele>199.100006104</ele>
        <time>2015-12-09T14:25:54.504Z</time>
      </trkpt>
      <trkpt lat="45.87316" lon="4.65003">
        <ele>198.899993896</ele>
        <time>2015-12-09T14:25:55.489Z</time>
      </trkpt>
      <trkpt lat="45.8732" lon="4.64996">
        <ele>198.800003052</ele>
        <time>2015-12-09T14:25:56.518Z</time>
      </trkpt>
      <trkpt lat="45.87323" lon="4.6499">
        <ele>198.800003052</ele>
        <time>2015-12-09T14:25:57.488Z</time>
      </trkpt>
      <trkpt lat="45.87327" lon="4.64983">
        <ele>197.899993896</ele>
        <time>2015-12-09T14:25:58.515Z</time>
      </trkpt>
      <trkpt lat="45.87331" lon="4.64978">
        <ele>198.199996948</ele>
        <time>2015-12-09T14:25:59.488Z</time>
      </trkpt>
      <trkpt lat="45.87335" lon="4.64971">
        <ele>198.199996948</ele>
        <time>2015-12-09T14:26:00.504Z</time>
      </trkpt>
      <trkpt lat="45.87338" lon="4.64964">
        <ele>199.100006104</ele>
        <time>2015-12-09T14:26:01.488Z</time>
      </trkpt>
      <trkpt lat="45.87342" lon="4.64957">
        <ele>199.800003052</ele>
        <time>2015-12-09T14:26:02.502Z</time>
      </trkpt>
      <trkpt lat="45.87346" lon="4.64949">
        <ele>200.100006104</ele>
        <time>2015-12-09T14:26:03.489Z</time>
      </trkpt>
      <trkpt lat="45.8735" lon="4.64942">
        <ele>199.899993896</ele>
        <time>2015-12-09T14:26:04.505Z</time>
      </trkpt>
      <trkpt lat="45.87354" lon="4.64936">
        <ele>200.300003052</ele>
        <time>2015-12-09T14:26:05.488Z</time>
      </trkpt>
      <trkpt lat="45.87358" lon="4.6493">
        <ele>200.300003052</ele>
        <time>2015-12-09T14:26:06.521Z</time>
      </trkpt>
      <trkpt lat="45.87362" lon="4.64924">
        <ele>200.300003052</ele>
        <time>2015-12-09T14:26:07.489Z</time>
      </trkpt>
      <trkpt lat="45.87366" lon="4.64918">
        <ele>200.300003052</ele>
        <time>2015-12-09T14:26:08.517Z</time>
      </trkpt>
      <trkpt lat="45.87369" lon="4.64913">
        <ele>200.100006104</ele>
        <time>2015-12-09T14:26:09.488Z</time>
      </trkpt>
      <trkpt lat="45.87372" lon="4.64907">
        <ele>200.300003052</ele>
        <time>2015-12-09T14:26:10.505Z</time>
      </trkpt>
      <trkpt lat="45.87376" lon="4.64902">
        <ele>200.100006104</ele>
        <time>2015-12-09T14:26:11.492Z</time>
      </trkpt>
      <trkpt lat="45.8738" lon="4.64897">
        <ele>199.899993896</ele>
        <time>2015-12-09T14:26:12.511Z</time>
      </trkpt>
      <trkpt lat="45.87384" lon="4.64891">
        <ele>200</ele>
        <time>2015-12-09T14:26:13.488Z</time>
      </trkpt>
      <trkpt lat="45.87389" lon="4.64886">
        <ele>200.300003052</ele>
        <time>2015-12-09T14:26:14.503Z</time>
      </trkpt>
      <trkpt lat="45.87393" lon="4.64881">
        <ele>200.5</ele>
        <time>2015-12-09T14:26:15.488Z</time>
      </trkpt>
      <trkpt lat="45.87397" lon="4.64877">
        <ele>200.699996948</ele>
        <time>2015-12-09T14:26:16.56Z</time>
      </trkpt>
      <trkpt lat="45.87401" lon="4.64871">
        <ele>201.100006104</ele>
        <time>2015-12-09T14:26:17.488Z</time>
      </trkpt>
      <trkpt lat="45.87406" lon="4.64865">
        <ele>201.600006104</ele>
        <time>2015-12-09T14:26:18.507Z</time>
      </trkpt>
      <trkpt lat="45.8741" lon="4.6486">
        <ele>201.199996948</ele>
        <time>2015-12-09T14:26:19.489Z</time>
      </trkpt>
      <trkpt lat="45.87414" lon="4.64854">
        <ele>201.199996948</ele>
        <time>2015-12-09T14:26:20.503Z</time>
      </trkpt>
      <trkpt lat="45.87419" lon="4.64849">
        <ele>201.399993896</ele>
        <time>2015-12-09T14:26:21.488Z</time>
      </trkpt>
      <trkpt lat="45.87425" lon="4.64843">
        <ele>201.699996948</ele>
        <time>2015-12-09T14:26:22.505Z</time>
      </trkpt>
      <trkpt lat="45.87429" lon="4.64836">
        <ele>201.899993896</ele>
        <time>2015-12-09T14:26:23.489Z</time>
      </trkpt>
      <trkpt lat="45.87434" lon="4.6483">
        <ele>202</ele>
        <time>2015-12-09T14:26:24.522Z</time>
      </trkpt>
      <trkpt lat="45.87438" lon="4.64825">
        <ele>202.100006104</ele>
        <time>2015-12-09T14:26:25.488Z</time>
      </trkpt>
      <trkpt lat="45.87442" lon="4.6482">
        <ele>202</ele>
        <time>2015-12-09T14:26:26.52Z</time>
      </trkpt>
      <trkpt lat="45.87446" lon="4.64814">
        <ele>202.100006104</ele>
        <time>2015-12-09T14:26:27.489Z</time>
      </trkpt>
      <trkpt lat="45.8745" lon="4.64809">
        <ele>202.100006104</ele>
        <time>2015-12-09T14:26:28.505Z</time>
      </trkpt>
      <trkpt lat="45.87453" lon="4.64804">
        <ele>202.100006104</ele>
        <time>2015-12-09T14:26:29.488Z</time>
      </trkpt>
      <trkpt lat="45.87457" lon="4.64798">
        <ele>202.199996948</ele>
        <time>2015-12-09T14:26:30.529Z</time>
      </trkpt>
      <trkpt lat="45.87462" lon="4.64792">
        <ele>202.5</ele>
        <time>2015-12-09T14:26:31.488Z</time>
      </trkpt>
      <trkpt lat="45.87466" lon="4.64786">
        <ele>202.699996948</ele>
        <time>2015-12-09T14:26:32.502Z</time>
      </trkpt>
      <trkpt lat="45.87471" lon="4.64781">
        <ele>203.100006104</ele>
        <time>2015-12-09T14:26:33.488Z</time>
      </trkpt>
      <trkpt lat="45.87475" lon="4.64775">
        <ele>203.300003052</ele>
        <time>2015-12-09T14:26:34.504Z</time>
      </trkpt>
      <trkpt lat="45.87479" lon="4.6477">
        <ele>203.600006104</ele>
        <time>2015-12-09T14:26:35.488Z</time>
      </trkpt>
      <trkpt lat="45.87483" lon="4.64765">
        <ele>203.699996948</ele>
        <time>2015-12-09T14:26:36.52Z</time>
      </trkpt>
      <trkpt lat="45.87488" lon="4.6476">
        <ele>203.800003052</ele>
        <time>2015-12-09T14:26:37.488Z</time>
      </trkpt>
      <trkpt lat="45.87492" lon="4.64755">
        <ele>203.899993896</ele>
        <time>2015-12-09T14:26:38.502Z</time>
      </trkpt>
      <trkpt lat="45.87496" lon="4.6475">
        <ele>204</ele>
        <time>2015-12-09T14:26:39.488Z</time>
      </trkpt>
      <trkpt lat="45.875" lon="4.64744">
        <ele>204.100006104</ele>
        <time>2015-12-09T14:26:40.518Z</time>
      </trkpt>
      <trkpt lat="45.87503" lon="4.64739">
        <ele>204.300003052</ele>
        <time>2015-12-09T14:26:41.488Z</time>
      </trkpt>
      <trkpt lat="45.87508" lon="4.64734">
        <ele>204.300003052</ele>
        <time>2015-12-09T14:26:42.503Z</time>
      </trkpt>
      <trkpt lat="45.87512" lon="4.64729">
        <ele>204.399993896</ele>
        <time>2015-12-09T14:26:43.488Z</time>
      </trkpt>
      <trkpt lat="45.87516" lon="4.64724">
        <ele>204.5</ele>
        <time>2015-12-09T14:26:44.506Z</time>
      </trkpt>
      <trkpt lat="45.8752" lon="4.64719">
        <ele>204.300003052</ele>
        <time>2015-12-09T14:26:45.488Z</time>
      </trkpt>
      <trkpt lat="45.87524" lon="4.64714">
        <ele>204.399993896</ele>
        <time>2015-12-09T14:26:46.521Z</time>
      </trkpt>
      <trkpt lat="45.87528" lon="4.64709">
        <ele>204.5</ele>
        <time>2015-12-09T14:26:47.488Z</time>
      </trkpt>
      <trkpt lat="45.87532" lon="4.64704">
        <ele>204.600006104</ele>
        <time>2015-12-09T14:26:48.542Z</time>
      </trkpt>
      <trkpt lat="45.87536" lon="4.64699">
        <ele>204.699996948</ele>
        <time>2015-12-09T14:26:49.488Z</time>
      </trkpt>
      <trkpt lat="45.8754" lon="4.64694">
        <ele>204.699996948</ele>
        <time>2015-12-09T14:26:50.504Z</time>
      </trkpt>
      <trkpt lat="45.87544" lon="4.64689">
        <ele>204.699996948</ele>
        <time>2015-12-09T14:26:51.49Z</time>
      </trkpt>
      <trkpt lat="45.87548" lon="4.64683">
        <ele>204.600006104</ele>
        <time>2015-12-09T14:26:52.507Z</time>
      </trkpt>
      <trkpt lat="45.87551" lon="4.64678">
        <ele>204.5</ele>
        <time>2015-12-09T14:26:53.49Z</time>
      </trkpt>
      <trkpt lat="45.87555" lon="4.64672">
        <ele>204.300003052</ele>
        <time>2015-12-09T14:26:54.505Z</time>
      </trkpt>
      <trkpt lat="45.87558" lon="4.64667">
        <ele>204.399993896</ele>
        <time>2015-12-09T14:26:55.488Z</time>
      </trkpt>
      <trkpt lat="45.87561" lon="4.64662">
        <ele>204.399993896</ele>
        <time>2015-12-09T14:26:56.544Z</time>
      </trkpt>
      <trkpt lat="45.87565" lon="4.64658">
        <ele>204.5</ele>
        <time>2015-12-09T14:26:57.488Z</time>
      </trkpt>
      <trkpt lat="45.87569" lon="4.64653">
        <ele>204.600006104</ele>
        <time>2015-12-09T14:26:58.505Z</time>
      </trkpt>
      <trkpt lat="45.87572" lon="4.64648">
        <ele>204.800003052</ele>
        <time>2015-12-09T14:26:59.488Z</time>
      </trkpt>
      <trkpt lat="45.87576" lon="4.64643">
        <ele>204.800003052</ele>
        <time>2015-12-09T14:27:00.503Z</time>
      </trkpt>
      <trkpt lat="45.8758" lon="4.64638">
        <ele>204.899993896</ele>
        <time>2015-12-09T14:27:01.488Z</time>
      </trkpt>
      <trkpt lat="45.87584" lon="4.64632">
        <ele>205.199996948</ele>
        <time>2015-12-09T14:27:02.502Z</time>
      </trkpt>
      <trkpt lat="45.87589" lon="4.64627">
        <ele>205.399993896</ele>
        <time>2015-12-09T14:27:03.488Z</time>
      </trkpt>
      <trkpt lat="45.87593" lon="4.64622">
        <ele>205.600006104</ele>
        <time>2015-12-09T14:27:04.505Z</time>
      </trkpt>
      <trkpt lat="45.87597" lon="4.64616">
        <ele>205.699996948</ele>
        <time>2015-12-09T14:27:05.488Z</time>
      </trkpt>
      <trkpt lat="45.87602" lon="4.64611">
        <ele>206</ele>
        <time>2015-12-09T14:27:06.524Z</time>
      </trkpt>
      <trkpt lat="45.87606" lon="4.64605">
        <ele>206.100006104</ele>
        <time>2015-12-09T14:27:07.502Z</time>
      </trkpt>
      <trkpt lat="45.8761" lon="4.64599">
        <ele>206.100006104</ele>
        <time>2015-12-09T14:27:08.503Z</time>
      </trkpt>
      <trkpt lat="45.87614" lon="4.64594">
        <ele>206.300003052</ele>
        <time>2015-12-09T14:27:09.488Z</time>
      </trkpt>
      <trkpt lat="45.87619" lon="4.64588">
        <ele>206.399993896</ele>
        <time>2015-12-09T14:27:10.507Z</time>
      </trkpt>
      <trkpt lat="45.87623" lon="4.64583">
        <ele>206.5</ele>
        <time>2015-12-09T14:27:11.491Z</time>
      </trkpt>
      <trkpt lat="45.87627" lon="4.64577">
        <ele>206.600006104</ele>
        <time>2015-12-09T14:27:12.503Z</time>
      </trkpt>
      <trkpt lat="45.87631" lon="4.64572">
        <ele>206.699996948</ele>
        <time>2015-12-09T14:27:13.488Z</time>
      </trkpt>
      <trkpt lat="45.87635" lon="4.64567">
        <ele>206.800003052</ele>
        <time>2015-12-09T14:27:14.502Z</time>
      </trkpt>
      <trkpt lat="45.8764" lon="4.64561">
        <ele>206.800003052</ele>
        <time>2015-12-09T14:27:15.488Z</time>
      </trkpt>
      <trkpt lat="45.87644" lon="4.64555">
        <ele>206.800003052</ele>
        <time>2015-12-09T14:27:16.525Z</time>
      </trkpt>
      <trkpt lat="45.87648" lon="4.64549">
        <ele>206.899993896</ele>
        <time>2015-12-09T14:27:17.488Z</time>
      </trkpt>
      <trkpt lat="45.87652" lon="4.64544">
        <ele>207</ele>
        <time>2015-12-09T14:27:18.504Z</time>
      </trkpt>
      <trkpt lat="45.87656" lon="4.64539">
        <ele>207.300003052</ele>
        <time>2015-12-09T14:27:19.489Z</time>
      </trkpt>
      <trkpt lat="45.8766" lon="4.64534">
        <ele>207.300003052</ele>
        <time>2015-12-09T14:27:20.503Z</time>
      </trkpt>
      <trkpt lat="45.87664" lon="4.64528">
        <ele>207.5</ele>
        <time>2015-12-09T14:27:21.489Z</time>
      </trkpt>
      <trkpt lat="45.87667" lon="4.64523">
        <ele>207.5</ele>
        <time>2015-12-09T14:27:22.504Z</time>
      </trkpt>
      <trkpt lat="45.87671" lon="4.64518">
        <ele>207.5</ele>
        <time>2015-12-09T14:27:23.488Z</time>
      </trkpt>
      <trkpt lat="45.87676" lon="4.64509">
        <ele>207.5</ele>
        <time>2015-12-09T14:27:25.503Z</time>
      </trkpt>
      <trkpt lat="45.87679" lon="4.64504">
        <ele>207.5</ele>
        <time>2015-12-09T14:27:26.496Z</time>
      </trkpt>
      <trkpt lat="45.87687" lon="4.64499">
        <ele>207.899993896</ele>
        <time>2015-12-09T14:27:29.503Z</time>
      </trkpt>
      <trkpt lat="45.87691" lon="4.64501">
        <ele>207.899993896</ele>
        <time>2015-12-09T14:27:30.489Z</time>
      </trkpt>
      <trkpt lat="45.87695" lon="4.64504">
        <ele>208</ele>
        <time>2015-12-09T14:27:31.502Z</time>
      </trkpt>
      <trkpt lat="45.877" lon="4.64508">
        <ele>208.100006104</ele>
        <time>2015-12-09T14:27:32.489Z</time>
      </trkpt>
      <trkpt lat="45.87702" lon="4.64514">
        <ele>208.600006104</ele>
        <time>2015-12-09T14:27:33.502Z</time>
      </trkpt>
      <trkpt lat="45.87706" lon="4.64519">
        <ele>208.699996948</ele>
        <time>2015-12-09T14:27:34.491Z</time>
      </trkpt>
      <trkpt lat="45.87707" lon="4.64525">
        <ele>208.600006104</ele>
        <time>2015-12-09T14:27:35.502Z</time>
      </trkpt>
      <trkpt lat="45.87709" lon="4.64531">
        <ele>208.600006104</ele>
        <time>2015-12-09T14:27:36.498Z</time>
      </trkpt>
      <trkpt lat="45.87712" lon="4.64537">
        <ele>208.699996948</ele>
        <time>2015-12-09T14:27:37.502Z</time>
      </trkpt>
      <trkpt lat="45.87715" lon="4.64542">
        <ele>208.800003052</ele>
        <time>2015-12-09T14:27:38.488Z</time>
      </trkpt>
      <trkpt lat="45.87721" lon="4.64552">
        <ele>208.899993896</ele>
        <time>2015-12-09T14:27:40.504Z</time>
      </trkpt>
      <trkpt lat="45.87723" lon="4.64558">
        <ele>208.800003052</ele>
        <time>2015-12-09T14:27:41.531Z</time>
      </trkpt>
      <trkpt lat="45.87727" lon="4.64569">
        <ele>209</ele>
        <time>2015-12-09T14:27:43.502Z</time>
      </trkpt>
      <trkpt lat="45.87727" lon="4.64575">
        <ele>209.100006104</ele>
        <time>2015-12-09T14:27:44.488Z</time>
      </trkpt>
      <trkpt lat="45.87728" lon="4.64587">
        <ele>209.399993896</ele>
        <time>2015-12-09T14:27:46.525Z</time>
      </trkpt>
      <trkpt lat="45.87729" lon="4.64593">
        <ele>209.5</ele>
        <time>2015-12-09T14:27:47.489Z</time>
      </trkpt>
      <trkpt lat="45.87729" lon="4.64599">
        <ele>209.600006104</ele>
        <time>2015-12-09T14:27:48.503Z</time>
      </trkpt>
      <trkpt lat="45.87729" lon="4.64607">
        <ele>209.699996948</ele>
        <time>2015-12-09T14:27:49.488Z</time>
      </trkpt>
      <trkpt lat="45.87729" lon="4.64615">
        <ele>209.699996948</ele>
        <time>2015-12-09T14:27:50.518Z</time>
      </trkpt>
      <trkpt lat="45.8773" lon="4.64622">
        <ele>209.800003052</ele>
        <time>2015-12-09T14:27:51.488Z</time>
      </trkpt>
      <trkpt lat="45.8773" lon="4.6463">
        <ele>209.800003052</ele>
        <time>2015-12-09T14:27:52.504Z</time>
      </trkpt>
      <trkpt lat="45.87733" lon="4.64636">
        <ele>209.699996948</ele>
        <time>2015-12-09T14:27:53.489Z</time>
      </trkpt>
      <trkpt lat="45.87734" lon="4.64641">
        <ele>209.600006104</ele>
        <time>2015-12-09T14:27:54.504Z</time>
      </trkpt>
      <trkpt lat="45.87733" lon="4.64649">
        <ele>209.5</ele>
        <time>2015-12-09T14:27:55.489Z</time>
      </trkpt>
      <trkpt lat="45.87732" lon="4.64656">
        <ele>209.399993896</ele>
        <time>2015-12-09T14:27:56.517Z</time>
      </trkpt>
      <trkpt lat="45.87731" lon="4.64662">
        <ele>209.399993896</ele>
        <time>2015-12-09T14:27:57.488Z</time>
      </trkpt>
      <trkpt lat="45.87729" lon="4.64668">
        <ele>209.300003052</ele>
        <time>2015-12-09T14:27:58.504Z</time>
      </trkpt>
      <trkpt lat="45.87728" lon="4.64675">
        <ele>209.199996948</ele>
        <time>2015-12-09T14:27:59.488Z</time>
      </trkpt>
      <trkpt lat="45.87727" lon="4.64682">
        <ele>209.100006104</ele>
        <time>2015-12-09T14:28:00.503Z</time>
      </trkpt>
      <trkpt lat="45.87727" lon="4.64689">
        <ele>209</ele>
        <time>2015-12-09T14:28:01.488Z</time>
      </trkpt>
      <trkpt lat="45.87726" lon="4.64696">
        <ele>209</ele>
        <time>2015-12-09T14:28:02.508Z</time>
      </trkpt>
      <trkpt lat="45.87726" lon="4.64702">
        <ele>208.800003052</ele>
        <time>2015-12-09T14:28:03.488Z</time>
      </trkpt>
      <trkpt lat="45.87727" lon="4.64708">
        <ele>208.699996948</ele>
        <time>2015-12-09T14:28:04.502Z</time>
      </trkpt>
      <trkpt lat="45.87728" lon="4.64715">
        <ele>208.600006104</ele>
        <time>2015-12-09T14:28:05.489Z</time>
      </trkpt>
      <trkpt lat="45.87729" lon="4.64722">
        <ele>208.5</ele>
        <time>2015-12-09T14:28:06.545Z</time>
      </trkpt>
      <trkpt lat="45.8773" lon="4.6473">
        <ele>208.399993896</ele>
        <time>2015-12-09T14:28:07.488Z</time>
      </trkpt>
      <trkpt lat="45.87731" lon="4.64736">
        <ele>208.300003052</ele>
        <time>2015-12-09T14:28:08.503Z</time>
      </trkpt>
      <trkpt lat="45.87733" lon="4.64742">
        <ele>208.199996948</ele>
        <time>2015-12-09T14:28:09.488Z</time>
      </trkpt>
      <trkpt lat="45.87735" lon="4.64749">
        <ele>208.100006104</ele>
        <time>2015-12-09T14:28:10.637Z</time>
      </trkpt>
      <trkpt lat="45.87736" lon="4.64755">
        <ele>208</ele>
        <time>2015-12-09T14:28:11.491Z</time>
      </trkpt>
      <trkpt lat="45.87736" lon="4.64761">
        <ele>207.899993896</ele>
        <time>2015-12-09T14:28:12.503Z</time>
      </trkpt>
      <trkpt lat="45.87737" lon="4.64768">
        <ele>207.800003052</ele>
        <time>2015-12-09T14:28:13.489Z</time>
      </trkpt>
      <trkpt lat="45.8774" lon="4.6478">
        <ele>207.600006104</ele>
        <time>2015-12-09T14:28:15.502Z</time>
      </trkpt>
      <trkpt lat="45.87742" lon="4.64785">
        <ele>207.5</ele>
        <time>2015-12-09T14:28:16.49Z</time>
      </trkpt>
      <trkpt lat="45.87747" lon="4.64795">
        <ele>207.399993896</ele>
        <time>2015-12-09T14:28:18.503Z</time>
      </trkpt>
      <trkpt lat="45.87749" lon="4.648">
        <ele>207.300003052</ele>
        <time>2015-12-09T14:28:19.489Z</time>
      </trkpt>
      <trkpt lat="45.87754" lon="4.64809">
        <ele>207.300003052</ele>
        <time>2015-12-09T14:28:21.502Z</time>
      </trkpt>
      <trkpt lat="45.87757" lon="4.64813">
        <ele>207.100006104</ele>
        <time>2015-12-09T14:28:22.49Z</time>
      </trkpt>
      <trkpt lat="45.8776" lon="4.64821">
        <ele>207</ele>
        <time>2015-12-09T14:28:24.503Z</time>
      </trkpt>
      <trkpt lat="45.87763" lon="4.64824">
        <ele>207</ele>
        <time>2015-12-09T14:28:25.488Z</time>
      </trkpt>
      <trkpt lat="45.87766" lon="4.64832">
        <ele>206.899993896</ele>
        <time>2015-12-09T14:28:27.502Z</time>
      </trkpt>
      <trkpt lat="45.87767" lon="4.64836">
        <ele>206.899993896</ele>
        <time>2015-12-09T14:28:28.49Z</time>
      </trkpt>
      <trkpt lat="45.87773" lon="4.64846">
        <ele>207.5</ele>
        <time>2015-12-09T14:28:31.502Z</time>
      </trkpt>
      <trkpt lat="45.87775" lon="4.64849">
        <ele>207.800003052</ele>
        <time>2015-12-09T14:28:32.488Z</time>
      </trkpt>
      <trkpt lat="45.87781" lon="4.64858">
        <ele>208.199996948</ele>
        <time>2015-12-09T14:28:35.502Z</time>
      </trkpt>
      <trkpt lat="45.87783" lon="4.64861">
        <ele>208.199996948</ele>
        <time>2015-12-09T14:28:36.489Z</time>
      </trkpt>
      <trkpt lat="45.87787" lon="4.64867">
        <ele>208.300003052</ele>
        <time>2015-12-09T14:28:38.502Z</time>
      </trkpt>
      <trkpt lat="45.87789" lon="4.6487">
        <ele>208.5</ele>
        <time>2015-12-09T14:28:39.488Z</time>
      </trkpt>
      <trkpt lat="45.87793" lon="4.6488">
        <ele>209.199996948</ele>
        <time>2015-12-09T14:28:42.502Z</time>
      </trkpt>
      <trkpt lat="45.87794" lon="4.64884">
        <ele>209.399993896</ele>
        <time>2015-12-09T14:28:43.488Z</time>
      </trkpt>
      <trkpt lat="45.87797" lon="4.64894">
        <ele>210.600006104</ele>
        <time>2015-12-09T14:28:46.577Z</time>
      </trkpt>
      <trkpt lat="45.87798" lon="4.64898">
        <ele>210.899993896</ele>
        <time>2015-12-09T14:28:47.488Z</time>
      </trkpt>
      <trkpt lat="45.87803" lon="4.64906">
        <ele>211.600006104</ele>
        <time>2015-12-09T14:28:50.503Z</time>
      </trkpt>
      <trkpt lat="45.87805" lon="4.64909">
        <ele>212.100006104</ele>
        <time>2015-12-09T14:28:51.488Z</time>
      </trkpt>
      <trkpt lat="45.87809" lon="4.64919">
        <ele>213.899993896</ele>
        <time>2015-12-09T14:28:54.507Z</time>
      </trkpt>
      <trkpt lat="45.8781" lon="4.64922">
        <ele>214.399993896</ele>
        <time>2015-12-09T14:28:55.488Z</time>
      </trkpt>
      <trkpt lat="45.87814" lon="4.64931">
        <ele>215.600006104</ele>
        <time>2015-12-09T14:28:59.502Z</time>
      </trkpt>
      <trkpt lat="45.87815" lon="4.64934">
        <ele>215.899993896</ele>
        <time>2015-12-09T14:29:00.503Z</time>
      </trkpt>
      <trkpt lat="45.8782" lon="4.64941">
        <ele>216.800003052</ele>
        <time>2015-12-09T14:29:03.531Z</time>
      </trkpt>
      <trkpt lat="45.87822" lon="4.64943">
        <ele>217.300003052</ele>
        <time>2015-12-09T14:29:04.49Z</time>
      </trkpt>
      <trkpt lat="45.87827" lon="4.64952">
        <ele>219.300003052</ele>
        <time>2015-12-09T14:29:07.502Z</time>
      </trkpt>
      <trkpt lat="45.87829" lon="4.64955">
        <ele>219.600006104</ele>
        <time>2015-12-09T14:29:08.488Z</time>
      </trkpt>
      <trkpt lat="45.87837" lon="4.64962">
        <ele>221.800003052</ele>
        <time>2015-12-09T14:29:12.503Z</time>
      </trkpt>
      <trkpt lat="45.87838" lon="4.64963">
        <ele>221.899993896</ele>
        <time>2015-12-09T14:29:13.488Z</time>
      </trkpt>
      <trkpt lat="45.87846" lon="4.64971">
        <ele>223.300003052</ele>
        <time>2015-12-09T14:29:17.56Z</time>
      </trkpt>
      <trkpt lat="45.87848" lon="4.64973">
        <ele>223.5</ele>
        <time>2015-12-09T14:29:18.489Z</time>
      </trkpt>
      <trkpt lat="45.87856" lon="4.64977">
        <ele>225.100006104</ele>
        <time>2015-12-09T14:29:21.502Z</time>
      </trkpt>
      <trkpt lat="45.87858" lon="4.64978">
        <ele>225.300003052</ele>
        <time>2015-12-09T14:29:22.491Z</time>
      </trkpt>
      <trkpt lat="45.87865" lon="4.6498">
        <ele>225.5</ele>
        <time>2015-12-09T14:29:25.502Z</time>
      </trkpt>
      <trkpt lat="45.87868" lon="4.64982">
        <ele>225.5</ele>
        <time>2015-12-09T14:29:26.488Z</time>
      </trkpt>
      <trkpt lat="45.87875" lon="4.64983">
        <ele>225.899993896</ele>
        <time>2015-12-09T14:29:29.502Z</time>
      </trkpt>
      <trkpt lat="45.87877" lon="4.64983">
        <ele>225.699996948</ele>
        <time>2015-12-09T14:29:30.489Z</time>
      </trkpt>
      <trkpt lat="45.87885" lon="4.64986">
        <ele>226.100006104</ele>
        <time>2015-12-09T14:29:34.504Z</time>
      </trkpt>
      <trkpt lat="45.87888" lon="4.64987">
        <ele>225.899993896</ele>
        <time>2015-12-09T14:29:35.488Z</time>
      </trkpt>
      <trkpt lat="45.87895" lon="4.64988">
        <ele>225.899993896</ele>
        <time>2015-12-09T14:29:38.516Z</time>
      </trkpt>
      <trkpt lat="45.87897" lon="4.64988">
        <ele>225.5</ele>
        <time>2015-12-09T14:29:39.488Z</time>
      </trkpt>
      <trkpt lat="45.87906" lon="4.6499">
        <ele>225.100006104</ele>
        <time>2015-12-09T14:29:43.501Z</time>
      </trkpt>
      <trkpt lat="45.87908" lon="4.64989">
        <ele>224.899993896</ele>
        <time>2015-12-09T14:29:44.525Z</time>
      </trkpt>
      <trkpt lat="45.87916" lon="4.64988">
        <ele>225.399993896</ele>
        <time>2015-12-09T14:29:48.502Z</time>
      </trkpt>
      <trkpt lat="45.87919" lon="4.64988">
        <ele>225.5</ele>
        <time>2015-12-09T14:29:49.487Z</time>
      </trkpt>
      <trkpt lat="45.87925" lon="4.64988">
        <ele>225.5</ele>
        <time>2015-12-09T14:29:52.503Z</time>
      </trkpt>
      <trkpt lat="45.87928" lon="4.64988">
        <ele>225.699996948</ele>
        <time>2015-12-09T14:29:53.487Z</time>
      </trkpt>
      <trkpt lat="45.87935" lon="4.64987">
        <ele>226.100006104</ele>
        <time>2015-12-09T14:29:56.502Z</time>
      </trkpt>
      <trkpt lat="45.87937" lon="4.64985">
        <ele>226.300003052</ele>
        <time>2015-12-09T14:29:57.488Z</time>
      </trkpt>
      <trkpt lat="45.87944" lon="4.64983">
        <ele>227.300003052</ele>
        <time>2015-12-09T14:30:00.517Z</time>
      </trkpt>
      <trkpt lat="45.87946" lon="4.64981">
        <ele>227</ele>
        <time>2015-12-09T14:30:01.487Z</time>
      </trkpt>
      <trkpt lat="45.87953" lon="4.64977">
        <ele>227</ele>
        <time>2015-12-09T14:30:04.505Z</time>
      </trkpt>
      <trkpt lat="45.87955" lon="4.64975">
        <ele>227</ele>
        <time>2015-12-09T14:30:05.488Z</time>
      </trkpt>
      <trkpt lat="45.87962" lon="4.64969">
        <ele>227.300003052</ele>
        <time>2015-12-09T14:30:08.501Z</time>
      </trkpt>
      <trkpt lat="45.87964" lon="4.64967">
        <ele>227.699996948</ele>
        <time>2015-12-09T14:30:09.487Z</time>
      </trkpt>
      <trkpt lat="45.8797" lon="4.64961">
        <ele>228.399993896</ele>
        <time>2015-12-09T14:30:12.506Z</time>
      </trkpt>
      <trkpt lat="45.87972" lon="4.6496">
        <ele>229.100006104</ele>
        <time>2015-12-09T14:30:13.488Z</time>
      </trkpt>
      <trkpt lat="45.87978" lon="4.64956">
        <ele>230.199996948</ele>
        <time>2015-12-09T14:30:16.527Z</time>
      </trkpt>
      <trkpt lat="45.87981" lon="4.64954">
        <ele>230.199996948</ele>
        <time>2015-12-09T14:30:17.488Z</time>
      </trkpt>
      <trkpt lat="45.87987" lon="4.64947">
        <ele>230.699996948</ele>
        <time>2015-12-09T14:30:21.515Z</time>
      </trkpt>
      <trkpt lat="45.8799" lon="4.64946">
        <ele>231.300003052</ele>
        <time>2015-12-09T14:30:22.49Z</time>
      </trkpt>
      <trkpt lat="45.87996" lon="4.64942">
        <ele>232.300003052</ele>
        <time>2015-12-09T14:30:25.503Z</time>
      </trkpt>
      <trkpt lat="45.87998" lon="4.6494">
        <ele>232.600006104</ele>
        <time>2015-12-09T14:30:26.489Z</time>
      </trkpt>
      <trkpt lat="45.88002" lon="4.64933">
        <ele>233.199996948</ele>
        <time>2015-12-09T14:30:29.502Z</time>
      </trkpt>
      <trkpt lat="45.88004" lon="4.6493">
        <ele>233.100006104</ele>
        <time>2015-12-09T14:30:30.489Z</time>
      </trkpt>
      <trkpt lat="45.8801" lon="4.64926">
        <ele>233.699996948</ele>
        <time>2015-12-09T14:30:33.502Z</time>
      </trkpt>
      <trkpt lat="45.88012" lon="4.64924">
        <ele>233</ele>
        <time>2015-12-09T14:30:34.49Z</time>
      </trkpt>
      <trkpt lat="45.88019" lon="4.64917">
        <ele>233.399993896</ele>
        <time>2015-12-09T14:30:38.506Z</time>
      </trkpt>
      <trkpt lat="45.88022" lon="4.64917">
        <ele>233.899993896</ele>
        <time>2015-12-09T14:30:39.488Z</time>
      </trkpt>
      <trkpt lat="45.88028" lon="4.64912">
        <ele>233.899993896</ele>
        <time>2015-12-09T14:30:42.503Z</time>
      </trkpt>
      <trkpt lat="45.8803" lon="4.64911">
        <ele>234.100006104</ele>
        <time>2015-12-09T14:30:43.488Z</time>
      </trkpt>
      <trkpt lat="45.88038" lon="4.64906">
        <ele>234.199996948</ele>
        <time>2015-12-09T14:30:47.503Z</time>
      </trkpt>
      <trkpt lat="45.8804" lon="4.64903">
        <ele>234.300003052</ele>
        <time>2015-12-09T14:30:48.504Z</time>
      </trkpt>
      <trkpt lat="45.88047" lon="4.64897">
        <ele>234.800003052</ele>
        <time>2015-12-09T14:30:52.505Z</time>
      </trkpt>
      <trkpt lat="45.88049" lon="4.64895">
        <ele>234.800003052</ele>
        <time>2015-12-09T14:30:53.488Z</time>
      </trkpt>
      <trkpt lat="45.88055" lon="4.64889">
        <ele>234.600006104</ele>
        <time>2015-12-09T14:30:56.529Z</time>
      </trkpt>
      <trkpt lat="45.88057" lon="4.64887">
        <ele>234.699996948</ele>
        <time>2015-12-09T14:30:57.488Z</time>
      </trkpt>
      <trkpt lat="45.88063" lon="4.64881">
        <ele>235</ele>
        <time>2015-12-09T14:31:00.503Z</time>
      </trkpt>
      <trkpt lat="45.88065" lon="4.6488">
        <ele>234.899993896</ele>
        <time>2015-12-09T14:31:01.488Z</time>
      </trkpt>
      <trkpt lat="45.88072" lon="4.64874">
        <ele>235.399993896</ele>
        <time>2015-12-09T14:31:04.519Z</time>
      </trkpt>
      <trkpt lat="45.88074" lon="4.64872">
        <ele>235.899993896</ele>
        <time>2015-12-09T14:31:05.488Z</time>
      </trkpt>
      <trkpt lat="45.8808" lon="4.64867">
        <ele>236</ele>
        <time>2015-12-09T14:31:08.502Z</time>
      </trkpt>
      <trkpt lat="45.88083" lon="4.64866">
        <ele>236.899993896</ele>
        <time>2015-12-09T14:31:09.489Z</time>
      </trkpt>
      <trkpt lat="45.88091" lon="4.64864">
        <ele>236.800003052</ele>
        <time>2015-12-09T14:31:13.502Z</time>
      </trkpt>
      <trkpt lat="45.88094" lon="4.64864">
        <ele>236.300003052</ele>
        <time>2015-12-09T14:31:14.491Z</time>
      </trkpt>
      <trkpt lat="45.88101" lon="4.64862">
        <ele>235.899993896</ele>
        <time>2015-12-09T14:31:17.5Z</time>
      </trkpt>
      <trkpt lat="45.88103" lon="4.64862">
        <ele>236.100006104</ele>
        <time>2015-12-09T14:31:18.488Z</time>
      </trkpt>
      <trkpt lat="45.88112" lon="4.6486">
        <ele>237.5</ele>
        <time>2015-12-09T14:31:22.504Z</time>
      </trkpt>
      <trkpt lat="45.88113" lon="4.64859">
        <ele>238.100006104</ele>
        <time>2015-12-09T14:31:23.487Z</time>
      </trkpt>
      <trkpt lat="45.88119" lon="4.64855">
        <ele>239.100006104</ele>
        <time>2015-12-09T14:31:26.562Z</time>
      </trkpt>
      <trkpt lat="45.88122" lon="4.64854">
        <ele>238.899993896</ele>
        <time>2015-12-09T14:31:27.495Z</time>
      </trkpt>
      <trkpt lat="45.88129" lon="4.64854">
        <ele>238</ele>
        <time>2015-12-09T14:31:30.536Z</time>
      </trkpt>
      <trkpt lat="45.88131" lon="4.64854">
        <ele>237.699996948</ele>
        <time>2015-12-09T14:31:31.487Z</time>
      </trkpt>
      <trkpt lat="45.88138" lon="4.64851">
        <ele>237.600006104</ele>
        <time>2015-12-09T14:31:34.503Z</time>
      </trkpt>
      <trkpt lat="45.8814" lon="4.6485">
        <ele>237.800003052</ele>
        <time>2015-12-09T14:31:35.487Z</time>
      </trkpt>
      <trkpt lat="45.88148" lon="4.64849">
        <ele>237.899993896</ele>
        <time>2015-12-09T14:31:39.589Z</time>
      </trkpt>
      <trkpt lat="45.8815" lon="4.64848">
        <ele>238.600006104</ele>
        <time>2015-12-09T14:31:40.492Z</time>
      </trkpt>
      <trkpt lat="45.88157" lon="4.64847">
        <ele>238.300003052</ele>
        <time>2015-12-09T14:31:43.501Z</time>
      </trkpt>
      <trkpt lat="45.88159" lon="4.64847">
        <ele>238.100006104</ele>
        <time>2015-12-09T14:31:44.487Z</time>
      </trkpt>
      <trkpt lat="45.88167" lon="4.64848">
        <ele>239</ele>
        <time>2015-12-09T14:31:48.502Z</time>
      </trkpt>
      <trkpt lat="45.88169" lon="4.64847">
        <ele>239.600006104</ele>
        <time>2015-12-09T14:31:49.487Z</time>
      </trkpt>
      <trkpt lat="45.88176" lon="4.64844">
        <ele>240.800003052</ele>
        <time>2015-12-09T14:31:52.508Z</time>
      </trkpt>
      <trkpt lat="45.88179" lon="4.64843">
        <ele>240.899993896</ele>
        <time>2015-12-09T14:31:53.487Z</time>
      </trkpt>
      <trkpt lat="45.88185" lon="4.64843">
        <ele>241.800003052</ele>
        <time>2015-12-09T14:31:56.503Z</time>
      </trkpt>
      <trkpt lat="45.88188" lon="4.64842">
        <ele>241.800003052</ele>
        <time>2015-12-09T14:31:57.503Z</time>
      </trkpt>
      <trkpt lat="45.88196" lon="4.64838">
        <ele>241.399993896</ele>
        <time>2015-12-09T14:32:01.501Z</time>
      </trkpt>
      <trkpt lat="45.88198" lon="4.64837">
        <ele>241.699996948</ele>
        <time>2015-12-09T14:32:02.487Z</time>
      </trkpt>
      <trkpt lat="45.88207" lon="4.64838">
        <ele>244.899993896</ele>
        <time>2015-12-09T14:32:06.505Z</time>
      </trkpt>
      <trkpt lat="45.88209" lon="4.64838">
        <ele>245.100006104</ele>
        <time>2015-12-09T14:32:07.487Z</time>
      </trkpt>
      <trkpt lat="45.88218" lon="4.64836">
        <ele>244.699996948</ele>
        <time>2015-12-09T14:32:11.503Z</time>
      </trkpt>
      <trkpt lat="45.8822" lon="4.64836">
        <ele>245.199996948</ele>
        <time>2015-12-09T14:32:12.488Z</time>
      </trkpt>
      <trkpt lat="45.88228" lon="4.64832">
        <ele>247.600006104</ele>
        <time>2015-12-09T14:32:16.503Z</time>
      </trkpt>
      <trkpt lat="45.88229" lon="4.64831">
        <ele>248.100006104</ele>
        <time>2015-12-09T14:32:17.487Z</time>
      </trkpt>
      <trkpt lat="45.88237" lon="4.64831">
        <ele>249.300003052</ele>
        <time>2015-12-09T14:32:21.501Z</time>
      </trkpt>
      <trkpt lat="45.88239" lon="4.6483">
        <ele>249.800003052</ele>
        <time>2015-12-09T14:32:22.527Z</time>
      </trkpt>
      <trkpt lat="45.88246" lon="4.64823">
        <ele>253</ele>
        <time>2015-12-09T14:32:27.501Z</time>
      </trkpt>
      <trkpt lat="45.88248" lon="4.64823">
        <ele>253.199996948</ele>
        <time>2015-12-09T14:32:28.489Z</time>
      </trkpt>
      <trkpt lat="45.88257" lon="4.64824">
        <ele>254.699996948</ele>
        <time>2015-12-09T14:32:32.529Z</time>
      </trkpt>
      <trkpt lat="45.88259" lon="4.64824">
        <ele>255.300003052</ele>
        <time>2015-12-09T14:32:33.487Z</time>
      </trkpt>
      <trkpt lat="45.88267" lon="4.64821">
        <ele>256</ele>
        <time>2015-12-09T14:32:36.502Z</time>
      </trkpt>
      <trkpt lat="45.88269" lon="4.64819">
        <ele>256.100006104</ele>
        <time>2015-12-09T14:32:37.487Z</time>
      </trkpt>
      <trkpt lat="45.88275" lon="4.64813">
        <ele>256.299987793</ele>
        <time>2015-12-09T14:32:41.501Z</time>
      </trkpt>
      <trkpt lat="45.88277" lon="4.64813">
        <ele>256.5</ele>
        <time>2015-12-09T14:32:42.488Z</time>
      </trkpt>
      <trkpt lat="45.88285" lon="4.64811">
        <ele>258.200012207</ele>
        <time>2015-12-09T14:32:46.504Z</time>
      </trkpt>
      <trkpt lat="45.88287" lon="4.6481">
        <ele>258.600006104</ele>
        <time>2015-12-09T14:32:47.487Z</time>
      </trkpt>
      <trkpt lat="45.88294" lon="4.64808">
        <ele>258.399993896</ele>
        <time>2015-12-09T14:32:51.516Z</time>
      </trkpt>
      <trkpt lat="45.88296" lon="4.64807">
        <ele>258.200012207</ele>
        <time>2015-12-09T14:32:52.489Z</time>
      </trkpt>
      <trkpt lat="45.88305" lon="4.64807">
        <ele>258</ele>
        <time>2015-12-09T14:32:56.5Z</time>
      </trkpt>
      <trkpt lat="45.88307" lon="4.64807">
        <ele>258.600006104</ele>
        <time>2015-12-09T14:32:57.487Z</time>
      </trkpt>
      <trkpt lat="45.88315" lon="4.64805">
        <ele>258.600006104</ele>
        <time>2015-12-09T14:33:01.501Z</time>
      </trkpt>
      <trkpt lat="45.88317" lon="4.64805">
        <ele>258.700012207</ele>
        <time>2015-12-09T14:33:02.487Z</time>
      </trkpt>
      <trkpt lat="45.88325" lon="4.64805">
        <ele>258.600006104</ele>
        <time>2015-12-09T14:33:06.501Z</time>
      </trkpt>
      <trkpt lat="45.88327" lon="4.64804">
        <ele>258.799987793</ele>
        <time>2015-12-09T14:33:07.487Z</time>
      </trkpt>
      <trkpt lat="45.88334" lon="4.64803">
        <ele>259.899993896</ele>
        <time>2015-12-09T14:33:10.627Z</time>
      </trkpt>
      <trkpt lat="45.88337" lon="4.64803">
        <ele>260.399993896</ele>
        <time>2015-12-09T14:33:11.489Z</time>
      </trkpt>
      <trkpt lat="45.88344" lon="4.64801">
        <ele>261.799987793</ele>
        <time>2015-12-09T14:33:14.5Z</time>
      </trkpt>
      <trkpt lat="45.88346" lon="4.64801">
        <ele>262.600006104</ele>
        <time>2015-12-09T14:33:15.487Z</time>
      </trkpt>
      <trkpt lat="45.88352" lon="4.64798">
        <ele>261.5</ele>
        <time>2015-12-09T14:33:18.554Z</time>
      </trkpt>
      <trkpt lat="45.88355" lon="4.64798">
        <ele>260.200012207</ele>
        <time>2015-12-09T14:33:19.487Z</time>
      </trkpt>
      <trkpt lat="45.88362" lon="4.64796">
        <ele>258.899993896</ele>
        <time>2015-12-09T14:33:22.503Z</time>
      </trkpt>
      <trkpt lat="45.88364" lon="4.64796">
        <ele>257.600006104</ele>
        <time>2015-12-09T14:33:23.487Z</time>
      </trkpt>
      <trkpt lat="45.88371" lon="4.64794">
        <ele>254.899993896</ele>
        <time>2015-12-09T14:33:26.501Z</time>
      </trkpt>
      <trkpt lat="45.88373" lon="4.64793">
        <ele>254.300003052</ele>
        <time>2015-12-09T14:33:27.487Z</time>
      </trkpt>
      <trkpt lat="45.8838" lon="4.64791">
        <ele>251.600006104</ele>
        <time>2015-12-09T14:33:30.501Z</time>
      </trkpt>
      <trkpt lat="45.88382" lon="4.6479">
        <ele>251.5</ele>
        <time>2015-12-09T14:33:31.487Z</time>
      </trkpt>
      <trkpt lat="45.88391" lon="4.6479">
        <ele>252.699996948</ele>
        <time>2015-12-09T14:33:35.501Z</time>
      </trkpt>
      <trkpt lat="45.88393" lon="4.6479">
        <ele>252.600006104</ele>
        <time>2015-12-09T14:33:36.487Z</time>
      </trkpt>
      <trkpt lat="45.88402" lon="4.64791">
        <ele>250.699996948</ele>
        <time>2015-12-09T14:33:41.501Z</time>
      </trkpt>
      <trkpt lat="45.88404" lon="4.64791">
        <ele>250.399993896</ele>
        <time>2015-12-09T14:33:42.488Z</time>
      </trkpt>
      <trkpt lat="45.88411" lon="4.6479">
        <ele>249.699996948</ele>
        <time>2015-12-09T14:33:45.5Z</time>
      </trkpt>
      <trkpt lat="45.88413" lon="4.64789">
        <ele>249.600006104</ele>
        <time>2015-12-09T14:33:46.489Z</time>
      </trkpt>
      <trkpt lat="45.8842" lon="4.64786">
        <ele>248.699996948</ele>
        <time>2015-12-09T14:33:49.501Z</time>
      </trkpt>
      <trkpt lat="45.88423" lon="4.64785">
        <ele>248.399993896</ele>
        <time>2015-12-09T14:33:50.49Z</time>
      </trkpt>
      <trkpt lat="45.88431" lon="4.64785">
        <ele>252.5</ele>
        <time>2015-12-09T14:33:54.502Z</time>
      </trkpt>
      <trkpt lat="45.88433" lon="4.64785">
        <ele>253.800003052</ele>
        <time>2015-12-09T14:33:55.487Z</time>
      </trkpt>
      <trkpt lat="45.88441" lon="4.64782">
        <ele>257.5</ele>
        <time>2015-12-09T14:33:59.501Z</time>
      </trkpt>
      <trkpt lat="45.88443" lon="4.64782">
        <ele>258.799987793</ele>
        <time>2015-12-09T14:34:00.488Z</time>
      </trkpt>
      <trkpt lat="45.88452" lon="4.64781">
        <ele>262.799987793</ele>
        <time>2015-12-09T14:34:04.503Z</time>
      </trkpt>
      <trkpt lat="45.88454" lon="4.6478">
        <ele>263.899993896</ele>
        <time>2015-12-09T14:34:05.486Z</time>
      </trkpt>
      <trkpt lat="45.88461" lon="4.64776">
        <ele>267.700012207</ele>
        <time>2015-12-09T14:34:09.501Z</time>
      </trkpt>
      <trkpt lat="45.88463" lon="4.64776">
        <ele>268.600006104</ele>
        <time>2015-12-09T14:34:10.488Z</time>
      </trkpt>
      <trkpt lat="45.88471" lon="4.64775">
        <ele>269.200012207</ele>
        <time>2015-12-09T14:34:14.664Z</time>
      </trkpt>
      <trkpt lat="45.88474" lon="4.64774">
        <ele>269</ele>
        <time>2015-12-09T14:34:15.487Z</time>
      </trkpt>
      <trkpt lat="45.88481" lon="4.64772">
        <ele>269.399993896</ele>
        <time>2015-12-09T14:34:18.502Z</time>
      </trkpt>
      <trkpt lat="45.88483" lon="4.64772">
        <ele>269.600006104</ele>
        <time>2015-12-09T14:34:19.487Z</time>
      </trkpt>
      <trkpt lat="45.88491" lon="4.64771">
        <ele>268.200012207</ele>
        <time>2015-12-09T14:34:22.503Z</time>
      </trkpt>
      <trkpt lat="45.88493" lon="4.64771">
        <ele>267.899993896</ele>
        <time>2015-12-09T14:34:23.487Z</time>
      </trkpt>
      <trkpt lat="45.88501" lon="4.6477">
        <ele>267.600006104</ele>
        <time>2015-12-09T14:34:26.501Z</time>
      </trkpt>
      <trkpt lat="45.88503" lon="4.6477">
        <ele>267.700012207</ele>
        <time>2015-12-09T14:34:27.487Z</time>
      </trkpt>
      <trkpt lat="45.8851" lon="4.64771">
        <ele>269.100006104</ele>
        <time>2015-12-09T14:34:30.502Z</time>
      </trkpt>
      <trkpt lat="45.88513" lon="4.6477">
        <ele>269.100006104</ele>
        <time>2015-12-09T14:34:31.487Z</time>
      </trkpt>
      <trkpt lat="45.8852" lon="4.6477">
        <ele>269.799987793</ele>
        <time>2015-12-09T14:34:34.516Z</time>
      </trkpt>
      <trkpt lat="45.88522" lon="4.6477">
        <ele>269.899993896</ele>
        <time>2015-12-09T14:34:35.486Z</time>
      </trkpt>
      <trkpt lat="45.88529" lon="4.64776">
        <ele>270.100006104</ele>
        <time>2015-12-09T14:34:38.5Z</time>
      </trkpt>
      <trkpt lat="45.88531" lon="4.64777">
        <ele>270.299987793</ele>
        <time>2015-12-09T14:34:39.487Z</time>
      </trkpt>
      <trkpt lat="45.88539" lon="4.64783">
        <ele>272.100006104</ele>
        <time>2015-12-09T14:34:43.502Z</time>
      </trkpt>
      <trkpt lat="45.8854" lon="4.64785">
        <ele>272.299987793</ele>
        <time>2015-12-09T14:34:44.487Z</time>
      </trkpt>
      <trkpt lat="45.88545" lon="4.64793">
        <ele>273</ele>
        <time>2015-12-09T14:34:47.5Z</time>
      </trkpt>
      <trkpt lat="45.88546" lon="4.64795">
        <ele>273.200012207</ele>
        <time>2015-12-09T14:34:48.487Z</time>
      </trkpt>
      <trkpt lat="45.88552" lon="4.64804">
        <ele>272.799987793</ele>
        <time>2015-12-09T14:34:51.5Z</time>
      </trkpt>
      <trkpt lat="45.88552" lon="4.64807">
        <ele>272.600006104</ele>
        <time>2015-12-09T14:34:52.489Z</time>
      </trkpt>
      <trkpt lat="45.88553" lon="4.64819">
        <ele>273.600006104</ele>
        <time>2015-12-09T14:34:55.514Z</time>
      </trkpt>
      <trkpt lat="45.88554" lon="4.64823">
        <ele>273.399993896</ele>
        <time>2015-12-09T14:34:56.486Z</time>
      </trkpt>
      <trkpt lat="45.88553" lon="4.64835">
        <ele>273.200012207</ele>
        <time>2015-12-09T14:35:00.501Z</time>
      </trkpt>
      <trkpt lat="45.88553" lon="4.64838">
        <ele>273.5</ele>
        <time>2015-12-09T14:35:01.486Z</time>
      </trkpt>
      <trkpt lat="45.88553" lon="4.64849">
        <ele>273.700012207</ele>
        <time>2015-12-09T14:35:04.503Z</time>
      </trkpt>
      <trkpt lat="45.88552" lon="4.64852">
        <ele>274.200012207</ele>
        <time>2015-12-09T14:35:05.486Z</time>
      </trkpt>
      <trkpt lat="45.8855" lon="4.64862">
        <ele>274.399993896</ele>
        <time>2015-12-09T14:35:08.503Z</time>
      </trkpt>
      <trkpt lat="45.8855" lon="4.64865">
        <ele>274.799987793</ele>
        <time>2015-12-09T14:35:09.486Z</time>
      </trkpt>
      <trkpt lat="45.88548" lon="4.64875">
        <ele>275.899993896</ele>
        <time>2015-12-09T14:35:14.501Z</time>
      </trkpt>
      <trkpt lat="45.88547" lon="4.64878">
        <ele>276.5</ele>
        <time>2015-12-09T14:35:15.487Z</time>
      </trkpt>
      <trkpt lat="45.88545" lon="4.64888">
        <ele>279.100006104</ele>
        <time>2015-12-09T14:35:18.501Z</time>
      </trkpt>
      <trkpt lat="45.88544" lon="4.6489">
        <ele>279.899993896</ele>
        <time>2015-12-09T14:35:19.486Z</time>
      </trkpt>
      <trkpt lat="45.88542" lon="4.64902">
        <ele>282.700012207</ele>
        <time>2015-12-09T14:35:23.501Z</time>
      </trkpt>
      <trkpt lat="45.88541" lon="4.64904">
        <ele>283.200012207</ele>
        <time>2015-12-09T14:35:24.487Z</time>
      </trkpt>
      <trkpt lat="45.88539" lon="4.64917">
        <ele>286.299987793</ele>
        <time>2015-12-09T14:35:28.503Z</time>
      </trkpt>
      <trkpt lat="45.88538" lon="4.64919">
        <ele>286.899993896</ele>
        <time>2015-12-09T14:35:29.486Z</time>
      </trkpt>
      <trkpt lat="45.88536" lon="4.6493">
        <ele>288.799987793</ele>
        <time>2015-12-09T14:35:33.549Z</time>
      </trkpt>
      <trkpt lat="45.88535" lon="4.64932">
        <ele>289.299987793</ele>
        <time>2015-12-09T14:35:34.491Z</time>
      </trkpt>
      <trkpt lat="45.88531" lon="4.64943">
        <ele>291.700012207</ele>
        <time>2015-12-09T14:35:38.501Z</time>
      </trkpt>
      <trkpt lat="45.8853" lon="4.64946">
        <ele>292.200012207</ele>
        <time>2015-12-09T14:35:39.486Z</time>
      </trkpt>
      <trkpt lat="45.88528" lon="4.64957">
        <ele>292.899993896</ele>
        <time>2015-12-09T14:35:42.501Z</time>
      </trkpt>
      <trkpt lat="45.88527" lon="4.6496">
        <ele>293.200012207</ele>
        <time>2015-12-09T14:35:43.486Z</time>
      </trkpt>
      <trkpt lat="45.88526" lon="4.6497">
        <ele>293</ele>
        <time>2015-12-09T14:35:46.503Z</time>
      </trkpt>
      <trkpt lat="45.88526" lon="4.64973">
        <ele>293.299987793</ele>
        <time>2015-12-09T14:35:47.486Z</time>
      </trkpt>
      <trkpt lat="45.88525" lon="4.64983">
        <ele>292.899993896</ele>
        <time>2015-12-09T14:35:50.501Z</time>
      </trkpt>
      <trkpt lat="45.88524" lon="4.64987">
        <ele>292.799987793</ele>
        <time>2015-12-09T14:35:51.486Z</time>
      </trkpt>
      <trkpt lat="45.88523" lon="4.64999">
        <ele>292.100006104</ele>
        <time>2015-12-09T14:35:54.501Z</time>
      </trkpt>
      <trkpt lat="45.88523" lon="4.65003">
        <ele>291.5</ele>
        <time>2015-12-09T14:35:55.486Z</time>
      </trkpt>
      <trkpt lat="45.88523" lon="4.65013">
        <ele>290.799987793</ele>
        <time>2015-12-09T14:35:58.503Z</time>
      </trkpt>
      <trkpt lat="45.88523" lon="4.65016">
        <ele>290.399993896</ele>
        <time>2015-12-09T14:35:59.486Z</time>
      </trkpt>
      <trkpt lat="45.88521" lon="4.65026">
        <ele>290.299987793</ele>
        <time>2015-12-09T14:36:02.501Z</time>
      </trkpt>
      <trkpt lat="45.8852" lon="4.65029">
        <ele>290.299987793</ele>
        <time>2015-12-09T14:36:03.486Z</time>
      </trkpt>
      <trkpt lat="45.88517" lon="4.6504">
        <ele>289.299987793</ele>
        <time>2015-12-09T14:36:07.5Z</time>
      </trkpt>
      <trkpt lat="45.88517" lon="4.65043">
        <ele>288.600006104</ele>
        <time>2015-12-09T14:36:08.486Z</time>
      </trkpt>
      <trkpt lat="45.88515" lon="4.65052">
        <ele>288.700012207</ele>
        <time>2015-12-09T14:36:11.503Z</time>
      </trkpt>
      <trkpt lat="45.88513" lon="4.65055">
        <ele>289</ele>
        <time>2015-12-09T14:36:12.487Z</time>
      </trkpt>
      <trkpt lat="45.88511" lon="4.65065">
        <ele>288.899993896</ele>
        <time>2015-12-09T14:36:15.501Z</time>
      </trkpt>
      <trkpt lat="45.8851" lon="4.65068">
        <ele>289.200012207</ele>
        <time>2015-12-09T14:36:16.489Z</time>
      </trkpt>
      <trkpt lat="45.88505" lon="4.65077">
        <ele>289.200012207</ele>
        <time>2015-12-09T14:36:20.501Z</time>
      </trkpt>
      <trkpt lat="45.88504" lon="4.65079">
        <ele>289</ele>
        <time>2015-12-09T14:36:21.486Z</time>
      </trkpt>
      <trkpt lat="45.885" lon="4.65088">
        <ele>288.600006104</ele>
        <time>2015-12-09T14:36:24.502Z</time>
      </trkpt>
      <trkpt lat="45.88499" lon="4.65091">
        <ele>289</ele>
        <time>2015-12-09T14:36:25.486Z</time>
      </trkpt>
      <trkpt lat="45.88495" lon="4.65099">
        <ele>288.700012207</ele>
        <time>2015-12-09T14:36:28.504Z</time>
      </trkpt>
      <trkpt lat="45.88493" lon="4.65101">
        <ele>288.600006104</ele>
        <time>2015-12-09T14:36:29.486Z</time>
      </trkpt>
      <trkpt lat="45.88488" lon="4.65112">
        <ele>288.700012207</ele>
        <time>2015-12-09T14:36:33.5Z</time>
      </trkpt>
      <trkpt lat="45.88487" lon="4.65114">
        <ele>288.700012207</ele>
        <time>2015-12-09T14:36:34.489Z</time>
      </trkpt>
      <trkpt lat="45.88481" lon="4.65123">
        <ele>289.399993896</ele>
        <time>2015-12-09T14:36:38.625Z</time>
      </trkpt>
      <trkpt lat="45.8848" lon="4.65124">
        <ele>289.600006104</ele>
        <time>2015-12-09T14:36:39.486Z</time>
      </trkpt>
      <trkpt lat="45.88473" lon="4.65132">
        <ele>290.799987793</ele>
        <time>2015-12-09T14:36:43.501Z</time>
      </trkpt>
      <trkpt lat="45.88472" lon="4.65134">
        <ele>291.100006104</ele>
        <time>2015-12-09T14:36:44.486Z</time>
      </trkpt>
      <trkpt lat="45.88465" lon="4.65141">
        <ele>291.399993896</ele>
        <time>2015-12-09T14:36:48.52Z</time>
      </trkpt>
      <trkpt lat="45.88463" lon="4.65142">
        <ele>291.600006104</ele>
        <time>2015-12-09T14:36:49.486Z</time>
      </trkpt>
      <trkpt lat="45.88458" lon="4.65147">
        <ele>291.5</ele>
        <time>2015-12-09T14:36:52.506Z</time>
      </trkpt>
      <trkpt lat="45.88457" lon="4.6515">
        <ele>291.600006104</ele>
        <time>2015-12-09T14:36:53.486Z</time>
      </trkpt>
      <trkpt lat="45.88452" lon="4.65157">
        <ele>291.5</ele>
        <time>2015-12-09T14:36:56.5Z</time>
      </trkpt>
      <trkpt lat="45.8845" lon="4.65159">
        <ele>291.399993896</ele>
        <time>2015-12-09T14:36:57.486Z</time>
      </trkpt>
      <trkpt lat="45.88444" lon="4.65165">
        <ele>291.600006104</ele>
        <time>2015-12-09T14:37:00.541Z</time>
      </trkpt>
      <trkpt lat="45.88442" lon="4.65167">
        <ele>291.899993896</ele>
        <time>2015-12-09T14:37:01.488Z</time>
      </trkpt>
      <trkpt lat="45.88435" lon="4.65175">
        <ele>292.399993896</ele>
        <time>2015-12-09T14:37:05.5Z</time>
      </trkpt>
      <trkpt lat="45.88434" lon="4.65177">
        <ele>292.700012207</ele>
        <time>2015-12-09T14:37:06.487Z</time>
      </trkpt>
      <trkpt lat="45.88429" lon="4.65184">
        <ele>293.5</ele>
        <time>2015-12-09T14:37:09.5Z</time>
      </trkpt>
      <trkpt lat="45.88426" lon="4.65185">
        <ele>293.700012207</ele>
        <time>2015-12-09T14:37:10.489Z</time>
      </trkpt>
      <trkpt lat="45.8842" lon="4.6519">
        <ele>294.5</ele>
        <time>2015-12-09T14:37:13.5Z</time>
      </trkpt>
      <trkpt lat="45.88417" lon="4.65191">
        <ele>294.799987793</ele>
        <time>2015-12-09T14:37:14.486Z</time>
      </trkpt>
      <trkpt lat="45.88411" lon="4.65198">
        <ele>295.899993896</ele>
        <time>2015-12-09T14:37:17.502Z</time>
      </trkpt>
      <trkpt lat="45.88409" lon="4.65201">
        <ele>296</ele>
        <time>2015-12-09T14:37:18.512Z</time>
      </trkpt>
      <trkpt lat="45.88403" lon="4.65207">
        <ele>296.799987793</ele>
        <time>2015-12-09T14:37:21.5Z</time>
      </trkpt>
      <trkpt lat="45.88402" lon="4.65209">
        <ele>297.200012207</ele>
        <time>2015-12-09T14:37:22.489Z</time>
      </trkpt>
      <trkpt lat="45.88396" lon="4.65216">
        <ele>297.899993896</ele>
        <time>2015-12-09T14:37:25.531Z</time>
      </trkpt>
      <trkpt lat="45.88395" lon="4.65218">
        <ele>297.700012207</ele>
        <time>2015-12-09T14:37:26.486Z</time>
      </trkpt>
      <trkpt lat="45.88388" lon="4.65224">
        <ele>298.299987793</ele>
        <time>2015-12-09T14:37:29.501Z</time>
      </trkpt>
      <trkpt lat="45.88386" lon="4.65226">
        <ele>298.5</ele>
        <time>2015-12-09T14:37:30.487Z</time>
      </trkpt>
      <trkpt lat="45.8838" lon="4.65231">
        <ele>298.299987793</ele>
        <time>2015-12-09T14:37:33.5Z</time>
      </trkpt>
      <trkpt lat="45.88378" lon="4.65233">
        <ele>298.200012207</ele>
        <time>2015-12-09T14:37:34.489Z</time>
      </trkpt>
      <trkpt lat="45.88372" lon="4.65239">
        <ele>298.5</ele>
        <time>2015-12-09T14:37:37.5Z</time>
      </trkpt>
      <trkpt lat="45.8837" lon="4.65241">
        <ele>298.399993896</ele>
        <time>2015-12-09T14:37:38.486Z</time>
      </trkpt>
      <trkpt lat="45.88364" lon="4.65248">
        <ele>298.899993896</ele>
        <time>2015-12-09T14:37:41.519Z</time>
      </trkpt>
      <trkpt lat="45.88362" lon="4.6525">
        <ele>299.100006104</ele>
        <time>2015-12-09T14:37:42.487Z</time>
      </trkpt>
      <trkpt lat="45.88357" lon="4.65256">
        <ele>299.600006104</ele>
        <time>2015-12-09T14:37:45.501Z</time>
      </trkpt>
      <trkpt lat="45.88355" lon="4.65258">
        <ele>299.700012207</ele>
        <time>2015-12-09T14:37:46.489Z</time>
      </trkpt>
      <trkpt lat="45.88348" lon="4.65265">
        <ele>300.899993896</ele>
        <time>2015-12-09T14:37:50.5Z</time>
      </trkpt>
      <trkpt lat="45.88346" lon="4.65268">
        <ele>300.799987793</ele>
        <time>2015-12-09T14:37:51.486Z</time>
      </trkpt>
      <trkpt lat="45.88339" lon="4.65275">
        <ele>302.100006104</ele>
        <time>2015-12-09T14:37:54.501Z</time>
      </trkpt>
      <trkpt lat="45.88337" lon="4.65277">
        <ele>302.399993896</ele>
        <time>2015-12-09T14:37:55.486Z</time>
      </trkpt>
      <trkpt lat="45.8833" lon="4.65286">
        <ele>303.299987793</ele>
        <time>2015-12-09T14:37:59.501Z</time>
      </trkpt>
      <trkpt lat="45.88328" lon="4.65288">
        <ele>303.600006104</ele>
        <time>2015-12-09T14:38:00.487Z</time>
      </trkpt>
      <trkpt lat="45.88323" lon="4.65296">
        <ele>304.5</ele>
        <time>2015-12-09T14:38:03.501Z</time>
      </trkpt>
      <trkpt lat="45.88321" lon="4.65299">
        <ele>304.799987793</ele>
        <time>2015-12-09T14:38:04.489Z</time>
      </trkpt>
      <trkpt lat="45.88316" lon="4.65307">
        <ele>305.5</ele>
        <time>2015-12-09T14:38:07.5Z</time>
      </trkpt>
      <trkpt lat="45.88314" lon="4.65309">
        <ele>305.600006104</ele>
        <time>2015-12-09T14:38:08.501Z</time>
      </trkpt>
      <trkpt lat="45.88309" lon="4.65317">
        <ele>306.600006104</ele>
        <time>2015-12-09T14:38:11.504Z</time>
      </trkpt>
      <trkpt lat="45.88308" lon="4.6532">
        <ele>306.799987793</ele>
        <time>2015-12-09T14:38:12.487Z</time>
      </trkpt>
      <trkpt lat="45.88305" lon="4.6533">
        <ele>307.5</ele>
        <time>2015-12-09T14:38:15.5Z</time>
      </trkpt>
      <trkpt lat="45.88304" lon="4.65333">
        <ele>307.700012207</ele>
        <time>2015-12-09T14:38:16.489Z</time>
      </trkpt>
      <trkpt lat="45.88298" lon="4.65342">
        <ele>308.799987793</ele>
        <time>2015-12-09T14:38:20.5Z</time>
      </trkpt>
      <trkpt lat="45.88298" lon="4.65345">
        <ele>309.200012207</ele>
        <time>2015-12-09T14:38:21.487Z</time>
      </trkpt>
      <trkpt lat="45.88295" lon="4.65354">
        <ele>310.100006104</ele>
        <time>2015-12-09T14:38:24.501Z</time>
      </trkpt>
      <trkpt lat="45.88293" lon="4.65357">
        <ele>310.399993896</ele>
        <time>2015-12-09T14:38:25.486Z</time>
      </trkpt>
      <trkpt lat="45.8829" lon="4.65365">
        <ele>310.100006104</ele>
        <time>2015-12-09T14:38:28.503Z</time>
      </trkpt>
      <trkpt lat="45.88289" lon="4.65368">
        <ele>310.100006104</ele>
        <time>2015-12-09T14:38:29.486Z</time>
      </trkpt>
      <trkpt lat="45.88286" lon="4.65376">
        <ele>310.100006104</ele>
        <time>2015-12-09T14:38:32.5Z</time>
      </trkpt>
      <trkpt lat="45.88285" lon="4.65379">
        <ele>310.200012207</ele>
        <time>2015-12-09T14:38:33.486Z</time>
      </trkpt>
      <trkpt lat="45.88282" lon="4.65389">
        <ele>310.600006104</ele>
        <time>2015-12-09T14:38:36.503Z</time>
      </trkpt>
      <trkpt lat="45.8828" lon="4.65392">
        <ele>310.299987793</ele>
        <time>2015-12-09T14:38:37.487Z</time>
      </trkpt>
      <trkpt lat="45.88278" lon="4.65401">
        <ele>309.899993896</ele>
        <time>2015-12-09T14:38:40.503Z</time>
      </trkpt>
      <trkpt lat="45.88277" lon="4.65405">
        <ele>310.100006104</ele>
        <time>2015-12-09T14:38:41.486Z</time>
      </trkpt>
      <trkpt lat="45.88274" lon="4.65414">
        <ele>310.200012207</ele>
        <time>2015-12-09T14:38:44.501Z</time>
      </trkpt>
      <trkpt lat="45.88273" lon="4.65417">
        <ele>310.299987793</ele>
        <time>2015-12-09T14:38:45.486Z</time>
      </trkpt>
      <trkpt lat="45.8827" lon="4.65426">
        <ele>310.600006104</ele>
        <time>2015-12-09T14:38:48.501Z</time>
      </trkpt>
      <trkpt lat="45.88269" lon="4.65429">
        <ele>310.600006104</ele>
        <time>2015-12-09T14:38:49.486Z</time>
      </trkpt>
      <trkpt lat="45.88266" lon="4.65439">
        <ele>311.299987793</ele>
        <time>2015-12-09T14:38:52.665Z</time>
      </trkpt>
      <trkpt lat="45.88265" lon="4.65443">
        <ele>311.399993896</ele>
        <time>2015-12-09T14:38:53.486Z</time>
      </trkpt>
      <trkpt lat="45.88262" lon="4.65452">
        <ele>312.299987793</ele>
        <time>2015-12-09T14:38:56.5Z</time>
      </trkpt>
      <trkpt lat="45.88261" lon="4.65454">
        <ele>312.200012207</ele>
        <time>2015-12-09T14:38:57.486Z</time>
      </trkpt>
      <trkpt lat="45.88257" lon="4.65466">
        <ele>312.899993896</ele>
        <time>2015-12-09T14:39:01.5Z</time>
      </trkpt>
      <trkpt lat="45.88257" lon="4.65469">
        <ele>313.100006104</ele>
        <time>2015-12-09T14:39:02.499Z</time>
      </trkpt>
      <trkpt lat="45.88255" lon="4.65478">
        <ele>313</ele>
        <time>2015-12-09T14:39:05.5Z</time>
      </trkpt>
      <trkpt lat="45.88253" lon="4.65481">
        <ele>313</ele>
        <time>2015-12-09T14:39:06.487Z</time>
      </trkpt>
      <trkpt lat="45.88248" lon="4.65491">
        <ele>313.399993896</ele>
        <time>2015-12-09T14:39:09.5Z</time>
      </trkpt>
      <trkpt lat="45.88247" lon="4.65494">
        <ele>313.299987793</ele>
        <time>2015-12-09T14:39:10.489Z</time>
      </trkpt>
      <trkpt lat="45.88243" lon="4.65505">
        <ele>313.399993896</ele>
        <time>2015-12-09T14:39:13.504Z</time>
      </trkpt>
      <trkpt lat="45.88242" lon="4.65508">
        <ele>313.600006104</ele>
        <time>2015-12-09T14:39:14.486Z</time>
      </trkpt>
      <trkpt lat="45.8824" lon="4.65518">
        <ele>313.899993896</ele>
        <time>2015-12-09T14:39:17.501Z</time>
      </trkpt>
      <trkpt lat="45.88239" lon="4.65522">
        <ele>313.899993896</ele>
        <time>2015-12-09T14:39:18.501Z</time>
      </trkpt>
      <trkpt lat="45.88237" lon="4.65532">
        <ele>314.200012207</ele>
        <time>2015-12-09T14:39:21.501Z</time>
      </trkpt>
      <trkpt lat="45.88237" lon="4.65535">
        <ele>314.299987793</ele>
        <time>2015-12-09T14:39:22.489Z</time>
      </trkpt>
      <trkpt lat="45.88233" lon="4.65544">
        <ele>314.899993896</ele>
        <time>2015-12-09T14:39:25.5Z</time>
      </trkpt>
      <trkpt lat="45.88232" lon="4.65546">
        <ele>315.200012207</ele>
        <time>2015-12-09T14:39:26.486Z</time>
      </trkpt>
      <trkpt lat="45.88229" lon="4.65556">
        <ele>315.899993896</ele>
        <time>2015-12-09T14:39:29.5Z</time>
      </trkpt>
      <trkpt lat="45.88229" lon="4.6556">
        <ele>316.100006104</ele>
        <time>2015-12-09T14:39:30.487Z</time>
      </trkpt>
      <trkpt lat="45.88226" lon="4.65569">
        <ele>316.600006104</ele>
        <time>2015-12-09T14:39:33.5Z</time>
      </trkpt>
      <trkpt lat="45.88224" lon="4.65571">
        <ele>316.799987793</ele>
        <time>2015-12-09T14:39:34.489Z</time>
      </trkpt>
      <trkpt lat="45.8822" lon="4.65579">
        <ele>316.899993896</ele>
        <time>2015-12-09T14:39:37.5Z</time>
      </trkpt>
      <trkpt lat="45.88219" lon="4.65582">
        <ele>316.899993896</ele>
        <time>2015-12-09T14:39:38.486Z</time>
      </trkpt>
      <trkpt lat="45.88215" lon="4.65593">
        <ele>317.399993896</ele>
        <time>2015-12-09T14:39:42.501Z</time>
      </trkpt>
      <trkpt lat="45.88214" lon="4.65596">
        <ele>317.399993896</ele>
        <time>2015-12-09T14:39:43.486Z</time>
      </trkpt>
      <trkpt lat="45.88211" lon="4.65606">
        <ele>317.899993896</ele>
        <time>2015-12-09T14:39:46.502Z</time>
      </trkpt>
      <trkpt lat="45.8821" lon="4.65609">
        <ele>318.100006104</ele>
        <time>2015-12-09T14:39:47.486Z</time>
      </trkpt>
      <trkpt lat="45.88206" lon="4.65621">
        <ele>318.299987793</ele>
        <time>2015-12-09T14:39:51.501Z</time>
      </trkpt>
      <trkpt lat="45.88204" lon="4.65623">
        <ele>318.5</ele>
        <time>2015-12-09T14:39:52.489Z</time>
      </trkpt>
      <trkpt lat="45.88201" lon="4.65635">
        <ele>319.200012207</ele>
        <time>2015-12-09T14:39:56.501Z</time>
      </trkpt>
      <trkpt lat="45.882" lon="4.65638">
        <ele>319.5</ele>
        <time>2015-12-09T14:39:57.486Z</time>
      </trkpt>
      <trkpt lat="45.88196" lon="4.65648">
        <ele>320.100006104</ele>
        <time>2015-12-09T14:40:00.502Z</time>
      </trkpt>
      <trkpt lat="45.88194" lon="4.65652">
        <ele>320.299987793</ele>
        <time>2015-12-09T14:40:01.501Z</time>
      </trkpt>
      <trkpt lat="45.8819" lon="4.65663">
        <ele>320.5</ele>
        <time>2015-12-09T14:40:04.504Z</time>
      </trkpt>
      <trkpt lat="45.88188" lon="4.65666">
        <ele>320.600006104</ele>
        <time>2015-12-09T14:40:05.487Z</time>
      </trkpt>
      <trkpt lat="45.88184" lon="4.65675">
        <ele>321.5</ele>
        <time>2015-12-09T14:40:08.5Z</time>
      </trkpt>
      <trkpt lat="45.88182" lon="4.65678">
        <ele>321.100006104</ele>
        <time>2015-12-09T14:40:09.486Z</time>
      </trkpt>
      <trkpt lat="45.88178" lon="4.65686">
        <ele>322.700012207</ele>
        <time>2015-12-09T14:40:12.501Z</time>
      </trkpt>
      <trkpt lat="45.88176" lon="4.6569">
        <ele>323</ele>
        <time>2015-12-09T14:40:13.486Z</time>
      </trkpt>
      <trkpt lat="45.88171" lon="4.65699">
        <ele>323.799987793</ele>
        <time>2015-12-09T14:40:16.503Z</time>
      </trkpt>
      <trkpt lat="45.88169" lon="4.65702">
        <ele>324</ele>
        <time>2015-12-09T14:40:17.501Z</time>
      </trkpt>
      <trkpt lat="45.88164" lon="4.65711">
        <ele>325.200012207</ele>
        <time>2015-12-09T14:40:20.5Z</time>
      </trkpt>
      <trkpt lat="45.88163" lon="4.65713">
        <ele>325.5</ele>
        <time>2015-12-09T14:40:21.486Z</time>
      </trkpt>
      <trkpt lat="45.88158" lon="4.65724">
        <ele>327.200012207</ele>
        <time>2015-12-09T14:40:25.5Z</time>
      </trkpt>
      <trkpt lat="45.88156" lon="4.65726">
        <ele>327.700012207</ele>
        <time>2015-12-09T14:40:26.486Z</time>
      </trkpt>
      <trkpt lat="45.88151" lon="4.65735">
        <ele>329</ele>
        <time>2015-12-09T14:40:30.501Z</time>
      </trkpt>
      <trkpt lat="45.88149" lon="4.65738">
        <ele>329.200012207</ele>
        <time>2015-12-09T14:40:31.487Z</time>
      </trkpt>
      <trkpt lat="45.88146" lon="4.65745">
        <ele>330</ele>
        <time>2015-12-09T14:40:34.503Z</time>
      </trkpt>
      <trkpt lat="45.88143" lon="4.65747">
        <ele>329.799987793</ele>
        <time>2015-12-09T14:40:35.486Z</time>
      </trkpt>
      <trkpt lat="45.88136" lon="4.65754">
        <ele>330.200012207</ele>
        <time>2015-12-09T14:40:38.5Z</time>
      </trkpt>
      <trkpt lat="45.88134" lon="4.65756">
        <ele>330.299987793</ele>
        <time>2015-12-09T14:40:39.486Z</time>
      </trkpt>
      <trkpt lat="45.88129" lon="4.65761">
        <ele>329.799987793</ele>
        <time>2015-12-09T14:40:41.5Z</time>
      </trkpt>
      <trkpt lat="45.88127" lon="4.65764">
        <ele>329.299987793</ele>
        <time>2015-12-09T14:40:42.487Z</time>
      </trkpt>
      <trkpt lat="45.8812" lon="4.65771">
        <ele>329.799987793</ele>
        <time>2015-12-09T14:40:45.5Z</time>
      </trkpt>
      <trkpt lat="45.88118" lon="4.65774">
        <ele>329.700012207</ele>
        <time>2015-12-09T14:40:46.488Z</time>
      </trkpt>
      <trkpt lat="45.88112" lon="4.65781">
        <ele>330.799987793</ele>
        <time>2015-12-09T14:40:49.5Z</time>
      </trkpt>
      <trkpt lat="45.88108" lon="4.65783">
        <ele>331</ele>
        <time>2015-12-09T14:40:50.486Z</time>
      </trkpt>
      <trkpt lat="45.88101" lon="4.65788">
        <ele>331.899993896</ele>
        <time>2015-12-09T14:40:53.5Z</time>
      </trkpt>
      <trkpt lat="45.88099" lon="4.6579">
        <ele>332.700012207</ele>
        <time>2015-12-09T14:40:54.487Z</time>
      </trkpt>
      <trkpt lat="45.88092" lon="4.65797">
        <ele>334.100006104</ele>
        <time>2015-12-09T14:40:57.503Z</time>
      </trkpt>
      <trkpt lat="45.8809" lon="4.65798">
        <ele>334.200012207</ele>
        <time>2015-12-09T14:40:58.489Z</time>
      </trkpt>
      <trkpt lat="45.88084" lon="4.65804">
        <ele>335.899993896</ele>
        <time>2015-12-09T14:41:02.5Z</time>
      </trkpt>
      <trkpt lat="45.88082" lon="4.65806">
        <ele>336</ele>
        <time>2015-12-09T14:41:03.485Z</time>
      </trkpt>
      <trkpt lat="45.88075" lon="4.65811">
        <ele>336.899993896</ele>
        <time>2015-12-09T14:41:06.501Z</time>
      </trkpt>
      <trkpt lat="45.88073" lon="4.65813">
        <ele>337.299987793</ele>
        <time>2015-12-09T14:41:07.485Z</time>
      </trkpt>
      <trkpt lat="45.88065" lon="4.65819">
        <ele>338.399993896</ele>
        <time>2015-12-09T14:41:10.503Z</time>
      </trkpt>
      <trkpt lat="45.88062" lon="4.6582">
        <ele>338.600006104</ele>
        <time>2015-12-09T14:41:11.487Z</time>
      </trkpt>
      <trkpt lat="45.88054" lon="4.65825">
        <ele>338.5</ele>
        <time>2015-12-09T14:41:14.5Z</time>
      </trkpt>
      <trkpt lat="45.88051" lon="4.65828">
        <ele>338.200012207</ele>
        <time>2015-12-09T14:41:15.485Z</time>
      </trkpt>
      <trkpt lat="45.88045" lon="4.65832">
        <ele>338.200012207</ele>
        <time>2015-12-09T14:41:17.5Z</time>
      </trkpt>
      <trkpt lat="45.88042" lon="4.65834">
        <ele>338.299987793</ele>
        <time>2015-12-09T14:41:18.488Z</time>
      </trkpt>
      <trkpt lat="45.88035" lon="4.65839">
        <ele>338.899993896</ele>
        <time>2015-12-09T14:41:20.5Z</time>
      </trkpt>
      <trkpt lat="45.88033" lon="4.65842">
        <ele>339.299987793</ele>
        <time>2015-12-09T14:41:21.487Z</time>
      </trkpt>
      <trkpt lat="45.88024" lon="4.65847">
        <ele>339.5</ele>
        <time>2015-12-09T14:41:23.503Z</time>
      </trkpt>
      <trkpt lat="45.88021" lon="4.65848">
        <ele>339.5</ele>
        <time>2015-12-09T14:41:24.487Z</time>
      </trkpt>
      <trkpt lat="45.88014" lon="4.65853">
        <ele>339.600006104</ele>
        <time>2015-12-09T14:41:26.5Z</time>
      </trkpt>
      <trkpt lat="45.88012" lon="4.65856">
        <ele>340.100006104</ele>
        <time>2015-12-09T14:41:27.486Z</time>
      </trkpt>
      <trkpt lat="45.88004" lon="4.65863">
        <ele>340.100006104</ele>
        <time>2015-12-09T14:41:30.501Z</time>
      </trkpt>
      <trkpt lat="45.88001" lon="4.65866">
        <ele>340.100006104</ele>
        <time>2015-12-09T14:41:31.486Z</time>
      </trkpt>
      <trkpt lat="45.87995" lon="4.65873">
        <ele>339.399993896</ele>
        <time>2015-12-09T14:41:33.5Z</time>
      </trkpt>
      <trkpt lat="45.87991" lon="4.65875">
        <ele>338.700012207</ele>
        <time>2015-12-09T14:41:34.489Z</time>
      </trkpt>
      <trkpt lat="45.87985" lon="4.65881">
        <ele>338.5</ele>
        <time>2015-12-09T14:41:36.5Z</time>
      </trkpt>
      <trkpt lat="45.87982" lon="4.65885">
        <ele>338.299987793</ele>
        <time>2015-12-09T14:41:37.485Z</time>
      </trkpt>
      <trkpt lat="45.87976" lon="4.65891">
        <ele>337.899993896</ele>
        <time>2015-12-09T14:41:39.5Z</time>
      </trkpt>
      <trkpt lat="45.87973" lon="4.65894">
        <ele>337.600006104</ele>
        <time>2015-12-09T14:41:40.488Z</time>
      </trkpt>
      <trkpt lat="45.87968" lon="4.659">
        <ele>336.700012207</ele>
        <time>2015-12-09T14:41:42.5Z</time>
      </trkpt>
      <trkpt lat="45.87965" lon="4.65903">
        <ele>336.399993896</ele>
        <time>2015-12-09T14:41:43.486Z</time>
      </trkpt>
      <trkpt lat="45.8796" lon="4.6591">
        <ele>336</ele>
        <time>2015-12-09T14:41:45.499Z</time>
      </trkpt>
      <trkpt lat="45.87957" lon="4.65913">
        <ele>336</ele>
        <time>2015-12-09T14:41:46.488Z</time>
      </trkpt>
      <trkpt lat="45.87952" lon="4.6592">
        <ele>336</ele>
        <time>2015-12-09T14:41:48.516Z</time>
      </trkpt>
      <trkpt lat="45.8795" lon="4.65924">
        <ele>336.100006104</ele>
        <time>2015-12-09T14:41:49.486Z</time>
      </trkpt>
      <trkpt lat="45.87946" lon="4.65933">
        <ele>336</ele>
        <time>2015-12-09T14:41:51.5Z</time>
      </trkpt>
      <trkpt lat="45.87945" lon="4.65937">
        <ele>336</ele>
        <time>2015-12-09T14:41:52.488Z</time>
      </trkpt>
      <trkpt lat="45.87942" lon="4.65945">
        <ele>335.5</ele>
        <time>2015-12-09T14:41:54.501Z</time>
      </trkpt>
      <trkpt lat="45.8794" lon="4.65948">
        <ele>334.899993896</ele>
        <time>2015-12-09T14:41:55.486Z</time>
      </trkpt>
      <trkpt lat="45.87937" lon="4.65959">
        <ele>335.100006104</ele>
        <time>2015-12-09T14:41:58.502Z</time>
      </trkpt>
      <trkpt lat="45.87936" lon="4.65963">
        <ele>334.899993896</ele>
        <time>2015-12-09T14:41:59.486Z</time>
      </trkpt>
      <trkpt lat="45.87934" lon="4.65975">
        <ele>335</ele>
        <time>2015-12-09T14:42:02.5Z</time>
      </trkpt>
      <trkpt lat="45.87933" lon="4.65979">
        <ele>335.200012207</ele>
        <time>2015-12-09T14:42:03.486Z</time>
      </trkpt>
      <trkpt lat="45.87931" lon="4.65989">
        <ele>335.899993896</ele>
        <time>2015-12-09T14:42:06.502Z</time>
      </trkpt>
      <trkpt lat="45.8793" lon="4.65993">
        <ele>336</ele>
        <time>2015-12-09T14:42:07.488Z</time>
      </trkpt>
      <trkpt lat="45.87929" lon="4.66002">
        <ele>337.100006104</ele>
        <time>2015-12-09T14:42:10.517Z</time>
      </trkpt>
      <trkpt lat="45.87928" lon="4.66006">
        <ele>337.299987793</ele>
        <time>2015-12-09T14:42:11.487Z</time>
      </trkpt>
      <trkpt lat="45.87927" lon="4.66018">
        <ele>337.100006104</ele>
        <time>2015-12-09T14:42:14.499Z</time>
      </trkpt>
      <trkpt lat="45.87927" lon="4.66022">
        <ele>337.799987793</ele>
        <time>2015-12-09T14:42:15.486Z</time>
      </trkpt>
      <trkpt lat="45.87927" lon="4.66033">
        <ele>338.899993896</ele>
        <time>2015-12-09T14:42:18.501Z</time>
      </trkpt>
      <trkpt lat="45.87927" lon="4.66037">
        <ele>339.5</ele>
        <time>2015-12-09T14:42:19.486Z</time>
      </trkpt>
      <trkpt lat="45.87926" lon="4.66049">
        <ele>340.799987793</ele>
        <time>2015-12-09T14:42:22.509Z</time>
      </trkpt>
      <trkpt lat="45.87926" lon="4.66054">
        <ele>340.799987793</ele>
        <time>2015-12-09T14:42:23.485Z</time>
      </trkpt>
      <trkpt lat="45.87926" lon="4.66064">
        <ele>340.899993896</ele>
        <time>2015-12-09T14:42:25.5Z</time>
      </trkpt>
      <trkpt lat="45.87926" lon="4.66068">
        <ele>341.399993896</ele>
        <time>2015-12-09T14:42:26.485Z</time>
      </trkpt>
      <trkpt lat="45.87926" lon="4.6608">
        <ele>342</ele>
        <time>2015-12-09T14:42:29.499Z</time>
      </trkpt>
      <trkpt lat="45.87926" lon="4.66084">
        <ele>341.899993896</ele>
        <time>2015-12-09T14:42:30.486Z</time>
      </trkpt>
      <trkpt lat="45.87927" lon="4.66096">
        <ele>342.399993896</ele>
        <time>2015-12-09T14:42:33.499Z</time>
      </trkpt>
      <trkpt lat="45.87927" lon="4.661">
        <ele>342.700012207</ele>
        <time>2015-12-09T14:42:34.489Z</time>
      </trkpt>
      <trkpt lat="45.87927" lon="4.66111">
        <ele>344</ele>
        <time>2015-12-09T14:42:37.516Z</time>
      </trkpt>
      <trkpt lat="45.87927" lon="4.66115">
        <ele>344</ele>
        <time>2015-12-09T14:42:38.485Z</time>
      </trkpt>
      <trkpt lat="45.87925" lon="4.66124">
        <ele>343.700012207</ele>
        <time>2015-12-09T14:42:41.5Z</time>
      </trkpt>
      <trkpt lat="45.87925" lon="4.66128">
        <ele>343.799987793</ele>
        <time>2015-12-09T14:42:42.486Z</time>
      </trkpt>
      <trkpt lat="45.87928" lon="4.66139">
        <ele>343.5</ele>
        <time>2015-12-09T14:42:46.502Z</time>
      </trkpt>
      <trkpt lat="45.87931" lon="4.66139">
        <ele>343.299987793</ele>
        <time>2015-12-09T14:42:47.485Z</time>
      </trkpt>
      <trkpt lat="45.87937" lon="4.6614">
        <ele>343.200012207</ele>
        <time>2015-12-09T14:42:49.505Z</time>
      </trkpt>
      <trkpt lat="45.8794" lon="4.66141">
        <ele>343.299987793</ele>
        <time>2015-12-09T14:42:50.485Z</time>
      </trkpt>
      <trkpt lat="45.87947" lon="4.66142">
        <ele>343.700012207</ele>
        <time>2015-12-09T14:42:52.503Z</time>
      </trkpt>
      <trkpt lat="45.8795" lon="4.66142">
        <ele>344.100006104</ele>
        <time>2015-12-09T14:42:53.485Z</time>
      </trkpt>
      <trkpt lat="45.87957" lon="4.66142">
        <ele>344.899993896</ele>
        <time>2015-12-09T14:42:55.499Z</time>
      </trkpt>
      <trkpt lat="45.87961" lon="4.66142">
        <ele>345.100006104</ele>
        <time>2015-12-09T14:42:56.485Z</time>
      </trkpt>
      <trkpt lat="45.87968" lon="4.66142">
        <ele>345</ele>
        <time>2015-12-09T14:42:58.502Z</time>
      </trkpt>
      <trkpt lat="45.87972" lon="4.66142">
        <ele>344.899993896</ele>
        <time>2015-12-09T14:42:59.485Z</time>
      </trkpt>
      <trkpt lat="45.87979" lon="4.66143">
        <ele>344.799987793</ele>
        <time>2015-12-09T14:43:01.499Z</time>
      </trkpt>
      <trkpt lat="45.87983" lon="4.66143">
        <ele>344.600006104</ele>
        <time>2015-12-09T14:43:02.485Z</time>
      </trkpt>
      <trkpt lat="45.8799" lon="4.66142">
        <ele>345</ele>
        <time>2015-12-09T14:43:04.515Z</time>
      </trkpt>
      <trkpt lat="45.87994" lon="4.66142">
        <ele>345.200012207</ele>
        <time>2015-12-09T14:43:05.485Z</time>
      </trkpt>
      <trkpt lat="45.88003" lon="4.66141">
        <ele>345.100006104</ele>
        <time>2015-12-09T14:43:07.501Z</time>
      </trkpt>
      <trkpt lat="45.88007" lon="4.66141">
        <ele>344.899993896</ele>
        <time>2015-12-09T14:43:08.485Z</time>
      </trkpt>
      <trkpt lat="45.88012" lon="4.66141">
        <ele>345.100006104</ele>
        <time>2015-12-09T14:43:09.513Z</time>
      </trkpt>
      <trkpt lat="45.88016" lon="4.66141">
        <ele>345.200012207</ele>
        <time>2015-12-09T14:43:10.488Z</time>
      </trkpt>
      <trkpt lat="45.88025" lon="4.6614">
        <ele>345.200012207</ele>
        <time>2015-12-09T14:43:12.529Z</time>
      </trkpt>
      <trkpt lat="45.88029" lon="4.66139">
        <ele>345.5</ele>
        <time>2015-12-09T14:43:13.485Z</time>
      </trkpt>
      <trkpt lat="45.88034" lon="4.66139">
        <ele>345.600006104</ele>
        <time>2015-12-09T14:43:14.5Z</time>
      </trkpt>
      <trkpt lat="45.88038" lon="4.66139">
        <ele>345.899993896</ele>
        <time>2015-12-09T14:43:15.485Z</time>
      </trkpt>
      <trkpt lat="45.88043" lon="4.66139">
        <ele>346.5</ele>
        <time>2015-12-09T14:43:16.502Z</time>
      </trkpt>
      <trkpt lat="45.88047" lon="4.66139">
        <ele>347</ele>
        <time>2015-12-09T14:43:17.489Z</time>
      </trkpt>
      <trkpt lat="45.88052" lon="4.6614">
        <ele>346.799987793</ele>
        <time>2015-12-09T14:43:18.502Z</time>
      </trkpt>
      <trkpt lat="45.88057" lon="4.66139">
        <ele>346.700012207</ele>
        <time>2015-12-09T14:43:19.485Z</time>
      </trkpt>
      <trkpt lat="45.88062" lon="4.66138">
        <ele>346.700012207</ele>
        <time>2015-12-09T14:43:20.499Z</time>
      </trkpt>
      <trkpt lat="45.88066" lon="4.66137">
        <ele>346.399993896</ele>
        <time>2015-12-09T14:43:21.485Z</time>
      </trkpt>
      <trkpt lat="45.88075" lon="4.66137">
        <ele>346.700012207</ele>
        <time>2015-12-09T14:43:23.499Z</time>
      </trkpt>
      <trkpt lat="45.8808" lon="4.66137">
        <ele>346.899993896</ele>
        <time>2015-12-09T14:43:24.486Z</time>
      </trkpt>
      <trkpt lat="45.88084" lon="4.66138">
        <ele>347</ele>
        <time>2015-12-09T14:43:25.513Z</time>
      </trkpt>
      <trkpt lat="45.88089" lon="4.66138">
        <ele>347.100006104</ele>
        <time>2015-12-09T14:43:26.485Z</time>
      </trkpt>
      <trkpt lat="45.88098" lon="4.66138">
        <ele>347.100006104</ele>
        <time>2015-12-09T14:43:28.502Z</time>
      </trkpt>
      <trkpt lat="45.88102" lon="4.66137">
        <ele>347.200012207</ele>
        <time>2015-12-09T14:43:29.485Z</time>
      </trkpt>
      <trkpt lat="45.88107" lon="4.66136">
        <ele>346.899993896</ele>
        <time>2015-12-09T14:43:30.639Z</time>
      </trkpt>
      <trkpt lat="45.88112" lon="4.66136">
        <ele>346.899993896</ele>
        <time>2015-12-09T14:43:31.485Z</time>
      </trkpt>
      <trkpt lat="45.88117" lon="4.66135">
        <ele>346.5</ele>
        <time>2015-12-09T14:43:32.499Z</time>
      </trkpt>
      <trkpt lat="45.88122" lon="4.66135">
        <ele>346.700012207</ele>
        <time>2015-12-09T14:43:33.485Z</time>
      </trkpt>
      <trkpt lat="45.88127" lon="4.66135">
        <ele>346.399993896</ele>
        <time>2015-12-09T14:43:34.508Z</time>
      </trkpt>
      <trkpt lat="45.88132" lon="4.66135">
        <ele>345.700012207</ele>
        <time>2015-12-09T14:43:35.485Z</time>
      </trkpt>
      <trkpt lat="45.88138" lon="4.66134">
        <ele>345.799987793</ele>
        <time>2015-12-09T14:43:36.5Z</time>
      </trkpt>
      <trkpt lat="45.88142" lon="4.66133">
        <ele>346.200012207</ele>
        <time>2015-12-09T14:43:37.487Z</time>
      </trkpt>
      <trkpt lat="45.88147" lon="4.66133">
        <ele>346.100006104</ele>
        <time>2015-12-09T14:43:38.529Z</time>
      </trkpt>
      <trkpt lat="45.88152" lon="4.66133">
        <ele>346.399993896</ele>
        <time>2015-12-09T14:43:39.485Z</time>
      </trkpt>
      <trkpt lat="45.88157" lon="4.66133">
        <ele>346.899993896</ele>
        <time>2015-12-09T14:43:40.502Z</time>
      </trkpt>
      <trkpt lat="45.88161" lon="4.66133">
        <ele>346.700012207</ele>
        <time>2015-12-09T14:43:41.485Z</time>
      </trkpt>
      <trkpt lat="45.88166" lon="4.66133">
        <ele>346.799987793</ele>
        <time>2015-12-09T14:43:42.501Z</time>
      </trkpt>
      <trkpt lat="45.8817" lon="4.66132">
        <ele>347.100006104</ele>
        <time>2015-12-09T14:43:43.488Z</time>
      </trkpt>
      <trkpt lat="45.88175" lon="4.66132">
        <ele>346.899993896</ele>
        <time>2015-12-09T14:43:44.539Z</time>
      </trkpt>
      <trkpt lat="45.88179" lon="4.66132">
        <ele>347.100006104</ele>
        <time>2015-12-09T14:43:45.485Z</time>
      </trkpt>
      <trkpt lat="45.88184" lon="4.66132">
        <ele>347.100006104</ele>
        <time>2015-12-09T14:43:46.502Z</time>
      </trkpt>
      <trkpt lat="45.88188" lon="4.66132">
        <ele>347</ele>
        <time>2015-12-09T14:43:47.486Z</time>
      </trkpt>
      <trkpt lat="45.88197" lon="4.66133">
        <ele>346.899993896</ele>
        <time>2015-12-09T14:43:49.499Z</time>
      </trkpt>
      <trkpt lat="45.88201" lon="4.66133">
        <ele>347.299987793</ele>
        <time>2015-12-09T14:43:50.485Z</time>
      </trkpt>
      <trkpt lat="45.88209" lon="4.66133">
        <ele>348</ele>
        <time>2015-12-09T14:43:52.516Z</time>
      </trkpt>
      <trkpt lat="45.88212" lon="4.66134">
        <ele>348.100006104</ele>
        <time>2015-12-09T14:43:53.485Z</time>
      </trkpt>
      <trkpt lat="45.8822" lon="4.66136">
        <ele>347.600006104</ele>
        <time>2015-12-09T14:43:55.499Z</time>
      </trkpt>
      <trkpt lat="45.88224" lon="4.66136">
        <ele>347</ele>
        <time>2015-12-09T14:43:56.485Z</time>
      </trkpt>
      <trkpt lat="45.88232" lon="4.66136">
        <ele>347</ele>
        <time>2015-12-09T14:43:58.502Z</time>
      </trkpt>
      <trkpt lat="45.88235" lon="4.66136">
        <ele>347</ele>
        <time>2015-12-09T14:43:59.485Z</time>
      </trkpt>
      <trkpt lat="45.88243" lon="4.66137">
        <ele>347.100006104</ele>
        <time>2015-12-09T14:44:01.499Z</time>
      </trkpt>
      <trkpt lat="45.88246" lon="4.66138">
        <ele>347.100006104</ele>
        <time>2015-12-09T14:44:02.485Z</time>
      </trkpt>
      <trkpt lat="45.88253" lon="4.66138">
        <ele>346.600006104</ele>
        <time>2015-12-09T14:44:04.502Z</time>
      </trkpt>
      <trkpt lat="45.88257" lon="4.66138">
        <ele>346.899993896</ele>
        <time>2015-12-09T14:44:05.485Z</time>
      </trkpt>
      <trkpt lat="45.88264" lon="4.66139">
        <ele>347.100006104</ele>
        <time>2015-12-09T14:44:07.5Z</time>
      </trkpt>
      <trkpt lat="45.88268" lon="4.66139">
        <ele>347.200012207</ele>
        <time>2015-12-09T14:44:08.485Z</time>
      </trkpt>
      <trkpt lat="45.88275" lon="4.66139">
        <ele>347.700012207</ele>
        <time>2015-12-09T14:44:10.503Z</time>
      </trkpt>
      <trkpt lat="45.88279" lon="4.6614">
        <ele>348.100006104</ele>
        <time>2015-12-09T14:44:11.487Z</time>
      </trkpt>
      <trkpt lat="45.88285" lon="4.6614">
        <ele>348.399993896</ele>
        <time>2015-12-09T14:44:13.514Z</time>
      </trkpt>
      <trkpt lat="45.88289" lon="4.6614">
        <ele>348.5</ele>
        <time>2015-12-09T14:44:14.485Z</time>
      </trkpt>
      <trkpt lat="45.88295" lon="4.6614">
        <ele>349.299987793</ele>
        <time>2015-12-09T14:44:16.502Z</time>
      </trkpt>
      <trkpt lat="45.88298" lon="4.66141">
        <ele>349.399993896</ele>
        <time>2015-12-09T14:44:17.485Z</time>
      </trkpt>
      <trkpt lat="45.88304" lon="4.66142">
        <ele>349.799987793</ele>
        <time>2015-12-09T14:44:19.499Z</time>
      </trkpt>
      <trkpt lat="45.88308" lon="4.66142">
        <ele>349.799987793</ele>
        <time>2015-12-09T14:44:20.485Z</time>
      </trkpt>
      <trkpt lat="45.88315" lon="4.66142">
        <ele>350.100006104</ele>
        <time>2015-12-09T14:44:22.502Z</time>
      </trkpt>
      <trkpt lat="45.88318" lon="4.66142">
        <ele>350.299987793</ele>
        <time>2015-12-09T14:44:23.485Z</time>
      </trkpt>
      <trkpt lat="45.88324" lon="4.66143">
        <ele>350.399993896</ele>
        <time>2015-12-09T14:44:25.499Z</time>
      </trkpt>
      <trkpt lat="45.88327" lon="4.66144">
        <ele>350.299987793</ele>
        <time>2015-12-09T14:44:26.485Z</time>
      </trkpt>
      <trkpt lat="45.88336" lon="4.66143">
        <ele>350.5</ele>
        <time>2015-12-09T14:44:29.514Z</time>
      </trkpt>
      <trkpt lat="45.88338" lon="4.66142">
        <ele>350.700012207</ele>
        <time>2015-12-09T14:44:30.486Z</time>
      </trkpt>
      <trkpt lat="45.88347" lon="4.66143">
        <ele>351</ele>
        <time>2015-12-09T14:44:33.499Z</time>
      </trkpt>
      <trkpt lat="45.8835" lon="4.66144">
        <ele>351.100006104</ele>
        <time>2015-12-09T14:44:34.488Z</time>
      </trkpt>
      <trkpt lat="45.88358" lon="4.66145">
        <ele>351.799987793</ele>
        <time>2015-12-09T14:44:37.501Z</time>
      </trkpt>
      <trkpt lat="45.88361" lon="4.66145">
        <ele>351.899993896</ele>
        <time>2015-12-09T14:44:38.485Z</time>
      </trkpt>
      <trkpt lat="45.88369" lon="4.66147">
        <ele>353.100006104</ele>
        <time>2015-12-09T14:44:41.499Z</time>
      </trkpt>
      <trkpt lat="45.88371" lon="4.66148">
        <ele>353.799987793</ele>
        <time>2015-12-09T14:44:42.486Z</time>
      </trkpt>
      <trkpt lat="45.88379" lon="4.66149">
        <ele>354.799987793</ele>
        <time>2015-12-09T14:44:45.499Z</time>
      </trkpt>
      <trkpt lat="45.88381" lon="4.66149">
        <ele>355.299987793</ele>
        <time>2015-12-09T14:44:46.488Z</time>
      </trkpt>
      <trkpt lat="45.88388" lon="4.66148">
        <ele>356.200012207</ele>
        <time>2015-12-09T14:44:49.499Z</time>
      </trkpt>
      <trkpt lat="45.88391" lon="4.66148">
        <ele>356.100006104</ele>
        <time>2015-12-09T14:44:50.485Z</time>
      </trkpt>
      <trkpt lat="45.88399" lon="4.66149">
        <ele>357.200012207</ele>
        <time>2015-12-09T14:44:53.499Z</time>
      </trkpt>
      <trkpt lat="45.88401" lon="4.66148">
        <ele>357.700012207</ele>
        <time>2015-12-09T14:44:54.486Z</time>
      </trkpt>
      <trkpt lat="45.88409" lon="4.66148">
        <ele>358.200012207</ele>
        <time>2015-12-09T14:44:57.501Z</time>
      </trkpt>
      <trkpt lat="45.88411" lon="4.66148">
        <ele>358.600006104</ele>
        <time>2015-12-09T14:44:58.488Z</time>
      </trkpt>
      <trkpt lat="45.88419" lon="4.66148">
        <ele>359.5</ele>
        <time>2015-12-09T14:45:02.513Z</time>
      </trkpt>
      <trkpt lat="45.88421" lon="4.66149">
        <ele>359.299987793</ele>
        <time>2015-12-09T14:45:03.485Z</time>
      </trkpt>
      <trkpt lat="45.8843" lon="4.66149">
        <ele>360</ele>
        <time>2015-12-09T14:45:07.501Z</time>
      </trkpt>
      <trkpt lat="45.88432" lon="4.66149">
        <ele>360.299987793</ele>
        <time>2015-12-09T14:45:08.485Z</time>
      </trkpt>
      <trkpt lat="45.8844" lon="4.6615">
        <ele>360.5</ele>
        <time>2015-12-09T14:45:12.5Z</time>
      </trkpt>
      <trkpt lat="45.88442" lon="4.6615">
        <ele>360.799987793</ele>
        <time>2015-12-09T14:45:13.485Z</time>
      </trkpt>
      <trkpt lat="45.8845" lon="4.66149">
        <ele>362.700012207</ele>
        <time>2015-12-09T14:45:17.501Z</time>
      </trkpt>
      <trkpt lat="45.88452" lon="4.66149">
        <ele>362.899993896</ele>
        <time>2015-12-09T14:45:18.5Z</time>
      </trkpt>
      <trkpt lat="45.8846" lon="4.66148">
        <ele>363.899993896</ele>
        <time>2015-12-09T14:45:22.502Z</time>
      </trkpt>
      <trkpt lat="45.88462" lon="4.66149">
        <ele>363.899993896</ele>
        <time>2015-12-09T14:45:23.485Z</time>
      </trkpt>
      <trkpt lat="45.8847" lon="4.6615">
        <ele>365.100006104</ele>
        <time>2015-12-09T14:45:27.501Z</time>
      </trkpt>
      <trkpt lat="45.88473" lon="4.66151">
        <ele>365.200012207</ele>
        <time>2015-12-09T14:45:28.488Z</time>
      </trkpt>
      <trkpt lat="45.88479" lon="4.66158">
        <ele>363.899993896</ele>
        <time>2015-12-09T14:45:31.499Z</time>
      </trkpt>
      <trkpt lat="45.88481" lon="4.6616">
        <ele>364</ele>
        <time>2015-12-09T14:45:32.485Z</time>
      </trkpt>
      <trkpt lat="45.88489" lon="4.66165">
        <ele>364.899993896</ele>
        <time>2015-12-09T14:45:36.5Z</time>
      </trkpt>
      <trkpt lat="45.88491" lon="4.66165">
        <ele>366</ele>
        <time>2015-12-09T14:45:37.485Z</time>
      </trkpt>
      <trkpt lat="45.88498" lon="4.66171">
        <ele>368.5</ele>
        <time>2015-12-09T14:45:41.499Z</time>
      </trkpt>
      <trkpt lat="45.88499" lon="4.66174">
        <ele>369</ele>
        <time>2015-12-09T14:45:42.486Z</time>
      </trkpt>
      <trkpt lat="45.88506" lon="4.6618">
        <ele>369.799987793</ele>
        <time>2015-12-09T14:45:46.501Z</time>
      </trkpt>
      <trkpt lat="45.88508" lon="4.66181">
        <ele>370</ele>
        <time>2015-12-09T14:45:47.485Z</time>
      </trkpt>
      <trkpt lat="45.88515" lon="4.66188">
        <ele>370.700012207</ele>
        <time>2015-12-09T14:45:51.498Z</time>
      </trkpt>
      <trkpt lat="45.88517" lon="4.66189">
        <ele>370.799987793</ele>
        <time>2015-12-09T14:45:52.488Z</time>
      </trkpt>
      <trkpt lat="45.88523" lon="4.66198">
        <ele>371.399993896</ele>
        <time>2015-12-09T14:45:56.499Z</time>
      </trkpt>
      <trkpt lat="45.88525" lon="4.66199">
        <ele>371.299987793</ele>
        <time>2015-12-09T14:45:57.486Z</time>
      </trkpt>
      <trkpt lat="45.88532" lon="4.66206">
        <ele>373.299987793</ele>
        <time>2015-12-09T14:46:01.513Z</time>
      </trkpt>
      <trkpt lat="45.88534" lon="4.66208">
        <ele>373.700012207</ele>
        <time>2015-12-09T14:46:02.485Z</time>
      </trkpt>
      <trkpt lat="45.8854" lon="4.66213">
        <ele>374.899993896</ele>
        <time>2015-12-09T14:46:05.5Z</time>
      </trkpt>
      <trkpt lat="45.88542" lon="4.66215">
        <ele>374.799987793</ele>
        <time>2015-12-09T14:46:06.486Z</time>
      </trkpt>
      <trkpt lat="45.88548" lon="4.6622">
        <ele>375.200012207</ele>
        <time>2015-12-09T14:46:09.499Z</time>
      </trkpt>
      <trkpt lat="45.8855" lon="4.66222">
        <ele>375</ele>
        <time>2015-12-09T14:46:10.488Z</time>
      </trkpt>
      <trkpt lat="45.88556" lon="4.66226">
        <ele>374.799987793</ele>
        <time>2015-12-09T14:46:13.499Z</time>
      </trkpt>
      <trkpt lat="45.88558" lon="4.66228">
        <ele>374.899993896</ele>
        <time>2015-12-09T14:46:14.485Z</time>
      </trkpt>
      <trkpt lat="45.88564" lon="4.66234">
        <ele>375.299987793</ele>
        <time>2015-12-09T14:46:17.516Z</time>
      </trkpt>
      <trkpt lat="45.88566" lon="4.66236">
        <ele>375.799987793</ele>
        <time>2015-12-09T14:46:18.486Z</time>
      </trkpt>
      <trkpt lat="45.88571" lon="4.66241">
        <ele>375.799987793</ele>
        <time>2015-12-09T14:46:21.499Z</time>
      </trkpt>
      <trkpt lat="45.88573" lon="4.66243">
        <ele>375.700012207</ele>
        <time>2015-12-09T14:46:22.488Z</time>
      </trkpt>
      <trkpt lat="45.88579" lon="4.6625">
        <ele>376</ele>
        <time>2015-12-09T14:46:25.499Z</time>
      </trkpt>
      <trkpt lat="45.88581" lon="4.66252">
        <ele>375.600006104</ele>
        <time>2015-12-09T14:46:26.485Z</time>
      </trkpt>
      <trkpt lat="45.88586" lon="4.6626">
        <ele>375.299987793</ele>
        <time>2015-12-09T14:46:29.499Z</time>
      </trkpt>
      <trkpt lat="45.88588" lon="4.66263">
        <ele>374.799987793</ele>
        <time>2015-12-09T14:46:30.487Z</time>
      </trkpt>
      <trkpt lat="45.88595" lon="4.66272">
        <ele>373.600006104</ele>
        <time>2015-12-09T14:46:33.498Z</time>
      </trkpt>
      <trkpt lat="45.88597" lon="4.66275">
        <ele>373.5</ele>
        <time>2015-12-09T14:46:34.488Z</time>
      </trkpt>
      <trkpt lat="45.88602" lon="4.66284">
        <ele>373.600006104</ele>
        <time>2015-12-09T14:46:37.501Z</time>
      </trkpt>
      <trkpt lat="45.88604" lon="4.66287">
        <ele>373.200012207</ele>
        <time>2015-12-09T14:46:38.485Z</time>
      </trkpt>
      <trkpt lat="45.88609" lon="4.66297">
        <ele>372.700012207</ele>
        <time>2015-12-09T14:46:41.498Z</time>
      </trkpt>
      <trkpt lat="45.88611" lon="4.663">
        <ele>372.700012207</ele>
        <time>2015-12-09T14:46:42.486Z</time>
      </trkpt>
      <trkpt lat="45.88616" lon="4.66309">
        <ele>372.799987793</ele>
        <time>2015-12-09T14:46:45.499Z</time>
      </trkpt>
      <trkpt lat="45.88618" lon="4.66312">
        <ele>372.799987793</ele>
        <time>2015-12-09T14:46:46.487Z</time>
      </trkpt>
      <trkpt lat="45.88623" lon="4.66321">
        <ele>372.700012207</ele>
        <time>2015-12-09T14:46:49.514Z</time>
      </trkpt>
      <trkpt lat="45.88625" lon="4.66325">
        <ele>372.5</ele>
        <time>2015-12-09T14:46:50.485Z</time>
      </trkpt>
      <trkpt lat="45.8863" lon="4.66334">
        <ele>372.399993896</ele>
        <time>2015-12-09T14:46:53.499Z</time>
      </trkpt>
      <trkpt lat="45.88632" lon="4.66337">
        <ele>372.5</ele>
        <time>2015-12-09T14:46:54.486Z</time>
      </trkpt>
      <trkpt lat="45.88638" lon="4.66346">
        <ele>372.899993896</ele>
        <time>2015-12-09T14:46:57.5Z</time>
      </trkpt>
      <trkpt lat="45.88639" lon="4.6635">
        <ele>372.899993896</ele>
        <time>2015-12-09T14:46:58.487Z</time>
      </trkpt>
      <trkpt lat="45.88645" lon="4.6636">
        <ele>372.700012207</ele>
        <time>2015-12-09T14:47:01.498Z</time>
      </trkpt>
      <trkpt lat="45.88647" lon="4.66363">
        <ele>372.700012207</ele>
        <time>2015-12-09T14:47:02.485Z</time>
      </trkpt>
      <trkpt lat="45.88652" lon="4.66371">
        <ele>373.299987793</ele>
        <time>2015-12-09T14:47:05.498Z</time>
      </trkpt>
      <trkpt lat="45.88654" lon="4.66374">
        <ele>373.600006104</ele>
        <time>2015-12-09T14:47:06.486Z</time>
      </trkpt>
      <trkpt lat="45.88658" lon="4.6638">
        <ele>374</ele>
        <time>2015-12-09T14:47:08.499Z</time>
      </trkpt>
      <trkpt lat="45.88661" lon="4.66383">
        <ele>374.600006104</ele>
        <time>2015-12-09T14:47:09.485Z</time>
      </trkpt>
      <trkpt lat="45.88666" lon="4.66388">
        <ele>374.899993896</ele>
        <time>2015-12-09T14:47:11.502Z</time>
      </trkpt>
      <trkpt lat="45.88669" lon="4.66391">
        <ele>374.799987793</ele>
        <time>2015-12-09T14:47:12.487Z</time>
      </trkpt>
      <trkpt lat="45.88675" lon="4.664">
        <ele>375</ele>
        <time>2015-12-09T14:47:15.499Z</time>
      </trkpt>
      <trkpt lat="45.88678" lon="4.66402">
        <ele>374.799987793</ele>
        <time>2015-12-09T14:47:16.487Z</time>
      </trkpt>
      <trkpt lat="45.88684" lon="4.66405">
        <ele>374.399993896</ele>
        <time>2015-12-09T14:47:18.529Z</time>
      </trkpt>
      <trkpt lat="45.88686" lon="4.66408">
        <ele>374.299987793</ele>
        <time>2015-12-09T14:47:19.485Z</time>
      </trkpt>
      <trkpt lat="45.88692" lon="4.66412">
        <ele>374.600006104</ele>
        <time>2015-12-09T14:47:21.513Z</time>
      </trkpt>
      <trkpt lat="45.88694" lon="4.66415">
        <ele>374.799987793</ele>
        <time>2015-12-09T14:47:22.488Z</time>
      </trkpt>
      <trkpt lat="45.88701" lon="4.66422">
        <ele>374.899993896</ele>
        <time>2015-12-09T14:47:25.498Z</time>
      </trkpt>
      <trkpt lat="45.88703" lon="4.66425">
        <ele>374.899993896</ele>
        <time>2015-12-09T14:47:26.484Z</time>
      </trkpt>
      <trkpt lat="45.8871" lon="4.66431">
        <ele>375.100006104</ele>
        <time>2015-12-09T14:47:29.498Z</time>
      </trkpt>
      <trkpt lat="45.88713" lon="4.66433">
        <ele>375.299987793</ele>
        <time>2015-12-09T14:47:30.486Z</time>
      </trkpt>
      <trkpt lat="45.88719" lon="4.66437">
        <ele>376.200012207</ele>
        <time>2015-12-09T14:47:33.499Z</time>
      </trkpt>
      <trkpt lat="45.88721" lon="4.66439">
        <ele>376.399993896</ele>
        <time>2015-12-09T14:47:34.487Z</time>
      </trkpt>
      <trkpt lat="45.88727" lon="4.66446">
        <ele>376.799987793</ele>
        <time>2015-12-09T14:47:37.518Z</time>
      </trkpt>
      <trkpt lat="45.88729" lon="4.66448">
        <ele>376.799987793</ele>
        <time>2015-12-09T14:47:38.484Z</time>
      </trkpt>
      <trkpt lat="45.88735" lon="4.66455">
        <ele>377.299987793</ele>
        <time>2015-12-09T14:47:41.498Z</time>
      </trkpt>
      <trkpt lat="45.88736" lon="4.66457">
        <ele>377.600006104</ele>
        <time>2015-12-09T14:47:42.486Z</time>
      </trkpt>
      <trkpt lat="45.88743" lon="4.66464">
        <ele>379.200012207</ele>
        <time>2015-12-09T14:47:46.501Z</time>
      </trkpt>
      <trkpt lat="45.88744" lon="4.66466">
        <ele>379.200012207</ele>
        <time>2015-12-09T14:47:47.485Z</time>
      </trkpt>
      <trkpt lat="45.88751" lon="4.66475">
        <ele>379.700012207</ele>
        <time>2015-12-09T14:47:51.498Z</time>
      </trkpt>
      <trkpt lat="45.88752" lon="4.66477">
        <ele>380.100006104</ele>
        <time>2015-12-09T14:47:52.487Z</time>
      </trkpt>
      <trkpt lat="45.88758" lon="4.66485">
        <ele>380.799987793</ele>
        <time>2015-12-09T14:47:56.498Z</time>
      </trkpt>
      <trkpt lat="45.8876" lon="4.66486">
        <ele>381.200012207</ele>
        <time>2015-12-09T14:47:57.486Z</time>
      </trkpt>
      <trkpt lat="45.88767" lon="4.66493">
        <ele>382.600006104</ele>
        <time>2015-12-09T14:48:01.498Z</time>
      </trkpt>
      <trkpt lat="45.88769" lon="4.66495">
        <ele>382.700012207</ele>
        <time>2015-12-09T14:48:02.484Z</time>
      </trkpt>
      <trkpt lat="45.88773" lon="4.66504">
        <ele>382.799987793</ele>
        <time>2015-12-09T14:48:05.498Z</time>
      </trkpt>
      <trkpt lat="45.88774" lon="4.66507">
        <ele>382.799987793</ele>
        <time>2015-12-09T14:48:06.485Z</time>
      </trkpt>
      <trkpt lat="45.88779" lon="4.66515">
        <ele>382.600006104</ele>
        <time>2015-12-09T14:48:09.521Z</time>
      </trkpt>
      <trkpt lat="45.88781" lon="4.66517">
        <ele>382.600006104</ele>
        <time>2015-12-09T14:48:10.487Z</time>
      </trkpt>
      <trkpt lat="45.88787" lon="4.66526">
        <ele>383.299987793</ele>
        <time>2015-12-09T14:48:14.502Z</time>
      </trkpt>
      <trkpt lat="45.88789" lon="4.66528">
        <ele>383.5</ele>
        <time>2015-12-09T14:48:15.485Z</time>
      </trkpt>
      <trkpt lat="45.88796" lon="4.66535">
        <ele>384.200012207</ele>
        <time>2015-12-09T14:48:19.499Z</time>
      </trkpt>
      <trkpt lat="45.88798" lon="4.66537">
        <ele>384.299987793</ele>
        <time>2015-12-09T14:48:20.484Z</time>
      </trkpt>
      <trkpt lat="45.88804" lon="4.66542">
        <ele>385.700012207</ele>
        <time>2015-12-09T14:48:23.498Z</time>
      </trkpt>
      <trkpt lat="45.88806" lon="4.66544">
        <ele>385.799987793</ele>
        <time>2015-12-09T14:48:24.485Z</time>
      </trkpt>
      <trkpt lat="45.88814" lon="4.66548">
        <ele>386</ele>
        <time>2015-12-09T14:48:28.501Z</time>
      </trkpt>
      <trkpt lat="45.88816" lon="4.66549">
        <ele>385.700012207</ele>
        <time>2015-12-09T14:48:29.484Z</time>
      </trkpt>
      <trkpt lat="45.88823" lon="4.66553">
        <ele>386.600006104</ele>
        <time>2015-12-09T14:48:33.498Z</time>
      </trkpt>
      <trkpt lat="45.88825" lon="4.66553">
        <ele>386.600006104</ele>
        <time>2015-12-09T14:48:34.487Z</time>
      </trkpt>
      <trkpt lat="45.88834" lon="4.66557">
        <ele>387.100006104</ele>
        <time>2015-12-09T14:48:39.498Z</time>
      </trkpt>
      <trkpt lat="45.88835" lon="4.66558">
        <ele>387.5</ele>
        <time>2015-12-09T14:48:40.488Z</time>
      </trkpt>
      <trkpt lat="45.88843" lon="4.66563">
        <ele>388.600006104</ele>
        <time>2015-12-09T14:48:44.498Z</time>
      </trkpt>
      <trkpt lat="45.88845" lon="4.66564">
        <ele>388.399993896</ele>
        <time>2015-12-09T14:48:45.484Z</time>
      </trkpt>
      <trkpt lat="45.88851" lon="4.6657">
        <ele>389.899993896</ele>
        <time>2015-12-09T14:48:49.498Z</time>
      </trkpt>
      <trkpt lat="45.88853" lon="4.66572">
        <ele>390</ele>
        <time>2015-12-09T14:48:50.484Z</time>
      </trkpt>
      <trkpt lat="45.8886" lon="4.66577">
        <ele>390.799987793</ele>
        <time>2015-12-09T14:48:54.499Z</time>
      </trkpt>
      <trkpt lat="45.88862" lon="4.66579">
        <ele>391.100006104</ele>
        <time>2015-12-09T14:48:55.484Z</time>
      </trkpt>
      <trkpt lat="45.88868" lon="4.66586">
        <ele>391.399993896</ele>
        <time>2015-12-09T14:48:58.516Z</time>
      </trkpt>
      <trkpt lat="45.88869" lon="4.66588">
        <ele>391.200012207</ele>
        <time>2015-12-09T14:48:59.484Z</time>
      </trkpt>
      <trkpt lat="45.88875" lon="4.66596">
        <ele>391.600006104</ele>
        <time>2015-12-09T14:49:02.497Z</time>
      </trkpt>
      <trkpt lat="45.88876" lon="4.66598">
        <ele>391.600006104</ele>
        <time>2015-12-09T14:49:03.484Z</time>
      </trkpt>
      <trkpt lat="45.88883" lon="4.66606">
        <ele>392.5</ele>
        <time>2015-12-09T14:49:07.513Z</time>
      </trkpt>
      <trkpt lat="45.88885" lon="4.66609">
        <ele>392.799987793</ele>
        <time>2015-12-09T14:49:08.484Z</time>
      </trkpt>
      <trkpt lat="45.8889" lon="4.66619">
        <ele>393.5</ele>
        <time>2015-12-09T14:49:13.498Z</time>
      </trkpt>
      <trkpt lat="45.8889" lon="4.66621">
        <ele>393.600006104</ele>
        <time>2015-12-09T14:49:14.506Z</time>
      </trkpt>
      <trkpt lat="45.88895" lon="4.66629">
        <ele>394.399993896</ele>
        <time>2015-12-09T14:49:18.499Z</time>
      </trkpt>
      <trkpt lat="45.88897" lon="4.66631">
        <ele>395.5</ele>
        <time>2015-12-09T14:49:19.484Z</time>
      </trkpt>
      <trkpt lat="45.88903" lon="4.66637">
        <ele>397.600006104</ele>
        <time>2015-12-09T14:49:22.502Z</time>
      </trkpt>
      <trkpt lat="45.88905" lon="4.66639">
        <ele>398.399993896</ele>
        <time>2015-12-09T14:49:23.484Z</time>
      </trkpt>
      <trkpt lat="45.88911" lon="4.66648">
        <ele>400.100006104</ele>
        <time>2015-12-09T14:49:27.519Z</time>
      </trkpt>
      <trkpt lat="45.88913" lon="4.6665">
        <ele>400.5</ele>
        <time>2015-12-09T14:49:28.487Z</time>
      </trkpt>
      <trkpt lat="45.88918" lon="4.66656">
        <ele>402.299987793</ele>
        <time>2015-12-09T14:49:31.498Z</time>
      </trkpt>
      <trkpt lat="45.8892" lon="4.66658">
        <ele>402.600006104</ele>
        <time>2015-12-09T14:49:32.485Z</time>
      </trkpt>
      <trkpt lat="45.88926" lon="4.66667">
        <ele>403.200012207</ele>
        <time>2015-12-09T14:49:35.498Z</time>
      </trkpt>
      <trkpt lat="45.88928" lon="4.66669">
        <ele>402.899993896</ele>
        <time>2015-12-09T14:49:36.498Z</time>
      </trkpt>
      <trkpt lat="45.88934" lon="4.66674">
        <ele>403.299987793</ele>
        <time>2015-12-09T14:49:39.529Z</time>
      </trkpt>
      <trkpt lat="45.88936" lon="4.66676">
        <ele>403.399993896</ele>
        <time>2015-12-09T14:49:40.487Z</time>
      </trkpt>
      <trkpt lat="45.88943" lon="4.66682">
        <ele>403.899993896</ele>
        <time>2015-12-09T14:49:43.498Z</time>
      </trkpt>
      <trkpt lat="45.88945" lon="4.66684">
        <ele>404.200012207</ele>
        <time>2015-12-09T14:49:44.485Z</time>
      </trkpt>
      <trkpt lat="45.88951" lon="4.66688">
        <ele>404.399993896</ele>
        <time>2015-12-09T14:49:47.519Z</time>
      </trkpt>
      <trkpt lat="45.88954" lon="4.66689">
        <ele>404.5</ele>
        <time>2015-12-09T14:49:48.485Z</time>
      </trkpt>
      <trkpt lat="45.88961" lon="4.66694">
        <ele>405</ele>
        <time>2015-12-09T14:49:51.498Z</time>
      </trkpt>
      <trkpt lat="45.88964" lon="4.66696">
        <ele>405</ele>
        <time>2015-12-09T14:49:52.487Z</time>
      </trkpt>
      <trkpt lat="45.88971" lon="4.66701">
        <ele>405.799987793</ele>
        <time>2015-12-09T14:49:55.499Z</time>
      </trkpt>
      <trkpt lat="45.88974" lon="4.66702">
        <ele>406.100006104</ele>
        <time>2015-12-09T14:49:56.485Z</time>
      </trkpt>
      <trkpt lat="45.88982" lon="4.66705">
        <ele>405.700012207</ele>
        <time>2015-12-09T14:49:59.499Z</time>
      </trkpt>
      <trkpt lat="45.88985" lon="4.66707">
        <ele>405.899993896</ele>
        <time>2015-12-09T14:50:00.486Z</time>
      </trkpt>
      <trkpt lat="45.88991" lon="4.66709">
        <ele>406</ele>
        <time>2015-12-09T14:50:02.499Z</time>
      </trkpt>
      <trkpt lat="45.88994" lon="4.6671">
        <ele>406.100006104</ele>
        <time>2015-12-09T14:50:03.485Z</time>
      </trkpt>
      <trkpt lat="45.89" lon="4.66711">
        <ele>406.200012207</ele>
        <time>2015-12-09T14:50:05.64Z</time>
      </trkpt>
      <trkpt lat="45.89003" lon="4.66712">
        <ele>406.200012207</ele>
        <time>2015-12-09T14:50:06.486Z</time>
      </trkpt>
      <trkpt lat="45.89012" lon="4.66715">
        <ele>406.799987793</ele>
        <time>2015-12-09T14:50:09.499Z</time>
      </trkpt>
      <trkpt lat="45.89015" lon="4.66717">
        <ele>407</ele>
        <time>2015-12-09T14:50:10.487Z</time>
      </trkpt>
      <trkpt lat="45.89023" lon="4.66722">
        <ele>407.700012207</ele>
        <time>2015-12-09T14:50:13.499Z</time>
      </trkpt>
      <trkpt lat="45.89026" lon="4.66724">
        <ele>408</ele>
        <time>2015-12-09T14:50:14.499Z</time>
      </trkpt>
      <trkpt lat="45.89031" lon="4.66727">
        <ele>408.399993896</ele>
        <time>2015-12-09T14:50:16.503Z</time>
      </trkpt>
      <trkpt lat="45.89034" lon="4.66729">
        <ele>408.600006104</ele>
        <time>2015-12-09T14:50:17.489Z</time>
      </trkpt>
      <trkpt lat="45.8904" lon="4.66733">
        <ele>408.799987793</ele>
        <time>2015-12-09T14:50:19.499Z</time>
      </trkpt>
      <trkpt lat="45.89044" lon="4.66735">
        <ele>408.700012207</ele>
        <time>2015-12-09T14:50:20.485Z</time>
      </trkpt>
      <trkpt lat="45.8905" lon="4.6674">
        <ele>409</ele>
        <time>2015-12-09T14:50:22.502Z</time>
      </trkpt>
      <trkpt lat="45.89053" lon="4.66743">
        <ele>409.299987793</ele>
        <time>2015-12-09T14:50:23.484Z</time>
      </trkpt>
      <trkpt lat="45.89058" lon="4.66749">
        <ele>409.600006104</ele>
        <time>2015-12-09T14:50:25.513Z</time>
      </trkpt>
      <trkpt lat="45.89061" lon="4.6675">
        <ele>409.600006104</ele>
        <time>2015-12-09T14:50:26.485Z</time>
      </trkpt>
      <trkpt lat="45.89066" lon="4.66756">
        <ele>409.5</ele>
        <time>2015-12-09T14:50:28.501Z</time>
      </trkpt>
      <trkpt lat="45.89069" lon="4.66759">
        <ele>409.700012207</ele>
        <time>2015-12-09T14:50:29.485Z</time>
      </trkpt>
      <trkpt lat="45.89074" lon="4.66766">
        <ele>410.200012207</ele>
        <time>2015-12-09T14:50:31.499Z</time>
      </trkpt>
      <trkpt lat="45.89076" lon="4.66768">
        <ele>410.399993896</ele>
        <time>2015-12-09T14:50:32.485Z</time>
      </trkpt>
      <trkpt lat="45.89082" lon="4.66772">
        <ele>410.899993896</ele>
        <time>2015-12-09T14:50:34.637Z</time>
      </trkpt>
      <trkpt lat="45.89085" lon="4.66774">
        <ele>411.200012207</ele>
        <time>2015-12-09T14:50:35.485Z</time>
      </trkpt>
      <trkpt lat="45.89091" lon="4.6678">
        <ele>410.899993896</ele>
        <time>2015-12-09T14:50:37.516Z</time>
      </trkpt>
      <trkpt lat="45.89094" lon="4.66783">
        <ele>411.100006104</ele>
        <time>2015-12-09T14:50:38.485Z</time>
      </trkpt>
      <trkpt lat="45.89098" lon="4.66792">
        <ele>411.5</ele>
        <time>2015-12-09T14:50:40.501Z</time>
      </trkpt>
      <trkpt lat="45.89101" lon="4.66796">
        <ele>411.700012207</ele>
        <time>2015-12-09T14:50:41.485Z</time>
      </trkpt>
      <trkpt lat="45.89107" lon="4.66804">
        <ele>412.100006104</ele>
        <time>2015-12-09T14:50:44.132Z</time>
      </trkpt>
      <trkpt lat="45.8911" lon="4.66807">
        <ele>412.200012207</ele>
        <time>2015-12-09T14:50:44.532Z</time>
      </trkpt>
      <trkpt lat="45.89116" lon="4.66812">
        <ele>412.100006104</ele>
        <time>2015-12-09T14:50:46.516Z</time>
      </trkpt>
      <trkpt lat="45.89119" lon="4.66813">
        <ele>412.299987793</ele>
        <time>2015-12-09T14:50:47.485Z</time>
      </trkpt>
      <trkpt lat="45.89127" lon="4.66815">
        <ele>412.200012207</ele>
        <time>2015-12-09T14:50:49.499Z</time>
      </trkpt>
      <trkpt lat="45.8913" lon="4.66816">
        <ele>412.200012207</ele>
        <time>2015-12-09T14:50:50.487Z</time>
      </trkpt>
      <trkpt lat="45.89138" lon="4.66819">
        <ele>412.399993896</ele>
        <time>2015-12-09T14:50:52.501Z</time>
      </trkpt>
      <trkpt lat="45.89142" lon="4.66821">
        <ele>412.200012207</ele>
        <time>2015-12-09T14:50:53.577Z</time>
      </trkpt>
      <trkpt lat="45.89149" lon="4.66826">
        <ele>411.899993896</ele>
        <time>2015-12-09T14:50:55.503Z</time>
      </trkpt>
      <trkpt lat="45.89153" lon="4.66831">
        <ele>411.5</ele>
        <time>2015-12-09T14:50:56.489Z</time>
      </trkpt>
      <trkpt lat="45.89157" lon="4.66841">
        <ele>410.899993896</ele>
        <time>2015-12-09T14:50:58.503Z</time>
      </trkpt>
      <trkpt lat="45.89158" lon="4.66845">
        <ele>410.299987793</ele>
        <time>2015-12-09T14:50:59.485Z</time>
      </trkpt>
      <trkpt lat="45.89159" lon="4.66854">
        <ele>409.600006104</ele>
        <time>2015-12-09T14:51:01.5Z</time>
      </trkpt>
      <trkpt lat="45.89159" lon="4.6686">
        <ele>409.5</ele>
        <time>2015-12-09T14:51:02.485Z</time>
      </trkpt>
      <trkpt lat="45.89158" lon="4.66872">
        <ele>409.200012207</ele>
        <time>2015-12-09T14:51:04.501Z</time>
      </trkpt>
      <trkpt lat="45.89157" lon="4.66878">
        <ele>408.799987793</ele>
        <time>2015-12-09T14:51:05.485Z</time>
      </trkpt>
      <trkpt lat="45.89157" lon="4.66885">
        <ele>408.600006104</ele>
        <time>2015-12-09T14:51:06.5Z</time>
      </trkpt>
      <trkpt lat="45.89158" lon="4.66892">
        <ele>408.799987793</ele>
        <time>2015-12-09T14:51:07.547Z</time>
      </trkpt>
      <trkpt lat="45.89159" lon="4.66899">
        <ele>408.799987793</ele>
        <time>2015-12-09T14:51:08.514Z</time>
      </trkpt>
      <trkpt lat="45.8916" lon="4.66906">
        <ele>408.5</ele>
        <time>2015-12-09T14:51:09.485Z</time>
      </trkpt>
      <trkpt lat="45.89162" lon="4.66914">
        <ele>408.600006104</ele>
        <time>2015-12-09T14:51:10.502Z</time>
      </trkpt>
      <trkpt lat="45.89163" lon="4.6692">
        <ele>408.700012207</ele>
        <time>2015-12-09T14:51:11.488Z</time>
      </trkpt>
      <trkpt lat="45.89165" lon="4.66926">
        <ele>408.600006104</ele>
        <time>2015-12-09T14:51:12.501Z</time>
      </trkpt>
      <trkpt lat="45.89167" lon="4.66932">
        <ele>408.899993896</ele>
        <time>2015-12-09T14:51:13.485Z</time>
      </trkpt>
      <trkpt lat="45.89169" lon="4.66939">
        <ele>409.100006104</ele>
        <time>2015-12-09T14:51:14.499Z</time>
      </trkpt>
      <trkpt lat="45.89171" lon="4.66945">
        <ele>409.100006104</ele>
        <time>2015-12-09T14:51:15.485Z</time>
      </trkpt>
      <trkpt lat="45.89174" lon="4.66951">
        <ele>409.200012207</ele>
        <time>2015-12-09T14:51:16.502Z</time>
      </trkpt>
      <trkpt lat="45.89176" lon="4.66957">
        <ele>409.299987793</ele>
        <time>2015-12-09T14:51:17.485Z</time>
      </trkpt>
      <trkpt lat="45.89178" lon="4.66964">
        <ele>409.399993896</ele>
        <time>2015-12-09T14:51:18.501Z</time>
      </trkpt>
      <trkpt lat="45.89181" lon="4.66971">
        <ele>409.5</ele>
        <time>2015-12-09T14:51:19.485Z</time>
      </trkpt>
      <trkpt lat="45.89184" lon="4.66978">
        <ele>409.700012207</ele>
        <time>2015-12-09T14:51:20.5Z</time>
      </trkpt>
      <trkpt lat="45.89186" lon="4.66985">
        <ele>410</ele>
        <time>2015-12-09T14:51:21.485Z</time>
      </trkpt>
      <trkpt lat="45.89187" lon="4.66992">
        <ele>410.100006104</ele>
        <time>2015-12-09T14:51:22.502Z</time>
      </trkpt>
      <trkpt lat="45.89188" lon="4.67">
        <ele>410</ele>
        <time>2015-12-09T14:51:23.485Z</time>
      </trkpt>
      <trkpt lat="45.89189" lon="4.67006">
        <ele>409.899993896</ele>
        <time>2015-12-09T14:51:24.523Z</time>
      </trkpt>
      <trkpt lat="45.8919" lon="4.67014">
        <ele>410</ele>
        <time>2015-12-09T14:51:25.485Z</time>
      </trkpt>
      <trkpt lat="45.89192" lon="4.67021">
        <ele>409.799987793</ele>
        <time>2015-12-09T14:51:26.501Z</time>
      </trkpt>
      <trkpt lat="45.89193" lon="4.67029">
        <ele>409.700012207</ele>
        <time>2015-12-09T14:51:27.485Z</time>
      </trkpt>
      <trkpt lat="45.89195" lon="4.67036">
        <ele>409.700012207</ele>
        <time>2015-12-09T14:51:28.501Z</time>
      </trkpt>
      <trkpt lat="45.89197" lon="4.67043">
        <ele>410</ele>
        <time>2015-12-09T14:51:29.485Z</time>
      </trkpt>
      <trkpt lat="45.89199" lon="4.6705">
        <ele>410.299987793</ele>
        <time>2015-12-09T14:51:30.5Z</time>
      </trkpt>
      <trkpt lat="45.89202" lon="4.67057">
        <ele>410.5</ele>
        <time>2015-12-09T14:51:31.485Z</time>
      </trkpt>
      <trkpt lat="45.89204" lon="4.67063">
        <ele>410.5</ele>
        <time>2015-12-09T14:51:32.499Z</time>
      </trkpt>
      <trkpt lat="45.89207" lon="4.67071">
        <ele>410.799987793</ele>
        <time>2015-12-09T14:51:33.485Z</time>
      </trkpt>
      <trkpt lat="45.89209" lon="4.67078">
        <ele>411</ele>
        <time>2015-12-09T14:51:34.501Z</time>
      </trkpt>
      <trkpt lat="45.89212" lon="4.67086">
        <ele>411.200012207</ele>
        <time>2015-12-09T14:51:35.485Z</time>
      </trkpt>
      <trkpt lat="45.89215" lon="4.67092">
        <ele>411.200012207</ele>
        <time>2015-12-09T14:51:36.5Z</time>
      </trkpt>
      <trkpt lat="45.89218" lon="4.67099">
        <ele>411.299987793</ele>
        <time>2015-12-09T14:51:37.485Z</time>
      </trkpt>
      <trkpt lat="45.89221" lon="4.67104">
        <ele>411.100006104</ele>
        <time>2015-12-09T14:51:38.499Z</time>
      </trkpt>
      <trkpt lat="45.89224" lon="4.6711">
        <ele>411.200012207</ele>
        <time>2015-12-09T14:51:39.485Z</time>
      </trkpt>
      <trkpt lat="45.89227" lon="4.67116">
        <ele>411.100006104</ele>
        <time>2015-12-09T14:51:40.515Z</time>
      </trkpt>
      <trkpt lat="45.89229" lon="4.67123">
        <ele>410.5</ele>
        <time>2015-12-09T14:51:41.485Z</time>
      </trkpt>
      <trkpt lat="45.89232" lon="4.67129">
        <ele>410.299987793</ele>
        <time>2015-12-09T14:51:42.5Z</time>
      </trkpt>
      <trkpt lat="45.89235" lon="4.67136">
        <ele>410.100006104</ele>
        <time>2015-12-09T14:51:43.485Z</time>
      </trkpt>
      <trkpt lat="45.89239" lon="4.67142">
        <ele>410</ele>
        <time>2015-12-09T14:51:44.499Z</time>
      </trkpt>
      <trkpt lat="45.89242" lon="4.67148">
        <ele>409.600006104</ele>
        <time>2015-12-09T14:51:45.485Z</time>
      </trkpt>
      <trkpt lat="45.89246" lon="4.67154">
        <ele>409.299987793</ele>
        <time>2015-12-09T14:51:46.501Z</time>
      </trkpt>
      <trkpt lat="45.8925" lon="4.6716">
        <ele>409.299987793</ele>
        <time>2015-12-09T14:51:47.485Z</time>
      </trkpt>
      <trkpt lat="45.89254" lon="4.67166">
        <ele>409.100006104</ele>
        <time>2015-12-09T14:51:48.5Z</time>
      </trkpt>
      <trkpt lat="45.89259" lon="4.67171">
        <ele>409</ele>
        <time>2015-12-09T14:51:49.485Z</time>
      </trkpt>
      <trkpt lat="45.89264" lon="4.67176">
        <ele>408.799987793</ele>
        <time>2015-12-09T14:51:50.499Z</time>
      </trkpt>
      <trkpt lat="45.89269" lon="4.6718">
        <ele>408.600006104</ele>
        <time>2015-12-09T14:51:51.485Z</time>
      </trkpt>
      <trkpt lat="45.89274" lon="4.67184">
        <ele>408.700012207</ele>
        <time>2015-12-09T14:51:52.646Z</time>
      </trkpt>
      <trkpt lat="45.89279" lon="4.67188">
        <ele>408.600006104</ele>
        <time>2015-12-09T14:51:53.485Z</time>
      </trkpt>
      <trkpt lat="45.89284" lon="4.67192">
        <ele>408.5</ele>
        <time>2015-12-09T14:51:54.5Z</time>
      </trkpt>
      <trkpt lat="45.89289" lon="4.67195">
        <ele>408.700012207</ele>
        <time>2015-12-09T14:51:55.485Z</time>
      </trkpt>
      <trkpt lat="45.89294" lon="4.67198">
        <ele>408.700012207</ele>
        <time>2015-12-09T14:51:56.499Z</time>
      </trkpt>
      <trkpt lat="45.893" lon="4.672">
        <ele>408.700012207</ele>
        <time>2015-12-09T14:51:57.485Z</time>
      </trkpt>
      <trkpt lat="45.89306" lon="4.67203">
        <ele>408.700012207</ele>
        <time>2015-12-09T14:51:58.502Z</time>
      </trkpt>
      <trkpt lat="45.89312" lon="4.67205">
        <ele>408.299987793</ele>
        <time>2015-12-09T14:51:59.485Z</time>
      </trkpt>
      <trkpt lat="45.89317" lon="4.67208">
        <ele>408.399993896</ele>
        <time>2015-12-09T14:52:00.5Z</time>
      </trkpt>
      <trkpt lat="45.89323" lon="4.67211">
        <ele>408.5</ele>
        <time>2015-12-09T14:52:01.499Z</time>
      </trkpt>
      <trkpt lat="45.89329" lon="4.67214">
        <ele>408.700012207</ele>
        <time>2015-12-09T14:52:02.5Z</time>
      </trkpt>
      <trkpt lat="45.89334" lon="4.67217">
        <ele>408.5</ele>
        <time>2015-12-09T14:52:03.485Z</time>
      </trkpt>
      <trkpt lat="45.8934" lon="4.67221">
        <ele>408.100006104</ele>
        <time>2015-12-09T14:52:04.502Z</time>
      </trkpt>
      <trkpt lat="45.89346" lon="4.67225">
        <ele>408</ele>
        <time>2015-12-09T14:52:05.485Z</time>
      </trkpt>
      <trkpt lat="45.89352" lon="4.67229">
        <ele>407.899993896</ele>
        <time>2015-12-09T14:52:06.64Z</time>
      </trkpt>
      <trkpt lat="45.89358" lon="4.67234">
        <ele>407.5</ele>
        <time>2015-12-09T14:52:07.485Z</time>
      </trkpt>
      <trkpt lat="45.89363" lon="4.67239">
        <ele>407.399993896</ele>
        <time>2015-12-09T14:52:08.499Z</time>
      </trkpt>
      <trkpt lat="45.89368" lon="4.67246">
        <ele>407.200012207</ele>
        <time>2015-12-09T14:52:09.485Z</time>
      </trkpt>
      <trkpt lat="45.89372" lon="4.67254">
        <ele>406.899993896</ele>
        <time>2015-12-09T14:52:10.502Z</time>
      </trkpt>
      <trkpt lat="45.89376" lon="4.67261">
        <ele>406.600006104</ele>
        <time>2015-12-09T14:52:11.488Z</time>
      </trkpt>
      <trkpt lat="45.8938" lon="4.67269">
        <ele>406.399993896</ele>
        <time>2015-12-09T14:52:12.5Z</time>
      </trkpt>
      <trkpt lat="45.89383" lon="4.67277">
        <ele>406.299987793</ele>
        <time>2015-12-09T14:52:13.485Z</time>
      </trkpt>
      <trkpt lat="45.89387" lon="4.67285">
        <ele>406.299987793</ele>
        <time>2015-12-09T14:52:14.499Z</time>
      </trkpt>
      <trkpt lat="45.89391" lon="4.67293">
        <ele>406.600006104</ele>
        <time>2015-12-09T14:52:15.487Z</time>
      </trkpt>
      <trkpt lat="45.89396" lon="4.673">
        <ele>406.799987793</ele>
        <time>2015-12-09T14:52:16.504Z</time>
      </trkpt>
      <trkpt lat="45.89401" lon="4.67308">
        <ele>407.100006104</ele>
        <time>2015-12-09T14:52:17.501Z</time>
      </trkpt>
      <trkpt lat="45.89406" lon="4.67315">
        <ele>407.100006104</ele>
        <time>2015-12-09T14:52:18.519Z</time>
      </trkpt>
      <trkpt lat="45.89412" lon="4.67322">
        <ele>406.799987793</ele>
        <time>2015-12-09T14:52:19.487Z</time>
      </trkpt>
      <trkpt lat="45.89417" lon="4.67329">
        <ele>406.700012207</ele>
        <time>2015-12-09T14:52:20.499Z</time>
      </trkpt>
      <trkpt lat="45.89423" lon="4.67336">
        <ele>405.899993896</ele>
        <time>2015-12-09T14:52:21.485Z</time>
      </trkpt>
      <trkpt lat="45.89428" lon="4.67342">
        <ele>406</ele>
        <time>2015-12-09T14:52:22.502Z</time>
      </trkpt>
      <trkpt lat="45.89434" lon="4.67349">
        <ele>405.899993896</ele>
        <time>2015-12-09T14:52:23.485Z</time>
      </trkpt>
      <trkpt lat="45.89439" lon="4.67355">
        <ele>405.899993896</ele>
        <time>2015-12-09T14:52:24.501Z</time>
      </trkpt>
      <trkpt lat="45.89445" lon="4.67361">
        <ele>405.899993896</ele>
        <time>2015-12-09T14:52:25.486Z</time>
      </trkpt>
      <trkpt lat="45.89451" lon="4.67367">
        <ele>406.299987793</ele>
        <time>2015-12-09T14:52:26.499Z</time>
      </trkpt>
      <trkpt lat="45.89457" lon="4.67373">
        <ele>405.899993896</ele>
        <time>2015-12-09T14:52:27.485Z</time>
      </trkpt>
      <trkpt lat="45.89463" lon="4.67378">
        <ele>405.700012207</ele>
        <time>2015-12-09T14:52:28.517Z</time>
      </trkpt>
      <trkpt lat="45.89469" lon="4.67383">
        <ele>405.799987793</ele>
        <time>2015-12-09T14:52:29.485Z</time>
      </trkpt>
      <trkpt lat="45.89475" lon="4.67388">
        <ele>405</ele>
        <time>2015-12-09T14:52:30.501Z</time>
      </trkpt>
      <trkpt lat="45.89481" lon="4.67392">
        <ele>405</ele>
        <time>2015-12-09T14:52:31.485Z</time>
      </trkpt>
      <trkpt lat="45.89487" lon="4.67397">
        <ele>404.700012207</ele>
        <time>2015-12-09T14:52:32.5Z</time>
      </trkpt>
      <trkpt lat="45.89493" lon="4.67401">
        <ele>404.600006104</ele>
        <time>2015-12-09T14:52:33.485Z</time>
      </trkpt>
      <trkpt lat="45.89499" lon="4.67405">
        <ele>404.600006104</ele>
        <time>2015-12-09T14:52:34.502Z</time>
      </trkpt>
      <trkpt lat="45.89505" lon="4.67409">
        <ele>404.700012207</ele>
        <time>2015-12-09T14:52:35.485Z</time>
      </trkpt>
      <trkpt lat="45.8951" lon="4.67414">
        <ele>405.399993896</ele>
        <time>2015-12-09T14:52:36.5Z</time>
      </trkpt>
      <trkpt lat="45.89517" lon="4.67417">
        <ele>405.299987793</ele>
        <time>2015-12-09T14:52:37.485Z</time>
      </trkpt>
      <trkpt lat="45.89522" lon="4.67419">
        <ele>405.600006104</ele>
        <time>2015-12-09T14:52:38.505Z</time>
      </trkpt>
      <trkpt lat="45.89529" lon="4.67423">
        <ele>405.899993896</ele>
        <time>2015-12-09T14:52:39.485Z</time>
      </trkpt>
      <trkpt lat="45.89535" lon="4.67426">
        <ele>406.100006104</ele>
        <time>2015-12-09T14:52:40.501Z</time>
      </trkpt>
      <trkpt lat="45.89541" lon="4.67428">
        <ele>406</ele>
        <time>2015-12-09T14:52:41.485Z</time>
      </trkpt>
      <trkpt lat="45.89548" lon="4.67431">
        <ele>406.100006104</ele>
        <time>2015-12-09T14:52:42.5Z</time>
      </trkpt>
      <trkpt lat="45.89554" lon="4.67435">
        <ele>406.299987793</ele>
        <time>2015-12-09T14:52:43.486Z</time>
      </trkpt>
      <trkpt lat="45.8956" lon="4.67438">
        <ele>406.5</ele>
        <time>2015-12-09T14:52:44.52Z</time>
      </trkpt>
      <trkpt lat="45.89566" lon="4.67441">
        <ele>406.799987793</ele>
        <time>2015-12-09T14:52:45.485Z</time>
      </trkpt>
      <trkpt lat="45.89573" lon="4.67444">
        <ele>407</ele>
        <time>2015-12-09T14:52:46.502Z</time>
      </trkpt>
      <trkpt lat="45.8958" lon="4.67447">
        <ele>406.899993896</ele>
        <time>2015-12-09T14:52:47.485Z</time>
      </trkpt>
      <trkpt lat="45.89587" lon="4.67449">
        <ele>407</ele>
        <time>2015-12-09T14:52:48.5Z</time>
      </trkpt>
      <trkpt lat="45.89594" lon="4.67451">
        <ele>406.899993896</ele>
        <time>2015-12-09T14:52:49.485Z</time>
      </trkpt>
      <trkpt lat="45.896" lon="4.67453">
        <ele>406.799987793</ele>
        <time>2015-12-09T14:52:50.499Z</time>
      </trkpt>
      <trkpt lat="45.89608" lon="4.67456">
        <ele>406.299987793</ele>
        <time>2015-12-09T14:52:51.485Z</time>
      </trkpt>
      <trkpt lat="45.89615" lon="4.67458">
        <ele>406.100006104</ele>
        <time>2015-12-09T14:52:52.502Z</time>
      </trkpt>
      <trkpt lat="45.89622" lon="4.67461">
        <ele>405.600006104</ele>
        <time>2015-12-09T14:52:53.485Z</time>
      </trkpt>
      <trkpt lat="45.89628" lon="4.67464">
        <ele>405.700012207</ele>
        <time>2015-12-09T14:52:54.5Z</time>
      </trkpt>
      <trkpt lat="45.89635" lon="4.67466">
        <ele>405.600006104</ele>
        <time>2015-12-09T14:52:55.485Z</time>
      </trkpt>
      <trkpt lat="45.89642" lon="4.67469">
        <ele>405.5</ele>
        <time>2015-12-09T14:52:56.499Z</time>
      </trkpt>
      <trkpt lat="45.89648" lon="4.67471">
        <ele>405.700012207</ele>
        <time>2015-12-09T14:52:57.485Z</time>
      </trkpt>
      <trkpt lat="45.89655" lon="4.67474">
        <ele>405.600006104</ele>
        <time>2015-12-09T14:52:58.502Z</time>
      </trkpt>
      <trkpt lat="45.89662" lon="4.67477">
        <ele>405.5</ele>
        <time>2015-12-09T14:52:59.485Z</time>
      </trkpt>
      <trkpt lat="45.89669" lon="4.6748">
        <ele>405.200012207</ele>
        <time>2015-12-09T14:53:00.519Z</time>
      </trkpt>
      <trkpt lat="45.89676" lon="4.67483">
        <ele>404.899993896</ele>
        <time>2015-12-09T14:53:01.485Z</time>
      </trkpt>
      <trkpt lat="45.89683" lon="4.67486">
        <ele>404.5</ele>
        <time>2015-12-09T14:53:02.499Z</time>
      </trkpt>
      <trkpt lat="45.8969" lon="4.67488">
        <ele>404.399993896</ele>
        <time>2015-12-09T14:53:03.618Z</time>
      </trkpt>
      <trkpt lat="45.89697" lon="4.6749">
        <ele>404.200012207</ele>
        <time>2015-12-09T14:53:04.501Z</time>
      </trkpt>
      <trkpt lat="45.89704" lon="4.67493">
        <ele>403.799987793</ele>
        <time>2015-12-09T14:53:05.485Z</time>
      </trkpt>
      <trkpt lat="45.89711" lon="4.67495">
        <ele>403.899993896</ele>
        <time>2015-12-09T14:53:06.5Z</time>
      </trkpt>
      <trkpt lat="45.89718" lon="4.67497">
        <ele>403.899993896</ele>
        <time>2015-12-09T14:53:07.485Z</time>
      </trkpt>
      <trkpt lat="45.89725" lon="4.67499">
        <ele>403.799987793</ele>
        <time>2015-12-09T14:53:08.499Z</time>
      </trkpt>
      <trkpt lat="45.89733" lon="4.67501">
        <ele>403.700012207</ele>
        <time>2015-12-09T14:53:09.485Z</time>
      </trkpt>
      <trkpt lat="45.89741" lon="4.67501">
        <ele>403.299987793</ele>
        <time>2015-12-09T14:53:10.504Z</time>
      </trkpt>
      <trkpt lat="45.89749" lon="4.67501">
        <ele>402.899993896</ele>
        <time>2015-12-09T14:53:11.487Z</time>
      </trkpt>
      <trkpt lat="45.89757" lon="4.675">
        <ele>402.299987793</ele>
        <time>2015-12-09T14:53:12.501Z</time>
      </trkpt>
      <trkpt lat="45.89764" lon="4.67499">
        <ele>401.799987793</ele>
        <time>2015-12-09T14:53:13.485Z</time>
      </trkpt>
      <trkpt lat="45.89773" lon="4.67498">
        <ele>401</ele>
        <time>2015-12-09T14:53:14.499Z</time>
      </trkpt>
      <trkpt lat="45.89781" lon="4.67496">
        <ele>400.799987793</ele>
        <time>2015-12-09T14:53:15.485Z</time>
      </trkpt>
      <trkpt lat="45.89788" lon="4.67494">
        <ele>400.5</ele>
        <time>2015-12-09T14:53:16.501Z</time>
      </trkpt>
      <trkpt lat="45.89796" lon="4.67491">
        <ele>400.600006104</ele>
        <time>2015-12-09T14:53:17.485Z</time>
      </trkpt>
      <trkpt lat="45.89803" lon="4.67485">
        <ele>400.299987793</ele>
        <time>2015-12-09T14:53:18.529Z</time>
      </trkpt>
      <trkpt lat="45.89809" lon="4.67477">
        <ele>399.799987793</ele>
        <time>2015-12-09T14:53:19.485Z</time>
      </trkpt>
      <trkpt lat="45.89814" lon="4.67467">
        <ele>399.100006104</ele>
        <time>2015-12-09T14:53:20.499Z</time>
      </trkpt>
      <trkpt lat="45.89818" lon="4.67456">
        <ele>398.799987793</ele>
        <time>2015-12-09T14:53:21.485Z</time>
      </trkpt>
      <trkpt lat="45.8982" lon="4.67445">
        <ele>398.200012207</ele>
        <time>2015-12-09T14:53:22.502Z</time>
      </trkpt>
      <trkpt lat="45.89822" lon="4.67434">
        <ele>397.399993896</ele>
        <time>2015-12-09T14:53:23.485Z</time>
      </trkpt>
      <trkpt lat="45.89823" lon="4.67424">
        <ele>397.5</ele>
        <time>2015-12-09T14:53:24.5Z</time>
      </trkpt>
      <trkpt lat="45.89826" lon="4.67414">
        <ele>397.5</ele>
        <time>2015-12-09T14:53:25.485Z</time>
      </trkpt>
      <trkpt lat="45.89829" lon="4.67404">
        <ele>397.200012207</ele>
        <time>2015-12-09T14:53:26.507Z</time>
      </trkpt>
      <trkpt lat="45.89833" lon="4.67394">
        <ele>396.600006104</ele>
        <time>2015-12-09T14:53:27.485Z</time>
      </trkpt>
      <trkpt lat="45.89837" lon="4.67386">
        <ele>396.399993896</ele>
        <time>2015-12-09T14:53:28.502Z</time>
      </trkpt>
      <trkpt lat="45.89843" lon="4.67378">
        <ele>396</ele>
        <time>2015-12-09T14:53:29.485Z</time>
      </trkpt>
      <trkpt lat="45.89849" lon="4.67371">
        <ele>395.799987793</ele>
        <time>2015-12-09T14:53:30.5Z</time>
      </trkpt>
      <trkpt lat="45.89855" lon="4.67365">
        <ele>395.399993896</ele>
        <time>2015-12-09T14:53:31.485Z</time>
      </trkpt>
      <trkpt lat="45.89861" lon="4.67361">
        <ele>395.100006104</ele>
        <time>2015-12-09T14:53:32.513Z</time>
      </trkpt>
      <trkpt lat="45.89868" lon="4.67358">
        <ele>394.700012207</ele>
        <time>2015-12-09T14:53:33.485Z</time>
      </trkpt>
      <trkpt lat="45.89875" lon="4.67356">
        <ele>394.5</ele>
        <time>2015-12-09T14:53:34.501Z</time>
      </trkpt>
      <trkpt lat="45.89882" lon="4.67355">
        <ele>394.100006104</ele>
        <time>2015-12-09T14:53:35.485Z</time>
      </trkpt>
      <trkpt lat="45.89889" lon="4.67354">
        <ele>393.799987793</ele>
        <time>2015-12-09T14:53:36.503Z</time>
      </trkpt>
      <trkpt lat="45.89897" lon="4.67356">
        <ele>393.600006104</ele>
        <time>2015-12-09T14:53:37.485Z</time>
      </trkpt>
      <trkpt lat="45.89904" lon="4.67357">
        <ele>393.399993896</ele>
        <time>2015-12-09T14:53:38.499Z</time>
      </trkpt>
      <trkpt lat="45.89912" lon="4.67359">
        <ele>393.100006104</ele>
        <time>2015-12-09T14:53:39.485Z</time>
      </trkpt>
      <trkpt lat="45.89919" lon="4.67361">
        <ele>392.899993896</ele>
        <time>2015-12-09T14:53:40.501Z</time>
      </trkpt>
      <trkpt lat="45.89926" lon="4.67364">
        <ele>392.5</ele>
        <time>2015-12-09T14:53:41.486Z</time>
      </trkpt>
      <trkpt lat="45.89934" lon="4.67366">
        <ele>392.399993896</ele>
        <time>2015-12-09T14:53:42.5Z</time>
      </trkpt>
      <trkpt lat="45.89941" lon="4.67368">
        <ele>392</ele>
        <time>2015-12-09T14:53:43.485Z</time>
      </trkpt>
      <trkpt lat="45.89949" lon="4.67371">
        <ele>391.700012207</ele>
        <time>2015-12-09T14:53:44.53Z</time>
      </trkpt>
      <trkpt lat="45.89957" lon="4.67374">
        <ele>391.5</ele>
        <time>2015-12-09T14:53:45.485Z</time>
      </trkpt>
      <trkpt lat="45.89965" lon="4.67376">
        <ele>391.299987793</ele>
        <time>2015-12-09T14:53:46.503Z</time>
      </trkpt>
      <trkpt lat="45.89973" lon="4.67379">
        <ele>391</ele>
        <time>2015-12-09T14:53:47.485Z</time>
      </trkpt>
      <trkpt lat="45.89981" lon="4.67382">
        <ele>390.700012207</ele>
        <time>2015-12-09T14:53:48.513Z</time>
      </trkpt>
      <trkpt lat="45.89989" lon="4.67386">
        <ele>390.5</ele>
        <time>2015-12-09T14:53:49.485Z</time>
      </trkpt>
      <trkpt lat="45.89989" lon="4.67386">
        <ele>390.5</ele>
        <time>2015-12-09T14:53:49.502Z</time>
      </trkpt>
      <trkpt lat="45.89998" lon="4.6739">
        <ele>390.399993896</ele>
        <time>2015-12-09T14:53:50.485Z</time>
      </trkpt>
      <trkpt lat="45.90006" lon="4.67395">
        <ele>390.100006104</ele>
        <time>2015-12-09T14:53:51.499Z</time>
      </trkpt>
      <trkpt lat="45.90014" lon="4.674">
        <ele>389.200012207</ele>
        <time>2015-12-09T14:53:52.488Z</time>
      </trkpt>
      <trkpt lat="45.90014" lon="4.674">
        <ele>389.200012207</ele>
        <time>2015-12-09T14:53:52.504Z</time>
      </trkpt>
      <trkpt lat="45.90022" lon="4.67405">
        <ele>388.399993896</ele>
        <time>2015-12-09T14:53:53.485Z</time>
      </trkpt>
      <trkpt lat="45.9003" lon="4.67411">
        <ele>388.200012207</ele>
        <time>2015-12-09T14:53:54.5Z</time>
      </trkpt>
      <trkpt lat="45.90037" lon="4.67418">
        <ele>387.899993896</ele>
        <time>2015-12-09T14:53:55.485Z</time>
      </trkpt>
      <trkpt lat="45.90044" lon="4.67425">
        <ele>387.600006104</ele>
        <time>2015-12-09T14:53:56.499Z</time>
      </trkpt>
      <trkpt lat="45.90051" lon="4.67434">
        <ele>387.5</ele>
        <time>2015-12-09T14:53:57.485Z</time>
      </trkpt>
      <trkpt lat="45.90058" lon="4.67441">
        <ele>387.5</ele>
        <time>2015-12-09T14:53:58.501Z</time>
      </trkpt>
      <trkpt lat="45.90065" lon="4.67449">
        <ele>386.799987793</ele>
        <time>2015-12-09T14:53:59.485Z</time>
      </trkpt>
      <trkpt lat="45.90072" lon="4.67457">
        <ele>386.200012207</ele>
        <time>2015-12-09T14:54:00.629Z</time>
      </trkpt>
      <trkpt lat="45.90079" lon="4.67465">
        <ele>385.600006104</ele>
        <time>2015-12-09T14:54:01.485Z</time>
      </trkpt>
      <trkpt lat="45.90086" lon="4.67472">
        <ele>384.899993896</ele>
        <time>2015-12-09T14:54:02.505Z</time>
      </trkpt>
      <trkpt lat="45.90093" lon="4.6748">
        <ele>384.299987793</ele>
        <time>2015-12-09T14:54:03.485Z</time>
      </trkpt>
      <trkpt lat="45.90099" lon="4.67488">
        <ele>384.100006104</ele>
        <time>2015-12-09T14:54:04.515Z</time>
      </trkpt>
      <trkpt lat="45.90106" lon="4.67497">
        <ele>383.700012207</ele>
        <time>2015-12-09T14:54:05.485Z</time>
      </trkpt>
      <trkpt lat="45.90112" lon="4.67505">
        <ele>382.899993896</ele>
        <time>2015-12-09T14:54:06.5Z</time>
      </trkpt>
      <trkpt lat="45.90118" lon="4.67514">
        <ele>382.200012207</ele>
        <time>2015-12-09T14:54:07.485Z</time>
      </trkpt>
      <trkpt lat="45.90123" lon="4.67523">
        <ele>381.5</ele>
        <time>2015-12-09T14:54:08.506Z</time>
      </trkpt>
      <trkpt lat="45.90128" lon="4.67533">
        <ele>381.299987793</ele>
        <time>2015-12-09T14:54:09.486Z</time>
      </trkpt>
      <trkpt lat="45.90133" lon="4.67542">
        <ele>380.799987793</ele>
        <time>2015-12-09T14:54:10.501Z</time>
      </trkpt>
      <trkpt lat="45.90139" lon="4.67551">
        <ele>380.200012207</ele>
        <time>2015-12-09T14:54:11.487Z</time>
      </trkpt>
      <trkpt lat="45.90144" lon="4.67561">
        <ele>379.5</ele>
        <time>2015-12-09T14:54:12.5Z</time>
      </trkpt>
      <trkpt lat="45.9015" lon="4.6757">
        <ele>378.399993896</ele>
        <time>2015-12-09T14:54:13.485Z</time>
      </trkpt>
      <trkpt lat="45.90156" lon="4.67579">
        <ele>377.799987793</ele>
        <time>2015-12-09T14:54:14.64Z</time>
      </trkpt>
      <trkpt lat="45.90163" lon="4.67588">
        <ele>377.299987793</ele>
        <time>2015-12-09T14:54:15.485Z</time>
      </trkpt>
      <trkpt lat="45.9017" lon="4.67596">
        <ele>376.5</ele>
        <time>2015-12-09T14:54:16.502Z</time>
      </trkpt>
      <trkpt lat="45.90176" lon="4.67603">
        <ele>376</ele>
        <time>2015-12-09T14:54:17.485Z</time>
      </trkpt>
      <trkpt lat="45.90183" lon="4.67611">
        <ele>375.200012207</ele>
        <time>2015-12-09T14:54:18.5Z</time>
      </trkpt>
      <trkpt lat="45.9019" lon="4.67618">
        <ele>374.700012207</ele>
        <time>2015-12-09T14:54:19.485Z</time>
      </trkpt>
      <trkpt lat="45.90197" lon="4.67626">
        <ele>374.399993896</ele>
        <time>2015-12-09T14:54:20.5Z</time>
      </trkpt>
      <trkpt lat="45.90203" lon="4.67634">
        <ele>373.899993896</ele>
        <time>2015-12-09T14:54:21.485Z</time>
      </trkpt>
      <trkpt lat="45.9021" lon="4.67641">
        <ele>373.399993896</ele>
        <time>2015-12-09T14:54:22.501Z</time>
      </trkpt>
      <trkpt lat="45.90217" lon="4.67649">
        <ele>372.899993896</ele>
        <time>2015-12-09T14:54:23.485Z</time>
      </trkpt>
      <trkpt lat="45.90224" lon="4.67656">
        <ele>372.600006104</ele>
        <time>2015-12-09T14:54:24.5Z</time>
      </trkpt>
      <trkpt lat="45.9023" lon="4.67662">
        <ele>372.399993896</ele>
        <time>2015-12-09T14:54:25.499Z</time>
      </trkpt>
      <trkpt lat="45.90237" lon="4.67668">
        <ele>372.100006104</ele>
        <time>2015-12-09T14:54:26.499Z</time>
      </trkpt>
      <trkpt lat="45.90243" lon="4.67672">
        <ele>372.200012207</ele>
        <time>2015-12-09T14:54:27.485Z</time>
      </trkpt>
      <trkpt lat="45.9025" lon="4.67677">
        <ele>372.399993896</ele>
        <time>2015-12-09T14:54:28.505Z</time>
      </trkpt>
      <trkpt lat="45.90256" lon="4.67681">
        <ele>372.5</ele>
        <time>2015-12-09T14:54:29.485Z</time>
      </trkpt>
      <trkpt lat="45.90263" lon="4.67685">
        <ele>372.399993896</ele>
        <time>2015-12-09T14:54:30.5Z</time>
      </trkpt>
      <trkpt lat="45.90269" lon="4.67688">
        <ele>371.899993896</ele>
        <time>2015-12-09T14:54:31.485Z</time>
      </trkpt>
      <trkpt lat="45.90275" lon="4.6769">
        <ele>371.899993896</ele>
        <time>2015-12-09T14:54:32.499Z</time>
      </trkpt>
      <trkpt lat="45.90281" lon="4.67692">
        <ele>371.799987793</ele>
        <time>2015-12-09T14:54:33.523Z</time>
      </trkpt>
      <trkpt lat="45.90287" lon="4.67695">
        <ele>371.799987793</ele>
        <time>2015-12-09T14:54:34.502Z</time>
      </trkpt>
      <trkpt lat="45.90293" lon="4.67697">
        <ele>371.799987793</ele>
        <time>2015-12-09T14:54:35.485Z</time>
      </trkpt>
      <trkpt lat="45.90298" lon="4.67699">
        <ele>371.399993896</ele>
        <time>2015-12-09T14:54:36.5Z</time>
      </trkpt>
      <trkpt lat="45.90304" lon="4.677">
        <ele>371</ele>
        <time>2015-12-09T14:54:37.486Z</time>
      </trkpt>
      <trkpt lat="45.9031" lon="4.67701">
        <ele>370.299987793</ele>
        <time>2015-12-09T14:54:38.503Z</time>
      </trkpt>
      <trkpt lat="45.90316" lon="4.67703">
        <ele>369.899993896</ele>
        <time>2015-12-09T14:54:39.485Z</time>
      </trkpt>
      <trkpt lat="45.90322" lon="4.67705">
        <ele>369.399993896</ele>
        <time>2015-12-09T14:54:40.502Z</time>
      </trkpt>
      <trkpt lat="45.90329" lon="4.67707">
        <ele>369.299987793</ele>
        <time>2015-12-09T14:54:41.485Z</time>
      </trkpt>
      <trkpt lat="45.90335" lon="4.6771">
        <ele>368.700012207</ele>
        <time>2015-12-09T14:54:42.5Z</time>
      </trkpt>
      <trkpt lat="45.90341" lon="4.67712">
        <ele>368.5</ele>
        <time>2015-12-09T14:54:43.485Z</time>
      </trkpt>
      <trkpt lat="45.90349" lon="4.67715">
        <ele>368.200012207</ele>
        <time>2015-12-09T14:54:44.627Z</time>
      </trkpt>
      <trkpt lat="45.90356" lon="4.67717">
        <ele>368</ele>
        <time>2015-12-09T14:54:45.485Z</time>
      </trkpt>
      <trkpt lat="45.90363" lon="4.67721">
        <ele>368</ele>
        <time>2015-12-09T14:54:46.516Z</time>
      </trkpt>
      <trkpt lat="45.9037" lon="4.67723">
        <ele>367.5</ele>
        <time>2015-12-09T14:54:47.485Z</time>
      </trkpt>
      <trkpt lat="45.90377" lon="4.67726">
        <ele>367.399993896</ele>
        <time>2015-12-09T14:54:48.5Z</time>
      </trkpt>
      <trkpt lat="45.90384" lon="4.67729">
        <ele>367.299987793</ele>
        <time>2015-12-09T14:54:49.485Z</time>
      </trkpt>
      <trkpt lat="45.90391" lon="4.67732">
        <ele>366.700012207</ele>
        <time>2015-12-09T14:54:50.499Z</time>
      </trkpt>
      <trkpt lat="45.90399" lon="4.67734">
        <ele>366</ele>
        <time>2015-12-09T14:54:51.485Z</time>
      </trkpt>
      <trkpt lat="45.90406" lon="4.67736">
        <ele>365.700012207</ele>
        <time>2015-12-09T14:54:52.501Z</time>
      </trkpt>
      <trkpt lat="45.90412" lon="4.67739">
        <ele>365.799987793</ele>
        <time>2015-12-09T14:54:53.485Z</time>
      </trkpt>
      <trkpt lat="45.90419" lon="4.67742">
        <ele>365.700012207</ele>
        <time>2015-12-09T14:54:54.503Z</time>
      </trkpt>
      <trkpt lat="45.90426" lon="4.67745">
        <ele>365.799987793</ele>
        <time>2015-12-09T14:54:55.485Z</time>
      </trkpt>
      <trkpt lat="45.90433" lon="4.67747">
        <ele>365.399993896</ele>
        <time>2015-12-09T14:54:56.499Z</time>
      </trkpt>
      <trkpt lat="45.9044" lon="4.6775">
        <ele>365.200012207</ele>
        <time>2015-12-09T14:54:57.485Z</time>
      </trkpt>
      <trkpt lat="45.90446" lon="4.67752">
        <ele>365.100006104</ele>
        <time>2015-12-09T14:54:58.529Z</time>
      </trkpt>
      <trkpt lat="45.90454" lon="4.67755">
        <ele>364.600006104</ele>
        <time>2015-12-09T14:54:59.485Z</time>
      </trkpt>
      <trkpt lat="45.9046" lon="4.67758">
        <ele>364.299987793</ele>
        <time>2015-12-09T14:55:00.5Z</time>
      </trkpt>
      <trkpt lat="45.90467" lon="4.6776">
        <ele>364</ele>
        <time>2015-12-09T14:55:01.485Z</time>
      </trkpt>
      <trkpt lat="45.90474" lon="4.67762">
        <ele>363.799987793</ele>
        <time>2015-12-09T14:55:02.514Z</time>
      </trkpt>
      <trkpt lat="45.90481" lon="4.67765">
        <ele>363.899993896</ele>
        <time>2015-12-09T14:55:03.485Z</time>
      </trkpt>
      <trkpt lat="45.90487" lon="4.67768">
        <ele>363.899993896</ele>
        <time>2015-12-09T14:55:04.501Z</time>
      </trkpt>
      <trkpt lat="45.90495" lon="4.67771">
        <ele>363.799987793</ele>
        <time>2015-12-09T14:55:05.485Z</time>
      </trkpt>
      <trkpt lat="45.90501" lon="4.67774">
        <ele>363.799987793</ele>
        <time>2015-12-09T14:55:06.501Z</time>
      </trkpt>
      <trkpt lat="45.90508" lon="4.67777">
        <ele>364.200012207</ele>
        <time>2015-12-09T14:55:07.485Z</time>
      </trkpt>
      <trkpt lat="45.90514" lon="4.6778">
        <ele>364.5</ele>
        <time>2015-12-09T14:55:08.499Z</time>
      </trkpt>
      <trkpt lat="45.90521" lon="4.67783">
        <ele>364.399993896</ele>
        <time>2015-12-09T14:55:09.485Z</time>
      </trkpt>
      <trkpt lat="45.90527" lon="4.67785">
        <ele>364.299987793</ele>
        <time>2015-12-09T14:55:10.502Z</time>
      </trkpt>
      <trkpt lat="45.90533" lon="4.67786">
        <ele>364.399993896</ele>
        <time>2015-12-09T14:55:11.488Z</time>
      </trkpt>
      <trkpt lat="45.90539" lon="4.67788">
        <ele>364.299987793</ele>
        <time>2015-12-09T14:55:12.5Z</time>
      </trkpt>
      <trkpt lat="45.90545" lon="4.67789">
        <ele>364.299987793</ele>
        <time>2015-12-09T14:55:13.485Z</time>
      </trkpt>
      <trkpt lat="45.9055" lon="4.67791">
        <ele>364</ele>
        <time>2015-12-09T14:55:14.499Z</time>
      </trkpt>
      <trkpt lat="45.90556" lon="4.67792">
        <ele>363.899993896</ele>
        <time>2015-12-09T14:55:15.485Z</time>
      </trkpt>
      <trkpt lat="45.90562" lon="4.67794">
        <ele>363.799987793</ele>
        <time>2015-12-09T14:55:16.501Z</time>
      </trkpt>
      <trkpt lat="45.90568" lon="4.67794">
        <ele>363.799987793</ele>
        <time>2015-12-09T14:55:17.485Z</time>
      </trkpt>
      <trkpt lat="45.90573" lon="4.67795">
        <ele>363.600006104</ele>
        <time>2015-12-09T14:55:18.519Z</time>
      </trkpt>
      <trkpt lat="45.90578" lon="4.67795">
        <ele>363.600006104</ele>
        <time>2015-12-09T14:55:19.485Z</time>
      </trkpt>
      <trkpt lat="45.90584" lon="4.67796">
        <ele>363.5</ele>
        <time>2015-12-09T14:55:20.499Z</time>
      </trkpt>
      <trkpt lat="45.90589" lon="4.67796">
        <ele>363.5</ele>
        <time>2015-12-09T14:55:21.485Z</time>
      </trkpt>
      <trkpt lat="45.90594" lon="4.67796">
        <ele>363.600006104</ele>
        <time>2015-12-09T14:55:22.501Z</time>
      </trkpt>
      <trkpt lat="45.906" lon="4.67797">
        <ele>363.399993896</ele>
        <time>2015-12-09T14:55:23.485Z</time>
      </trkpt>
      <trkpt lat="45.90605" lon="4.67797">
        <ele>363.299987793</ele>
        <time>2015-12-09T14:55:24.5Z</time>
      </trkpt>
      <trkpt lat="45.9061" lon="4.67798">
        <ele>363.600006104</ele>
        <time>2015-12-09T14:55:25.485Z</time>
      </trkpt>
      <trkpt lat="45.90615" lon="4.67798">
        <ele>363.5</ele>
        <time>2015-12-09T14:55:26.499Z</time>
      </trkpt>
      <trkpt lat="45.90619" lon="4.67798">
        <ele>363.799987793</ele>
        <time>2015-12-09T14:55:27.484Z</time>
      </trkpt>
      <trkpt lat="45.90624" lon="4.67799">
        <ele>364.200012207</ele>
        <time>2015-12-09T14:55:28.502Z</time>
      </trkpt>
      <trkpt lat="45.90629" lon="4.67799">
        <ele>364.399993896</ele>
        <time>2015-12-09T14:55:29.484Z</time>
      </trkpt>
      <trkpt lat="45.90637" lon="4.67798">
        <ele>364.299987793</ele>
        <time>2015-12-09T14:55:31.538Z</time>
      </trkpt>
      <trkpt lat="45.90641" lon="4.67798">
        <ele>364.399993896</ele>
        <time>2015-12-09T14:55:32.485Z</time>
      </trkpt>
      <trkpt lat="45.9065" lon="4.67798">
        <ele>364.899993896</ele>
        <time>2015-12-09T14:55:34.502Z</time>
      </trkpt>
      <trkpt lat="45.90654" lon="4.67799">
        <ele>365.200012207</ele>
        <time>2015-12-09T14:55:35.485Z</time>
      </trkpt>
      <trkpt lat="45.90663" lon="4.67801">
        <ele>365.200012207</ele>
        <time>2015-12-09T14:55:37.499Z</time>
      </trkpt>
      <trkpt lat="45.90667" lon="4.67801">
        <ele>365.299987793</ele>
        <time>2015-12-09T14:55:38.485Z</time>
      </trkpt>
      <trkpt lat="45.90676" lon="4.67801">
        <ele>365.600006104</ele>
        <time>2015-12-09T14:55:40.501Z</time>
      </trkpt>
      <trkpt lat="45.90679" lon="4.67802">
        <ele>365.600006104</ele>
        <time>2015-12-09T14:55:41.485Z</time>
      </trkpt>
      <trkpt lat="45.90687" lon="4.67804">
        <ele>365.700012207</ele>
        <time>2015-12-09T14:55:43.498Z</time>
      </trkpt>
      <trkpt lat="45.90691" lon="4.67805">
        <ele>366</ele>
        <time>2015-12-09T14:55:44.498Z</time>
      </trkpt>
      <trkpt lat="45.90698" lon="4.67806">
        <ele>366.200012207</ele>
        <time>2015-12-09T14:55:46.502Z</time>
      </trkpt>
      <trkpt lat="45.90702" lon="4.67808">
        <ele>366.299987793</ele>
        <time>2015-12-09T14:55:47.485Z</time>
      </trkpt>
      <trkpt lat="45.90709" lon="4.67811">
        <ele>366.700012207</ele>
        <time>2015-12-09T14:55:49.499Z</time>
      </trkpt>
      <trkpt lat="45.90712" lon="4.67813">
        <ele>367</ele>
        <time>2015-12-09T14:55:50.485Z</time>
      </trkpt>
      <trkpt lat="45.90719" lon="4.67816">
        <ele>367.5</ele>
        <time>2015-12-09T14:55:52.502Z</time>
      </trkpt>
      <trkpt lat="45.90722" lon="4.67817">
        <ele>367.700012207</ele>
        <time>2015-12-09T14:55:53.485Z</time>
      </trkpt>
      <trkpt lat="45.90729" lon="4.67821">
        <ele>367.799987793</ele>
        <time>2015-12-09T14:55:55.512Z</time>
      </trkpt>
      <trkpt lat="45.90733" lon="4.67822">
        <ele>367.899993896</ele>
        <time>2015-12-09T14:55:56.484Z</time>
      </trkpt>
      <trkpt lat="45.90741" lon="4.67824">
        <ele>367.899993896</ele>
        <time>2015-12-09T14:55:58.541Z</time>
      </trkpt>
      <trkpt lat="45.90744" lon="4.67825">
        <ele>367.899993896</ele>
        <time>2015-12-09T14:55:59.485Z</time>
      </trkpt>
      <trkpt lat="45.90751" lon="4.67828">
        <ele>368.200012207</ele>
        <time>2015-12-09T14:56:01.499Z</time>
      </trkpt>
      <trkpt lat="45.90754" lon="4.67829">
        <ele>368.5</ele>
        <time>2015-12-09T14:56:02.485Z</time>
      </trkpt>
      <trkpt lat="45.90762" lon="4.67831">
        <ele>368.5</ele>
        <time>2015-12-09T14:56:04.501Z</time>
      </trkpt>
      <trkpt lat="45.90766" lon="4.67833">
        <ele>368.600006104</ele>
        <time>2015-12-09T14:56:05.484Z</time>
      </trkpt>
      <trkpt lat="45.90774" lon="4.67837">
        <ele>368.700012207</ele>
        <time>2015-12-09T14:56:07.499Z</time>
      </trkpt>
      <trkpt lat="45.90778" lon="4.67838">
        <ele>368.799987793</ele>
        <time>2015-12-09T14:56:08.485Z</time>
      </trkpt>
      <trkpt lat="45.90785" lon="4.67841">
        <ele>368.899993896</ele>
        <time>2015-12-09T14:56:10.502Z</time>
      </trkpt>
      <trkpt lat="45.90789" lon="4.67843">
        <ele>368.899993896</ele>
        <time>2015-12-09T14:56:11.486Z</time>
      </trkpt>
      <trkpt lat="45.90796" lon="4.67845">
        <ele>368.899993896</ele>
        <time>2015-12-09T14:56:13.499Z</time>
      </trkpt>
      <trkpt lat="45.908" lon="4.67847">
        <ele>369.100006104</ele>
        <time>2015-12-09T14:56:14.485Z</time>
      </trkpt>
      <trkpt lat="45.90808" lon="4.67849">
        <ele>369.399993896</ele>
        <time>2015-12-09T14:56:16.501Z</time>
      </trkpt>
      <trkpt lat="45.90812" lon="4.6785">
        <ele>369.600006104</ele>
        <time>2015-12-09T14:56:17.484Z</time>
      </trkpt>
      <trkpt lat="45.9082" lon="4.67852">
        <ele>369.5</ele>
        <time>2015-12-09T14:56:19.498Z</time>
      </trkpt>
      <trkpt lat="45.90825" lon="4.67854">
        <ele>369.5</ele>
        <time>2015-12-09T14:56:20.485Z</time>
      </trkpt>
      <trkpt lat="45.90834" lon="4.67857">
        <ele>369.299987793</ele>
        <time>2015-12-09T14:56:22.501Z</time>
      </trkpt>
      <trkpt lat="45.90838" lon="4.67858">
        <ele>369.399993896</ele>
        <time>2015-12-09T14:56:23.486Z</time>
      </trkpt>
      <trkpt lat="45.90846" lon="4.6786">
        <ele>369.200012207</ele>
        <time>2015-12-09T14:56:25.499Z</time>
      </trkpt>
      <trkpt lat="45.9085" lon="4.67861">
        <ele>368.799987793</ele>
        <time>2015-12-09T14:56:26.485Z</time>
      </trkpt>
      <trkpt lat="45.90858" lon="4.67864">
        <ele>368.100006104</ele>
        <time>2015-12-09T14:56:28.542Z</time>
      </trkpt>
      <trkpt lat="45.90862" lon="4.67866">
        <ele>368.100006104</ele>
        <time>2015-12-09T14:56:29.485Z</time>
      </trkpt>
      <trkpt lat="45.90866" lon="4.67868">
        <ele>368.399993896</ele>
        <time>2015-12-09T14:56:30.5Z</time>
      </trkpt>
      <trkpt lat="45.90871" lon="4.67869">
        <ele>368.399993896</ele>
        <time>2015-12-09T14:56:31.485Z</time>
      </trkpt>
      <trkpt lat="45.90875" lon="4.6787">
        <ele>368.899993896</ele>
        <time>2015-12-09T14:56:32.513Z</time>
      </trkpt>
      <trkpt lat="45.9088" lon="4.67871">
        <ele>368.799987793</ele>
        <time>2015-12-09T14:56:33.484Z</time>
      </trkpt>
      <trkpt lat="45.90885" lon="4.67873">
        <ele>368.799987793</ele>
        <time>2015-12-09T14:56:34.502Z</time>
      </trkpt>
      <trkpt lat="45.90889" lon="4.67875">
        <ele>368.600006104</ele>
        <time>2015-12-09T14:56:35.485Z</time>
      </trkpt>
      <trkpt lat="45.90894" lon="4.67878">
        <ele>369</ele>
        <time>2015-12-09T14:56:36.511Z</time>
      </trkpt>
      <trkpt lat="45.90898" lon="4.6788">
        <ele>369.200012207</ele>
        <time>2015-12-09T14:56:37.484Z</time>
      </trkpt>
      <trkpt lat="45.90903" lon="4.67882">
        <ele>368.899993896</ele>
        <time>2015-12-09T14:56:38.499Z</time>
      </trkpt>
      <trkpt lat="45.90907" lon="4.67883">
        <ele>368.799987793</ele>
        <time>2015-12-09T14:56:39.485Z</time>
      </trkpt>
      <trkpt lat="45.90915" lon="4.67886">
        <ele>368.899993896</ele>
        <time>2015-12-09T14:56:41.499Z</time>
      </trkpt>
      <trkpt lat="45.90919" lon="4.67887">
        <ele>369.200012207</ele>
        <time>2015-12-09T14:56:42.486Z</time>
      </trkpt>
      <trkpt lat="45.90927" lon="4.67891">
        <ele>369.600006104</ele>
        <time>2015-12-09T14:56:44.498Z</time>
      </trkpt>
      <trkpt lat="45.9093" lon="4.67892">
        <ele>369.600006104</ele>
        <time>2015-12-09T14:56:45.485Z</time>
      </trkpt>
      <trkpt lat="45.90939" lon="4.67895">
        <ele>369.700012207</ele>
        <time>2015-12-09T14:56:47.498Z</time>
      </trkpt>
      <trkpt lat="45.90942" lon="4.67897">
        <ele>369.700012207</ele>
        <time>2015-12-09T14:56:48.501Z</time>
      </trkpt>
      <trkpt lat="45.9095" lon="4.679">
        <ele>369.799987793</ele>
        <time>2015-12-09T14:56:50.499Z</time>
      </trkpt>
      <trkpt lat="45.90954" lon="4.67902">
        <ele>369.899993896</ele>
        <time>2015-12-09T14:56:51.484Z</time>
      </trkpt>
      <trkpt lat="45.90962" lon="4.67905">
        <ele>370.200012207</ele>
        <time>2015-12-09T14:56:53.498Z</time>
      </trkpt>
      <trkpt lat="45.90966" lon="4.67906">
        <ele>370.399993896</ele>
        <time>2015-12-09T14:56:54.486Z</time>
      </trkpt>
      <trkpt lat="45.90973" lon="4.67909">
        <ele>370.799987793</ele>
        <time>2015-12-09T14:56:56.498Z</time>
      </trkpt>
      <trkpt lat="45.90977" lon="4.67911">
        <ele>371</ele>
        <time>2015-12-09T14:56:57.485Z</time>
      </trkpt>
      <trkpt lat="45.90985" lon="4.67914">
        <ele>371.200012207</ele>
        <time>2015-12-09T14:56:59.514Z</time>
      </trkpt>
      <trkpt lat="45.90988" lon="4.67916">
        <ele>371.600006104</ele>
        <time>2015-12-09T14:57:00.487Z</time>
      </trkpt>
      <trkpt lat="45.90995" lon="4.67922">
        <ele>372.299987793</ele>
        <time>2015-12-09T14:57:02.498Z</time>
      </trkpt>
      <trkpt lat="45.90999" lon="4.67924">
        <ele>372.899993896</ele>
        <time>2015-12-09T14:57:03.484Z</time>
      </trkpt>
      <trkpt lat="45.91006" lon="4.67927">
        <ele>372.799987793</ele>
        <time>2015-12-09T14:57:05.498Z</time>
      </trkpt>
      <trkpt lat="45.9101" lon="4.67929">
        <ele>372.899993896</ele>
        <time>2015-12-09T14:57:06.485Z</time>
      </trkpt>
      <trkpt lat="45.91018" lon="4.67932">
        <ele>373.200012207</ele>
        <time>2015-12-09T14:57:08.498Z</time>
      </trkpt>
      <trkpt lat="45.91021" lon="4.67934">
        <ele>373.200012207</ele>
        <time>2015-12-09T14:57:09.484Z</time>
      </trkpt>
      <trkpt lat="45.91029" lon="4.67938">
        <ele>374.100006104</ele>
        <time>2015-12-09T14:57:11.5Z</time>
      </trkpt>
      <trkpt lat="45.91033" lon="4.67939">
        <ele>374.299987793</ele>
        <time>2015-12-09T14:57:12.485Z</time>
      </trkpt>
      <trkpt lat="45.9104" lon="4.67942">
        <ele>374.399993896</ele>
        <time>2015-12-09T14:57:14.498Z</time>
      </trkpt>
      <trkpt lat="45.91043" lon="4.67944">
        <ele>374.600006104</ele>
        <time>2015-12-09T14:57:15.485Z</time>
      </trkpt>
      <trkpt lat="45.9105" lon="4.67946">
        <ele>374.899993896</ele>
        <time>2015-12-09T14:57:17.498Z</time>
      </trkpt>
      <trkpt lat="45.91053" lon="4.67948">
        <ele>375.100006104</ele>
        <time>2015-12-09T14:57:18.485Z</time>
      </trkpt>
      <trkpt lat="45.91059" lon="4.67951">
        <ele>375.899993896</ele>
        <time>2015-12-09T14:57:20.5Z</time>
      </trkpt>
      <trkpt lat="45.91062" lon="4.67953">
        <ele>375.899993896</ele>
        <time>2015-12-09T14:57:21.486Z</time>
      </trkpt>
      <trkpt lat="45.91069" lon="4.67956">
        <ele>376.399993896</ele>
        <time>2015-12-09T14:57:23.5Z</time>
      </trkpt>
      <trkpt lat="45.91072" lon="4.67957">
        <ele>376.600006104</ele>
        <time>2015-12-09T14:57:24.487Z</time>
      </trkpt>
      <trkpt lat="45.91079" lon="4.67958">
        <ele>376.799987793</ele>
        <time>2015-12-09T14:57:26.537Z</time>
      </trkpt>
      <trkpt lat="45.91082" lon="4.67959">
        <ele>376.799987793</ele>
        <time>2015-12-09T14:57:27.493Z</time>
      </trkpt>
      <trkpt lat="45.91089" lon="4.67961">
        <ele>376.899993896</ele>
        <time>2015-12-09T14:57:29.499Z</time>
      </trkpt>
      <trkpt lat="45.91092" lon="4.67962">
        <ele>377.100006104</ele>
        <time>2015-12-09T14:57:30.485Z</time>
      </trkpt>
      <trkpt lat="45.91099" lon="4.67961">
        <ele>377.200012207</ele>
        <time>2015-12-09T14:57:32.498Z</time>
      </trkpt>
      <trkpt lat="45.91103" lon="4.67961">
        <ele>377.200012207</ele>
        <time>2015-12-09T14:57:33.484Z</time>
      </trkpt>
      <trkpt lat="45.91109" lon="4.67962">
        <ele>377.600006104</ele>
        <time>2015-12-09T14:57:35.498Z</time>
      </trkpt>
      <trkpt lat="45.91112" lon="4.67964">
        <ele>377.700012207</ele>
        <time>2015-12-09T14:57:36.486Z</time>
      </trkpt>
      <trkpt lat="45.91118" lon="4.67968">
        <ele>378.200012207</ele>
        <time>2015-12-09T14:57:38.498Z</time>
      </trkpt>
      <trkpt lat="45.91121" lon="4.67969">
        <ele>378.399993896</ele>
        <time>2015-12-09T14:57:39.484Z</time>
      </trkpt>
      <trkpt lat="45.91127" lon="4.67972">
        <ele>378.899993896</ele>
        <time>2015-12-09T14:57:41.511Z</time>
      </trkpt>
      <trkpt lat="45.9113" lon="4.67973">
        <ele>378.799987793</ele>
        <time>2015-12-09T14:57:42.485Z</time>
      </trkpt>
      <trkpt lat="45.91137" lon="4.67976">
        <ele>379.600006104</ele>
        <time>2015-12-09T14:57:44.499Z</time>
      </trkpt>
      <trkpt lat="45.9114" lon="4.67977">
        <ele>379.600006104</ele>
        <time>2015-12-09T14:57:45.484Z</time>
      </trkpt>
      <trkpt lat="45.91147" lon="4.67979">
        <ele>380.399993896</ele>
        <time>2015-12-09T14:57:47.498Z</time>
      </trkpt>
      <trkpt lat="45.91151" lon="4.6798">
        <ele>380.600006104</ele>
        <time>2015-12-09T14:57:48.485Z</time>
      </trkpt>
      <trkpt lat="45.91158" lon="4.67984">
        <ele>380.799987793</ele>
        <time>2015-12-09T14:57:50.498Z</time>
      </trkpt>
      <trkpt lat="45.91161" lon="4.67986">
        <ele>380.899993896</ele>
        <time>2015-12-09T14:57:51.486Z</time>
      </trkpt>
      <trkpt lat="45.91169" lon="4.6799">
        <ele>381.100006104</ele>
        <time>2015-12-09T14:57:53.498Z</time>
      </trkpt>
      <trkpt lat="45.91172" lon="4.67992">
        <ele>381</ele>
        <time>2015-12-09T14:57:54.486Z</time>
      </trkpt>
      <trkpt lat="45.91179" lon="4.67997">
        <ele>380.899993896</ele>
        <time>2015-12-09T14:57:56.498Z</time>
      </trkpt>
      <trkpt lat="45.91182" lon="4.67999">
        <ele>381</ele>
        <time>2015-12-09T14:57:57.484Z</time>
      </trkpt>
      <trkpt lat="45.91189" lon="4.68002">
        <ele>381.299987793</ele>
        <time>2015-12-09T14:57:59.498Z</time>
      </trkpt>
      <trkpt lat="45.91193" lon="4.68005">
        <ele>381.5</ele>
        <time>2015-12-09T14:58:00.485Z</time>
      </trkpt>
      <trkpt lat="45.91199" lon="4.68008">
        <ele>381.600006104</ele>
        <time>2015-12-09T14:58:02.499Z</time>
      </trkpt>
      <trkpt lat="45.91202" lon="4.6801">
        <ele>381.600006104</ele>
        <time>2015-12-09T14:58:03.484Z</time>
      </trkpt>
      <trkpt lat="45.9121" lon="4.68012">
        <ele>381.799987793</ele>
        <time>2015-12-09T14:58:05.497Z</time>
      </trkpt>
      <trkpt lat="45.91213" lon="4.68014">
        <ele>382.100006104</ele>
        <time>2015-12-09T14:58:06.485Z</time>
      </trkpt>
      <trkpt lat="45.91219" lon="4.68018">
        <ele>382.5</ele>
        <time>2015-12-09T14:58:08.511Z</time>
      </trkpt>
      <trkpt lat="45.91222" lon="4.6802">
        <ele>382.600006104</ele>
        <time>2015-12-09T14:58:09.484Z</time>
      </trkpt>
      <trkpt lat="45.91229" lon="4.68023">
        <ele>382.899993896</ele>
        <time>2015-12-09T14:58:11.501Z</time>
      </trkpt>
      <trkpt lat="45.91232" lon="4.68025">
        <ele>383.200012207</ele>
        <time>2015-12-09T14:58:12.486Z</time>
      </trkpt>
      <trkpt lat="45.91238" lon="4.68028">
        <ele>383.399993896</ele>
        <time>2015-12-09T14:58:14.498Z</time>
      </trkpt>
      <trkpt lat="45.91241" lon="4.68029">
        <ele>383.5</ele>
        <time>2015-12-09T14:58:15.484Z</time>
      </trkpt>
      <trkpt lat="45.91248" lon="4.68033">
        <ele>383.399993896</ele>
        <time>2015-12-09T14:58:17.5Z</time>
      </trkpt>
      <trkpt lat="45.91251" lon="4.68035">
        <ele>383.700012207</ele>
        <time>2015-12-09T14:58:18.485Z</time>
      </trkpt>
      <trkpt lat="45.91257" lon="4.68037">
        <ele>384</ele>
        <time>2015-12-09T14:58:20.498Z</time>
      </trkpt>
      <trkpt lat="45.9126" lon="4.68038">
        <ele>384.200012207</ele>
        <time>2015-12-09T14:58:21.484Z</time>
      </trkpt>
      <trkpt lat="45.91266" lon="4.68041">
        <ele>385</ele>
        <time>2015-12-09T14:58:23.498Z</time>
      </trkpt>
      <trkpt lat="45.9127" lon="4.68042">
        <ele>385.100006104</ele>
        <time>2015-12-09T14:58:24.485Z</time>
      </trkpt>
      <trkpt lat="45.91276" lon="4.68047">
        <ele>385.700012207</ele>
        <time>2015-12-09T14:58:26.498Z</time>
      </trkpt>
      <trkpt lat="45.91279" lon="4.68049">
        <ele>385.799987793</ele>
        <time>2015-12-09T14:58:27.484Z</time>
      </trkpt>
      <trkpt lat="45.91286" lon="4.68052">
        <ele>386.200012207</ele>
        <time>2015-12-09T14:58:29.499Z</time>
      </trkpt>
      <trkpt lat="45.91289" lon="4.68054">
        <ele>386.200012207</ele>
        <time>2015-12-09T14:58:30.485Z</time>
      </trkpt>
      <trkpt lat="45.91296" lon="4.68057">
        <ele>386.299987793</ele>
        <time>2015-12-09T14:58:32.622Z</time>
      </trkpt>
      <trkpt lat="45.913" lon="4.68059">
        <ele>386.600006104</ele>
        <time>2015-12-09T14:58:33.484Z</time>
      </trkpt>
      <trkpt lat="45.91306" lon="4.68063">
        <ele>386.5</ele>
        <time>2015-12-09T14:58:35.497Z</time>
      </trkpt>
      <trkpt lat="45.9131" lon="4.68063">
        <ele>386.399993896</ele>
        <time>2015-12-09T14:58:36.485Z</time>
      </trkpt>
      <trkpt lat="45.91318" lon="4.68066">
        <ele>386.5</ele>
        <time>2015-12-09T14:58:38.498Z</time>
      </trkpt>
      <trkpt lat="45.91322" lon="4.68068">
        <ele>386.899993896</ele>
        <time>2015-12-09T14:58:39.484Z</time>
      </trkpt>
      <trkpt lat="45.91329" lon="4.68071">
        <ele>386.899993896</ele>
        <time>2015-12-09T14:58:41.498Z</time>
      </trkpt>
      <trkpt lat="45.91333" lon="4.68073">
        <ele>387.100006104</ele>
        <time>2015-12-09T14:58:42.485Z</time>
      </trkpt>
      <trkpt lat="45.91341" lon="4.68077">
        <ele>387.100006104</ele>
        <time>2015-12-09T14:58:44.498Z</time>
      </trkpt>
      <trkpt lat="45.91345" lon="4.68079">
        <ele>387.299987793</ele>
        <time>2015-12-09T14:58:45.484Z</time>
      </trkpt>
      <trkpt lat="45.91352" lon="4.68081">
        <ele>386.899993896</ele>
        <time>2015-12-09T14:58:47.497Z</time>
      </trkpt>
      <trkpt lat="45.91356" lon="4.68082">
        <ele>386.700012207</ele>
        <time>2015-12-09T14:58:48.485Z</time>
      </trkpt>
      <trkpt lat="45.91364" lon="4.68085">
        <ele>386.299987793</ele>
        <time>2015-12-09T14:58:50.512Z</time>
      </trkpt>
      <trkpt lat="45.91368" lon="4.68087">
        <ele>385.899993896</ele>
        <time>2015-12-09T14:58:51.484Z</time>
      </trkpt>
      <trkpt lat="45.91375" lon="4.68089">
        <ele>385.799987793</ele>
        <time>2015-12-09T14:58:53.497Z</time>
      </trkpt>
      <trkpt lat="45.91379" lon="4.68089">
        <ele>385.600006104</ele>
        <time>2015-12-09T14:58:54.486Z</time>
      </trkpt>
      <trkpt lat="45.91388" lon="4.68088">
        <ele>385.299987793</ele>
        <time>2015-12-09T14:58:56.497Z</time>
      </trkpt>
      <trkpt lat="45.91392" lon="4.68088">
        <ele>385.5</ele>
        <time>2015-12-09T14:58:57.484Z</time>
      </trkpt>
      <trkpt lat="45.91397" lon="4.68088">
        <ele>385.5</ele>
        <time>2015-12-09T14:58:58.502Z</time>
      </trkpt>
      <trkpt lat="45.91402" lon="4.68088">
        <ele>385.100006104</ele>
        <time>2015-12-09T14:58:59.484Z</time>
      </trkpt>
      <trkpt lat="45.9141" lon="4.68087">
        <ele>385.100006104</ele>
        <time>2015-12-09T14:59:01.498Z</time>
      </trkpt>
      <trkpt lat="45.91415" lon="4.68086">
        <ele>384.899993896</ele>
        <time>2015-12-09T14:59:02.483Z</time>
      </trkpt>
      <trkpt lat="45.91419" lon="4.68085">
        <ele>385.100006104</ele>
        <time>2015-12-09T14:59:03.497Z</time>
      </trkpt>
      <trkpt lat="45.91424" lon="4.68084">
        <ele>384.799987793</ele>
        <time>2015-12-09T14:59:04.487Z</time>
      </trkpt>
      <trkpt lat="45.91429" lon="4.68084">
        <ele>384.399993896</ele>
        <time>2015-12-09T14:59:05.498Z</time>
      </trkpt>
      <trkpt lat="45.91433" lon="4.68084">
        <ele>384.5</ele>
        <time>2015-12-09T14:59:06.5Z</time>
      </trkpt>
      <trkpt lat="45.91438" lon="4.68086">
        <ele>384.5</ele>
        <time>2015-12-09T14:59:07.498Z</time>
      </trkpt>
      <trkpt lat="45.91442" lon="4.68087">
        <ele>384.600006104</ele>
        <time>2015-12-09T14:59:08.484Z</time>
      </trkpt>
      <trkpt lat="45.91446" lon="4.68089">
        <ele>384.600006104</ele>
        <time>2015-12-09T14:59:09.5Z</time>
      </trkpt>
      <trkpt lat="45.91451" lon="4.6809">
        <ele>384.399993896</ele>
        <time>2015-12-09T14:59:10.487Z</time>
      </trkpt>
      <trkpt lat="45.91456" lon="4.68091">
        <ele>384.5</ele>
        <time>2015-12-09T14:59:11.5Z</time>
      </trkpt>
      <trkpt lat="45.9146" lon="4.68094">
        <ele>384</ele>
        <time>2015-12-09T14:59:12.485Z</time>
      </trkpt>
      <trkpt lat="45.91465" lon="4.68096">
        <ele>383.5</ele>
        <time>2015-12-09T14:59:13.498Z</time>
      </trkpt>
      <trkpt lat="45.9147" lon="4.68099">
        <ele>382.899993896</ele>
        <time>2015-12-09T14:59:14.484Z</time>
      </trkpt>
      <trkpt lat="45.91475" lon="4.68102">
        <ele>382.799987793</ele>
        <time>2015-12-09T14:59:15.498Z</time>
      </trkpt>
      <trkpt lat="45.9148" lon="4.68106">
        <ele>382.5</ele>
        <time>2015-12-09T14:59:16.487Z</time>
      </trkpt>
      <trkpt lat="45.91485" lon="4.6811">
        <ele>382.299987793</ele>
        <time>2015-12-09T14:59:17.498Z</time>
      </trkpt>
      <trkpt lat="45.91489" lon="4.68114">
        <ele>381.899993896</ele>
        <time>2015-12-09T14:59:18.625Z</time>
      </trkpt>
      <trkpt lat="45.91495" lon="4.68117">
        <ele>381.399993896</ele>
        <time>2015-12-09T14:59:19.498Z</time>
      </trkpt>
      <trkpt lat="45.915" lon="4.68121">
        <ele>380.899993896</ele>
        <time>2015-12-09T14:59:20.484Z</time>
      </trkpt>
      <trkpt lat="45.91505" lon="4.68125">
        <ele>380.600006104</ele>
        <time>2015-12-09T14:59:21.53Z</time>
      </trkpt>
      <trkpt lat="45.91511" lon="4.68129">
        <ele>380.200012207</ele>
        <time>2015-12-09T14:59:22.487Z</time>
      </trkpt>
      <trkpt lat="45.91516" lon="4.68133">
        <ele>379.899993896</ele>
        <time>2015-12-09T14:59:23.498Z</time>
      </trkpt>
      <trkpt lat="45.91522" lon="4.68136">
        <ele>379.600006104</ele>
        <time>2015-12-09T14:59:24.485Z</time>
      </trkpt>
      <trkpt lat="45.91528" lon="4.68139">
        <ele>379.200012207</ele>
        <time>2015-12-09T14:59:25.504Z</time>
      </trkpt>
      <trkpt lat="45.91535" lon="4.68142">
        <ele>379.200012207</ele>
        <time>2015-12-09T14:59:26.484Z</time>
      </trkpt>
      <trkpt lat="45.91541" lon="4.68145">
        <ele>378.600006104</ele>
        <time>2015-12-09T14:59:27.517Z</time>
      </trkpt>
      <trkpt lat="45.91548" lon="4.68149">
        <ele>378.5</ele>
        <time>2015-12-09T14:59:28.487Z</time>
      </trkpt>
      <trkpt lat="45.91555" lon="4.68152">
        <ele>378.200012207</ele>
        <time>2015-12-09T14:59:29.498Z</time>
      </trkpt>
      <trkpt lat="45.91561" lon="4.68156">
        <ele>377.899993896</ele>
        <time>2015-12-09T14:59:30.485Z</time>
      </trkpt>
      <trkpt lat="45.91567" lon="4.68159">
        <ele>377.399993896</ele>
        <time>2015-12-09T14:59:31.63Z</time>
      </trkpt>
      <trkpt lat="45.91572" lon="4.6816">
        <ele>377.100006104</ele>
        <time>2015-12-09T14:59:32.484Z</time>
      </trkpt>
      <trkpt lat="45.91579" lon="4.68162">
        <ele>376.799987793</ele>
        <time>2015-12-09T14:59:34.501Z</time>
      </trkpt>
      <trkpt lat="45.91584" lon="4.68164">
        <ele>376.600006104</ele>
        <time>2015-12-09T14:59:35.486Z</time>
      </trkpt>
      <trkpt lat="45.91589" lon="4.68168">
        <ele>376.700012207</ele>
        <time>2015-12-09T14:59:36.501Z</time>
      </trkpt>
      <trkpt lat="45.91594" lon="4.68172">
        <ele>376.600006104</ele>
        <time>2015-12-09T14:59:37.483Z</time>
      </trkpt>
      <trkpt lat="45.91599" lon="4.68177">
        <ele>376.399993896</ele>
        <time>2015-12-09T14:59:38.498Z</time>
      </trkpt>
      <trkpt lat="45.91604" lon="4.68182">
        <ele>376.200012207</ele>
        <time>2015-12-09T14:59:39.484Z</time>
      </trkpt>
      <trkpt lat="45.9161" lon="4.68187">
        <ele>375.899993896</ele>
        <time>2015-12-09T14:59:40.501Z</time>
      </trkpt>
      <trkpt lat="45.91615" lon="4.68192">
        <ele>375.399993896</ele>
        <time>2015-12-09T14:59:41.484Z</time>
      </trkpt>
      <trkpt lat="45.91621" lon="4.68197">
        <ele>374.799987793</ele>
        <time>2015-12-09T14:59:42.499Z</time>
      </trkpt>
      <trkpt lat="45.91627" lon="4.68202">
        <ele>374.600006104</ele>
        <time>2015-12-09T14:59:43.497Z</time>
      </trkpt>
      <trkpt lat="45.91634" lon="4.68207">
        <ele>374</ele>
        <time>2015-12-09T14:59:44.498Z</time>
      </trkpt>
      <trkpt lat="45.9164" lon="4.68212">
        <ele>373.799987793</ele>
        <time>2015-12-09T14:59:45.484Z</time>
      </trkpt>
      <trkpt lat="45.91647" lon="4.68216">
        <ele>373.5</ele>
        <time>2015-12-09T14:59:46.501Z</time>
      </trkpt>
      <trkpt lat="45.91654" lon="4.68219">
        <ele>372.5</ele>
        <time>2015-12-09T14:59:47.484Z</time>
      </trkpt>
      <trkpt lat="45.91661" lon="4.68224">
        <ele>372</ele>
        <time>2015-12-09T14:59:48.499Z</time>
      </trkpt>
      <trkpt lat="45.91668" lon="4.68228">
        <ele>371.600006104</ele>
        <time>2015-12-09T14:59:49.484Z</time>
      </trkpt>
      <trkpt lat="45.91675" lon="4.68233">
        <ele>371.299987793</ele>
        <time>2015-12-09T14:59:50.497Z</time>
      </trkpt>
      <trkpt lat="45.91683" lon="4.68237">
        <ele>370.600006104</ele>
        <time>2015-12-09T14:59:51.484Z</time>
      </trkpt>
      <trkpt lat="45.9169" lon="4.68242">
        <ele>370.600006104</ele>
        <time>2015-12-09T14:59:52.501Z</time>
      </trkpt>
      <trkpt lat="45.91696" lon="4.68246">
        <ele>370.299987793</ele>
        <time>2015-12-09T14:59:53.483Z</time>
      </trkpt>
      <trkpt lat="45.91703" lon="4.68249">
        <ele>369.899993896</ele>
        <time>2015-12-09T14:59:54.499Z</time>
      </trkpt>
      <trkpt lat="45.9171" lon="4.68252">
        <ele>369.600006104</ele>
        <time>2015-12-09T14:59:55.483Z</time>
      </trkpt>
      <trkpt lat="45.91717" lon="4.68255">
        <ele>369.299987793</ele>
        <time>2015-12-09T14:59:56.498Z</time>
      </trkpt>
      <trkpt lat="45.91723" lon="4.68257">
        <ele>368.700012207</ele>
        <time>2015-12-09T14:59:57.483Z</time>
      </trkpt>
      <trkpt lat="45.9173" lon="4.68259">
        <ele>368.399993896</ele>
        <time>2015-12-09T14:59:58.501Z</time>
      </trkpt>
      <trkpt lat="45.91736" lon="4.68262">
        <ele>367.899993896</ele>
        <time>2015-12-09T14:59:59.484Z</time>
      </trkpt>
      <trkpt lat="45.91742" lon="4.68264">
        <ele>367.399993896</ele>
        <time>2015-12-09T15:00:00.502Z</time>
      </trkpt>
      <trkpt lat="45.91748" lon="4.68266">
        <ele>367.399993896</ele>
        <time>2015-12-09T15:00:01.486Z</time>
      </trkpt>
      <trkpt lat="45.91754" lon="4.68268">
        <ele>367.600006104</ele>
        <time>2015-12-09T15:00:02.497Z</time>
      </trkpt>
      <trkpt lat="45.91759" lon="4.6827">
        <ele>367.5</ele>
        <time>2015-12-09T15:00:03.483Z</time>
      </trkpt>
      <trkpt lat="45.91764" lon="4.68271">
        <ele>367.600006104</ele>
        <time>2015-12-09T15:00:04.515Z</time>
      </trkpt>
      <trkpt lat="45.91769" lon="4.68273">
        <ele>367.799987793</ele>
        <time>2015-12-09T15:00:05.484Z</time>
      </trkpt>
      <trkpt lat="45.91775" lon="4.68274">
        <ele>367.899993896</ele>
        <time>2015-12-09T15:00:06.498Z</time>
      </trkpt>
      <trkpt lat="45.9178" lon="4.68276">
        <ele>368.100006104</ele>
        <time>2015-12-09T15:00:07.484Z</time>
      </trkpt>
      <trkpt lat="45.91785" lon="4.68277">
        <ele>368.100006104</ele>
        <time>2015-12-09T15:00:08.498Z</time>
      </trkpt>
      <trkpt lat="45.9179" lon="4.68278">
        <ele>368.299987793</ele>
        <time>2015-12-09T15:00:09.484Z</time>
      </trkpt>
      <trkpt lat="45.91795" lon="4.68279">
        <ele>368.899993896</ele>
        <time>2015-12-09T15:00:10.507Z</time>
      </trkpt>
      <trkpt lat="45.918" lon="4.68279">
        <ele>369.100006104</ele>
        <time>2015-12-09T15:00:11.486Z</time>
      </trkpt>
      <trkpt lat="45.91805" lon="4.68281">
        <ele>369.700012207</ele>
        <time>2015-12-09T15:00:12.498Z</time>
      </trkpt>
      <trkpt lat="45.9181" lon="4.68281">
        <ele>369.700012207</ele>
        <time>2015-12-09T15:00:13.483Z</time>
      </trkpt>
      <trkpt lat="45.91815" lon="4.68281">
        <ele>369.399993896</ele>
        <time>2015-12-09T15:00:14.497Z</time>
      </trkpt>
      <trkpt lat="45.91821" lon="4.68282">
        <ele>369.399993896</ele>
        <time>2015-12-09T15:00:15.484Z</time>
      </trkpt>
      <trkpt lat="45.91826" lon="4.68283">
        <ele>369</ele>
        <time>2015-12-09T15:00:16.5Z</time>
      </trkpt>
      <trkpt lat="45.91831" lon="4.68284">
        <ele>369.200012207</ele>
        <time>2015-12-09T15:00:17.484Z</time>
      </trkpt>
      <trkpt lat="45.91836" lon="4.68285">
        <ele>369.799987793</ele>
        <time>2015-12-09T15:00:18.54Z</time>
      </trkpt>
      <trkpt lat="45.9184" lon="4.68286">
        <ele>370</ele>
        <time>2015-12-09T15:00:19.511Z</time>
      </trkpt>
      <trkpt lat="45.91845" lon="4.68287">
        <ele>369.799987793</ele>
        <time>2015-12-09T15:00:20.512Z</time>
      </trkpt>
      <trkpt lat="45.91849" lon="4.68287">
        <ele>369.899993896</ele>
        <time>2015-12-09T15:00:21.484Z</time>
      </trkpt>
      <trkpt lat="45.91858" lon="4.68288">
        <ele>370.799987793</ele>
        <time>2015-12-09T15:00:23.498Z</time>
      </trkpt>
      <trkpt lat="45.91862" lon="4.68289">
        <ele>371.200012207</ele>
        <time>2015-12-09T15:00:24.484Z</time>
      </trkpt>
      <trkpt lat="45.9187" lon="4.68289">
        <ele>373</ele>
        <time>2015-12-09T15:00:26.497Z</time>
      </trkpt>
      <trkpt lat="45.91875" lon="4.6829">
        <ele>373</ele>
        <time>2015-12-09T15:00:27.486Z</time>
      </trkpt>
      <trkpt lat="45.91883" lon="4.68291">
        <ele>373.5</ele>
        <time>2015-12-09T15:00:29.498Z</time>
      </trkpt>
      <trkpt lat="45.91887" lon="4.68291">
        <ele>373.899993896</ele>
        <time>2015-12-09T15:00:30.484Z</time>
      </trkpt>
      <trkpt lat="45.91895" lon="4.68291">
        <ele>374.299987793</ele>
        <time>2015-12-09T15:00:32.498Z</time>
      </trkpt>
      <trkpt lat="45.91899" lon="4.68292">
        <ele>373.600006104</ele>
        <time>2015-12-09T15:00:33.484Z</time>
      </trkpt>
      <trkpt lat="45.91908" lon="4.68294">
        <ele>373.5</ele>
        <time>2015-12-09T15:00:35.497Z</time>
      </trkpt>
      <trkpt lat="45.91912" lon="4.68295">
        <ele>374</ele>
        <time>2015-12-09T15:00:36.499Z</time>
      </trkpt>
      <trkpt lat="45.9192" lon="4.68296">
        <ele>375.200012207</ele>
        <time>2015-12-09T15:00:38.498Z</time>
      </trkpt>
      <trkpt lat="45.91925" lon="4.68296">
        <ele>375.200012207</ele>
        <time>2015-12-09T15:00:39.484Z</time>
      </trkpt>
      <trkpt lat="45.91933" lon="4.68298">
        <ele>375.799987793</ele>
        <time>2015-12-09T15:00:41.497Z</time>
      </trkpt>
      <trkpt lat="45.91937" lon="4.683">
        <ele>376.399993896</ele>
        <time>2015-12-09T15:00:42.485Z</time>
      </trkpt>
      <trkpt lat="45.91945" lon="4.68303">
        <ele>377.399993896</ele>
        <time>2015-12-09T15:00:44.497Z</time>
      </trkpt>
      <trkpt lat="45.91949" lon="4.68304">
        <ele>377.5</ele>
        <time>2015-12-09T15:00:45.483Z</time>
      </trkpt>
      <trkpt lat="45.91957" lon="4.68306">
        <ele>378</ele>
        <time>2015-12-09T15:00:47.512Z</time>
      </trkpt>
      <trkpt lat="45.91961" lon="4.68307">
        <ele>377.899993896</ele>
        <time>2015-12-09T15:00:48.485Z</time>
      </trkpt>
      <trkpt lat="45.91968" lon="4.68309">
        <ele>378.100006104</ele>
        <time>2015-12-09T15:00:50.497Z</time>
      </trkpt>
      <trkpt lat="45.91973" lon="4.6831">
        <ele>378.100006104</ele>
        <time>2015-12-09T15:00:51.483Z</time>
      </trkpt>
      <trkpt lat="45.9198" lon="4.68312">
        <ele>378.600006104</ele>
        <time>2015-12-09T15:00:53.5Z</time>
      </trkpt>
      <trkpt lat="45.91984" lon="4.68313">
        <ele>378.700012207</ele>
        <time>2015-12-09T15:00:54.485Z</time>
      </trkpt>
      <trkpt lat="45.91991" lon="4.68316">
        <ele>379.299987793</ele>
        <time>2015-12-09T15:00:56.498Z</time>
      </trkpt>
      <trkpt lat="45.91995" lon="4.68317">
        <ele>379.600006104</ele>
        <time>2015-12-09T15:00:57.484Z</time>
      </trkpt>
      <trkpt lat="45.92002" lon="4.6832">
        <ele>381.399993896</ele>
        <time>2015-12-09T15:00:59.552Z</time>
      </trkpt>
      <trkpt lat="45.92005" lon="4.68322">
        <ele>382.100006104</ele>
        <time>2015-12-09T15:01:00.485Z</time>
      </trkpt>
      <trkpt lat="45.92013" lon="4.68322">
        <ele>383</ele>
        <time>2015-12-09T15:01:02.506Z</time>
      </trkpt>
      <trkpt lat="45.92017" lon="4.68321">
        <ele>383.200012207</ele>
        <time>2015-12-09T15:01:03.484Z</time>
      </trkpt>
      <trkpt lat="45.92026" lon="4.68322">
        <ele>384.100006104</ele>
        <time>2015-12-09T15:01:05.498Z</time>
      </trkpt>
      <trkpt lat="45.9203" lon="4.68322">
        <ele>384</ele>
        <time>2015-12-09T15:01:06.485Z</time>
      </trkpt>
      <trkpt lat="45.92039" lon="4.68324">
        <ele>383.700012207</ele>
        <time>2015-12-09T15:01:08.498Z</time>
      </trkpt>
      <trkpt lat="45.92043" lon="4.68325">
        <ele>383.899993896</ele>
        <time>2015-12-09T15:01:09.483Z</time>
      </trkpt>
      <trkpt lat="45.92048" lon="4.68326">
        <ele>384.100006104</ele>
        <time>2015-12-09T15:01:10.5Z</time>
      </trkpt>
      <trkpt lat="45.92053" lon="4.68327">
        <ele>384.299987793</ele>
        <time>2015-12-09T15:01:11.486Z</time>
      </trkpt>
      <trkpt lat="45.92061" lon="4.6833">
        <ele>384.5</ele>
        <time>2015-12-09T15:01:13.498Z</time>
      </trkpt>
      <trkpt lat="45.92065" lon="4.68331">
        <ele>384.399993896</ele>
        <time>2015-12-09T15:01:14.498Z</time>
      </trkpt>
      <trkpt lat="45.92074" lon="4.68332">
        <ele>384.100006104</ele>
        <time>2015-12-09T15:01:16.504Z</time>
      </trkpt>
      <trkpt lat="45.92078" lon="4.68333">
        <ele>383.899993896</ele>
        <time>2015-12-09T15:01:17.484Z</time>
      </trkpt>
      <trkpt lat="45.92086" lon="4.68336">
        <ele>384.200012207</ele>
        <time>2015-12-09T15:01:19.508Z</time>
      </trkpt>
      <trkpt lat="45.9209" lon="4.68337">
        <ele>384.100006104</ele>
        <time>2015-12-09T15:01:20.483Z</time>
      </trkpt>
      <trkpt lat="45.92099" lon="4.6834">
        <ele>384.299987793</ele>
        <time>2015-12-09T15:01:22.51Z</time>
      </trkpt>
      <trkpt lat="45.92104" lon="4.68341">
        <ele>384.100006104</ele>
        <time>2015-12-09T15:01:23.483Z</time>
      </trkpt>
      <trkpt lat="45.92108" lon="4.68343">
        <ele>384.100006104</ele>
        <time>2015-12-09T15:01:24.499Z</time>
      </trkpt>
      <trkpt lat="45.92112" lon="4.68345">
        <ele>384.299987793</ele>
        <time>2015-12-09T15:01:25.483Z</time>
      </trkpt>
      <trkpt lat="45.92116" lon="4.68348">
        <ele>384.200012207</ele>
        <time>2015-12-09T15:01:26.497Z</time>
      </trkpt>
      <trkpt lat="45.9212" lon="4.6835">
        <ele>383.799987793</ele>
        <time>2015-12-09T15:01:27.483Z</time>
      </trkpt>
      <trkpt lat="45.92125" lon="4.68353">
        <ele>383.799987793</ele>
        <time>2015-12-09T15:01:28.501Z</time>
      </trkpt>
      <trkpt lat="45.92129" lon="4.68357">
        <ele>384.299987793</ele>
        <time>2015-12-09T15:01:29.484Z</time>
      </trkpt>
      <trkpt lat="45.92137" lon="4.68362">
        <ele>384.700012207</ele>
        <time>2015-12-09T15:01:31.497Z</time>
      </trkpt>
      <trkpt lat="45.9214" lon="4.68366">
        <ele>385</ele>
        <time>2015-12-09T15:01:32.483Z</time>
      </trkpt>
      <trkpt lat="45.92148" lon="4.68373">
        <ele>385.200012207</ele>
        <time>2015-12-09T15:01:34.501Z</time>
      </trkpt>
      <trkpt lat="45.92152" lon="4.68376">
        <ele>385.299987793</ele>
        <time>2015-12-09T15:01:35.483Z</time>
      </trkpt>
      <trkpt lat="45.92159" lon="4.68383">
        <ele>385.899993896</ele>
        <time>2015-12-09T15:01:37.498Z</time>
      </trkpt>
      <trkpt lat="45.92162" lon="4.68386">
        <ele>385.799987793</ele>
        <time>2015-12-09T15:01:38.483Z</time>
      </trkpt>
      <trkpt lat="45.92169" lon="4.68394">
        <ele>386.200012207</ele>
        <time>2015-12-09T15:01:40.501Z</time>
      </trkpt>
      <trkpt lat="45.92172" lon="4.68399">
        <ele>386.100006104</ele>
        <time>2015-12-09T15:01:41.484Z</time>
      </trkpt>
      <trkpt lat="45.92177" lon="4.68407">
        <ele>386.299987793</ele>
        <time>2015-12-09T15:01:43.497Z</time>
      </trkpt>
      <trkpt lat="45.9218" lon="4.68412">
        <ele>386.200012207</ele>
        <time>2015-12-09T15:01:44.483Z</time>
      </trkpt>
      <trkpt lat="45.92187" lon="4.6842">
        <ele>385.799987793</ele>
        <time>2015-12-09T15:01:46.502Z</time>
      </trkpt>
      <trkpt lat="45.92191" lon="4.68422">
        <ele>385.799987793</ele>
        <time>2015-12-09T15:01:47.483Z</time>
      </trkpt>
      <trkpt lat="45.92195" lon="4.68424">
        <ele>385.5</ele>
        <time>2015-12-09T15:01:48.499Z</time>
      </trkpt>
      <trkpt lat="45.922" lon="4.68426">
        <ele>385.200012207</ele>
        <time>2015-12-09T15:01:49.483Z</time>
      </trkpt>
      <trkpt lat="45.92204" lon="4.68429">
        <ele>385.200012207</ele>
        <time>2015-12-09T15:01:50.498Z</time>
      </trkpt>
      <trkpt lat="45.92209" lon="4.68431">
        <ele>385.399993896</ele>
        <time>2015-12-09T15:01:51.483Z</time>
      </trkpt>
      <trkpt lat="45.92214" lon="4.68433">
        <ele>385.299987793</ele>
        <time>2015-12-09T15:01:52.501Z</time>
      </trkpt>
      <trkpt lat="45.92218" lon="4.68436">
        <ele>385.100006104</ele>
        <time>2015-12-09T15:01:53.483Z</time>
      </trkpt>
      <trkpt lat="45.92222" lon="4.68439">
        <ele>384.799987793</ele>
        <time>2015-12-09T15:01:54.499Z</time>
      </trkpt>
      <trkpt lat="45.92226" lon="4.68444">
        <ele>384.600006104</ele>
        <time>2015-12-09T15:01:55.483Z</time>
      </trkpt>
      <trkpt lat="45.92229" lon="4.68448">
        <ele>384.299987793</ele>
        <time>2015-12-09T15:01:56.497Z</time>
      </trkpt>
      <trkpt lat="45.92233" lon="4.68453">
        <ele>384</ele>
        <time>2015-12-09T15:01:57.484Z</time>
      </trkpt>
      <trkpt lat="45.92237" lon="4.68457">
        <ele>383.899993896</ele>
        <time>2015-12-09T15:01:58.501Z</time>
      </trkpt>
      <trkpt lat="45.92242" lon="4.68461">
        <ele>383.799987793</ele>
        <time>2015-12-09T15:01:59.483Z</time>
      </trkpt>
      <trkpt lat="45.92246" lon="4.68465">
        <ele>383.899993896</ele>
        <time>2015-12-09T15:02:00.499Z</time>
      </trkpt>
      <trkpt lat="45.92249" lon="4.68469">
        <ele>383.799987793</ele>
        <time>2015-12-09T15:02:01.483Z</time>
      </trkpt>
      <trkpt lat="45.92253" lon="4.68474">
        <ele>383.799987793</ele>
        <time>2015-12-09T15:02:02.498Z</time>
      </trkpt>
      <trkpt lat="45.92257" lon="4.68479">
        <ele>384</ele>
        <time>2015-12-09T15:02:03.483Z</time>
      </trkpt>
      <trkpt lat="45.92261" lon="4.68483">
        <ele>384.200012207</ele>
        <time>2015-12-09T15:02:04.501Z</time>
      </trkpt>
      <trkpt lat="45.92264" lon="4.68488">
        <ele>384.600006104</ele>
        <time>2015-12-09T15:02:05.484Z</time>
      </trkpt>
      <trkpt lat="45.92268" lon="4.68492">
        <ele>384.399993896</ele>
        <time>2015-12-09T15:02:06.499Z</time>
      </trkpt>
      <trkpt lat="45.92273" lon="4.68496">
        <ele>384.399993896</ele>
        <time>2015-12-09T15:02:07.483Z</time>
      </trkpt>
      <trkpt lat="45.92277" lon="4.68499">
        <ele>384.600006104</ele>
        <time>2015-12-09T15:02:08.497Z</time>
      </trkpt>
      <trkpt lat="45.92281" lon="4.68503">
        <ele>384.799987793</ele>
        <time>2015-12-09T15:02:09.483Z</time>
      </trkpt>
      <trkpt lat="45.92285" lon="4.68507">
        <ele>384.600006104</ele>
        <time>2015-12-09T15:02:10.529Z</time>
      </trkpt>
      <trkpt lat="45.92289" lon="4.68511">
        <ele>384.399993896</ele>
        <time>2015-12-09T15:02:11.488Z</time>
      </trkpt>
      <trkpt lat="45.92294" lon="4.68515">
        <ele>384.700012207</ele>
        <time>2015-12-09T15:02:12.513Z</time>
      </trkpt>
      <trkpt lat="45.92298" lon="4.68519">
        <ele>384.700012207</ele>
        <time>2015-12-09T15:02:13.483Z</time>
      </trkpt>
      <trkpt lat="45.92302" lon="4.68522">
        <ele>385.100006104</ele>
        <time>2015-12-09T15:02:14.497Z</time>
      </trkpt>
      <trkpt lat="45.92306" lon="4.68526">
        <ele>385.299987793</ele>
        <time>2015-12-09T15:02:15.483Z</time>
      </trkpt>
      <trkpt lat="45.92311" lon="4.6853">
        <ele>385.299987793</ele>
        <time>2015-12-09T15:02:16.501Z</time>
      </trkpt>
      <trkpt lat="45.92314" lon="4.68535">
        <ele>385.399993896</ele>
        <time>2015-12-09T15:02:17.484Z</time>
      </trkpt>
      <trkpt lat="45.92319" lon="4.68538">
        <ele>385.5</ele>
        <time>2015-12-09T15:02:18.496Z</time>
      </trkpt>
      <trkpt lat="45.92323" lon="4.68542">
        <ele>385.600006104</ele>
        <time>2015-12-09T15:02:19.483Z</time>
      </trkpt>
      <trkpt lat="45.92327" lon="4.68546">
        <ele>385.399993896</ele>
        <time>2015-12-09T15:02:20.498Z</time>
      </trkpt>
      <trkpt lat="45.92332" lon="4.68549">
        <ele>385.200012207</ele>
        <time>2015-12-09T15:02:21.483Z</time>
      </trkpt>
      <trkpt lat="45.92336" lon="4.68551">
        <ele>385.100006104</ele>
        <time>2015-12-09T15:02:22.501Z</time>
      </trkpt>
      <trkpt lat="45.9234" lon="4.68554">
        <ele>385</ele>
        <time>2015-12-09T15:02:23.483Z</time>
      </trkpt>
      <trkpt lat="45.92345" lon="4.68557">
        <ele>384.899993896</ele>
        <time>2015-12-09T15:02:24.498Z</time>
      </trkpt>
      <trkpt lat="45.92349" lon="4.6856">
        <ele>384.899993896</ele>
        <time>2015-12-09T15:02:25.615Z</time>
      </trkpt>
      <trkpt lat="45.92354" lon="4.68564">
        <ele>384.5</ele>
        <time>2015-12-09T15:02:26.499Z</time>
      </trkpt>
      <trkpt lat="45.92358" lon="4.68568">
        <ele>384.399993896</ele>
        <time>2015-12-09T15:02:27.485Z</time>
      </trkpt>
      <trkpt lat="45.92363" lon="4.68571">
        <ele>384.299987793</ele>
        <time>2015-12-09T15:02:28.517Z</time>
      </trkpt>
      <trkpt lat="45.92368" lon="4.68574">
        <ele>384.200012207</ele>
        <time>2015-12-09T15:02:29.485Z</time>
      </trkpt>
      <trkpt lat="45.92373" lon="4.68577">
        <ele>384.100006104</ele>
        <time>2015-12-09T15:02:30.504Z</time>
      </trkpt>
      <trkpt lat="45.92378" lon="4.6858">
        <ele>384.100006104</ele>
        <time>2015-12-09T15:02:31.483Z</time>
      </trkpt>
      <trkpt lat="45.92383" lon="4.68582">
        <ele>383.899993896</ele>
        <time>2015-12-09T15:02:32.497Z</time>
      </trkpt>
      <trkpt lat="45.92388" lon="4.68586">
        <ele>384</ele>
        <time>2015-12-09T15:02:33.483Z</time>
      </trkpt>
      <trkpt lat="45.92392" lon="4.6859">
        <ele>383.899993896</ele>
        <time>2015-12-09T15:02:34.501Z</time>
      </trkpt>
      <trkpt lat="45.92397" lon="4.68593">
        <ele>383.299987793</ele>
        <time>2015-12-09T15:02:35.483Z</time>
      </trkpt>
      <trkpt lat="45.92403" lon="4.68596">
        <ele>383.100006104</ele>
        <time>2015-12-09T15:02:36.498Z</time>
      </trkpt>
      <trkpt lat="45.92408" lon="4.68599">
        <ele>382.799987793</ele>
        <time>2015-12-09T15:02:37.486Z</time>
      </trkpt>
      <trkpt lat="45.92413" lon="4.68602">
        <ele>382.5</ele>
        <time>2015-12-09T15:02:38.498Z</time>
      </trkpt>
      <trkpt lat="45.92419" lon="4.68605">
        <ele>382.100006104</ele>
        <time>2015-12-09T15:02:39.483Z</time>
      </trkpt>
      <trkpt lat="45.92424" lon="4.68608">
        <ele>382</ele>
        <time>2015-12-09T15:02:40.5Z</time>
      </trkpt>
      <trkpt lat="45.9243" lon="4.68611">
        <ele>380.200012207</ele>
        <time>2015-12-09T15:02:41.483Z</time>
      </trkpt>
      <trkpt lat="45.92436" lon="4.68614">
        <ele>380.299987793</ele>
        <time>2015-12-09T15:02:42.499Z</time>
      </trkpt>
      <trkpt lat="45.92441" lon="4.68618">
        <ele>380</ele>
        <time>2015-12-09T15:02:43.483Z</time>
      </trkpt>
      <trkpt lat="45.92448" lon="4.68621">
        <ele>379.5</ele>
        <time>2015-12-09T15:02:44.511Z</time>
      </trkpt>
      <trkpt lat="45.92454" lon="4.68624">
        <ele>379</ele>
        <time>2015-12-09T15:02:45.483Z</time>
      </trkpt>
      <trkpt lat="45.9246" lon="4.68627">
        <ele>378.5</ele>
        <time>2015-12-09T15:02:46.501Z</time>
      </trkpt>
      <trkpt lat="45.92467" lon="4.6863">
        <ele>378.100006104</ele>
        <time>2015-12-09T15:02:47.483Z</time>
      </trkpt>
      <trkpt lat="45.92473" lon="4.68633">
        <ele>377.799987793</ele>
        <time>2015-12-09T15:02:48.498Z</time>
      </trkpt>
      <trkpt lat="45.9248" lon="4.68636">
        <ele>377.399993896</ele>
        <time>2015-12-09T15:02:49.483Z</time>
      </trkpt>
      <trkpt lat="45.92487" lon="4.68639">
        <ele>376.899993896</ele>
        <time>2015-12-09T15:02:50.498Z</time>
      </trkpt>
      <trkpt lat="45.92494" lon="4.68641">
        <ele>376.399993896</ele>
        <time>2015-12-09T15:02:51.483Z</time>
      </trkpt>
      <trkpt lat="45.92502" lon="4.68643">
        <ele>376</ele>
        <time>2015-12-09T15:02:52.5Z</time>
      </trkpt>
      <trkpt lat="45.9251" lon="4.68645">
        <ele>374.899993896</ele>
        <time>2015-12-09T15:02:53.521Z</time>
      </trkpt>
      <trkpt lat="45.92518" lon="4.68647">
        <ele>374.200012207</ele>
        <time>2015-12-09T15:02:54.499Z</time>
      </trkpt>
      <trkpt lat="45.92526" lon="4.68648">
        <ele>373.799987793</ele>
        <time>2015-12-09T15:02:55.483Z</time>
      </trkpt>
      <trkpt lat="45.92534" lon="4.6865">
        <ele>373.399993896</ele>
        <time>2015-12-09T15:02:56.497Z</time>
      </trkpt>
      <trkpt lat="45.92541" lon="4.68652">
        <ele>373.100006104</ele>
        <time>2015-12-09T15:02:57.483Z</time>
      </trkpt>
      <trkpt lat="45.92548" lon="4.68654">
        <ele>372.5</ele>
        <time>2015-12-09T15:02:58.5Z</time>
      </trkpt>
      <trkpt lat="45.92555" lon="4.68655">
        <ele>372.100006104</ele>
        <time>2015-12-09T15:02:59.483Z</time>
      </trkpt>
      <trkpt lat="45.92561" lon="4.68655">
        <ele>371.799987793</ele>
        <time>2015-12-09T15:03:00.502Z</time>
      </trkpt>
      <trkpt lat="45.92566" lon="4.68654">
        <ele>371.299987793</ele>
        <time>2015-12-09T15:03:01.483Z</time>
      </trkpt>
      <trkpt lat="45.92571" lon="4.68651">
        <ele>370.5</ele>
        <time>2015-12-09T15:03:02.497Z</time>
      </trkpt>
      <trkpt lat="45.92576" lon="4.68646">
        <ele>370.100006104</ele>
        <time>2015-12-09T15:03:03.486Z</time>
      </trkpt>
      <trkpt lat="45.9258" lon="4.68643">
        <ele>369.600006104</ele>
        <time>2015-12-09T15:03:04.502Z</time>
      </trkpt>
      <trkpt lat="45.92584" lon="4.68641">
        <ele>369.299987793</ele>
        <time>2015-12-09T15:03:05.483Z</time>
      </trkpt>
      <trkpt lat="45.92593" lon="4.68637">
        <ele>368.799987793</ele>
        <time>2015-12-09T15:03:07.497Z</time>
      </trkpt>
      <trkpt lat="45.92596" lon="4.68636">
        <ele>368.5</ele>
        <time>2015-12-09T15:03:08.483Z</time>
      </trkpt>
      <trkpt lat="45.92603" lon="4.68633">
        <ele>367.700012207</ele>
        <time>2015-12-09T15:03:11.505Z</time>
      </trkpt>
      <trkpt lat="45.92605" lon="4.68633">
        <ele>367.5</ele>
        <time>2015-12-09T15:03:12.484Z</time>
      </trkpt>
      <trkpt lat="45.92611" lon="4.68634">
        <ele>367.700012207</ele>
        <time>2015-12-09T15:03:14.497Z</time>
      </trkpt>
      <trkpt lat="45.92616" lon="4.68632">
        <ele>367.399993896</ele>
        <time>2015-12-09T15:03:15.483Z</time>
      </trkpt>
      <trkpt lat="45.92623" lon="4.68627">
        <ele>367</ele>
        <time>2015-12-09T15:03:17.497Z</time>
      </trkpt>
      <trkpt lat="45.92627" lon="4.68625">
        <ele>366.799987793</ele>
        <time>2015-12-09T15:03:18.484Z</time>
      </trkpt>
      <trkpt lat="45.92632" lon="4.68622">
        <ele>366.600006104</ele>
        <time>2015-12-09T15:03:19.497Z</time>
      </trkpt>
      <trkpt lat="45.92637" lon="4.68619">
        <ele>366.899993896</ele>
        <time>2015-12-09T15:03:20.483Z</time>
      </trkpt>
      <trkpt lat="45.92641" lon="4.68618">
        <ele>367</ele>
        <time>2015-12-09T15:03:21.497Z</time>
      </trkpt>
      <trkpt lat="45.92646" lon="4.68616">
        <ele>367</ele>
        <time>2015-12-09T15:03:22.486Z</time>
      </trkpt>
      <trkpt lat="45.92651" lon="4.68613">
        <ele>366.799987793</ele>
        <time>2015-12-09T15:03:23.529Z</time>
      </trkpt>
      <trkpt lat="45.92656" lon="4.68611">
        <ele>366.600006104</ele>
        <time>2015-12-09T15:03:24.485Z</time>
      </trkpt>
      <trkpt lat="45.92661" lon="4.68608">
        <ele>366.399993896</ele>
        <time>2015-12-09T15:03:25.497Z</time>
      </trkpt>
      <trkpt lat="45.92666" lon="4.68606">
        <ele>366.5</ele>
        <time>2015-12-09T15:03:26.496Z</time>
      </trkpt>
      <trkpt lat="45.92671" lon="4.68605">
        <ele>366.299987793</ele>
        <time>2015-12-09T15:03:27.497Z</time>
      </trkpt>
      <trkpt lat="45.92676" lon="4.68603">
        <ele>366</ele>
        <time>2015-12-09T15:03:28.487Z</time>
      </trkpt>
      <trkpt lat="45.92681" lon="4.68601">
        <ele>365.799987793</ele>
        <time>2015-12-09T15:03:29.5Z</time>
      </trkpt>
      <trkpt lat="45.92686" lon="4.68599">
        <ele>365.600006104</ele>
        <time>2015-12-09T15:03:30.484Z</time>
      </trkpt>
      <trkpt lat="45.92691" lon="4.68597">
        <ele>365.299987793</ele>
        <time>2015-12-09T15:03:31.497Z</time>
      </trkpt>
      <trkpt lat="45.92696" lon="4.68596">
        <ele>365.299987793</ele>
        <time>2015-12-09T15:03:32.483Z</time>
      </trkpt>
      <trkpt lat="45.92701" lon="4.68594">
        <ele>365.200012207</ele>
        <time>2015-12-09T15:03:33.497Z</time>
      </trkpt>
      <trkpt lat="45.92706" lon="4.68592">
        <ele>365.200012207</ele>
        <time>2015-12-09T15:03:34.486Z</time>
      </trkpt>
      <trkpt lat="45.9271" lon="4.68589">
        <ele>364.700012207</ele>
        <time>2015-12-09T15:03:35.497Z</time>
      </trkpt>
      <trkpt lat="45.92715" lon="4.68587">
        <ele>364.700012207</ele>
        <time>2015-12-09T15:03:36.485Z</time>
      </trkpt>
      <trkpt lat="45.9272" lon="4.68585">
        <ele>364.5</ele>
        <time>2015-12-09T15:03:37.497Z</time>
      </trkpt>
      <trkpt lat="45.92725" lon="4.68582">
        <ele>364.399993896</ele>
        <time>2015-12-09T15:03:38.483Z</time>
      </trkpt>
      <trkpt lat="45.9273" lon="4.68581">
        <ele>364.200012207</ele>
        <time>2015-12-09T15:03:39.497Z</time>
      </trkpt>
      <trkpt lat="45.92736" lon="4.68579">
        <ele>364.299987793</ele>
        <time>2015-12-09T15:03:40.487Z</time>
      </trkpt>
      <trkpt lat="45.92742" lon="4.68578">
        <ele>364.299987793</ele>
        <time>2015-12-09T15:03:41.497Z</time>
      </trkpt>
      <trkpt lat="45.92749" lon="4.68577">
        <ele>364.299987793</ele>
        <time>2015-12-09T15:03:42.485Z</time>
      </trkpt>
      <trkpt lat="45.92755" lon="4.68576">
        <ele>364.100006104</ele>
        <time>2015-12-09T15:03:43.497Z</time>
      </trkpt>
      <trkpt lat="45.92761" lon="4.68576">
        <ele>363.899993896</ele>
        <time>2015-12-09T15:03:44.483Z</time>
      </trkpt>
      <trkpt lat="45.92768" lon="4.68575">
        <ele>364.200012207</ele>
        <time>2015-12-09T15:03:45.497Z</time>
      </trkpt>
      <trkpt lat="45.92775" lon="4.68574">
        <ele>364.299987793</ele>
        <time>2015-12-09T15:03:46.487Z</time>
      </trkpt>
      <trkpt lat="45.92782" lon="4.68575">
        <ele>363.799987793</ele>
        <time>2015-12-09T15:03:47.51Z</time>
      </trkpt>
      <trkpt lat="45.92789" lon="4.68576">
        <ele>363.600006104</ele>
        <time>2015-12-09T15:03:48.484Z</time>
      </trkpt>
      <trkpt lat="45.92796" lon="4.68577">
        <ele>363.600006104</ele>
        <time>2015-12-09T15:03:49.533Z</time>
      </trkpt>
      <trkpt lat="45.92803" lon="4.68579">
        <ele>363.399993896</ele>
        <time>2015-12-09T15:03:50.483Z</time>
      </trkpt>
      <trkpt lat="45.9281" lon="4.68581">
        <ele>363.200012207</ele>
        <time>2015-12-09T15:03:51.498Z</time>
      </trkpt>
      <trkpt lat="45.92817" lon="4.68583">
        <ele>362.899993896</ele>
        <time>2015-12-09T15:03:52.487Z</time>
      </trkpt>
      <trkpt lat="45.92823" lon="4.68584">
        <ele>362.799987793</ele>
        <time>2015-12-09T15:03:53.621Z</time>
      </trkpt>
      <trkpt lat="45.9283" lon="4.68585">
        <ele>362.600006104</ele>
        <time>2015-12-09T15:03:54.485Z</time>
      </trkpt>
      <trkpt lat="45.92837" lon="4.68586">
        <ele>362.200012207</ele>
        <time>2015-12-09T15:03:55.499Z</time>
      </trkpt>
      <trkpt lat="45.92844" lon="4.68588">
        <ele>362</ele>
        <time>2015-12-09T15:03:56.483Z</time>
      </trkpt>
      <trkpt lat="45.9285" lon="4.6859">
        <ele>361.700012207</ele>
        <time>2015-12-09T15:03:57.51Z</time>
      </trkpt>
      <trkpt lat="45.92857" lon="4.6859">
        <ele>361.5</ele>
        <time>2015-12-09T15:03:58.487Z</time>
      </trkpt>
      <trkpt lat="45.92864" lon="4.68592">
        <ele>361.299987793</ele>
        <time>2015-12-09T15:03:59.497Z</time>
      </trkpt>
      <trkpt lat="45.9287" lon="4.68593">
        <ele>361.5</ele>
        <time>2015-12-09T15:04:00.484Z</time>
      </trkpt>
      <trkpt lat="45.92877" lon="4.68594">
        <ele>361.100006104</ele>
        <time>2015-12-09T15:04:01.497Z</time>
      </trkpt>
      <trkpt lat="45.92883" lon="4.68595">
        <ele>360.299987793</ele>
        <time>2015-12-09T15:04:02.484Z</time>
      </trkpt>
      <trkpt lat="45.9289" lon="4.68596">
        <ele>360.100006104</ele>
        <time>2015-12-09T15:04:03.511Z</time>
      </trkpt>
      <trkpt lat="45.92897" lon="4.68597">
        <ele>359.600006104</ele>
        <time>2015-12-09T15:04:04.487Z</time>
      </trkpt>
      <trkpt lat="45.92903" lon="4.68599">
        <ele>358.899993896</ele>
        <time>2015-12-09T15:04:05.497Z</time>
      </trkpt>
      <trkpt lat="45.9291" lon="4.686">
        <ele>358.299987793</ele>
        <time>2015-12-09T15:04:06.69Z</time>
      </trkpt>
      <trkpt lat="45.92917" lon="4.68602">
        <ele>358</ele>
        <time>2015-12-09T15:04:07.498Z</time>
      </trkpt>
      <trkpt lat="45.92925" lon="4.68603">
        <ele>357.899993896</ele>
        <time>2015-12-09T15:04:08.483Z</time>
      </trkpt>
      <trkpt lat="45.92931" lon="4.68604">
        <ele>358.100006104</ele>
        <time>2015-12-09T15:04:09.498Z</time>
      </trkpt>
      <trkpt lat="45.92938" lon="4.68606">
        <ele>357.899993896</ele>
        <time>2015-12-09T15:04:10.487Z</time>
      </trkpt>
      <trkpt lat="45.92945" lon="4.68607">
        <ele>357.700012207</ele>
        <time>2015-12-09T15:04:11.502Z</time>
      </trkpt>
      <trkpt lat="45.92951" lon="4.68609">
        <ele>357.600006104</ele>
        <time>2015-12-09T15:04:12.485Z</time>
      </trkpt>
      <trkpt lat="45.92958" lon="4.68611">
        <ele>357.600006104</ele>
        <time>2015-12-09T15:04:13.5Z</time>
      </trkpt>
      <trkpt lat="45.92965" lon="4.68612">
        <ele>357.399993896</ele>
        <time>2015-12-09T15:04:14.484Z</time>
      </trkpt>
      <trkpt lat="45.92971" lon="4.68614">
        <ele>357.5</ele>
        <time>2015-12-09T15:04:15.5Z</time>
      </trkpt>
      <trkpt lat="45.92978" lon="4.68615">
        <ele>357.200012207</ele>
        <time>2015-12-09T15:04:16.488Z</time>
      </trkpt>
      <trkpt lat="45.92985" lon="4.68616">
        <ele>357.200012207</ele>
        <time>2015-12-09T15:04:17.5Z</time>
      </trkpt>
      <trkpt lat="45.92992" lon="4.68618">
        <ele>357.200012207</ele>
        <time>2015-12-09T15:04:18.486Z</time>
      </trkpt>
      <trkpt lat="45.92999" lon="4.68619">
        <ele>357.200012207</ele>
        <time>2015-12-09T15:04:19.569Z</time>
      </trkpt>
      <trkpt lat="45.93007" lon="4.6862">
        <ele>357.5</ele>
        <time>2015-12-09T15:04:20.493Z</time>
      </trkpt>
      <trkpt lat="45.93015" lon="4.68621">
        <ele>357.299987793</ele>
        <time>2015-12-09T15:04:21.506Z</time>
      </trkpt>
      <trkpt lat="45.93022" lon="4.68622">
        <ele>356.799987793</ele>
        <time>2015-12-09T15:04:22.49Z</time>
      </trkpt>
      <trkpt lat="45.93029" lon="4.68624">
        <ele>356.899993896</ele>
        <time>2015-12-09T15:04:23.501Z</time>
      </trkpt>
      <trkpt lat="45.93037" lon="4.68626">
        <ele>356.799987793</ele>
        <time>2015-12-09T15:04:24.486Z</time>
      </trkpt>
      <trkpt lat="45.93044" lon="4.68627">
        <ele>357.200012207</ele>
        <time>2015-12-09T15:04:25.501Z</time>
      </trkpt>
      <trkpt lat="45.93051" lon="4.68628">
        <ele>357.100006104</ele>
        <time>2015-12-09T15:04:26.486Z</time>
      </trkpt>
      <trkpt lat="45.93058" lon="4.6863">
        <ele>356</ele>
        <time>2015-12-09T15:04:27.503Z</time>
      </trkpt>
      <trkpt lat="45.93065" lon="4.68633">
        <ele>355.5</ele>
        <time>2015-12-09T15:04:28.49Z</time>
      </trkpt>
      <trkpt lat="45.93073" lon="4.68634">
        <ele>354.700012207</ele>
        <time>2015-12-09T15:04:29.5Z</time>
      </trkpt>
      <trkpt lat="45.9308" lon="4.68636">
        <ele>353</ele>
        <time>2015-12-09T15:04:30.486Z</time>
      </trkpt>
      <trkpt lat="45.93088" lon="4.68639">
        <ele>353.200012207</ele>
        <time>2015-12-09T15:04:31.501Z</time>
      </trkpt>
      <trkpt lat="45.93095" lon="4.68641">
        <ele>352</ele>
        <time>2015-12-09T15:04:32.485Z</time>
      </trkpt>
      <trkpt lat="45.93103" lon="4.68643">
        <ele>351.200012207</ele>
        <time>2015-12-09T15:04:33.502Z</time>
      </trkpt>
      <trkpt lat="45.93111" lon="4.68644">
        <ele>350.799987793</ele>
        <time>2015-12-09T15:04:34.488Z</time>
      </trkpt>
      <trkpt lat="45.93119" lon="4.68646">
        <ele>350.299987793</ele>
        <time>2015-12-09T15:04:35.549Z</time>
      </trkpt>
      <trkpt lat="45.93127" lon="4.68648">
        <ele>350</ele>
        <time>2015-12-09T15:04:36.487Z</time>
      </trkpt>
      <trkpt lat="45.93135" lon="4.68649">
        <ele>349.100006104</ele>
        <time>2015-12-09T15:04:37.5Z</time>
      </trkpt>
      <trkpt lat="45.93143" lon="4.68651">
        <ele>348.700012207</ele>
        <time>2015-12-09T15:04:38.484Z</time>
      </trkpt>
      <trkpt lat="45.93152" lon="4.68653">
        <ele>348.200012207</ele>
        <time>2015-12-09T15:04:39.501Z</time>
      </trkpt>
      <trkpt lat="45.9316" lon="4.68655">
        <ele>347.299987793</ele>
        <time>2015-12-09T15:04:40.488Z</time>
      </trkpt>
      <trkpt lat="45.93169" lon="4.68656">
        <ele>346.600006104</ele>
        <time>2015-12-09T15:04:41.501Z</time>
      </trkpt>
      <trkpt lat="45.93177" lon="4.68658">
        <ele>345.5</ele>
        <time>2015-12-09T15:04:42.486Z</time>
      </trkpt>
      <trkpt lat="45.93186" lon="4.6866">
        <ele>344.700012207</ele>
        <time>2015-12-09T15:04:43.54Z</time>
      </trkpt>
      <trkpt lat="45.93194" lon="4.68662">
        <ele>344</ele>
        <time>2015-12-09T15:04:44.484Z</time>
      </trkpt>
      <trkpt lat="45.93203" lon="4.68663">
        <ele>343.299987793</ele>
        <time>2015-12-09T15:04:45.507Z</time>
      </trkpt>
      <trkpt lat="45.9321" lon="4.68665">
        <ele>343.100006104</ele>
        <time>2015-12-09T15:04:46.487Z</time>
      </trkpt>
      <trkpt lat="45.93218" lon="4.68667">
        <ele>342.799987793</ele>
        <time>2015-12-09T15:04:47.503Z</time>
      </trkpt>
      <trkpt lat="45.93226" lon="4.68669">
        <ele>342.299987793</ele>
        <time>2015-12-09T15:04:48.486Z</time>
      </trkpt>
      <trkpt lat="45.93233" lon="4.68672">
        <ele>341.799987793</ele>
        <time>2015-12-09T15:04:49.634Z</time>
      </trkpt>
      <trkpt lat="45.93241" lon="4.68674">
        <ele>341.799987793</ele>
        <time>2015-12-09T15:04:50.486Z</time>
      </trkpt>
      <trkpt lat="45.93248" lon="4.68676">
        <ele>341.799987793</ele>
        <time>2015-12-09T15:04:51.515Z</time>
      </trkpt>
      <trkpt lat="45.93255" lon="4.68677">
        <ele>342</ele>
        <time>2015-12-09T15:04:52.488Z</time>
      </trkpt>
      <trkpt lat="45.93262" lon="4.68679">
        <ele>342</ele>
        <time>2015-12-09T15:04:53.501Z</time>
      </trkpt>
      <trkpt lat="45.93269" lon="4.6868">
        <ele>341.5</ele>
        <time>2015-12-09T15:04:54.485Z</time>
      </trkpt>
      <trkpt lat="45.93276" lon="4.68681">
        <ele>341.299987793</ele>
        <time>2015-12-09T15:04:55.5Z</time>
      </trkpt>
      <trkpt lat="45.93283" lon="4.68683">
        <ele>341.700012207</ele>
        <time>2015-12-09T15:04:56.485Z</time>
      </trkpt>
      <trkpt lat="45.9329" lon="4.68685">
        <ele>341.799987793</ele>
        <time>2015-12-09T15:04:57.5Z</time>
      </trkpt>
      <trkpt lat="45.93297" lon="4.68687">
        <ele>342</ele>
        <time>2015-12-09T15:04:58.488Z</time>
      </trkpt>
      <trkpt lat="45.93304" lon="4.68689">
        <ele>342.299987793</ele>
        <time>2015-12-09T15:04:59.5Z</time>
      </trkpt>
      <trkpt lat="45.93311" lon="4.6869">
        <ele>342</ele>
        <time>2015-12-09T15:05:00.485Z</time>
      </trkpt>
      <trkpt lat="45.93319" lon="4.68691">
        <ele>342.100006104</ele>
        <time>2015-12-09T15:05:01.5Z</time>
      </trkpt>
      <trkpt lat="45.93325" lon="4.68692">
        <ele>342</ele>
        <time>2015-12-09T15:05:02.484Z</time>
      </trkpt>
      <trkpt lat="45.93332" lon="4.68692">
        <ele>342</ele>
        <time>2015-12-09T15:05:03.499Z</time>
      </trkpt>
      <trkpt lat="45.93339" lon="4.68694">
        <ele>341.399993896</ele>
        <time>2015-12-09T15:05:04.488Z</time>
      </trkpt>
      <trkpt lat="45.93345" lon="4.68695">
        <ele>341.399993896</ele>
        <time>2015-12-09T15:05:05.499Z</time>
      </trkpt>
      <trkpt lat="45.93351" lon="4.68697">
        <ele>341</ele>
        <time>2015-12-09T15:05:06.485Z</time>
      </trkpt>
      <trkpt lat="45.93358" lon="4.68698">
        <ele>340.799987793</ele>
        <time>2015-12-09T15:05:07.499Z</time>
      </trkpt>
      <trkpt lat="45.93364" lon="4.687">
        <ele>340.799987793</ele>
        <time>2015-12-09T15:05:08.484Z</time>
      </trkpt>
      <trkpt lat="45.9337" lon="4.68702">
        <ele>340.5</ele>
        <time>2015-12-09T15:05:09.498Z</time>
      </trkpt>
      <trkpt lat="45.93377" lon="4.68703">
        <ele>340.399993896</ele>
        <time>2015-12-09T15:05:10.487Z</time>
      </trkpt>
      <trkpt lat="45.93383" lon="4.68704">
        <ele>340.5</ele>
        <time>2015-12-09T15:05:11.508Z</time>
      </trkpt>
      <trkpt lat="45.9339" lon="4.68706">
        <ele>340.299987793</ele>
        <time>2015-12-09T15:05:12.5Z</time>
      </trkpt>
      <trkpt lat="45.93396" lon="4.68708">
        <ele>340.399993896</ele>
        <time>2015-12-09T15:05:13.502Z</time>
      </trkpt>
      <trkpt lat="45.93403" lon="4.68709">
        <ele>340.200012207</ele>
        <time>2015-12-09T15:05:14.484Z</time>
      </trkpt>
      <trkpt lat="45.93409" lon="4.68711">
        <ele>340.399993896</ele>
        <time>2015-12-09T15:05:15.498Z</time>
      </trkpt>
      <trkpt lat="45.93415" lon="4.68712">
        <ele>339.799987793</ele>
        <time>2015-12-09T15:05:16.487Z</time>
      </trkpt>
      <trkpt lat="45.93422" lon="4.68714">
        <ele>339.799987793</ele>
        <time>2015-12-09T15:05:17.498Z</time>
      </trkpt>
      <trkpt lat="45.93428" lon="4.68715">
        <ele>339.700012207</ele>
        <time>2015-12-09T15:05:18.485Z</time>
      </trkpt>
      <trkpt lat="45.93435" lon="4.68716">
        <ele>339.700012207</ele>
        <time>2015-12-09T15:05:19.501Z</time>
      </trkpt>
      <trkpt lat="45.9344" lon="4.68718">
        <ele>339.799987793</ele>
        <time>2015-12-09T15:05:20.484Z</time>
      </trkpt>
      <trkpt lat="45.93446" lon="4.6872">
        <ele>340</ele>
        <time>2015-12-09T15:05:21.498Z</time>
      </trkpt>
      <trkpt lat="45.93452" lon="4.68721">
        <ele>340.100006104</ele>
        <time>2015-12-09T15:05:22.487Z</time>
      </trkpt>
      <trkpt lat="45.93457" lon="4.68723">
        <ele>339.899993896</ele>
        <time>2015-12-09T15:05:23.52Z</time>
      </trkpt>
      <trkpt lat="45.93463" lon="4.68724">
        <ele>339.5</ele>
        <time>2015-12-09T15:05:24.484Z</time>
      </trkpt>
      <trkpt lat="45.93469" lon="4.68726">
        <ele>339.299987793</ele>
        <time>2015-12-09T15:05:25.499Z</time>
      </trkpt>
      <trkpt lat="45.93474" lon="4.68727">
        <ele>339.200012207</ele>
        <time>2015-12-09T15:05:26.484Z</time>
      </trkpt>
      <trkpt lat="45.9348" lon="4.68729">
        <ele>339.100006104</ele>
        <time>2015-12-09T15:05:27.5Z</time>
      </trkpt>
      <trkpt lat="45.93485" lon="4.6873">
        <ele>339.100006104</ele>
        <time>2015-12-09T15:05:28.488Z</time>
      </trkpt>
      <trkpt lat="45.93491" lon="4.68731">
        <ele>338.799987793</ele>
        <time>2015-12-09T15:05:29.5Z</time>
      </trkpt>
      <trkpt lat="45.93497" lon="4.68732">
        <ele>338.399993896</ele>
        <time>2015-12-09T15:05:30.485Z</time>
      </trkpt>
      <trkpt lat="45.93503" lon="4.68733">
        <ele>338.600006104</ele>
        <time>2015-12-09T15:05:31.498Z</time>
      </trkpt>
      <trkpt lat="45.93509" lon="4.68734">
        <ele>338.5</ele>
        <time>2015-12-09T15:05:32.484Z</time>
      </trkpt>
      <trkpt lat="45.93514" lon="4.68735">
        <ele>338.200012207</ele>
        <time>2015-12-09T15:05:33.5Z</time>
      </trkpt>
      <trkpt lat="45.9352" lon="4.68737">
        <ele>338.299987793</ele>
        <time>2015-12-09T15:05:34.488Z</time>
      </trkpt>
      <trkpt lat="45.93526" lon="4.68739">
        <ele>338.200012207</ele>
        <time>2015-12-09T15:05:35.499Z</time>
      </trkpt>
      <trkpt lat="45.93531" lon="4.6874">
        <ele>338.399993896</ele>
        <time>2015-12-09T15:05:36.486Z</time>
      </trkpt>
      <trkpt lat="45.93537" lon="4.68741">
        <ele>338.700012207</ele>
        <time>2015-12-09T15:05:37.499Z</time>
      </trkpt>
      <trkpt lat="45.93541" lon="4.68743">
        <ele>338.799987793</ele>
        <time>2015-12-09T15:05:38.485Z</time>
      </trkpt>
      <trkpt lat="45.93546" lon="4.68744">
        <ele>339</ele>
        <time>2015-12-09T15:05:39.52Z</time>
      </trkpt>
      <trkpt lat="45.93551" lon="4.68747">
        <ele>339.700012207</ele>
        <time>2015-12-09T15:05:40.489Z</time>
      </trkpt>
      <trkpt lat="45.93556" lon="4.68748">
        <ele>339.600006104</ele>
        <time>2015-12-09T15:05:41.5Z</time>
      </trkpt>
      <trkpt lat="45.93562" lon="4.6875">
        <ele>339.299987793</ele>
        <time>2015-12-09T15:05:42.486Z</time>
      </trkpt>
      <trkpt lat="45.93567" lon="4.68751">
        <ele>339.200012207</ele>
        <time>2015-12-09T15:05:43.499Z</time>
      </trkpt>
      <trkpt lat="45.93573" lon="4.68752">
        <ele>339.5</ele>
        <time>2015-12-09T15:05:44.484Z</time>
      </trkpt>
      <trkpt lat="45.93579" lon="4.68753">
        <ele>339.200012207</ele>
        <time>2015-12-09T15:05:45.5Z</time>
      </trkpt>
      <trkpt lat="45.93584" lon="4.68754">
        <ele>339.299987793</ele>
        <time>2015-12-09T15:05:46.488Z</time>
      </trkpt>
      <trkpt lat="45.93589" lon="4.68755">
        <ele>339.299987793</ele>
        <time>2015-12-09T15:05:47.499Z</time>
      </trkpt>
      <trkpt lat="45.93594" lon="4.68756">
        <ele>339.399993896</ele>
        <time>2015-12-09T15:05:48.486Z</time>
      </trkpt>
      <trkpt lat="45.93598" lon="4.68758">
        <ele>339.700012207</ele>
        <time>2015-12-09T15:05:49.5Z</time>
      </trkpt>
      <trkpt lat="45.93603" lon="4.6876">
        <ele>339.600006104</ele>
        <time>2015-12-09T15:05:50.484Z</time>
      </trkpt>
      <trkpt lat="45.93609" lon="4.68761">
        <ele>339.399993896</ele>
        <time>2015-12-09T15:05:51.501Z</time>
      </trkpt>
      <trkpt lat="45.93613" lon="4.68761">
        <ele>339</ele>
        <time>2015-12-09T15:05:52.488Z</time>
      </trkpt>
      <trkpt lat="45.93618" lon="4.68762">
        <ele>338.899993896</ele>
        <time>2015-12-09T15:05:53.5Z</time>
      </trkpt>
      <trkpt lat="45.93624" lon="4.68763">
        <ele>339</ele>
        <time>2015-12-09T15:05:54.485Z</time>
      </trkpt>
      <trkpt lat="45.93629" lon="4.68764">
        <ele>339.299987793</ele>
        <time>2015-12-09T15:05:55.513Z</time>
      </trkpt>
      <trkpt lat="45.93634" lon="4.68765">
        <ele>339.600006104</ele>
        <time>2015-12-09T15:05:56.484Z</time>
      </trkpt>
      <trkpt lat="45.93639" lon="4.68768">
        <ele>339.5</ele>
        <time>2015-12-09T15:05:57.499Z</time>
      </trkpt>
      <trkpt lat="45.93644" lon="4.68771">
        <ele>340</ele>
        <time>2015-12-09T15:05:58.488Z</time>
      </trkpt>
      <trkpt lat="45.9365" lon="4.68774">
        <ele>340.299987793</ele>
        <time>2015-12-09T15:05:59.499Z</time>
      </trkpt>
      <trkpt lat="45.93655" lon="4.68775">
        <ele>340.200012207</ele>
        <time>2015-12-09T15:06:00.485Z</time>
      </trkpt>
      <trkpt lat="45.93661" lon="4.68776">
        <ele>340.399993896</ele>
        <time>2015-12-09T15:06:01.501Z</time>
      </trkpt>
      <trkpt lat="45.93666" lon="4.68776">
        <ele>340.5</ele>
        <time>2015-12-09T15:06:02.484Z</time>
      </trkpt>
      <trkpt lat="45.93672" lon="4.68777">
        <ele>340.5</ele>
        <time>2015-12-09T15:06:03.498Z</time>
      </trkpt>
      <trkpt lat="45.93677" lon="4.68778">
        <ele>341.200012207</ele>
        <time>2015-12-09T15:06:04.487Z</time>
      </trkpt>
      <trkpt lat="45.93682" lon="4.68779">
        <ele>341.299987793</ele>
        <time>2015-12-09T15:06:05.501Z</time>
      </trkpt>
      <trkpt lat="45.93687" lon="4.6878">
        <ele>340.799987793</ele>
        <time>2015-12-09T15:06:06.484Z</time>
      </trkpt>
      <trkpt lat="45.93692" lon="4.68782">
        <ele>341.100006104</ele>
        <time>2015-12-09T15:06:07.5Z</time>
      </trkpt>
      <trkpt lat="45.93696" lon="4.68783">
        <ele>341.100006104</ele>
        <time>2015-12-09T15:06:08.484Z</time>
      </trkpt>
      <trkpt lat="45.93701" lon="4.68784">
        <ele>341</ele>
        <time>2015-12-09T15:06:09.499Z</time>
      </trkpt>
      <trkpt lat="45.93706" lon="4.68785">
        <ele>341.200012207</ele>
        <time>2015-12-09T15:06:10.488Z</time>
      </trkpt>
      <trkpt lat="45.93711" lon="4.68787">
        <ele>341.399993896</ele>
        <time>2015-12-09T15:06:11.517Z</time>
      </trkpt>
      <trkpt lat="45.93717" lon="4.68788">
        <ele>341.600006104</ele>
        <time>2015-12-09T15:06:12.486Z</time>
      </trkpt>
      <trkpt lat="45.93722" lon="4.6879">
        <ele>341.5</ele>
        <time>2015-12-09T15:06:13.499Z</time>
      </trkpt>
      <trkpt lat="45.93727" lon="4.68792">
        <ele>341.299987793</ele>
        <time>2015-12-09T15:06:14.484Z</time>
      </trkpt>
      <trkpt lat="45.93733" lon="4.68793">
        <ele>341.299987793</ele>
        <time>2015-12-09T15:06:15.499Z</time>
      </trkpt>
      <trkpt lat="45.93738" lon="4.68794">
        <ele>341.600006104</ele>
        <time>2015-12-09T15:06:16.487Z</time>
      </trkpt>
      <trkpt lat="45.93744" lon="4.68796">
        <ele>341.200012207</ele>
        <time>2015-12-09T15:06:17.498Z</time>
      </trkpt>
      <trkpt lat="45.9375" lon="4.68798">
        <ele>341.299987793</ele>
        <time>2015-12-09T15:06:18.485Z</time>
      </trkpt>
      <trkpt lat="45.93756" lon="4.688">
        <ele>341.5</ele>
        <time>2015-12-09T15:06:19.499Z</time>
      </trkpt>
      <trkpt lat="45.93761" lon="4.68801">
        <ele>342.399993896</ele>
        <time>2015-12-09T15:06:20.484Z</time>
      </trkpt>
      <trkpt lat="45.93767" lon="4.68803">
        <ele>342.700012207</ele>
        <time>2015-12-09T15:06:21.499Z</time>
      </trkpt>
      <trkpt lat="45.93772" lon="4.68806">
        <ele>342</ele>
        <time>2015-12-09T15:06:22.488Z</time>
      </trkpt>
      <trkpt lat="45.93777" lon="4.68809">
        <ele>341.600006104</ele>
        <time>2015-12-09T15:06:23.498Z</time>
      </trkpt>
      <trkpt lat="45.93783" lon="4.68812">
        <ele>342</ele>
        <time>2015-12-09T15:06:24.484Z</time>
      </trkpt>
      <trkpt lat="45.93789" lon="4.68815">
        <ele>342.399993896</ele>
        <time>2015-12-09T15:06:25.539Z</time>
      </trkpt>
      <trkpt lat="45.93794" lon="4.68817">
        <ele>342.899993896</ele>
        <time>2015-12-09T15:06:26.483Z</time>
      </trkpt>
      <trkpt lat="45.93799" lon="4.6882">
        <ele>343</ele>
        <time>2015-12-09T15:06:27.514Z</time>
      </trkpt>
      <trkpt lat="45.93804" lon="4.68824">
        <ele>343.100006104</ele>
        <time>2015-12-09T15:06:28.487Z</time>
      </trkpt>
      <trkpt lat="45.93808" lon="4.68828">
        <ele>343.200012207</ele>
        <time>2015-12-09T15:06:29.499Z</time>
      </trkpt>
      <trkpt lat="45.93813" lon="4.68832">
        <ele>343.5</ele>
        <time>2015-12-09T15:06:30.485Z</time>
      </trkpt>
      <trkpt lat="45.93819" lon="4.68835">
        <ele>343.5</ele>
        <time>2015-12-09T15:06:31.502Z</time>
      </trkpt>
      <trkpt lat="45.93824" lon="4.68838">
        <ele>343.200012207</ele>
        <time>2015-12-09T15:06:32.628Z</time>
      </trkpt>
      <trkpt lat="45.9383" lon="4.68841">
        <ele>343.200012207</ele>
        <time>2015-12-09T15:06:33.499Z</time>
      </trkpt>
      <trkpt lat="45.93835" lon="4.68844">
        <ele>343.299987793</ele>
        <time>2015-12-09T15:06:34.487Z</time>
      </trkpt>
      <trkpt lat="45.9384" lon="4.68847">
        <ele>343.399993896</ele>
        <time>2015-12-09T15:06:35.498Z</time>
      </trkpt>
      <trkpt lat="45.93846" lon="4.6885">
        <ele>344</ele>
        <time>2015-12-09T15:06:36.484Z</time>
      </trkpt>
      <trkpt lat="45.93851" lon="4.68854">
        <ele>343.799987793</ele>
        <time>2015-12-09T15:06:37.498Z</time>
      </trkpt>
      <trkpt lat="45.93856" lon="4.68858">
        <ele>343.700012207</ele>
        <time>2015-12-09T15:06:38.483Z</time>
      </trkpt>
      <trkpt lat="45.9386" lon="4.68862">
        <ele>343.700012207</ele>
        <time>2015-12-09T15:06:39.499Z</time>
      </trkpt>
      <trkpt lat="45.93865" lon="4.68866">
        <ele>343.899993896</ele>
        <time>2015-12-09T15:06:40.487Z</time>
      </trkpt>
      <trkpt lat="45.9387" lon="4.6887">
        <ele>344</ele>
        <time>2015-12-09T15:06:41.499Z</time>
      </trkpt>
      <trkpt lat="45.93875" lon="4.68873">
        <ele>344.200012207</ele>
        <time>2015-12-09T15:06:42.485Z</time>
      </trkpt>
      <trkpt lat="45.9388" lon="4.68877">
        <ele>344.299987793</ele>
        <time>2015-12-09T15:06:43.512Z</time>
      </trkpt>
      <trkpt lat="45.93885" lon="4.68879">
        <ele>344.5</ele>
        <time>2015-12-09T15:06:44.483Z</time>
      </trkpt>
      <trkpt lat="45.9389" lon="4.68881">
        <ele>344.5</ele>
        <time>2015-12-09T15:06:45.498Z</time>
      </trkpt>
      <trkpt lat="45.93896" lon="4.68883">
        <ele>344.5</ele>
        <time>2015-12-09T15:06:46.487Z</time>
      </trkpt>
      <trkpt lat="45.93901" lon="4.68885">
        <ele>344.200012207</ele>
        <time>2015-12-09T15:06:47.626Z</time>
      </trkpt>
      <trkpt lat="45.93906" lon="4.68887">
        <ele>344.299987793</ele>
        <time>2015-12-09T15:06:48.485Z</time>
      </trkpt>
      <trkpt lat="45.93911" lon="4.68889">
        <ele>344.100006104</ele>
        <time>2015-12-09T15:06:49.499Z</time>
      </trkpt>
      <trkpt lat="45.93916" lon="4.6889">
        <ele>344.100006104</ele>
        <time>2015-12-09T15:06:50.483Z</time>
      </trkpt>
      <trkpt lat="45.93921" lon="4.68892">
        <ele>343.899993896</ele>
        <time>2015-12-09T15:06:51.498Z</time>
      </trkpt>
      <trkpt lat="45.93926" lon="4.68893">
        <ele>343.899993896</ele>
        <time>2015-12-09T15:06:52.487Z</time>
      </trkpt>
      <trkpt lat="45.93931" lon="4.68896">
        <ele>343.899993896</ele>
        <time>2015-12-09T15:06:53.499Z</time>
      </trkpt>
      <trkpt lat="45.93936" lon="4.68898">
        <ele>343.700012207</ele>
        <time>2015-12-09T15:06:54.485Z</time>
      </trkpt>
      <trkpt lat="45.93941" lon="4.689">
        <ele>343.399993896</ele>
        <time>2015-12-09T15:06:55.498Z</time>
      </trkpt>
      <trkpt lat="45.93947" lon="4.689">
        <ele>343</ele>
        <time>2015-12-09T15:06:56.484Z</time>
      </trkpt>
      <trkpt lat="45.93952" lon="4.68901">
        <ele>343.399993896</ele>
        <time>2015-12-09T15:06:57.501Z</time>
      </trkpt>
      <trkpt lat="45.93957" lon="4.68902">
        <ele>343.200012207</ele>
        <time>2015-12-09T15:06:58.488Z</time>
      </trkpt>
      <trkpt lat="45.93961" lon="4.68904">
        <ele>343.200012207</ele>
        <time>2015-12-09T15:06:59.516Z</time>
      </trkpt>
      <trkpt lat="45.93966" lon="4.68906">
        <ele>343.200012207</ele>
        <time>2015-12-09T15:07:00.485Z</time>
      </trkpt>
      <trkpt lat="45.9397" lon="4.68908">
        <ele>342.899993896</ele>
        <time>2015-12-09T15:07:01.497Z</time>
      </trkpt>
      <trkpt lat="45.93974" lon="4.6891">
        <ele>343.299987793</ele>
        <time>2015-12-09T15:07:02.484Z</time>
      </trkpt>
      <trkpt lat="45.93979" lon="4.68912">
        <ele>343.399993896</ele>
        <time>2015-12-09T15:07:03.497Z</time>
      </trkpt>
      <trkpt lat="45.93983" lon="4.68914">
        <ele>343.5</ele>
        <time>2015-12-09T15:07:04.487Z</time>
      </trkpt>
      <trkpt lat="45.93988" lon="4.68916">
        <ele>343.5</ele>
        <time>2015-12-09T15:07:05.498Z</time>
      </trkpt>
      <trkpt lat="45.93993" lon="4.68918">
        <ele>343.399993896</ele>
        <time>2015-12-09T15:07:06.485Z</time>
      </trkpt>
      <trkpt lat="45.93998" lon="4.68919">
        <ele>343.399993896</ele>
        <time>2015-12-09T15:07:07.498Z</time>
      </trkpt>
      <trkpt lat="45.94003" lon="4.68921">
        <ele>343.200012207</ele>
        <time>2015-12-09T15:07:08.484Z</time>
      </trkpt>
      <trkpt lat="45.94008" lon="4.68923">
        <ele>343.200012207</ele>
        <time>2015-12-09T15:07:09.499Z</time>
      </trkpt>
      <trkpt lat="45.94014" lon="4.68925">
        <ele>343.299987793</ele>
        <time>2015-12-09T15:07:10.487Z</time>
      </trkpt>
      <trkpt lat="45.94019" lon="4.68926">
        <ele>342.799987793</ele>
        <time>2015-12-09T15:07:11.501Z</time>
      </trkpt>
      <trkpt lat="45.94025" lon="4.68928">
        <ele>342.399993896</ele>
        <time>2015-12-09T15:07:12.484Z</time>
      </trkpt>
      <trkpt lat="45.9403" lon="4.68931">
        <ele>342.299987793</ele>
        <time>2015-12-09T15:07:13.499Z</time>
      </trkpt>
      <trkpt lat="45.94035" lon="4.68933">
        <ele>342</ele>
        <time>2015-12-09T15:07:14.483Z</time>
      </trkpt>
      <trkpt lat="45.94041" lon="4.68936">
        <ele>341.799987793</ele>
        <time>2015-12-09T15:07:15.577Z</time>
      </trkpt>
      <trkpt lat="45.94047" lon="4.68939">
        <ele>341.200012207</ele>
        <time>2015-12-09T15:07:16.487Z</time>
      </trkpt>
      <trkpt lat="45.94052" lon="4.68942">
        <ele>341</ele>
        <time>2015-12-09T15:07:17.539Z</time>
      </trkpt>
      <trkpt lat="45.94058" lon="4.68945">
        <ele>340.600006104</ele>
        <time>2015-12-09T15:07:18.485Z</time>
      </trkpt>
      <trkpt lat="45.94064" lon="4.68948">
        <ele>340</ele>
        <time>2015-12-09T15:07:19.499Z</time>
      </trkpt>
      <trkpt lat="45.9407" lon="4.68951">
        <ele>340.100006104</ele>
        <time>2015-12-09T15:07:20.484Z</time>
      </trkpt>
      <trkpt lat="45.94076" lon="4.68952">
        <ele>339.600006104</ele>
        <time>2015-12-09T15:07:21.498Z</time>
      </trkpt>
      <trkpt lat="45.94082" lon="4.68953">
        <ele>338.799987793</ele>
        <time>2015-12-09T15:07:22.488Z</time>
      </trkpt>
      <trkpt lat="45.94088" lon="4.68953">
        <ele>338.399993896</ele>
        <time>2015-12-09T15:07:23.501Z</time>
      </trkpt>
      <trkpt lat="45.94093" lon="4.68954">
        <ele>338</ele>
        <time>2015-12-09T15:07:24.485Z</time>
      </trkpt>
      <trkpt lat="45.94099" lon="4.68955">
        <ele>338</ele>
        <time>2015-12-09T15:07:25.499Z</time>
      </trkpt>
      <trkpt lat="45.94105" lon="4.68957">
        <ele>338</ele>
        <time>2015-12-09T15:07:26.499Z</time>
      </trkpt>
      <trkpt lat="45.9411" lon="4.68958">
        <ele>338.200012207</ele>
        <time>2015-12-09T15:07:27.498Z</time>
      </trkpt>
      <trkpt lat="45.94116" lon="4.68961">
        <ele>338.200012207</ele>
        <time>2015-12-09T15:07:28.487Z</time>
      </trkpt>
      <trkpt lat="45.94122" lon="4.68964">
        <ele>338.200012207</ele>
        <time>2015-12-09T15:07:29.498Z</time>
      </trkpt>
      <trkpt lat="45.94128" lon="4.68966">
        <ele>338.100006104</ele>
        <time>2015-12-09T15:07:30.525Z</time>
      </trkpt>
      <trkpt lat="45.94135" lon="4.68968">
        <ele>338</ele>
        <time>2015-12-09T15:07:31.501Z</time>
      </trkpt>
      <trkpt lat="45.94141" lon="4.6897">
        <ele>337.899993896</ele>
        <time>2015-12-09T15:07:32.486Z</time>
      </trkpt>
      <trkpt lat="45.94147" lon="4.68972">
        <ele>337.600006104</ele>
        <time>2015-12-09T15:07:33.501Z</time>
      </trkpt>
      <trkpt lat="45.94153" lon="4.68974">
        <ele>337.5</ele>
        <time>2015-12-09T15:07:34.49Z</time>
      </trkpt>
      <trkpt lat="45.94159" lon="4.68976">
        <ele>337.399993896</ele>
        <time>2015-12-09T15:07:35.5Z</time>
      </trkpt>
      <trkpt lat="45.94165" lon="4.68977">
        <ele>336.899993896</ele>
        <time>2015-12-09T15:07:36.484Z</time>
      </trkpt>
      <trkpt lat="45.94171" lon="4.68979">
        <ele>336.899993896</ele>
        <time>2015-12-09T15:07:37.499Z</time>
      </trkpt>
      <trkpt lat="45.94177" lon="4.68981">
        <ele>337.100006104</ele>
        <time>2015-12-09T15:07:38.485Z</time>
      </trkpt>
      <trkpt lat="45.94182" lon="4.68983">
        <ele>337.600006104</ele>
        <time>2015-12-09T15:07:39.498Z</time>
      </trkpt>
      <trkpt lat="45.94188" lon="4.68984">
        <ele>337.799987793</ele>
        <time>2015-12-09T15:07:40.487Z</time>
      </trkpt>
      <trkpt lat="45.94195" lon="4.68986">
        <ele>337.600006104</ele>
        <time>2015-12-09T15:07:41.507Z</time>
      </trkpt>
      <trkpt lat="45.94201" lon="4.68987">
        <ele>337.100006104</ele>
        <time>2015-12-09T15:07:42.498Z</time>
      </trkpt>
      <trkpt lat="45.94207" lon="4.68989">
        <ele>337.600006104</ele>
        <time>2015-12-09T15:07:43.498Z</time>
      </trkpt>
      <trkpt lat="45.94213" lon="4.6899">
        <ele>337.700012207</ele>
        <time>2015-12-09T15:07:44.484Z</time>
      </trkpt>
      <trkpt lat="45.9422" lon="4.68992">
        <ele>337.399993896</ele>
        <time>2015-12-09T15:07:45.499Z</time>
      </trkpt>
      <trkpt lat="45.94226" lon="4.68994">
        <ele>337.399993896</ele>
        <time>2015-12-09T15:07:46.487Z</time>
      </trkpt>
      <trkpt lat="45.94232" lon="4.68995">
        <ele>337.100006104</ele>
        <time>2015-12-09T15:07:47.647Z</time>
      </trkpt>
      <trkpt lat="45.94238" lon="4.68997">
        <ele>336.799987793</ele>
        <time>2015-12-09T15:07:48.485Z</time>
      </trkpt>
      <trkpt lat="45.94244" lon="4.68998">
        <ele>336.5</ele>
        <time>2015-12-09T15:07:49.501Z</time>
      </trkpt>
      <trkpt lat="45.94249" lon="4.69">
        <ele>336.5</ele>
        <time>2015-12-09T15:07:50.483Z</time>
      </trkpt>
      <trkpt lat="45.94255" lon="4.69002">
        <ele>336.700012207</ele>
        <time>2015-12-09T15:07:51.499Z</time>
      </trkpt>
      <trkpt lat="45.9426" lon="4.69002">
        <ele>336.5</ele>
        <time>2015-12-09T15:07:52.487Z</time>
      </trkpt>
      <trkpt lat="45.94265" lon="4.69003">
        <ele>336.600006104</ele>
        <time>2015-12-09T15:07:53.498Z</time>
      </trkpt>
      <trkpt lat="45.9427" lon="4.69004">
        <ele>336.600006104</ele>
        <time>2015-12-09T15:07:54.484Z</time>
      </trkpt>
      <trkpt lat="45.94275" lon="4.69003">
        <ele>336.299987793</ele>
        <time>2015-12-09T15:07:55.498Z</time>
      </trkpt>
      <trkpt lat="45.9428" lon="4.69004">
        <ele>336.200012207</ele>
        <time>2015-12-09T15:07:56.483Z</time>
      </trkpt>
      <trkpt lat="45.94284" lon="4.69005">
        <ele>336</ele>
        <time>2015-12-09T15:07:57.499Z</time>
      </trkpt>
      <trkpt lat="45.94289" lon="4.69006">
        <ele>336.100006104</ele>
        <time>2015-12-09T15:07:58.487Z</time>
      </trkpt>
      <trkpt lat="45.94294" lon="4.69007">
        <ele>336</ele>
        <time>2015-12-09T15:07:59.497Z</time>
      </trkpt>
      <trkpt lat="45.943" lon="4.69008">
        <ele>335.700012207</ele>
        <time>2015-12-09T15:08:00.484Z</time>
      </trkpt>
      <trkpt lat="45.94306" lon="4.69009">
        <ele>335.700012207</ele>
        <time>2015-12-09T15:08:01.498Z</time>
      </trkpt>
      <trkpt lat="45.94311" lon="4.6901">
        <ele>335.899993896</ele>
        <time>2015-12-09T15:08:02.484Z</time>
      </trkpt>
      <trkpt lat="45.94317" lon="4.6901">
        <ele>336.100006104</ele>
        <time>2015-12-09T15:08:03.515Z</time>
      </trkpt>
      <trkpt lat="45.94323" lon="4.6901">
        <ele>335.899993896</ele>
        <time>2015-12-09T15:08:04.487Z</time>
      </trkpt>
      <trkpt lat="45.94329" lon="4.69011">
        <ele>336</ele>
        <time>2015-12-09T15:08:05.498Z</time>
      </trkpt>
      <trkpt lat="45.94334" lon="4.69011">
        <ele>336.299987793</ele>
        <time>2015-12-09T15:08:06.485Z</time>
      </trkpt>
      <trkpt lat="45.9434" lon="4.69011">
        <ele>336.100006104</ele>
        <time>2015-12-09T15:08:07.498Z</time>
      </trkpt>
      <trkpt lat="45.94345" lon="4.69012">
        <ele>336.100006104</ele>
        <time>2015-12-09T15:08:08.483Z</time>
      </trkpt>
      <trkpt lat="45.9435" lon="4.69012">
        <ele>335.700012207</ele>
        <time>2015-12-09T15:08:09.498Z</time>
      </trkpt>
      <trkpt lat="45.94355" lon="4.69012">
        <ele>335.799987793</ele>
        <time>2015-12-09T15:08:10.487Z</time>
      </trkpt>
      <trkpt lat="45.94361" lon="4.69013">
        <ele>336</ele>
        <time>2015-12-09T15:08:11.501Z</time>
      </trkpt>
      <trkpt lat="45.94366" lon="4.69013">
        <ele>335.600006104</ele>
        <time>2015-12-09T15:08:12.484Z</time>
      </trkpt>
      <trkpt lat="45.94371" lon="4.69013">
        <ele>335.399993896</ele>
        <time>2015-12-09T15:08:13.498Z</time>
      </trkpt>
      <trkpt lat="45.94375" lon="4.69013">
        <ele>335.600006104</ele>
        <time>2015-12-09T15:08:14.497Z</time>
      </trkpt>
      <trkpt lat="45.9438" lon="4.69013">
        <ele>335.799987793</ele>
        <time>2015-12-09T15:08:15.501Z</time>
      </trkpt>
      <trkpt lat="45.94385" lon="4.69013">
        <ele>336.100006104</ele>
        <time>2015-12-09T15:08:16.487Z</time>
      </trkpt>
      <trkpt lat="45.9439" lon="4.69012">
        <ele>336.299987793</ele>
        <time>2015-12-09T15:08:17.498Z</time>
      </trkpt>
      <trkpt lat="45.94396" lon="4.69011">
        <ele>336.600006104</ele>
        <time>2015-12-09T15:08:18.485Z</time>
      </trkpt>
      <trkpt lat="45.94401" lon="4.69011">
        <ele>337</ele>
        <time>2015-12-09T15:08:19.498Z</time>
      </trkpt>
      <trkpt lat="45.94406" lon="4.69012">
        <ele>337.5</ele>
        <time>2015-12-09T15:08:20.484Z</time>
      </trkpt>
      <trkpt lat="45.94411" lon="4.69012">
        <ele>337.899993896</ele>
        <time>2015-12-09T15:08:21.498Z</time>
      </trkpt>
      <trkpt lat="45.94416" lon="4.69012">
        <ele>338</ele>
        <time>2015-12-09T15:08:22.487Z</time>
      </trkpt>
      <trkpt lat="45.94422" lon="4.69012">
        <ele>338.200012207</ele>
        <time>2015-12-09T15:08:23.498Z</time>
      </trkpt>
      <trkpt lat="45.94427" lon="4.69012">
        <ele>338.700012207</ele>
        <time>2015-12-09T15:08:24.485Z</time>
      </trkpt>
      <trkpt lat="45.94432" lon="4.69012">
        <ele>338.700012207</ele>
        <time>2015-12-09T15:08:25.499Z</time>
      </trkpt>
      <trkpt lat="45.94437" lon="4.69011">
        <ele>338.799987793</ele>
        <time>2015-12-09T15:08:26.522Z</time>
      </trkpt>
      <trkpt lat="45.94442" lon="4.69011">
        <ele>339</ele>
        <time>2015-12-09T15:08:27.498Z</time>
      </trkpt>
      <trkpt lat="45.94447" lon="4.69011">
        <ele>338.799987793</ele>
        <time>2015-12-09T15:08:28.487Z</time>
      </trkpt>
      <trkpt lat="45.94452" lon="4.69012">
        <ele>338.799987793</ele>
        <time>2015-12-09T15:08:29.498Z</time>
      </trkpt>
      <trkpt lat="45.94457" lon="4.69012">
        <ele>338.799987793</ele>
        <time>2015-12-09T15:08:30.485Z</time>
      </trkpt>
      <trkpt lat="45.94461" lon="4.69013">
        <ele>338.899993896</ele>
        <time>2015-12-09T15:08:31.497Z</time>
      </trkpt>
      <trkpt lat="45.94466" lon="4.69013">
        <ele>338.799987793</ele>
        <time>2015-12-09T15:08:32.483Z</time>
      </trkpt>
      <trkpt lat="45.94471" lon="4.69013">
        <ele>338.799987793</ele>
        <time>2015-12-09T15:08:33.498Z</time>
      </trkpt>
      <trkpt lat="45.94476" lon="4.69014">
        <ele>338.899993896</ele>
        <time>2015-12-09T15:08:34.486Z</time>
      </trkpt>
      <trkpt lat="45.9448" lon="4.69015">
        <ele>339.299987793</ele>
        <time>2015-12-09T15:08:35.511Z</time>
      </trkpt>
      <trkpt lat="45.94485" lon="4.69016">
        <ele>339</ele>
        <time>2015-12-09T15:08:36.484Z</time>
      </trkpt>
      <trkpt lat="45.94494" lon="4.69017">
        <ele>338.399993896</ele>
        <time>2015-12-09T15:08:38.499Z</time>
      </trkpt>
      <trkpt lat="45.94498" lon="4.69018">
        <ele>338.200012207</ele>
        <time>2015-12-09T15:08:39.483Z</time>
      </trkpt>
      <trkpt lat="45.94503" lon="4.6902">
        <ele>338.200012207</ele>
        <time>2015-12-09T15:08:40.502Z</time>
      </trkpt>
      <trkpt lat="45.94507" lon="4.69022">
        <ele>338.299987793</ele>
        <time>2015-12-09T15:08:41.486Z</time>
      </trkpt>
      <trkpt lat="45.94512" lon="4.69023">
        <ele>338.299987793</ele>
        <time>2015-12-09T15:08:42.5Z</time>
      </trkpt>
      <trkpt lat="45.94517" lon="4.69024">
        <ele>338.299987793</ele>
        <time>2015-12-09T15:08:43.484Z</time>
      </trkpt>
      <trkpt lat="45.94522" lon="4.69025">
        <ele>338.399993896</ele>
        <time>2015-12-09T15:08:44.497Z</time>
      </trkpt>
      <trkpt lat="45.94527" lon="4.69026">
        <ele>338.399993896</ele>
        <time>2015-12-09T15:08:45.483Z</time>
      </trkpt>
      <trkpt lat="45.94532" lon="4.69027">
        <ele>338.200012207</ele>
        <time>2015-12-09T15:08:46.63Z</time>
      </trkpt>
      <trkpt lat="45.94536" lon="4.69028">
        <ele>338.700012207</ele>
        <time>2015-12-09T15:08:47.483Z</time>
      </trkpt>
      <trkpt lat="45.94541" lon="4.6903">
        <ele>338.799987793</ele>
        <time>2015-12-09T15:08:48.498Z</time>
      </trkpt>
      <trkpt lat="45.94545" lon="4.69031">
        <ele>338.799987793</ele>
        <time>2015-12-09T15:08:49.484Z</time>
      </trkpt>
      <trkpt lat="45.9455" lon="4.69033">
        <ele>338.899993896</ele>
        <time>2015-12-09T15:08:50.497Z</time>
      </trkpt>
      <trkpt lat="45.94554" lon="4.69034">
        <ele>338.600006104</ele>
        <time>2015-12-09T15:08:51.483Z</time>
      </trkpt>
      <trkpt lat="45.94559" lon="4.69036">
        <ele>338.399993896</ele>
        <time>2015-12-09T15:08:52.501Z</time>
      </trkpt>
      <trkpt lat="45.94563" lon="4.69037">
        <ele>338.399993896</ele>
        <time>2015-12-09T15:08:53.483Z</time>
      </trkpt>
      <trkpt lat="45.94568" lon="4.69038">
        <ele>338.399993896</ele>
        <time>2015-12-09T15:08:54.499Z</time>
      </trkpt>
      <trkpt lat="45.94572" lon="4.69039">
        <ele>338.399993896</ele>
        <time>2015-12-09T15:08:55.484Z</time>
      </trkpt>
      <trkpt lat="45.94577" lon="4.6904">
        <ele>339.100006104</ele>
        <time>2015-12-09T15:08:56.498Z</time>
      </trkpt>
      <trkpt lat="45.94582" lon="4.69041">
        <ele>339.299987793</ele>
        <time>2015-12-09T15:08:57.484Z</time>
      </trkpt>
      <trkpt lat="45.94587" lon="4.69042">
        <ele>339.399993896</ele>
        <time>2015-12-09T15:08:58.501Z</time>
      </trkpt>
      <trkpt lat="45.94591" lon="4.69044">
        <ele>340.100006104</ele>
        <time>2015-12-09T15:08:59.483Z</time>
      </trkpt>
      <trkpt lat="45.94596" lon="4.69045">
        <ele>340.700012207</ele>
        <time>2015-12-09T15:09:00.499Z</time>
      </trkpt>
      <trkpt lat="45.946" lon="4.69047">
        <ele>340.700012207</ele>
        <time>2015-12-09T15:09:01.498Z</time>
      </trkpt>
      <trkpt lat="45.94605" lon="4.69048">
        <ele>340.899993896</ele>
        <time>2015-12-09T15:09:02.499Z</time>
      </trkpt>
      <trkpt lat="45.9461" lon="4.69049">
        <ele>341</ele>
        <time>2015-12-09T15:09:03.483Z</time>
      </trkpt>
      <trkpt lat="45.94614" lon="4.6905">
        <ele>341.200012207</ele>
        <time>2015-12-09T15:09:04.501Z</time>
      </trkpt>
      <trkpt lat="45.94619" lon="4.69051">
        <ele>341.399993896</ele>
        <time>2015-12-09T15:09:05.483Z</time>
      </trkpt>
      <trkpt lat="45.94623" lon="4.69052">
        <ele>341.799987793</ele>
        <time>2015-12-09T15:09:06.499Z</time>
      </trkpt>
      <trkpt lat="45.94628" lon="4.69053">
        <ele>342</ele>
        <time>2015-12-09T15:09:07.486Z</time>
      </trkpt>
      <trkpt lat="45.94632" lon="4.69055">
        <ele>342.399993896</ele>
        <time>2015-12-09T15:09:08.498Z</time>
      </trkpt>
      <trkpt lat="45.94637" lon="4.69057">
        <ele>342.399993896</ele>
        <time>2015-12-09T15:09:09.483Z</time>
      </trkpt>
      <trkpt lat="45.94641" lon="4.69059">
        <ele>342.5</ele>
        <time>2015-12-09T15:09:10.502Z</time>
      </trkpt>
      <trkpt lat="45.94645" lon="4.69061">
        <ele>342.799987793</ele>
        <time>2015-12-09T15:09:11.487Z</time>
      </trkpt>
      <trkpt lat="45.9465" lon="4.69062">
        <ele>342.700012207</ele>
        <time>2015-12-09T15:09:12.499Z</time>
      </trkpt>
      <trkpt lat="45.94654" lon="4.69064">
        <ele>342.399993896</ele>
        <time>2015-12-09T15:09:13.484Z</time>
      </trkpt>
      <trkpt lat="45.94659" lon="4.69066">
        <ele>342.399993896</ele>
        <time>2015-12-09T15:09:14.498Z</time>
      </trkpt>
      <trkpt lat="45.94663" lon="4.69068">
        <ele>342.399993896</ele>
        <time>2015-12-09T15:09:15.483Z</time>
      </trkpt>
      <trkpt lat="45.94667" lon="4.6907">
        <ele>342.600006104</ele>
        <time>2015-12-09T15:09:16.502Z</time>
      </trkpt>
      <trkpt lat="45.94672" lon="4.69071">
        <ele>342.299987793</ele>
        <time>2015-12-09T15:09:17.484Z</time>
      </trkpt>
      <trkpt lat="45.94676" lon="4.69073">
        <ele>342.5</ele>
        <time>2015-12-09T15:09:18.499Z</time>
      </trkpt>
      <trkpt lat="45.94681" lon="4.69075">
        <ele>342.5</ele>
        <time>2015-12-09T15:09:19.483Z</time>
      </trkpt>
      <trkpt lat="45.94686" lon="4.69076">
        <ele>342.5</ele>
        <time>2015-12-09T15:09:20.513Z</time>
      </trkpt>
      <trkpt lat="45.94691" lon="4.69077">
        <ele>342.700012207</ele>
        <time>2015-12-09T15:09:21.484Z</time>
      </trkpt>
      <trkpt lat="45.94695" lon="4.69078">
        <ele>342.600006104</ele>
        <time>2015-12-09T15:09:22.518Z</time>
      </trkpt>
      <trkpt lat="45.947" lon="4.6908">
        <ele>342.5</ele>
        <time>2015-12-09T15:09:23.484Z</time>
      </trkpt>
      <trkpt lat="45.94705" lon="4.69082">
        <ele>342.600006104</ele>
        <time>2015-12-09T15:09:24.499Z</time>
      </trkpt>
      <trkpt lat="45.94709" lon="4.69084">
        <ele>342.700012207</ele>
        <time>2015-12-09T15:09:25.484Z</time>
      </trkpt>
      <trkpt lat="45.94714" lon="4.69086">
        <ele>342.799987793</ele>
        <time>2015-12-09T15:09:26.499Z</time>
      </trkpt>
      <trkpt lat="45.94719" lon="4.69087">
        <ele>343.200012207</ele>
        <time>2015-12-09T15:09:27.483Z</time>
      </trkpt>
      <trkpt lat="45.94724" lon="4.69089">
        <ele>343.399993896</ele>
        <time>2015-12-09T15:09:28.502Z</time>
      </trkpt>
      <trkpt lat="45.94729" lon="4.6909">
        <ele>343.5</ele>
        <time>2015-12-09T15:09:29.483Z</time>
      </trkpt>
      <trkpt lat="45.94734" lon="4.69092">
        <ele>343.200012207</ele>
        <time>2015-12-09T15:09:30.5Z</time>
      </trkpt>
      <trkpt lat="45.94738" lon="4.69094">
        <ele>343.100006104</ele>
        <time>2015-12-09T15:09:31.483Z</time>
      </trkpt>
      <trkpt lat="45.94743" lon="4.69096">
        <ele>343.200012207</ele>
        <time>2015-12-09T15:09:32.497Z</time>
      </trkpt>
      <trkpt lat="45.94748" lon="4.69098">
        <ele>343.200012207</ele>
        <time>2015-12-09T15:09:33.486Z</time>
      </trkpt>
      <trkpt lat="45.94753" lon="4.69099">
        <ele>343.200012207</ele>
        <time>2015-12-09T15:09:34.502Z</time>
      </trkpt>
      <trkpt lat="45.94758" lon="4.69101">
        <ele>343.200012207</ele>
        <time>2015-12-09T15:09:35.482Z</time>
      </trkpt>
      <trkpt lat="45.94763" lon="4.69103">
        <ele>343.299987793</ele>
        <time>2015-12-09T15:09:36.498Z</time>
      </trkpt>
      <trkpt lat="45.94768" lon="4.69104">
        <ele>343.399993896</ele>
        <time>2015-12-09T15:09:37.483Z</time>
      </trkpt>
      <trkpt lat="45.94773" lon="4.69105">
        <ele>343.799987793</ele>
        <time>2015-12-09T15:09:38.512Z</time>
      </trkpt>
      <trkpt lat="45.94779" lon="4.69107">
        <ele>344</ele>
        <time>2015-12-09T15:09:39.483Z</time>
      </trkpt>
      <trkpt lat="45.94784" lon="4.69109">
        <ele>343.799987793</ele>
        <time>2015-12-09T15:09:40.501Z</time>
      </trkpt>
      <trkpt lat="45.94789" lon="4.6911">
        <ele>343.700012207</ele>
        <time>2015-12-09T15:09:41.483Z</time>
      </trkpt>
      <trkpt lat="45.94794" lon="4.69112">
        <ele>343.600006104</ele>
        <time>2015-12-09T15:09:42.498Z</time>
      </trkpt>
      <trkpt lat="45.94798" lon="4.69113">
        <ele>343.5</ele>
        <time>2015-12-09T15:09:43.483Z</time>
      </trkpt>
      <trkpt lat="45.94803" lon="4.69115">
        <ele>343.399993896</ele>
        <time>2015-12-09T15:09:44.497Z</time>
      </trkpt>
      <trkpt lat="45.94807" lon="4.69117">
        <ele>343.200012207</ele>
        <time>2015-12-09T15:09:45.483Z</time>
      </trkpt>
      <trkpt lat="45.94812" lon="4.69118">
        <ele>343.299987793</ele>
        <time>2015-12-09T15:09:46.5Z</time>
      </trkpt>
      <trkpt lat="45.94817" lon="4.6912">
        <ele>343.299987793</ele>
        <time>2015-12-09T15:09:47.483Z</time>
      </trkpt>
      <trkpt lat="45.94822" lon="4.6912">
        <ele>343.100006104</ele>
        <time>2015-12-09T15:09:48.498Z</time>
      </trkpt>
      <trkpt lat="45.94827" lon="4.69121">
        <ele>343.399993896</ele>
        <time>2015-12-09T15:09:49.497Z</time>
      </trkpt>
      <trkpt lat="45.94832" lon="4.69122">
        <ele>343.299987793</ele>
        <time>2015-12-09T15:09:50.497Z</time>
      </trkpt>
      <trkpt lat="45.94837" lon="4.69124">
        <ele>343.600006104</ele>
        <time>2015-12-09T15:09:51.483Z</time>
      </trkpt>
      <trkpt lat="45.94842" lon="4.69126">
        <ele>343.5</ele>
        <time>2015-12-09T15:09:52.501Z</time>
      </trkpt>
      <trkpt lat="45.94847" lon="4.69128">
        <ele>343.5</ele>
        <time>2015-12-09T15:09:53.483Z</time>
      </trkpt>
      <trkpt lat="45.94853" lon="4.6913">
        <ele>343.200012207</ele>
        <time>2015-12-09T15:09:54.499Z</time>
      </trkpt>
      <trkpt lat="45.94859" lon="4.69132">
        <ele>342.600006104</ele>
        <time>2015-12-09T15:09:55.483Z</time>
      </trkpt>
      <trkpt lat="45.94864" lon="4.69134">
        <ele>342.5</ele>
        <time>2015-12-09T15:09:56.497Z</time>
      </trkpt>
      <trkpt lat="45.9487" lon="4.69136">
        <ele>342.100006104</ele>
        <time>2015-12-09T15:09:57.482Z</time>
      </trkpt>
      <trkpt lat="45.94875" lon="4.69138">
        <ele>342</ele>
        <time>2015-12-09T15:09:58.501Z</time>
      </trkpt>
      <trkpt lat="45.9488" lon="4.69141">
        <ele>342.100006104</ele>
        <time>2015-12-09T15:09:59.486Z</time>
      </trkpt>
      <trkpt lat="45.94886" lon="4.69144">
        <ele>342.100006104</ele>
        <time>2015-12-09T15:10:00.498Z</time>
      </trkpt>
      <trkpt lat="45.94891" lon="4.69147">
        <ele>341.5</ele>
        <time>2015-12-09T15:10:01.483Z</time>
      </trkpt>
      <trkpt lat="45.94897" lon="4.6915">
        <ele>341.299987793</ele>
        <time>2015-12-09T15:10:02.497Z</time>
      </trkpt>
      <trkpt lat="45.94902" lon="4.69153">
        <ele>341.299987793</ele>
        <time>2015-12-09T15:10:03.483Z</time>
      </trkpt>
      <trkpt lat="45.94907" lon="4.69156">
        <ele>341.200012207</ele>
        <time>2015-12-09T15:10:04.501Z</time>
      </trkpt>
      <trkpt lat="45.94913" lon="4.69159">
        <ele>340.799987793</ele>
        <time>2015-12-09T15:10:05.483Z</time>
      </trkpt>
      <trkpt lat="45.94918" lon="4.69162">
        <ele>340.799987793</ele>
        <time>2015-12-09T15:10:06.498Z</time>
      </trkpt>
      <trkpt lat="45.94924" lon="4.69165">
        <ele>340.200012207</ele>
        <time>2015-12-09T15:10:07.483Z</time>
      </trkpt>
      <trkpt lat="45.9493" lon="4.69168">
        <ele>339.700012207</ele>
        <time>2015-12-09T15:10:08.505Z</time>
      </trkpt>
      <trkpt lat="45.94936" lon="4.69172">
        <ele>339.700012207</ele>
        <time>2015-12-09T15:10:09.482Z</time>
      </trkpt>
      <trkpt lat="45.94942" lon="4.69175">
        <ele>339.700012207</ele>
        <time>2015-12-09T15:10:10.516Z</time>
      </trkpt>
      <trkpt lat="45.94948" lon="4.6918">
        <ele>339.299987793</ele>
        <time>2015-12-09T15:10:11.485Z</time>
      </trkpt>
      <trkpt lat="45.94954" lon="4.69184">
        <ele>339.100006104</ele>
        <time>2015-12-09T15:10:12.499Z</time>
      </trkpt>
      <trkpt lat="45.9496" lon="4.69189">
        <ele>339.200012207</ele>
        <time>2015-12-09T15:10:13.483Z</time>
      </trkpt>
      <trkpt lat="45.94966" lon="4.69194">
        <ele>338.799987793</ele>
        <time>2015-12-09T15:10:14.497Z</time>
      </trkpt>
      <trkpt lat="45.94972" lon="4.69199">
        <ele>338.399993896</ele>
        <time>2015-12-09T15:10:15.483Z</time>
      </trkpt>
      <trkpt lat="45.94978" lon="4.69205">
        <ele>337.899993896</ele>
        <time>2015-12-09T15:10:16.539Z</time>
      </trkpt>
      <trkpt lat="45.94984" lon="4.6921">
        <ele>337.399993896</ele>
        <time>2015-12-09T15:10:17.483Z</time>
      </trkpt>
      <trkpt lat="45.94991" lon="4.69215">
        <ele>337</ele>
        <time>2015-12-09T15:10:18.5Z</time>
      </trkpt>
      <trkpt lat="45.94998" lon="4.69218">
        <ele>336.5</ele>
        <time>2015-12-09T15:10:19.483Z</time>
      </trkpt>
      <trkpt lat="45.95005" lon="4.69221">
        <ele>335.899993896</ele>
        <time>2015-12-09T15:10:20.498Z</time>
      </trkpt>
      <trkpt lat="45.95013" lon="4.69224">
        <ele>335.399993896</ele>
        <time>2015-12-09T15:10:21.483Z</time>
      </trkpt>
      <trkpt lat="45.9502" lon="4.69229">
        <ele>334.799987793</ele>
        <time>2015-12-09T15:10:22.501Z</time>
      </trkpt>
      <trkpt lat="45.95027" lon="4.69234">
        <ele>334.399993896</ele>
        <time>2015-12-09T15:10:23.483Z</time>
      </trkpt>
      <trkpt lat="45.95034" lon="4.6924">
        <ele>334.100006104</ele>
        <time>2015-12-09T15:10:24.498Z</time>
      </trkpt>
      <trkpt lat="45.95041" lon="4.69246">
        <ele>333.700012207</ele>
        <time>2015-12-09T15:10:25.485Z</time>
      </trkpt>
      <trkpt lat="45.95048" lon="4.69253">
        <ele>333.299987793</ele>
        <time>2015-12-09T15:10:26.513Z</time>
      </trkpt>
      <trkpt lat="45.95054" lon="4.6926">
        <ele>333.100006104</ele>
        <time>2015-12-09T15:10:27.483Z</time>
      </trkpt>
      <trkpt lat="45.95061" lon="4.69267">
        <ele>332.799987793</ele>
        <time>2015-12-09T15:10:28.501Z</time>
      </trkpt>
      <trkpt lat="45.95067" lon="4.69273">
        <ele>332.899993896</ele>
        <time>2015-12-09T15:10:29.483Z</time>
      </trkpt>
      <trkpt lat="45.95073" lon="4.6928">
        <ele>332.600006104</ele>
        <time>2015-12-09T15:10:30.498Z</time>
      </trkpt>
      <trkpt lat="45.9508" lon="4.69286">
        <ele>332.399993896</ele>
        <time>2015-12-09T15:10:31.483Z</time>
      </trkpt>
      <trkpt lat="45.95086" lon="4.69294">
        <ele>331.899993896</ele>
        <time>2015-12-09T15:10:32.498Z</time>
      </trkpt>
      <trkpt lat="45.95092" lon="4.69301">
        <ele>331.5</ele>
        <time>2015-12-09T15:10:33.483Z</time>
      </trkpt>
      <trkpt lat="45.95098" lon="4.69308">
        <ele>331.299987793</ele>
        <time>2015-12-09T15:10:34.501Z</time>
      </trkpt>
      <trkpt lat="45.95103" lon="4.69315">
        <ele>331.100006104</ele>
        <time>2015-12-09T15:10:35.482Z</time>
      </trkpt>
      <trkpt lat="45.95108" lon="4.69322">
        <ele>331.100006104</ele>
        <time>2015-12-09T15:10:36.502Z</time>
      </trkpt>
      <trkpt lat="45.95114" lon="4.69329">
        <ele>330.399993896</ele>
        <time>2015-12-09T15:10:37.483Z</time>
      </trkpt>
      <trkpt lat="45.95119" lon="4.69334">
        <ele>330.399993896</ele>
        <time>2015-12-09T15:10:38.497Z</time>
      </trkpt>
      <trkpt lat="45.95124" lon="4.6934">
        <ele>330.100006104</ele>
        <time>2015-12-09T15:10:39.483Z</time>
      </trkpt>
      <trkpt lat="45.95129" lon="4.69346">
        <ele>329.799987793</ele>
        <time>2015-12-09T15:10:40.501Z</time>
      </trkpt>
      <trkpt lat="45.95135" lon="4.69351">
        <ele>329.600006104</ele>
        <time>2015-12-09T15:10:41.482Z</time>
      </trkpt>
      <trkpt lat="45.9514" lon="4.69356">
        <ele>329.600006104</ele>
        <time>2015-12-09T15:10:42.513Z</time>
      </trkpt>
      <trkpt lat="45.95145" lon="4.69361">
        <ele>329.5</ele>
        <time>2015-12-09T15:10:43.482Z</time>
      </trkpt>
      <trkpt lat="45.9515" lon="4.69366">
        <ele>329.399993896</ele>
        <time>2015-12-09T15:10:44.502Z</time>
      </trkpt>
      <trkpt lat="45.95155" lon="4.6937">
        <ele>329.600006104</ele>
        <time>2015-12-09T15:10:45.482Z</time>
      </trkpt>
      <trkpt lat="45.95161" lon="4.69375">
        <ele>329.600006104</ele>
        <time>2015-12-09T15:10:46.5Z</time>
      </trkpt>
      <trkpt lat="45.95166" lon="4.6938">
        <ele>329.600006104</ele>
        <time>2015-12-09T15:10:47.483Z</time>
      </trkpt>
      <trkpt lat="45.9517" lon="4.69385">
        <ele>329.600006104</ele>
        <time>2015-12-09T15:10:48.499Z</time>
      </trkpt>
      <trkpt lat="45.95176" lon="4.6939">
        <ele>329.700012207</ele>
        <time>2015-12-09T15:10:49.483Z</time>
      </trkpt>
      <trkpt lat="45.95181" lon="4.69394">
        <ele>329.5</ele>
        <time>2015-12-09T15:10:50.498Z</time>
      </trkpt>
      <trkpt lat="45.95186" lon="4.69397">
        <ele>329.299987793</ele>
        <time>2015-12-09T15:10:51.483Z</time>
      </trkpt>
      <trkpt lat="45.95191" lon="4.69401">
        <ele>329.399993896</ele>
        <time>2015-12-09T15:10:52.501Z</time>
      </trkpt>
      <trkpt lat="45.95197" lon="4.69404">
        <ele>329.399993896</ele>
        <time>2015-12-09T15:10:53.482Z</time>
      </trkpt>
      <trkpt lat="45.95203" lon="4.69407">
        <ele>329.700012207</ele>
        <time>2015-12-09T15:10:54.498Z</time>
      </trkpt>
      <trkpt lat="45.95208" lon="4.6941">
        <ele>329.700012207</ele>
        <time>2015-12-09T15:10:55.482Z</time>
      </trkpt>
      <trkpt lat="45.95213" lon="4.69414">
        <ele>329.700012207</ele>
        <time>2015-12-09T15:10:56.497Z</time>
      </trkpt>
      <trkpt lat="45.95219" lon="4.69416">
        <ele>330</ele>
        <time>2015-12-09T15:10:57.482Z</time>
      </trkpt>
      <trkpt lat="45.95224" lon="4.69419">
        <ele>329.899993896</ele>
        <time>2015-12-09T15:10:58.515Z</time>
      </trkpt>
      <trkpt lat="45.9523" lon="4.6942">
        <ele>330.200012207</ele>
        <time>2015-12-09T15:10:59.482Z</time>
      </trkpt>
      <trkpt lat="45.95235" lon="4.69423">
        <ele>330.399993896</ele>
        <time>2015-12-09T15:11:00.498Z</time>
      </trkpt>
      <trkpt lat="45.95239" lon="4.69424">
        <ele>330.600006104</ele>
        <time>2015-12-09T15:11:01.482Z</time>
      </trkpt>
      <trkpt lat="45.95244" lon="4.69426">
        <ele>330.700012207</ele>
        <time>2015-12-09T15:11:02.498Z</time>
      </trkpt>
      <trkpt lat="45.95248" lon="4.69427">
        <ele>331.100006104</ele>
        <time>2015-12-09T15:11:03.482Z</time>
      </trkpt>
      <trkpt lat="45.95253" lon="4.69429">
        <ele>331</ele>
        <time>2015-12-09T15:11:04.5Z</time>
      </trkpt>
      <trkpt lat="45.95258" lon="4.69432">
        <ele>331.200012207</ele>
        <time>2015-12-09T15:11:05.482Z</time>
      </trkpt>
      <trkpt lat="45.95263" lon="4.69435">
        <ele>331.100006104</ele>
        <time>2015-12-09T15:11:06.497Z</time>
      </trkpt>
      <trkpt lat="45.95269" lon="4.69438">
        <ele>331</ele>
        <time>2015-12-09T15:11:07.482Z</time>
      </trkpt>
      <trkpt lat="45.95274" lon="4.69441">
        <ele>331.100006104</ele>
        <time>2015-12-09T15:11:08.497Z</time>
      </trkpt>
      <trkpt lat="45.9528" lon="4.69443">
        <ele>331.100006104</ele>
        <time>2015-12-09T15:11:09.483Z</time>
      </trkpt>
      <trkpt lat="45.95285" lon="4.69446">
        <ele>331.200012207</ele>
        <time>2015-12-09T15:11:10.5Z</time>
      </trkpt>
      <trkpt lat="45.9529" lon="4.69448">
        <ele>331.299987793</ele>
        <time>2015-12-09T15:11:11.484Z</time>
      </trkpt>
      <trkpt lat="45.95296" lon="4.69451">
        <ele>331.299987793</ele>
        <time>2015-12-09T15:11:12.498Z</time>
      </trkpt>
      <trkpt lat="45.95302" lon="4.69453">
        <ele>331.399993896</ele>
        <time>2015-12-09T15:11:13.482Z</time>
      </trkpt>
      <trkpt lat="45.95308" lon="4.69456">
        <ele>331.399993896</ele>
        <time>2015-12-09T15:11:14.511Z</time>
      </trkpt>
      <trkpt lat="45.95313" lon="4.69459">
        <ele>331.5</ele>
        <time>2015-12-09T15:11:15.483Z</time>
      </trkpt>
      <trkpt lat="45.95319" lon="4.69461">
        <ele>331.799987793</ele>
        <time>2015-12-09T15:11:16.5Z</time>
      </trkpt>
      <trkpt lat="45.95324" lon="4.69464">
        <ele>332.100006104</ele>
        <time>2015-12-09T15:11:17.482Z</time>
      </trkpt>
      <trkpt lat="45.95329" lon="4.69466">
        <ele>332.5</ele>
        <time>2015-12-09T15:11:18.499Z</time>
      </trkpt>
      <trkpt lat="45.95334" lon="4.69469">
        <ele>332.600006104</ele>
        <time>2015-12-09T15:11:19.483Z</time>
      </trkpt>
      <trkpt lat="45.95339" lon="4.69472">
        <ele>332.600006104</ele>
        <time>2015-12-09T15:11:20.504Z</time>
      </trkpt>
      <trkpt lat="45.95344" lon="4.69475">
        <ele>332.5</ele>
        <time>2015-12-09T15:11:21.482Z</time>
      </trkpt>
      <trkpt lat="45.95349" lon="4.69478">
        <ele>332.5</ele>
        <time>2015-12-09T15:11:22.501Z</time>
      </trkpt>
      <trkpt lat="45.95354" lon="4.69481">
        <ele>332.700012207</ele>
        <time>2015-12-09T15:11:23.482Z</time>
      </trkpt>
      <trkpt lat="45.95358" lon="4.69485">
        <ele>332.799987793</ele>
        <time>2015-12-09T15:11:24.498Z</time>
      </trkpt>
      <trkpt lat="45.95363" lon="4.69489">
        <ele>333.100006104</ele>
        <time>2015-12-09T15:11:25.482Z</time>
      </trkpt>
      <trkpt lat="45.95368" lon="4.69493">
        <ele>333.200012207</ele>
        <time>2015-12-09T15:11:26.497Z</time>
      </trkpt>
      <trkpt lat="45.95373" lon="4.69497">
        <ele>333.200012207</ele>
        <time>2015-12-09T15:11:27.482Z</time>
      </trkpt>
      <trkpt lat="45.95378" lon="4.69501">
        <ele>333.299987793</ele>
        <time>2015-12-09T15:11:28.633Z</time>
      </trkpt>
      <trkpt lat="45.95383" lon="4.69505">
        <ele>333.399993896</ele>
        <time>2015-12-09T15:11:29.483Z</time>
      </trkpt>
      <trkpt lat="45.95388" lon="4.69508">
        <ele>333.700012207</ele>
        <time>2015-12-09T15:11:30.513Z</time>
      </trkpt>
      <trkpt lat="45.95393" lon="4.69512">
        <ele>333.799987793</ele>
        <time>2015-12-09T15:11:31.482Z</time>
      </trkpt>
      <trkpt lat="45.95398" lon="4.69515">
        <ele>333.700012207</ele>
        <time>2015-12-09T15:11:32.497Z</time>
      </trkpt>
      <trkpt lat="45.95404" lon="4.69518">
        <ele>334.100006104</ele>
        <time>2015-12-09T15:11:33.482Z</time>
      </trkpt>
      <trkpt lat="45.9541" lon="4.69521">
        <ele>334.100006104</ele>
        <time>2015-12-09T15:11:34.5Z</time>
      </trkpt>
      <trkpt lat="45.95415" lon="4.69525">
        <ele>334.200012207</ele>
        <time>2015-12-09T15:11:35.482Z</time>
      </trkpt>
      <trkpt lat="45.95421" lon="4.69528">
        <ele>334</ele>
        <time>2015-12-09T15:11:36.497Z</time>
      </trkpt>
      <trkpt lat="45.95426" lon="4.69531">
        <ele>334.100006104</ele>
        <time>2015-12-09T15:11:37.483Z</time>
      </trkpt>
      <trkpt lat="45.95431" lon="4.69533">
        <ele>334</ele>
        <time>2015-12-09T15:11:38.496Z</time>
      </trkpt>
      <trkpt lat="45.95437" lon="4.69536">
        <ele>334</ele>
        <time>2015-12-09T15:11:39.482Z</time>
      </trkpt>
      <trkpt lat="45.95443" lon="4.69538">
        <ele>334.200012207</ele>
        <time>2015-12-09T15:11:40.501Z</time>
      </trkpt>
      <trkpt lat="45.95448" lon="4.69541">
        <ele>334</ele>
        <time>2015-12-09T15:11:41.483Z</time>
      </trkpt>
      <trkpt lat="45.95454" lon="4.69543">
        <ele>333.899993896</ele>
        <time>2015-12-09T15:11:42.497Z</time>
      </trkpt>
      <trkpt lat="45.95459" lon="4.69546">
        <ele>333.899993896</ele>
        <time>2015-12-09T15:11:43.483Z</time>
      </trkpt>
      <trkpt lat="45.95465" lon="4.69549">
        <ele>334</ele>
        <time>2015-12-09T15:11:44.496Z</time>
      </trkpt>
      <trkpt lat="45.9547" lon="4.69551">
        <ele>334.100006104</ele>
        <time>2015-12-09T15:11:45.482Z</time>
      </trkpt>
      <trkpt lat="45.95475" lon="4.69554">
        <ele>333.700012207</ele>
        <time>2015-12-09T15:11:46.516Z</time>
      </trkpt>
      <trkpt lat="45.95481" lon="4.69557">
        <ele>333.399993896</ele>
        <time>2015-12-09T15:11:47.482Z</time>
      </trkpt>
      <trkpt lat="45.95487" lon="4.6956">
        <ele>333.100006104</ele>
        <time>2015-12-09T15:11:48.498Z</time>
      </trkpt>
      <trkpt lat="45.95493" lon="4.69563">
        <ele>333</ele>
        <time>2015-12-09T15:11:49.482Z</time>
      </trkpt>
      <trkpt lat="45.95498" lon="4.69566">
        <ele>332.600006104</ele>
        <time>2015-12-09T15:11:50.497Z</time>
      </trkpt>
      <trkpt lat="45.95504" lon="4.69569">
        <ele>332.299987793</ele>
        <time>2015-12-09T15:11:51.482Z</time>
      </trkpt>
      <trkpt lat="45.9551" lon="4.69572">
        <ele>332.200012207</ele>
        <time>2015-12-09T15:11:52.501Z</time>
      </trkpt>
      <trkpt lat="45.95516" lon="4.69574">
        <ele>332.200012207</ele>
        <time>2015-12-09T15:11:53.482Z</time>
      </trkpt>
      <trkpt lat="45.95522" lon="4.69577">
        <ele>331.799987793</ele>
        <time>2015-12-09T15:11:54.501Z</time>
      </trkpt>
      <trkpt lat="45.95528" lon="4.69581">
        <ele>331.600006104</ele>
        <time>2015-12-09T15:11:55.482Z</time>
      </trkpt>
      <trkpt lat="45.95534" lon="4.69584">
        <ele>331.5</ele>
        <time>2015-12-09T15:11:56.497Z</time>
      </trkpt>
      <trkpt lat="45.95541" lon="4.69587">
        <ele>331.200012207</ele>
        <time>2015-12-09T15:11:57.482Z</time>
      </trkpt>
      <trkpt lat="45.95547" lon="4.6959">
        <ele>331</ele>
        <time>2015-12-09T15:11:58.5Z</time>
      </trkpt>
      <trkpt lat="45.95554" lon="4.69594">
        <ele>330.799987793</ele>
        <time>2015-12-09T15:11:59.482Z</time>
      </trkpt>
      <trkpt lat="45.95561" lon="4.69597">
        <ele>330.299987793</ele>
        <time>2015-12-09T15:12:00.497Z</time>
      </trkpt>
      <trkpt lat="45.95567" lon="4.696">
        <ele>329.799987793</ele>
        <time>2015-12-09T15:12:01.482Z</time>
      </trkpt>
      <trkpt lat="45.95574" lon="4.69603">
        <ele>329.100006104</ele>
        <time>2015-12-09T15:12:02.51Z</time>
      </trkpt>
      <trkpt lat="45.95581" lon="4.69606">
        <ele>328.5</ele>
        <time>2015-12-09T15:12:03.482Z</time>
      </trkpt>
      <trkpt lat="45.95588" lon="4.69608">
        <ele>328.200012207</ele>
        <time>2015-12-09T15:12:04.5Z</time>
      </trkpt>
      <trkpt lat="45.95595" lon="4.69611">
        <ele>328.200012207</ele>
        <time>2015-12-09T15:12:05.482Z</time>
      </trkpt>
      <trkpt lat="45.95601" lon="4.69614">
        <ele>327.799987793</ele>
        <time>2015-12-09T15:12:06.497Z</time>
      </trkpt>
      <trkpt lat="45.95609" lon="4.69617">
        <ele>327.600006104</ele>
        <time>2015-12-09T15:12:07.482Z</time>
      </trkpt>
      <trkpt lat="45.95616" lon="4.6962">
        <ele>327.399993896</ele>
        <time>2015-12-09T15:12:08.496Z</time>
      </trkpt>
      <trkpt lat="45.95622" lon="4.69622">
        <ele>327.200012207</ele>
        <time>2015-12-09T15:12:09.482Z</time>
      </trkpt>
      <trkpt lat="45.9563" lon="4.69625">
        <ele>327.200012207</ele>
        <time>2015-12-09T15:12:10.5Z</time>
      </trkpt>
      <trkpt lat="45.95637" lon="4.69627">
        <ele>327</ele>
        <time>2015-12-09T15:12:11.485Z</time>
      </trkpt>
      <trkpt lat="45.95643" lon="4.6963">
        <ele>326.899993896</ele>
        <time>2015-12-09T15:12:12.498Z</time>
      </trkpt>
      <trkpt lat="45.9565" lon="4.69633">
        <ele>326.799987793</ele>
        <time>2015-12-09T15:12:13.482Z</time>
      </trkpt>
      <trkpt lat="45.95657" lon="4.69635">
        <ele>326.600006104</ele>
        <time>2015-12-09T15:12:14.502Z</time>
      </trkpt>
      <trkpt lat="45.95664" lon="4.69638">
        <ele>326.700012207</ele>
        <time>2015-12-09T15:12:15.494Z</time>
      </trkpt>
      <trkpt lat="45.9567" lon="4.69641">
        <ele>326.5</ele>
        <time>2015-12-09T15:12:16.5Z</time>
      </trkpt>
      <trkpt lat="45.95677" lon="4.69643">
        <ele>326.299987793</ele>
        <time>2015-12-09T15:12:17.482Z</time>
      </trkpt>
      <trkpt lat="45.95684" lon="4.69646">
        <ele>326.299987793</ele>
        <time>2015-12-09T15:12:18.517Z</time>
      </trkpt>
      <trkpt lat="45.95691" lon="4.69649">
        <ele>326</ele>
        <time>2015-12-09T15:12:19.482Z</time>
      </trkpt>
      <trkpt lat="45.95697" lon="4.69651">
        <ele>325.700012207</ele>
        <time>2015-12-09T15:12:20.644Z</time>
      </trkpt>
      <trkpt lat="45.95704" lon="4.69653">
        <ele>325.700012207</ele>
        <time>2015-12-09T15:12:21.483Z</time>
      </trkpt>
      <trkpt lat="45.9571" lon="4.69656">
        <ele>325.399993896</ele>
        <time>2015-12-09T15:12:22.5Z</time>
      </trkpt>
      <trkpt lat="45.95716" lon="4.69658">
        <ele>325.5</ele>
        <time>2015-12-09T15:12:23.482Z</time>
      </trkpt>
      <trkpt lat="45.95722" lon="4.6966">
        <ele>325.200012207</ele>
        <time>2015-12-09T15:12:24.497Z</time>
      </trkpt>
      <trkpt lat="45.95728" lon="4.69662">
        <ele>325</ele>
        <time>2015-12-09T15:12:25.482Z</time>
      </trkpt>
      <trkpt lat="45.95734" lon="4.69665">
        <ele>324.899993896</ele>
        <time>2015-12-09T15:12:26.497Z</time>
      </trkpt>
      <trkpt lat="45.95739" lon="4.69668">
        <ele>325</ele>
        <time>2015-12-09T15:12:27.482Z</time>
      </trkpt>
      <trkpt lat="45.95744" lon="4.69672">
        <ele>325.299987793</ele>
        <time>2015-12-09T15:12:28.5Z</time>
      </trkpt>
      <trkpt lat="45.95749" lon="4.69675">
        <ele>325</ele>
        <time>2015-12-09T15:12:29.482Z</time>
      </trkpt>
      <trkpt lat="45.95754" lon="4.69679">
        <ele>325</ele>
        <time>2015-12-09T15:12:30.497Z</time>
      </trkpt>
      <trkpt lat="45.95759" lon="4.69682">
        <ele>325.100006104</ele>
        <time>2015-12-09T15:12:31.482Z</time>
      </trkpt>
      <trkpt lat="45.95765" lon="4.69685">
        <ele>324.799987793</ele>
        <time>2015-12-09T15:12:32.496Z</time>
      </trkpt>
      <trkpt lat="45.9577" lon="4.69689">
        <ele>325.100006104</ele>
        <time>2015-12-09T15:12:33.482Z</time>
      </trkpt>
      <trkpt lat="45.95775" lon="4.69692">
        <ele>324.700012207</ele>
        <time>2015-12-09T15:12:34.521Z</time>
      </trkpt>
      <trkpt lat="45.95781" lon="4.69697">
        <ele>324</ele>
        <time>2015-12-09T15:12:35.484Z</time>
      </trkpt>
      <trkpt lat="45.95786" lon="4.69701">
        <ele>323.600006104</ele>
        <time>2015-12-09T15:12:36.499Z</time>
      </trkpt>
      <trkpt lat="45.95792" lon="4.69707">
        <ele>323.600006104</ele>
        <time>2015-12-09T15:12:37.485Z</time>
      </trkpt>
      <trkpt lat="45.95796" lon="4.69713">
        <ele>323.399993896</ele>
        <time>2015-12-09T15:12:38.498Z</time>
      </trkpt>
      <trkpt lat="45.958" lon="4.69719">
        <ele>323.399993896</ele>
        <time>2015-12-09T15:12:39.484Z</time>
      </trkpt>
      <trkpt lat="45.95804" lon="4.69725">
        <ele>323.399993896</ele>
        <time>2015-12-09T15:12:40.501Z</time>
      </trkpt>
      <trkpt lat="45.95809" lon="4.69732">
        <ele>323.399993896</ele>
        <time>2015-12-09T15:12:41.482Z</time>
      </trkpt>
      <trkpt lat="45.95813" lon="4.69738">
        <ele>323.5</ele>
        <time>2015-12-09T15:12:42.497Z</time>
      </trkpt>
      <trkpt lat="45.95816" lon="4.69745">
        <ele>323.399993896</ele>
        <time>2015-12-09T15:12:43.482Z</time>
      </trkpt>
      <trkpt lat="45.9582" lon="4.6975">
        <ele>323.799987793</ele>
        <time>2015-12-09T15:12:44.496Z</time>
      </trkpt>
      <trkpt lat="45.95824" lon="4.69756">
        <ele>324.399993896</ele>
        <time>2015-12-09T15:12:45.482Z</time>
      </trkpt>
      <trkpt lat="45.95828" lon="4.69762">
        <ele>324.600006104</ele>
        <time>2015-12-09T15:12:46.504Z</time>
      </trkpt>
      <trkpt lat="45.95831" lon="4.69768">
        <ele>324.700012207</ele>
        <time>2015-12-09T15:12:47.483Z</time>
      </trkpt>
      <trkpt lat="45.95834" lon="4.69775">
        <ele>324.600006104</ele>
        <time>2015-12-09T15:12:48.497Z</time>
      </trkpt>
      <trkpt lat="45.95838" lon="4.69781">
        <ele>324.799987793</ele>
        <time>2015-12-09T15:12:49.482Z</time>
      </trkpt>
      <trkpt lat="45.95841" lon="4.69787">
        <ele>324.799987793</ele>
        <time>2015-12-09T15:12:50.539Z</time>
      </trkpt>
      <trkpt lat="45.95845" lon="4.69792">
        <ele>324.700012207</ele>
        <time>2015-12-09T15:12:51.482Z</time>
      </trkpt>
      <trkpt lat="45.95848" lon="4.69798">
        <ele>324.799987793</ele>
        <time>2015-12-09T15:12:52.5Z</time>
      </trkpt>
      <trkpt lat="45.95851" lon="4.69805">
        <ele>325</ele>
        <time>2015-12-09T15:12:53.482Z</time>
      </trkpt>
      <trkpt lat="45.95853" lon="4.69811">
        <ele>325.100006104</ele>
        <time>2015-12-09T15:12:54.497Z</time>
      </trkpt>
      <trkpt lat="45.95856" lon="4.69817">
        <ele>325.200012207</ele>
        <time>2015-12-09T15:12:55.482Z</time>
      </trkpt>
      <trkpt lat="45.95859" lon="4.69824">
        <ele>325.5</ele>
        <time>2015-12-09T15:12:56.496Z</time>
      </trkpt>
      <trkpt lat="45.95862" lon="4.6983">
        <ele>325.399993896</ele>
        <time>2015-12-09T15:12:57.483Z</time>
      </trkpt>
      <trkpt lat="45.95865" lon="4.69836">
        <ele>325.600006104</ele>
        <time>2015-12-09T15:12:58.5Z</time>
      </trkpt>
      <trkpt lat="45.95868" lon="4.69843">
        <ele>325.600006104</ele>
        <time>2015-12-09T15:12:59.483Z</time>
      </trkpt>
      <trkpt lat="45.9587" lon="4.69849">
        <ele>325.700012207</ele>
        <time>2015-12-09T15:13:00.498Z</time>
      </trkpt>
      <trkpt lat="45.95872" lon="4.69856">
        <ele>325.5</ele>
        <time>2015-12-09T15:13:01.482Z</time>
      </trkpt>
      <trkpt lat="45.95874" lon="4.69863">
        <ele>326</ele>
        <time>2015-12-09T15:13:02.497Z</time>
      </trkpt>
      <trkpt lat="45.95876" lon="4.6987">
        <ele>326.299987793</ele>
        <time>2015-12-09T15:13:03.482Z</time>
      </trkpt>
      <trkpt lat="45.95878" lon="4.69877">
        <ele>326.600006104</ele>
        <time>2015-12-09T15:13:04.637Z</time>
      </trkpt>
      <trkpt lat="45.9588" lon="4.69885">
        <ele>326.600006104</ele>
        <time>2015-12-09T15:13:05.482Z</time>
      </trkpt>
      <trkpt lat="45.95882" lon="4.69892">
        <ele>326.600006104</ele>
        <time>2015-12-09T15:13:06.512Z</time>
      </trkpt>
      <trkpt lat="45.95884" lon="4.69899">
        <ele>326.5</ele>
        <time>2015-12-09T15:13:07.482Z</time>
      </trkpt>
      <trkpt lat="45.95886" lon="4.69906">
        <ele>326.5</ele>
        <time>2015-12-09T15:13:08.496Z</time>
      </trkpt>
      <trkpt lat="45.95888" lon="4.69912">
        <ele>326.5</ele>
        <time>2015-12-09T15:13:09.482Z</time>
      </trkpt>
      <trkpt lat="45.9589" lon="4.6992">
        <ele>326.200012207</ele>
        <time>2015-12-09T15:13:10.5Z</time>
      </trkpt>
      <trkpt lat="45.95891" lon="4.69928">
        <ele>326.299987793</ele>
        <time>2015-12-09T15:13:11.538Z</time>
      </trkpt>
      <trkpt lat="45.95893" lon="4.69935">
        <ele>326</ele>
        <time>2015-12-09T15:13:12.501Z</time>
      </trkpt>
      <trkpt lat="45.95895" lon="4.69942">
        <ele>325.899993896</ele>
        <time>2015-12-09T15:13:13.482Z</time>
      </trkpt>
      <trkpt lat="45.95897" lon="4.69949">
        <ele>326.200012207</ele>
        <time>2015-12-09T15:13:14.497Z</time>
      </trkpt>
      <trkpt lat="45.95899" lon="4.69956">
        <ele>326.5</ele>
        <time>2015-12-09T15:13:15.483Z</time>
      </trkpt>
      <trkpt lat="45.95901" lon="4.69963">
        <ele>326.700012207</ele>
        <time>2015-12-09T15:13:16.501Z</time>
      </trkpt>
      <trkpt lat="45.95903" lon="4.6997">
        <ele>327</ele>
        <time>2015-12-09T15:13:17.483Z</time>
      </trkpt>
      <trkpt lat="45.95905" lon="4.69978">
        <ele>327.100006104</ele>
        <time>2015-12-09T15:13:18.498Z</time>
      </trkpt>
      <trkpt lat="45.95907" lon="4.69985">
        <ele>326.799987793</ele>
        <time>2015-12-09T15:13:19.482Z</time>
      </trkpt>
      <trkpt lat="45.95909" lon="4.69992">
        <ele>326.799987793</ele>
        <time>2015-12-09T15:13:20.496Z</time>
      </trkpt>
      <trkpt lat="45.95912" lon="4.69999">
        <ele>327.5</ele>
        <time>2015-12-09T15:13:21.482Z</time>
      </trkpt>
      <trkpt lat="45.95914" lon="4.70006">
        <ele>328.100006104</ele>
        <time>2015-12-09T15:13:22.514Z</time>
      </trkpt>
      <trkpt lat="45.95917" lon="4.70013">
        <ele>328.200012207</ele>
        <time>2015-12-09T15:13:23.482Z</time>
      </trkpt>
      <trkpt lat="45.9592" lon="4.7002">
        <ele>328.200012207</ele>
        <time>2015-12-09T15:13:24.529Z</time>
      </trkpt>
      <trkpt lat="45.95922" lon="4.70027">
        <ele>328.299987793</ele>
        <time>2015-12-09T15:13:25.482Z</time>
      </trkpt>
      <trkpt lat="45.95926" lon="4.70033">
        <ele>327.799987793</ele>
        <time>2015-12-09T15:13:26.497Z</time>
      </trkpt>
      <trkpt lat="45.95929" lon="4.7004">
        <ele>327.899993896</ele>
        <time>2015-12-09T15:13:27.482Z</time>
      </trkpt>
      <trkpt lat="45.95933" lon="4.70046">
        <ele>327.899993896</ele>
        <time>2015-12-09T15:13:28.501Z</time>
      </trkpt>
      <trkpt lat="45.95936" lon="4.70052">
        <ele>328.100006104</ele>
        <time>2015-12-09T15:13:29.482Z</time>
      </trkpt>
      <trkpt lat="45.9594" lon="4.70058">
        <ele>328.200012207</ele>
        <time>2015-12-09T15:13:30.499Z</time>
      </trkpt>
      <trkpt lat="45.95944" lon="4.70063">
        <ele>328.299987793</ele>
        <time>2015-12-09T15:13:31.482Z</time>
      </trkpt>
      <trkpt lat="45.95948" lon="4.70068">
        <ele>328.399993896</ele>
        <time>2015-12-09T15:13:32.497Z</time>
      </trkpt>
      <trkpt lat="45.95952" lon="4.70073">
        <ele>328.600006104</ele>
        <time>2015-12-09T15:13:33.482Z</time>
      </trkpt>
      <trkpt lat="45.95956" lon="4.70078">
        <ele>328.799987793</ele>
        <time>2015-12-09T15:13:34.632Z</time>
      </trkpt>
      <trkpt lat="45.9596" lon="4.70082">
        <ele>328.799987793</ele>
        <time>2015-12-09T15:13:35.482Z</time>
      </trkpt>
      <trkpt lat="45.95964" lon="4.70088">
        <ele>328.799987793</ele>
        <time>2015-12-09T15:13:36.498Z</time>
      </trkpt>
      <trkpt lat="45.95968" lon="4.70093">
        <ele>328.799987793</ele>
        <time>2015-12-09T15:13:37.482Z</time>
      </trkpt>
      <trkpt lat="45.95972" lon="4.70097">
        <ele>328.899993896</ele>
        <time>2015-12-09T15:13:38.516Z</time>
      </trkpt>
      <trkpt lat="45.95976" lon="4.70103">
        <ele>328.899993896</ele>
        <time>2015-12-09T15:13:39.483Z</time>
      </trkpt>
      <trkpt lat="45.95981" lon="4.70107">
        <ele>329.200012207</ele>
        <time>2015-12-09T15:13:40.5Z</time>
      </trkpt>
      <trkpt lat="45.95985" lon="4.70112">
        <ele>329.899993896</ele>
        <time>2015-12-09T15:13:41.482Z</time>
      </trkpt>
      <trkpt lat="45.9599" lon="4.70117">
        <ele>329.799987793</ele>
        <time>2015-12-09T15:13:42.497Z</time>
      </trkpt>
      <trkpt lat="45.95994" lon="4.70121">
        <ele>329.700012207</ele>
        <time>2015-12-09T15:13:43.482Z</time>
      </trkpt>
      <trkpt lat="45.95998" lon="4.70125">
        <ele>329.600006104</ele>
        <time>2015-12-09T15:13:44.496Z</time>
      </trkpt>
      <trkpt lat="45.96002" lon="4.70129">
        <ele>329.399993896</ele>
        <time>2015-12-09T15:13:45.482Z</time>
      </trkpt>
      <trkpt lat="45.96007" lon="4.70134">
        <ele>329.399993896</ele>
        <time>2015-12-09T15:13:46.5Z</time>
      </trkpt>
      <trkpt lat="45.96011" lon="4.70138">
        <ele>329.600006104</ele>
        <time>2015-12-09T15:13:47.482Z</time>
      </trkpt>
      <trkpt lat="45.96016" lon="4.70142">
        <ele>329.399993896</ele>
        <time>2015-12-09T15:13:48.668Z</time>
      </trkpt>
      <trkpt lat="45.9602" lon="4.70147">
        <ele>329.399993896</ele>
        <time>2015-12-09T15:13:49.482Z</time>
      </trkpt>
      <trkpt lat="45.96025" lon="4.70151">
        <ele>329.5</ele>
        <time>2015-12-09T15:13:50.496Z</time>
      </trkpt>
      <trkpt lat="45.96029" lon="4.70155">
        <ele>330</ele>
        <time>2015-12-09T15:13:51.482Z</time>
      </trkpt>
      <trkpt lat="45.96034" lon="4.70159">
        <ele>330.299987793</ele>
        <time>2015-12-09T15:13:52.5Z</time>
      </trkpt>
      <trkpt lat="45.96039" lon="4.70163">
        <ele>330.700012207</ele>
        <time>2015-12-09T15:13:53.482Z</time>
      </trkpt>
      <trkpt lat="45.96043" lon="4.70167">
        <ele>330.799987793</ele>
        <time>2015-12-09T15:13:54.498Z</time>
      </trkpt>
      <trkpt lat="45.96048" lon="4.70171">
        <ele>330.700012207</ele>
        <time>2015-12-09T15:13:55.482Z</time>
      </trkpt>
      <trkpt lat="45.96053" lon="4.70176">
        <ele>330.899993896</ele>
        <time>2015-12-09T15:13:56.496Z</time>
      </trkpt>
      <trkpt lat="45.96057" lon="4.7018">
        <ele>331.100006104</ele>
        <time>2015-12-09T15:13:57.482Z</time>
      </trkpt>
      <trkpt lat="45.96062" lon="4.70185">
        <ele>331</ele>
        <time>2015-12-09T15:13:58.5Z</time>
      </trkpt>
      <trkpt lat="45.96067" lon="4.7019">
        <ele>330.600006104</ele>
        <time>2015-12-09T15:13:59.482Z</time>
      </trkpt>
      <trkpt lat="45.96072" lon="4.70194">
        <ele>330.200012207</ele>
        <time>2015-12-09T15:14:00.498Z</time>
      </trkpt>
      <trkpt lat="45.96077" lon="4.70199">
        <ele>329.600006104</ele>
        <time>2015-12-09T15:14:01.482Z</time>
      </trkpt>
      <trkpt lat="45.96082" lon="4.70203">
        <ele>328.899993896</ele>
        <time>2015-12-09T15:14:02.496Z</time>
      </trkpt>
      <trkpt lat="45.96088" lon="4.70207">
        <ele>328.100006104</ele>
        <time>2015-12-09T15:14:03.482Z</time>
      </trkpt>
      <trkpt lat="45.96093" lon="4.70211">
        <ele>327.399993896</ele>
        <time>2015-12-09T15:14:04.5Z</time>
      </trkpt>
      <trkpt lat="45.96098" lon="4.70215">
        <ele>326.600006104</ele>
        <time>2015-12-09T15:14:05.482Z</time>
      </trkpt>
      <trkpt lat="45.96104" lon="4.7022">
        <ele>326</ele>
        <time>2015-12-09T15:14:06.498Z</time>
      </trkpt>
      <trkpt lat="45.96109" lon="4.70225">
        <ele>325.600006104</ele>
        <time>2015-12-09T15:14:07.52Z</time>
      </trkpt>
      <trkpt lat="45.96115" lon="4.7023">
        <ele>325.299987793</ele>
        <time>2015-12-09T15:14:08.497Z</time>
      </trkpt>
      <trkpt lat="45.96121" lon="4.70236">
        <ele>324.799987793</ele>
        <time>2015-12-09T15:14:09.482Z</time>
      </trkpt>
      <trkpt lat="45.96127" lon="4.70241">
        <ele>324.399993896</ele>
        <time>2015-12-09T15:14:10.513Z</time>
      </trkpt>
      <trkpt lat="45.96132" lon="4.70247">
        <ele>324.299987793</ele>
        <time>2015-12-09T15:14:11.484Z</time>
      </trkpt>
      <trkpt lat="45.96138" lon="4.70252">
        <ele>324.200012207</ele>
        <time>2015-12-09T15:14:12.497Z</time>
      </trkpt>
      <trkpt lat="45.96144" lon="4.70258">
        <ele>323.899993896</ele>
        <time>2015-12-09T15:14:13.482Z</time>
      </trkpt>
      <trkpt lat="45.96149" lon="4.70263">
        <ele>324.100006104</ele>
        <time>2015-12-09T15:14:14.499Z</time>
      </trkpt>
      <trkpt lat="45.96154" lon="4.70269">
        <ele>324.399993896</ele>
        <time>2015-12-09T15:14:15.482Z</time>
      </trkpt>
      <trkpt lat="45.96159" lon="4.70275">
        <ele>324.299987793</ele>
        <time>2015-12-09T15:14:16.5Z</time>
      </trkpt>
      <trkpt lat="45.96164" lon="4.7028">
        <ele>324.700012207</ele>
        <time>2015-12-09T15:14:17.482Z</time>
      </trkpt>
      <trkpt lat="45.96169" lon="4.70286">
        <ele>324.799987793</ele>
        <time>2015-12-09T15:14:18.497Z</time>
      </trkpt>
      <trkpt lat="45.96174" lon="4.70292">
        <ele>324.799987793</ele>
        <time>2015-12-09T15:14:19.482Z</time>
      </trkpt>
      <trkpt lat="45.96178" lon="4.70298">
        <ele>325.100006104</ele>
        <time>2015-12-09T15:14:20.496Z</time>
      </trkpt>
      <trkpt lat="45.96183" lon="4.70305">
        <ele>325.200012207</ele>
        <time>2015-12-09T15:14:21.481Z</time>
      </trkpt>
      <trkpt lat="45.96188" lon="4.70311">
        <ele>325.5</ele>
        <time>2015-12-09T15:14:22.499Z</time>
      </trkpt>
      <trkpt lat="45.96192" lon="4.70318">
        <ele>325.600006104</ele>
        <time>2015-12-09T15:14:23.482Z</time>
      </trkpt>
      <trkpt lat="45.96197" lon="4.70325">
        <ele>325.700012207</ele>
        <time>2015-12-09T15:14:24.498Z</time>
      </trkpt>
      <trkpt lat="45.96202" lon="4.70333">
        <ele>325.700012207</ele>
        <time>2015-12-09T15:14:25.482Z</time>
      </trkpt>
      <trkpt lat="45.96206" lon="4.7034">
        <ele>325.899993896</ele>
        <time>2015-12-09T15:14:26.51Z</time>
      </trkpt>
      <trkpt lat="45.96211" lon="4.70347">
        <ele>326</ele>
        <time>2015-12-09T15:14:27.482Z</time>
      </trkpt>
      <trkpt lat="45.96215" lon="4.70354">
        <ele>326</ele>
        <time>2015-12-09T15:14:28.499Z</time>
      </trkpt>
      <trkpt lat="45.9622" lon="4.7036">
        <ele>325.899993896</ele>
        <time>2015-12-09T15:14:29.481Z</time>
      </trkpt>
      <trkpt lat="45.96224" lon="4.70368">
        <ele>326</ele>
        <time>2015-12-09T15:14:30.497Z</time>
      </trkpt>
      <trkpt lat="45.96228" lon="4.70374">
        <ele>325.600006104</ele>
        <time>2015-12-09T15:14:31.482Z</time>
      </trkpt>
      <trkpt lat="45.96233" lon="4.70381">
        <ele>325.600006104</ele>
        <time>2015-12-09T15:14:32.495Z</time>
      </trkpt>
      <trkpt lat="45.96237" lon="4.70388">
        <ele>325.600006104</ele>
        <time>2015-12-09T15:14:33.482Z</time>
      </trkpt>
      <trkpt lat="45.96242" lon="4.70395">
        <ele>324.5</ele>
        <time>2015-12-09T15:14:34.498Z</time>
      </trkpt>
      <trkpt lat="45.96247" lon="4.70402">
        <ele>323.600006104</ele>
        <time>2015-12-09T15:14:35.482Z</time>
      </trkpt>
      <trkpt lat="45.96252" lon="4.70408">
        <ele>322.600006104</ele>
        <time>2015-12-09T15:14:36.497Z</time>
      </trkpt>
      <trkpt lat="45.96256" lon="4.70415">
        <ele>322.5</ele>
        <time>2015-12-09T15:14:37.482Z</time>
      </trkpt>
      <trkpt lat="45.96261" lon="4.70422">
        <ele>322.399993896</ele>
        <time>2015-12-09T15:14:38.496Z</time>
      </trkpt>
      <trkpt lat="45.96266" lon="4.70428">
        <ele>322.200012207</ele>
        <time>2015-12-09T15:14:39.482Z</time>
      </trkpt>
      <trkpt lat="45.9627" lon="4.70435">
        <ele>322.200012207</ele>
        <time>2015-12-09T15:14:40.501Z</time>
      </trkpt>
      <trkpt lat="45.96275" lon="4.70442">
        <ele>322</ele>
        <time>2015-12-09T15:14:41.482Z</time>
      </trkpt>
      <trkpt lat="45.96279" lon="4.70449">
        <ele>321.799987793</ele>
        <time>2015-12-09T15:14:42.511Z</time>
      </trkpt>
      <trkpt lat="45.96284" lon="4.70456">
        <ele>321.600006104</ele>
        <time>2015-12-09T15:14:43.482Z</time>
      </trkpt>
      <trkpt lat="45.96289" lon="4.70464">
        <ele>321.399993896</ele>
        <time>2015-12-09T15:14:44.496Z</time>
      </trkpt>
      <trkpt lat="45.96294" lon="4.70471">
        <ele>321.399993896</ele>
        <time>2015-12-09T15:14:45.481Z</time>
      </trkpt>
      <trkpt lat="45.96299" lon="4.70479">
        <ele>321.200012207</ele>
        <time>2015-12-09T15:14:46.504Z</time>
      </trkpt>
      <trkpt lat="45.96304" lon="4.70486">
        <ele>320.799987793</ele>
        <time>2015-12-09T15:14:47.481Z</time>
      </trkpt>
      <trkpt lat="45.9631" lon="4.70494">
        <ele>320.200012207</ele>
        <time>2015-12-09T15:14:48.497Z</time>
      </trkpt>
      <trkpt lat="45.96315" lon="4.70502">
        <ele>319.799987793</ele>
        <time>2015-12-09T15:14:49.482Z</time>
      </trkpt>
      <trkpt lat="45.96321" lon="4.7051">
        <ele>318.700012207</ele>
        <time>2015-12-09T15:14:50.495Z</time>
      </trkpt>
      <trkpt lat="45.96326" lon="4.70517">
        <ele>318.100006104</ele>
        <time>2015-12-09T15:14:51.482Z</time>
      </trkpt>
      <trkpt lat="45.96332" lon="4.70526">
        <ele>317.5</ele>
        <time>2015-12-09T15:14:52.498Z</time>
      </trkpt>
      <trkpt lat="45.96338" lon="4.70534">
        <ele>317.299987793</ele>
        <time>2015-12-09T15:14:53.481Z</time>
      </trkpt>
      <trkpt lat="45.96345" lon="4.70542">
        <ele>317.200012207</ele>
        <time>2015-12-09T15:14:54.497Z</time>
      </trkpt>
      <trkpt lat="45.96351" lon="4.7055">
        <ele>316.600006104</ele>
        <time>2015-12-09T15:14:55.481Z</time>
      </trkpt>
      <trkpt lat="45.96357" lon="4.70558">
        <ele>316.100006104</ele>
        <time>2015-12-09T15:14:56.496Z</time>
      </trkpt>
      <trkpt lat="45.96364" lon="4.70566">
        <ele>315.700012207</ele>
        <time>2015-12-09T15:14:57.481Z</time>
      </trkpt>
      <trkpt lat="45.9637" lon="4.70575">
        <ele>315.399993896</ele>
        <time>2015-12-09T15:14:58.499Z</time>
      </trkpt>
      <trkpt lat="45.96377" lon="4.70583">
        <ele>315.600006104</ele>
        <time>2015-12-09T15:14:59.482Z</time>
      </trkpt>
      <trkpt lat="45.96377" lon="4.70583">
        <ele>315.600006104</ele>
        <time>2015-12-09T15:14:59.497Z</time>
      </trkpt>
      <trkpt lat="45.96383" lon="4.70591">
        <ele>314.5</ele>
        <time>2015-12-09T15:15:00.483Z</time>
      </trkpt>
      <trkpt lat="45.9639" lon="4.706">
        <ele>313.600006104</ele>
        <time>2015-12-09T15:15:01.496Z</time>
      </trkpt>
      <trkpt lat="45.96397" lon="4.70608">
        <ele>312.700012207</ele>
        <time>2015-12-09T15:15:02.482Z</time>
      </trkpt>
      <trkpt lat="45.96397" lon="4.70608">
        <ele>312.700012207</ele>
        <time>2015-12-09T15:15:02.529Z</time>
      </trkpt>
      <trkpt lat="45.96403" lon="4.70617">
        <ele>312.399993896</ele>
        <time>2015-12-09T15:15:03.481Z</time>
      </trkpt>
      <trkpt lat="45.96403" lon="4.70617">
        <ele>312.399993896</ele>
        <time>2015-12-09T15:15:03.5Z</time>
      </trkpt>
      <trkpt lat="45.96411" lon="4.70625">
        <ele>312</ele>
        <time>2015-12-09T15:15:04.484Z</time>
      </trkpt>
      <trkpt lat="45.96411" lon="4.70625">
        <ele>312</ele>
        <time>2015-12-09T15:15:04.5Z</time>
      </trkpt>
      <trkpt lat="45.96417" lon="4.70634">
        <ele>311.399993896</ele>
        <time>2015-12-09T15:15:05.482Z</time>
      </trkpt>
      <trkpt lat="45.96417" lon="4.70634">
        <ele>311.399993896</ele>
        <time>2015-12-09T15:15:05.497Z</time>
      </trkpt>
      <trkpt lat="45.96425" lon="4.70642">
        <ele>311.200012207</ele>
        <time>2015-12-09T15:15:06.486Z</time>
      </trkpt>
      <trkpt lat="45.96425" lon="4.70642">
        <ele>311.200012207</ele>
        <time>2015-12-09T15:15:06.502Z</time>
      </trkpt>
      <trkpt lat="45.96432" lon="4.7065">
        <ele>310.5</ele>
        <time>2015-12-09T15:15:07.482Z</time>
      </trkpt>
      <trkpt lat="45.96432" lon="4.7065">
        <ele>310.5</ele>
        <time>2015-12-09T15:15:07.497Z</time>
      </trkpt>
      <trkpt lat="45.9644" lon="4.70657">
        <ele>310</ele>
        <time>2015-12-09T15:15:08.482Z</time>
      </trkpt>
      <trkpt lat="45.9644" lon="4.70657">
        <ele>310</ele>
        <time>2015-12-09T15:15:08.497Z</time>
      </trkpt>
      <trkpt lat="45.96448" lon="4.70665">
        <ele>309.5</ele>
        <time>2015-12-09T15:15:09.482Z</time>
      </trkpt>
      <trkpt lat="45.96448" lon="4.70665">
        <ele>309.5</ele>
        <time>2015-12-09T15:15:09.513Z</time>
      </trkpt>
      <trkpt lat="45.96456" lon="4.70672">
        <ele>309.100006104</ele>
        <time>2015-12-09T15:15:10.484Z</time>
      </trkpt>
      <trkpt lat="45.96456" lon="4.70672">
        <ele>309.100006104</ele>
        <time>2015-12-09T15:15:10.5Z</time>
      </trkpt>
      <trkpt lat="45.96464" lon="4.7068">
        <ele>308.899993896</ele>
        <time>2015-12-09T15:15:11.484Z</time>
      </trkpt>
      <trkpt lat="45.96464" lon="4.7068">
        <ele>308.899993896</ele>
        <time>2015-12-09T15:15:11.5Z</time>
      </trkpt>
      <trkpt lat="45.96472" lon="4.70688">
        <ele>308.799987793</ele>
        <time>2015-12-09T15:15:12.482Z</time>
      </trkpt>
      <trkpt lat="45.96472" lon="4.70688">
        <ele>308.799987793</ele>
        <time>2015-12-09T15:15:12.498Z</time>
      </trkpt>
      <trkpt lat="45.96481" lon="4.70695">
        <ele>308.200012207</ele>
        <time>2015-12-09T15:15:13.482Z</time>
      </trkpt>
      <trkpt lat="45.96481" lon="4.70695">
        <ele>308.200012207</ele>
        <time>2015-12-09T15:15:13.498Z</time>
      </trkpt>
      <trkpt lat="45.96489" lon="4.70702">
        <ele>307.5</ele>
        <time>2015-12-09T15:15:14.482Z</time>
      </trkpt>
      <trkpt lat="45.96489" lon="4.70702">
        <ele>307.5</ele>
        <time>2015-12-09T15:15:14.497Z</time>
      </trkpt>
      <trkpt lat="45.96498" lon="4.7071">
        <ele>306.399993896</ele>
        <time>2015-12-09T15:15:15.482Z</time>
      </trkpt>
      <trkpt lat="45.96498" lon="4.7071">
        <ele>306.399993896</ele>
        <time>2015-12-09T15:15:15.497Z</time>
      </trkpt>
      <trkpt lat="45.96507" lon="4.70717">
        <ele>304.5</ele>
        <time>2015-12-09T15:15:16.484Z</time>
      </trkpt>
      <trkpt lat="45.96507" lon="4.70717">
        <ele>304.5</ele>
        <time>2015-12-09T15:15:16.5Z</time>
      </trkpt>
      <trkpt lat="45.96516" lon="4.70725">
        <ele>303.600006104</ele>
        <time>2015-12-09T15:15:17.482Z</time>
      </trkpt>
      <trkpt lat="45.96516" lon="4.70725">
        <ele>303.600006104</ele>
        <time>2015-12-09T15:15:17.497Z</time>
      </trkpt>
      <trkpt lat="45.96525" lon="4.70732">
        <ele>302.5</ele>
        <time>2015-12-09T15:15:18.483Z</time>
      </trkpt>
      <trkpt lat="45.96525" lon="4.70732">
        <ele>302.5</ele>
        <time>2015-12-09T15:15:18.498Z</time>
      </trkpt>
      <trkpt lat="45.96534" lon="4.70739">
        <ele>301.700012207</ele>
        <time>2015-12-09T15:15:19.482Z</time>
      </trkpt>
      <trkpt lat="45.96534" lon="4.70739">
        <ele>301.700012207</ele>
        <time>2015-12-09T15:15:19.497Z</time>
      </trkpt>
      <trkpt lat="45.96544" lon="4.70747">
        <ele>300.200012207</ele>
        <time>2015-12-09T15:15:20.482Z</time>
      </trkpt>
      <trkpt lat="45.96544" lon="4.70747">
        <ele>300.200012207</ele>
        <time>2015-12-09T15:15:20.497Z</time>
      </trkpt>
      <trkpt lat="45.96553" lon="4.70755">
        <ele>299.100006104</ele>
        <time>2015-12-09T15:15:21.482Z</time>
      </trkpt>
      <trkpt lat="45.96553" lon="4.70755">
        <ele>299.100006104</ele>
        <time>2015-12-09T15:15:21.497Z</time>
      </trkpt>
      <trkpt lat="45.96563" lon="4.70762">
        <ele>298.5</ele>
        <time>2015-12-09T15:15:22.485Z</time>
      </trkpt>
      <trkpt lat="45.96563" lon="4.70762">
        <ele>298.5</ele>
        <time>2015-12-09T15:15:22.5Z</time>
      </trkpt>
      <trkpt lat="45.96572" lon="4.70769">
        <ele>297.5</ele>
        <time>2015-12-09T15:15:23.482Z</time>
      </trkpt>
      <trkpt lat="45.96572" lon="4.70769">
        <ele>297.5</ele>
        <time>2015-12-09T15:15:23.497Z</time>
      </trkpt>
      <trkpt lat="45.96581" lon="4.70776">
        <ele>296.600006104</ele>
        <time>2015-12-09T15:15:24.482Z</time>
      </trkpt>
      <trkpt lat="45.96581" lon="4.70776">
        <ele>296.600006104</ele>
        <time>2015-12-09T15:15:24.498Z</time>
      </trkpt>
      <trkpt lat="45.96591" lon="4.70783">
        <ele>295</ele>
        <time>2015-12-09T15:15:25.489Z</time>
      </trkpt>
      <trkpt lat="45.96591" lon="4.70783">
        <ele>295</ele>
        <time>2015-12-09T15:15:25.526Z</time>
      </trkpt>
      <trkpt lat="45.96601" lon="4.7079">
        <ele>294</ele>
        <time>2015-12-09T15:15:26.482Z</time>
      </trkpt>
      <trkpt lat="45.96601" lon="4.7079">
        <ele>294</ele>
        <time>2015-12-09T15:15:26.497Z</time>
      </trkpt>
      <trkpt lat="45.96611" lon="4.70796">
        <ele>293.200012207</ele>
        <time>2015-12-09T15:15:27.481Z</time>
      </trkpt>
      <trkpt lat="45.96611" lon="4.70796">
        <ele>293.200012207</ele>
        <time>2015-12-09T15:15:27.522Z</time>
      </trkpt>
      <trkpt lat="45.96621" lon="4.70802">
        <ele>292.5</ele>
        <time>2015-12-09T15:15:28.485Z</time>
      </trkpt>
      <trkpt lat="45.96621" lon="4.70802">
        <ele>292.5</ele>
        <time>2015-12-09T15:15:28.5Z</time>
      </trkpt>
      <trkpt lat="45.9663" lon="4.70809">
        <ele>291.5</ele>
        <time>2015-12-09T15:15:29.481Z</time>
      </trkpt>
      <trkpt lat="45.9663" lon="4.70809">
        <ele>291.5</ele>
        <time>2015-12-09T15:15:29.496Z</time>
      </trkpt>
      <trkpt lat="45.9664" lon="4.70816">
        <ele>290.700012207</ele>
        <time>2015-12-09T15:15:30.483Z</time>
      </trkpt>
      <trkpt lat="45.9664" lon="4.70816">
        <ele>290.700012207</ele>
        <time>2015-12-09T15:15:30.498Z</time>
      </trkpt>
      <trkpt lat="45.9665" lon="4.70822">
        <ele>289.799987793</ele>
        <time>2015-12-09T15:15:31.482Z</time>
      </trkpt>
      <trkpt lat="45.9665" lon="4.70822">
        <ele>289.799987793</ele>
        <time>2015-12-09T15:15:31.497Z</time>
      </trkpt>
      <trkpt lat="45.9666" lon="4.70829">
        <ele>289</ele>
        <time>2015-12-09T15:15:32.484Z</time>
      </trkpt>
      <trkpt lat="45.9666" lon="4.70829">
        <ele>289</ele>
        <time>2015-12-09T15:15:32.499Z</time>
      </trkpt>
      <trkpt lat="45.96669" lon="4.70835">
        <ele>288.299987793</ele>
        <time>2015-12-09T15:15:33.482Z</time>
      </trkpt>
      <trkpt lat="45.96669" lon="4.70835">
        <ele>288.299987793</ele>
        <time>2015-12-09T15:15:33.497Z</time>
      </trkpt>
      <trkpt lat="45.9668" lon="4.70841">
        <ele>287.899993896</ele>
        <time>2015-12-09T15:15:34.485Z</time>
      </trkpt>
      <trkpt lat="45.9668" lon="4.70841">
        <ele>287.899993896</ele>
        <time>2015-12-09T15:15:34.5Z</time>
      </trkpt>
      <trkpt lat="45.96689" lon="4.70847">
        <ele>287</ele>
        <time>2015-12-09T15:15:35.482Z</time>
      </trkpt>
      <trkpt lat="45.96689" lon="4.70847">
        <ele>287</ele>
        <time>2015-12-09T15:15:35.497Z</time>
      </trkpt>
      <trkpt lat="45.96699" lon="4.70853">
        <ele>286.299987793</ele>
        <time>2015-12-09T15:15:36.498Z</time>
      </trkpt>
      <trkpt lat="45.96699" lon="4.70853">
        <ele>286.299987793</ele>
        <time>2015-12-09T15:15:36.513Z</time>
      </trkpt>
      <trkpt lat="45.96708" lon="4.7086">
        <ele>285.899993896</ele>
        <time>2015-12-09T15:15:37.482Z</time>
      </trkpt>
      <trkpt lat="45.96708" lon="4.7086">
        <ele>285.899993896</ele>
        <time>2015-12-09T15:15:37.501Z</time>
      </trkpt>
      <trkpt lat="45.96717" lon="4.70867">
        <ele>285.100006104</ele>
        <time>2015-12-09T15:15:38.482Z</time>
      </trkpt>
      <trkpt lat="45.96717" lon="4.70867">
        <ele>285.100006104</ele>
        <time>2015-12-09T15:15:38.497Z</time>
      </trkpt>
      <trkpt lat="45.96727" lon="4.70873">
        <ele>284.100006104</ele>
        <time>2015-12-09T15:15:39.482Z</time>
      </trkpt>
      <trkpt lat="45.96727" lon="4.70873">
        <ele>284.100006104</ele>
        <time>2015-12-09T15:15:39.498Z</time>
      </trkpt>
      <trkpt lat="45.96737" lon="4.70879">
        <ele>283.299987793</ele>
        <time>2015-12-09T15:15:40.738Z</time>
      </trkpt>
      <trkpt lat="45.96737" lon="4.70879">
        <ele>283.299987793</ele>
        <time>2015-12-09T15:15:40.753Z</time>
      </trkpt>
      <trkpt lat="45.96746" lon="4.70886">
        <ele>282.399993896</ele>
        <time>2015-12-09T15:15:41.482Z</time>
      </trkpt>
      <trkpt lat="45.96746" lon="4.70886">
        <ele>282.399993896</ele>
        <time>2015-12-09T15:15:41.532Z</time>
      </trkpt>
      <trkpt lat="45.96756" lon="4.70892">
        <ele>282.100006104</ele>
        <time>2015-12-09T15:15:42.482Z</time>
      </trkpt>
      <trkpt lat="45.96756" lon="4.70892">
        <ele>282.100006104</ele>
        <time>2015-12-09T15:15:42.497Z</time>
      </trkpt>
      <trkpt lat="45.96766" lon="4.70898">
        <ele>281.700012207</ele>
        <time>2015-12-09T15:15:43.482Z</time>
      </trkpt>
      <trkpt lat="45.96766" lon="4.70898">
        <ele>281.700012207</ele>
        <time>2015-12-09T15:15:43.497Z</time>
      </trkpt>
      <trkpt lat="45.96775" lon="4.70905">
        <ele>281.100006104</ele>
        <time>2015-12-09T15:15:44.482Z</time>
      </trkpt>
      <trkpt lat="45.96775" lon="4.70905">
        <ele>281.100006104</ele>
        <time>2015-12-09T15:15:44.497Z</time>
      </trkpt>
      <trkpt lat="45.96784" lon="4.70911">
        <ele>280.399993896</ele>
        <time>2015-12-09T15:15:45.481Z</time>
      </trkpt>
      <trkpt lat="45.96784" lon="4.70911">
        <ele>280.399993896</ele>
        <time>2015-12-09T15:15:45.497Z</time>
      </trkpt>
      <trkpt lat="45.96794" lon="4.70917">
        <ele>279.799987793</ele>
        <time>2015-12-09T15:15:46.484Z</time>
      </trkpt>
      <trkpt lat="45.96794" lon="4.70917">
        <ele>279.799987793</ele>
        <time>2015-12-09T15:15:46.5Z</time>
      </trkpt>
      <trkpt lat="45.96803" lon="4.70923">
        <ele>279.200012207</ele>
        <time>2015-12-09T15:15:47.481Z</time>
      </trkpt>
      <trkpt lat="45.96803" lon="4.70923">
        <ele>279.200012207</ele>
        <time>2015-12-09T15:15:47.496Z</time>
      </trkpt>
      <trkpt lat="45.96812" lon="4.70928">
        <ele>278.399993896</ele>
        <time>2015-12-09T15:15:48.482Z</time>
      </trkpt>
      <trkpt lat="45.96812" lon="4.70928">
        <ele>278.399993896</ele>
        <time>2015-12-09T15:15:48.497Z</time>
      </trkpt>
      <trkpt lat="45.96822" lon="4.70933">
        <ele>278</ele>
        <time>2015-12-09T15:15:49.481Z</time>
      </trkpt>
      <trkpt lat="45.96822" lon="4.70933">
        <ele>278</ele>
        <time>2015-12-09T15:15:49.497Z</time>
      </trkpt>
      <trkpt lat="45.96831" lon="4.70938">
        <ele>277.399993896</ele>
        <time>2015-12-09T15:15:50.482Z</time>
      </trkpt>
      <trkpt lat="45.96831" lon="4.70938">
        <ele>277.399993896</ele>
        <time>2015-12-09T15:15:50.497Z</time>
      </trkpt>
      <trkpt lat="45.9684" lon="4.70944">
        <ele>276.799987793</ele>
        <time>2015-12-09T15:15:51.481Z</time>
      </trkpt>
      <trkpt lat="45.9684" lon="4.70944">
        <ele>276.799987793</ele>
        <time>2015-12-09T15:15:51.497Z</time>
      </trkpt>
      <trkpt lat="45.9685" lon="4.7095">
        <ele>276.100006104</ele>
        <time>2015-12-09T15:15:52.499Z</time>
      </trkpt>
      <trkpt lat="45.9685" lon="4.7095">
        <ele>276.100006104</ele>
        <time>2015-12-09T15:15:52.515Z</time>
      </trkpt>
      <trkpt lat="45.96859" lon="4.70956">
        <ele>275.5</ele>
        <time>2015-12-09T15:15:53.481Z</time>
      </trkpt>
      <trkpt lat="45.96859" lon="4.70956">
        <ele>275.5</ele>
        <time>2015-12-09T15:15:53.529Z</time>
      </trkpt>
      <trkpt lat="45.96868" lon="4.70962">
        <ele>275</ele>
        <time>2015-12-09T15:15:54.482Z</time>
      </trkpt>
      <trkpt lat="45.96868" lon="4.70962">
        <ele>275</ele>
        <time>2015-12-09T15:15:54.497Z</time>
      </trkpt>
      <trkpt lat="45.96878" lon="4.70967">
        <ele>274.299987793</ele>
        <time>2015-12-09T15:15:55.481Z</time>
      </trkpt>
      <trkpt lat="45.96878" lon="4.70967">
        <ele>274.299987793</ele>
        <time>2015-12-09T15:15:55.5Z</time>
      </trkpt>
      <trkpt lat="45.96888" lon="4.70972">
        <ele>273.299987793</ele>
        <time>2015-12-09T15:15:56.482Z</time>
      </trkpt>
      <trkpt lat="45.96888" lon="4.70972">
        <ele>273.299987793</ele>
        <time>2015-12-09T15:15:56.497Z</time>
      </trkpt>
      <trkpt lat="45.96898" lon="4.70975">
        <ele>272.600006104</ele>
        <time>2015-12-09T15:15:57.481Z</time>
      </trkpt>
      <trkpt lat="45.96898" lon="4.70975">
        <ele>272.600006104</ele>
        <time>2015-12-09T15:15:57.496Z</time>
      </trkpt>
      <trkpt lat="45.96908" lon="4.70979">
        <ele>271.899993896</ele>
        <time>2015-12-09T15:15:58.523Z</time>
      </trkpt>
      <trkpt lat="45.96908" lon="4.70979">
        <ele>271.899993896</ele>
        <time>2015-12-09T15:15:58.536Z</time>
      </trkpt>
      <trkpt lat="45.96918" lon="4.70981">
        <ele>271.100006104</ele>
        <time>2015-12-09T15:15:59.482Z</time>
      </trkpt>
      <trkpt lat="45.96918" lon="4.70981">
        <ele>271.100006104</ele>
        <time>2015-12-09T15:15:59.497Z</time>
      </trkpt>
      <trkpt lat="45.96928" lon="4.70984">
        <ele>270.399993896</ele>
        <time>2015-12-09T15:16:00.483Z</time>
      </trkpt>
      <trkpt lat="45.96928" lon="4.70984">
        <ele>270.399993896</ele>
        <time>2015-12-09T15:16:00.498Z</time>
      </trkpt>
      <trkpt lat="45.96938" lon="4.70986">
        <ele>269.799987793</ele>
        <time>2015-12-09T15:16:01.481Z</time>
      </trkpt>
      <trkpt lat="45.96938" lon="4.70986">
        <ele>269.799987793</ele>
        <time>2015-12-09T15:16:01.497Z</time>
      </trkpt>
      <trkpt lat="45.96949" lon="4.70987">
        <ele>269.100006104</ele>
        <time>2015-12-09T15:16:02.481Z</time>
      </trkpt>
      <trkpt lat="45.96949" lon="4.70987">
        <ele>269.100006104</ele>
        <time>2015-12-09T15:16:02.497Z</time>
      </trkpt>
      <trkpt lat="45.96959" lon="4.7099">
        <ele>268.5</ele>
        <time>2015-12-09T15:16:03.481Z</time>
      </trkpt>
      <trkpt lat="45.96959" lon="4.7099">
        <ele>268.5</ele>
        <time>2015-12-09T15:16:03.497Z</time>
      </trkpt>
      <trkpt lat="45.96969" lon="4.70991">
        <ele>267.899993896</ele>
        <time>2015-12-09T15:16:04.484Z</time>
      </trkpt>
      <trkpt lat="45.96969" lon="4.70991">
        <ele>267.899993896</ele>
        <time>2015-12-09T15:16:04.499Z</time>
      </trkpt>
      <trkpt lat="45.96979" lon="4.70992">
        <ele>267.200012207</ele>
        <time>2015-12-09T15:16:05.481Z</time>
      </trkpt>
      <trkpt lat="45.96979" lon="4.70992">
        <ele>267.200012207</ele>
        <time>2015-12-09T15:16:05.636Z</time>
      </trkpt>
      <trkpt lat="45.96989" lon="4.70992">
        <ele>266.700012207</ele>
        <time>2015-12-09T15:16:06.483Z</time>
      </trkpt>
      <trkpt lat="45.96989" lon="4.70992">
        <ele>266.700012207</ele>
        <time>2015-12-09T15:16:06.498Z</time>
      </trkpt>
      <trkpt lat="45.96999" lon="4.70992">
        <ele>266</ele>
        <time>2015-12-09T15:16:07.482Z</time>
      </trkpt>
      <trkpt lat="45.96999" lon="4.70992">
        <ele>266</ele>
        <time>2015-12-09T15:16:07.497Z</time>
      </trkpt>
      <trkpt lat="45.97009" lon="4.70993">
        <ele>265.399993896</ele>
        <time>2015-12-09T15:16:08.498Z</time>
      </trkpt>
      <trkpt lat="45.97009" lon="4.70993">
        <ele>265.399993896</ele>
        <time>2015-12-09T15:16:08.515Z</time>
      </trkpt>
      <trkpt lat="45.97019" lon="4.70992">
        <ele>264.899993896</ele>
        <time>2015-12-09T15:16:09.481Z</time>
      </trkpt>
      <trkpt lat="45.97019" lon="4.70992">
        <ele>264.899993896</ele>
        <time>2015-12-09T15:16:09.497Z</time>
      </trkpt>
      <trkpt lat="45.97028" lon="4.70992">
        <ele>264.200012207</ele>
        <time>2015-12-09T15:16:10.485Z</time>
      </trkpt>
      <trkpt lat="45.97028" lon="4.70992">
        <ele>264.200012207</ele>
        <time>2015-12-09T15:16:10.5Z</time>
      </trkpt>
      <trkpt lat="45.97038" lon="4.70991">
        <ele>263.600006104</ele>
        <time>2015-12-09T15:16:11.484Z</time>
      </trkpt>
      <trkpt lat="45.97038" lon="4.70991">
        <ele>263.600006104</ele>
        <time>2015-12-09T15:16:11.499Z</time>
      </trkpt>
      <trkpt lat="45.97048" lon="4.7099">
        <ele>262.799987793</ele>
        <time>2015-12-09T15:16:12.482Z</time>
      </trkpt>
      <trkpt lat="45.97048" lon="4.7099">
        <ele>262.799987793</ele>
        <time>2015-12-09T15:16:12.501Z</time>
      </trkpt>
      <trkpt lat="45.97058" lon="4.70988">
        <ele>262.5</ele>
        <time>2015-12-09T15:16:13.481Z</time>
      </trkpt>
      <trkpt lat="45.97058" lon="4.70988">
        <ele>262.5</ele>
        <time>2015-12-09T15:16:13.497Z</time>
      </trkpt>
      <trkpt lat="45.97068" lon="4.70986">
        <ele>261.799987793</ele>
        <time>2015-12-09T15:16:14.482Z</time>
      </trkpt>
      <trkpt lat="45.97068" lon="4.70986">
        <ele>261.799987793</ele>
        <time>2015-12-09T15:16:14.505Z</time>
      </trkpt>
      <trkpt lat="45.97078" lon="4.70984">
        <ele>260.799987793</ele>
        <time>2015-12-09T15:16:15.481Z</time>
      </trkpt>
      <trkpt lat="45.97078" lon="4.70984">
        <ele>260.799987793</ele>
        <time>2015-12-09T15:16:15.496Z</time>
      </trkpt>
      <trkpt lat="45.97087" lon="4.70982">
        <ele>260.399993896</ele>
        <time>2015-12-09T15:16:16.485Z</time>
      </trkpt>
      <trkpt lat="45.97087" lon="4.70982">
        <ele>260.399993896</ele>
        <time>2015-12-09T15:16:16.507Z</time>
      </trkpt>
      <trkpt lat="45.97097" lon="4.70979">
        <ele>259.299987793</ele>
        <time>2015-12-09T15:16:17.485Z</time>
      </trkpt>
      <trkpt lat="45.97097" lon="4.70979">
        <ele>259.299987793</ele>
        <time>2015-12-09T15:16:17.502Z</time>
      </trkpt>
      <trkpt lat="45.97107" lon="4.70976">
        <ele>258.899993896</ele>
        <time>2015-12-09T15:16:18.587Z</time>
      </trkpt>
      <trkpt lat="45.97107" lon="4.70976">
        <ele>258.899993896</ele>
        <time>2015-12-09T15:16:18.652Z</time>
      </trkpt>
      <trkpt lat="45.97117" lon="4.70972">
        <ele>258.100006104</ele>
        <time>2015-12-09T15:16:19.496Z</time>
      </trkpt>
      <trkpt lat="45.97117" lon="4.70972">
        <ele>258.100006104</ele>
        <time>2015-12-09T15:16:19.595Z</time>
      </trkpt>
      <trkpt lat="45.97126" lon="4.70967">
        <ele>257.5</ele>
        <time>2015-12-09T15:16:20.481Z</time>
      </trkpt>
      <trkpt lat="45.97126" lon="4.70967">
        <ele>257.5</ele>
        <time>2015-12-09T15:16:20.496Z</time>
      </trkpt>
      <trkpt lat="45.97136" lon="4.70962">
        <ele>256.299987793</ele>
        <time>2015-12-09T15:16:21.512Z</time>
      </trkpt>
      <trkpt lat="45.97136" lon="4.70962">
        <ele>256.299987793</ele>
        <time>2015-12-09T15:16:21.544Z</time>
      </trkpt>
      <trkpt lat="45.97145" lon="4.70958">
        <ele>255.399993896</ele>
        <time>2015-12-09T15:16:22.484Z</time>
      </trkpt>
      <trkpt lat="45.97145" lon="4.70958">
        <ele>255.399993896</ele>
        <time>2015-12-09T15:16:22.5Z</time>
      </trkpt>
      <trkpt lat="45.97154" lon="4.70954">
        <ele>254.800003052</ele>
        <time>2015-12-09T15:16:23.481Z</time>
      </trkpt>
      <trkpt lat="45.97154" lon="4.70954">
        <ele>254.800003052</ele>
        <time>2015-12-09T15:16:23.655Z</time>
      </trkpt>
      <trkpt lat="45.97162" lon="4.7095">
        <ele>254.100006104</ele>
        <time>2015-12-09T15:16:24.513Z</time>
      </trkpt>
      <trkpt lat="45.9717" lon="4.70945">
        <ele>253.300003052</ele>
        <time>2015-12-09T15:16:25.496Z</time>
      </trkpt>
      <trkpt lat="45.97178" lon="4.70941">
        <ele>252.600006104</ele>
        <time>2015-12-09T15:16:26.481Z</time>
      </trkpt>
      <trkpt lat="45.97185" lon="4.70936">
        <ele>252.399993896</ele>
        <time>2015-12-09T15:16:27.496Z</time>
      </trkpt>
      <trkpt lat="45.97193" lon="4.70931">
        <ele>251.899993896</ele>
        <time>2015-12-09T15:16:28.484Z</time>
      </trkpt>
      <trkpt lat="45.972" lon="4.70925">
        <ele>251.199996948</ele>
        <time>2015-12-09T15:16:29.496Z</time>
      </trkpt>
      <trkpt lat="45.97207" lon="4.70919">
        <ele>250.399993896</ele>
        <time>2015-12-09T15:16:30.482Z</time>
      </trkpt>
      <trkpt lat="45.97214" lon="4.70911">
        <ele>249.600006104</ele>
        <time>2015-12-09T15:16:31.495Z</time>
      </trkpt>
      <trkpt lat="45.97221" lon="4.70904">
        <ele>249.100006104</ele>
        <time>2015-12-09T15:16:32.481Z</time>
      </trkpt>
      <trkpt lat="45.97228" lon="4.70896">
        <ele>248.199996948</ele>
        <time>2015-12-09T15:16:33.496Z</time>
      </trkpt>
      <trkpt lat="45.97235" lon="4.70888">
        <ele>247.800003052</ele>
        <time>2015-12-09T15:16:34.499Z</time>
      </trkpt>
      <trkpt lat="45.97242" lon="4.70879">
        <ele>247.300003052</ele>
        <time>2015-12-09T15:16:35.496Z</time>
      </trkpt>
      <trkpt lat="45.97248" lon="4.7087">
        <ele>246.600006104</ele>
        <time>2015-12-09T15:16:36.483Z</time>
      </trkpt>
      <trkpt lat="45.97248" lon="4.7087">
        <ele>246.600006104</ele>
        <time>2015-12-09T15:16:36.498Z</time>
      </trkpt>
      <trkpt lat="45.97255" lon="4.70861">
        <ele>245.899993896</ele>
        <time>2015-12-09T15:16:37.482Z</time>
      </trkpt>
      <trkpt lat="45.97255" lon="4.70861">
        <ele>245.899993896</ele>
        <time>2015-12-09T15:16:37.498Z</time>
      </trkpt>
      <trkpt lat="45.97261" lon="4.70851">
        <ele>245.300003052</ele>
        <time>2015-12-09T15:16:38.482Z</time>
      </trkpt>
      <trkpt lat="45.97261" lon="4.70851">
        <ele>245.300003052</ele>
        <time>2015-12-09T15:16:38.5Z</time>
      </trkpt>
      <trkpt lat="45.97268" lon="4.70841">
        <ele>244.600006104</ele>
        <time>2015-12-09T15:16:39.481Z</time>
      </trkpt>
      <trkpt lat="45.97268" lon="4.70841">
        <ele>244.600006104</ele>
        <time>2015-12-09T15:16:39.497Z</time>
      </trkpt>
      <trkpt lat="45.97274" lon="4.7083">
        <ele>244</ele>
        <time>2015-12-09T15:16:40.484Z</time>
      </trkpt>
      <trkpt lat="45.9728" lon="4.70821">
        <ele>243.399993896</ele>
        <time>2015-12-09T15:16:41.496Z</time>
      </trkpt>
      <trkpt lat="45.97286" lon="4.70813">
        <ele>242.899993896</ele>
        <time>2015-12-09T15:16:42.482Z</time>
      </trkpt>
      <trkpt lat="45.97293" lon="4.70804">
        <ele>242.300003052</ele>
        <time>2015-12-09T15:16:43.496Z</time>
      </trkpt>
      <trkpt lat="45.973" lon="4.70797">
        <ele>241.699996948</ele>
        <time>2015-12-09T15:16:44.481Z</time>
      </trkpt>
      <trkpt lat="45.97306" lon="4.7079">
        <ele>241.100006104</ele>
        <time>2015-12-09T15:16:45.495Z</time>
      </trkpt>
      <trkpt lat="45.97311" lon="4.70784">
        <ele>240.5</ele>
        <time>2015-12-09T15:16:46.484Z</time>
      </trkpt>
      <trkpt lat="45.97317" lon="4.70779">
        <ele>239.899993896</ele>
        <time>2015-12-09T15:16:47.503Z</time>
      </trkpt>
      <trkpt lat="45.97324" lon="4.70775">
        <ele>239.199996948</ele>
        <time>2015-12-09T15:16:48.482Z</time>
      </trkpt>
      <trkpt lat="45.97331" lon="4.70771">
        <ele>238.699996948</ele>
        <time>2015-12-09T15:16:49.496Z</time>
      </trkpt>
      <trkpt lat="45.97339" lon="4.70768">
        <ele>238.199996948</ele>
        <time>2015-12-09T15:16:50.484Z</time>
      </trkpt>
      <trkpt lat="45.97347" lon="4.70764">
        <ele>237.600006104</ele>
        <time>2015-12-09T15:16:51.629Z</time>
      </trkpt>
      <trkpt lat="45.97355" lon="4.7076">
        <ele>237.199996948</ele>
        <time>2015-12-09T15:16:52.485Z</time>
      </trkpt>
      <trkpt lat="45.97363" lon="4.70757">
        <ele>236.800003052</ele>
        <time>2015-12-09T15:16:53.495Z</time>
      </trkpt>
      <trkpt lat="45.97371" lon="4.70753">
        <ele>236.300003052</ele>
        <time>2015-12-09T15:16:54.482Z</time>
      </trkpt>
      <trkpt lat="45.9738" lon="4.7075">
        <ele>235.699996948</ele>
        <time>2015-12-09T15:16:55.51Z</time>
      </trkpt>
      <trkpt lat="45.97389" lon="4.70748">
        <ele>235.199996948</ele>
        <time>2015-12-09T15:16:56.481Z</time>
      </trkpt>
      <trkpt lat="45.97389" lon="4.70748">
        <ele>235.199996948</ele>
        <time>2015-12-09T15:16:56.498Z</time>
      </trkpt>
      <trkpt lat="45.97398" lon="4.70747">
        <ele>234.800003052</ele>
        <time>2015-12-09T15:16:57.481Z</time>
      </trkpt>
      <trkpt lat="45.97398" lon="4.70747">
        <ele>234.800003052</ele>
        <time>2015-12-09T15:16:57.504Z</time>
      </trkpt>
      <trkpt lat="45.97407" lon="4.70748">
        <ele>234.100006104</ele>
        <time>2015-12-09T15:16:58.484Z</time>
      </trkpt>
      <trkpt lat="45.97407" lon="4.70748">
        <ele>234.100006104</ele>
        <time>2015-12-09T15:16:58.5Z</time>
      </trkpt>
      <trkpt lat="45.97417" lon="4.70749">
        <ele>233.600006104</ele>
        <time>2015-12-09T15:16:59.481Z</time>
      </trkpt>
      <trkpt lat="45.97417" lon="4.70749">
        <ele>233.600006104</ele>
        <time>2015-12-09T15:16:59.5Z</time>
      </trkpt>
      <trkpt lat="45.97426" lon="4.7075">
        <ele>233</ele>
        <time>2015-12-09T15:17:00.482Z</time>
      </trkpt>
      <trkpt lat="45.97426" lon="4.7075">
        <ele>233</ele>
        <time>2015-12-09T15:17:00.498Z</time>
      </trkpt>
      <trkpt lat="45.97436" lon="4.70751">
        <ele>232.5</ele>
        <time>2015-12-09T15:17:01.481Z</time>
      </trkpt>
      <trkpt lat="45.97436" lon="4.70751">
        <ele>232.5</ele>
        <time>2015-12-09T15:17:01.496Z</time>
      </trkpt>
      <trkpt lat="45.97446" lon="4.70752">
        <ele>231.899993896</ele>
        <time>2015-12-09T15:17:02.481Z</time>
      </trkpt>
      <trkpt lat="45.97446" lon="4.70752">
        <ele>231.899993896</ele>
        <time>2015-12-09T15:17:02.496Z</time>
      </trkpt>
      <trkpt lat="45.97455" lon="4.70752">
        <ele>231.5</ele>
        <time>2015-12-09T15:17:03.481Z</time>
      </trkpt>
      <trkpt lat="45.97455" lon="4.70752">
        <ele>231.5</ele>
        <time>2015-12-09T15:17:03.496Z</time>
      </trkpt>
      <trkpt lat="45.97465" lon="4.7075">
        <ele>230.899993896</ele>
        <time>2015-12-09T15:17:04.484Z</time>
      </trkpt>
      <trkpt lat="45.97473" lon="4.70749">
        <ele>230.800003052</ele>
        <time>2015-12-09T15:17:05.495Z</time>
      </trkpt>
      <trkpt lat="45.97481" lon="4.70747">
        <ele>229.800003052</ele>
        <time>2015-12-09T15:17:06.483Z</time>
      </trkpt>
      <trkpt lat="45.97489" lon="4.70745">
        <ele>229.199996948</ele>
        <time>2015-12-09T15:17:07.495Z</time>
      </trkpt>
      <trkpt lat="45.97497" lon="4.70742">
        <ele>228.899993896</ele>
        <time>2015-12-09T15:17:08.481Z</time>
      </trkpt>
      <trkpt lat="45.97504" lon="4.7074">
        <ele>228.800003052</ele>
        <time>2015-12-09T15:17:09.496Z</time>
      </trkpt>
      <trkpt lat="45.97511" lon="4.70738">
        <ele>228.600006104</ele>
        <time>2015-12-09T15:17:10.484Z</time>
      </trkpt>
      <trkpt lat="45.97518" lon="4.70736">
        <ele>228.399993896</ele>
        <time>2015-12-09T15:17:11.513Z</time>
      </trkpt>
      <trkpt lat="45.97524" lon="4.70735">
        <ele>228</ele>
        <time>2015-12-09T15:17:12.482Z</time>
      </trkpt>
      <trkpt lat="45.97531" lon="4.70734">
        <ele>227.699996948</ele>
        <time>2015-12-09T15:17:13.495Z</time>
      </trkpt>
      <trkpt lat="45.97539" lon="4.70733">
        <ele>226.5</ele>
        <time>2015-12-09T15:17:14.481Z</time>
      </trkpt>
      <trkpt lat="45.97545" lon="4.70733">
        <ele>225.800003052</ele>
        <time>2015-12-09T15:17:15.495Z</time>
      </trkpt>
      <trkpt lat="45.97552" lon="4.70732">
        <ele>225.5</ele>
        <time>2015-12-09T15:17:16.487Z</time>
      </trkpt>
      <trkpt lat="45.97559" lon="4.70732">
        <ele>225.5</ele>
        <time>2015-12-09T15:17:17.497Z</time>
      </trkpt>
      <trkpt lat="45.97566" lon="4.7073">
        <ele>225.800003052</ele>
        <time>2015-12-09T15:17:18.482Z</time>
      </trkpt>
      <trkpt lat="45.97573" lon="4.70727">
        <ele>225.600006104</ele>
        <time>2015-12-09T15:17:19.529Z</time>
      </trkpt>
      <trkpt lat="45.9758" lon="4.70726">
        <ele>225.199996948</ele>
        <time>2015-12-09T15:17:20.481Z</time>
      </trkpt>
      <trkpt lat="45.97587" lon="4.70726">
        <ele>224.600006104</ele>
        <time>2015-12-09T15:17:21.495Z</time>
      </trkpt>
      <trkpt lat="45.97594" lon="4.70727">
        <ele>225.399993896</ele>
        <time>2015-12-09T15:17:22.485Z</time>
      </trkpt>
      <trkpt lat="45.97601" lon="4.70729">
        <ele>224.699996948</ele>
        <time>2015-12-09T15:17:23.495Z</time>
      </trkpt>
      <trkpt lat="45.97609" lon="4.70731">
        <ele>224.899993896</ele>
        <time>2015-12-09T15:17:24.482Z</time>
      </trkpt>
      <trkpt lat="45.97616" lon="4.70733">
        <ele>224.899993896</ele>
        <time>2015-12-09T15:17:25.495Z</time>
      </trkpt>
      <trkpt lat="45.97623" lon="4.70737">
        <ele>224.600006104</ele>
        <time>2015-12-09T15:17:26.481Z</time>
      </trkpt>
      <trkpt lat="45.97631" lon="4.7074">
        <ele>224.100006104</ele>
        <time>2015-12-09T15:17:27.511Z</time>
      </trkpt>
      <trkpt lat="45.97639" lon="4.70744">
        <ele>223.800003052</ele>
        <time>2015-12-09T15:17:28.484Z</time>
      </trkpt>
      <trkpt lat="45.97645" lon="4.70748">
        <ele>224.5</ele>
        <time>2015-12-09T15:17:29.496Z</time>
      </trkpt>
      <trkpt lat="45.97653" lon="4.70752">
        <ele>223.899993896</ele>
        <time>2015-12-09T15:17:30.482Z</time>
      </trkpt>
      <trkpt lat="45.97661" lon="4.70755">
        <ele>223.600006104</ele>
        <time>2015-12-09T15:17:31.495Z</time>
      </trkpt>
      <trkpt lat="45.97668" lon="4.70759">
        <ele>223.600006104</ele>
        <time>2015-12-09T15:17:32.481Z</time>
      </trkpt>
      <trkpt lat="45.97676" lon="4.70762">
        <ele>223.5</ele>
        <time>2015-12-09T15:17:33.495Z</time>
      </trkpt>
      <trkpt lat="45.97684" lon="4.70765">
        <ele>223.300003052</ele>
        <time>2015-12-09T15:17:34.483Z</time>
      </trkpt>
      <trkpt lat="45.97692" lon="4.70769">
        <ele>222.800003052</ele>
        <time>2015-12-09T15:17:35.495Z</time>
      </trkpt>
      <trkpt lat="45.977" lon="4.70772">
        <ele>222.399993896</ele>
        <time>2015-12-09T15:17:36.483Z</time>
      </trkpt>
      <trkpt lat="45.97708" lon="4.70775">
        <ele>221.800003052</ele>
        <time>2015-12-09T15:17:37.495Z</time>
      </trkpt>
      <trkpt lat="45.97716" lon="4.70779">
        <ele>221.300003052</ele>
        <time>2015-12-09T15:17:38.495Z</time>
      </trkpt>
      <trkpt lat="45.97724" lon="4.70782">
        <ele>221</ele>
        <time>2015-12-09T15:17:39.496Z</time>
      </trkpt>
      <trkpt lat="45.97732" lon="4.70784">
        <ele>220.699996948</ele>
        <time>2015-12-09T15:17:40.486Z</time>
      </trkpt>
      <trkpt lat="45.97739" lon="4.70786">
        <ele>220.399993896</ele>
        <time>2015-12-09T15:17:41.497Z</time>
      </trkpt>
      <trkpt lat="45.97746" lon="4.70788">
        <ele>220.199996948</ele>
        <time>2015-12-09T15:17:42.486Z</time>
      </trkpt>
      <trkpt lat="45.97753" lon="4.7079">
        <ele>219.800003052</ele>
        <time>2015-12-09T15:17:43.555Z</time>
      </trkpt>
      <trkpt lat="45.9776" lon="4.7079">
        <ele>219.899993896</ele>
        <time>2015-12-09T15:17:44.483Z</time>
      </trkpt>
      <trkpt lat="45.97766" lon="4.70791">
        <ele>219.600006104</ele>
        <time>2015-12-09T15:17:45.495Z</time>
      </trkpt>
      <trkpt lat="45.97771" lon="4.70792">
        <ele>219.600006104</ele>
        <time>2015-12-09T15:17:46.484Z</time>
      </trkpt>
      <trkpt lat="45.97776" lon="4.70795">
        <ele>219.600006104</ele>
        <time>2015-12-09T15:17:47.495Z</time>
      </trkpt>
      <trkpt lat="45.97781" lon="4.70799">
        <ele>219.100006104</ele>
        <time>2015-12-09T15:17:48.482Z</time>
      </trkpt>
      <trkpt lat="45.97786" lon="4.70804">
        <ele>218.699996948</ele>
        <time>2015-12-09T15:17:49.495Z</time>
      </trkpt>
      <trkpt lat="45.97791" lon="4.70808">
        <ele>218.5</ele>
        <time>2015-12-09T15:17:50.481Z</time>
      </trkpt>
      <trkpt lat="45.97797" lon="4.70812">
        <ele>218.5</ele>
        <time>2015-12-09T15:17:51.495Z</time>
      </trkpt>
      <trkpt lat="45.97802" lon="4.70817">
        <ele>218.100006104</ele>
        <time>2015-12-09T15:17:52.484Z</time>
      </trkpt>
      <trkpt lat="45.97805" lon="4.70824">
        <ele>217.699996948</ele>
        <time>2015-12-09T15:17:53.495Z</time>
      </trkpt>
      <trkpt lat="45.97809" lon="4.70831">
        <ele>217.5</ele>
        <time>2015-12-09T15:17:54.482Z</time>
      </trkpt>
      <trkpt lat="45.97812" lon="4.70839">
        <ele>217.100006104</ele>
        <time>2015-12-09T15:17:55.495Z</time>
      </trkpt>
      <trkpt lat="45.97815" lon="4.70848">
        <ele>217</ele>
        <time>2015-12-09T15:17:56.481Z</time>
      </trkpt>
      <trkpt lat="45.97816" lon="4.70858">
        <ele>217.300003052</ele>
        <time>2015-12-09T15:17:57.495Z</time>
      </trkpt>
      <trkpt lat="45.97818" lon="4.70867">
        <ele>217.399993896</ele>
        <time>2015-12-09T15:17:58.484Z</time>
      </trkpt>
      <trkpt lat="45.97819" lon="4.70877">
        <ele>217.199996948</ele>
        <time>2015-12-09T15:17:59.511Z</time>
      </trkpt>
      <trkpt lat="45.9782" lon="4.70886">
        <ele>217.100006104</ele>
        <time>2015-12-09T15:18:00.482Z</time>
      </trkpt>
      <trkpt lat="45.97821" lon="4.70895">
        <ele>217.199996948</ele>
        <time>2015-12-09T15:18:01.495Z</time>
      </trkpt>
      <trkpt lat="45.97821" lon="4.70904">
        <ele>216.899993896</ele>
        <time>2015-12-09T15:18:02.481Z</time>
      </trkpt>
      <trkpt lat="45.9782" lon="4.70913">
        <ele>217.300003052</ele>
        <time>2015-12-09T15:18:03.626Z</time>
      </trkpt>
      <trkpt lat="45.97819" lon="4.70921">
        <ele>217.600006104</ele>
        <time>2015-12-09T15:18:04.485Z</time>
      </trkpt>
      <trkpt lat="45.9782" lon="4.7093">
        <ele>217.899993896</ele>
        <time>2015-12-09T15:18:05.495Z</time>
      </trkpt>
      <trkpt lat="45.97822" lon="4.70939">
        <ele>217.699996948</ele>
        <time>2015-12-09T15:18:06.482Z</time>
      </trkpt>
      <trkpt lat="45.97825" lon="4.70947">
        <ele>217.399993896</ele>
        <time>2015-12-09T15:18:07.495Z</time>
      </trkpt>
      <trkpt lat="45.97829" lon="4.70955">
        <ele>217.399993896</ele>
        <time>2015-12-09T15:18:08.483Z</time>
      </trkpt>
      <trkpt lat="45.97831" lon="4.70964">
        <ele>217.100006104</ele>
        <time>2015-12-09T15:18:09.495Z</time>
      </trkpt>
      <trkpt lat="45.97833" lon="4.70973">
        <ele>217.199996948</ele>
        <time>2015-12-09T15:18:10.485Z</time>
      </trkpt>
      <trkpt lat="45.97834" lon="4.70983">
        <ele>217</ele>
        <time>2015-12-09T15:18:11.498Z</time>
      </trkpt>
      <trkpt lat="45.97835" lon="4.70994">
        <ele>216.699996948</ele>
        <time>2015-12-09T15:18:12.482Z</time>
      </trkpt>
      <trkpt lat="45.97836" lon="4.71004">
        <ele>216.300003052</ele>
        <time>2015-12-09T15:18:13.495Z</time>
      </trkpt>
      <trkpt lat="45.97838" lon="4.71014">
        <ele>216.100006104</ele>
        <time>2015-12-09T15:18:14.481Z</time>
      </trkpt>
      <trkpt lat="45.97838" lon="4.71025">
        <ele>215.800003052</ele>
        <time>2015-12-09T15:18:15.513Z</time>
      </trkpt>
      <trkpt lat="45.9784" lon="4.71036">
        <ele>215.699996948</ele>
        <time>2015-12-09T15:18:16.485Z</time>
      </trkpt>
      <trkpt lat="45.97841" lon="4.71048">
        <ele>215.300003052</ele>
        <time>2015-12-09T15:18:17.519Z</time>
      </trkpt>
      <trkpt lat="45.97843" lon="4.7106">
        <ele>214.800003052</ele>
        <time>2015-12-09T15:18:18.482Z</time>
      </trkpt>
      <trkpt lat="45.97844" lon="4.71072">
        <ele>214.399993896</ele>
        <time>2015-12-09T15:18:19.495Z</time>
      </trkpt>
      <trkpt lat="45.97845" lon="4.71083">
        <ele>214.100006104</ele>
        <time>2015-12-09T15:18:20.481Z</time>
      </trkpt>
      <trkpt lat="45.97847" lon="4.71095">
        <ele>213.5</ele>
        <time>2015-12-09T15:18:21.495Z</time>
      </trkpt>
      <trkpt lat="45.97847" lon="4.71107">
        <ele>213.199996948</ele>
        <time>2015-12-09T15:18:22.484Z</time>
      </trkpt>
      <trkpt lat="45.97849" lon="4.7112">
        <ele>212.600006104</ele>
        <time>2015-12-09T15:18:23.495Z</time>
      </trkpt>
      <trkpt lat="45.97851" lon="4.71132">
        <ele>212</ele>
        <time>2015-12-09T15:18:24.482Z</time>
      </trkpt>
      <trkpt lat="45.97852" lon="4.71144">
        <ele>211.399993896</ele>
        <time>2015-12-09T15:18:25.495Z</time>
      </trkpt>
      <trkpt lat="45.97853" lon="4.71156">
        <ele>210.699996948</ele>
        <time>2015-12-09T15:18:26.481Z</time>
      </trkpt>
      <trkpt lat="45.97854" lon="4.71167">
        <ele>210.100006104</ele>
        <time>2015-12-09T15:18:27.495Z</time>
      </trkpt>
      <trkpt lat="45.97854" lon="4.71179">
        <ele>209.600006104</ele>
        <time>2015-12-09T15:18:28.484Z</time>
      </trkpt>
      <trkpt lat="45.97854" lon="4.71191">
        <ele>209.100006104</ele>
        <time>2015-12-09T15:18:29.495Z</time>
      </trkpt>
      <trkpt lat="45.97854" lon="4.71203">
        <ele>208.100006104</ele>
        <time>2015-12-09T15:18:30.481Z</time>
      </trkpt>
      <trkpt lat="45.97854" lon="4.71215">
        <ele>207.600006104</ele>
        <time>2015-12-09T15:18:31.509Z</time>
      </trkpt>
      <trkpt lat="45.97854" lon="4.71227">
        <ele>207.100006104</ele>
        <time>2015-12-09T15:18:32.481Z</time>
      </trkpt>
      <trkpt lat="45.97854" lon="4.7124">
        <ele>206.699996948</ele>
        <time>2015-12-09T15:18:33.495Z</time>
      </trkpt>
      <trkpt lat="45.97854" lon="4.71252">
        <ele>206.5</ele>
        <time>2015-12-09T15:18:34.486Z</time>
      </trkpt>
      <trkpt lat="45.97854" lon="4.71264">
        <ele>206.300003052</ele>
        <time>2015-12-09T15:18:35.495Z</time>
      </trkpt>
      <trkpt lat="45.97854" lon="4.71277">
        <ele>205.800003052</ele>
        <time>2015-12-09T15:18:36.482Z</time>
      </trkpt>
      <trkpt lat="45.97854" lon="4.71277">
        <ele>205.800003052</ele>
        <time>2015-12-09T15:18:36.498Z</time>
      </trkpt>
      <trkpt lat="45.97853" lon="4.71291">
        <ele>205.600006104</ele>
        <time>2015-12-09T15:18:37.481Z</time>
      </trkpt>
      <trkpt lat="45.97853" lon="4.71291">
        <ele>205.600006104</ele>
        <time>2015-12-09T15:18:37.496Z</time>
      </trkpt>
      <trkpt lat="45.97853" lon="4.71304">
        <ele>205.199996948</ele>
        <time>2015-12-09T15:18:38.481Z</time>
      </trkpt>
      <trkpt lat="45.97853" lon="4.71304">
        <ele>205.199996948</ele>
        <time>2015-12-09T15:18:38.496Z</time>
      </trkpt>
      <trkpt lat="45.97853" lon="4.71318">
        <ele>205</ele>
        <time>2015-12-09T15:18:39.519Z</time>
      </trkpt>
      <trkpt lat="45.97853" lon="4.71318">
        <ele>205</ele>
        <time>2015-12-09T15:18:39.536Z</time>
      </trkpt>
      <trkpt lat="45.97853" lon="4.71332">
        <ele>204.300003052</ele>
        <time>2015-12-09T15:18:40.484Z</time>
      </trkpt>
      <trkpt lat="45.97853" lon="4.71332">
        <ele>204.300003052</ele>
        <time>2015-12-09T15:18:40.499Z</time>
      </trkpt>
      <trkpt lat="45.97852" lon="4.71345">
        <ele>203.800003052</ele>
        <time>2015-12-09T15:18:41.481Z</time>
      </trkpt>
      <trkpt lat="45.97852" lon="4.71345">
        <ele>203.800003052</ele>
        <time>2015-12-09T15:18:41.497Z</time>
      </trkpt>
      <trkpt lat="45.97852" lon="4.71359">
        <ele>203.5</ele>
        <time>2015-12-09T15:18:42.482Z</time>
      </trkpt>
      <trkpt lat="45.97852" lon="4.71359">
        <ele>203.5</ele>
        <time>2015-12-09T15:18:42.497Z</time>
      </trkpt>
      <trkpt lat="45.97852" lon="4.71373">
        <ele>203.199996948</ele>
        <time>2015-12-09T15:18:43.481Z</time>
      </trkpt>
      <trkpt lat="45.97852" lon="4.71373">
        <ele>203.199996948</ele>
        <time>2015-12-09T15:18:43.496Z</time>
      </trkpt>
      <trkpt lat="45.97853" lon="4.71387">
        <ele>202.300003052</ele>
        <time>2015-12-09T15:18:44.481Z</time>
      </trkpt>
      <trkpt lat="45.97853" lon="4.71387">
        <ele>202.300003052</ele>
        <time>2015-12-09T15:18:44.497Z</time>
      </trkpt>
      <trkpt lat="45.97854" lon="4.714">
        <ele>201.800003052</ele>
        <time>2015-12-09T15:18:45.481Z</time>
      </trkpt>
      <trkpt lat="45.97854" lon="4.714">
        <ele>201.800003052</ele>
        <time>2015-12-09T15:18:45.496Z</time>
      </trkpt>
      <trkpt lat="45.97856" lon="4.71413">
        <ele>201.300003052</ele>
        <time>2015-12-09T15:18:46.484Z</time>
      </trkpt>
      <trkpt lat="45.97858" lon="4.71425">
        <ele>200.600006104</ele>
        <time>2015-12-09T15:18:47.508Z</time>
      </trkpt>
      <trkpt lat="45.9786" lon="4.71438">
        <ele>199.800003052</ele>
        <time>2015-12-09T15:18:48.482Z</time>
      </trkpt>
      <trkpt lat="45.97862" lon="4.7145">
        <ele>199.5</ele>
        <time>2015-12-09T15:18:49.495Z</time>
      </trkpt>
      <trkpt lat="45.97865" lon="4.71462">
        <ele>199</ele>
        <time>2015-12-09T15:18:50.481Z</time>
      </trkpt>
      <trkpt lat="45.97867" lon="4.71475">
        <ele>198.300003052</ele>
        <time>2015-12-09T15:18:51.495Z</time>
      </trkpt>
      <trkpt lat="45.97869" lon="4.71487">
        <ele>197.800003052</ele>
        <time>2015-12-09T15:18:52.484Z</time>
      </trkpt>
      <trkpt lat="45.97871" lon="4.71499">
        <ele>197.399993896</ele>
        <time>2015-12-09T15:18:53.495Z</time>
      </trkpt>
      <trkpt lat="45.97874" lon="4.71511">
        <ele>197.5</ele>
        <time>2015-12-09T15:18:54.481Z</time>
      </trkpt>
      <trkpt lat="45.97876" lon="4.71523">
        <ele>197.300003052</ele>
        <time>2015-12-09T15:18:55.495Z</time>
      </trkpt>
      <trkpt lat="45.97877" lon="4.71535">
        <ele>197.300003052</ele>
        <time>2015-12-09T15:18:56.481Z</time>
      </trkpt>
      <trkpt lat="45.9788" lon="4.71547">
        <ele>196.800003052</ele>
        <time>2015-12-09T15:18:57.495Z</time>
      </trkpt>
      <trkpt lat="45.97881" lon="4.71558">
        <ele>197</ele>
        <time>2015-12-09T15:18:58.484Z</time>
      </trkpt>
      <trkpt lat="45.97883" lon="4.7157">
        <ele>196.5</ele>
        <time>2015-12-09T15:18:59.495Z</time>
      </trkpt>
      <trkpt lat="45.97883" lon="4.71582">
        <ele>196.100006104</ele>
        <time>2015-12-09T15:19:00.484Z</time>
      </trkpt>
      <trkpt lat="45.97883" lon="4.71594">
        <ele>195.399993896</ele>
        <time>2015-12-09T15:19:01.633Z</time>
      </trkpt>
      <trkpt lat="45.97883" lon="4.71606">
        <ele>194.600006104</ele>
        <time>2015-12-09T15:19:02.481Z</time>
      </trkpt>
      <trkpt lat="45.97883" lon="4.71618">
        <ele>194.199996948</ele>
        <time>2015-12-09T15:19:03.509Z</time>
      </trkpt>
      <trkpt lat="45.97883" lon="4.7163">
        <ele>193.600006104</ele>
        <time>2015-12-09T15:19:04.483Z</time>
      </trkpt>
      <trkpt lat="45.97883" lon="4.71641">
        <ele>193.100006104</ele>
        <time>2015-12-09T15:19:05.495Z</time>
      </trkpt>
      <trkpt lat="45.97882" lon="4.71651">
        <ele>192.600006104</ele>
        <time>2015-12-09T15:19:06.482Z</time>
      </trkpt>
      <trkpt lat="45.9788" lon="4.71661">
        <ele>192.5</ele>
        <time>2015-12-09T15:19:07.495Z</time>
      </trkpt>
      <trkpt lat="45.97878" lon="4.7167">
        <ele>192.300003052</ele>
        <time>2015-12-09T15:19:08.481Z</time>
      </trkpt>
      <trkpt lat="45.97875" lon="4.71678">
        <ele>192.300003052</ele>
        <time>2015-12-09T15:19:09.495Z</time>
      </trkpt>
      <trkpt lat="45.97873" lon="4.71684">
        <ele>192.300003052</ele>
        <time>2015-12-09T15:19:10.484Z</time>
      </trkpt>
      <trkpt lat="45.97871" lon="4.71695">
        <ele>192.600006104</ele>
        <time>2015-12-09T15:19:12.496Z</time>
      </trkpt>
      <trkpt lat="45.97871" lon="4.717">
        <ele>192.699996948</ele>
        <time>2015-12-09T15:19:13.481Z</time>
      </trkpt>
      <trkpt lat="45.97867" lon="4.71709">
        <ele>193.199996948</ele>
        <time>2015-12-09T15:19:15.494Z</time>
      </trkpt>
      <trkpt lat="45.97865" lon="4.71714">
        <ele>193.699996948</ele>
        <time>2015-12-09T15:19:16.484Z</time>
      </trkpt>
      <trkpt lat="45.97861" lon="4.71719">
        <ele>193.600006104</ele>
        <time>2015-12-09T15:19:17.495Z</time>
      </trkpt>
      <trkpt lat="45.97858" lon="4.71724">
        <ele>193.600006104</ele>
        <time>2015-12-09T15:19:18.481Z</time>
      </trkpt>
      <trkpt lat="45.97855" lon="4.7173">
        <ele>193.699996948</ele>
        <time>2015-12-09T15:19:19.51Z</time>
      </trkpt>
      <trkpt lat="45.97851" lon="4.71736">
        <ele>193.800003052</ele>
        <time>2015-12-09T15:19:20.481Z</time>
      </trkpt>
      <trkpt lat="45.97847" lon="4.7174">
        <ele>194.100006104</ele>
        <time>2015-12-09T15:19:21.495Z</time>
      </trkpt>
      <trkpt lat="45.97841" lon="4.71742">
        <ele>194.399993896</ele>
        <time>2015-12-09T15:19:22.484Z</time>
      </trkpt>
      <trkpt lat="45.97836" lon="4.71743">
        <ele>194.300003052</ele>
        <time>2015-12-09T15:19:23.495Z</time>
      </trkpt>
      <trkpt lat="45.9783" lon="4.71743">
        <ele>194.600006104</ele>
        <time>2015-12-09T15:19:24.481Z</time>
      </trkpt>
      <trkpt lat="45.97825" lon="4.71742">
        <ele>194.399993896</ele>
        <time>2015-12-09T15:19:25.495Z</time>
      </trkpt>
      <trkpt lat="45.97819" lon="4.71741">
        <ele>193.800003052</ele>
        <time>2015-12-09T15:19:26.483Z</time>
      </trkpt>
      <trkpt lat="45.97813" lon="4.71741">
        <ele>193.399993896</ele>
        <time>2015-12-09T15:19:27.495Z</time>
      </trkpt>
      <trkpt lat="45.97807" lon="4.7174">
        <ele>193.100006104</ele>
        <time>2015-12-09T15:19:28.484Z</time>
      </trkpt>
      <trkpt lat="45.97801" lon="4.71739">
        <ele>193.100006104</ele>
        <time>2015-12-09T15:19:29.495Z</time>
      </trkpt>
      <trkpt lat="45.97795" lon="4.71739">
        <ele>193.5</ele>
        <time>2015-12-09T15:19:30.481Z</time>
      </trkpt>
      <trkpt lat="45.97789" lon="4.71739">
        <ele>193.5</ele>
        <time>2015-12-09T15:19:31.494Z</time>
      </trkpt>
      <trkpt lat="45.97782" lon="4.71739">
        <ele>193.699996948</ele>
        <time>2015-12-09T15:19:32.48Z</time>
      </trkpt>
      <trkpt lat="45.97776" lon="4.71738">
        <ele>194</ele>
        <time>2015-12-09T15:19:33.494Z</time>
      </trkpt>
      <trkpt lat="45.9777" lon="4.71737">
        <ele>194.300003052</ele>
        <time>2015-12-09T15:19:34.484Z</time>
      </trkpt>
      <trkpt lat="45.97764" lon="4.71736">
        <ele>194.300003052</ele>
        <time>2015-12-09T15:19:35.549Z</time>
      </trkpt>
      <trkpt lat="45.97757" lon="4.71735">
        <ele>194.5</ele>
        <time>2015-12-09T15:19:36.483Z</time>
      </trkpt>
      <trkpt lat="45.97751" lon="4.71734">
        <ele>195</ele>
        <time>2015-12-09T15:19:37.495Z</time>
      </trkpt>
      <trkpt lat="45.97745" lon="4.71734">
        <ele>195.100006104</ele>
        <time>2015-12-09T15:19:38.481Z</time>
      </trkpt>
      <trkpt lat="45.97739" lon="4.71733">
        <ele>195.5</ele>
        <time>2015-12-09T15:19:39.495Z</time>
      </trkpt>
      <trkpt lat="45.97733" lon="4.71732">
        <ele>196</ele>
        <time>2015-12-09T15:19:40.485Z</time>
      </trkpt>
      <trkpt lat="45.97728" lon="4.71732">
        <ele>196.699996948</ele>
        <time>2015-12-09T15:19:41.495Z</time>
      </trkpt>
      <trkpt lat="45.97722" lon="4.71731">
        <ele>197.199996948</ele>
        <time>2015-12-09T15:19:42.482Z</time>
      </trkpt>
      <trkpt lat="45.97717" lon="4.7173">
        <ele>197.5</ele>
        <time>2015-12-09T15:19:43.495Z</time>
      </trkpt>
      <trkpt lat="45.97711" lon="4.71729">
        <ele>197.800003052</ele>
        <time>2015-12-09T15:19:44.481Z</time>
      </trkpt>
      <trkpt lat="45.97705" lon="4.71728">
        <ele>198</ele>
        <time>2015-12-09T15:19:45.495Z</time>
      </trkpt>
      <trkpt lat="45.977" lon="4.71728">
        <ele>198.100006104</ele>
        <time>2015-12-09T15:19:46.498Z</time>
      </trkpt>
      <trkpt lat="45.97694" lon="4.71728">
        <ele>198.399993896</ele>
        <time>2015-12-09T15:19:47.501Z</time>
      </trkpt>
      <trkpt lat="45.97688" lon="4.71727">
        <ele>198.5</ele>
        <time>2015-12-09T15:19:48.481Z</time>
      </trkpt>
      <trkpt lat="45.97682" lon="4.71727">
        <ele>198.800003052</ele>
        <time>2015-12-09T15:19:49.495Z</time>
      </trkpt>
      <trkpt lat="45.97675" lon="4.71727">
        <ele>198.800003052</ele>
        <time>2015-12-09T15:19:50.48Z</time>
      </trkpt>
      <trkpt lat="45.97669" lon="4.71726">
        <ele>198.800003052</ele>
        <time>2015-12-09T15:19:51.503Z</time>
      </trkpt>
      <trkpt lat="45.97663" lon="4.71726">
        <ele>198.699996948</ele>
        <time>2015-12-09T15:19:52.487Z</time>
      </trkpt>
      <trkpt lat="45.97657" lon="4.71726">
        <ele>198.600006104</ele>
        <time>2015-12-09T15:19:53.495Z</time>
      </trkpt>
      <trkpt lat="45.97652" lon="4.71725">
        <ele>198.899993896</ele>
        <time>2015-12-09T15:19:54.482Z</time>
      </trkpt>
      <trkpt lat="45.97646" lon="4.71725">
        <ele>199.100006104</ele>
        <time>2015-12-09T15:19:55.495Z</time>
      </trkpt>
      <trkpt lat="45.97641" lon="4.71724">
        <ele>199.399993896</ele>
        <time>2015-12-09T15:19:56.481Z</time>
      </trkpt>
      <trkpt lat="45.97637" lon="4.71721">
        <ele>199.199996948</ele>
        <time>2015-12-09T15:19:57.495Z</time>
      </trkpt>
      <trkpt lat="45.97633" lon="4.71718">
        <ele>199.300003052</ele>
        <time>2015-12-09T15:19:58.484Z</time>
      </trkpt>
      <trkpt lat="45.97629" lon="4.71714">
        <ele>199.399993896</ele>
        <time>2015-12-09T15:19:59.495Z</time>
      </trkpt>
      <trkpt lat="45.97625" lon="4.71711">
        <ele>199.5</ele>
        <time>2015-12-09T15:20:00.482Z</time>
      </trkpt>
      <trkpt lat="45.9762" lon="4.71709">
        <ele>199.699996948</ele>
        <time>2015-12-09T15:20:01.496Z</time>
      </trkpt>
      <trkpt lat="45.97615" lon="4.71708">
        <ele>200.199996948</ele>
        <time>2015-12-09T15:20:02.495Z</time>
      </trkpt>
      <trkpt lat="45.9761" lon="4.7171">
        <ele>200.5</ele>
        <time>2015-12-09T15:20:03.495Z</time>
      </trkpt>
      <trkpt lat="45.97605" lon="4.71714">
        <ele>200.5</ele>
        <time>2015-12-09T15:20:04.484Z</time>
      </trkpt>
      <trkpt lat="45.976" lon="4.71718">
        <ele>200.399993896</ele>
        <time>2015-12-09T15:20:05.495Z</time>
      </trkpt>
      <trkpt lat="45.97595" lon="4.71721">
        <ele>200.300003052</ele>
        <time>2015-12-09T15:20:06.482Z</time>
      </trkpt>
      <trkpt lat="45.97589" lon="4.71722">
        <ele>200.199996948</ele>
        <time>2015-12-09T15:20:07.495Z</time>
      </trkpt>
      <trkpt lat="45.97582" lon="4.71721">
        <ele>200.300003052</ele>
        <time>2015-12-09T15:20:08.481Z</time>
      </trkpt>
      <trkpt lat="45.97576" lon="4.71721">
        <ele>200.600006104</ele>
        <time>2015-12-09T15:20:09.495Z</time>
      </trkpt>
      <trkpt lat="45.97569" lon="4.71719">
        <ele>200.5</ele>
        <time>2015-12-09T15:20:10.484Z</time>
      </trkpt>
      <trkpt lat="45.97563" lon="4.71718">
        <ele>200.199996948</ele>
        <time>2015-12-09T15:20:11.497Z</time>
      </trkpt>
      <trkpt lat="45.97556" lon="4.71718">
        <ele>200</ele>
        <time>2015-12-09T15:20:12.482Z</time>
      </trkpt>
      <trkpt lat="45.9755" lon="4.71717">
        <ele>199.899993896</ele>
        <time>2015-12-09T15:20:13.495Z</time>
      </trkpt>
      <trkpt lat="45.97543" lon="4.71717">
        <ele>199.800003052</ele>
        <time>2015-12-09T15:20:14.481Z</time>
      </trkpt>
      <trkpt lat="45.97536" lon="4.71716">
        <ele>199.899993896</ele>
        <time>2015-12-09T15:20:15.494Z</time>
      </trkpt>
      <trkpt lat="45.97529" lon="4.71716">
        <ele>200</ele>
        <time>2015-12-09T15:20:16.484Z</time>
      </trkpt>
      <trkpt lat="45.97522" lon="4.71716">
        <ele>200</ele>
        <time>2015-12-09T15:20:17.495Z</time>
      </trkpt>
      <trkpt lat="45.97515" lon="4.71716">
        <ele>199.899993896</ele>
        <time>2015-12-09T15:20:18.484Z</time>
      </trkpt>
      <trkpt lat="45.97509" lon="4.71715">
        <ele>200</ele>
        <time>2015-12-09T15:20:19.495Z</time>
      </trkpt>
      <trkpt lat="45.97503" lon="4.71714">
        <ele>200</ele>
        <time>2015-12-09T15:20:20.48Z</time>
      </trkpt>
      <trkpt lat="45.97497" lon="4.71713">
        <ele>199.800003052</ele>
        <time>2015-12-09T15:20:21.494Z</time>
      </trkpt>
      <trkpt lat="45.9749" lon="4.71712">
        <ele>199.699996948</ele>
        <time>2015-12-09T15:20:22.484Z</time>
      </trkpt>
      <trkpt lat="45.97484" lon="4.71712">
        <ele>200</ele>
        <time>2015-12-09T15:20:23.513Z</time>
      </trkpt>
      <trkpt lat="45.97478" lon="4.71712">
        <ele>200</ele>
        <time>2015-12-09T15:20:24.481Z</time>
      </trkpt>
      <trkpt lat="45.97471" lon="4.71712">
        <ele>200.199996948</ele>
        <time>2015-12-09T15:20:25.495Z</time>
      </trkpt>
      <trkpt lat="45.97465" lon="4.71711">
        <ele>200.399993896</ele>
        <time>2015-12-09T15:20:26.48Z</time>
      </trkpt>
      <trkpt lat="45.97459" lon="4.71711">
        <ele>200.399993896</ele>
        <time>2015-12-09T15:20:27.495Z</time>
      </trkpt>
      <trkpt lat="45.97453" lon="4.7171">
        <ele>200.300003052</ele>
        <time>2015-12-09T15:20:28.484Z</time>
      </trkpt>
      <trkpt lat="45.97447" lon="4.71709">
        <ele>200.300003052</ele>
        <time>2015-12-09T15:20:29.519Z</time>
      </trkpt>
      <trkpt lat="45.97441" lon="4.71708">
        <ele>200.5</ele>
        <time>2015-12-09T15:20:30.481Z</time>
      </trkpt>
      <trkpt lat="45.97434" lon="4.71707">
        <ele>200.5</ele>
        <time>2015-12-09T15:20:31.533Z</time>
      </trkpt>
      <trkpt lat="45.97428" lon="4.71706">
        <ele>200.399993896</ele>
        <time>2015-12-09T15:20:32.48Z</time>
      </trkpt>
      <trkpt lat="45.97421" lon="4.71706">
        <ele>200.100006104</ele>
        <time>2015-12-09T15:20:33.495Z</time>
      </trkpt>
      <trkpt lat="45.97415" lon="4.71706">
        <ele>199.699996948</ele>
        <time>2015-12-09T15:20:34.484Z</time>
      </trkpt>
      <trkpt lat="45.97408" lon="4.71705">
        <ele>199.600006104</ele>
        <time>2015-12-09T15:20:35.494Z</time>
      </trkpt>
      <trkpt lat="45.97402" lon="4.71705">
        <ele>199.100006104</ele>
        <time>2015-12-09T15:20:36.482Z</time>
      </trkpt>
      <trkpt lat="45.97395" lon="4.71705">
        <ele>198.600006104</ele>
        <time>2015-12-09T15:20:37.529Z</time>
      </trkpt>
      <trkpt lat="45.97389" lon="4.71704">
        <ele>198.100006104</ele>
        <time>2015-12-09T15:20:38.48Z</time>
      </trkpt>
      <trkpt lat="45.97382" lon="4.71704">
        <ele>197.600006104</ele>
        <time>2015-12-09T15:20:39.509Z</time>
      </trkpt>
      <trkpt lat="45.97376" lon="4.71703">
        <ele>197.399993896</ele>
        <time>2015-12-09T15:20:40.484Z</time>
      </trkpt>
      <trkpt lat="45.9737" lon="4.71703">
        <ele>196.800003052</ele>
        <time>2015-12-09T15:20:41.495Z</time>
      </trkpt>
      <trkpt lat="45.97364" lon="4.71702">
        <ele>196.600006104</ele>
        <time>2015-12-09T15:20:42.481Z</time>
      </trkpt>
      <trkpt lat="45.97357" lon="4.71702">
        <ele>196.100006104</ele>
        <time>2015-12-09T15:20:43.624Z</time>
      </trkpt>
      <trkpt lat="45.97351" lon="4.71702">
        <ele>195.300003052</ele>
        <time>2015-12-09T15:20:44.483Z</time>
      </trkpt>
      <trkpt lat="45.97344" lon="4.71701">
        <ele>194.600006104</ele>
        <time>2015-12-09T15:20:45.494Z</time>
      </trkpt>
      <trkpt lat="45.97339" lon="4.71701">
        <ele>194.100006104</ele>
        <time>2015-12-09T15:20:46.484Z</time>
      </trkpt>
      <trkpt lat="45.97333" lon="4.717">
        <ele>193.5</ele>
        <time>2015-12-09T15:20:47.495Z</time>
      </trkpt>
      <trkpt lat="45.97329" lon="4.717">
        <ele>193.699996948</ele>
        <time>2015-12-09T15:20:48.482Z</time>
      </trkpt>
      <trkpt lat="45.97324" lon="4.71698">
        <ele>193.800003052</ele>
        <time>2015-12-09T15:20:49.495Z</time>
      </trkpt>
      <trkpt lat="45.9732" lon="4.71694">
        <ele>193.5</ele>
        <time>2015-12-09T15:20:50.481Z</time>
      </trkpt>
      <trkpt lat="45.97316" lon="4.7169">
        <ele>193.5</ele>
        <time>2015-12-09T15:20:51.495Z</time>
      </trkpt>
      <trkpt lat="45.97311" lon="4.71687">
        <ele>193.699996948</ele>
        <time>2015-12-09T15:20:52.484Z</time>
      </trkpt>
      <trkpt lat="45.97305" lon="4.71688">
        <ele>193.699996948</ele>
        <time>2015-12-09T15:20:53.495Z</time>
      </trkpt>
      <trkpt lat="45.97299" lon="4.71691">
        <ele>193.5</ele>
        <time>2015-12-09T15:20:54.481Z</time>
      </trkpt>
      <trkpt lat="45.97293" lon="4.71694">
        <ele>193.399993896</ele>
        <time>2015-12-09T15:20:55.508Z</time>
      </trkpt>
      <trkpt lat="45.97287" lon="4.71697">
        <ele>193.5</ele>
        <time>2015-12-09T15:20:56.48Z</time>
      </trkpt>
      <trkpt lat="45.9728" lon="4.71698">
        <ele>193.399993896</ele>
        <time>2015-12-09T15:20:57.495Z</time>
      </trkpt>
      <trkpt lat="45.97273" lon="4.71698">
        <ele>193.300003052</ele>
        <time>2015-12-09T15:20:58.484Z</time>
      </trkpt>
      <trkpt lat="45.97267" lon="4.71697">
        <ele>193.100006104</ele>
        <time>2015-12-09T15:20:59.494Z</time>
      </trkpt>
      <trkpt lat="45.9726" lon="4.71696">
        <ele>192.899993896</ele>
        <time>2015-12-09T15:21:00.481Z</time>
      </trkpt>
      <trkpt lat="45.97253" lon="4.71695">
        <ele>192.699996948</ele>
        <time>2015-12-09T15:21:01.494Z</time>
      </trkpt>
      <trkpt lat="45.97246" lon="4.71694">
        <ele>192.199996948</ele>
        <time>2015-12-09T15:21:02.481Z</time>
      </trkpt>
      <trkpt lat="45.97238" lon="4.71693">
        <ele>192</ele>
        <time>2015-12-09T15:21:03.495Z</time>
      </trkpt>
      <trkpt lat="45.97231" lon="4.71692">
        <ele>191.800003052</ele>
        <time>2015-12-09T15:21:04.484Z</time>
      </trkpt>
      <trkpt lat="45.97224" lon="4.71691">
        <ele>191.699996948</ele>
        <time>2015-12-09T15:21:05.495Z</time>
      </trkpt>
      <trkpt lat="45.97216" lon="4.71691">
        <ele>191.399993896</ele>
        <time>2015-12-09T15:21:06.481Z</time>
      </trkpt>
      <trkpt lat="45.97209" lon="4.71691">
        <ele>191.199996948</ele>
        <time>2015-12-09T15:21:07.495Z</time>
      </trkpt>
      <trkpt lat="45.97201" lon="4.7169">
        <ele>191.100006104</ele>
        <time>2015-12-09T15:21:08.481Z</time>
      </trkpt>
      <trkpt lat="45.97194" lon="4.71689">
        <ele>191.100006104</ele>
        <time>2015-12-09T15:21:09.498Z</time>
      </trkpt>
      <trkpt lat="45.97187" lon="4.71688">
        <ele>190.899993896</ele>
        <time>2015-12-09T15:21:10.484Z</time>
      </trkpt>
      <trkpt lat="45.97179" lon="4.71687">
        <ele>190.899993896</ele>
        <time>2015-12-09T15:21:11.511Z</time>
      </trkpt>
      <trkpt lat="45.97171" lon="4.71687">
        <ele>191</ele>
        <time>2015-12-09T15:21:12.481Z</time>
      </trkpt>
      <trkpt lat="45.97163" lon="4.71686">
        <ele>191.300003052</ele>
        <time>2015-12-09T15:21:13.494Z</time>
      </trkpt>
      <trkpt lat="45.97155" lon="4.71686">
        <ele>191.5</ele>
        <time>2015-12-09T15:21:14.48Z</time>
      </trkpt>
      <trkpt lat="45.97147" lon="4.71685">
        <ele>191.399993896</ele>
        <time>2015-12-09T15:21:15.494Z</time>
      </trkpt>
      <trkpt lat="45.97139" lon="4.71684">
        <ele>191.399993896</ele>
        <time>2015-12-09T15:21:16.484Z</time>
      </trkpt>
      <trkpt lat="45.9713" lon="4.71684">
        <ele>191.600006104</ele>
        <time>2015-12-09T15:21:17.501Z</time>
      </trkpt>
      <trkpt lat="45.97122" lon="4.71684">
        <ele>191.600006104</ele>
        <time>2015-12-09T15:21:18.482Z</time>
      </trkpt>
      <trkpt lat="45.97113" lon="4.71684">
        <ele>191.600006104</ele>
        <time>2015-12-09T15:21:19.501Z</time>
      </trkpt>
      <trkpt lat="45.97105" lon="4.71683">
        <ele>191.600006104</ele>
        <time>2015-12-09T15:21:20.48Z</time>
      </trkpt>
      <trkpt lat="45.97096" lon="4.71682">
        <ele>191.5</ele>
        <time>2015-12-09T15:21:21.495Z</time>
      </trkpt>
      <trkpt lat="45.97088" lon="4.71681">
        <ele>191.399993896</ele>
        <time>2015-12-09T15:21:22.484Z</time>
      </trkpt>
      <trkpt lat="45.97079" lon="4.71679">
        <ele>191.300003052</ele>
        <time>2015-12-09T15:21:23.495Z</time>
      </trkpt>
      <trkpt lat="45.9707" lon="4.71677">
        <ele>191.199996948</ele>
        <time>2015-12-09T15:21:24.481Z</time>
      </trkpt>
      <trkpt lat="45.97062" lon="4.71675">
        <ele>191.100006104</ele>
        <time>2015-12-09T15:21:25.535Z</time>
      </trkpt>
      <trkpt lat="45.97053" lon="4.71673">
        <ele>190.899993896</ele>
        <time>2015-12-09T15:21:26.48Z</time>
      </trkpt>
      <trkpt lat="45.97045" lon="4.71672">
        <ele>190.800003052</ele>
        <time>2015-12-09T15:21:27.509Z</time>
      </trkpt>
      <trkpt lat="45.97037" lon="4.71671">
        <ele>190.800003052</ele>
        <time>2015-12-09T15:21:28.484Z</time>
      </trkpt>
      <trkpt lat="45.97028" lon="4.71671">
        <ele>190.800003052</ele>
        <time>2015-12-09T15:21:29.494Z</time>
      </trkpt>
      <trkpt lat="45.9702" lon="4.7167">
        <ele>190.800003052</ele>
        <time>2015-12-09T15:21:30.481Z</time>
      </trkpt>
      <trkpt lat="45.97012" lon="4.7167">
        <ele>191</ele>
        <time>2015-12-09T15:21:31.495Z</time>
      </trkpt>
      <trkpt lat="45.97004" lon="4.71671">
        <ele>191</ele>
        <time>2015-12-09T15:21:32.48Z</time>
      </trkpt>
      <trkpt lat="45.96996" lon="4.71671">
        <ele>191</ele>
        <time>2015-12-09T15:21:33.495Z</time>
      </trkpt>
      <trkpt lat="45.96988" lon="4.71671">
        <ele>191.199996948</ele>
        <time>2015-12-09T15:21:34.484Z</time>
      </trkpt>
      <trkpt lat="45.9698" lon="4.7167">
        <ele>191.199996948</ele>
        <time>2015-12-09T15:21:35.494Z</time>
      </trkpt>
      <trkpt lat="45.96972" lon="4.71671">
        <ele>191</ele>
        <time>2015-12-09T15:21:36.481Z</time>
      </trkpt>
      <trkpt lat="45.96963" lon="4.7167">
        <ele>190.800003052</ele>
        <time>2015-12-09T15:21:37.495Z</time>
      </trkpt>
      <trkpt lat="45.96955" lon="4.71669">
        <ele>190.600006104</ele>
        <time>2015-12-09T15:21:38.495Z</time>
      </trkpt>
      <trkpt lat="45.96946" lon="4.71668">
        <ele>190.100006104</ele>
        <time>2015-12-09T15:21:39.495Z</time>
      </trkpt>
      <trkpt lat="45.96937" lon="4.71667">
        <ele>190</ele>
        <time>2015-12-09T15:21:40.484Z</time>
      </trkpt>
      <trkpt lat="45.96928" lon="4.71666">
        <ele>189.899993896</ele>
        <time>2015-12-09T15:21:41.494Z</time>
      </trkpt>
      <trkpt lat="45.9692" lon="4.71665">
        <ele>189.800003052</ele>
        <time>2015-12-09T15:21:42.481Z</time>
      </trkpt>
      <trkpt lat="45.96911" lon="4.71665">
        <ele>189.399993896</ele>
        <time>2015-12-09T15:21:43.494Z</time>
      </trkpt>
      <trkpt lat="45.96903" lon="4.71664">
        <ele>189.300003052</ele>
        <time>2015-12-09T15:21:44.48Z</time>
      </trkpt>
      <trkpt lat="45.96895" lon="4.71664">
        <ele>189.199996948</ele>
        <time>2015-12-09T15:21:45.494Z</time>
      </trkpt>
      <trkpt lat="45.96886" lon="4.71663">
        <ele>189.300003052</ele>
        <time>2015-12-09T15:21:46.484Z</time>
      </trkpt>
      <trkpt lat="45.96877" lon="4.71662">
        <ele>189.199996948</ele>
        <time>2015-12-09T15:21:47.495Z</time>
      </trkpt>
      <trkpt lat="45.96868" lon="4.71661">
        <ele>189.100006104</ele>
        <time>2015-12-09T15:21:48.481Z</time>
      </trkpt>
      <trkpt lat="45.9686" lon="4.71659">
        <ele>189</ele>
        <time>2015-12-09T15:21:49.509Z</time>
      </trkpt>
      <trkpt lat="45.96851" lon="4.71658">
        <ele>188.899993896</ele>
        <time>2015-12-09T15:21:50.48Z</time>
      </trkpt>
      <trkpt lat="45.96842" lon="4.71657">
        <ele>188.800003052</ele>
        <time>2015-12-09T15:21:51.495Z</time>
      </trkpt>
      <trkpt lat="45.96833" lon="4.71655">
        <ele>188.5</ele>
        <time>2015-12-09T15:21:52.491Z</time>
      </trkpt>
      <trkpt lat="45.96824" lon="4.71654">
        <ele>188.5</ele>
        <time>2015-12-09T15:21:53.495Z</time>
      </trkpt>
      <trkpt lat="45.96815" lon="4.71653">
        <ele>188.399993896</ele>
        <time>2015-12-09T15:21:54.481Z</time>
      </trkpt>
      <trkpt lat="45.96807" lon="4.71652">
        <ele>188.100006104</ele>
        <time>2015-12-09T15:21:55.495Z</time>
      </trkpt>
      <trkpt lat="45.96798" lon="4.71651">
        <ele>187.800003052</ele>
        <time>2015-12-09T15:21:56.48Z</time>
      </trkpt>
      <trkpt lat="45.9679" lon="4.71649">
        <ele>187.699996948</ele>
        <time>2015-12-09T15:21:57.494Z</time>
      </trkpt>
      <trkpt lat="45.96782" lon="4.71648">
        <ele>187.5</ele>
        <time>2015-12-09T15:21:58.484Z</time>
      </trkpt>
      <trkpt lat="45.96773" lon="4.71647">
        <ele>187.300003052</ele>
        <time>2015-12-09T15:21:59.494Z</time>
      </trkpt>
      <trkpt lat="45.96765" lon="4.71645">
        <ele>187.199996948</ele>
        <time>2015-12-09T15:22:00.482Z</time>
      </trkpt>
      <trkpt lat="45.96756" lon="4.71644">
        <ele>186.800003052</ele>
        <time>2015-12-09T15:22:01.494Z</time>
      </trkpt>
      <trkpt lat="45.96748" lon="4.71643">
        <ele>186.5</ele>
        <time>2015-12-09T15:22:02.48Z</time>
      </trkpt>
      <trkpt lat="45.96739" lon="4.71641">
        <ele>186.100006104</ele>
        <time>2015-12-09T15:22:03.495Z</time>
      </trkpt>
      <trkpt lat="45.9673" lon="4.7164">
        <ele>185.699996948</ele>
        <time>2015-12-09T15:22:04.485Z</time>
      </trkpt>
      <trkpt lat="45.96722" lon="4.71638">
        <ele>185.399993896</ele>
        <time>2015-12-09T15:22:05.506Z</time>
      </trkpt>
      <trkpt lat="45.96713" lon="4.71637">
        <ele>185.300003052</ele>
        <time>2015-12-09T15:22:06.481Z</time>
      </trkpt>
      <trkpt lat="45.96705" lon="4.71635">
        <ele>185.300003052</ele>
        <time>2015-12-09T15:22:07.495Z</time>
      </trkpt>
      <trkpt lat="45.96696" lon="4.71634">
        <ele>185.199996948</ele>
        <time>2015-12-09T15:22:08.48Z</time>
      </trkpt>
      <trkpt lat="45.96688" lon="4.71632">
        <ele>185.300003052</ele>
        <time>2015-12-09T15:22:09.494Z</time>
      </trkpt>
      <trkpt lat="45.9668" lon="4.71631">
        <ele>185.300003052</ele>
        <time>2015-12-09T15:22:10.497Z</time>
      </trkpt>
      <trkpt lat="45.96672" lon="4.71631">
        <ele>185.199996948</ele>
        <time>2015-12-09T15:22:11.497Z</time>
      </trkpt>
      <trkpt lat="45.96664" lon="4.7163">
        <ele>185</ele>
        <time>2015-12-09T15:22:12.481Z</time>
      </trkpt>
      <trkpt lat="45.96656" lon="4.71629">
        <ele>185</ele>
        <time>2015-12-09T15:22:13.496Z</time>
      </trkpt>
      <trkpt lat="45.96648" lon="4.71628">
        <ele>184.800003052</ele>
        <time>2015-12-09T15:22:14.48Z</time>
      </trkpt>
      <trkpt lat="45.9664" lon="4.71627">
        <ele>184.600006104</ele>
        <time>2015-12-09T15:22:15.495Z</time>
      </trkpt>
      <trkpt lat="45.96632" lon="4.71626">
        <ele>184.5</ele>
        <time>2015-12-09T15:22:16.484Z</time>
      </trkpt>
      <trkpt lat="45.96624" lon="4.71624">
        <ele>184.300003052</ele>
        <time>2015-12-09T15:22:17.495Z</time>
      </trkpt>
      <trkpt lat="45.96617" lon="4.71623">
        <ele>184.199996948</ele>
        <time>2015-12-09T15:22:18.481Z</time>
      </trkpt>
      <trkpt lat="45.96609" lon="4.71622">
        <ele>184.100006104</ele>
        <time>2015-12-09T15:22:19.529Z</time>
      </trkpt>
      <trkpt lat="45.96601" lon="4.7162">
        <ele>184.100006104</ele>
        <time>2015-12-09T15:22:20.481Z</time>
      </trkpt>
      <trkpt lat="45.96593" lon="4.71618">
        <ele>184</ele>
        <time>2015-12-09T15:22:21.51Z</time>
      </trkpt>
      <trkpt lat="45.96586" lon="4.71617">
        <ele>184.100006104</ele>
        <time>2015-12-09T15:22:22.483Z</time>
      </trkpt>
      <trkpt lat="45.96578" lon="4.71616">
        <ele>184.100006104</ele>
        <time>2015-12-09T15:22:23.494Z</time>
      </trkpt>
      <trkpt lat="45.9657" lon="4.71615">
        <ele>184</ele>
        <time>2015-12-09T15:22:24.481Z</time>
      </trkpt>
      <trkpt lat="45.96563" lon="4.71615">
        <ele>184</ele>
        <time>2015-12-09T15:22:25.494Z</time>
      </trkpt>
      <trkpt lat="45.96557" lon="4.71613">
        <ele>183.899993896</ele>
        <time>2015-12-09T15:22:26.48Z</time>
      </trkpt>
      <trkpt lat="45.96551" lon="4.71611">
        <ele>184.300003052</ele>
        <time>2015-12-09T15:22:27.494Z</time>
      </trkpt>
      <trkpt lat="45.96545" lon="4.71607">
        <ele>184.199996948</ele>
        <time>2015-12-09T15:22:28.484Z</time>
      </trkpt>
      <trkpt lat="45.96539" lon="4.71603">
        <ele>184.100006104</ele>
        <time>2015-12-09T15:22:29.494Z</time>
      </trkpt>
      <trkpt lat="45.96534" lon="4.71599">
        <ele>183.800003052</ele>
        <time>2015-12-09T15:22:30.481Z</time>
      </trkpt>
      <trkpt lat="45.96527" lon="4.71599">
        <ele>184.300003052</ele>
        <time>2015-12-09T15:22:31.495Z</time>
      </trkpt>
      <trkpt lat="45.96519" lon="4.71599">
        <ele>185.399993896</ele>
        <time>2015-12-09T15:22:32.48Z</time>
      </trkpt>
      <trkpt lat="45.96512" lon="4.716">
        <ele>186.199996948</ele>
        <time>2015-12-09T15:22:33.495Z</time>
      </trkpt>
      <trkpt lat="45.96504" lon="4.716">
        <ele>186.699996948</ele>
        <time>2015-12-09T15:22:34.483Z</time>
      </trkpt>
      <trkpt lat="45.96495" lon="4.71601">
        <ele>186.600006104</ele>
        <time>2015-12-09T15:22:35.494Z</time>
      </trkpt>
      <trkpt lat="45.96488" lon="4.71599">
        <ele>186.800003052</ele>
        <time>2015-12-09T15:22:36.481Z</time>
      </trkpt>
      <trkpt lat="45.9648" lon="4.71598">
        <ele>187</ele>
        <time>2015-12-09T15:22:37.508Z</time>
      </trkpt>
      <trkpt lat="45.96472" lon="4.71597">
        <ele>187</ele>
        <time>2015-12-09T15:22:38.481Z</time>
      </trkpt>
      <trkpt lat="45.96464" lon="4.71596">
        <ele>187</ele>
        <time>2015-12-09T15:22:39.495Z</time>
      </trkpt>
      <trkpt lat="45.96456" lon="4.71595">
        <ele>187</ele>
        <time>2015-12-09T15:22:40.484Z</time>
      </trkpt>
      <trkpt lat="45.96449" lon="4.71594">
        <ele>187</ele>
        <time>2015-12-09T15:22:41.494Z</time>
      </trkpt>
      <trkpt lat="45.96441" lon="4.71594">
        <ele>186.899993896</ele>
        <time>2015-12-09T15:22:42.481Z</time>
      </trkpt>
      <trkpt lat="45.96432" lon="4.71593">
        <ele>186.800003052</ele>
        <time>2015-12-09T15:22:43.495Z</time>
      </trkpt>
      <trkpt lat="45.96425" lon="4.71592">
        <ele>186.300003052</ele>
        <time>2015-12-09T15:22:44.481Z</time>
      </trkpt>
      <trkpt lat="45.96417" lon="4.71591">
        <ele>186</ele>
        <time>2015-12-09T15:22:45.497Z</time>
      </trkpt>
      <trkpt lat="45.96409" lon="4.71589">
        <ele>186</ele>
        <time>2015-12-09T15:22:46.486Z</time>
      </trkpt>
      <trkpt lat="45.96401" lon="4.71588">
        <ele>186.100006104</ele>
        <time>2015-12-09T15:22:47.503Z</time>
      </trkpt>
      <trkpt lat="45.96393" lon="4.71586">
        <ele>186.199996948</ele>
        <time>2015-12-09T15:22:48.483Z</time>
      </trkpt>
      <trkpt lat="45.96385" lon="4.71585">
        <ele>186.199996948</ele>
        <time>2015-12-09T15:22:49.496Z</time>
      </trkpt>
      <trkpt lat="45.96377" lon="4.71584">
        <ele>186.300003052</ele>
        <time>2015-12-09T15:22:50.48Z</time>
      </trkpt>
      <trkpt lat="45.96369" lon="4.71583">
        <ele>186.399993896</ele>
        <time>2015-12-09T15:22:51.494Z</time>
      </trkpt>
      <trkpt lat="45.96362" lon="4.71581">
        <ele>186.100006104</ele>
        <time>2015-12-09T15:22:52.483Z</time>
      </trkpt>
      <trkpt lat="45.96354" lon="4.7158">
        <ele>186.100006104</ele>
        <time>2015-12-09T15:22:53.508Z</time>
      </trkpt>
      <trkpt lat="45.96347" lon="4.71579">
        <ele>186.100006104</ele>
        <time>2015-12-09T15:22:54.481Z</time>
      </trkpt>
      <trkpt lat="45.96339" lon="4.71578">
        <ele>186</ele>
        <time>2015-12-09T15:22:55.495Z</time>
      </trkpt>
      <trkpt lat="45.96331" lon="4.71576">
        <ele>185.899993896</ele>
        <time>2015-12-09T15:22:56.48Z</time>
      </trkpt>
      <trkpt lat="45.96324" lon="4.71575">
        <ele>185.899993896</ele>
        <time>2015-12-09T15:22:57.539Z</time>
      </trkpt>
      <trkpt lat="45.96316" lon="4.71574">
        <ele>186.100006104</ele>
        <time>2015-12-09T15:22:58.483Z</time>
      </trkpt>
      <trkpt lat="45.96309" lon="4.71572">
        <ele>185.800003052</ele>
        <time>2015-12-09T15:22:59.495Z</time>
      </trkpt>
      <trkpt lat="45.96301" lon="4.71571">
        <ele>185.699996948</ele>
        <time>2015-12-09T15:23:00.482Z</time>
      </trkpt>
      <trkpt lat="45.96294" lon="4.71571">
        <ele>185.600006104</ele>
        <time>2015-12-09T15:23:01.495Z</time>
      </trkpt>
      <trkpt lat="45.96286" lon="4.71569">
        <ele>185.899993896</ele>
        <time>2015-12-09T15:23:02.48Z</time>
      </trkpt>
      <trkpt lat="45.96278" lon="4.71568">
        <ele>185.800003052</ele>
        <time>2015-12-09T15:23:03.494Z</time>
      </trkpt>
      <trkpt lat="45.96271" lon="4.71566">
        <ele>185.699996948</ele>
        <time>2015-12-09T15:23:04.484Z</time>
      </trkpt>
      <trkpt lat="45.96264" lon="4.71564">
        <ele>185.899993896</ele>
        <time>2015-12-09T15:23:05.495Z</time>
      </trkpt>
      <trkpt lat="45.96256" lon="4.71563">
        <ele>185.899993896</ele>
        <time>2015-12-09T15:23:06.481Z</time>
      </trkpt>
      <trkpt lat="45.96249" lon="4.71561">
        <ele>185.5</ele>
        <time>2015-12-09T15:23:07.496Z</time>
      </trkpt>
      <trkpt lat="45.96242" lon="4.7156">
        <ele>185.5</ele>
        <time>2015-12-09T15:23:08.48Z</time>
      </trkpt>
      <trkpt lat="45.96235" lon="4.71559">
        <ele>185.600006104</ele>
        <time>2015-12-09T15:23:09.494Z</time>
      </trkpt>
      <trkpt lat="45.96229" lon="4.71558">
        <ele>185.899993896</ele>
        <time>2015-12-09T15:23:10.483Z</time>
      </trkpt>
      <trkpt lat="45.96222" lon="4.71557">
        <ele>185.800003052</ele>
        <time>2015-12-09T15:23:11.497Z</time>
      </trkpt>
      <trkpt lat="45.96215" lon="4.71556">
        <ele>186</ele>
        <time>2015-12-09T15:23:12.481Z</time>
      </trkpt>
      <trkpt lat="45.96209" lon="4.71555">
        <ele>186.100006104</ele>
        <time>2015-12-09T15:23:13.494Z</time>
      </trkpt>
      <trkpt lat="45.96202" lon="4.71554">
        <ele>186.199996948</ele>
        <time>2015-12-09T15:23:14.495Z</time>
      </trkpt>
      <trkpt lat="45.96196" lon="4.71553">
        <ele>186.600006104</ele>
        <time>2015-12-09T15:23:15.495Z</time>
      </trkpt>
      <trkpt lat="45.96189" lon="4.71552">
        <ele>186.699996948</ele>
        <time>2015-12-09T15:23:16.484Z</time>
      </trkpt>
      <trkpt lat="45.96183" lon="4.71551">
        <ele>187.199996948</ele>
        <time>2015-12-09T15:23:17.496Z</time>
      </trkpt>
      <trkpt lat="45.96176" lon="4.7155">
        <ele>187.5</ele>
        <time>2015-12-09T15:23:18.481Z</time>
      </trkpt>
      <trkpt lat="45.96169" lon="4.71549">
        <ele>187.300003052</ele>
        <time>2015-12-09T15:23:19.494Z</time>
      </trkpt>
      <trkpt lat="45.96162" lon="4.71548">
        <ele>187.300003052</ele>
        <time>2015-12-09T15:23:20.48Z</time>
      </trkpt>
      <trkpt lat="45.96155" lon="4.71547">
        <ele>187.199996948</ele>
        <time>2015-12-09T15:23:21.494Z</time>
      </trkpt>
      <trkpt lat="45.96148" lon="4.71545">
        <ele>187.199996948</ele>
        <time>2015-12-09T15:23:22.483Z</time>
      </trkpt>
      <trkpt lat="45.96141" lon="4.71545">
        <ele>187.100006104</ele>
        <time>2015-12-09T15:23:23.494Z</time>
      </trkpt>
      <trkpt lat="45.96134" lon="4.71544">
        <ele>187</ele>
        <time>2015-12-09T15:23:24.481Z</time>
      </trkpt>
      <trkpt lat="45.96127" lon="4.71543">
        <ele>187</ele>
        <time>2015-12-09T15:23:25.494Z</time>
      </trkpt>
      <trkpt lat="45.96121" lon="4.71542">
        <ele>187.399993896</ele>
        <time>2015-12-09T15:23:26.481Z</time>
      </trkpt>
      <trkpt lat="45.96114" lon="4.71541">
        <ele>187.100006104</ele>
        <time>2015-12-09T15:23:27.494Z</time>
      </trkpt>
      <trkpt lat="45.96107" lon="4.71539">
        <ele>186.600006104</ele>
        <time>2015-12-09T15:23:28.483Z</time>
      </trkpt>
      <trkpt lat="45.961" lon="4.71538">
        <ele>186</ele>
        <time>2015-12-09T15:23:29.494Z</time>
      </trkpt>
      <trkpt lat="45.96093" lon="4.71537">
        <ele>185.800003052</ele>
        <time>2015-12-09T15:23:30.495Z</time>
      </trkpt>
      <trkpt lat="45.96086" lon="4.71536">
        <ele>186.5</ele>
        <time>2015-12-09T15:23:31.495Z</time>
      </trkpt>
      <trkpt lat="45.9608" lon="4.71535">
        <ele>186.600006104</ele>
        <time>2015-12-09T15:23:32.48Z</time>
      </trkpt>
      <trkpt lat="45.96073" lon="4.71533">
        <ele>186.199996948</ele>
        <time>2015-12-09T15:23:33.494Z</time>
      </trkpt>
      <trkpt lat="45.96067" lon="4.71532">
        <ele>186.100006104</ele>
        <time>2015-12-09T15:23:34.483Z</time>
      </trkpt>
      <trkpt lat="45.96061" lon="4.71531">
        <ele>185.899993896</ele>
        <time>2015-12-09T15:23:35.494Z</time>
      </trkpt>
      <trkpt lat="45.96055" lon="4.7153">
        <ele>185.699996948</ele>
        <time>2015-12-09T15:23:36.481Z</time>
      </trkpt>
      <trkpt lat="45.96049" lon="4.71529">
        <ele>185.5</ele>
        <time>2015-12-09T15:23:37.496Z</time>
      </trkpt>
      <trkpt lat="45.96043" lon="4.71527">
        <ele>185.600006104</ele>
        <time>2015-12-09T15:23:38.48Z</time>
      </trkpt>
      <trkpt lat="45.96036" lon="4.71526">
        <ele>185.800003052</ele>
        <time>2015-12-09T15:23:39.494Z</time>
      </trkpt>
      <trkpt lat="45.9603" lon="4.71525">
        <ele>185.600006104</ele>
        <time>2015-12-09T15:23:40.483Z</time>
      </trkpt>
      <trkpt lat="45.96024" lon="4.71524">
        <ele>185.5</ele>
        <time>2015-12-09T15:23:41.508Z</time>
      </trkpt>
      <trkpt lat="45.96017" lon="4.71523">
        <ele>185.399993896</ele>
        <time>2015-12-09T15:23:42.481Z</time>
      </trkpt>
      <trkpt lat="45.96011" lon="4.71521">
        <ele>185.100006104</ele>
        <time>2015-12-09T15:23:43.495Z</time>
      </trkpt>
      <trkpt lat="45.96006" lon="4.71519">
        <ele>185.100006104</ele>
        <time>2015-12-09T15:23:44.48Z</time>
      </trkpt>
      <trkpt lat="45.96002" lon="4.71517">
        <ele>184.600006104</ele>
        <time>2015-12-09T15:23:45.494Z</time>
      </trkpt>
      <trkpt lat="45.95997" lon="4.71514">
        <ele>184.199996948</ele>
        <time>2015-12-09T15:23:46.483Z</time>
      </trkpt>
      <trkpt lat="45.95992" lon="4.7151">
        <ele>183.800003052</ele>
        <time>2015-12-09T15:23:47.496Z</time>
      </trkpt>
      <trkpt lat="45.95986" lon="4.71509">
        <ele>183.600006104</ele>
        <time>2015-12-09T15:23:48.481Z</time>
      </trkpt>
      <trkpt lat="45.9598" lon="4.7151">
        <ele>183.600006104</ele>
        <time>2015-12-09T15:23:49.494Z</time>
      </trkpt>
      <trkpt lat="45.95974" lon="4.71513">
        <ele>183.5</ele>
        <time>2015-12-09T15:23:50.48Z</time>
      </trkpt>
      <trkpt lat="45.95968" lon="4.71515">
        <ele>183.399993896</ele>
        <time>2015-12-09T15:23:51.494Z</time>
      </trkpt>
      <trkpt lat="45.95962" lon="4.71517">
        <ele>183.300003052</ele>
        <time>2015-12-09T15:23:52.483Z</time>
      </trkpt>
      <trkpt lat="45.95955" lon="4.71519">
        <ele>183.199996948</ele>
        <time>2015-12-09T15:23:53.494Z</time>
      </trkpt>
      <trkpt lat="45.95948" lon="4.71519">
        <ele>183.100006104</ele>
        <time>2015-12-09T15:23:54.481Z</time>
      </trkpt>
      <trkpt lat="45.9594" lon="4.71519">
        <ele>182.899993896</ele>
        <time>2015-12-09T15:23:55.494Z</time>
      </trkpt>
      <trkpt lat="45.95932" lon="4.71519">
        <ele>182.800003052</ele>
        <time>2015-12-09T15:23:56.48Z</time>
      </trkpt>
      <trkpt lat="45.95924" lon="4.71519">
        <ele>183.100006104</ele>
        <time>2015-12-09T15:23:57.512Z</time>
      </trkpt>
      <trkpt lat="45.95916" lon="4.71518">
        <ele>183.300003052</ele>
        <time>2015-12-09T15:23:58.483Z</time>
      </trkpt>
      <trkpt lat="45.95908" lon="4.71518">
        <ele>183.399993896</ele>
        <time>2015-12-09T15:23:59.494Z</time>
      </trkpt>
      <trkpt lat="45.959" lon="4.71518">
        <ele>183.399993896</ele>
        <time>2015-12-09T15:24:00.481Z</time>
      </trkpt>
      <trkpt lat="45.95892" lon="4.71518">
        <ele>183.5</ele>
        <time>2015-12-09T15:24:01.494Z</time>
      </trkpt>
      <trkpt lat="45.95885" lon="4.71518">
        <ele>183.300003052</ele>
        <time>2015-12-09T15:24:02.481Z</time>
      </trkpt>
      <trkpt lat="45.95877" lon="4.71518">
        <ele>183.199996948</ele>
        <time>2015-12-09T15:24:03.494Z</time>
      </trkpt>
      <trkpt lat="45.95869" lon="4.71518">
        <ele>183.199996948</ele>
        <time>2015-12-09T15:24:04.483Z</time>
      </trkpt>
      <trkpt lat="45.95862" lon="4.71518">
        <ele>182.899993896</ele>
        <time>2015-12-09T15:24:05.494Z</time>
      </trkpt>
      <trkpt lat="45.95854" lon="4.71518">
        <ele>182.600006104</ele>
        <time>2015-12-09T15:24:06.481Z</time>
      </trkpt>
      <trkpt lat="45.95846" lon="4.71518">
        <ele>182.699996948</ele>
        <time>2015-12-09T15:24:07.494Z</time>
      </trkpt>
      <trkpt lat="45.95839" lon="4.71517">
        <ele>182.199996948</ele>
        <time>2015-12-09T15:24:08.48Z</time>
      </trkpt>
      <trkpt lat="45.95831" lon="4.71517">
        <ele>182.199996948</ele>
        <time>2015-12-09T15:24:09.494Z</time>
      </trkpt>
      <trkpt lat="45.95823" lon="4.71516">
        <ele>182</ele>
        <time>2015-12-09T15:24:10.483Z</time>
      </trkpt>
      <trkpt lat="45.95815" lon="4.71515">
        <ele>182.199996948</ele>
        <time>2015-12-09T15:24:11.504Z</time>
      </trkpt>
      <trkpt lat="45.95807" lon="4.71515">
        <ele>182.100006104</ele>
        <time>2015-12-09T15:24:12.481Z</time>
      </trkpt>
      <trkpt lat="45.95799" lon="4.71514">
        <ele>182.399993896</ele>
        <time>2015-12-09T15:24:13.509Z</time>
      </trkpt>
      <trkpt lat="45.9579" lon="4.71514">
        <ele>182.5</ele>
        <time>2015-12-09T15:24:14.517Z</time>
      </trkpt>
      <trkpt lat="45.95782" lon="4.71514">
        <ele>182.699996948</ele>
        <time>2015-12-09T15:24:15.494Z</time>
      </trkpt>
      <trkpt lat="45.95774" lon="4.71514">
        <ele>182.199996948</ele>
        <time>2015-12-09T15:24:16.483Z</time>
      </trkpt>
      <trkpt lat="45.95765" lon="4.71513">
        <ele>181.899993896</ele>
        <time>2015-12-09T15:24:17.496Z</time>
      </trkpt>
      <trkpt lat="45.95756" lon="4.71512">
        <ele>181.399993896</ele>
        <time>2015-12-09T15:24:18.481Z</time>
      </trkpt>
      <trkpt lat="45.95748" lon="4.71512">
        <ele>181.199996948</ele>
        <time>2015-12-09T15:24:19.494Z</time>
      </trkpt>
      <trkpt lat="45.95739" lon="4.71511">
        <ele>181</ele>
        <time>2015-12-09T15:24:20.48Z</time>
      </trkpt>
      <trkpt lat="45.9573" lon="4.7151">
        <ele>180.800003052</ele>
        <time>2015-12-09T15:24:21.494Z</time>
      </trkpt>
      <trkpt lat="45.95722" lon="4.7151">
        <ele>180.5</ele>
        <time>2015-12-09T15:24:22.483Z</time>
      </trkpt>
      <trkpt lat="45.95713" lon="4.71509">
        <ele>180.5</ele>
        <time>2015-12-09T15:24:23.495Z</time>
      </trkpt>
      <trkpt lat="45.95705" lon="4.71508">
        <ele>180.300003052</ele>
        <time>2015-12-09T15:24:24.481Z</time>
      </trkpt>
      <trkpt lat="45.95696" lon="4.71508">
        <ele>180</ele>
        <time>2015-12-09T15:24:25.494Z</time>
      </trkpt>
      <trkpt lat="45.95687" lon="4.71507">
        <ele>180</ele>
        <time>2015-12-09T15:24:26.48Z</time>
      </trkpt>
      <trkpt lat="45.95679" lon="4.71507">
        <ele>180</ele>
        <time>2015-12-09T15:24:27.497Z</time>
      </trkpt>
      <trkpt lat="45.95671" lon="4.71506">
        <ele>179.5</ele>
        <time>2015-12-09T15:24:28.483Z</time>
      </trkpt>
      <trkpt lat="45.95663" lon="4.71506">
        <ele>178.699996948</ele>
        <time>2015-12-09T15:24:29.508Z</time>
      </trkpt>
      <trkpt lat="45.95655" lon="4.71505">
        <ele>179.199996948</ele>
        <time>2015-12-09T15:24:30.481Z</time>
      </trkpt>
      <trkpt lat="45.95646" lon="4.71505">
        <ele>179.399993896</ele>
        <time>2015-12-09T15:24:31.62Z</time>
      </trkpt>
      <trkpt lat="45.95639" lon="4.71504">
        <ele>179.5</ele>
        <time>2015-12-09T15:24:32.48Z</time>
      </trkpt>
      <trkpt lat="45.95631" lon="4.71504">
        <ele>179.300003052</ele>
        <time>2015-12-09T15:24:33.494Z</time>
      </trkpt>
      <trkpt lat="45.95623" lon="4.71503">
        <ele>179.100006104</ele>
        <time>2015-12-09T15:24:34.483Z</time>
      </trkpt>
      <trkpt lat="45.95615" lon="4.71503">
        <ele>179.199996948</ele>
        <time>2015-12-09T15:24:35.494Z</time>
      </trkpt>
      <trkpt lat="45.95607" lon="4.71503">
        <ele>179.699996948</ele>
        <time>2015-12-09T15:24:36.481Z</time>
      </trkpt>
      <trkpt lat="45.956" lon="4.71502">
        <ele>179.699996948</ele>
        <time>2015-12-09T15:24:37.506Z</time>
      </trkpt>
      <trkpt lat="45.95592" lon="4.71502">
        <ele>179.699996948</ele>
        <time>2015-12-09T15:24:38.48Z</time>
      </trkpt>
      <trkpt lat="45.95583" lon="4.71501">
        <ele>179.699996948</ele>
        <time>2015-12-09T15:24:39.494Z</time>
      </trkpt>
      <trkpt lat="45.95575" lon="4.71501">
        <ele>179.899993896</ele>
        <time>2015-12-09T15:24:40.483Z</time>
      </trkpt>
      <trkpt lat="45.95566" lon="4.71501">
        <ele>180.199996948</ele>
        <time>2015-12-09T15:24:41.494Z</time>
      </trkpt>
      <trkpt lat="45.95558" lon="4.715">
        <ele>180.100006104</ele>
        <time>2015-12-09T15:24:42.481Z</time>
      </trkpt>
      <trkpt lat="45.95549" lon="4.71499">
        <ele>179.800003052</ele>
        <time>2015-12-09T15:24:43.529Z</time>
      </trkpt>
      <trkpt lat="45.95541" lon="4.71499">
        <ele>179.699996948</ele>
        <time>2015-12-09T15:24:44.48Z</time>
      </trkpt>
      <trkpt lat="45.95533" lon="4.71498">
        <ele>179.800003052</ele>
        <time>2015-12-09T15:24:45.508Z</time>
      </trkpt>
      <trkpt lat="45.95525" lon="4.71498">
        <ele>179.699996948</ele>
        <time>2015-12-09T15:24:46.483Z</time>
      </trkpt>
      <trkpt lat="45.95516" lon="4.71497">
        <ele>179.399993896</ele>
        <time>2015-12-09T15:24:47.497Z</time>
      </trkpt>
      <trkpt lat="45.95508" lon="4.71496">
        <ele>179.699996948</ele>
        <time>2015-12-09T15:24:48.482Z</time>
      </trkpt>
      <trkpt lat="45.95501" lon="4.71496">
        <ele>180.100006104</ele>
        <time>2015-12-09T15:24:49.495Z</time>
      </trkpt>
      <trkpt lat="45.95493" lon="4.71495">
        <ele>180.600006104</ele>
        <time>2015-12-09T15:24:50.48Z</time>
      </trkpt>
      <trkpt lat="45.95485" lon="4.71494">
        <ele>180.899993896</ele>
        <time>2015-12-09T15:24:51.494Z</time>
      </trkpt>
      <trkpt lat="45.95477" lon="4.71494">
        <ele>180.399993896</ele>
        <time>2015-12-09T15:24:52.483Z</time>
      </trkpt>
      <trkpt lat="45.95469" lon="4.71493">
        <ele>180.399993896</ele>
        <time>2015-12-09T15:24:53.494Z</time>
      </trkpt>
      <trkpt lat="45.95461" lon="4.71493">
        <ele>181</ele>
        <time>2015-12-09T15:24:54.481Z</time>
      </trkpt>
      <trkpt lat="45.95454" lon="4.71492">
        <ele>181.199996948</ele>
        <time>2015-12-09T15:24:55.494Z</time>
      </trkpt>
      <trkpt lat="45.95446" lon="4.71492">
        <ele>181</ele>
        <time>2015-12-09T15:24:56.493Z</time>
      </trkpt>
      <trkpt lat="45.95439" lon="4.71491">
        <ele>181.399993896</ele>
        <time>2015-12-09T15:24:57.506Z</time>
      </trkpt>
      <trkpt lat="45.95431" lon="4.7149">
        <ele>180.699996948</ele>
        <time>2015-12-09T15:24:58.483Z</time>
      </trkpt>
      <trkpt lat="45.95423" lon="4.7149">
        <ele>180.300003052</ele>
        <time>2015-12-09T15:24:59.494Z</time>
      </trkpt>
      <trkpt lat="45.95415" lon="4.71489">
        <ele>180</ele>
        <time>2015-12-09T15:25:00.481Z</time>
      </trkpt>
      <trkpt lat="45.95407" lon="4.71488">
        <ele>179.899993896</ele>
        <time>2015-12-09T15:25:01.493Z</time>
      </trkpt>
      <trkpt lat="45.95398" lon="4.71488">
        <ele>179.899993896</ele>
        <time>2015-12-09T15:25:02.48Z</time>
      </trkpt>
      <trkpt lat="45.95391" lon="4.71487">
        <ele>179.899993896</ele>
        <time>2015-12-09T15:25:03.5Z</time>
      </trkpt>
      <trkpt lat="45.95383" lon="4.71487">
        <ele>179.600006104</ele>
        <time>2015-12-09T15:25:04.483Z</time>
      </trkpt>
      <trkpt lat="45.95375" lon="4.71486">
        <ele>178.100006104</ele>
        <time>2015-12-09T15:25:05.494Z</time>
      </trkpt>
      <trkpt lat="45.95367" lon="4.71485">
        <ele>177.800003052</ele>
        <time>2015-12-09T15:25:06.481Z</time>
      </trkpt>
      <trkpt lat="45.95359" lon="4.71484">
        <ele>176.800003052</ele>
        <time>2015-12-09T15:25:07.511Z</time>
      </trkpt>
      <trkpt lat="45.95352" lon="4.71483">
        <ele>176.300003052</ele>
        <time>2015-12-09T15:25:08.48Z</time>
      </trkpt>
      <trkpt lat="45.95345" lon="4.71483">
        <ele>175.899993896</ele>
        <time>2015-12-09T15:25:09.531Z</time>
      </trkpt>
      <trkpt lat="45.95338" lon="4.71482">
        <ele>175.699996948</ele>
        <time>2015-12-09T15:25:10.483Z</time>
      </trkpt>
      <trkpt lat="45.9533" lon="4.71482">
        <ele>175.100006104</ele>
        <time>2015-12-09T15:25:11.496Z</time>
      </trkpt>
      <trkpt lat="45.95323" lon="4.71482">
        <ele>175</ele>
        <time>2015-12-09T15:25:12.481Z</time>
      </trkpt>
      <trkpt lat="45.95315" lon="4.71481">
        <ele>174.800003052</ele>
        <time>2015-12-09T15:25:13.494Z</time>
      </trkpt>
      <trkpt lat="45.95308" lon="4.71481">
        <ele>174.399993896</ele>
        <time>2015-12-09T15:25:14.48Z</time>
      </trkpt>
      <trkpt lat="45.95301" lon="4.7148">
        <ele>173.800003052</ele>
        <time>2015-12-09T15:25:15.495Z</time>
      </trkpt>
      <trkpt lat="45.95293" lon="4.71479">
        <ele>173.899993896</ele>
        <time>2015-12-09T15:25:16.483Z</time>
      </trkpt>
      <trkpt lat="45.95286" lon="4.71479">
        <ele>174.100006104</ele>
        <time>2015-12-09T15:25:17.496Z</time>
      </trkpt>
      <trkpt lat="45.95278" lon="4.71479">
        <ele>174.100006104</ele>
        <time>2015-12-09T15:25:18.482Z</time>
      </trkpt>
      <trkpt lat="45.95271" lon="4.71478">
        <ele>173.800003052</ele>
        <time>2015-12-09T15:25:19.494Z</time>
      </trkpt>
      <trkpt lat="45.95263" lon="4.71478">
        <ele>173.899993896</ele>
        <time>2015-12-09T15:25:20.48Z</time>
      </trkpt>
      <trkpt lat="45.95256" lon="4.71477">
        <ele>173.600006104</ele>
        <time>2015-12-09T15:25:21.494Z</time>
      </trkpt>
      <trkpt lat="45.95248" lon="4.71477">
        <ele>173.199996948</ele>
        <time>2015-12-09T15:25:22.483Z</time>
      </trkpt>
      <trkpt lat="45.95241" lon="4.71476">
        <ele>173.100006104</ele>
        <time>2015-12-09T15:25:23.508Z</time>
      </trkpt>
      <trkpt lat="45.95234" lon="4.71475">
        <ele>173.100006104</ele>
        <time>2015-12-09T15:25:24.481Z</time>
      </trkpt>
      <trkpt lat="45.95227" lon="4.71475">
        <ele>173.300003052</ele>
        <time>2015-12-09T15:25:25.494Z</time>
      </trkpt>
      <trkpt lat="45.9522" lon="4.71475">
        <ele>173.300003052</ele>
        <time>2015-12-09T15:25:26.48Z</time>
      </trkpt>
      <trkpt lat="45.95213" lon="4.71474">
        <ele>173.199996948</ele>
        <time>2015-12-09T15:25:27.497Z</time>
      </trkpt>
      <trkpt lat="45.95206" lon="4.71473">
        <ele>173.100006104</ele>
        <time>2015-12-09T15:25:28.483Z</time>
      </trkpt>
      <trkpt lat="45.95199" lon="4.71473">
        <ele>173.300003052</ele>
        <time>2015-12-09T15:25:29.494Z</time>
      </trkpt>
      <trkpt lat="45.95192" lon="4.71473">
        <ele>173.5</ele>
        <time>2015-12-09T15:25:30.481Z</time>
      </trkpt>
      <trkpt lat="45.95186" lon="4.71472">
        <ele>173.800003052</ele>
        <time>2015-12-09T15:25:31.493Z</time>
      </trkpt>
      <trkpt lat="45.95179" lon="4.71472">
        <ele>174.199996948</ele>
        <time>2015-12-09T15:25:32.48Z</time>
      </trkpt>
      <trkpt lat="45.95173" lon="4.71471">
        <ele>174.399993896</ele>
        <time>2015-12-09T15:25:33.493Z</time>
      </trkpt>
      <trkpt lat="45.95166" lon="4.71471">
        <ele>174.5</ele>
        <time>2015-12-09T15:25:34.483Z</time>
      </trkpt>
      <trkpt lat="45.9516" lon="4.7147">
        <ele>174.800003052</ele>
        <time>2015-12-09T15:25:35.494Z</time>
      </trkpt>
      <trkpt lat="45.95153" lon="4.71469">
        <ele>174.699996948</ele>
        <time>2015-12-09T15:25:36.481Z</time>
      </trkpt>
      <trkpt lat="45.95146" lon="4.71469">
        <ele>174.5</ele>
        <time>2015-12-09T15:25:37.494Z</time>
      </trkpt>
      <trkpt lat="45.9514" lon="4.71468">
        <ele>174.5</ele>
        <time>2015-12-09T15:25:38.48Z</time>
      </trkpt>
      <trkpt lat="45.95133" lon="4.71468">
        <ele>174.5</ele>
        <time>2015-12-09T15:25:39.509Z</time>
      </trkpt>
      <trkpt lat="45.95126" lon="4.71467">
        <ele>174.5</ele>
        <time>2015-12-09T15:25:40.483Z</time>
      </trkpt>
      <trkpt lat="45.9512" lon="4.71467">
        <ele>174.600006104</ele>
        <time>2015-12-09T15:25:41.495Z</time>
      </trkpt>
      <trkpt lat="45.95114" lon="4.71467">
        <ele>174.600006104</ele>
        <time>2015-12-09T15:25:42.481Z</time>
      </trkpt>
      <trkpt lat="45.95107" lon="4.71467">
        <ele>174.899993896</ele>
        <time>2015-12-09T15:25:43.494Z</time>
      </trkpt>
      <trkpt lat="45.95101" lon="4.71467">
        <ele>175.199996948</ele>
        <time>2015-12-09T15:25:44.48Z</time>
      </trkpt>
      <trkpt lat="45.95095" lon="4.71467">
        <ele>175.600006104</ele>
        <time>2015-12-09T15:25:45.494Z</time>
      </trkpt>
      <trkpt lat="45.95089" lon="4.71467">
        <ele>175.699996948</ele>
        <time>2015-12-09T15:25:46.483Z</time>
      </trkpt>
      <trkpt lat="45.95082" lon="4.71466">
        <ele>176</ele>
        <time>2015-12-09T15:25:47.494Z</time>
      </trkpt>
      <trkpt lat="45.95076" lon="4.71466">
        <ele>175.899993896</ele>
        <time>2015-12-09T15:25:48.481Z</time>
      </trkpt>
      <trkpt lat="45.9507" lon="4.71466">
        <ele>175.800003052</ele>
        <time>2015-12-09T15:25:49.494Z</time>
      </trkpt>
      <trkpt lat="45.95064" lon="4.71466">
        <ele>176.100006104</ele>
        <time>2015-12-09T15:25:50.494Z</time>
      </trkpt>
      <trkpt lat="45.95058" lon="4.71466">
        <ele>176.300003052</ele>
        <time>2015-12-09T15:25:51.494Z</time>
      </trkpt>
      <trkpt lat="45.95053" lon="4.71465">
        <ele>176.600006104</ele>
        <time>2015-12-09T15:25:52.483Z</time>
      </trkpt>
      <trkpt lat="45.95048" lon="4.71464">
        <ele>177.100006104</ele>
        <time>2015-12-09T15:25:53.491Z</time>
      </trkpt>
      <trkpt lat="45.95042" lon="4.71464">
        <ele>177.199996948</ele>
        <time>2015-12-09T15:25:54.481Z</time>
      </trkpt>
      <trkpt lat="45.95037" lon="4.71464">
        <ele>177.199996948</ele>
        <time>2015-12-09T15:25:55.494Z</time>
      </trkpt>
      <trkpt lat="45.95032" lon="4.71464">
        <ele>176.899993896</ele>
        <time>2015-12-09T15:25:56.48Z</time>
      </trkpt>
      <trkpt lat="45.95027" lon="4.71463">
        <ele>177</ele>
        <time>2015-12-09T15:25:57.494Z</time>
      </trkpt>
      <trkpt lat="45.95022" lon="4.71463">
        <ele>176.899993896</ele>
        <time>2015-12-09T15:25:58.483Z</time>
      </trkpt>
      <trkpt lat="45.95018" lon="4.71463">
        <ele>176.699996948</ele>
        <time>2015-12-09T15:25:59.493Z</time>
      </trkpt>
      <trkpt lat="45.95013" lon="4.71462">
        <ele>176.600006104</ele>
        <time>2015-12-09T15:26:00.481Z</time>
      </trkpt>
      <trkpt lat="45.95008" lon="4.71462">
        <ele>176.899993896</ele>
        <time>2015-12-09T15:26:01.508Z</time>
      </trkpt>
      <trkpt lat="45.95004" lon="4.71461">
        <ele>177.800003052</ele>
        <time>2015-12-09T15:26:02.48Z</time>
      </trkpt>
      <trkpt lat="45.94999" lon="4.71459">
        <ele>178.5</ele>
        <time>2015-12-09T15:26:03.494Z</time>
      </trkpt>
      <trkpt lat="45.94994" lon="4.71456">
        <ele>179.199996948</ele>
        <time>2015-12-09T15:26:04.483Z</time>
      </trkpt>
      <trkpt lat="45.94988" lon="4.71447">
        <ele>179.699996948</ele>
        <time>2015-12-09T15:26:06.495Z</time>
      </trkpt>
      <trkpt lat="45.94984" lon="4.71442">
        <ele>179.399993896</ele>
        <time>2015-12-09T15:26:07.481Z</time>
      </trkpt>
      <trkpt lat="45.94981" lon="4.71437">
        <ele>179.699996948</ele>
        <time>2015-12-09T15:26:08.494Z</time>
      </trkpt>
      <trkpt lat="45.94976" lon="4.71433">
        <ele>179.899993896</ele>
        <time>2015-12-09T15:26:09.48Z</time>
      </trkpt>
      <trkpt lat="45.94972" lon="4.7143">
        <ele>180</ele>
        <time>2015-12-09T15:26:10.497Z</time>
      </trkpt>
      <trkpt lat="45.94967" lon="4.7143">
        <ele>180.399993896</ele>
        <time>2015-12-09T15:26:11.482Z</time>
      </trkpt>
      <trkpt lat="45.94962" lon="4.71432">
        <ele>180.199996948</ele>
        <time>2015-12-09T15:26:12.495Z</time>
      </trkpt>
      <trkpt lat="45.94958" lon="4.71435">
        <ele>180.699996948</ele>
        <time>2015-12-09T15:26:13.48Z</time>
      </trkpt>
      <trkpt lat="45.94954" lon="4.7144">
        <ele>181.100006104</ele>
        <time>2015-12-09T15:26:14.493Z</time>
      </trkpt>
      <trkpt lat="45.94949" lon="4.71445">
        <ele>181.5</ele>
        <time>2015-12-09T15:26:15.48Z</time>
      </trkpt>
      <trkpt lat="45.94945" lon="4.71449">
        <ele>181.899993896</ele>
        <time>2015-12-09T15:26:16.497Z</time>
      </trkpt>
      <trkpt lat="45.9494" lon="4.71453">
        <ele>181.899993896</ele>
        <time>2015-12-09T15:26:17.481Z</time>
      </trkpt>
      <trkpt lat="45.94935" lon="4.71455">
        <ele>181.899993896</ele>
        <time>2015-12-09T15:26:18.495Z</time>
      </trkpt>
      <trkpt lat="45.9493" lon="4.71455">
        <ele>181.5</ele>
        <time>2015-12-09T15:26:19.48Z</time>
      </trkpt>
      <trkpt lat="45.94925" lon="4.71456">
        <ele>182</ele>
        <time>2015-12-09T15:26:20.494Z</time>
      </trkpt>
      <trkpt lat="45.94919" lon="4.71456">
        <ele>182.399993896</ele>
        <time>2015-12-09T15:26:21.48Z</time>
      </trkpt>
      <trkpt lat="45.94913" lon="4.71455">
        <ele>182.399993896</ele>
        <time>2015-12-09T15:26:22.514Z</time>
      </trkpt>
      <trkpt lat="45.94908" lon="4.71455">
        <ele>182.399993896</ele>
        <time>2015-12-09T15:26:23.48Z</time>
      </trkpt>
      <trkpt lat="45.94902" lon="4.71454">
        <ele>182.199996948</ele>
        <time>2015-12-09T15:26:24.495Z</time>
      </trkpt>
      <trkpt lat="45.94896" lon="4.71453">
        <ele>182.399993896</ele>
        <time>2015-12-09T15:26:25.48Z</time>
      </trkpt>
      <trkpt lat="45.9489" lon="4.71453">
        <ele>182.399993896</ele>
        <time>2015-12-09T15:26:26.495Z</time>
      </trkpt>
      <trkpt lat="45.94884" lon="4.71453">
        <ele>182.600006104</ele>
        <time>2015-12-09T15:26:27.481Z</time>
      </trkpt>
      <trkpt lat="45.94878" lon="4.71452">
        <ele>182.899993896</ele>
        <time>2015-12-09T15:26:28.497Z</time>
      </trkpt>
      <trkpt lat="45.94873" lon="4.71451">
        <ele>183.199996948</ele>
        <time>2015-12-09T15:26:29.48Z</time>
      </trkpt>
      <trkpt lat="45.94867" lon="4.71451">
        <ele>183.100006104</ele>
        <time>2015-12-09T15:26:30.495Z</time>
      </trkpt>
      <trkpt lat="45.94861" lon="4.7145">
        <ele>183.100006104</ele>
        <time>2015-12-09T15:26:31.48Z</time>
      </trkpt>
      <trkpt lat="45.94854" lon="4.7145">
        <ele>183.300003052</ele>
        <time>2015-12-09T15:26:32.494Z</time>
      </trkpt>
      <trkpt lat="45.94848" lon="4.7145">
        <ele>183.199996948</ele>
        <time>2015-12-09T15:26:33.481Z</time>
      </trkpt>
      <trkpt lat="45.94843" lon="4.71449">
        <ele>183</ele>
        <time>2015-12-09T15:26:34.498Z</time>
      </trkpt>
      <trkpt lat="45.94837" lon="4.71449">
        <ele>183</ele>
        <time>2015-12-09T15:26:35.48Z</time>
      </trkpt>
      <trkpt lat="45.94831" lon="4.71449">
        <ele>183.199996948</ele>
        <time>2015-12-09T15:26:36.495Z</time>
      </trkpt>
      <trkpt lat="45.94825" lon="4.71448">
        <ele>183.199996948</ele>
        <time>2015-12-09T15:26:37.481Z</time>
      </trkpt>
      <trkpt lat="45.9482" lon="4.71448">
        <ele>183.399993896</ele>
        <time>2015-12-09T15:26:38.507Z</time>
      </trkpt>
      <trkpt lat="45.94813" lon="4.71448">
        <ele>183.5</ele>
        <time>2015-12-09T15:26:39.48Z</time>
      </trkpt>
      <trkpt lat="45.94807" lon="4.71447">
        <ele>183.5</ele>
        <time>2015-12-09T15:26:40.497Z</time>
      </trkpt>
      <trkpt lat="45.94801" lon="4.71446">
        <ele>183.600006104</ele>
        <time>2015-12-09T15:26:41.48Z</time>
      </trkpt>
      <trkpt lat="45.94795" lon="4.71445">
        <ele>183.600006104</ele>
        <time>2015-12-09T15:26:42.495Z</time>
      </trkpt>
      <trkpt lat="45.94789" lon="4.71446">
        <ele>183.600006104</ele>
        <time>2015-12-09T15:26:43.619Z</time>
      </trkpt>
      <trkpt lat="45.94782" lon="4.71445">
        <ele>183.600006104</ele>
        <time>2015-12-09T15:26:44.493Z</time>
      </trkpt>
      <trkpt lat="45.94776" lon="4.71445">
        <ele>183.699996948</ele>
        <time>2015-12-09T15:26:45.48Z</time>
      </trkpt>
      <trkpt lat="45.94769" lon="4.71445">
        <ele>183.399993896</ele>
        <time>2015-12-09T15:26:46.497Z</time>
      </trkpt>
      <trkpt lat="45.94763" lon="4.71445">
        <ele>183.199996948</ele>
        <time>2015-12-09T15:26:47.481Z</time>
      </trkpt>
      <trkpt lat="45.94757" lon="4.71445">
        <ele>183</ele>
        <time>2015-12-09T15:26:48.495Z</time>
      </trkpt>
      <trkpt lat="45.9475" lon="4.71444">
        <ele>183.100006104</ele>
        <time>2015-12-09T15:26:49.48Z</time>
      </trkpt>
      <trkpt lat="45.94744" lon="4.71444">
        <ele>183.5</ele>
        <time>2015-12-09T15:26:50.494Z</time>
      </trkpt>
      <trkpt lat="45.94737" lon="4.71443">
        <ele>184.100006104</ele>
        <time>2015-12-09T15:26:51.48Z</time>
      </trkpt>
      <trkpt lat="45.9473" lon="4.71443">
        <ele>184.100006104</ele>
        <time>2015-12-09T15:26:52.497Z</time>
      </trkpt>
      <trkpt lat="45.94723" lon="4.71443">
        <ele>184.5</ele>
        <time>2015-12-09T15:26:53.48Z</time>
      </trkpt>
      <trkpt lat="45.94716" lon="4.71443">
        <ele>184.600006104</ele>
        <time>2015-12-09T15:26:54.508Z</time>
      </trkpt>
      <trkpt lat="45.94709" lon="4.71443">
        <ele>184.699996948</ele>
        <time>2015-12-09T15:26:55.48Z</time>
      </trkpt>
      <trkpt lat="45.94702" lon="4.71442">
        <ele>184.600006104</ele>
        <time>2015-12-09T15:26:56.494Z</time>
      </trkpt>
      <trkpt lat="45.94695" lon="4.71442">
        <ele>184.399993896</ele>
        <time>2015-12-09T15:26:57.48Z</time>
      </trkpt>
      <trkpt lat="45.94689" lon="4.71441">
        <ele>184.300003052</ele>
        <time>2015-12-09T15:26:58.497Z</time>
      </trkpt>
      <trkpt lat="45.94683" lon="4.71441">
        <ele>184.100006104</ele>
        <time>2015-12-09T15:26:59.481Z</time>
      </trkpt>
      <trkpt lat="45.94677" lon="4.7144">
        <ele>184</ele>
        <time>2015-12-09T15:27:00.495Z</time>
      </trkpt>
      <trkpt lat="45.94671" lon="4.7144">
        <ele>183.800003052</ele>
        <time>2015-12-09T15:27:01.48Z</time>
      </trkpt>
      <trkpt lat="45.94665" lon="4.7144">
        <ele>183.699996948</ele>
        <time>2015-12-09T15:27:02.494Z</time>
      </trkpt>
      <trkpt lat="45.94659" lon="4.71439">
        <ele>183.800003052</ele>
        <time>2015-12-09T15:27:03.48Z</time>
      </trkpt>
      <trkpt lat="45.94653" lon="4.71439">
        <ele>183.800003052</ele>
        <time>2015-12-09T15:27:04.497Z</time>
      </trkpt>
      <trkpt lat="45.94647" lon="4.71438">
        <ele>183.5</ele>
        <time>2015-12-09T15:27:05.48Z</time>
      </trkpt>
      <trkpt lat="45.94641" lon="4.71437">
        <ele>183.199996948</ele>
        <time>2015-12-09T15:27:06.496Z</time>
      </trkpt>
      <trkpt lat="45.94635" lon="4.71436">
        <ele>183.399993896</ele>
        <time>2015-12-09T15:27:07.48Z</time>
      </trkpt>
      <trkpt lat="45.94629" lon="4.71435">
        <ele>183.600006104</ele>
        <time>2015-12-09T15:27:08.494Z</time>
      </trkpt>
      <trkpt lat="45.94622" lon="4.71434">
        <ele>183.699996948</ele>
        <time>2015-12-09T15:27:09.48Z</time>
      </trkpt>
      <trkpt lat="45.94615" lon="4.71434">
        <ele>183.899993896</ele>
        <time>2015-12-09T15:27:10.512Z</time>
      </trkpt>
      <trkpt lat="45.94608" lon="4.71434">
        <ele>184.300003052</ele>
        <time>2015-12-09T15:27:11.482Z</time>
      </trkpt>
      <trkpt lat="45.94602" lon="4.71433">
        <ele>184.600006104</ele>
        <time>2015-12-09T15:27:12.495Z</time>
      </trkpt>
      <trkpt lat="45.94596" lon="4.71433">
        <ele>184.800003052</ele>
        <time>2015-12-09T15:27:13.48Z</time>
      </trkpt>
      <trkpt lat="45.94589" lon="4.71432">
        <ele>185</ele>
        <time>2015-12-09T15:27:14.493Z</time>
      </trkpt>
      <trkpt lat="45.94583" lon="4.71432">
        <ele>185.100006104</ele>
        <time>2015-12-09T15:27:15.48Z</time>
      </trkpt>
      <trkpt lat="45.94576" lon="4.71433">
        <ele>185.100006104</ele>
        <time>2015-12-09T15:27:16.497Z</time>
      </trkpt>
      <trkpt lat="45.94569" lon="4.71434">
        <ele>185.300003052</ele>
        <time>2015-12-09T15:27:17.48Z</time>
      </trkpt>
      <trkpt lat="45.94563" lon="4.71435">
        <ele>185.300003052</ele>
        <time>2015-12-09T15:27:18.502Z</time>
      </trkpt>
      <trkpt lat="45.94556" lon="4.71437">
        <ele>185.100006104</ele>
        <time>2015-12-09T15:27:19.48Z</time>
      </trkpt>
      <trkpt lat="45.94548" lon="4.71439">
        <ele>185.100006104</ele>
        <time>2015-12-09T15:27:20.494Z</time>
      </trkpt>
      <trkpt lat="45.94541" lon="4.71441">
        <ele>185.100006104</ele>
        <time>2015-12-09T15:27:21.48Z</time>
      </trkpt>
      <trkpt lat="45.94534" lon="4.71443">
        <ele>185</ele>
        <time>2015-12-09T15:27:22.497Z</time>
      </trkpt>
      <trkpt lat="45.94527" lon="4.71446">
        <ele>184.699996948</ele>
        <time>2015-12-09T15:27:23.48Z</time>
      </trkpt>
      <trkpt lat="45.9452" lon="4.71449">
        <ele>184.699996948</ele>
        <time>2015-12-09T15:27:24.495Z</time>
      </trkpt>
      <trkpt lat="45.94512" lon="4.71452">
        <ele>184.5</ele>
        <time>2015-12-09T15:27:25.481Z</time>
      </trkpt>
      <trkpt lat="45.94505" lon="4.71455">
        <ele>184</ele>
        <time>2015-12-09T15:27:26.508Z</time>
      </trkpt>
      <trkpt lat="45.94497" lon="4.71458">
        <ele>183.899993896</ele>
        <time>2015-12-09T15:27:27.48Z</time>
      </trkpt>
      <trkpt lat="45.94489" lon="4.71461">
        <ele>183.800003052</ele>
        <time>2015-12-09T15:27:28.497Z</time>
      </trkpt>
      <trkpt lat="45.94482" lon="4.71465">
        <ele>183.800003052</ele>
        <time>2015-12-09T15:27:29.48Z</time>
      </trkpt>
      <trkpt lat="45.94474" lon="4.71468">
        <ele>183.600006104</ele>
        <time>2015-12-09T15:27:30.495Z</time>
      </trkpt>
      <trkpt lat="45.94466" lon="4.71471">
        <ele>183.600006104</ele>
        <time>2015-12-09T15:27:31.48Z</time>
      </trkpt>
      <trkpt lat="45.94458" lon="4.71474">
        <ele>183.5</ele>
        <time>2015-12-09T15:27:32.494Z</time>
      </trkpt>
      <trkpt lat="45.9445" lon="4.71476">
        <ele>183.600006104</ele>
        <time>2015-12-09T15:27:33.479Z</time>
      </trkpt>
      <trkpt lat="45.94442" lon="4.7148">
        <ele>183.399993896</ele>
        <time>2015-12-09T15:27:34.496Z</time>
      </trkpt>
      <trkpt lat="45.94435" lon="4.71484">
        <ele>183.300003052</ele>
        <time>2015-12-09T15:27:35.479Z</time>
      </trkpt>
      <trkpt lat="45.94427" lon="4.71487">
        <ele>183.300003052</ele>
        <time>2015-12-09T15:27:36.495Z</time>
      </trkpt>
      <trkpt lat="45.94419" lon="4.7149">
        <ele>183.199996948</ele>
        <time>2015-12-09T15:27:37.481Z</time>
      </trkpt>
      <trkpt lat="45.94411" lon="4.71493">
        <ele>183.199996948</ele>
        <time>2015-12-09T15:27:38.493Z</time>
      </trkpt>
      <trkpt lat="45.94403" lon="4.71496">
        <ele>182.899993896</ele>
        <time>2015-12-09T15:27:39.48Z</time>
      </trkpt>
      <trkpt lat="45.94395" lon="4.715">
        <ele>182.800003052</ele>
        <time>2015-12-09T15:27:40.497Z</time>
      </trkpt>
      <trkpt lat="45.94388" lon="4.71503">
        <ele>183</ele>
        <time>2015-12-09T15:27:41.479Z</time>
      </trkpt>
      <trkpt lat="45.9438" lon="4.71506">
        <ele>182.899993896</ele>
        <time>2015-12-09T15:27:42.509Z</time>
      </trkpt>
      <trkpt lat="45.94372" lon="4.71509">
        <ele>183</ele>
        <time>2015-12-09T15:27:43.479Z</time>
      </trkpt>
      <trkpt lat="45.94364" lon="4.71512">
        <ele>182.5</ele>
        <time>2015-12-09T15:27:44.493Z</time>
      </trkpt>
      <trkpt lat="45.94355" lon="4.71515">
        <ele>182.399993896</ele>
        <time>2015-12-09T15:27:45.48Z</time>
      </trkpt>
      <trkpt lat="45.94347" lon="4.71518">
        <ele>182.5</ele>
        <time>2015-12-09T15:27:46.496Z</time>
      </trkpt>
      <trkpt lat="45.94338" lon="4.71521">
        <ele>182.699996948</ele>
        <time>2015-12-09T15:27:47.48Z</time>
      </trkpt>
      <trkpt lat="45.9433" lon="4.71523">
        <ele>182.699996948</ele>
        <time>2015-12-09T15:27:48.503Z</time>
      </trkpt>
      <trkpt lat="45.94321" lon="4.71526">
        <ele>182.699996948</ele>
        <time>2015-12-09T15:27:49.479Z</time>
      </trkpt>
      <trkpt lat="45.94313" lon="4.71529">
        <ele>183</ele>
        <time>2015-12-09T15:27:50.495Z</time>
      </trkpt>
      <trkpt lat="45.94305" lon="4.71531">
        <ele>183</ele>
        <time>2015-12-09T15:27:51.482Z</time>
      </trkpt>
      <trkpt lat="45.94297" lon="4.71534">
        <ele>182.800003052</ele>
        <time>2015-12-09T15:27:52.498Z</time>
      </trkpt>
      <trkpt lat="45.9429" lon="4.71538">
        <ele>182.800003052</ele>
        <time>2015-12-09T15:27:53.481Z</time>
      </trkpt>
      <trkpt lat="45.94282" lon="4.71541">
        <ele>182.699996948</ele>
        <time>2015-12-09T15:27:54.496Z</time>
      </trkpt>
      <trkpt lat="45.94274" lon="4.71544">
        <ele>182.600006104</ele>
        <time>2015-12-09T15:27:55.479Z</time>
      </trkpt>
      <trkpt lat="45.94267" lon="4.71547">
        <ele>182.399993896</ele>
        <time>2015-12-09T15:27:56.529Z</time>
      </trkpt>
      <trkpt lat="45.94259" lon="4.7155">
        <ele>182.199996948</ele>
        <time>2015-12-09T15:27:57.48Z</time>
      </trkpt>
      <trkpt lat="45.94252" lon="4.71553">
        <ele>182.199996948</ele>
        <time>2015-12-09T15:27:58.511Z</time>
      </trkpt>
      <trkpt lat="45.94245" lon="4.71555">
        <ele>182.100006104</ele>
        <time>2015-12-09T15:27:59.493Z</time>
      </trkpt>
      <trkpt lat="45.94238" lon="4.71558">
        <ele>182.199996948</ele>
        <time>2015-12-09T15:28:00.495Z</time>
      </trkpt>
      <trkpt lat="45.94231" lon="4.71561">
        <ele>182.100006104</ele>
        <time>2015-12-09T15:28:01.479Z</time>
      </trkpt>
      <trkpt lat="45.94224" lon="4.71564">
        <ele>182.300003052</ele>
        <time>2015-12-09T15:28:02.493Z</time>
      </trkpt>
      <trkpt lat="45.94218" lon="4.71567">
        <ele>182.100006104</ele>
        <time>2015-12-09T15:28:03.479Z</time>
      </trkpt>
      <trkpt lat="45.94211" lon="4.71569">
        <ele>182.199996948</ele>
        <time>2015-12-09T15:28:04.496Z</time>
      </trkpt>
      <trkpt lat="45.94205" lon="4.71572">
        <ele>182.399993896</ele>
        <time>2015-12-09T15:28:05.479Z</time>
      </trkpt>
      <trkpt lat="45.94198" lon="4.71575">
        <ele>182.600006104</ele>
        <time>2015-12-09T15:28:06.494Z</time>
      </trkpt>
      <trkpt lat="45.94192" lon="4.71578">
        <ele>182.5</ele>
        <time>2015-12-09T15:28:07.48Z</time>
      </trkpt>
      <trkpt lat="45.94186" lon="4.71581">
        <ele>182.600006104</ele>
        <time>2015-12-09T15:28:08.493Z</time>
      </trkpt>
      <trkpt lat="45.94179" lon="4.71584">
        <ele>182.199996948</ele>
        <time>2015-12-09T15:28:09.479Z</time>
      </trkpt>
      <trkpt lat="45.94172" lon="4.71587">
        <ele>182.100006104</ele>
        <time>2015-12-09T15:28:10.529Z</time>
      </trkpt>
      <trkpt lat="45.94166" lon="4.7159">
        <ele>181.899993896</ele>
        <time>2015-12-09T15:28:11.482Z</time>
      </trkpt>
      <trkpt lat="45.94159" lon="4.71592">
        <ele>181.600006104</ele>
        <time>2015-12-09T15:28:12.494Z</time>
      </trkpt>
      <trkpt lat="45.94152" lon="4.71594">
        <ele>181.300003052</ele>
        <time>2015-12-09T15:28:13.479Z</time>
      </trkpt>
      <trkpt lat="45.94145" lon="4.71597">
        <ele>180.800003052</ele>
        <time>2015-12-09T15:28:14.508Z</time>
      </trkpt>
      <trkpt lat="45.94138" lon="4.716">
        <ele>180.5</ele>
        <time>2015-12-09T15:28:15.479Z</time>
      </trkpt>
      <trkpt lat="45.94132" lon="4.71603">
        <ele>180.199996948</ele>
        <time>2015-12-09T15:28:16.496Z</time>
      </trkpt>
      <trkpt lat="45.94125" lon="4.71606">
        <ele>180.100006104</ele>
        <time>2015-12-09T15:28:17.481Z</time>
      </trkpt>
      <trkpt lat="45.94119" lon="4.71608">
        <ele>180.199996948</ele>
        <time>2015-12-09T15:28:18.495Z</time>
      </trkpt>
      <trkpt lat="45.94112" lon="4.7161">
        <ele>180.300003052</ele>
        <time>2015-12-09T15:28:19.479Z</time>
      </trkpt>
      <trkpt lat="45.94105" lon="4.71613">
        <ele>180.600006104</ele>
        <time>2015-12-09T15:28:20.494Z</time>
      </trkpt>
      <trkpt lat="45.94099" lon="4.71615">
        <ele>180.800003052</ele>
        <time>2015-12-09T15:28:21.479Z</time>
      </trkpt>
      <trkpt lat="45.94092" lon="4.71618">
        <ele>180.699996948</ele>
        <time>2015-12-09T15:28:22.496Z</time>
      </trkpt>
      <trkpt lat="45.94085" lon="4.7162">
        <ele>180.800003052</ele>
        <time>2015-12-09T15:28:23.479Z</time>
      </trkpt>
      <trkpt lat="45.94078" lon="4.71624">
        <ele>180.5</ele>
        <time>2015-12-09T15:28:24.495Z</time>
      </trkpt>
      <trkpt lat="45.94072" lon="4.71627">
        <ele>180.100006104</ele>
        <time>2015-12-09T15:28:25.479Z</time>
      </trkpt>
      <trkpt lat="45.94065" lon="4.7163">
        <ele>179.699996948</ele>
        <time>2015-12-09T15:28:26.493Z</time>
      </trkpt>
      <trkpt lat="45.9406" lon="4.71633">
        <ele>179.399993896</ele>
        <time>2015-12-09T15:28:27.48Z</time>
      </trkpt>
      <trkpt lat="45.94053" lon="4.71635">
        <ele>179.5</ele>
        <time>2015-12-09T15:28:28.496Z</time>
      </trkpt>
      <trkpt lat="45.94048" lon="4.71638">
        <ele>179.399993896</ele>
        <time>2015-12-09T15:28:29.479Z</time>
      </trkpt>
      <trkpt lat="45.94042" lon="4.7164">
        <ele>179</ele>
        <time>2015-12-09T15:28:30.509Z</time>
      </trkpt>
      <trkpt lat="45.94037" lon="4.71642">
        <ele>179.100006104</ele>
        <time>2015-12-09T15:28:31.479Z</time>
      </trkpt>
      <trkpt lat="45.94031" lon="4.71644">
        <ele>179</ele>
        <time>2015-12-09T15:28:32.493Z</time>
      </trkpt>
      <trkpt lat="45.94027" lon="4.71646">
        <ele>178.800003052</ele>
        <time>2015-12-09T15:28:33.479Z</time>
      </trkpt>
      <trkpt lat="45.94022" lon="4.71648">
        <ele>178.899993896</ele>
        <time>2015-12-09T15:28:34.496Z</time>
      </trkpt>
      <trkpt lat="45.94018" lon="4.7165">
        <ele>179.100006104</ele>
        <time>2015-12-09T15:28:35.48Z</time>
      </trkpt>
      <trkpt lat="45.94013" lon="4.71653">
        <ele>179.300003052</ele>
        <time>2015-12-09T15:28:36.495Z</time>
      </trkpt>
      <trkpt lat="45.94007" lon="4.71655">
        <ele>179.100006104</ele>
        <time>2015-12-09T15:28:37.481Z</time>
      </trkpt>
      <trkpt lat="45.94003" lon="4.71657">
        <ele>179.100006104</ele>
        <time>2015-12-09T15:28:38.494Z</time>
      </trkpt>
      <trkpt lat="45.93996" lon="4.71658">
        <ele>179.199996948</ele>
        <time>2015-12-09T15:28:39.48Z</time>
      </trkpt>
      <trkpt lat="45.93991" lon="4.7166">
        <ele>179.199996948</ele>
        <time>2015-12-09T15:28:40.496Z</time>
      </trkpt>
      <trkpt lat="45.93984" lon="4.7166">
        <ele>178.800003052</ele>
        <time>2015-12-09T15:28:41.48Z</time>
      </trkpt>
      <trkpt lat="45.93977" lon="4.71662">
        <ele>178.399993896</ele>
        <time>2015-12-09T15:28:42.494Z</time>
      </trkpt>
      <trkpt lat="45.93972" lon="4.71663">
        <ele>178.399993896</ele>
        <time>2015-12-09T15:28:43.48Z</time>
      </trkpt>
      <trkpt lat="45.93966" lon="4.71665">
        <ele>178.399993896</ele>
        <time>2015-12-09T15:28:44.494Z</time>
      </trkpt>
      <trkpt lat="45.9396" lon="4.71667">
        <ele>178</ele>
        <time>2015-12-09T15:28:45.48Z</time>
      </trkpt>
      <trkpt lat="45.93954" lon="4.71669">
        <ele>178</ele>
        <time>2015-12-09T15:28:46.51Z</time>
      </trkpt>
      <trkpt lat="45.93948" lon="4.71671">
        <ele>177.699996948</ele>
        <time>2015-12-09T15:28:47.48Z</time>
      </trkpt>
      <trkpt lat="45.93942" lon="4.71673">
        <ele>177.600006104</ele>
        <time>2015-12-09T15:28:48.494Z</time>
      </trkpt>
      <trkpt lat="45.93936" lon="4.71676">
        <ele>177.5</ele>
        <time>2015-12-09T15:28:49.48Z</time>
      </trkpt>
      <trkpt lat="45.9393" lon="4.71679">
        <ele>177.300003052</ele>
        <time>2015-12-09T15:28:50.494Z</time>
      </trkpt>
      <trkpt lat="45.93924" lon="4.71681">
        <ele>177.199996948</ele>
        <time>2015-12-09T15:28:51.479Z</time>
      </trkpt>
      <trkpt lat="45.93918" lon="4.71684">
        <ele>177</ele>
        <time>2015-12-09T15:28:52.497Z</time>
      </trkpt>
      <trkpt lat="45.93912" lon="4.71687">
        <ele>176.800003052</ele>
        <time>2015-12-09T15:28:53.479Z</time>
      </trkpt>
      <trkpt lat="45.93905" lon="4.71689">
        <ele>176.600006104</ele>
        <time>2015-12-09T15:28:54.494Z</time>
      </trkpt>
      <trkpt lat="45.93899" lon="4.71692">
        <ele>176.399993896</ele>
        <time>2015-12-09T15:28:55.479Z</time>
      </trkpt>
      <trkpt lat="45.93893" lon="4.71694">
        <ele>176.399993896</ele>
        <time>2015-12-09T15:28:56.493Z</time>
      </trkpt>
      <trkpt lat="45.93886" lon="4.71697">
        <ele>176.300003052</ele>
        <time>2015-12-09T15:28:57.48Z</time>
      </trkpt>
      <trkpt lat="45.9388" lon="4.717">
        <ele>176.199996948</ele>
        <time>2015-12-09T15:28:58.496Z</time>
      </trkpt>
      <trkpt lat="45.93873" lon="4.71702">
        <ele>176.399993896</ele>
        <time>2015-12-09T15:28:59.479Z</time>
      </trkpt>
      <trkpt lat="45.93867" lon="4.71704">
        <ele>176.800003052</ele>
        <time>2015-12-09T15:29:00.494Z</time>
      </trkpt>
      <trkpt lat="45.93862" lon="4.71707">
        <ele>177.100006104</ele>
        <time>2015-12-09T15:29:01.479Z</time>
      </trkpt>
      <trkpt lat="45.93856" lon="4.71709">
        <ele>177</ele>
        <time>2015-12-09T15:29:02.507Z</time>
      </trkpt>
      <trkpt lat="45.9385" lon="4.71711">
        <ele>177</ele>
        <time>2015-12-09T15:29:03.479Z</time>
      </trkpt>
      <trkpt lat="45.93844" lon="4.71713">
        <ele>177.100006104</ele>
        <time>2015-12-09T15:29:04.496Z</time>
      </trkpt>
      <trkpt lat="45.93838" lon="4.71715">
        <ele>177</ele>
        <time>2015-12-09T15:29:05.479Z</time>
      </trkpt>
      <trkpt lat="45.93832" lon="4.71718">
        <ele>176.800003052</ele>
        <time>2015-12-09T15:29:06.494Z</time>
      </trkpt>
      <trkpt lat="45.93826" lon="4.71721">
        <ele>176.600006104</ele>
        <time>2015-12-09T15:29:07.481Z</time>
      </trkpt>
      <trkpt lat="45.9382" lon="4.71723">
        <ele>176.600006104</ele>
        <time>2015-12-09T15:29:08.493Z</time>
      </trkpt>
      <trkpt lat="45.93813" lon="4.71726">
        <ele>176.399993896</ele>
        <time>2015-12-09T15:29:09.481Z</time>
      </trkpt>
      <trkpt lat="45.93807" lon="4.71728">
        <ele>176.300003052</ele>
        <time>2015-12-09T15:29:10.496Z</time>
      </trkpt>
      <trkpt lat="45.938" lon="4.7173">
        <ele>176.300003052</ele>
        <time>2015-12-09T15:29:11.481Z</time>
      </trkpt>
      <trkpt lat="45.93793" lon="4.71733">
        <ele>176.300003052</ele>
        <time>2015-12-09T15:29:12.494Z</time>
      </trkpt>
      <trkpt lat="45.93787" lon="4.71735">
        <ele>176.5</ele>
        <time>2015-12-09T15:29:13.479Z</time>
      </trkpt>
      <trkpt lat="45.93781" lon="4.71737">
        <ele>176.5</ele>
        <time>2015-12-09T15:29:14.493Z</time>
      </trkpt>
      <trkpt lat="45.93775" lon="4.71739">
        <ele>176.800003052</ele>
        <time>2015-12-09T15:29:15.48Z</time>
      </trkpt>
      <trkpt lat="45.93769" lon="4.7174">
        <ele>176.899993896</ele>
        <time>2015-12-09T15:29:16.496Z</time>
      </trkpt>
      <trkpt lat="45.93763" lon="4.71742">
        <ele>177</ele>
        <time>2015-12-09T15:29:17.48Z</time>
      </trkpt>
      <trkpt lat="45.93758" lon="4.71744">
        <ele>177.199996948</ele>
        <time>2015-12-09T15:29:18.508Z</time>
      </trkpt>
      <trkpt lat="45.93752" lon="4.71746">
        <ele>177.300003052</ele>
        <time>2015-12-09T15:29:19.479Z</time>
      </trkpt>
      <trkpt lat="45.93747" lon="4.71749">
        <ele>177.5</ele>
        <time>2015-12-09T15:29:20.494Z</time>
      </trkpt>
      <trkpt lat="45.93741" lon="4.71751">
        <ele>177.699996948</ele>
        <time>2015-12-09T15:29:21.479Z</time>
      </trkpt>
      <trkpt lat="45.93736" lon="4.71753">
        <ele>177.800003052</ele>
        <time>2015-12-09T15:29:22.496Z</time>
      </trkpt>
      <trkpt lat="45.93731" lon="4.71756">
        <ele>177.899993896</ele>
        <time>2015-12-09T15:29:23.479Z</time>
      </trkpt>
      <trkpt lat="45.93727" lon="4.71759">
        <ele>177.800003052</ele>
        <time>2015-12-09T15:29:24.494Z</time>
      </trkpt>
      <trkpt lat="45.93723" lon="4.71764">
        <ele>178.399993896</ele>
        <time>2015-12-09T15:29:25.479Z</time>
      </trkpt>
      <trkpt lat="45.93719" lon="4.71769">
        <ele>178.699996948</ele>
        <time>2015-12-09T15:29:26.493Z</time>
      </trkpt>
      <trkpt lat="45.93715" lon="4.71776">
        <ele>179</ele>
        <time>2015-12-09T15:29:27.48Z</time>
      </trkpt>
      <trkpt lat="45.93713" lon="4.71783">
        <ele>179.399993896</ele>
        <time>2015-12-09T15:29:28.496Z</time>
      </trkpt>
      <trkpt lat="45.9371" lon="4.71791">
        <ele>179.899993896</ele>
        <time>2015-12-09T15:29:29.479Z</time>
      </trkpt>
      <trkpt lat="45.93708" lon="4.71799">
        <ele>180</ele>
        <time>2015-12-09T15:29:30.494Z</time>
      </trkpt>
      <trkpt lat="45.93706" lon="4.71807">
        <ele>180.399993896</ele>
        <time>2015-12-09T15:29:31.479Z</time>
      </trkpt>
      <trkpt lat="45.93704" lon="4.71816">
        <ele>180.699996948</ele>
        <time>2015-12-09T15:29:32.493Z</time>
      </trkpt>
      <trkpt lat="45.93701" lon="4.71824">
        <ele>180.800003052</ele>
        <time>2015-12-09T15:29:33.479Z</time>
      </trkpt>
      <trkpt lat="45.93698" lon="4.71832">
        <ele>181.100006104</ele>
        <time>2015-12-09T15:29:34.511Z</time>
      </trkpt>
      <trkpt lat="45.93695" lon="4.7184">
        <ele>181.300003052</ele>
        <time>2015-12-09T15:29:35.48Z</time>
      </trkpt>
      <trkpt lat="45.93692" lon="4.71848">
        <ele>181.600006104</ele>
        <time>2015-12-09T15:29:36.494Z</time>
      </trkpt>
      <trkpt lat="45.93689" lon="4.71855">
        <ele>181.800003052</ele>
        <time>2015-12-09T15:29:37.48Z</time>
      </trkpt>
      <trkpt lat="45.93686" lon="4.71862">
        <ele>182</ele>
        <time>2015-12-09T15:29:38.493Z</time>
      </trkpt>
      <trkpt lat="45.93684" lon="4.71869">
        <ele>182.300003052</ele>
        <time>2015-12-09T15:29:39.623Z</time>
      </trkpt>
      <trkpt lat="45.93681" lon="4.71876">
        <ele>182.600006104</ele>
        <time>2015-12-09T15:29:40.496Z</time>
      </trkpt>
      <trkpt lat="45.93679" lon="4.71883">
        <ele>182.899993896</ele>
        <time>2015-12-09T15:29:41.479Z</time>
      </trkpt>
      <trkpt lat="45.93676" lon="4.71889">
        <ele>183.199996948</ele>
        <time>2015-12-09T15:29:42.493Z</time>
      </trkpt>
      <trkpt lat="45.93674" lon="4.71895">
        <ele>183.5</ele>
        <time>2015-12-09T15:29:43.479Z</time>
      </trkpt>
      <trkpt lat="45.93672" lon="4.71901">
        <ele>183.800003052</ele>
        <time>2015-12-09T15:29:44.493Z</time>
      </trkpt>
      <trkpt lat="45.93669" lon="4.71907">
        <ele>184.199996948</ele>
        <time>2015-12-09T15:29:45.479Z</time>
      </trkpt>
      <trkpt lat="45.93667" lon="4.71913">
        <ele>184.600006104</ele>
        <time>2015-12-09T15:29:46.53Z</time>
      </trkpt>
      <trkpt lat="45.93665" lon="4.71918">
        <ele>185.100006104</ele>
        <time>2015-12-09T15:29:47.48Z</time>
      </trkpt>
      <trkpt lat="45.93664" lon="4.71925">
        <ele>185.800003052</ele>
        <time>2015-12-09T15:29:48.494Z</time>
      </trkpt>
      <trkpt lat="45.93662" lon="4.71931">
        <ele>186.100006104</ele>
        <time>2015-12-09T15:29:49.479Z</time>
      </trkpt>
      <trkpt lat="45.93659" lon="4.71937">
        <ele>186.399993896</ele>
        <time>2015-12-09T15:29:50.507Z</time>
      </trkpt>
      <trkpt lat="45.93656" lon="4.71944">
        <ele>186.699996948</ele>
        <time>2015-12-09T15:29:51.479Z</time>
      </trkpt>
      <trkpt lat="45.93654" lon="4.7195">
        <ele>187</ele>
        <time>2015-12-09T15:29:52.496Z</time>
      </trkpt>
      <trkpt lat="45.93651" lon="4.71957">
        <ele>187.300003052</ele>
        <time>2015-12-09T15:29:53.479Z</time>
      </trkpt>
      <trkpt lat="45.93648" lon="4.71964">
        <ele>187.600006104</ele>
        <time>2015-12-09T15:29:54.494Z</time>
      </trkpt>
      <trkpt lat="45.93645" lon="4.71971">
        <ele>188.899993896</ele>
        <time>2015-12-09T15:29:55.479Z</time>
      </trkpt>
      <trkpt lat="45.93642" lon="4.71979">
        <ele>189.300003052</ele>
        <time>2015-12-09T15:29:56.493Z</time>
      </trkpt>
      <trkpt lat="45.93639" lon="4.71987">
        <ele>189.600006104</ele>
        <time>2015-12-09T15:29:57.48Z</time>
      </trkpt>
      <trkpt lat="45.93636" lon="4.71995">
        <ele>189.899993896</ele>
        <time>2015-12-09T15:29:58.529Z</time>
      </trkpt>
      <trkpt lat="45.93632" lon="4.72003">
        <ele>190.300003052</ele>
        <time>2015-12-09T15:29:59.479Z</time>
      </trkpt>
      <trkpt lat="45.9363" lon="4.72012">
        <ele>190.699996948</ele>
        <time>2015-12-09T15:30:00.494Z</time>
      </trkpt>
      <trkpt lat="45.93627" lon="4.72021">
        <ele>191</ele>
        <time>2015-12-09T15:30:01.495Z</time>
      </trkpt>
      <trkpt lat="45.93624" lon="4.72029">
        <ele>191.399993896</ele>
        <time>2015-12-09T15:30:02.493Z</time>
      </trkpt>
      <trkpt lat="45.93621" lon="4.72038">
        <ele>191.699996948</ele>
        <time>2015-12-09T15:30:03.479Z</time>
      </trkpt>
      <trkpt lat="45.93617" lon="4.72046">
        <ele>192</ele>
        <time>2015-12-09T15:30:04.495Z</time>
      </trkpt>
      <trkpt lat="45.93614" lon="4.72054">
        <ele>192.300003052</ele>
        <time>2015-12-09T15:30:05.479Z</time>
      </trkpt>
      <trkpt lat="45.93611" lon="4.72062">
        <ele>192.5</ele>
        <time>2015-12-09T15:30:06.495Z</time>
      </trkpt>
      <trkpt lat="45.93607" lon="4.7207">
        <ele>192.800003052</ele>
        <time>2015-12-09T15:30:07.48Z</time>
      </trkpt>
      <trkpt lat="45.93604" lon="4.72078">
        <ele>193.100006104</ele>
        <time>2015-12-09T15:30:08.493Z</time>
      </trkpt>
      <trkpt lat="45.93601" lon="4.72086">
        <ele>193.399993896</ele>
        <time>2015-12-09T15:30:09.479Z</time>
      </trkpt>
      <trkpt lat="45.93598" lon="4.72093">
        <ele>193.699996948</ele>
        <time>2015-12-09T15:30:10.495Z</time>
      </trkpt>
      <trkpt lat="45.93595" lon="4.72101">
        <ele>194.100006104</ele>
        <time>2015-12-09T15:30:11.481Z</time>
      </trkpt>
      <trkpt lat="45.93592" lon="4.72108">
        <ele>194.399993896</ele>
        <time>2015-12-09T15:30:12.509Z</time>
      </trkpt>
      <trkpt lat="45.93589" lon="4.72114">
        <ele>194.899993896</ele>
        <time>2015-12-09T15:30:13.479Z</time>
      </trkpt>
      <trkpt lat="45.93587" lon="4.72121">
        <ele>195.300003052</ele>
        <time>2015-12-09T15:30:14.493Z</time>
      </trkpt>
      <trkpt lat="45.93584" lon="4.72129">
        <ele>195.600006104</ele>
        <time>2015-12-09T15:30:15.479Z</time>
      </trkpt>
      <trkpt lat="45.93582" lon="4.72136">
        <ele>195.899993896</ele>
        <time>2015-12-09T15:30:16.496Z</time>
      </trkpt>
      <trkpt lat="45.9358" lon="4.72143">
        <ele>196.300003052</ele>
        <time>2015-12-09T15:30:17.48Z</time>
      </trkpt>
      <trkpt lat="45.93577" lon="4.72151">
        <ele>196.300003052</ele>
        <time>2015-12-09T15:30:18.494Z</time>
      </trkpt>
      <trkpt lat="45.93574" lon="4.72158">
        <ele>196.5</ele>
        <time>2015-12-09T15:30:19.479Z</time>
      </trkpt>
      <trkpt lat="45.93571" lon="4.72166">
        <ele>196.600006104</ele>
        <time>2015-12-09T15:30:20.493Z</time>
      </trkpt>
      <trkpt lat="45.93568" lon="4.72174">
        <ele>196.800003052</ele>
        <time>2015-12-09T15:30:21.479Z</time>
      </trkpt>
      <trkpt lat="45.93565" lon="4.72182">
        <ele>196.800003052</ele>
        <time>2015-12-09T15:30:22.496Z</time>
      </trkpt>
      <trkpt lat="45.93562" lon="4.7219">
        <ele>196.899993896</ele>
        <time>2015-12-09T15:30:23.479Z</time>
      </trkpt>
      <trkpt lat="45.93558" lon="4.72198">
        <ele>196.899993896</ele>
        <time>2015-12-09T15:30:24.493Z</time>
      </trkpt>
      <trkpt lat="45.93555" lon="4.72207">
        <ele>196.300003052</ele>
        <time>2015-12-09T15:30:25.479Z</time>
      </trkpt>
      <trkpt lat="45.93552" lon="4.72214">
        <ele>196.699996948</ele>
        <time>2015-12-09T15:30:26.493Z</time>
      </trkpt>
      <trkpt lat="45.93549" lon="4.72221">
        <ele>196.699996948</ele>
        <time>2015-12-09T15:30:27.481Z</time>
      </trkpt>
      <trkpt lat="45.93546" lon="4.72228">
        <ele>196.5</ele>
        <time>2015-12-09T15:30:28.511Z</time>
      </trkpt>
      <trkpt lat="45.93542" lon="4.72235">
        <ele>196.199996948</ele>
        <time>2015-12-09T15:30:29.479Z</time>
      </trkpt>
      <trkpt lat="45.93539" lon="4.72242">
        <ele>196</ele>
        <time>2015-12-09T15:30:30.494Z</time>
      </trkpt>
      <trkpt lat="45.93537" lon="4.72249">
        <ele>195.899993896</ele>
        <time>2015-12-09T15:30:31.479Z</time>
      </trkpt>
      <trkpt lat="45.93533" lon="4.72257">
        <ele>195.800003052</ele>
        <time>2015-12-09T15:30:32.493Z</time>
      </trkpt>
      <trkpt lat="45.9353" lon="4.72264">
        <ele>195.600006104</ele>
        <time>2015-12-09T15:30:33.479Z</time>
      </trkpt>
      <trkpt lat="45.93527" lon="4.72272">
        <ele>195.300003052</ele>
        <time>2015-12-09T15:30:34.496Z</time>
      </trkpt>
      <trkpt lat="45.93524" lon="4.7228">
        <ele>195</ele>
        <time>2015-12-09T15:30:35.479Z</time>
      </trkpt>
      <trkpt lat="45.9352" lon="4.72288">
        <ele>194.699996948</ele>
        <time>2015-12-09T15:30:36.494Z</time>
      </trkpt>
      <trkpt lat="45.93516" lon="4.72295">
        <ele>194.699996948</ele>
        <time>2015-12-09T15:30:37.48Z</time>
      </trkpt>
      <trkpt lat="45.93511" lon="4.72302">
        <ele>194.600006104</ele>
        <time>2015-12-09T15:30:38.492Z</time>
      </trkpt>
      <trkpt lat="45.93506" lon="4.7231">
        <ele>193.600006104</ele>
        <time>2015-12-09T15:30:39.479Z</time>
      </trkpt>
      <trkpt lat="45.93501" lon="4.72317">
        <ele>193.300003052</ele>
        <time>2015-12-09T15:30:40.496Z</time>
      </trkpt>
      <trkpt lat="45.93496" lon="4.72325">
        <ele>192.300003052</ele>
        <time>2015-12-09T15:30:41.479Z</time>
      </trkpt>
      <trkpt lat="45.93491" lon="4.72332">
        <ele>192.100006104</ele>
        <time>2015-12-09T15:30:42.53Z</time>
      </trkpt>
      <trkpt lat="45.93487" lon="4.7234">
        <ele>191.600006104</ele>
        <time>2015-12-09T15:30:43.479Z</time>
      </trkpt>
      <trkpt lat="45.93481" lon="4.72346">
        <ele>191.300003052</ele>
        <time>2015-12-09T15:30:44.506Z</time>
      </trkpt>
      <trkpt lat="45.93476" lon="4.72353">
        <ele>191.199996948</ele>
        <time>2015-12-09T15:30:45.479Z</time>
      </trkpt>
      <trkpt lat="45.93471" lon="4.7236">
        <ele>190.399993896</ele>
        <time>2015-12-09T15:30:46.496Z</time>
      </trkpt>
      <trkpt lat="45.93466" lon="4.72367">
        <ele>189.5</ele>
        <time>2015-12-09T15:30:47.48Z</time>
      </trkpt>
      <trkpt lat="45.93461" lon="4.72374">
        <ele>189.100006104</ele>
        <time>2015-12-09T15:30:48.494Z</time>
      </trkpt>
      <trkpt lat="45.93456" lon="4.72379">
        <ele>188.699996948</ele>
        <time>2015-12-09T15:30:49.479Z</time>
      </trkpt>
      <trkpt lat="45.93451" lon="4.72384">
        <ele>188</ele>
        <time>2015-12-09T15:30:50.493Z</time>
      </trkpt>
      <trkpt lat="45.93445" lon="4.72389">
        <ele>187.100006104</ele>
        <time>2015-12-09T15:30:51.479Z</time>
      </trkpt>
      <trkpt lat="45.9344" lon="4.72393">
        <ele>186.100006104</ele>
        <time>2015-12-09T15:30:52.496Z</time>
      </trkpt>
      <trkpt lat="45.93434" lon="4.72397">
        <ele>185.300003052</ele>
        <time>2015-12-09T15:30:53.48Z</time>
      </trkpt>
      <trkpt lat="45.93429" lon="4.724">
        <ele>184.600006104</ele>
        <time>2015-12-09T15:30:54.493Z</time>
      </trkpt>
      <trkpt lat="45.93424" lon="4.72403">
        <ele>183.899993896</ele>
        <time>2015-12-09T15:30:55.479Z</time>
      </trkpt>
      <trkpt lat="45.93419" lon="4.72405">
        <ele>183.600006104</ele>
        <time>2015-12-09T15:30:56.493Z</time>
      </trkpt>
      <trkpt lat="45.93413" lon="4.72407">
        <ele>183.300003052</ele>
        <time>2015-12-09T15:30:57.48Z</time>
      </trkpt>
      <trkpt lat="45.93408" lon="4.72407">
        <ele>182.600006104</ele>
        <time>2015-12-09T15:30:58.496Z</time>
      </trkpt>
      <trkpt lat="45.93403" lon="4.72407">
        <ele>182.399993896</ele>
        <time>2015-12-09T15:30:59.479Z</time>
      </trkpt>
      <trkpt lat="45.93399" lon="4.72406">
        <ele>182.300003052</ele>
        <time>2015-12-09T15:31:00.507Z</time>
      </trkpt>
      <trkpt lat="45.93394" lon="4.72406">
        <ele>182.300003052</ele>
        <time>2015-12-09T15:31:01.479Z</time>
      </trkpt>
      <trkpt lat="45.93388" lon="4.72416">
        <ele>183</ele>
        <time>2015-12-09T15:31:03.493Z</time>
      </trkpt>
      <trkpt lat="45.93387" lon="4.72422">
        <ele>182.899993896</ele>
        <time>2015-12-09T15:31:04.482Z</time>
      </trkpt>
      <trkpt lat="45.93388" lon="4.72429">
        <ele>183</ele>
        <time>2015-12-09T15:31:05.493Z</time>
      </trkpt>
      <trkpt lat="45.9339" lon="4.72436">
        <ele>182.800003052</ele>
        <time>2015-12-09T15:31:06.48Z</time>
      </trkpt>
      <trkpt lat="45.93392" lon="4.72442">
        <ele>182.899993896</ele>
        <time>2015-12-09T15:31:07.494Z</time>
      </trkpt>
      <trkpt lat="45.93393" lon="4.7245">
        <ele>182.899993896</ele>
        <time>2015-12-09T15:31:08.479Z</time>
      </trkpt>
      <trkpt lat="45.93393" lon="4.72458">
        <ele>183</ele>
        <time>2015-12-09T15:31:09.493Z</time>
      </trkpt>
      <trkpt lat="45.9339" lon="4.72465">
        <ele>183</ele>
        <time>2015-12-09T15:31:10.482Z</time>
      </trkpt>
      <trkpt lat="45.93387" lon="4.72471">
        <ele>183.199996948</ele>
        <time>2015-12-09T15:31:11.51Z</time>
      </trkpt>
      <trkpt lat="45.93382" lon="4.72477">
        <ele>183.100006104</ele>
        <time>2015-12-09T15:31:12.479Z</time>
      </trkpt>
      <trkpt lat="45.93377" lon="4.72482">
        <ele>183.100006104</ele>
        <time>2015-12-09T15:31:13.493Z</time>
      </trkpt>
      <trkpt lat="45.93372" lon="4.72486">
        <ele>182.5</ele>
        <time>2015-12-09T15:31:14.479Z</time>
      </trkpt>
      <trkpt lat="45.93367" lon="4.72491">
        <ele>182.100006104</ele>
        <time>2015-12-09T15:31:15.493Z</time>
      </trkpt>
      <trkpt lat="45.93362" lon="4.72497">
        <ele>181.699996948</ele>
        <time>2015-12-09T15:31:16.482Z</time>
      </trkpt>
      <trkpt lat="45.93357" lon="4.72503">
        <ele>181.300003052</ele>
        <time>2015-12-09T15:31:17.496Z</time>
      </trkpt>
      <trkpt lat="45.93351" lon="4.72509">
        <ele>180.699996948</ele>
        <time>2015-12-09T15:31:18.479Z</time>
      </trkpt>
      <trkpt lat="45.93346" lon="4.72514">
        <ele>180.199996948</ele>
        <time>2015-12-09T15:31:19.494Z</time>
      </trkpt>
      <trkpt lat="45.93341" lon="4.7252">
        <ele>179.800003052</ele>
        <time>2015-12-09T15:31:20.479Z</time>
      </trkpt>
      <trkpt lat="45.93336" lon="4.72525">
        <ele>179.600006104</ele>
        <time>2015-12-09T15:31:21.493Z</time>
      </trkpt>
      <trkpt lat="45.93331" lon="4.72531">
        <ele>179.199996948</ele>
        <time>2015-12-09T15:31:22.482Z</time>
      </trkpt>
      <trkpt lat="45.93327" lon="4.72536">
        <ele>178.899993896</ele>
        <time>2015-12-09T15:31:23.493Z</time>
      </trkpt>
      <trkpt lat="45.93322" lon="4.72541">
        <ele>178.800003052</ele>
        <time>2015-12-09T15:31:24.48Z</time>
      </trkpt>
      <trkpt lat="45.93317" lon="4.72546">
        <ele>178.100006104</ele>
        <time>2015-12-09T15:31:25.493Z</time>
      </trkpt>
      <trkpt lat="45.93313" lon="4.72552">
        <ele>177.899993896</ele>
        <time>2015-12-09T15:31:26.479Z</time>
      </trkpt>
      <trkpt lat="45.93308" lon="4.72558">
        <ele>177.399993896</ele>
        <time>2015-12-09T15:31:27.51Z</time>
      </trkpt>
      <trkpt lat="45.93303" lon="4.72563">
        <ele>177.399993896</ele>
        <time>2015-12-09T15:31:28.482Z</time>
      </trkpt>
      <trkpt lat="45.93298" lon="4.72569">
        <ele>177.5</ele>
        <time>2015-12-09T15:31:29.493Z</time>
      </trkpt>
      <trkpt lat="45.93293" lon="4.72575">
        <ele>177.699996948</ele>
        <time>2015-12-09T15:31:30.48Z</time>
      </trkpt>
      <trkpt lat="45.93288" lon="4.7258">
        <ele>177.5</ele>
        <time>2015-12-09T15:31:31.493Z</time>
      </trkpt>
      <trkpt lat="45.93283" lon="4.72586">
        <ele>177.300003052</ele>
        <time>2015-12-09T15:31:32.479Z</time>
      </trkpt>
      <trkpt lat="45.93278" lon="4.72592">
        <ele>176.399993896</ele>
        <time>2015-12-09T15:31:33.493Z</time>
      </trkpt>
      <trkpt lat="45.93274" lon="4.72598">
        <ele>176.399993896</ele>
        <time>2015-12-09T15:31:34.482Z</time>
      </trkpt>
      <trkpt lat="45.93269" lon="4.72603">
        <ele>176.399993896</ele>
        <time>2015-12-09T15:31:35.493Z</time>
      </trkpt>
      <trkpt lat="45.93264" lon="4.72608">
        <ele>176.399993896</ele>
        <time>2015-12-09T15:31:36.48Z</time>
      </trkpt>
      <trkpt lat="45.9326" lon="4.72614">
        <ele>176.100006104</ele>
        <time>2015-12-09T15:31:37.497Z</time>
      </trkpt>
      <trkpt lat="45.93255" lon="4.7262">
        <ele>175.699996948</ele>
        <time>2015-12-09T15:31:38.517Z</time>
      </trkpt>
      <trkpt lat="45.9325" lon="4.72625">
        <ele>175.699996948</ele>
        <time>2015-12-09T15:31:39.492Z</time>
      </trkpt>
      <trkpt lat="45.93245" lon="4.72631">
        <ele>175.600006104</ele>
        <time>2015-12-09T15:31:40.482Z</time>
      </trkpt>
      <trkpt lat="45.9324" lon="4.72637">
        <ele>175.399993896</ele>
        <time>2015-12-09T15:31:41.493Z</time>
      </trkpt>
      <trkpt lat="45.93235" lon="4.72643">
        <ele>175.100006104</ele>
        <time>2015-12-09T15:31:42.479Z</time>
      </trkpt>
      <trkpt lat="45.9323" lon="4.72649">
        <ele>174.899993896</ele>
        <time>2015-12-09T15:31:43.506Z</time>
      </trkpt>
      <trkpt lat="45.93225" lon="4.72655">
        <ele>175.100006104</ele>
        <time>2015-12-09T15:31:44.478Z</time>
      </trkpt>
      <trkpt lat="45.93221" lon="4.72661">
        <ele>175</ele>
        <time>2015-12-09T15:31:45.494Z</time>
      </trkpt>
      <trkpt lat="45.93217" lon="4.72667">
        <ele>175</ele>
        <time>2015-12-09T15:31:46.482Z</time>
      </trkpt>
      <trkpt lat="45.93212" lon="4.72673">
        <ele>175.300003052</ele>
        <time>2015-12-09T15:31:47.499Z</time>
      </trkpt>
      <trkpt lat="45.93207" lon="4.72678">
        <ele>175.5</ele>
        <time>2015-12-09T15:31:48.48Z</time>
      </trkpt>
      <trkpt lat="45.93203" lon="4.72684">
        <ele>175.199996948</ele>
        <time>2015-12-09T15:31:49.493Z</time>
      </trkpt>
      <trkpt lat="45.93198" lon="4.7269">
        <ele>175.300003052</ele>
        <time>2015-12-09T15:31:50.479Z</time>
      </trkpt>
      <trkpt lat="45.93193" lon="4.72696">
        <ele>175.199996948</ele>
        <time>2015-12-09T15:31:51.492Z</time>
      </trkpt>
      <trkpt lat="45.93188" lon="4.72701">
        <ele>174.899993896</ele>
        <time>2015-12-09T15:31:52.482Z</time>
      </trkpt>
      <trkpt lat="45.93184" lon="4.72707">
        <ele>175</ele>
        <time>2015-12-09T15:31:53.492Z</time>
      </trkpt>
      <trkpt lat="45.93179" lon="4.72712">
        <ele>174.899993896</ele>
        <time>2015-12-09T15:31:54.494Z</time>
      </trkpt>
      <trkpt lat="45.93174" lon="4.72717">
        <ele>174.300003052</ele>
        <time>2015-12-09T15:31:55.492Z</time>
      </trkpt>
      <trkpt lat="45.93169" lon="4.72723">
        <ele>174</ele>
        <time>2015-12-09T15:31:56.479Z</time>
      </trkpt>
      <trkpt lat="45.93164" lon="4.72728">
        <ele>174</ele>
        <time>2015-12-09T15:31:57.5Z</time>
      </trkpt>
      <trkpt lat="45.93159" lon="4.72734">
        <ele>173.800003052</ele>
        <time>2015-12-09T15:31:58.482Z</time>
      </trkpt>
      <trkpt lat="45.93154" lon="4.72739">
        <ele>173.699996948</ele>
        <time>2015-12-09T15:31:59.492Z</time>
      </trkpt>
      <trkpt lat="45.93149" lon="4.72745">
        <ele>173.899993896</ele>
        <time>2015-12-09T15:32:00.48Z</time>
      </trkpt>
      <trkpt lat="45.93144" lon="4.7275">
        <ele>173.899993896</ele>
        <time>2015-12-09T15:32:01.493Z</time>
      </trkpt>
      <trkpt lat="45.93139" lon="4.72756">
        <ele>173.800003052</ele>
        <time>2015-12-09T15:32:02.478Z</time>
      </trkpt>
      <trkpt lat="45.93134" lon="4.72762">
        <ele>173.699996948</ele>
        <time>2015-12-09T15:32:03.493Z</time>
      </trkpt>
      <trkpt lat="45.9313" lon="4.72768">
        <ele>173.600006104</ele>
        <time>2015-12-09T15:32:04.482Z</time>
      </trkpt>
      <trkpt lat="45.93125" lon="4.72774">
        <ele>173.699996948</ele>
        <time>2015-12-09T15:32:05.493Z</time>
      </trkpt>
      <trkpt lat="45.9312" lon="4.7278">
        <ele>173.600006104</ele>
        <time>2015-12-09T15:32:06.479Z</time>
      </trkpt>
      <trkpt lat="45.93115" lon="4.72786">
        <ele>173.300003052</ele>
        <time>2015-12-09T15:32:07.501Z</time>
      </trkpt>
      <trkpt lat="45.9311" lon="4.72792">
        <ele>172.899993896</ele>
        <time>2015-12-09T15:32:08.479Z</time>
      </trkpt>
      <trkpt lat="45.93105" lon="4.72798">
        <ele>172.600006104</ele>
        <time>2015-12-09T15:32:09.493Z</time>
      </trkpt>
      <trkpt lat="45.931" lon="4.72803">
        <ele>172.5</ele>
        <time>2015-12-09T15:32:10.497Z</time>
      </trkpt>
      <trkpt lat="45.93095" lon="4.72808">
        <ele>172.5</ele>
        <time>2015-12-09T15:32:11.496Z</time>
      </trkpt>
      <trkpt lat="45.9309" lon="4.72814">
        <ele>172.399993896</ele>
        <time>2015-12-09T15:32:12.48Z</time>
      </trkpt>
      <trkpt lat="45.93085" lon="4.72819">
        <ele>172.300003052</ele>
        <time>2015-12-09T15:32:13.493Z</time>
      </trkpt>
      <trkpt lat="45.9308" lon="4.72824">
        <ele>172.199996948</ele>
        <time>2015-12-09T15:32:14.479Z</time>
      </trkpt>
      <trkpt lat="45.93075" lon="4.72827">
        <ele>172.100006104</ele>
        <time>2015-12-09T15:32:15.493Z</time>
      </trkpt>
      <trkpt lat="45.93069" lon="4.7283">
        <ele>172.100006104</ele>
        <time>2015-12-09T15:32:16.482Z</time>
      </trkpt>
      <trkpt lat="45.93064" lon="4.72835">
        <ele>172</ele>
        <time>2015-12-09T15:32:17.502Z</time>
      </trkpt>
      <trkpt lat="45.93058" lon="4.72839">
        <ele>171.800003052</ele>
        <time>2015-12-09T15:32:18.48Z</time>
      </trkpt>
      <trkpt lat="45.93058" lon="4.72839">
        <ele>171.800003052</ele>
        <time>2015-12-09T15:32:18.495Z</time>
      </trkpt>
      <trkpt lat="45.93054" lon="4.72851">
        <ele>171.600006104</ele>
        <time>2015-12-09T15:32:19.479Z</time>
      </trkpt>
      <trkpt lat="45.93048" lon="4.72857">
        <ele>171.199996948</ele>
        <time>2015-12-09T15:32:20.493Z</time>
      </trkpt>
      <trkpt lat="45.93043" lon="4.72864">
        <ele>171.100006104</ele>
        <time>2015-12-09T15:32:21.479Z</time>
      </trkpt>
      <trkpt lat="45.93038" lon="4.7287">
        <ele>171.100006104</ele>
        <time>2015-12-09T15:32:22.495Z</time>
      </trkpt>
      <trkpt lat="45.93035" lon="4.72876">
        <ele>171.100006104</ele>
        <time>2015-12-09T15:32:23.478Z</time>
      </trkpt>
      <trkpt lat="45.9303" lon="4.72881">
        <ele>171.300003052</ele>
        <time>2015-12-09T15:32:24.493Z</time>
      </trkpt>
      <trkpt lat="45.93025" lon="4.72887">
        <ele>171.300003052</ele>
        <time>2015-12-09T15:32:25.478Z</time>
      </trkpt>
      <trkpt lat="45.9302" lon="4.72892">
        <ele>171.399993896</ele>
        <time>2015-12-09T15:32:26.493Z</time>
      </trkpt>
      <trkpt lat="45.93016" lon="4.72898">
        <ele>171.100006104</ele>
        <time>2015-12-09T15:32:27.48Z</time>
      </trkpt>
      <trkpt lat="45.93012" lon="4.72903">
        <ele>170.899993896</ele>
        <time>2015-12-09T15:32:28.495Z</time>
      </trkpt>
      <trkpt lat="45.93008" lon="4.72909">
        <ele>170.399993896</ele>
        <time>2015-12-09T15:32:29.479Z</time>
      </trkpt>
      <trkpt lat="45.93004" lon="4.72915">
        <ele>170.100006104</ele>
        <time>2015-12-09T15:32:30.493Z</time>
      </trkpt>
      <trkpt lat="45.93" lon="4.7292">
        <ele>170.199996948</ele>
        <time>2015-12-09T15:32:31.479Z</time>
      </trkpt>
      <trkpt lat="45.92996" lon="4.72925">
        <ele>170</ele>
        <time>2015-12-09T15:32:32.507Z</time>
      </trkpt>
      <trkpt lat="45.92992" lon="4.7293">
        <ele>169.899993896</ele>
        <time>2015-12-09T15:32:33.478Z</time>
      </trkpt>
      <trkpt lat="45.92987" lon="4.72935">
        <ele>169.5</ele>
        <time>2015-12-09T15:32:34.496Z</time>
      </trkpt>
      <trkpt lat="45.92983" lon="4.7294">
        <ele>169.300003052</ele>
        <time>2015-12-09T15:32:35.479Z</time>
      </trkpt>
      <trkpt lat="45.92978" lon="4.72945">
        <ele>169.300003052</ele>
        <time>2015-12-09T15:32:36.493Z</time>
      </trkpt>
      <trkpt lat="45.92974" lon="4.72951">
        <ele>169.699996948</ele>
        <time>2015-12-09T15:32:37.481Z</time>
      </trkpt>
      <trkpt lat="45.92969" lon="4.72956">
        <ele>170</ele>
        <time>2015-12-09T15:32:38.493Z</time>
      </trkpt>
      <trkpt lat="45.92965" lon="4.72961">
        <ele>170.100006104</ele>
        <time>2015-12-09T15:32:39.479Z</time>
      </trkpt>
      <trkpt lat="45.9296" lon="4.72966">
        <ele>170.300003052</ele>
        <time>2015-12-09T15:32:40.496Z</time>
      </trkpt>
      <trkpt lat="45.92956" lon="4.72971">
        <ele>170.300003052</ele>
        <time>2015-12-09T15:32:41.478Z</time>
      </trkpt>
      <trkpt lat="45.92951" lon="4.72977">
        <ele>170.5</ele>
        <time>2015-12-09T15:32:42.494Z</time>
      </trkpt>
      <trkpt lat="45.92946" lon="4.72982">
        <ele>170.600006104</ele>
        <time>2015-12-09T15:32:43.479Z</time>
      </trkpt>
      <trkpt lat="45.92942" lon="4.72987">
        <ele>170.800003052</ele>
        <time>2015-12-09T15:32:44.533Z</time>
      </trkpt>
      <trkpt lat="45.92937" lon="4.72993">
        <ele>170.899993896</ele>
        <time>2015-12-09T15:32:45.479Z</time>
      </trkpt>
      <trkpt lat="45.92933" lon="4.72998">
        <ele>171</ele>
        <time>2015-12-09T15:32:46.495Z</time>
      </trkpt>
      <trkpt lat="45.92928" lon="4.73003">
        <ele>171.100006104</ele>
        <time>2015-12-09T15:32:47.479Z</time>
      </trkpt>
      <trkpt lat="45.92924" lon="4.73008">
        <ele>171.300003052</ele>
        <time>2015-12-09T15:32:48.511Z</time>
      </trkpt>
      <trkpt lat="45.9292" lon="4.73013">
        <ele>171.5</ele>
        <time>2015-12-09T15:32:49.479Z</time>
      </trkpt>
      <trkpt lat="45.92916" lon="4.73018">
        <ele>171.899993896</ele>
        <time>2015-12-09T15:32:50.493Z</time>
      </trkpt>
      <trkpt lat="45.92912" lon="4.73023">
        <ele>171.800003052</ele>
        <time>2015-12-09T15:32:51.478Z</time>
      </trkpt>
      <trkpt lat="45.92908" lon="4.73028">
        <ele>171.800003052</ele>
        <time>2015-12-09T15:32:52.496Z</time>
      </trkpt>
      <trkpt lat="45.92904" lon="4.73033">
        <ele>171.899993896</ele>
        <time>2015-12-09T15:32:53.478Z</time>
      </trkpt>
      <trkpt lat="45.92901" lon="4.73038">
        <ele>172.100006104</ele>
        <time>2015-12-09T15:32:54.494Z</time>
      </trkpt>
      <trkpt lat="45.92898" lon="4.73043">
        <ele>172</ele>
        <time>2015-12-09T15:32:55.48Z</time>
      </trkpt>
      <trkpt lat="45.92894" lon="4.73049">
        <ele>172</ele>
        <time>2015-12-09T15:32:56.495Z</time>
      </trkpt>
      <trkpt lat="45.92891" lon="4.73055">
        <ele>172</ele>
        <time>2015-12-09T15:32:57.48Z</time>
      </trkpt>
      <trkpt lat="45.92888" lon="4.73061">
        <ele>172</ele>
        <time>2015-12-09T15:32:58.498Z</time>
      </trkpt>
      <trkpt lat="45.92885" lon="4.73068">
        <ele>172.100006104</ele>
        <time>2015-12-09T15:32:59.48Z</time>
      </trkpt>
      <trkpt lat="45.92882" lon="4.73075">
        <ele>172.300003052</ele>
        <time>2015-12-09T15:33:00.494Z</time>
      </trkpt>
      <trkpt lat="45.92879" lon="4.73082">
        <ele>172.100006104</ele>
        <time>2015-12-09T15:33:01.478Z</time>
      </trkpt>
      <trkpt lat="45.92877" lon="4.7309">
        <ele>171.899993896</ele>
        <time>2015-12-09T15:33:02.492Z</time>
      </trkpt>
      <trkpt lat="45.92875" lon="4.73098">
        <ele>171.600006104</ele>
        <time>2015-12-09T15:33:03.478Z</time>
      </trkpt>
      <trkpt lat="45.92872" lon="4.73106">
        <ele>171.5</ele>
        <time>2015-12-09T15:33:04.509Z</time>
      </trkpt>
      <trkpt lat="45.92871" lon="4.73114">
        <ele>171.5</ele>
        <time>2015-12-09T15:33:05.478Z</time>
      </trkpt>
      <trkpt lat="45.92869" lon="4.73122">
        <ele>171.399993896</ele>
        <time>2015-12-09T15:33:06.494Z</time>
      </trkpt>
      <trkpt lat="45.92868" lon="4.73129">
        <ele>171.399993896</ele>
        <time>2015-12-09T15:33:07.48Z</time>
      </trkpt>
      <trkpt lat="45.92866" lon="4.73137">
        <ele>171.399993896</ele>
        <time>2015-12-09T15:33:08.493Z</time>
      </trkpt>
      <trkpt lat="45.92865" lon="4.73145">
        <ele>171.100006104</ele>
        <time>2015-12-09T15:33:09.479Z</time>
      </trkpt>
      <trkpt lat="45.92864" lon="4.73153">
        <ele>171.399993896</ele>
        <time>2015-12-09T15:33:10.496Z</time>
      </trkpt>
      <trkpt lat="45.92863" lon="4.73162">
        <ele>171.300003052</ele>
        <time>2015-12-09T15:33:11.481Z</time>
      </trkpt>
      <trkpt lat="45.92862" lon="4.7317">
        <ele>171.399993896</ele>
        <time>2015-12-09T15:33:12.494Z</time>
      </trkpt>
      <trkpt lat="45.92861" lon="4.73179">
        <ele>171.399993896</ele>
        <time>2015-12-09T15:33:13.478Z</time>
      </trkpt>
      <trkpt lat="45.9286" lon="4.73187">
        <ele>171.399993896</ele>
        <time>2015-12-09T15:33:14.493Z</time>
      </trkpt>
      <trkpt lat="45.92859" lon="4.73196">
        <ele>171.199996948</ele>
        <time>2015-12-09T15:33:15.478Z</time>
      </trkpt>
      <trkpt lat="45.92859" lon="4.73205">
        <ele>171.300003052</ele>
        <time>2015-12-09T15:33:16.495Z</time>
      </trkpt>
      <trkpt lat="45.92858" lon="4.73214">
        <ele>171.399993896</ele>
        <time>2015-12-09T15:33:17.48Z</time>
      </trkpt>
      <trkpt lat="45.92857" lon="4.73222">
        <ele>171.5</ele>
        <time>2015-12-09T15:33:18.493Z</time>
      </trkpt>
      <trkpt lat="45.92856" lon="4.7323">
        <ele>171.699996948</ele>
        <time>2015-12-09T15:33:19.478Z</time>
      </trkpt>
      <trkpt lat="45.92855" lon="4.73238">
        <ele>171.800003052</ele>
        <time>2015-12-09T15:33:20.499Z</time>
      </trkpt>
      <trkpt lat="45.92854" lon="4.73246">
        <ele>172.100006104</ele>
        <time>2015-12-09T15:33:21.479Z</time>
      </trkpt>
      <trkpt lat="45.92853" lon="4.73254">
        <ele>172.199996948</ele>
        <time>2015-12-09T15:33:22.496Z</time>
      </trkpt>
      <trkpt lat="45.92853" lon="4.73261">
        <ele>172.399993896</ele>
        <time>2015-12-09T15:33:23.478Z</time>
      </trkpt>
      <trkpt lat="45.92852" lon="4.73269">
        <ele>172.600006104</ele>
        <time>2015-12-09T15:33:24.494Z</time>
      </trkpt>
      <trkpt lat="45.92851" lon="4.73277">
        <ele>172.800003052</ele>
        <time>2015-12-09T15:33:25.478Z</time>
      </trkpt>
      <trkpt lat="45.9285" lon="4.73284">
        <ele>173</ele>
        <time>2015-12-09T15:33:26.493Z</time>
      </trkpt>
      <trkpt lat="45.92849" lon="4.73292">
        <ele>173.100006104</ele>
        <time>2015-12-09T15:33:27.481Z</time>
      </trkpt>
      <trkpt lat="45.92848" lon="4.733">
        <ele>173.300003052</ele>
        <time>2015-12-09T15:33:28.628Z</time>
      </trkpt>
      <trkpt lat="45.92847" lon="4.73307">
        <ele>173.399993896</ele>
        <time>2015-12-09T15:33:29.48Z</time>
      </trkpt>
      <trkpt lat="45.92846" lon="4.73315">
        <ele>173.600006104</ele>
        <time>2015-12-09T15:33:30.493Z</time>
      </trkpt>
      <trkpt lat="45.92844" lon="4.73324">
        <ele>173.800003052</ele>
        <time>2015-12-09T15:33:31.479Z</time>
      </trkpt>
      <trkpt lat="45.92844" lon="4.73332">
        <ele>173.800003052</ele>
        <time>2015-12-09T15:33:32.493Z</time>
      </trkpt>
      <trkpt lat="45.92843" lon="4.7334">
        <ele>173.800003052</ele>
        <time>2015-12-09T15:33:33.479Z</time>
      </trkpt>
      <trkpt lat="45.92842" lon="4.73348">
        <ele>174</ele>
        <time>2015-12-09T15:33:34.496Z</time>
      </trkpt>
      <trkpt lat="45.92841" lon="4.73357">
        <ele>174</ele>
        <time>2015-12-09T15:33:35.478Z</time>
      </trkpt>
      <trkpt lat="45.9284" lon="4.73365">
        <ele>173.899993896</ele>
        <time>2015-12-09T15:33:36.507Z</time>
      </trkpt>
      <trkpt lat="45.92839" lon="4.73373">
        <ele>173.899993896</ele>
        <time>2015-12-09T15:33:37.481Z</time>
      </trkpt>
      <trkpt lat="45.92838" lon="4.73382">
        <ele>173.899993896</ele>
        <time>2015-12-09T15:33:38.493Z</time>
      </trkpt>
      <trkpt lat="45.92837" lon="4.7339">
        <ele>174.300003052</ele>
        <time>2015-12-09T15:33:39.489Z</time>
      </trkpt>
      <trkpt lat="45.92836" lon="4.73399">
        <ele>174.5</ele>
        <time>2015-12-09T15:33:40.496Z</time>
      </trkpt>
      <trkpt lat="45.92835" lon="4.73407">
        <ele>174.600006104</ele>
        <time>2015-12-09T15:33:41.479Z</time>
      </trkpt>
      <trkpt lat="45.92834" lon="4.73416">
        <ele>174.800003052</ele>
        <time>2015-12-09T15:33:42.494Z</time>
      </trkpt>
      <trkpt lat="45.92833" lon="4.73424">
        <ele>175.100006104</ele>
        <time>2015-12-09T15:33:43.478Z</time>
      </trkpt>
      <trkpt lat="45.92832" lon="4.73432">
        <ele>175.199996948</ele>
        <time>2015-12-09T15:33:44.493Z</time>
      </trkpt>
      <trkpt lat="45.92831" lon="4.73441">
        <ele>175.5</ele>
        <time>2015-12-09T15:33:45.478Z</time>
      </trkpt>
      <trkpt lat="45.9283" lon="4.73449">
        <ele>175.800003052</ele>
        <time>2015-12-09T15:33:46.495Z</time>
      </trkpt>
      <trkpt lat="45.92829" lon="4.73457">
        <ele>176.100006104</ele>
        <time>2015-12-09T15:33:47.481Z</time>
      </trkpt>
      <trkpt lat="45.92828" lon="4.73465">
        <ele>176.300003052</ele>
        <time>2015-12-09T15:33:48.493Z</time>
      </trkpt>
      <trkpt lat="45.92826" lon="4.73473">
        <ele>176.600006104</ele>
        <time>2015-12-09T15:33:49.478Z</time>
      </trkpt>
      <trkpt lat="45.92825" lon="4.73482">
        <ele>176.600006104</ele>
        <time>2015-12-09T15:33:50.492Z</time>
      </trkpt>
      <trkpt lat="45.92824" lon="4.7349">
        <ele>176.399993896</ele>
        <time>2015-12-09T15:33:51.478Z</time>
      </trkpt>
      <trkpt lat="45.92823" lon="4.73499">
        <ele>176.699996948</ele>
        <time>2015-12-09T15:33:52.519Z</time>
      </trkpt>
      <trkpt lat="45.92822" lon="4.73507">
        <ele>177.300003052</ele>
        <time>2015-12-09T15:33:53.478Z</time>
      </trkpt>
      <trkpt lat="45.92821" lon="4.73515">
        <ele>177.699996948</ele>
        <time>2015-12-09T15:33:54.493Z</time>
      </trkpt>
      <trkpt lat="45.9282" lon="4.73524">
        <ele>178.100006104</ele>
        <time>2015-12-09T15:33:55.478Z</time>
      </trkpt>
      <trkpt lat="45.92819" lon="4.73532">
        <ele>178.699996948</ele>
        <time>2015-12-09T15:33:56.493Z</time>
      </trkpt>
      <trkpt lat="45.92819" lon="4.73542">
        <ele>178.899993896</ele>
        <time>2015-12-09T15:33:57.483Z</time>
      </trkpt>
      <trkpt lat="45.92818" lon="4.73551">
        <ele>179</ele>
        <time>2015-12-09T15:33:58.495Z</time>
      </trkpt>
      <trkpt lat="45.92818" lon="4.73559">
        <ele>179.399993896</ele>
        <time>2015-12-09T15:33:59.478Z</time>
      </trkpt>
      <trkpt lat="45.92817" lon="4.73568">
        <ele>179.300003052</ele>
        <time>2015-12-09T15:34:00.493Z</time>
      </trkpt>
      <trkpt lat="45.92817" lon="4.73576">
        <ele>179.399993896</ele>
        <time>2015-12-09T15:34:01.478Z</time>
      </trkpt>
      <trkpt lat="45.92817" lon="4.73584">
        <ele>179.5</ele>
        <time>2015-12-09T15:34:02.492Z</time>
      </trkpt>
      <trkpt lat="45.92817" lon="4.73593">
        <ele>179.399993896</ele>
        <time>2015-12-09T15:34:03.478Z</time>
      </trkpt>
      <trkpt lat="45.92817" lon="4.736">
        <ele>179.699996948</ele>
        <time>2015-12-09T15:34:04.495Z</time>
      </trkpt>
      <trkpt lat="45.92817" lon="4.73608">
        <ele>179.600006104</ele>
        <time>2015-12-09T15:34:05.478Z</time>
      </trkpt>
      <trkpt lat="45.92816" lon="4.73615">
        <ele>179.300003052</ele>
        <time>2015-12-09T15:34:06.494Z</time>
      </trkpt>
      <trkpt lat="45.92814" lon="4.73621">
        <ele>179.899993896</ele>
        <time>2015-12-09T15:34:07.483Z</time>
      </trkpt>
      <trkpt lat="45.92811" lon="4.73626">
        <ele>180.199996948</ele>
        <time>2015-12-09T15:34:08.516Z</time>
      </trkpt>
      <trkpt lat="45.92806" lon="4.7363">
        <ele>180.399993896</ele>
        <time>2015-12-09T15:34:09.478Z</time>
      </trkpt>
      <trkpt lat="45.92803" lon="4.73635">
        <ele>180.699996948</ele>
        <time>2015-12-09T15:34:10.496Z</time>
      </trkpt>
      <trkpt lat="45.92801" lon="4.73642">
        <ele>180.699996948</ele>
        <time>2015-12-09T15:34:11.48Z</time>
      </trkpt>
      <trkpt lat="45.92799" lon="4.73649">
        <ele>180.699996948</ele>
        <time>2015-12-09T15:34:12.631Z</time>
      </trkpt>
      <trkpt lat="45.92797" lon="4.73656">
        <ele>180.899993896</ele>
        <time>2015-12-09T15:34:13.479Z</time>
      </trkpt>
      <trkpt lat="45.92797" lon="4.73663">
        <ele>181.399993896</ele>
        <time>2015-12-09T15:34:14.492Z</time>
      </trkpt>
      <trkpt lat="45.92796" lon="4.7367">
        <ele>181.600006104</ele>
        <time>2015-12-09T15:34:15.479Z</time>
      </trkpt>
      <trkpt lat="45.92794" lon="4.73682">
        <ele>182.5</ele>
        <time>2015-12-09T15:34:17.51Z</time>
      </trkpt>
      <trkpt lat="45.92792" lon="4.73688">
        <ele>182.899993896</ele>
        <time>2015-12-09T15:34:18.479Z</time>
      </trkpt>
      <trkpt lat="45.9279" lon="4.737">
        <ele>184.100006104</ele>
        <time>2015-12-09T15:34:20.492Z</time>
      </trkpt>
      <trkpt lat="45.92789" lon="4.73706">
        <ele>184.699996948</ele>
        <time>2015-12-09T15:34:21.478Z</time>
      </trkpt>
      <trkpt lat="45.92787" lon="4.73717">
        <ele>185.800003052</ele>
        <time>2015-12-09T15:34:23.492Z</time>
      </trkpt>
      <trkpt lat="45.92784" lon="4.73721">
        <ele>186.300003052</ele>
        <time>2015-12-09T15:34:24.496Z</time>
      </trkpt>
      <trkpt lat="45.92777" lon="4.73723">
        <ele>186.300003052</ele>
        <time>2015-12-09T15:34:26.492Z</time>
      </trkpt>
      <trkpt lat="45.92772" lon="4.73722">
        <ele>186.199996948</ele>
        <time>2015-12-09T15:34:27.483Z</time>
      </trkpt>
      <trkpt lat="45.92767" lon="4.7372">
        <ele>186.5</ele>
        <time>2015-12-09T15:34:28.495Z</time>
      </trkpt>
      <trkpt lat="45.92762" lon="4.73717">
        <ele>186.399993896</ele>
        <time>2015-12-09T15:34:29.478Z</time>
      </trkpt>
      <trkpt lat="45.92756" lon="4.73715">
        <ele>186.600006104</ele>
        <time>2015-12-09T15:34:30.493Z</time>
      </trkpt>
      <trkpt lat="45.9275" lon="4.73714">
        <ele>186.899993896</ele>
        <time>2015-12-09T15:34:31.478Z</time>
      </trkpt>
      <trkpt lat="45.92743" lon="4.73713">
        <ele>187.199996948</ele>
        <time>2015-12-09T15:34:32.492Z</time>
      </trkpt>
      <trkpt lat="45.92737" lon="4.73711">
        <ele>187.399993896</ele>
        <time>2015-12-09T15:34:33.478Z</time>
      </trkpt>
      <trkpt lat="45.92731" lon="4.73709">
        <ele>187.600006104</ele>
        <time>2015-12-09T15:34:34.495Z</time>
      </trkpt>
      <trkpt lat="45.92724" lon="4.73707">
        <ele>187.699996948</ele>
        <time>2015-12-09T15:34:35.517Z</time>
      </trkpt>
      <trkpt lat="45.92718" lon="4.73706">
        <ele>187.899993896</ele>
        <time>2015-12-09T15:34:36.494Z</time>
      </trkpt>
      <trkpt lat="45.92711" lon="4.73704">
        <ele>187.800003052</ele>
        <time>2015-12-09T15:34:37.487Z</time>
      </trkpt>
      <trkpt lat="45.92705" lon="4.73703">
        <ele>187.600006104</ele>
        <time>2015-12-09T15:34:38.493Z</time>
      </trkpt>
      <trkpt lat="45.92698" lon="4.73701">
        <ele>187.300003052</ele>
        <time>2015-12-09T15:34:39.479Z</time>
      </trkpt>
      <trkpt lat="45.92691" lon="4.737">
        <ele>187.300003052</ele>
        <time>2015-12-09T15:34:40.511Z</time>
      </trkpt>
      <trkpt lat="45.92684" lon="4.73698">
        <ele>187.5</ele>
        <time>2015-12-09T15:34:41.478Z</time>
      </trkpt>
      <trkpt lat="45.92677" lon="4.73695">
        <ele>187.5</ele>
        <time>2015-12-09T15:34:42.494Z</time>
      </trkpt>
      <trkpt lat="45.9267" lon="4.73692">
        <ele>187.399993896</ele>
        <time>2015-12-09T15:34:43.478Z</time>
      </trkpt>
      <trkpt lat="45.92664" lon="4.73688">
        <ele>187.300003052</ele>
        <time>2015-12-09T15:34:44.493Z</time>
      </trkpt>
      <trkpt lat="45.92658" lon="4.73683">
        <ele>187</ele>
        <time>2015-12-09T15:34:45.478Z</time>
      </trkpt>
      <trkpt lat="45.92652" lon="4.73676">
        <ele>186.800003052</ele>
        <time>2015-12-09T15:34:46.496Z</time>
      </trkpt>
      <trkpt lat="45.92647" lon="4.73669">
        <ele>186.600006104</ele>
        <time>2015-12-09T15:34:47.487Z</time>
      </trkpt>
      <trkpt lat="45.92642" lon="4.73661">
        <ele>186.199996948</ele>
        <time>2015-12-09T15:34:48.493Z</time>
      </trkpt>
      <trkpt lat="45.92638" lon="4.73654">
        <ele>184.100006104</ele>
        <time>2015-12-09T15:34:49.479Z</time>
      </trkpt>
      <trkpt lat="45.92634" lon="4.73647">
        <ele>182.800003052</ele>
        <time>2015-12-09T15:34:50.503Z</time>
      </trkpt>
      <trkpt lat="45.92631" lon="4.73638">
        <ele>181.399993896</ele>
        <time>2015-12-09T15:34:51.478Z</time>
      </trkpt>
      <trkpt lat="45.92626" lon="4.7363">
        <ele>180.399993896</ele>
        <time>2015-12-09T15:34:52.495Z</time>
      </trkpt>
      <trkpt lat="45.92621" lon="4.73624">
        <ele>179.800003052</ele>
        <time>2015-12-09T15:34:53.478Z</time>
      </trkpt>
      <trkpt lat="45.92615" lon="4.73619">
        <ele>179.699996948</ele>
        <time>2015-12-09T15:34:54.494Z</time>
      </trkpt>
      <trkpt lat="45.92608" lon="4.73616">
        <ele>179.800003052</ele>
        <time>2015-12-09T15:34:55.478Z</time>
      </trkpt>
      <trkpt lat="45.926" lon="4.73615">
        <ele>179.699996948</ele>
        <time>2015-12-09T15:34:56.512Z</time>
      </trkpt>
      <trkpt lat="45.92593" lon="4.73615">
        <ele>179.800003052</ele>
        <time>2015-12-09T15:34:57.486Z</time>
      </trkpt>
      <trkpt lat="45.92585" lon="4.73617">
        <ele>179.800003052</ele>
        <time>2015-12-09T15:34:58.495Z</time>
      </trkpt>
      <trkpt lat="45.92578" lon="4.73619">
        <ele>179.899993896</ele>
        <time>2015-12-09T15:34:59.479Z</time>
      </trkpt>
      <trkpt lat="45.92572" lon="4.7362">
        <ele>180</ele>
        <time>2015-12-09T15:35:00.493Z</time>
      </trkpt>
      <trkpt lat="45.92566" lon="4.73622">
        <ele>180.100006104</ele>
        <time>2015-12-09T15:35:01.479Z</time>
      </trkpt>
      <trkpt lat="45.9256" lon="4.73625">
        <ele>179.800003052</ele>
        <time>2015-12-09T15:35:02.492Z</time>
      </trkpt>
      <trkpt lat="45.92554" lon="4.73627">
        <ele>179.699996948</ele>
        <time>2015-12-09T15:35:03.478Z</time>
      </trkpt>
      <trkpt lat="45.92548" lon="4.73629">
        <ele>179.800003052</ele>
        <time>2015-12-09T15:35:04.496Z</time>
      </trkpt>
      <trkpt lat="45.92542" lon="4.73631">
        <ele>179.600006104</ele>
        <time>2015-12-09T15:35:05.478Z</time>
      </trkpt>
      <trkpt lat="45.92536" lon="4.73632">
        <ele>179.600006104</ele>
        <time>2015-12-09T15:35:06.493Z</time>
      </trkpt>
      <trkpt lat="45.92531" lon="4.73634">
        <ele>179.300003052</ele>
        <time>2015-12-09T15:35:07.511Z</time>
      </trkpt>
      <trkpt lat="45.92526" lon="4.73635">
        <ele>179.399993896</ele>
        <time>2015-12-09T15:35:08.492Z</time>
      </trkpt>
      <trkpt lat="45.9252" lon="4.73635">
        <ele>179.399993896</ele>
        <time>2015-12-09T15:35:09.478Z</time>
      </trkpt>
      <trkpt lat="45.92515" lon="4.73636">
        <ele>179.5</ele>
        <time>2015-12-09T15:35:10.496Z</time>
      </trkpt>
      <trkpt lat="45.9251" lon="4.73636">
        <ele>179.600006104</ele>
        <time>2015-12-09T15:35:11.48Z</time>
      </trkpt>
      <trkpt lat="45.92506" lon="4.73637">
        <ele>179.600006104</ele>
        <time>2015-12-09T15:35:12.641Z</time>
      </trkpt>
      <trkpt lat="45.92501" lon="4.73636">
        <ele>179.800003052</ele>
        <time>2015-12-09T15:35:13.478Z</time>
      </trkpt>
      <trkpt lat="45.92492" lon="4.73637">
        <ele>179.5</ele>
        <time>2015-12-09T15:35:15.492Z</time>
      </trkpt>
      <trkpt lat="45.92488" lon="4.73636">
        <ele>179.399993896</ele>
        <time>2015-12-09T15:35:16.482Z</time>
      </trkpt>
      <trkpt lat="45.92479" lon="4.73636">
        <ele>179.300003052</ele>
        <time>2015-12-09T15:35:18.493Z</time>
      </trkpt>
      <trkpt lat="45.92476" lon="4.7364">
        <ele>179.5</ele>
        <time>2015-12-09T15:35:19.478Z</time>
      </trkpt>
      <trkpt lat="45.92473" lon="4.73645">
        <ele>179.699996948</ele>
        <time>2015-12-09T15:35:20.492Z</time>
      </trkpt>
      <trkpt lat="45.92472" lon="4.73651">
        <ele>179.899993896</ele>
        <time>2015-12-09T15:35:21.478Z</time>
      </trkpt>
      <trkpt lat="45.92471" lon="4.73663">
        <ele>180.300003052</ele>
        <time>2015-12-09T15:35:23.506Z</time>
      </trkpt>
      <trkpt lat="45.9247" lon="4.73669">
        <ele>180.5</ele>
        <time>2015-12-09T15:35:24.48Z</time>
      </trkpt>
      <trkpt lat="45.92469" lon="4.7368">
        <ele>180.699996948</ele>
        <time>2015-12-09T15:35:26.492Z</time>
      </trkpt>
      <trkpt lat="45.92468" lon="4.73685">
        <ele>181</ele>
        <time>2015-12-09T15:35:27.484Z</time>
      </trkpt>
      <trkpt lat="45.92467" lon="4.73694">
        <ele>181.699996948</ele>
        <time>2015-12-09T15:35:29.492Z</time>
      </trkpt>
      <trkpt lat="45.92465" lon="4.73698">
        <ele>182.100006104</ele>
        <time>2015-12-09T15:35:30.479Z</time>
      </trkpt>
      <trkpt lat="45.92465" lon="4.73704">
        <ele>183.199996948</ele>
        <time>2015-12-09T15:35:39.493Z</time>
      </trkpt>
      <trkpt lat="45.92466" lon="4.73705">
        <ele>183.600006104</ele>
        <time>2015-12-09T15:35:40.482Z</time>
      </trkpt>
      <trkpt lat="45.92465" lon="4.73705">
        <ele>183.699996948</ele>
        <time>2015-12-09T15:35:42.495Z</time>
      </trkpt>
      <trkpt lat="45.92464" lon="4.73705">
        <ele>183.800003052</ele>
        <time>2015-12-09T15:35:43.478Z</time>
      </trkpt>
      <trkpt lat="45.92462" lon="4.73706">
        <ele>184</ele>
        <time>2015-12-09T15:36:05.483Z</time>
      </trkpt>
    </trkseg>
  </trk>
</gpx>